
Distance (Route):
Temperature : 17.1°C
Humidity : 86.9%
Pressure : 992.11hPa| Receiver | Frames | First received | Last received |
|---|---|---|---|
| DL1XH-west | 898 | 2026-08-30 23:00:47 | 2026-08-31 01:42:36 |
| AA1-15 | 854 | 2026-08-30 23:06:59 | 2026-08-31 01:44:40 |
| DF8AY | 791 | 2026-08-30 23:02:43 | 2026-08-31 01:40:47 |
| DO2SHX-10 | 748 | 2026-08-30 23:10:38 | 2026-08-31 01:44:12 |
| BIOWL1-15 | 650 | 2026-08-30 23:04:34 | 2026-08-31 01:35:11 |
| DM0DOS-11 | 630 | 2026-08-30 23:00:08 | 2026-08-31 01:42:00 |
| DL1XH1-15 | 616 | 2026-08-30 23:01:34 | 2026-08-31 01:41:38 |
| DB0DAN | 579 | 2026-08-30 22:58:40 | 2026-08-31 01:45:10 |
| DL1XH-15 | 530 | 2026-08-30 23:01:21 | 2026-08-31 01:41:35 |
| GOEST3-10 | 201 | 2026-08-30 23:12:03 | 2026-08-31 01:20:13 |
| DD8BA-10 | 166 | 2026-08-30 23:06:00 | 2026-08-31 01:32:28 |
| HSKMA3-T | 156 | 2026-08-31 00:38:29 | 2026-08-31 01:13:02 |
| DL1NUX | 109 | 2026-08-31 00:28:03 | 2026-08-31 01:05:46 |
| DL3AQ-11 | 107 | 2026-08-30 23:13:48 | 2026-08-31 01:29:36 |
| DF8AY-15 | 72 | 2026-08-30 23:05:36 | 2026-08-31 01:39:05 |
| DL4BBY-15 | 71 | 2026-08-30 23:04:43 | 2026-08-31 01:31:08 |
| DF7ER-10 | 61 | 2026-08-30 23:20:18 | 2026-08-31 01:31:04 |
| SMARD9-15 | 60 | 2026-08-30 23:08:18 | 2026-08-31 01:42:00 |
| DL4XJ-10 | 57 | 2026-08-30 23:01:35 | 2026-08-31 00:48:52 |
| SONDE2-11 | 53 | 2026-08-30 23:23:53 | 2026-08-31 01:37:56 |
| S3001 | 52 | 2026-08-30 23:08:12 | 2026-08-31 01:41:22 |
| SONCRA | 52 | 2026-08-30 23:11:55 | 2026-08-31 01:34:53 |
| BIOWL9-15 | 50 | 2026-08-30 23:03:50 | 2026-08-31 01:37:33 |
| DB0NH | 50 | 2026-08-30 23:20:28 | 2026-08-31 01:24:23 |
| EDDB2-12 | 50 | 2026-08-30 23:24:36 | 2026-08-31 01:38:37 |
| DO9LL-15 | 48 | 2026-08-30 23:16:51 | 2026-08-31 01:27:17 |
| TFSTFS | 41 | 2026-08-30 23:24:42 | 2026-08-31 01:32:11 |
| DC4HF-4 | 37 | 2026-08-30 23:00:34 | 2026-08-31 01:35:37 |
| EDDB2-11 | 36 | 2026-08-30 23:35:51 | 2026-08-31 01:32:46 |
| AM1SDL-15 | 32 | 2026-08-30 23:08:38 | 2026-08-31 01:41:29 |
| BUE01 | 32 | 2026-08-30 23:23:01 | 2026-08-31 01:15:56 |
| DJ2DS-15 | 30 | 2026-08-30 23:04:56 | 2026-08-31 01:40:01 |
| DL1ZP-14 | 28 | 2026-08-30 23:25:44 | 2026-08-31 01:17:05 |
| DB0UT-7 | 27 | 2026-08-30 23:23:02 | 2026-08-31 01:19:58 |
| DO3MHA-11 | 27 | 2026-08-31 00:23:13 | 2026-08-31 01:02:06 |
| DL8OAI-8 | 22 | 2026-08-30 23:05:59 | 2026-08-31 00:24:13 |
| HTAHTA | 22 | 2026-08-30 23:19:56 | 2026-08-31 01:17:57 |
| AP2371 | 21 | 2026-08-30 23:09:24 | 2026-08-31 01:16:11 |
| SMARD9-10 | 20 | 2026-08-30 23:00:19 | 2026-08-31 01:03:27 |
| DK7RCA | 20 | 2026-08-30 23:38:24 | 2026-08-31 01:25:46 |
| DK1YY | 18 | 2026-08-30 23:24:35 | 2026-08-31 01:36:01 |
| DL2RXE-15 | 17 | 2026-08-30 23:38:55 | 2026-08-31 01:15:32 |
| DL1LOL-11 | 15 | 2026-08-30 23:07:48 | 2026-08-31 00:25:11 |
| SP3BTT-10 | 15 | 2026-08-30 23:35:31 | 2026-08-31 01:27:20 |
| DF7PN | 14 | 2026-08-31 00:28:57 | 2026-08-31 01:01:34 |
| MECKS9 | 13 | 2026-08-30 23:59:06 | 2026-08-31 01:13:13 |
| DO2LYB-13 | 10 | 2026-08-30 23:15:34 | 2026-08-31 01:12:46 |
| BIOWL7-15 | 9 | 2026-08-30 23:05:14 | 2026-08-31 01:24:19 |
| SP3WXH-11 | 9 | 2026-08-31 00:47:11 | 2026-08-31 01:19:46 |
| SO1NDE-10 | 6 | 2026-08-31 00:28:22 | 2026-08-31 00:59:21 |
| DL3OBA | 5 | 2026-08-31 00:41:50 | 2026-08-31 00:53:22 |
| 13BRC | 5 | 2026-08-31 00:47:02 | 2026-08-31 01:05:04 |
| DJ8HS-15 | 5 | 2026-08-31 00:50:22 | 2026-08-31 00:57:59 |
| SP6BVK | 4 | 2026-08-31 00:43:26 | 2026-08-31 00:57:11 |
| NBG1-10 | 3 | 2026-08-31 00:33:19 | 2026-08-31 01:10:31 |
| DB0ND-19 | 2 | 2026-08-30 23:43:06 | 2026-08-31 00:01:21 |
| DL1CLM-18 | 1 | 2026-08-30 23:23:42 | 2026-08-30 23:23:42 |
| Receiver | Date | Latitude | Longitude | Direction | Speed | Altitude | Climb | Temperature | Humidity | Pressure | Voltage | Killtimer | Uptime | BKT | XDATA |
|---|---|---|---|---|---|---|---|---|---|---|---|---|---|---|---|
| DB0DAN | 2026-08-31 01:45:10 | 53.48351 | 11.45865 | 16° | 20km/h | 190m | -7.9m/s | 17.1°C | 86.9% | 992.11hPa | 2.7V | 00:00:00 | 00:00:00 | 00:00:00 | |
| DB0DAN | 2026-08-31 01:44:55 | 53.48278 | 11.45791 | 42° | 22km/h | 320m | -7.9m/s | 16.5°C | 85% | 977.39hPa | 2.7V | 00:00:00 | 00:00:00 | 00:00:00 | |
| DB0DAN | 2026-08-31 01:44:40 | 53.48225 | 11.45691 | 56° | 20km/h | 439m | -10.3m/s | 15.9°C | 85.5% | 963.8hPa | 2.7V | 00:00:00 | 00:00:00 | 00:00:00 | |
| AA1-15 | 2026-08-31 01:44:40 | 53.48225 | 11.45691 | 56° | 20km/h | 439m | -10.3m/s | 15.9°C | 90.2% | 963.8hPa | 2.7V | 02:15:54 | 02:59:49 | 00:00:00 | |
| AA1-15 | 2026-08-31 01:44:39 | 53.48222 | 11.45684 | 53° | 20km/h | 449m | -9.4m/s | 15.9°C | 89.2% | 962.7hPa | 2.7V | 02:15:54 | 02:59:48 | 00:00:00 | |
| AA1-15 | 2026-08-31 01:44:38 | 53.48219 | 11.45677 | 58° | 26km/h | 457m | -8.3m/s | 16.1°C | 87.6% | 961.5hPa | 2.6V | 02:15:54 | 02:59:47 | 00:00:00 | |
| AA1-15 | 2026-08-31 01:44:37 | 53.48216 | 11.45668 | 62° | 22km/h | 465m | -7m/s | 16.3°C | 83.3% | 960.7hPa | 2.7V | 02:15:54 | 02:59:46 | 00:00:00 | |
| AA1-15 | 2026-08-31 01:44:36 | 53.48211 | 11.45651 | 60° | 22km/h | 480m | -8.4m/s | 16.4°C | 80.9% | 959hPa | 2.7V | 02:15:54 | 02:59:44 | 00:00:00 | |
| AA1-15 | 2026-08-31 01:44:33 | 53.48190 | 11.45578 | 69° | 22km/h | 550m | -8.9m/s | 15.9°C | 79.9% | 951.6hPa | 2.7V | 02:15:54 | 02:59:36 | 00:00:00 | |
| AA1-15 | 2026-08-31 01:44:33 | 53.48188 | 11.45569 | 70° | 26km/h | 557m | -7.4m/s | 15.9°C | 79.7% | 950.7hPa | 2.7V | 02:15:54 | 02:59:35 | 00:00:00 | |
| AA1-15 | 2026-08-31 01:44:28 | 53.48186 | 11.45559 | 76° | 26km/h | 564m | -8.1m/s | 15.9°C | 79.5% | 949.6hPa | 2.7V | 02:15:54 | 02:59:34 | 00:00:00 | |
| AA1-15 | 2026-08-31 01:44:26 | 53.48184 | 11.45549 | 69° | 24km/h | 572m | -7m/s | 15.8°C | 80.5% | 949hPa | 2.7V | 02:15:54 | 02:59:33 | 00:00:00 | |
| DB0DAN | 2026-08-31 01:44:25 | 53.48186 | 11.45559 | 76° | 24km/h | 564m | -8.1m/s | 15.9°C | 73.1% | 949.58hPa | 2.7V | 00:00:00 | 00:00:00 | 00:00:00 | |
| AA1-15 | 2026-08-31 01:44:23 | 53.48182 | 11.45539 | 75° | 26km/h | 580m | -9.4m/s | 15.8°C | 80.9% | 947.8hPa | 2.7V | 02:15:54 | 02:59:32 | 00:00:00 | |
| AA1-15 | 2026-08-31 01:44:21 | 53.48178 | 11.45518 | 66° | 27km/h | 598m | -9.2m/s | 15.7°C | 83.8% | 945.9hPa | 2.7V | 02:15:54 | 02:59:30 | 00:00:00 | |
| AA1-15 | 2026-08-31 01:44:20 | 53.48175 | 11.45507 | 69° | 27km/h | 607m | -8.3m/s | 15.6°C | 84.9% | 945.1hPa | 2.6V | 02:15:54 | 02:59:29 | 00:00:00 | |
| AA1-15 | 2026-08-31 01:44:18 | 53.48170 | 11.45485 | 68° | 29km/h | 622m | -7.8m/s | 15.4°C | 85.7% | 943hPa | 2.7V | 02:15:54 | 02:59:27 | 00:00:00 | |
| AA1-15 | 2026-08-31 01:44:17 | 53.48167 | 11.45474 | 69° | 27km/h | 630m | -9.5m/s | 15.4°C | 86.9% | 942.2hPa | 2.7V | 02:15:54 | 02:59:26 | 00:00:00 | |
| AA1-15 | 2026-08-31 01:44:16 | 53.48164 | 11.45463 | 67° | 29km/h | 639m | -9.9m/s | 15.3°C | 86.9% | 941.2hPa | 2.7V | 02:15:54 | 02:59:25 | 00:00:00 | |
| AA1-15 | 2026-08-31 01:44:15 | 53.48161 | 11.45452 | 70° | 26km/h | 647m | -8.6m/s | 15.2°C | 87.1% | 940.1hPa | 2.7V | 02:15:54 | 02:59:24 | 00:00:00 | |
| AA1-15 | 2026-08-31 01:44:13 | 53.48155 | 11.45431 | 68° | 29km/h | 664m | -10.1m/s | 15°C | 88.8% | 938.2hPa | 2.7V | 02:15:54 | 02:59:22 | 00:00:00 | |
| AA1-15 | 2026-08-31 01:44:12 | 53.48153 | 11.45421 | 64° | 26km/h | 674m | -10.5m/s | 15°C | 89.2% | 937.2hPa | 2.7V | 02:15:54 | 02:59:21 | 00:00:00 | |
| DO2SHX-10 | 2026-08-31 01:44:12 | 53.48153 | 11.45421 | 65° | 26km/h | 674m | -10.4m/s | 14.9°C | 82.3% | 937.2hPa | 2.7V | 00:00:00 | 02:59:21 | 00:00:00 | |
| DB0DAN | 2026-08-31 01:44:10 | 53.48146 | 11.45400 | 64° | 24km/h | 694m | -10.1m/s | 14.8°C | 82.6% | 935.1hPa | 2.7V | 00:00:00 | 00:00:00 | 00:00:00 | |
| AA1-15 | 2026-08-31 01:44:10 | 53.48146 | 11.45400 | 64° | 26km/h | 694m | -10.1m/s | 14.8°C | 88.9% | 935.1hPa | 2.7V | 02:16:45 | 02:59:19 | 00:00:00 | |
| AA1-15 | 2026-08-31 01:44:09 | 53.48143 | 11.45390 | 57° | 27km/h | 703m | -8.6m/s | 14.7°C | 89% | 933.9hPa | 2.7V | 02:16:45 | 02:59:18 | 00:00:00 | |
| AA1-15 | 2026-08-31 01:44:08 | 53.48140 | 11.45380 | 64° | 29km/h | 712m | -9.7m/s | 14.6°C | 89.8% | 933.1hPa | 2.6V | 02:16:45 | 02:59:17 | 00:00:00 | |
| AA1-15 | 2026-08-31 01:44:06 | 53.48133 | 11.45359 | 63° | 29km/h | 730m | -9.6m/s | 14.4°C | 90.5% | 931.2hPa | 2.7V | 02:16:45 | 02:59:15 | 00:00:00 | |
| AA1-15 | 2026-08-31 01:44:05 | 53.48130 | 11.45348 | 63° | 26km/h | 739m | -9.7m/s | 14.3°C | 91% | 930hPa | 2.7V | 02:16:45 | 02:59:14 | 00:00:00 | |
| AA1-15 | 2026-08-31 01:44:04 | 53.48127 | 11.45338 | 57° | 27km/h | 748m | -9.6m/s | 14.2°C | 90.8% | 929.1hPa | 2.7V | 02:16:45 | 02:59:13 | 00:00:00 | |
| AA1-15 | 2026-08-31 01:44:02 | 53.48120 | 11.45317 | 61° | 26km/h | 765m | -9.1m/s | 14.1°C | 92.2% | 927hPa | 2.7V | 02:16:45 | 02:59:11 | 00:00:00 | |
| AA1-15 | 2026-08-31 01:44:01 | 53.48117 | 11.45307 | 56° | 29km/h | 774m | -8.3m/s | 14°C | 92.6% | 926.2hPa | 2.7V | 02:16:45 | 02:59:10 | 00:00:00 | |
| AA1-15 | 2026-08-31 01:43:59 | 53.48109 | 11.45286 | 57° | 26km/h | 791m | -9.6m/s | 13.8°C | 94.7% | 924.4hPa | 2.7V | 02:16:45 | 02:59:08 | 00:00:00 | |
| AA1-15 | 2026-08-31 01:43:58 | 53.48106 | 11.45276 | 62° | 29km/h | 800m | -8.9m/s | 13.8°C | 96.8% | 923.5hPa | 2.7V | 02:16:45 | 02:59:07 | 00:00:00 | |
| AA1-15 | 2026-08-31 01:43:57 | 53.48103 | 11.45266 | 61° | 26km/h | 809m | -10m/s | 13.8°C | 97.6% | 922.5hPa | 2.7V | 02:16:45 | 02:59:06 | 00:00:00 | |
| DB0DAN | 2026-08-31 01:43:55 | 53.48096 | 11.45244 | 65° | 27km/h | 828m | -11.2m/s | 13.7°C | 88.5% | 920.49hPa | 2.7V | 00:00:00 | 00:00:00 | 00:00:00 | |
| AA1-15 | 2026-08-31 01:43:55 | 53.48096 | 11.45244 | 65° | 27km/h | 828m | -11.2m/s | 13.7°C | 95.2% | 920.5hPa | 2.7V | 02:16:45 | 02:59:04 | 00:00:00 | |
| AA1-15 | 2026-08-31 01:43:54 | 53.48093 | 11.45234 | 62° | 27km/h | 839m | -11.3m/s | 13.7°C | 95.3% | 919.3hPa | 2.6V | 02:16:45 | 02:59:03 | 00:00:00 | |
| AA1-15 | 2026-08-31 01:43:53 | 53.48090 | 11.45223 | 63° | 29km/h | 850m | -10.4m/s | 13.6°C | 95% | 918hPa | 2.7V | 02:16:45 | 02:59:02 | 00:00:00 | |
| AA1-15 | 2026-08-31 01:43:52 | 53.48087 | 11.45213 | 63° | 26km/h | 860m | -9.9m/s | 13.5°C | 94.6% | 917hPa | 2.7V | 02:16:45 | 02:59:01 | 00:00:00 | |
| AA1-15 | 2026-08-31 01:43:50 | 53.48080 | 11.45192 | 66° | 27km/h | 878m | -8.3m/s | 13.4°C | 93.2% | 915hPa | 2.7V | 02:16:45 | 02:58:59 | 00:00:00 | |
| AA1-15 | 2026-08-31 01:43:49 | 53.48078 | 11.45182 | 60° | 24km/h | 885m | -8.2m/s | 13.3°C | 92.2% | 914.1hPa | 2.7V | 02:16:45 | 02:58:58 | 00:00:00 | |
| AA1-15 | 2026-08-31 01:43:47 | 53.48069 | 11.45152 | 58° | 29km/h | 910m | -8.1m/s | 13.1°C | 93% | 911.2hPa | 2.7V | 02:16:45 | 02:58:55 | 00:00:00 | |
| AA1-15 | 2026-08-31 01:43:45 | 53.48065 | 11.45141 | 66° | 26km/h | 917m | -8.1m/s | 13.1°C | 91.8% | 910.7hPa | 2.7V | 02:16:45 | 02:58:54 | 00:00:00 | |
| AA1-15 | 2026-08-31 01:43:43 | 53.48059 | 11.45121 | 67° | 29km/h | 933m | -8.4m/s | 13.2°C | 86.3% | 908.9hPa | 2.7V | 02:16:45 | 02:58:52 | 00:00:00 | |
| AA1-15 | 2026-08-31 01:43:42 | 53.48056 | 11.45110 | 59° | 24km/h | 941m | -7.5m/s | 13.2°C | 85% | 908hPa | 2.6V | 02:16:45 | 02:58:51 | 00:00:00 | |
| AA1-15 | 2026-08-31 01:43:41 | 53.48053 | 11.45101 | 57° | 29km/h | 948m | -9m/s | 13.1°C | 84.4% | 907.3hPa | 2.7V | 02:16:45 | 02:58:50 | 00:00:00 | |
| DB0DAN | 2026-08-31 01:43:40 | 53.48050 | 11.45090 | 68° | 26km/h | 956m | -7.8m/s | 13.1°C | 77.3% | 906.2hPa | 2.7V | 00:00:00 | 00:00:00 | 00:00:00 | |
| AA1-15 | 2026-08-31 01:43:39 | 53.48046 | 11.45080 | 55° | 26km/h | 964m | -8.6m/s | 13.1°C | 82.6% | 905.6hPa | 2.7V | 02:16:45 | 02:58:48 | 00:00:00 | |
| AA1-15 | 2026-08-31 01:43:38 | 53.48043 | 11.45070 | 63° | 27km/h | 973m | -9.2m/s | 13.1°C | 82.7% | 904.6hPa | 2.7V | 02:16:45 | 02:58:47 | 00:00:00 | |
| AA1-15 | 2026-08-31 01:43:37 | 53.48039 | 11.45060 | 58° | 26km/h | 981m | -8.3m/s | 13.1°C | 81.8% | 903.6hPa | 2.7V | 02:16:45 | 02:58:46 | 00:00:00 | |
| AA1-15 | 2026-08-31 01:43:35 | 53.48031 | 11.45039 | 63° | 27km/h | 996m | -7.2m/s | 13.1°C | 83.8% | 902.2hPa | 2.7V | 02:16:45 | 02:58:44 | 00:00:00 | |
| AA1-15 | 2026-08-31 01:43:33 | 53.48023 | 11.45018 | 62° | 29km/h | 1010m | -8.5m/s | 13°C | 84.9% | 900.6hPa | 2.7V | 02:16:45 | 02:58:42 | 00:00:00 | |
| AA1-15 | 2026-08-31 01:43:32 | 53.48019 | 11.45008 | 53° | 29km/h | 1019m | -9.7m/s | 12.9°C | 85.3% | 899.9hPa | 2.7V | 02:16:45 | 02:58:41 | 00:00:00 | |
| AA1-15 | 2026-08-31 01:43:30 | 53.48010 | 11.44986 | 53° | 27km/h | 1037m | -9m/s | 12.8°C | 84.5% | 897.9hPa | 2.7V | 02:16:45 | 02:58:39 | 00:00:00 | |
| AA1-15 | 2026-08-31 01:43:29 | 53.48006 | 11.44976 | 56° | 29km/h | 1046m | -10.2m/s | 12.8°C | 83.9% | 897.2hPa | 2.7V | 02:16:45 | 02:58:38 | 00:00:00 | |
| AA1-15 | 2026-08-31 01:43:28 | 53.48002 | 11.44967 | 56° | 26km/h | 1055m | -7.8m/s | 12.7°C | 83.1% | 895.6hPa | 2.7V | 02:16:45 | 02:58:37 | 00:00:00 | |
| AA1-15 | 2026-08-31 01:43:27 | 53.47998 | 11.44957 | 46° | 35km/h | 1062m | -6.7m/s | 12.7°C | 82.8% | 895.2hPa | 2.6V | 02:16:45 | 02:58:36 | 00:00:00 | |
| AA1-15 | 2026-08-31 01:43:26 | 53.47993 | 11.44947 | 55° | 29km/h | 1069m | -7.3m/s | 12.7°C | 82.6% | 894.5hPa | 2.6V | 02:16:45 | 02:58:35 | 00:00:00 | |
| DB0DAN | 2026-08-31 01:43:25 | 53.47988 | 11.44937 | 45° | 27km/h | 1076m | -8.4m/s | 12.6°C | 75% | 893.44hPa | 2.7V | 00:00:00 | 00:00:00 | 00:00:00 | |
| AA1-15 | 2026-08-31 01:43:24 | 53.47983 | 11.44927 | 57° | 31km/h | 1085m | -9.4m/s | 12.6°C | 79.8% | 893hPa | 2.7V | 02:16:45 | 02:58:33 | 00:00:00 | |
| AA1-15 | 2026-08-31 01:43:22 | 53.47974 | 11.44906 | 60° | 33km/h | 1099m | -6.6m/s | 12.5°C | 82.7% | 891hPa | 2.7V | 02:16:45 | 02:58:31 | 00:00:00 | |
| AA1-15 | 2026-08-31 01:43:21 | 53.47970 | 11.44895 | 52° | 31km/h | 1108m | -10.2m/s | 12.4°C | 83.5% | 890.4hPa | 2.7V | 02:16:45 | 02:58:30 | 00:00:00 | |
| AA1-15 | 2026-08-31 01:43:19 | 53.47961 | 11.44873 | 52° | 29km/h | 1126m | -9.2m/s | 12.3°C | 83.5% | 888.7hPa | 2.7V | 02:17:36 | 02:58:28 | 00:00:00 | |
| AA1-15 | 2026-08-31 01:43:17 | 53.47951 | 11.44852 | 54° | 29km/h | 1141m | -8.3m/s | 12.2°C | 83.8% | 887hPa | 2.7V | 02:17:36 | 02:58:26 | 00:00:00 | |
| AA1-15 | 2026-08-31 01:43:16 | 53.47947 | 11.44841 | 53° | 35km/h | 1149m | -7m/s | 12.1°C | 84.2% | 886hPa | 2.7V | 02:17:36 | 02:58:25 | 00:00:00 | |
| AA1-15 | 2026-08-31 01:43:15 | 53.47941 | 11.44830 | 51° | 31km/h | 1156m | -7.2m/s | 12°C | 84.6% | 885.3hPa | 2.7V | 02:17:36 | 02:58:24 | 00:00:00 | |
| AA1-15 | 2026-08-31 01:43:13 | 53.47932 | 11.44808 | 52° | 31km/h | 1171m | -8.6m/s | 11.9°C | 86% | 883.8hPa | 2.7V | 02:17:36 | 02:58:22 | 00:00:00 | |
| AA1-15 | 2026-08-31 01:43:12 | 53.47927 | 11.44798 | 55° | 31km/h | 1179m | -7.2m/s | 11.8°C | 87.6% | 882.9hPa | 2.7V | 02:17:36 | 02:58:21 | 00:00:00 | |
| AA1-15 | 2026-08-31 01:43:11 | 53.47922 | 11.44787 | 49° | 31km/h | 1186m | -8.7m/s | 11.7°C | 88.4% | 882.3hPa | 2.6V | 02:17:36 | 02:58:20 | 00:00:00 | |
| DB0DAN | 2026-08-31 01:43:10 | 53.47917 | 11.44776 | 55° | 33km/h | 1194m | -7.9m/s | 11.6°C | 80.7% | 881.22hPa | 2.6V | 00:00:00 | 00:00:00 | 00:00:00 | |
| AA1-15 | 2026-08-31 01:43:10 | 53.47917 | 11.44776 | 56° | 35km/h | 1194m | -7.9m/s | 11.6°C | 86.8% | 881.2hPa | 2.6V | 02:17:36 | 02:58:19 | 00:00:00 | |
| AA1-15 | 2026-08-31 01:43:08 | 53.47907 | 11.44753 | 53° | 33km/h | 1210m | -8.5m/s | 11.6°C | 90.1% | 879.8hPa | 2.7V | 02:17:36 | 02:58:17 | 00:00:00 | |
| AA1-15 | 2026-08-31 01:43:07 | 53.47901 | 11.44741 | 51° | 37km/h | 1218m | -8.4m/s | 11.6°C | 90.1% | 878.5hPa | 2.7V | 02:17:36 | 02:58:16 | 00:00:00 | |
| AA1-15 | 2026-08-31 01:43:06 | 53.47896 | 11.44730 | 54° | 33km/h | 1227m | -9.3m/s | 11.5°C | 89.9% | 877.9hPa | 2.7V | 02:17:36 | 02:58:15 | 00:00:00 | |
| AA1-15 | 2026-08-31 01:43:05 | 53.47891 | 11.44718 | 53° | 35km/h | 1236m | -10.5m/s | 11.5°C | 90% | 877.2hPa | 2.7V | 02:17:36 | 02:58:14 | 00:00:00 | |
| AA1-15 | 2026-08-31 01:43:04 | 53.47885 | 11.44706 | 51° | 35km/h | 1245m | -7.8m/s | 11.4°C | 90.3% | 876hPa | 2.7V | 02:17:36 | 02:58:13 | 00:00:00 | |
| AA1-15 | 2026-08-31 01:43:02 | 53.47875 | 11.44683 | 51° | 35km/h | 1260m | -7.4m/s | 11.3°C | 90.7% | 874.3hPa | 2.7V | 02:17:36 | 02:58:11 | 00:00:00 | |
| AA1-15 | 2026-08-31 01:43:01 | 53.47869 | 11.44671 | 54° | 35km/h | 1268m | -8.1m/s | 11.3°C | 91.6% | 873.5hPa | 2.6V | 02:17:36 | 02:58:10 | 00:00:00 | |
| AA1-15 | 2026-08-31 01:42:59 | 53.47858 | 11.44648 | 50° | 35km/h | 1286m | -9.5m/s | 11.1°C | 92.2% | 871.9hPa | 2.7V | 02:17:36 | 02:58:08 | 00:00:00 | |
| AA1-15 | 2026-08-31 01:42:57 | 53.47847 | 11.44626 | 47° | 38km/h | 1304m | -8.3m/s | 11°C | 92.5% | 869.9hPa | 2.7V | 02:17:36 | 02:58:06 | 00:00:00 | |
| DB0DAN | 2026-08-31 01:42:55 | 53.47835 | 11.44603 | 52° | 33km/h | 1319m | -8.7m/s | 10.9°C | 84.4% | 868.34hPa | 2.7V | 00:00:00 | 00:00:00 | 00:00:00 | |
| AA1-15 | 2026-08-31 01:42:55 | 53.47835 | 11.44603 | 52° | 35km/h | 1319m | -8.7m/s | 10.9°C | 92.1% | 868.3hPa | 2.7V | 02:17:36 | 02:58:04 | 00:00:00 | |
| AA1-15 | 2026-08-31 01:42:54 | 53.47830 | 11.44591 | 50° | 35km/h | 1328m | -8.8m/s | 10.8°C | 92.9% | 867.6hPa | 2.6V | 02:17:36 | 02:58:03 | 00:00:00 | |
| AA1-15 | 2026-08-31 01:42:52 | 53.47818 | 11.44568 | 50° | 37km/h | 1345m | -9.3m/s | 10.6°C | 92.8% | 865.7hPa | 2.7V | 02:17:36 | 02:58:01 | 00:00:00 | |
| AA1-15 | 2026-08-31 01:42:51 | 53.47813 | 11.44556 | 55° | 35km/h | 1354m | -8.3m/s | 10.6°C | 90.5% | 864.8hPa | 2.7V | 02:17:36 | 02:58:00 | 00:00:00 | |
| AA1-15 | 2026-08-31 01:42:50 | 53.47808 | 11.44545 | 51° | 35km/h | 1361m | -7.3m/s | 10.6°C | 90.1% | 863.8hPa | 2.7V | 02:17:36 | 02:57:59 | 00:00:00 | |
| AA1-15 | 2026-08-31 01:42:48 | 53.47797 | 11.44521 | 52° | 37km/h | 1375m | -8.1m/s | 10.5°C | 90.4% | 862.5hPa | 2.7V | 02:17:36 | 02:57:57 | 00:00:00 | |
| AA1-15 | 2026-08-31 01:42:46 | 53.47787 | 11.44497 | 53° | 33km/h | 1390m | -8m/s | 10.3°C | 91.8% | 860.8hPa | 2.7V | 02:17:36 | 02:57:55 | 00:00:00 | |
| AA1-15 | 2026-08-31 01:42:45 | 53.47782 | 11.44485 | 56° | 33km/h | 1399m | -9.4m/s | 10.3°C | 92.2% | 860.1hPa | 2.7V | 02:17:36 | 02:57:54 | 00:00:00 | |
| AA1-15 | 2026-08-31 01:42:43 | 53.47772 | 11.44462 | 52° | 33km/h | 1416m | -8.8m/s | 10.2°C | 92.2% | 858.3hPa | 2.7V | 02:17:36 | 02:57:52 | 00:00:00 | |
| AA1-15 | 2026-08-31 01:42:42 | 53.47767 | 11.44450 | 54° | 37km/h | 1424m | -8.8m/s | 10.1°C | 91.6% | 857.3hPa | 2.7V | 02:17:36 | 02:57:51 | 00:00:00 | |
| DB0DAN | 2026-08-31 01:42:40 | 53.47757 | 11.44426 | 56° | 33km/h | 1441m | -8.4m/s | 10°C | 84.8% | 855.68hPa | 2.7V | 00:00:00 | 00:00:00 | 00:00:00 | |
| AA1-15 | 2026-08-31 01:42:40 | 53.47757 | 11.44426 | 56° | 35km/h | 1441m | -8.4m/s | 10°C | 90.9% | 855.7hPa | 2.7V | 02:17:36 | 02:57:49 | 00:00:00 | |
| AA1-15 | 2026-08-31 01:42:39 | 53.47752 | 11.44414 | 56° | 33km/h | 1450m | -9.1m/s | 10°C | 90.7% | 854.8hPa | 2.6V | 02:17:36 | 02:57:48 | 00:00:00 | |
| AA1-15 | 2026-08-31 01:42:38 | 53.47747 | 11.44402 | 57° | 33km/h | 1459m | -9.6m/s | 10°C | 90.4% | 854hPa | 2.7V | 02:17:36 | 02:57:47 | 00:00:00 | |
| AA1-15 | 2026-08-31 01:42:37 | 53.47743 | 11.44391 | 56° | 33km/h | 1469m | -10.3m/s | 9.9°C | 90.2% | 853hPa | 2.7V | 02:17:36 | 02:57:46 | 00:00:00 | |
| DL1XH-west | 2026-08-31 01:42:36 | 53.47738 | 11.44379 | 56° | 31km/h | 1479m | -10.4m/s | 9.8°C | 90.2% | 852hPa | 2.7V | 02:17:36 | 02:57:45 | 00:00:00 | |
| AA1-15 | 2026-08-31 01:42:35 | 53.47734 | 11.44368 | 57° | 33km/h | 1489m | -10.8m/s | 9.7°C | 90.6% | 851.1hPa | 2.7V | 02:17:36 | 02:57:44 | 00:00:00 | |
| DL1XH-west | 2026-08-31 01:42:33 | 53.47724 | 11.44345 | 58° | 31km/h | 1509m | -10.2m/s | 9.6°C | 91% | 848.9hPa | 2.7V | 02:17:36 | 02:57:42 | 00:00:00 | |
| DL1XH-west | 2026-08-31 01:42:32 | 53.47720 | 11.44334 | 58° | 31km/h | 1519m | -10.5m/s | 9.5°C | 89.7% | 847.8hPa | 2.7V | 02:17:36 | 02:57:41 | 00:00:00 | |
| AA1-15 | 2026-08-31 01:42:31 | 53.47716 | 11.44323 | 58° | 33km/h | 1529m | -10.7m/s | 9.4°C | 88.7% | 846.7hPa | 2.6V | 02:17:36 | 02:57:40 | 00:00:00 | |
| DL1XH-west | 2026-08-31 01:42:30 | 53.47711 | 11.44311 | 56° | 31km/h | 1540m | -10.5m/s | 9.4°C | 88.4% | 845.6hPa | 2.6V | 02:17:36 | 02:57:39 | 00:00:00 | |
| DL1XH-west | 2026-08-31 01:42:29 | 53.47707 | 11.44300 | 57° | 33km/h | 1549m | -9.7m/s | 9.3°C | 88.5% | 844.7hPa | 2.7V | 02:19:18 | 02:57:38 | 00:00:00 | |
| AA1-15 | 2026-08-31 01:42:28 | 53.47703 | 11.44289 | 57° | 31km/h | 1559m | -10.1m/s | 9.2°C | 88.8% | 843.8hPa | 2.7V | 02:18:27 | 02:57:37 | 00:00:00 | |
| DL1XH-west | 2026-08-31 01:42:27 | 53.47698 | 11.44278 | 58° | 33km/h | 1568m | -9.1m/s | 9.1°C | 88.5% | 842.8hPa | 2.7V | 02:19:18 | 02:57:36 | 00:00:00 | |
| AA1-15 | 2026-08-31 01:42:27 | 53.47689 | 11.44256 | 50° | 37km/h | 1585m | -8.9m/s | 8.9°C | 88.9% | 841.1hPa | 2.7V | 02:18:27 | 02:57:34 | 00:00:00 | |
| DB0DAN | 2026-08-31 01:42:25 | 53.47689 | 11.44256 | 50° | 35km/h | 1585m | -8.9m/s | 8.9°C | 82.3% | 841.07hPa | 2.7V | 00:00:00 | 00:00:00 | 00:00:00 | |
| AA1-15 | 2026-08-31 01:42:25 | 53.47684 | 11.44245 | 61° | 33km/h | 1593m | -5.5m/s | 8.8°C | 89.6% | 840hPa | 2.7V | 02:18:27 | 02:57:33 | 00:00:00 | |
| AA1-15 | 2026-08-31 01:42:24 | 53.47679 | 11.44232 | 55° | 33km/h | 1600m | -8.6m/s | 8.7°C | 90.6% | 839.5hPa | 2.7V | 02:18:27 | 02:57:32 | 00:00:00 | |
| AA1-15 | 2026-08-31 01:42:21 | 53.47669 | 11.44207 | 59° | 37km/h | 1617m | -10.1m/s | 8.6°C | 90.7% | 837.8hPa | 2.6V | 02:18:27 | 02:57:30 | 00:00:00 | |
| AA1-15 | 2026-08-31 01:42:20 | 53.47664 | 11.44193 | 62° | 37km/h | 1627m | -9.1m/s | 8.5°C | 90.4% | 836.7hPa | 2.7V | 02:18:27 | 02:57:29 | 00:00:00 | |
| AA1-15 | 2026-08-31 01:42:18 | 53.47655 | 11.44166 | 58° | 38km/h | 1644m | -8.5m/s | 8.4°C | 90.2% | 835.1hPa | 2.7V | 02:18:27 | 02:57:27 | 00:00:00 | |
| AA1-15 | 2026-08-31 01:42:17 | 53.47650 | 11.44152 | 63° | 35km/h | 1652m | -7.6m/s | 8.3°C | 90.1% | 834.2hPa | 2.7V | 02:18:27 | 02:57:26 | 00:00:00 | |
| AA1-15 | 2026-08-31 01:42:16 | 53.47646 | 11.44139 | 57° | 33km/h | 1659m | -7.6m/s | 8.2°C | 90.4% | 833.5hPa | 2.7V | 02:18:27 | 02:57:25 | 00:00:00 | |
| DL1XH-west | 2026-08-31 01:42:15 | 53.47641 | 11.44127 | 56° | 37km/h | 1666m | -7m/s | 8.2°C | 91.3% | 832.7hPa | 2.7V | 02:19:18 | 02:57:24 | 00:00:00 | |
| DL1XH-west | 2026-08-31 01:42:13 | 53.47631 | 11.44102 | 57° | 35km/h | 1681m | -8.9m/s | 8°C | 93% | 831.5hPa | 2.6V | 02:19:18 | 02:57:22 | 00:00:00 | |
| AA1-15 | 2026-08-31 01:42:12 | 53.47626 | 11.44090 | 52° | 35km/h | 1690m | -9.4m/s | 8°C | 92.7% | 830.5hPa | 2.6V | 02:18:27 | 02:57:21 | 00:00:00 | |
| AA1-15 | 2026-08-31 01:42:11 | 53.47621 | 11.44078 | 55° | 38km/h | 1699m | -9m/s | 7.9°C | 92.4% | 829.9hPa | 2.7V | 02:18:27 | 02:57:20 | 00:00:00 | |
| DB0DAN | 2026-08-31 01:42:10 | 53.47615 | 11.44065 | 60° | 33km/h | 1707m | -8.4m/s | 7.9°C | 85.3% | 828.53hPa | 2.7V | 00:00:00 | 00:00:00 | 00:00:00 | |
| DL1XH-west | 2026-08-31 01:42:10 | 53.47615 | 11.44065 | 60° | 35km/h | 1708m | -8.4m/s | 7.9°C | 91.9% | 828.5hPa | 2.7V | 02:19:18 | 02:57:19 | 00:00:00 | |
| DL1XH-west | 2026-08-31 01:42:09 | 53.47611 | 11.44053 | 56° | 35km/h | 1716m | -7.8m/s | 7.9°C | 92.2% | 828hPa | 2.7V | 02:19:18 | 02:57:18 | 00:00:00 | |
| AA1-15 | 2026-08-31 01:42:08 | 53.47606 | 11.44041 | 56° | 35km/h | 1724m | -8.5m/s | 7.9°C | 91.2% | 827.1hPa | 2.7V | 02:18:27 | 02:57:17 | 00:00:00 | |
| DL1XH-west | 2026-08-31 01:42:07 | 53.47601 | 11.44028 | 57° | 37km/h | 1732m | -8.8m/s | 7.9°C | 89.4% | 826.3hPa | 2.7V | 02:19:18 | 02:57:16 | 00:00:00 | |
| AA1-15 | 2026-08-31 01:42:06 | 53.47596 | 11.44016 | 61° | 33km/h | 1741m | -8.4m/s | 7.9°C | 89% | 825.3hPa | 2.7V | 02:18:27 | 02:57:15 | 00:00:00 | |
| DL1XH-west | 2026-08-31 01:42:05 | 53.47592 | 11.44003 | 59° | 33km/h | 1748m | -8.4m/s | 7.8°C | 89.4% | 824.6hPa | 2.6V | 02:19:18 | 02:57:14 | 00:00:00 | |
| AA1-15 | 2026-08-31 01:42:04 | 53.47587 | 11.43991 | 56° | 33km/h | 1758m | -9.8m/s | 7.8°C | 88.6% | 823.9hPa | 2.6V | 02:18:27 | 02:57:13 | 00:00:00 | |
| DL1XH-west | 2026-08-31 01:42:02 | 53.47577 | 11.43967 | 59° | 33km/h | 1776m | -9.9m/s | 7.6°C | 88.1% | 822hPa | 2.7V | 02:19:18 | 02:57:11 | 00:00:00 | |
| AA1-15 | 2026-08-31 01:42:01 | 53.47573 | 11.43955 | 53° | 33km/h | 1785m | -8.8m/s | 7.6°C | 88% | 821hPa | 2.7V | 02:18:27 | 02:57:10 | 00:00:00 | |
| SMARD9-15 | 2026-08-31 01:42:00 | 53.47568 | 11.43944 | 55° | 33km/h | 1793m | -7.8m/s | 7.5°C | 81.5% | 820.1hPa | 2.7V | 00:00:00 | 00:00:00 | 00:00:00 | |
| DM0DOS-11 | 2026-08-31 01:42:00 | 53.47556 | 11.43908 | 60° | 31km/h | 1819m | -9.4m/s | 7.2°C | 83.7% | 817.7hPa | 2.7V | 02:18:09 | 02:57:06 | 00:00:00 | |
| DM0DOS-11 | 2026-08-31 01:42:00 | 53.47547 | 11.43885 | 53° | 33km/h | 1836m | -8.6m/s | 7°C | 84.6% | 815.9hPa | 2.6V | 02:18:11 | 02:57:04 | 00:00:00 | |
| DL1XH-west | 2026-08-31 01:42:00 | 53.47568 | 11.43944 | 55° | 35km/h | 1793m | -7.8m/s | 7.5°C | 88.4% | 820.1hPa | 2.7V | 02:19:18 | 02:57:09 | 00:00:00 | |
| DL1XH-west | 2026-08-31 01:41:58 | 53.47560 | 11.43919 | 63° | 33km/h | 1810m | -9.6m/s | 7.3°C | 90.1% | 817.7hPa | 2.7V | 02:19:18 | 02:57:07 | 00:00:00 | |
| AA1-15 | 2026-08-31 01:41:57 | 53.47556 | 11.43908 | 60° | 31km/h | 1819m | -9.4m/s | 7.2°C | 90.1% | 817.7hPa | 2.7V | 02:18:27 | 02:57:06 | 00:00:00 | |
| AA1-15 | 2026-08-31 01:41:56 | 53.47552 | 11.43896 | 54° | 33km/h | 1827m | -8.4m/s | 7.1°C | 90.5% | 816.8hPa | 2.7V | 02:18:27 | 02:57:05 | 00:00:00 | |
| DB0DAN | 2026-08-31 01:41:55 | 53.47547 | 11.43885 | 53° | 33km/h | 1836m | -8.6m/s | 7.1°C | 83.6% | 815.93hPa | 2.6V | 00:00:00 | 00:00:00 | 00:00:00 | |
| AA1-15 | 2026-08-31 01:41:55 | 53.47547 | 11.43885 | 53° | 33km/h | 1836m | -8.6m/s | 7.1°C | 90.7% | 815.9hPa | 2.6V | 02:18:27 | 02:57:04 | 00:00:00 | |
| DO2SHX-10 | 2026-08-31 01:41:55 | 53.47547 | 11.43885 | 54° | 35km/h | 1836m | -8.5m/s | 7.0°C | 84.6% | 815.9hPa | 2.7V | 00:00:00 | 02:57:04 | 00:00:00 | |
| DM0DOS-11 | 2026-08-31 01:41:54 | 53.47527 | 11.43838 | 57° | 35km/h | 1868m | -9.2m/s | 6.8°C | 86.5% | 812.6hPa | 2.7V | 02:18:15 | 02:57:00 | 00:00:00 | |
| DM0DOS-11 | 2026-08-31 01:41:54 | 53.47518 | 11.43813 | 55° | 35km/h | 1887m | -9.4m/s | 6.6°C | 87.2% | 810.9hPa | 2.7V | 02:18:17 | 02:56:58 | 00:00:00 | |
| DL1XH-west | 2026-08-31 01:41:53 | 53.47537 | 11.43861 | 59° | 33km/h | 1851m | -8.9m/s | 6.9°C | 92% | 814.2hPa | 2.7V | 02:19:18 | 02:57:02 | 00:00:00 | |
| DL1XH-west | 2026-08-31 01:41:52 | 53.47532 | 11.43850 | 55° | 33km/h | 1859m | -8.3m/s | 6.8°C | 92.7% | 813.4hPa | 2.7V | 02:19:18 | 02:57:01 | 00:00:00 | |
| AA1-15 | 2026-08-31 01:41:51 | 53.47527 | 11.43838 | 57° | 35km/h | 1868m | -9.2m/s | 6.8°C | 93.4% | 812.6hPa | 2.7V | 02:18:27 | 02:57:00 | 00:00:00 | |
| DL1XH-west | 2026-08-31 01:41:50 | 53.47523 | 11.43826 | 60° | 35km/h | 1877m | -10.6m/s | 6.7°C | 93.8% | 811.8hPa | 2.7V | 02:19:18 | 02:56:59 | 00:00:00 | |
| AA1-15 | 2026-08-31 01:41:49 | 53.47518 | 11.43813 | 55° | 35km/h | 1887m | -9.4m/s | 6.6°C | 93.9% | 810.9hPa | 2.7V | 02:18:27 | 02:56:58 | 00:00:00 | |
| DO2SHX-10 | 2026-08-31 01:41:49 | 53.47518 | 11.43813 | 56° | 33km/h | 1887m | -9.4m/s | 6.5°C | 87.2% | 810.9hPa | 2.6V | 00:00:00 | 02:56:58 | 00:00:00 | |
| DM0DOS-11 | 2026-08-31 01:41:48 | 53.47509 | 11.43790 | 57° | 33km/h | 1904m | -10.2m/s | 6.4°C | 88.4% | 809.3hPa | 2.6V | 02:18:19 | 02:56:56 | 00:00:00 | |
| DM0DOS-11 | 2026-08-31 01:41:48 | 53.47500 | 11.43766 | 57° | 35km/h | 1925m | -11.2m/s | 6.2°C | 89.4% | 807.3hPa | 2.7V | 02:18:21 | 02:56:54 | 00:00:00 | |
| DM0DOS-11 | 2026-08-31 01:41:48 | 53.47491 | 11.43741 | 59° | 35km/h | 1943m | -8.8m/s | 6.1°C | 90.5% | 805.3hPa | 2.6V | 02:18:23 | 02:56:52 | 00:00:00 | |
| DL1XH-west | 2026-08-31 01:41:47 | 53.47509 | 11.43790 | 57° | 33km/h | 1904m | -10.2m/s | 6.4°C | 95.3% | 809.3hPa | 2.6V | 02:19:18 | 02:56:56 | 00:00:00 | |
| AA1-15 | 2026-08-31 01:41:46 | 53.47505 | 11.43778 | 58° | 31km/h | 1914m | -10.7m/s | 6.3°C | 96% | 808.3hPa | 2.6V | 02:18:27 | 02:56:55 | 00:00:00 | |
| AA1-15 | 2026-08-31 01:41:45 | 53.47500 | 11.43766 | 58° | 35km/h | 1925m | -11.2m/s | 6.3°C | 96.3% | 807.3hPa | 2.7V | 02:18:27 | 02:56:54 | 00:00:00 | |
| AA1-15 | 2026-08-31 01:41:43 | 53.47491 | 11.43741 | 59° | 35km/h | 1943m | -8.9m/s | 6.1°C | 95.8% | 805.3hPa | 2.6V | 02:18:27 | 02:56:52 | 00:00:00 | |
| DO2SHX-10 | 2026-08-31 01:41:43 | 53.47491 | 11.43741 | 60° | 33km/h | 1943m | -8.8m/s | 6.0°C | 90.5% | 805.2hPa | 2.6V | 02:18:00 | 02:56:52 | 00:00:00 | |
| DM0DOS-11 | 2026-08-31 01:41:42 | 53.47483 | 11.43717 | 57° | 31km/h | 1959m | -9.8m/s | 5.9°C | 91.7% | 803.6hPa | 2.7V | 02:18:25 | 02:56:50 | 00:00:00 | |
| DM0DOS-11 | 2026-08-31 01:41:42 | 53.47474 | 11.43696 | 55° | 31km/h | 1976m | -9.6m/s | 5.7°C | 93.2% | 801.9hPa | 2.6V | 02:18:27 | 02:56:48 | 00:00:00 | |
| DM0DOS-11 | 2026-08-31 01:41:42 | 53.47463 | 11.43673 | 54° | 35km/h | 1992m | -9m/s | 5.6°C | 94.5% | 800.2hPa | 2.6V | 02:18:29 | 02:56:46 | 00:00:00 | |
| AA1-15 | 2026-08-31 01:41:42 | 53.47487 | 11.43729 | 62° | 33km/h | 1951m | -7.8m/s | 6°C | 96.5% | 804.4hPa | 2.7V | 02:18:27 | 02:56:51 | 00:00:00 | |
| DB0DAN | 2026-08-31 01:41:40 | 53.47478 | 11.43706 | 56° | 31km/h | 1968m | -8.2m/s | 5.8°C | 91.6% | 802.69hPa | 2.6V | 00:00:00 | 00:00:00 | 00:00:00 | |
| AA1-15 | 2026-08-31 01:41:40 | 53.47478 | 11.43706 | 56° | 33km/h | 1968m | -8.2m/s | 5.8°C | 97.6% | 802.7hPa | 2.6V | 02:18:27 | 02:56:49 | 00:00:00 | |
| AA1-15 | 2026-08-31 01:41:39 | 53.47468 | 11.43684 | 51° | 35km/h | 1984m | -9.5m/s | 5.7°C | 98% | 801hPa | 2.6V | 02:19:18 | 02:56:47 | 00:00:00 | |
| DL1XH1-15 | 2026-08-31 01:41:38 | 53.47443 | 11.43625 | 55° | 35km/h | 2028m | -10.8m/s | 5.4°C | 93.7% | 796.8hPa | 2.6V | 02:18:33 | 02:56:42 | 00:00:00 | |
| AA1-15 | 2026-08-31 01:41:37 | 53.47463 | 11.43673 | 55° | 35km/h | 1992m | -9m/s | 5.6°C | 98.8% | 800.2hPa | 2.6V | 02:19:18 | 02:56:46 | 00:00:00 | |
| DM0DOS-11 | 2026-08-31 01:41:37 | 53.47438 | 11.43614 | 45° | 31km/h | 2038m | -10.7m/s | 5.3°C | 93.1% | 795.9hPa | 2.6V | 02:18:34 | 02:56:41 | 00:00:00 | |
| DO2SHX-10 | 2026-08-31 01:41:37 | 53.47463 | 11.43673 | 55° | 35km/h | 1992m | -9.0m/s | 5.5°C | 94.5% | 800.2hPa | 2.6V | 00:00:00 | 02:56:46 | 00:00:00 | |
| DL1XH-15 | 2026-08-31 01:41:35 | 53.47427 | 11.43591 | 48° | 37km/h | 2060m | -10.5m/s | 5.2°C | 92.1% | 794hPa | 2.6V | 02:18:36 | 02:56:39 | 00:00:00 | |
| DL1XH1-15 | 2026-08-31 01:41:32 | 53.47409 | 11.43559 | 46° | 33km/h | 2086m | -9.4m/s | 5.1°C | 92% | 791.2hPa | 2.6V | 02:18:39 | 02:56:36 | 00:00:00 | |
| AA1-15 | 2026-08-31 01:41:30 | 53.47427 | 11.43591 | 48° | 37km/h | 2060m | -10.5m/s | 5.2°C | 97.7% | 794hPa | 2.6V | 02:19:18 | 02:56:39 | 00:00:00 | |
| DL1XH-15 | 2026-08-31 01:41:30 | 53.47398 | 11.43537 | 46° | 35km/h | 2106m | -10.9m/s | 5°C | 87.7% | 789.4hPa | 2.6V | 02:18:41 | 02:56:34 | 00:00:00 | |
| AM1SDL-15 | 2026-08-31 01:41:29 | 53.47421 | 11.43581 | 47° | 35km/h | 2070m | -10.2m/s | 5.1°C | 92.4% | 793.0hPa | 2.6V | 02:18:00 | 02:56:38 | 00:00:00 | |
| DO2SHX-10 | 2026-08-31 01:41:28 | 53.47415 | 11.43569 | 49° | 35km/h | 2078m | -9.9m/s | 5.1°C | 92.3% | 791.9hPa | 2.6V | 00:00:00 | 02:56:37 | 00:00:00 | |
| DL1XH1-15 | 2026-08-31 01:41:27 | 53.47379 | 11.43503 | 48° | 37km/h | 2137m | -10.6m/s | 4.7°C | 89.2% | 786.6hPa | 2.6V | 02:18:44 | 02:56:31 | 00:00:00 | |
| DB0DAN | 2026-08-31 01:41:25 | 53.47398 | 11.43537 | 47° | 33km/h | 2106m | -10.9m/s | 5°C | 86.5% | 789.41hPa | 2.6V | 00:00:00 | 00:00:00 | 00:00:00 | |
| DL1XH-15 | 2026-08-31 01:41:25 | 53.47368 | 11.43481 | 50° | 33km/h | 2155m | -9.2m/s | 4.5°C | 90.1% | 784.7hPa | 2.6V | 02:18:46 | 02:56:29 | 00:00:00 | |
| DL1XH-west | 2026-08-31 01:41:24 | 53.47392 | 11.43526 | 50° | 35km/h | 2116m | -10.7m/s | 4.9°C | 95.1% | 788.6hPa | 2.6V | 02:19:18 | 02:56:33 | 00:00:00 | |
| DL1XH1-15 | 2026-08-31 01:41:22 | 53.47351 | 11.43446 | 51° | 37km/h | 2181m | -9.7m/s | 4.3°C | 91% | 782.2hPa | 2.6V | 02:18:49 | 02:56:26 | 00:00:00 | |
| S3001 | 2026-08-31 01:41:22 | 53.47373 | 11.43492 | 47° | 31km/h | 2146m | -11.0m/s | 4.6°C | 88.5% | 785.6hPa | 2.6V | 00:00:00 | 00:00:00 | 00:00:00 | |
| DL1XH-15 | 2026-08-31 01:41:20 | 53.47340 | 11.43425 | 50° | 29km/h | 2199m | -10m/s | 4.1°C | 91.6% | 780.4hPa | 2.6V | 02:18:51 | 02:56:24 | 00:00:00 | |
| AA1-15 | 2026-08-31 01:41:19 | 53.47362 | 11.43470 | 50° | 35km/h | 2163m | -9.7m/s | 4.4°C | 95.3% | 783.8hPa | 2.7V | 02:19:18 | 02:56:28 | 00:00:00 | |
| DO2SHX-10 | 2026-08-31 01:41:18 | 53.47357 | 11.43459 | 53° | 33km/h | 2173m | -9.6m/s | 4.3°C | 91.5% | 783.0hPa | 2.6V | 02:18:00 | 02:56:27 | 00:00:00 | |
| DL1XH1-15 | 2026-08-31 01:41:17 | 53.47323 | 11.43394 | 46° | 31km/h | 2231m | -9.2m/s | 3.9°C | 92.6% | 777.6hPa | 2.6V | 02:18:54 | 02:56:21 | 00:00:00 | |
| DL1XH-15 | 2026-08-31 01:41:15 | 53.47313 | 11.43374 | 45° | 31km/h | 2250m | -9.9m/s | 3.7°C | 93.8% | 775.7hPa | 2.6V | 02:18:56 | 02:56:19 | 00:00:00 | |
| DL1XH-west | 2026-08-31 01:41:13 | 53.47329 | 11.43404 | 45° | 35km/h | 2221m | -10.8m/s | 3.9°C | 95.3% | 778.5hPa | 2.5V | 02:19:18 | 02:56:22 | 00:00:00 | |
| AM1SDL-15 | 2026-08-31 01:41:12 | 53.47323 | 11.43393 | 47° | 33km/h | 2231m | -9.2m/s | 3.8°C | 92.6% | 777.5hPa | 2.6V | 00:00:00 | 02:56:21 | 00:00:00 | |
| DB0DAN | 2026-08-31 01:41:10 | 53.47313 | 11.43374 | 45° | 31km/h | 2250m | -9.9m/s | 3.7°C | 92.5% | 775.72hPa | 2.6V | 00:00:00 | 00:00:00 | 00:00:00 | |
| DL1XH-15 | 2026-08-31 01:41:10 | 53.47285 | 11.43323 | 49° | 31km/h | 2293m | -10.1m/s | 3.3°C | 95.5% | 771.5hPa | 2.5V | 02:19:01 | 02:56:14 | 00:00:00 | |
| AA1-15 | 2026-08-31 01:41:08 | 53.47301 | 11.43354 | 48° | 33km/h | 2267m | -9.3m/s | 3.5°C | 92.9% | 774hPa | 2.6V | 02:19:18 | 02:56:17 | 00:00:00 | |
| DO2SHX-10 | 2026-08-31 01:41:08 | 53.47301 | 11.43354 | 49° | 35km/h | 2267m | -9.3m/s | 3.5°C | 94.2% | 774.0hPa | 2.6V | 00:00:00 | 02:56:17 | 00:00:00 | |
| DM0DOS-11 | 2026-08-31 01:41:06 | 53.47264 | 11.43278 | 58° | 35km/h | 2332m | -10.9m/s | 2.9°C | 98.7% | 767.9hPa | 2.6V | 02:19:05 | 02:56:10 | 00:00:00 | |
| DL1XH-15 | 2026-08-31 01:41:03 | 53.47259 | 11.43266 | 54° | 37km/h | 2343m | -10.9m/s | 2.8°C | 98.6% | 767hPa | 2.6V | 02:19:06 | 02:56:09 | 00:00:00 | |
| DL1XH-west | 2026-08-31 01:41:03 | 53.47269 | 11.43290 | 56° | 35km/h | 2322m | -10.2m/s | 3°C | 97.7% | 768.8hPa | 2.6V | 02:19:18 | 02:56:11 | 00:00:00 | |
| DL1XH1-15 | 2026-08-31 01:41:02 | 53.47244 | 11.43230 | 52° | 35km/h | 2373m | -10m/s | 2.6°C | 96.2% | 764hPa | 2.5V | 02:19:09 | 02:56:06 | 00:00:00 | |
| AA1-15 | 2026-08-31 01:40:57 | 53.47244 | 11.43230 | 53° | 35km/h | 2373m | -10m/s | 2.6°C | 93% | 764hPa | 2.5V | 02:19:18 | 02:56:06 | 00:00:00 | |
| DL1XH1-15 | 2026-08-31 01:40:57 | 53.47214 | 11.43165 | 50° | 42km/h | 2415m | -8.6m/s | 4°C | 63.2% | 760hPa | 2.6V | 02:19:14 | 02:56:01 | 00:00:00 | |
| DB0DAN | 2026-08-31 01:40:55 | 53.47232 | 11.43204 | 52° | 38km/h | 2390m | -8.2m/s | 2.8°C | 90.1% | 762.08hPa | 2.6V | 00:00:00 | 00:00:00 | 00:00:00 | |
| DL1XH-15 | 2026-08-31 01:40:54 | 53.47193 | 11.43119 | 52° | 46km/h | 2441m | -10.2m/s | 4.7°C | 44.9% | 757.5hPa | 2.5V | 02:19:17 | 02:55:58 | 00:00:00 | |
| DL1XH-west | 2026-08-31 01:40:51 | 53.47207 | 11.43150 | 52° | 44km/h | 2423m | -8.9m/s | 4.3°C | 59.2% | 759.1hPa | 2.6V | 02:19:18 | 02:56:00 | 00:00:00 | |
| S3001 | 2026-08-31 01:40:51 | 53.47200 | 11.43135 | 52° | 46km/h | 2432m | -8.5m/s | 4.5°C | 49.3% | 758.3hPa | 2.6V | 00:00:00 | 00:00:00 | 00:00:00 | |
| DL1XH-15 | 2026-08-31 01:40:49 | 53.47155 | 11.43040 | 50° | 46km/h | 2486m | -8.1m/s | 4.8°C | 40% | 753.2hPa | 2.6V | 02:19:22 | 02:55:53 | 00:00:00 | |
| DO2SHX-10 | 2026-08-31 01:40:48 | 53.47186 | 11.43103 | 54° | 47km/h | 2451m | -9.3m/s | 4.9°C | 39.8% | 756.8hPa | 2.6V | 02:19:00 | 02:55:57 | 00:00:00 | |
| DL1XH1-15 | 2026-08-31 01:40:47 | 53.47141 | 11.43008 | 53° | 47km/h | 2503m | -10.7m/s | 4.7°C | 39.4% | 751.7hPa | 2.5V | 02:19:24 | 02:55:51 | 00:00:00 | |
| DF8AY | 2026-08-31 01:40:47 | 53.47141 | 11.43008 | 53° | 47km/h | 2503m | -10.7m/s | 4.7°C | 44.1% | 751.7hPa | 2.5V | 02:20:09 | 02:55:51 | 00:00:00 | |
| DM0DOS-11 | 2026-08-31 01:40:46 | 53.47134 | 11.42992 | 55° | 46km/h | 2513m | -10.6m/s | 4.6°C | 39.4% | 750.9hPa | 2.6V | 02:19:25 | 02:55:50 | 00:00:00 | |
| AA1-15 | 2026-08-31 01:40:46 | 53.47170 | 11.43072 | 55° | 49km/h | 2469m | -9.7m/s | 4.8°C | 44.7% | 755hPa | 2.6V | 02:20:09 | 02:55:55 | 00:00:00 | |
| DL1XH-15 | 2026-08-31 01:40:44 | 53.47120 | 11.42961 | 50° | 44km/h | 2533m | -9.8m/s | 4.6°C | 39.1% | 749.1hPa | 2.6V | 02:19:27 | 02:55:48 | 00:00:00 | |
| DM0DOS-11 | 2026-08-31 01:40:41 | 53.47097 | 11.42916 | 52° | 40km/h | 2557m | -8.1m/s | 4.6°C | 37.1% | 746.7hPa | 2.6V | 02:19:30 | 02:55:45 | 00:00:00 | |
| DB0DAN | 2026-08-31 01:40:40 | 53.47127 | 11.42976 | 53° | 44km/h | 2523m | -10.2m/s | 4.6°C | 39.1% | 750.05hPa | 2.6V | 00:00:00 | 00:00:00 | 00:00:00 | |
| DL1XH-west | 2026-08-31 01:40:40 | 53.47127 | 11.42976 | 53° | 47km/h | 2523m | -10.2m/s | 4.6°C | 44.1% | 750hPa | 2.6V | 02:21:00 | 02:55:49 | 00:00:00 | |
| DL1XH-15 | 2026-08-31 01:40:39 | 53.47083 | 11.42887 | 47° | 47km/h | 2574m | -9m/s | 4.6°C | 34.9% | 745.2hPa | 2.6V | 02:19:32 | 02:55:43 | 00:00:00 | |
| DO2SHX-10 | 2026-08-31 01:40:38 | 53.47112 | 11.42945 | 51° | 47km/h | 2542m | -8.3m/s | 4.6°C | 38.6% | 748.1hPa | 2.6V | 00:00:00 | 02:55:47 | 00:00:00 | |
| DL1XH1-15 | 2026-08-31 01:40:37 | 53.47067 | 11.42855 | 49° | 47km/h | 2594m | -10.5m/s | 4.7°C | 31.8% | 743.5hPa | 2.6V | 02:19:34 | 02:55:41 | 00:00:00 | |
| DM0DOS-11 | 2026-08-31 01:40:36 | 53.47059 | 11.42840 | 49° | 47km/h | 2604m | -11.2m/s | 4.7°C | 30.5% | 742.6hPa | 2.6V | 02:19:35 | 02:55:40 | 00:00:00 | |
| AA1-15 | 2026-08-31 01:40:35 | 53.47090 | 11.42901 | 53° | 46km/h | 2565m | -9.4m/s | 4.6°C | 40% | 745.9hPa | 2.5V | 02:20:09 | 02:55:44 | 00:00:00 | |
| DF8AY | 2026-08-31 01:40:31 | 53.47059 | 11.42840 | 50° | 47km/h | 2604m | -11.2m/s | 4.7°C | 35.6% | 742.6hPa | 2.6V | 02:20:09 | 02:55:40 | 00:00:00 | |
| DM0DOS-11 | 2026-08-31 01:40:31 | 53.47020 | 11.42767 | 46° | 46km/h | 2655m | -10.7m/s | 4.6°C | 27.3% | 738hPa | 2.6V | 02:19:40 | 02:55:35 | 00:00:00 | |
| DL1XH-west | 2026-08-31 01:40:30 | 53.47051 | 11.42825 | 48° | 47km/h | 2615m | -10.8m/s | 4.6°C | 34.6% | 741.5hPa | 2.6V | 02:21:00 | 02:55:39 | 00:00:00 | |
| DO2SHX-10 | 2026-08-31 01:40:28 | 53.47035 | 11.42795 | 46° | 44km/h | 2635m | -10.0m/s | 4.5°C | 28.4% | 739.7hPa | 2.5V | 00:00:00 | 02:55:37 | 00:00:00 | |
| SMARD9-15 | 2026-08-31 01:40:27 | 53.47028 | 11.42781 | 48° | 44km/h | 2645m | -10.1m/s | 4.6°C | 27.4% | 738.8hPa | 2.5V | 00:00:00 | 00:00:00 | 00:00:00 | |
| DM0DOS-11 | 2026-08-31 01:40:26 | 53.46982 | 11.42700 | 44° | 42km/h | 2701m | -8.9m/s | 4.3°C | 26.7% | 733.6hPa | 2.5V | 02:19:45 | 02:55:30 | 00:00:00 | |
| DB0DAN | 2026-08-31 01:40:25 | 53.47012 | 11.42753 | 47° | 40km/h | 2665m | -10.3m/s | 4.5°C | 26.6% | 736.93hPa | 2.6V | 00:00:00 | 00:00:00 | 00:00:00 | |
| DL1XH-15 | 2026-08-31 01:40:24 | 53.46968 | 11.42675 | 51° | 42km/h | 2717m | -8.2m/s | 4.2°C | 26% | 732.1hPa | 2.6V | 02:19:47 | 02:55:28 | 00:00:00 | |
| AA1-15 | 2026-08-31 01:40:24 | 53.47005 | 11.42740 | 48° | 44km/h | 2675m | -8.9m/s | 4.4°C | 31.1% | 735.9hPa | 2.6V | 02:20:09 | 02:55:33 | 00:00:00 | |
| AM1SDL-15 | 2026-08-31 01:40:23 | 53.46997 | 11.42726 | 44° | 42km/h | 2684m | -8.9m/s | 4.3°C | 27.0% | 735.2hPa | 2.6V | 00:00:00 | 02:55:32 | 00:00:00 | |
| DM0DOS-11 | 2026-08-31 01:40:21 | 53.46939 | 11.42626 | 41° | 40km/h | 2750m | -8.9m/s | 4°C | 25.9% | 729.3hPa | 2.6V | 02:19:51 | 02:55:24 | 00:00:00 | |
| DF8AY | 2026-08-31 01:40:21 | 53.46982 | 11.42700 | 45° | 42km/h | 2701m | -8.9m/s | 4.3°C | 30.4% | 733.6hPa | 2.5V | 02:20:09 | 02:55:30 | 00:00:00 | |
| DL1XH-west | 2026-08-31 01:40:19 | 53.46968 | 11.42675 | 52° | 42km/h | 2717m | -8.2m/s | 4.2°C | 29.5% | 732.1hPa | 2.6V | 02:21:00 | 02:55:28 | 00:00:00 | |
| DO2SHX-10 | 2026-08-31 01:40:18 | 53.46961 | 11.42662 | 43° | 40km/h | 2725m | -8.1m/s | 4.1°C | 26.0% | 731.4hPa | 2.6V | 02:19:00 | 02:55:27 | 00:00:00 | |
| DM0DOS-11 | 2026-08-31 01:40:15 | 53.46904 | 11.42568 | 43° | 38km/h | 2796m | -10.3m/s | 3.8°C | 23.1% | 725.2hPa | 2.6V | 02:19:56 | 02:55:19 | 00:00:00 | |
| DL1XH-15 | 2026-08-31 01:40:14 | 53.46898 | 11.42557 | 46° | 37km/h | 2805m | -10.3m/s | 3.8°C | 22.8% | 724.4hPa | 2.6V | 02:19:57 | 02:55:18 | 00:00:00 | |
| AA1-15 | 2026-08-31 01:40:13 | 53.46925 | 11.42603 | 43° | 40km/h | 2768m | -9.5m/s | 4°C | 28.5% | 727.6hPa | 2.5V | 02:20:09 | 02:55:22 | 00:00:00 | |
| DB0DAN | 2026-08-31 01:40:10 | 53.46905 | 11.42568 | 43° | 37km/h | 2796m | -10.3m/s | 3.8°C | 22.8% | 725.24hPa | 2.6V | 00:00:00 | 00:00:00 | 00:00:00 | |
| DM0DOS-11 | 2026-08-31 01:40:10 | 53.46873 | 11.42513 | 43° | 35km/h | 2843m | -9.8m/s | 3.7°C | 21.6% | 720.9hPa | 2.6V | 02:20:01 | 02:55:14 | 00:00:00 | |
| DF8AY | 2026-08-31 01:40:09 | 53.46898 | 11.42557 | 47° | 37km/h | 2805m | -10.3m/s | 3.8°C | 26.7% | 724.4hPa | 2.6V | 02:20:09 | 02:55:18 | 00:00:00 | |
| DL1XH-15 | 2026-08-31 01:40:09 | 53.46867 | 11.42502 | 47° | 37km/h | 2852m | -10m/s | 3.7°C | 22.8% | 719.9hPa | 2.6V | 02:20:02 | 02:55:13 | 00:00:00 | |
| DL1XH-west | 2026-08-31 01:40:08 | 53.46891 | 11.42546 | 44° | 38km/h | 2815m | -10.2m/s | 3.8°C | 26.5% | 723.7hPa | 2.6V | 02:21:00 | 02:55:17 | 00:00:00 | |
| DO2SHX-10 | 2026-08-31 01:40:08 | 53.46891 | 11.42545 | 45° | 37km/h | 2815m | -10.2m/s | 3.7°C | 22.7% | 723.6hPa | 2.6V | 00:00:00 | 02:55:17 | 00:00:00 | |
| DL1XH1-15 | 2026-08-31 01:40:06 | 53.46847 | 11.42472 | 40° | 37km/h | 2882m | -11.1m/s | 3.5°C | 28% | 717.4hPa | 2.6V | 02:20:05 | 02:55:10 | 00:00:00 | |
| DL1XH-15 | 2026-08-31 01:40:04 | 53.46833 | 11.42452 | 45° | 35km/h | 2902m | -10.2m/s | 3.4°C | 32% | 715.6hPa | 2.5V | 02:20:07 | 02:55:08 | 00:00:00 | |
| AA1-15 | 2026-08-31 01:40:02 | 53.46853 | 11.42482 | 41° | 37km/h | 2872m | -10.7m/s | 3.6°C | 30% | 718.4hPa | 2.6V | 02:20:09 | 02:55:11 | 00:00:00 | |
| DJ2DS-15 | 2026-08-31 01:40:01 | 53.46847 | 11.42472 | 40° | 35km/h | 2882m | -11.1m/s | 3.5°C | 27.6% | 717.4hPa | 2.6V | 00:00:00 | 00:00:00 | 00:00:00 | |
| DL1XH1-15 | 2026-08-31 01:40:00 | 53.46804 | 11.42412 | 35° | 37km/h | 2941m | -9.6m/s | 3.2°C | 32.2% | 712.3hPa | 2.6V | 02:20:11 | 02:55:04 | 00:00:00 | |
| DL1XH-15 | 2026-08-31 01:39:59 | 53.46797 | 11.42403 | 37° | 35km/h | 2950m | -9.9m/s | 3.1°C | 32.1% | 711.3hPa | 2.6V | 02:20:12 | 02:55:03 | 00:00:00 | |
| DL1XH-west | 2026-08-31 01:39:58 | 53.46826 | 11.42442 | 37° | 37km/h | 2912m | -10.2m/s | 3.4°C | 36.9% | 714.7hPa | 2.6V | 02:21:00 | 02:55:07 | 00:00:00 | |
| SMARD9-15 | 2026-08-31 01:39:56 | 53.46812 | 11.42422 | 41° | 38km/h | 2931m | -10.2m/s | 3.2°C | 32.1% | 713.0hPa | 2.6V | 00:00:00 | 00:00:00 | 00:00:00 | |
| DM0DOS-11 | 2026-08-31 01:39:55 | 53.46767 | 11.42364 | 34° | 37km/h | 2989m | -11.2m/s | 2.8°C | 34.5% | 708.1hPa | 2.6V | 02:20:16 | 02:54:59 | 00:00:00 | |
| DF8AY | 2026-08-31 01:39:55 | 53.46804 | 11.42412 | 36° | 37km/h | 2941m | -9.6m/s | 3.2°C | 37% | 712.3hPa | 2.6V | 02:21:00 | 02:55:04 | 00:00:00 | |
| AA1-15 | 2026-08-31 01:39:51 | 53.46774 | 11.42374 | 40° | 37km/h | 2979m | -10.3m/s | 2.9°C | 38.2% | 708.9hPa | 2.6V | 02:21:00 | 02:55:00 | 00:00:00 | |
| DL1XH-15 | 2026-08-31 01:39:49 | 53.46721 | 11.42305 | 37° | 38km/h | 3050m | -10.9m/s | 2.5°C | 29.2% | 702.8hPa | 2.6V | 02:20:22 | 02:54:53 | 00:00:00 | |
| DL1XH-west | 2026-08-31 01:39:47 | 53.46744 | 11.42335 | 37° | 38km/h | 3021m | -10.4m/s | 2.7°C | 38.5% | 705.3hPa | 2.6V | 02:21:00 | 02:54:56 | 00:00:00 | |
| DM0DOS-11 | 2026-08-31 01:39:45 | 53.46691 | 11.42265 | 41° | 40km/h | 3088m | -9.6m/s | 2.3°C | 31.3% | 699.3hPa | 2.6V | 02:20:26 | 02:54:49 | 00:00:00 | |
| DF8AY | 2026-08-31 01:39:45 | 53.46721 | 11.42304 | 38° | 38km/h | 3050m | -10.9m/s | 2.5°C | 34.1% | 702.8hPa | 2.6V | 02:21:00 | 02:54:53 | 00:00:00 | |
| DL1XH1-15 | 2026-08-31 01:39:44 | 53.46683 | 11.42254 | 35° | 38km/h | 3097m | -9.5m/s | 2.3°C | 30.9% | 698.6hPa | 2.5V | 02:20:27 | 02:54:48 | 00:00:00 | |
| DO2SHX-10 | 2026-08-31 01:39:42 | 53.46706 | 11.42284 | 35° | 38km/h | 3070m | -9.7m/s | 2.4°C | 30.9% | 701.0hPa | 2.6V | 00:00:00 | 02:54:51 | 00:00:00 | |
| DB0DAN | 2026-08-31 01:39:40 | 53.46691 | 11.42265 | 42° | 38km/h | 3088m | -9.6m/s | 2.3°C | 30.8% | 699.33hPa | 2.6V | 00:00:00 | 00:00:00 | 00:00:00 | |
| DM0DOS-11 | 2026-08-31 01:39:40 | 53.46652 | 11.42218 | 39° | 37km/h | 3136m | -9.1m/s | 2°C | 29.6% | 695.2hPa | 2.6V | 02:20:31 | 02:54:44 | 00:00:00 | |
| AA1-15 | 2026-08-31 01:39:40 | 53.46691 | 11.42265 | 42° | 40km/h | 3088m | -9.6m/s | 2.3°C | 36.5% | 699.3hPa | 2.6V | 02:21:00 | 02:54:49 | 00:00:00 | |
| DL1XH-west | 2026-08-31 01:39:36 | 53.46660 | 11.42226 | 32° | 35km/h | 3127m | -9.9m/s | 2.1°C | 34.4% | 696.1hPa | 2.6V | 02:21:00 | 02:54:45 | 00:00:00 | |
| DO2SHX-10 | 2026-08-31 01:39:36 | 53.46660 | 11.42226 | 32° | 37km/h | 3127m | -9.9m/s | 2.0°C | 29.6% | 696.1hPa | 2.6V | 00:00:00 | 02:54:45 | 00:00:00 | |
| AM1SDL-15 | 2026-08-31 01:39:35 | 53.46652 | 11.42218 | 40° | 35km/h | 3136m | -9.0m/s | 2.0°C | 29.6% | 695.1hPa | 2.6V | 02:20:00 | 02:54:44 | 00:00:00 | |
| DL1XH-15 | 2026-08-31 01:39:34 | 53.46607 | 11.42169 | 36° | 37km/h | 3189m | -8.8m/s | 1.7°C | 27.1% | 691hPa | 2.6V | 02:20:37 | 02:54:38 | 00:00:00 | |
| DF8AY | 2026-08-31 01:39:33 | 53.46637 | 11.42201 | 30° | 33km/h | 3153m | -9m/s | 2°C | 32.7% | 693.8hPa | 2.6V | 02:21:00 | 02:54:42 | 00:00:00 | |
| DO2SHX-10 | 2026-08-31 01:39:33 | 53.46637 | 11.42201 | 30° | 35km/h | 3153m | -9.0m/s | 1.9°C | 28.1% | 693.7hPa | 2.5V | 00:00:00 | 02:54:42 | 00:00:00 | |
| DM0DOS-11 | 2026-08-31 01:39:30 | 53.46577 | 11.42139 | 27° | 33km/h | 3224m | -9.6m/s | 1.6°C | 24.5% | 687.7hPa | 2.5V | 02:20:41 | 02:54:34 | 00:00:00 | |
| AA1-15 | 2026-08-31 01:39:29 | 53.46607 | 11.42169 | 36° | 37km/h | 3189m | -8.8m/s | 1.7°C | 31.5% | 691hPa | 2.6V | 02:21:00 | 02:54:38 | 00:00:00 | |
| DL1XH-15 | 2026-08-31 01:39:29 | 53.46570 | 11.42132 | 35° | 31km/h | 3233m | -9m/s | 1.5°C | 23.7% | 687hPa | 2.6V | 02:20:42 | 02:54:33 | 00:00:00 | |
| DO2SHX-10 | 2026-08-31 01:39:27 | 53.46592 | 11.42154 | 34° | 35km/h | 3206m | -9.1m/s | 1.6°C | 26.6% | 689.3hPa | 2.5V | 00:00:00 | 02:54:36 | 00:00:00 | |
| DB0DAN | 2026-08-31 01:39:25 | 53.46577 | 11.42139 | 27° | 31km/h | 3224m | -9.6m/s | 1.6°C | 24.1% | 687.68hPa | 2.5V | 00:00:00 | 00:00:00 | 00:00:00 | |
| DL1XH-west | 2026-08-31 01:39:25 | 53.46577 | 11.42139 | 27° | 33km/h | 3224m | -9.6m/s | 1.6°C | 28.4% | 687.7hPa | 2.5V | 02:21:00 | 02:54:34 | 00:00:00 | |
| DM0DOS-11 | 2026-08-31 01:39:25 | 53.46540 | 11.42103 | 28° | 37km/h | 3269m | -9.1m/s | 1.2°C | 23.8% | 683.9hPa | 2.6V | 02:20:46 | 02:54:29 | 00:00:00 | |
| DF8AY | 2026-08-31 01:39:22 | 53.46555 | 11.42117 | 25° | 33km/h | 3250m | -9m/s | 1.4°C | 27.4% | 685.5hPa | 2.6V | 02:21:00 | 02:54:31 | 00:00:00 | |
| DO2SHX-10 | 2026-08-31 01:39:21 | 53.46548 | 11.42110 | 36° | 35km/h | 3260m | -9.7m/s | 1.3°C | 23.7% | 684.7hPa | 2.6V | 02:20:00 | 02:54:30 | 00:00:00 | |
| DM0DOS-11 | 2026-08-31 01:39:20 | 53.46503 | 11.42065 | 35° | 38km/h | 3313m | -9.1m/s | 0.9°C | 23.5% | 680.2hPa | 2.6V | 02:20:51 | 02:54:24 | 00:00:00 | |
| DL1XH1-15 | 2026-08-31 01:39:19 | 53.46495 | 11.42056 | 27° | 37km/h | 3322m | -9.2m/s | 0.8°C | 23.2% | 679.5hPa | 2.6V | 02:20:52 | 02:54:23 | 00:00:00 | |
| AA1-15 | 2026-08-31 01:39:18 | 53.46525 | 11.42088 | 37° | 38km/h | 3287m | -8.9m/s | 1.1°C | 27.5% | 682.4hPa | 2.5V | 02:21:00 | 02:54:27 | 00:00:00 | |
| DO2SHX-10 | 2026-08-31 01:39:18 | 53.46525 | 11.42088 | 37° | 37km/h | 3287m | -8.8m/s | 1.0°C | 23.8% | 682.4hPa | 2.6V | 00:00:00 | 02:54:27 | 00:00:00 | |
| S3001 | 2026-08-31 01:39:17 | 53.46518 | 11.42079 | 27° | 37km/h | 3295m | -9.3m/s | 1.0°C | 23.2% | 681.7hPa | 2.6V | 00:00:00 | 00:00:00 | 00:00:00 | |
| DM0DOS-11 | 2026-08-31 01:39:15 | 53.46467 | 11.42026 | 36° | 33km/h | 3362m | -10.6m/s | 0.7°C | 20.9% | 676.3hPa | 2.6V | 02:20:56 | 02:54:19 | 00:00:00 | |
| DL1XH-west | 2026-08-31 01:39:14 | 53.46495 | 11.42056 | 28° | 37km/h | 3323m | -9.3m/s | 0.8°C | 27% | 679.5hPa | 2.6V | 02:21:00 | 02:54:23 | 00:00:00 | |
| DL1XH1-15 | 2026-08-31 01:39:14 | 53.46460 | 11.42019 | 28° | 33km/h | 3373m | -11.5m/s | 0.7°C | 19.4% | 675.3hPa | 2.6V | 02:20:57 | 02:54:18 | 00:00:00 | |
| DF8AY | 2026-08-31 01:39:12 | 53.46480 | 11.42041 | 33° | 35km/h | 3342m | -10.4m/s | 0.8°C | 26.4% | 677.8hPa | 2.5V | 02:21:00 | 02:54:21 | 00:00:00 | |
| DO2SHX-10 | 2026-08-31 01:39:12 | 53.46480 | 11.42041 | 33° | 33km/h | 3342m | -10.4m/s | 0.7°C | 22.3% | 677.8hPa | 2.5V | 02:20:00 | 02:54:21 | 00:00:00 | |
| DB0DAN | 2026-08-31 01:39:10 | 53.46467 | 11.42026 | 36° | 31km/h | 3362m | -10.6m/s | 0.7°C | 20.5% | 676.33hPa | 2.6V | 00:00:00 | 00:00:00 | 00:00:00 | |
| DM0DOS-11 | 2026-08-31 01:39:10 | 53.46429 | 11.41990 | 29° | 38km/h | 3415m | -10.2m/s | 0.6°C | 20.3% | 671.8hPa | 2.6V | 02:21:01 | 02:54:14 | 00:00:00 | |
| DL1XH1-15 | 2026-08-31 01:39:09 | 53.46422 | 11.41982 | 32° | 33km/h | 3424m | -8.4m/s | 0.5°C | 22% | 671hPa | 2.6V | 02:21:02 | 02:54:13 | 00:00:00 | |
| AA1-15 | 2026-08-31 01:39:07 | 53.46445 | 11.42004 | 25° | 33km/h | 3394m | -10.6m/s | 0.7°C | 22.4% | 673.6hPa | 2.5V | 02:21:00 | 02:54:16 | 00:00:00 | |
| DO2SHX-10 | 2026-08-31 01:39:06 | 53.46437 | 11.41997 | 32° | 35km/h | 3405m | -10.4m/s | 0.6°C | 19.1% | 672.5hPa | 2.5V | 00:00:00 | 02:54:15 | 00:00:00 | |
| DM0DOS-11 | 2026-08-31 01:39:05 | 53.46392 | 11.41950 | 31° | 37km/h | 3453m | -6.2m/s | 0.2°C | 24.5% | 668.1hPa | 2.5V | 02:21:06 | 02:54:09 | 00:00:00 | |
| DF8AY-15 | 2026-08-31 01:39:05 | 53.46429 | 11.41990 | 30° | 37km/h | 3415m | -10.2m/s | 0.5°C | 20.3% | 671.8hPa | 2.5V | 00:00:00 | 02:54:14 | 00:00:00 | |
| DL1XH1-15 | 2026-08-31 01:39:04 | 53.46384 | 11.41942 | 31° | 35km/h | 3459m | -7.3m/s | 0.1°C | 25% | 667.8hPa | 2.5V | 02:21:07 | 02:54:08 | 00:00:00 | |
| DL1XH-west | 2026-08-31 01:39:03 | 53.46414 | 11.41974 | 34° | 35km/h | 3432m | -8.7m/s | 0.4°C | 25.8% | 670hPa | 2.6V | 02:21:51 | 02:54:12 | 00:00:00 | |
| DF8AY | 2026-08-31 01:39:02 | 53.46407 | 11.41967 | 28° | 35km/h | 3440m | -8.1m/s | 0.3°C | 26.1% | 669.4hPa | 2.6V | 02:21:51 | 02:54:11 | 00:00:00 | |
| DM0DOS-11 | 2026-08-31 01:39:00 | 53.46355 | 11.41911 | 32° | 35km/h | 3485m | -9.4m/s | -0.1°C | 28.1% | 665.6hPa | 2.6V | 02:21:11 | 02:54:04 | 00:00:00 | |
| DO2SHX-10 | 2026-08-31 01:39:00 | 53.46392 | 11.41950 | 32° | 35km/h | 3453m | -6.2m/s | 0.1°C | 24.5% | 668.1hPa | 2.5V | 00:00:00 | 02:54:09 | 00:00:00 | |
| DL1XH1-15 | 2026-08-31 01:38:59 | 53.46347 | 11.41903 | 27° | 37km/h | 3495m | -12m/s | -0.1°C | 27.8% | 665hPa | 2.5V | 02:21:12 | 02:54:03 | 00:00:00 | |
| AA1-15 | 2026-08-31 01:38:56 | 53.46362 | 11.41919 | 33° | 37km/h | 3478m | -7m/s | -0°C | 32.6% | 666.1hPa | 2.6V | 02:21:51 | 02:54:05 | 00:00:00 | |
| DB0DAN | 2026-08-31 01:38:55 | 53.46355 | 11.41911 | 33° | 33km/h | 3485m | -9.4m/s | -0.1°C | 27.6% | 665.58hPa | 2.6V | 00:00:00 | 00:00:00 | 00:00:00 | |
| DM0DOS-11 | 2026-08-31 01:38:55 | 53.46315 | 11.41869 | 33° | 35km/h | 3542m | -12m/s | -0.3°C | 28.3% | 661.1hPa | 2.6V | 02:21:16 | 02:53:59 | 00:00:00 | |
| DL1XH1-15 | 2026-08-31 01:38:54 | 53.46307 | 11.41861 | 31° | 31km/h | 3553m | -11.7m/s | -0.4°C | 28.1% | 660.1hPa | 2.6V | 02:21:17 | 02:53:58 | 00:00:00 | |
| DL1XH-west | 2026-08-31 01:38:52 | 53.46331 | 11.41887 | 32° | 40km/h | 3519m | -12.4m/s | -0.2°C | 30.1% | 663.1hPa | 2.6V | 02:21:51 | 02:54:01 | 00:00:00 | |
| DF8AY | 2026-08-31 01:38:51 | 53.46322 | 11.41878 | 35° | 38km/h | 3531m | -12.4m/s | -0.3°C | 32.7% | 662.3hPa | 2.6V | 02:21:51 | 02:54:00 | 00:00:00 | |
| DO2SHX-10 | 2026-08-31 01:38:51 | 53.46322 | 11.41878 | 35° | 35km/h | 3531m | -12.3m/s | -0.2°C | 27.6% | 662.3hPa | 2.6V | 00:00:00 | 02:54:00 | 00:00:00 | |
| DM0DOS-11 | 2026-08-31 01:38:50 | 53.46277 | 11.41832 | 29° | 37km/h | 3593m | -10m/s | -0.7°C | 28.4% | 657hPa | 2.6V | 02:21:21 | 02:53:54 | 00:00:00 | |
| DL1XH-15 | 2026-08-31 01:38:49 | 53.46269 | 11.41825 | 29° | 37km/h | 3601m | -8.5m/s | -0.7°C | 28.5% | 656.2hPa | 2.6V | 02:21:22 | 02:53:53 | 00:00:00 | |
| AA1-15 | 2026-08-31 01:38:46 | 53.46285 | 11.41840 | 33° | 37km/h | 3583m | -10.2m/s | -0.6°C | 33.6% | 657.7hPa | 2.6V | 02:21:51 | 02:53:55 | 00:00:00 | |
| DO2SHX-10 | 2026-08-31 01:38:45 | 53.46277 | 11.41832 | 30° | 37km/h | 3593m | -9.9m/s | -0.6°C | 28.4% | 657.0hPa | 2.6V | 02:21:00 | 02:53:54 | 00:00:00 | |
| DL1XH1-15 | 2026-08-31 01:38:44 | 53.46229 | 11.41785 | 35° | 38km/h | 3648m | -8.2m/s | -0.9°C | 22.2% | 652.1hPa | 2.6V | 02:21:27 | 02:53:48 | 00:00:00 | |
| DL1XH-west | 2026-08-31 01:38:42 | 53.46253 | 11.41809 | 30° | 33km/h | 3622m | -10.1m/s | -0.8°C | 31.5% | 654.6hPa | 2.5V | 02:21:51 | 02:53:51 | 00:00:00 | |
| DF8AY | 2026-08-31 01:38:41 | 53.46246 | 11.41802 | 31° | 40km/h | 3631m | -9.9m/s | -0.8°C | 27.8% | 653.8hPa | 2.5V | 02:21:51 | 02:53:50 | 00:00:00 | |
| DB0DAN | 2026-08-31 01:38:40 | 53.46237 | 11.41793 | 32° | 35km/h | 3640m | -9.5m/s | -0.9°C | 22.7% | 653hPa | 2.6V | 00:00:00 | 00:00:00 | 00:00:00 | |
| DL1XH1-15 | 2026-08-31 01:38:39 | 53.46190 | 11.41739 | 35° | 37km/h | 3693m | -10.8m/s | -1.2°C | 14% | 648.6hPa | 2.6V | 02:21:32 | 02:53:43 | 00:00:00 | |
| DO2SHX-10 | 2026-08-31 01:38:39 | 53.46229 | 11.41784 | 36° | 37km/h | 3649m | -8.2m/s | -0.9°C | 22.2% | 652.1hPa | 2.5V | 00:00:00 | 02:53:48 | 00:00:00 | |
| EDDB2-12 | 2026-08-31 01:38:37 | 53.46214 | 11.41768 | 30° | 35km/h | 3665m | -8.4m/s | -1.0°C | 17.3% | 650.9hPa | 2.5V | 00:00:00 | 00:00:00 | 00:00:00 | |
| DO2SHX-10 | 2026-08-31 01:38:36 | 53.46206 | 11.41759 | 37° | 38km/h | 3674m | -11.1m/s | -1.0°C | 15.3% | 650.2hPa | 2.5V | 02:21:00 | 02:53:45 | 00:00:00 | |
| DM0DOS-11 | 2026-08-31 01:38:35 | 53.46159 | 11.41706 | 32° | 37km/h | 3731m | -8.6m/s | -1.4°C | 10.8% | 645.3hPa | 2.5V | 02:21:36 | 02:53:39 | 00:00:00 | |
| AA1-15 | 2026-08-31 01:38:35 | 53.46198 | 11.41749 | 36° | 40km/h | 3684m | -9.7m/s | -1.1°C | 16.9% | 649.4hPa | 2.5V | 02:21:51 | 02:53:44 | 00:00:00 | |
| DL1XH-west | 2026-08-31 01:38:31 | 53.46167 | 11.41714 | 36° | 37km/h | 3722m | -10.2m/s | -1.3°C | 11.8% | 646.2hPa | 2.6V | 02:21:51 | 02:53:40 | 00:00:00 | |
| DF8AY | 2026-08-31 01:38:30 | 53.46159 | 11.41706 | 33° | 37km/h | 3731m | -8.6m/s | -1.4°C | 11.6% | 645.3hPa | 2.5V | 02:21:51 | 02:53:39 | 00:00:00 | |
| DM0DOS-11 | 2026-08-31 01:38:30 | 53.46119 | 11.41663 | 32° | 40km/h | 3778m | -9.2m/s | -1.6°C | 10.3% | 641.8hPa | 2.6V | 02:21:41 | 02:53:34 | 00:00:00 | |
| DO2SHX-10 | 2026-08-31 01:38:30 | 53.46159 | 11.41706 | 33° | 37km/h | 3731m | -8.5m/s | -1.3°C | 10.8% | 645.2hPa | 2.6V | 00:00:00 | 02:53:39 | 00:00:00 | |
| DO2SHX-10 | 2026-08-31 01:38:27 | 53.46136 | 11.41680 | 36° | 40km/h | 3759m | -9.6m/s | -1.5°C | 10.3% | 643.2hPa | 2.6V | 02:21:00 | 02:53:36 | 00:00:00 | |
| DB0DAN | 2026-08-31 01:38:25 | 53.46119 | 11.41663 | 33° | 38km/h | 3778m | -9.2m/s | -1.6°C | 10.1% | 641.76hPa | 2.6V | 00:00:00 | 00:00:00 | 00:00:00 | |
| DM0DOS-11 | 2026-08-31 01:38:25 | 53.46077 | 11.41615 | 37° | 40km/h | 3829m | -10.7m/s | -2°C | 16.3% | 637.8hPa | 2.6V | 02:21:46 | 02:53:29 | 00:00:00 | |
| DL1XH-15 | 2026-08-31 01:38:24 | 53.46069 | 11.41605 | 33° | 40km/h | 3839m | -10.6m/s | -2°C | 20.2% | 636.9hPa | 2.6V | 02:21:47 | 02:53:28 | 00:00:00 | |
| AA1-15 | 2026-08-31 01:38:24 | 53.46110 | 11.41654 | 32° | 40km/h | 3787m | -8.7m/s | -1.7°C | 11.3% | 641.1hPa | 2.5V | 02:21:51 | 02:53:33 | 00:00:00 | |
| DL1XH-west | 2026-08-31 01:38:21 | 53.46085 | 11.41625 | 39° | 42km/h | 3818m | -11.5m/s | -1.9°C | 16% | 638.7hPa | 2.6V | 02:21:51 | 02:53:30 | 00:00:00 | |
| DF8AY | 2026-08-31 01:38:19 | 53.46069 | 11.41605 | 34° | 40km/h | 3839m | -10.6m/s | -2°C | 23.6% | 636.9hPa | 2.6V | 02:21:51 | 02:53:28 | 00:00:00 | |
| DL1XH-15 | 2026-08-31 01:38:19 | 53.46026 | 11.41553 | 38° | 42km/h | 3885m | -9m/s | -2.2°C | 10.1% | 633.2hPa | 2.6V | 02:21:52 | 02:53:23 | 00:00:00 | |
| DO2SHX-10 | 2026-08-31 01:38:18 | 53.46060 | 11.41595 | 36° | 42km/h | 3849m | -10.5m/s | -2.0°C | 19.5% | 636.1hPa | 2.5V | 02:21:00 | 02:53:27 | 00:00:00 | |
| DM0DOS-11 | 2026-08-31 01:38:15 | 53.45992 | 11.41507 | 39° | 47km/h | 3918m | -10.3m/s | -2.2°C | 8.4% | 630.6hPa | 2.6V | 02:21:56 | 02:53:19 | 00:00:00 | |
| DO2SHX-10 | 2026-08-31 01:38:15 | 53.46034 | 11.41564 | 37° | 42km/h | 3876m | -9.7m/s | -2.1°C | 10.8% | 633.9hPa | 2.6V | 00:00:00 | 02:53:24 | 00:00:00 | |
| DL1XH1-15 | 2026-08-31 01:38:14 | 53.45983 | 11.41495 | 40° | 46km/h | 3928m | -10.3m/s | -2.2°C | 8.5% | 629.9hPa | 2.6V | 02:21:57 | 02:53:18 | 00:00:00 | |
| AA1-15 | 2026-08-31 01:38:13 | 53.46018 | 11.41543 | 42° | 42km/h | 3893m | -8.5m/s | -2.2°C | 10.1% | 632.5hPa | 2.6V | 02:22:42 | 02:53:22 | 00:00:00 | |
| DO2SHX-10 | 2026-08-31 01:38:12 | 53.46010 | 11.41531 | 38° | 46km/h | 3901m | -8.6m/s | -2.1°C | 9.2% | 631.7hPa | 2.6V | 00:00:00 | 02:53:21 | 00:00:00 | |
| DB0DAN | 2026-08-31 01:38:10 | 53.45992 | 11.41507 | 40° | 46km/h | 3918m | -10.3m/s | -2.2°C | 8.2% | 630.56hPa | 2.6V | 00:00:00 | 00:00:00 | 00:00:00 | |
| DL1XH-west | 2026-08-31 01:38:10 | 53.45992 | 11.41507 | 40° | 47km/h | 3918m | -10.3m/s | -2.2°C | 8.4% | 630.6hPa | 2.6V | 02:22:42 | 02:53:19 | 00:00:00 | |
| DM0DOS-11 | 2026-08-31 01:38:10 | 53.45948 | 11.41444 | 37° | 47km/h | 3967m | -10.8m/s | -2.5°C | 8.4% | 626.6hPa | 2.5V | 02:22:01 | 02:53:14 | 00:00:00 | |
| DF8AY | 2026-08-31 01:38:08 | 53.45975 | 11.41482 | 43° | 47km/h | 3938m | -10.7m/s | -2.3°C | 8.6% | 629hPa | 2.6V | 02:22:42 | 02:53:17 | 00:00:00 | |
| DO2SHX-10 | 2026-08-31 01:38:06 | 53.45957 | 11.41456 | 41° | 46km/h | 3957m | -10.6m/s | -2.3°C | 8.3% | 627.4hPa | 2.5V | 00:00:00 | 02:53:15 | 00:00:00 | |
| DM0DOS-11 | 2026-08-31 01:38:05 | 53.45903 | 11.41381 | 37° | 47km/h | 4021m | -10.8m/s | -2.7°C | 8.1% | 622.5hPa | 2.5V | 02:22:06 | 02:53:09 | 00:00:00 | |
| DL1XH1-15 | 2026-08-31 01:38:04 | 53.45894 | 11.41368 | 41° | 47km/h | 4032m | -11.7m/s | -2.8°C | 12.8% | 621.7hPa | 2.6V | 02:22:07 | 02:53:08 | 00:00:00 | |
| AA1-15 | 2026-08-31 01:38:02 | 53.45922 | 11.41408 | 42° | 47km/h | 3999m | -11.4m/s | -2.7°C | 8.6% | 624.2hPa | 2.6V | 02:22:42 | 02:53:11 | 00:00:00 | |
| DM0DOS-11 | 2026-08-31 01:38:00 | 53.45856 | 11.41314 | 40° | 47km/h | 4071m | -11.8m/s | -3°C | 18.7% | 618.7hPa | 2.5V | 02:22:11 | 02:53:04 | 00:00:00 | |
| DL1XH-west | 2026-08-31 01:37:59 | 53.45894 | 11.41368 | 42° | 47km/h | 4032m | -11.7m/s | -2.8°C | 14.5% | 621.8hPa | 2.6V | 02:22:42 | 02:53:08 | 00:00:00 | |
| DL1XH1-15 | 2026-08-31 01:37:59 | 53.45847 | 11.41302 | 36° | 49km/h | 4082m | -10.3m/s | -3.1°C | 19.1% | 617.9hPa | 2.5V | 02:22:12 | 02:53:03 | 00:00:00 | |
| DF8AY | 2026-08-31 01:37:57 | 53.45875 | 11.41341 | 40° | 51km/h | 4051m | -9.9m/s | -2.9°C | 20.9% | 620hPa | 2.6V | 02:22:42 | 02:53:06 | 00:00:00 | |
| SONDE2-11 | 2026-08-31 01:37:56 | 53.45856 | 11.41314 | 40° | 47km/h | 4071m | -11.8m/s | -3.1°C | 18.2% | 618.7hPa | 2.5V | 00:00:00 | 00:00:00 | 00:00:00 | |
| DB0DAN | 2026-08-31 01:37:55 | 53.45856 | 11.41314 | 41° | 46km/h | 4071m | -11.8m/s | -3.1°C | 18.2% | 618.7hPa | 2.5V | 00:00:00 | 00:00:00 | 00:00:00 | |
| DM0DOS-11 | 2026-08-31 01:37:55 | 53.45810 | 11.41247 | 45° | 47km/h | 4118m | -8m/s | -3.1°C | 7.9% | 614.8hPa | 2.6V | 02:22:16 | 02:52:59 | 00:00:00 | |
| DL1XH1-15 | 2026-08-31 01:37:54 | 53.45801 | 11.41233 | 44° | 47km/h | 4127m | -10.6m/s | -3°C | 7.9% | 614.2hPa | 2.5V | 02:22:17 | 02:52:58 | 00:00:00 | |
| AA1-15 | 2026-08-31 01:37:51 | 53.45818 | 11.41261 | 43° | 49km/h | 4111m | -8.8m/s | -3.1°C | 8% | 615.5hPa | 2.6V | 02:22:42 | 02:53:00 | 00:00:00 | |
| DO2SHX-10 | 2026-08-31 01:37:51 | 53.45818 | 11.41261 | 43° | 47km/h | 4111m | -8.7m/s | -3.0°C | 8.1% | 615.4hPa | 2.6V | 02:22:00 | 02:53:00 | 00:00:00 | |
| DL1XH1-15 | 2026-08-31 01:37:49 | 53.45760 | 11.41159 | 51° | 49km/h | 4176m | -10.8m/s | -3.3°C | 7.8% | 610.4hPa | 2.5V | 02:22:22 | 02:52:53 | 00:00:00 | |
| DL1XH-west | 2026-08-31 01:37:49 | 53.45793 | 11.41219 | 49° | 49km/h | 4137m | -11m/s | -3.1°C | 8% | 613.4hPa | 2.5V | 02:22:42 | 02:52:57 | 00:00:00 | |
| DL1XH-15 | 2026-08-31 01:37:49 | 53.45752 | 11.41143 | 48° | 49km/h | 4186m | -10.4m/s | -3.3°C | 7.5% | 609.7hPa | 2.5V | 02:22:23 | 02:52:52 | 00:00:00 | |
| DF8AY | 2026-08-31 01:37:47 | 53.45784 | 11.41204 | 47° | 49km/h | 4147m | -10.9m/s | -3.2°C | 8% | 612.6hPa | 2.6V | 02:22:42 | 02:52:56 | 00:00:00 | |
| DM0DOS-11 | 2026-08-31 01:37:45 | 53.45728 | 11.41097 | 49° | 47km/h | 4214m | -11.1m/s | -3.4°C | 7.1% | 607.3hPa | 2.6V | 02:22:26 | 02:52:49 | 00:00:00 | |
| DO2SHX-10 | 2026-08-31 01:37:45 | 53.45768 | 11.41174 | 48° | 49km/h | 4166m | -8.6m/s | -3.2°C | 7.9% | 611.0hPa | 2.6V | 00:00:00 | 02:52:54 | 00:00:00 | |
| DL1XH1-15 | 2026-08-31 01:37:44 | 53.45721 | 11.41082 | 51° | 44km/h | 4224m | -8.9m/s | -3.5°C | 7.3% | 606.6hPa | 2.6V | 02:22:27 | 02:52:48 | 00:00:00 | |
| DL1XH-15 | 2026-08-31 01:37:43 | 53.45714 | 11.41066 | 50° | 47km/h | 4233m | -11.2m/s | -3.5°C | 7.8% | 605.9hPa | 2.5V | 02:22:28 | 02:52:47 | 00:00:00 | |
| DO2SHX-10 | 2026-08-31 01:37:42 | 53.45744 | 11.41128 | 47° | 47km/h | 4195m | -9.4m/s | -3.3°C | 6.9% | 608.9hPa | 2.6V | 02:22:00 | 02:52:51 | 00:00:00 | |
| DB0DAN | 2026-08-31 01:37:40 | 53.45728 | 11.41097 | 50° | 46km/h | 4214m | -11.1m/s | -3.4°C | 6.9% | 607.33hPa | 2.6V | 00:00:00 | 00:00:00 | 00:00:00 | |
| AA1-15 | 2026-08-31 01:37:40 | 53.45728 | 11.41097 | 50° | 47km/h | 4215m | -11.1m/s | -3.4°C | 6.9% | 607.3hPa | 2.6V | 02:22:42 | 02:52:49 | 00:00:00 | |
| DM0DOS-11 | 2026-08-31 01:37:40 | 53.45691 | 11.41022 | 48° | 46km/h | 4266m | -9.6m/s | -3.6°C | 10.7% | 603.4hPa | 2.6V | 02:22:31 | 02:52:44 | 00:00:00 | |
| DO2SHX-10 | 2026-08-31 01:37:39 | 53.45721 | 11.41082 | 52° | 46km/h | 4224m | -8.9m/s | -3.4°C | 7.3% | 606.5hPa | 2.5V | 00:00:00 | 02:52:48 | 00:00:00 | |
| DL1XH-15 | 2026-08-31 01:37:38 | 53.45670 | 11.40976 | 51° | 47km/h | 4298m | -11.4m/s | -3.9°C | 12.6% | 601.1hPa | 2.5V | 02:22:34 | 02:52:41 | 00:00:00 | |
| DF8AY | 2026-08-31 01:37:37 | 53.45706 | 11.41051 | 52° | 46km/h | 4244m | -11.5m/s | -3.5°C | 9.9% | 605.1hPa | 2.5V | 02:22:42 | 02:52:46 | 00:00:00 | |
| DO2SHX-10 | 2026-08-31 01:37:36 | 53.45699 | 11.41036 | 47° | 47km/h | 4256m | -11.3m/s | -3.5°C | 8.5% | 604.3hPa | 2.6V | 00:00:00 | 02:52:45 | 00:00:00 | |
| DM0DOS-11 | 2026-08-31 01:37:35 | 53.45654 | 11.40946 | 51° | 47km/h | 4319m | -9.9m/s | -4°C | 11.2% | 599.5hPa | 2.6V | 02:22:36 | 02:52:39 | 00:00:00 | |
| DL1XH1-15 | 2026-08-31 01:37:34 | 53.45647 | 11.40930 | 52° | 49km/h | 4328m | -8.7m/s | -4.1°C | 9% | 598.8hPa | 2.6V | 02:22:37 | 02:52:38 | 00:00:00 | |
| BIOWL9-15 | 2026-08-31 01:37:33 | 53.45669 | 11.40976 | 51° | 47km/h | 4298m | -11.5m/s | -3.9°C | -1.0% | -1.0hPa | 2.6V | 00:00:00 | 00:00:00 | 00:00:00 | |
| DL1XH-15 | 2026-08-31 01:37:32 | 53.45633 | 11.40899 | 51° | 47km/h | 4346m | -9.9m/s | -4.2°C | 9% | 597.3hPa | 2.6V | 02:22:39 | 02:52:36 | 00:00:00 | |
| DM0DOS-11 | 2026-08-31 01:37:30 | 53.45618 | 11.40869 | 46° | 46km/h | 4367m | -11.1m/s | -4.4°C | 8.2% | 596hPa | 2.5V | 02:22:41 | 02:52:34 | 00:00:00 | |
| AA1-15 | 2026-08-31 01:37:29 | 53.45647 | 11.40930 | 53° | 49km/h | 4328m | -8.7m/s | -4.1°C | 9.7% | 598.8hPa | 2.6V | 02:22:42 | 02:52:38 | 00:00:00 | |
| DL1XH1-15 | 2026-08-31 01:37:29 | 53.45610 | 11.40854 | 48° | 46km/h | 4377m | -10m/s | -4.5°C | 9.1% | 595.2hPa | 2.5V | 02:22:42 | 02:52:33 | 00:00:00 | |
| DL1XH-15 | 2026-08-31 01:37:27 | 53.45595 | 11.40825 | 46° | 47km/h | 4397m | -11m/s | -4.7°C | 10.5% | 593.6hPa | 2.6V | 02:22:44 | 02:52:31 | 00:00:00 | |
| DF8AY | 2026-08-31 01:37:26 | 53.45626 | 11.40883 | 50° | 46km/h | 4356m | -11.1m/s | -4.3°C | 7.8% | 596.6hPa | 2.5V | 02:22:42 | 02:52:35 | 00:00:00 | |
| DB0DAN | 2026-08-31 01:37:25 | 53.45618 | 11.40869 | 47° | 44km/h | 4367m | -11.1m/s | -4.4°C | 7.9% | 595.95hPa | 2.5V | 00:00:00 | 00:00:00 | 00:00:00 | |
| SONDE2-11 | 2026-08-31 01:37:25 | 53.45610 | 11.40854 | 48° | 46km/h | 4377m | -10.0m/s | -4.5°C | 8.8% | 595.2hPa | 2.6V | 00:00:00 | 00:00:00 | 00:00:00 | |
| DL1XH1-15 | 2026-08-31 01:37:24 | 53.45572 | 11.40781 | 50° | 49km/h | 4426m | -10.7m/s | -4.9°C | 12% | 591.4hPa | 2.6V | 02:22:47 | 02:52:28 | 00:00:00 | |
| DO2SHX-10 | 2026-08-31 01:37:24 | 53.45610 | 11.40854 | 49° | 46km/h | 4378m | -10.0m/s | -4.5°C | 9.1% | 595.1hPa | 2.5V | 02:22:00 | 02:52:33 | 00:00:00 | |
| DL1XH-15 | 2026-08-31 01:37:22 | 53.45557 | 11.40751 | 50° | 47km/h | 4447m | -10.4m/s | -5.1°C | 13.4% | 589.9hPa | 2.5V | 02:22:49 | 02:52:26 | 00:00:00 | |
| DO2SHX-10 | 2026-08-31 01:37:21 | 53.45587 | 11.40811 | 50° | 47km/h | 4408m | -9.6m/s | -4.7°C | 10.8% | 592.8hPa | 2.6V | 00:00:00 | 02:52:30 | 00:00:00 | |
| DM0DOS-11 | 2026-08-31 01:37:20 | 53.45542 | 11.40720 | 51° | 46km/h | 4465m | -9.6m/s | -5.3°C | 15.1% | 588.4hPa | 2.6V | 02:22:51 | 02:52:24 | 00:00:00 | |
| DL1XH1-15 | 2026-08-31 01:37:19 | 53.45535 | 11.40705 | 48° | 47km/h | 4474m | -9.6m/s | -5.4°C | 15.2% | 587.7hPa | 2.6V | 02:22:52 | 02:52:23 | 00:00:00 | |
| AA1-15 | 2026-08-31 01:37:18 | 53.45564 | 11.40765 | 51° | 46km/h | 4437m | -10.3m/s | -5°C | 15.1% | 590.5hPa | 2.5V | 02:23:33 | 02:52:27 | 00:00:00 | |
| DF8AY | 2026-08-31 01:37:16 | 53.45549 | 11.40735 | 51° | 46km/h | 4456m | -10.2m/s | -5.2°C | 16.6% | 589hPa | 2.5V | 02:23:33 | 02:52:25 | 00:00:00 | |
| DL1XH-west | 2026-08-31 01:37:15 | 53.45542 | 11.40720 | 52° | 46km/h | 4465m | -9.6m/s | -5.3°C | 17.6% | 588.4hPa | 2.6V | 02:23:33 | 02:52:24 | 00:00:00 | |
| DO2SHX-10 | 2026-08-31 01:37:15 | 53.45542 | 11.40720 | 52° | 47km/h | 4465m | -9.5m/s | -5.3°C | 15.1% | 588.4hPa | 2.6V | 02:22:00 | 02:52:24 | 00:00:00 | |
| DL1XH1-15 | 2026-08-31 01:37:14 | 53.45498 | 11.40627 | 52° | 44km/h | 4523m | -9.6m/s | -5.9°C | 17.6% | 584.2hPa | 2.5V | 02:22:57 | 02:52:18 | 00:00:00 | |
| S3001 | 2026-08-31 01:37:13 | 53.45527 | 11.40690 | 51° | 47km/h | 4483m | -8.3m/s | -5.5°C | 16.0% | 587.0hPa | 2.6V | 00:00:00 | 00:00:00 | 00:00:00 | |
| DL1XH-15 | 2026-08-31 01:37:12 | 53.45483 | 11.40595 | 51° | 49km/h | 4543m | -11.2m/s | -6°C | 17.7% | 582.6hPa | 2.6V | 02:22:59 | 02:52:16 | 00:00:00 | |
| DO2SHX-10 | 2026-08-31 01:37:12 | 53.45520 | 11.40674 | 53° | 47km/h | 4492m | -11.3m/s | -5.5°C | 17.4% | 586.4hPa | 2.5V | 00:00:00 | 02:52:21 | 00:00:00 | |
| DB0DAN | 2026-08-31 01:37:10 | 53.45505 | 11.40643 | 51° | 47km/h | 4514m | -10.5m/s | -5.8°C | 17.2% | 584.99hPa | 2.5V | 00:00:00 | 00:00:00 | 00:00:00 | |
| DM0DOS-11 | 2026-08-31 01:37:10 | 53.45469 | 11.40561 | 54° | 53km/h | 4565m | -10.7m/s | -6.2°C | 19.6% | 581hPa | 2.6V | 02:23:01 | 02:52:14 | 00:00:00 | |
| DL1XH1-15 | 2026-08-31 01:37:09 | 53.45462 | 11.40543 | 55° | 49km/h | 4575m | -10.4m/s | -6.2°C | 19% | 580.2hPa | 2.6V | 02:23:02 | 02:52:13 | 00:00:00 | |
| AA1-15 | 2026-08-31 01:37:07 | 53.45483 | 11.40595 | 52° | 49km/h | 4543m | -11.2m/s | -6°C | 20.9% | 582.6hPa | 2.6V | 02:23:33 | 02:52:16 | 00:00:00 | |
| DL1XH-15 | 2026-08-31 01:37:07 | 53.45448 | 11.40509 | 51° | 51km/h | 4595m | -10.2m/s | -6.3°C | 18% | 578.9hPa | 2.5V | 02:23:04 | 02:52:11 | 00:00:00 | |
| DF8AY | 2026-08-31 01:37:05 | 53.45469 | 11.40561 | 54° | 53km/h | 4565m | -10.7m/s | -6.2°C | 23% | 581hPa | 2.6V | 02:23:33 | 02:52:14 | 00:00:00 | |
| DL1XH-west | 2026-08-31 01:37:04 | 53.45462 | 11.40543 | 55° | 49km/h | 4575m | -10.4m/s | -6.2°C | 22.3% | 580.3hPa | 2.6V | 02:23:33 | 02:52:13 | 00:00:00 | |
| DO2SHX-10 | 2026-08-31 01:37:03 | 53.45455 | 11.40526 | 58° | 49km/h | 4585m | -9.6m/s | -6.1°C | 18.1% | 579.5hPa | 2.5V | 00:00:00 | 02:52:12 | 00:00:00 | |
| DL1XH-15 | 2026-08-31 01:37:02 | 53.45413 | 11.40422 | 54° | 51km/h | 4645m | -9.5m/s | -6.6°C | 18.6% | 575hPa | 2.5V | 02:23:09 | 02:52:06 | 00:00:00 | |
| DJ2DS-15 | 2026-08-31 01:37:01 | 53.45441 | 11.40492 | 58° | 49km/h | 4605m | -10.7m/s | -6.3°C | 17.3% | 578.1hPa | 2.5V | 00:00:00 | 00:00:00 | 00:00:00 | |
| DM0DOS-11 | 2026-08-31 01:37:00 | 53.45400 | 11.40389 | 54° | 46km/h | 4667m | -11.6m/s | -6.8°C | 18.9% | 573.6hPa | 2.5V | 02:23:11 | 02:52:04 | 00:00:00 | |
| DO2SHX-10 | 2026-08-31 01:37:00 | 53.45434 | 11.40474 | 56° | 49km/h | 4616m | -10.5m/s | -6.4°C | 18.0% | 577.3hPa | 2.6V | 00:00:00 | 02:52:09 | 00:00:00 | |
| DL1XH1-15 | 2026-08-31 01:36:59 | 53.45393 | 11.40372 | 59° | 46km/h | 4678m | -11.3m/s | -6.9°C | 19.1% | 572.7hPa | 2.6V | 02:23:12 | 02:52:03 | 00:00:00 | |
| DF8AY-15 | 2026-08-31 01:36:58 | 53.45420 | 11.40439 | 56° | 49km/h | 4636m | -11.0m/s | -6.5°C | 18.2% | 575.8hPa | 2.6V | 02:23:00 | 02:52:07 | 00:00:00 | |
| DL1XH-15 | 2026-08-31 01:36:57 | 53.45380 | 11.40340 | 54° | 46km/h | 4700m | -9.7m/s | -7°C | 19.6% | 571hPa | 2.6V | 02:23:14 | 02:52:01 | 00:00:00 | |
| AA1-15 | 2026-08-31 01:36:56 | 53.45407 | 11.40406 | 58° | 49km/h | 4656m | -12.3m/s | -6.7°C | 22.4% | 574.4hPa | 2.5V | 02:23:33 | 02:52:05 | 00:00:00 | |
| DF8AY | 2026-08-31 01:36:56 | 53.45400 | 11.40389 | 55° | 46km/h | 4667m | -11.6m/s | -6.8°C | 22.5% | 573.6hPa | 2.5V | 02:23:33 | 02:52:04 | 00:00:00 | |
| DB0DAN | 2026-08-31 01:36:55 | 53.45400 | 11.40389 | 55° | 44km/h | 4667m | -11.6m/s | -6.8°C | 18.3% | 573.56hPa | 2.5V | 00:00:00 | 00:00:00 | 00:00:00 | |
| DL1XH-west | 2026-08-31 01:36:54 | 53.45394 | 11.40372 | 60° | 46km/h | 4678m | -11.3m/s | -6.9°C | 22.8% | 572.7hPa | 2.6V | 02:23:33 | 02:52:03 | 00:00:00 | |
| SONDE2-11 | 2026-08-31 01:36:54 | 53.45387 | 11.40356 | 56° | 47km/h | 4689m | -11.5m/s | -7.0°C | 18.8% | 571.9hPa | 2.6V | 00:00:00 | 00:00:00 | 00:00:00 | |
| DL1XH-15 | 2026-08-31 01:36:52 | 53.45349 | 11.40253 | 62° | 49km/h | 4750m | -9.7m/s | -7.3°C | 14.4% | 567.4hPa | 2.6V | 02:23:19 | 02:51:56 | 00:00:00 | |
| DO2SHX-10 | 2026-08-31 01:36:51 | 53.45374 | 11.40323 | 60° | 49km/h | 4710m | -10.4m/s | -7.0°C | 19.1% | 570.4hPa | 2.5V | 00:00:00 | 02:52:00 | 00:00:00 | |
| DM0DOS-11 | 2026-08-31 01:36:50 | 53.45337 | 11.40217 | 59° | 49km/h | 4770m | -10.1m/s | -7.5°C | 15.9% | 565.9hPa | 2.5V | 02:23:21 | 02:51:54 | 00:00:00 | |
| SMARD9-15 | 2026-08-31 01:36:50 | 53.45361 | 11.40289 | 62° | 47km/h | 4730m | -10.7m/s | -7.2°C | 16.0% | 568.8hPa | 2.5V | 00:00:00 | 00:00:00 | 00:00:00 | |
| DL1XH1-15 | 2026-08-31 01:36:49 | 53.45331 | 11.40199 | 58° | 51km/h | 4779m | -9.6m/s | -7.5°C | 16.4% | 565.4hPa | 2.5V | 02:23:22 | 02:51:53 | 00:00:00 | |
| DO2SHX-10 | 2026-08-31 01:36:48 | 53.45355 | 11.40271 | 61° | 49km/h | 4741m | -10.1m/s | -7.2°C | 15.2% | 568.0hPa | 2.6V | 02:23:00 | 02:51:57 | 00:00:00 | |
| DL1XH-15 | 2026-08-31 01:36:47 | 53.45318 | 11.40163 | 56° | 49km/h | 4797m | -9.4m/s | -7.6°C | 15.6% | 563.8hPa | 2.6V | 02:23:24 | 02:51:51 | 00:00:00 | |
| AA1-15 | 2026-08-31 01:36:45 | 53.45337 | 11.40217 | 60° | 49km/h | 4770m | -10.1m/s | -7.5°C | 18.8% | 565.9hPa | 2.5V | 02:23:33 | 02:51:54 | 00:00:00 | |
| DF8AY | 2026-08-31 01:36:44 | 53.45331 | 11.40199 | 58° | 51km/h | 4779m | -9.6m/s | -7.5°C | 19.3% | 565.4hPa | 2.5V | 02:23:33 | 02:51:53 | 00:00:00 | |
| DL1XH1-15 | 2026-08-31 01:36:44 | 53.45298 | 11.40109 | 58° | 55km/h | 4826m | -11.3m/s | -7.8°C | 15% | 562.1hPa | 2.5V | 02:23:27 | 02:51:48 | 00:00:00 | |
| DL1XH-west | 2026-08-31 01:36:43 | 53.45325 | 11.40181 | 61° | 51km/h | 4788m | -8.9m/s | -7.6°C | 18.6% | 564.6hPa | 2.6V | 02:23:33 | 02:51:52 | 00:00:00 | |
| DL1XH-15 | 2026-08-31 01:36:42 | 53.45285 | 11.40072 | 60° | 53km/h | 4846m | -10.1m/s | -7.9°C | 15.6% | 560.4hPa | 2.6V | 02:23:29 | 02:51:46 | 00:00:00 | |
| DO2SHX-10 | 2026-08-31 01:36:42 | 53.45318 | 11.40163 | 57° | 49km/h | 4797m | -9.4m/s | -7.6°C | 15.6% | 563.8hPa | 2.5V | 00:00:00 | 02:51:51 | 00:00:00 | |
| DB0DAN | 2026-08-31 01:36:40 | 53.45305 | 11.40127 | 56° | 46km/h | 4815m | -9.9m/s | -7.7°C | 14.7% | 562.8hPa | 2.5V | 00:00:00 | 00:00:00 | 00:00:00 | |
| DM0DOS-11 | 2026-08-31 01:36:40 | 53.45271 | 11.40034 | 59° | 49km/h | 4865m | -9.8m/s | -8.1°C | 17.3% | 559hPa | 2.5V | 02:23:31 | 02:51:44 | 00:00:00 | |
| DL1XH1-15 | 2026-08-31 01:36:39 | 53.45264 | 11.40016 | 56° | 49km/h | 4876m | -11.3m/s | -8.2°C | 18.1% | 558.3hPa | 2.5V | 02:23:32 | 02:51:43 | 00:00:00 | |
| DO2SHX-10 | 2026-08-31 01:36:39 | 53.45298 | 11.40109 | 59° | 53km/h | 4826m | -11.2m/s | -7.7°C | 15.0% | 562.1hPa | 2.5V | 02:23:00 | 02:51:48 | 00:00:00 | |
| DF8AY-15 | 2026-08-31 01:36:38 | 53.45291 | 11.40090 | 60° | 53km/h | 4836m | -10.7m/s | -7.8°C | 15.3% | 561.2hPa | 2.6V | 00:00:00 | 02:51:47 | 00:00:00 | |
| DL1XH-15 | 2026-08-31 01:36:37 | 53.45251 | 11.39980 | 53° | 49km/h | 4896m | -10.4m/s | -8.4°C | 20.5% | 556.9hPa | 2.6V | 02:23:34 | 02:51:41 | 00:00:00 | |
| DO2SHX-10 | 2026-08-31 01:36:36 | 53.45278 | 11.40053 | 57° | 51km/h | 4856m | -10.1m/s | -8.0°C | 15.8% | 559.7hPa | 2.5V | 00:00:00 | 02:51:45 | 00:00:00 | |
| DM0DOS-11 | 2026-08-31 01:36:35 | 53.45238 | 11.39942 | 58° | 49km/h | 4917m | -10m/s | -8.6°C | 21.3% | 555.2hPa | 2.5V | 02:23:36 | 02:51:39 | 00:00:00 | |
| AA1-15 | 2026-08-31 01:36:35 | 53.45271 | 11.40034 | 60° | 49km/h | 4866m | -9.8m/s | -8.1°C | 20.7% | 559hPa | 2.5V | 02:23:33 | 02:51:44 | 00:00:00 | |
| DF8AY | 2026-08-31 01:36:34 | 53.45265 | 11.40016 | 57° | 49km/h | 4876m | -11.3m/s | -8.2°C | 21.8% | 558.3hPa | 2.5V | 02:23:33 | 02:51:43 | 00:00:00 | |
| DL1XH-west | 2026-08-31 01:36:33 | 53.45258 | 11.39998 | 61° | 51km/h | 4886m | -10.6m/s | -8.3°C | 23% | 557.6hPa | 2.6V | 02:23:33 | 02:51:42 | 00:00:00 | |
| DO2SHX-10 | 2026-08-31 01:36:33 | 53.45258 | 11.39998 | 61° | 53km/h | 4886m | -10.5m/s | -8.2°C | 19.1% | 557.6hPa | 2.6V | 00:00:00 | 02:51:42 | 00:00:00 | |
| DL1XH-15 | 2026-08-31 01:36:32 | 53.45218 | 11.39885 | 60° | 53km/h | 4950m | -10.1m/s | -8.8°C | 21.7% | 553.1hPa | 2.6V | 02:23:39 | 02:51:36 | 00:00:00 | |
| DM0DOS-11 | 2026-08-31 01:36:30 | 53.45205 | 11.39847 | 56° | 51km/h | 4970m | -10.1m/s | -9°C | 22.5% | 551.9hPa | 2.5V | 02:23:41 | 02:51:34 | 00:00:00 | |
| DO2SHX-10 | 2026-08-31 01:36:30 | 53.45238 | 11.39942 | 59° | 53km/h | 4918m | -9.9m/s | -8.5°C | 21.3% | 555.2hPa | 2.5V | 02:23:00 | 02:51:39 | 00:00:00 | |
| DL1XH1-15 | 2026-08-31 01:36:29 | 53.45198 | 11.39829 | 56° | 53km/h | 4980m | -8.5m/s | -9.1°C | 22.9% | 551.1hPa | 2.5V | 02:23:42 | 02:51:33 | 00:00:00 | |
| DL1XH-15 | 2026-08-31 01:36:27 | 53.45184 | 11.39791 | 56° | 53km/h | 4997m | -8.2m/s | -9.3°C | 23.3% | 549.8hPa | 2.6V | 02:23:44 | 02:51:31 | 00:00:00 | |
| DO2SHX-10 | 2026-08-31 01:36:27 | 53.45218 | 11.39885 | 61° | 53km/h | 4950m | -10.0m/s | -8.8°C | 21.7% | 553.1hPa | 2.5V | 00:00:00 | 02:51:36 | 00:00:00 | |
| DB0DAN | 2026-08-31 01:36:25 | 53.45204 | 11.39847 | 57° | 49km/h | 4970m | -10.1m/s | -9°C | 21.7% | 551.86hPa | 2.5V | 00:00:00 | 00:00:00 | 00:00:00 | |
| DM0DOS-11 | 2026-08-31 01:36:25 | 53.45170 | 11.39754 | 58° | 53km/h | 5015m | -10.4m/s | -9.5°C | 23.4% | 548.5hPa | 2.5V | 02:23:46 | 02:51:29 | 00:00:00 | |
| AA1-15 | 2026-08-31 01:36:24 | 53.45198 | 11.39829 | 57° | 53km/h | 4980m | -8.5m/s | -9.1°C | 27.1% | 551.1hPa | 2.5V | 02:24:24 | 02:51:33 | 00:00:00 | |
| DL1XH-west | 2026-08-31 01:36:22 | 53.45184 | 11.39791 | 57° | 53km/h | 4997m | -8.2m/s | -9.3°C | 27.6% | 549.8hPa | 2.6V | 02:24:24 | 02:51:31 | 00:00:00 | |
| DO2SHX-10 | 2026-08-31 01:36:21 | 53.45177 | 11.39773 | 58° | 53km/h | 5005m | -9.3m/s | -9.3°C | 23.3% | 549.0hPa | 2.6V | 02:23:00 | 02:51:30 | 00:00:00 | |
| DL1XH1-15 | 2026-08-31 01:36:20 | 53.45163 | 11.39735 | 61° | 53km/h | 5024m | -9.4m/s | -9.6°C | 23.8% | 547.8hPa | 2.5V | 02:23:47 | 02:51:28 | 00:00:00 | |
| SMARD9-15 | 2026-08-31 01:36:19 | 53.45157 | 11.39716 | 58° | 53km/h | 5033m | -9.6m/s | -9.7°C | 23.1% | 547.0hPa | 2.5V | 00:00:00 | 00:00:00 | 00:00:00 | |
| DO2SHX-10 | 2026-08-31 01:36:18 | 53.45157 | 11.39716 | 59° | 53km/h | 5034m | -9.5m/s | -9.6°C | 24.0% | 547.0hPa | 2.5V | 00:00:00 | 02:51:27 | 00:00:00 | |
| DM0DOS-11 | 2026-08-31 01:36:15 | 53.45102 | 11.39559 | 60° | 57km/h | 5102m | -9.6m/s | -10.2°C | 23.6% | 542.4hPa | 2.5V | 02:23:56 | 02:51:19 | 00:00:00 | |
| AA1-15 | 2026-08-31 01:36:13 | 53.45123 | 11.39618 | 58° | 55km/h | 5077m | -7.9m/s | -10°C | 28% | 544.1hPa | 2.6V | 02:24:24 | 02:51:22 | 00:00:00 | |
| DL1XH-west | 2026-08-31 01:36:12 | 53.45116 | 11.39599 | 60° | 57km/h | 5085m | -8.1m/s | -10°C | 28% | 543.5hPa | 2.6V | 02:24:24 | 02:51:21 | 00:00:00 | |
| DO2SHX-10 | 2026-08-31 01:36:12 | 53.45116 | 11.39599 | 60° | 57km/h | 5085m | -8.0m/s | -10.0°C | 23.8% | 543.5hPa | 2.6V | 02:23:00 | 02:51:21 | 00:00:00 | |
| DB0DAN | 2026-08-31 01:36:10 | 53.45102 | 11.39558 | 60° | 53km/h | 5102m | -9.6m/s | -10.2°C | 22.8% | 542.42hPa | 2.5V | 00:00:00 | 00:00:00 | 00:00:00 | |
| DL1XH1-15 | 2026-08-31 01:36:10 | 53.45095 | 11.39539 | 59° | 53km/h | 5111m | -8.8m/s | -10.2°C | 23.6% | 541.6hPa | 2.5V | 02:23:57 | 02:51:18 | 00:00:00 | |
| DO2SHX-10 | 2026-08-31 01:36:09 | 53.45095 | 11.39538 | 60° | 57km/h | 5111m | -8.8m/s | -10.2°C | 23.6% | 541.5hPa | 2.6V | 00:00:00 | 02:51:18 | 00:00:00 | |
| DO2SHX-10 | 2026-08-31 01:36:06 | 53.45075 | 11.39477 | 61° | 57km/h | 5131m | -7.4m/s | -10.3°C | 23.8% | 540.0hPa | 2.6V | 00:00:00 | 02:51:15 | 00:00:00 | |
| DM0DOS-11 | 2026-08-31 01:36:05 | 53.45032 | 11.39352 | 57° | 55km/h | 5185m | -9.6m/s | -10.7°C | 23.2% | 536.2hPa | 2.6V | 02:24:06 | 02:51:09 | 00:00:00 | |
| AA1-15 | 2026-08-31 01:36:02 | 53.45046 | 11.39394 | 63° | 58km/h | 5166m | -9.9m/s | -10.5°C | 27.2% | 537.6hPa | 2.6V | 02:24:24 | 02:51:11 | 00:00:00 | |
| DL1XH-west | 2026-08-31 01:36:01 | 53.45039 | 11.39372 | 59° | 58km/h | 5176m | -10m/s | -10.6°C | 27.4% | 537hPa | 2.6V | 02:24:24 | 02:51:10 | 00:00:00 | |
| DK1YY | 2026-08-31 01:36:01 | 53.45039 | 11.39372 | 58° | 57km/h | 5176m | -10.0m/s | -10.6°C | 22.3% | 537.0hPa | 2.5V | 00:00:00 | 00:00:00 | 00:00:00 | |
| DL1XH1-15 | 2026-08-31 01:36:00 | 53.45024 | 11.39332 | 61° | 55km/h | 5194m | -8.7m/s | -10.8°C | 23.5% | 535.6hPa | 2.5V | 02:24:07 | 02:51:08 | 00:00:00 | |
| DO2SHX-10 | 2026-08-31 01:36:00 | 53.45032 | 11.39352 | 58° | 57km/h | 5185m | -9.6m/s | -10.6°C | 23.2% | 536.2hPa | 2.5V | 00:00:00 | 02:51:09 | 00:00:00 | |
| DF8AY-15 | 2026-08-31 01:35:58 | 53.45018 | 11.39311 | 63° | 57km/h | 5202m | -9.2m/s | -10.8°C | 24.4% | 534.9hPa | 2.5V | 02:24:00 | 02:51:07 | 00:00:00 | |
| DO2SHX-10 | 2026-08-31 01:35:57 | 53.45011 | 11.39290 | 61° | 57km/h | 5211m | -9.2m/s | -10.9°C | 25.3% | 534.3hPa | 2.6V | 00:00:00 | 02:51:06 | 00:00:00 | |
| DB0DAN | 2026-08-31 01:35:55 | 53.44997 | 11.39249 | 63° | 57km/h | 5229m | -10.2m/s | -11.1°C | 25.9% | 533.23hPa | 2.6V | 00:00:00 | 00:00:00 | 00:00:00 | |
| DM0DOS-11 | 2026-08-31 01:35:55 | 53.44963 | 11.39146 | 60° | 57km/h | 5276m | -9.1m/s | -11.5°C | 33.3% | 529.9hPa | 2.6V | 02:24:16 | 02:50:59 | 00:00:00 | |
| DF8AY | 2026-08-31 01:35:52 | 53.44977 | 11.39188 | 63° | 55km/h | 5258m | -9.5m/s | -11.4°C | 35.2% | 531.2hPa | 2.5V | 02:24:24 | 02:51:01 | 00:00:00 | |
| AA1-15 | 2026-08-31 01:35:51 | 53.44970 | 11.39167 | 63° | 58km/h | 5267m | -9.2m/s | -11.4°C | 36.9% | 530.6hPa | 2.6V | 02:24:24 | 02:51:00 | 00:00:00 | |
| DO2SHX-10 | 2026-08-31 01:35:51 | 53.44970 | 11.39167 | 64° | 57km/h | 5267m | -9.1m/s | -11.4°C | 31.9% | 530.5hPa | 2.6V | 00:00:00 | 02:51:00 | 00:00:00 | |
| DL1XH1-15 | 2026-08-31 01:35:50 | 53.44957 | 11.39126 | 60° | 55km/h | 5285m | -9.6m/s | -11.6°C | 32.1% | 529.3hPa | 2.6V | 02:24:17 | 02:50:58 | 00:00:00 | |
| DJ2DS-15 | 2026-08-31 01:35:49 | 53.44950 | 11.39105 | 62° | 55km/h | 5295m | -9.5m/s | -11.7°C | 28.3% | 528.8hPa | 2.5V | 00:00:00 | 00:00:00 | 00:00:00 | |
| SMARD9-15 | 2026-08-31 01:35:48 | 53.44944 | 11.39084 | 63° | 57km/h | 5304m | -9.2m/s | -11.7°C | 26.1% | 528.2hPa | 2.5V | 00:00:00 | 00:00:00 | 00:00:00 | |
| AM1SDL-15 | 2026-08-31 01:35:46 | 53.44937 | 11.39062 | 64° | 58km/h | 5313m | -10.3m/s | -11.8°C | 27.4% | 527.4hPa | 2.5V | 02:24:00 | 02:50:55 | 00:00:00 | |
| DM0DOS-11 | 2026-08-31 01:35:45 | 53.44896 | 11.38932 | 60° | 58km/h | 5365m | -7.9m/s | -12.2°C | 27.4% | 523.8hPa | 2.5V | 02:24:26 | 02:50:49 | 00:00:00 | |
| DO2SHX-10 | 2026-08-31 01:35:45 | 53.44930 | 11.39041 | 63° | 57km/h | 5323m | -10.1m/s | -11.8°C | 27.9% | 526.8hPa | 2.5V | 02:24:00 | 02:50:54 | 00:00:00 | |
| DL1XH-15 | 2026-08-31 01:35:42 | 53.44874 | 11.38866 | 61° | 60km/h | 5390m | -8.4m/s | -12.5°C | 27.5% | 522.1hPa | 2.6V | 02:24:29 | 02:50:46 | 00:00:00 | |
| DF8AY | 2026-08-31 01:35:42 | 53.44910 | 11.38976 | 61° | 60km/h | 5350m | -6.8m/s | -12.1°C | 31.7% | 524.8hPa | 2.6V | 02:24:24 | 02:50:51 | 00:00:00 | |
| AA1-15 | 2026-08-31 01:35:41 | 53.44903 | 11.38954 | 61° | 62km/h | 5357m | -7.3m/s | -12.2°C | 31.6% | 524.4hPa | 2.6V | 02:25:15 | 02:50:50 | 00:00:00 | |
| DL1XH-west | 2026-08-31 01:35:40 | 53.44896 | 11.38932 | 61° | 58km/h | 5365m | -7.9m/s | -12.2°C | 31.6% | 523.8hPa | 2.5V | 02:25:15 | 02:50:49 | 00:00:00 | |
| DB0DAN | 2026-08-31 01:35:40 | 53.44896 | 11.38932 | 61° | 55km/h | 5365m | -7.9m/s | -12.2°C | 26.4% | 523.8hPa | 2.5V | 00:00:00 | 00:00:00 | 00:00:00 | |
| DL1XH1-15 | 2026-08-31 01:35:40 | 53.44889 | 11.38910 | 62° | 60km/h | 5373m | -9.3m/s | -12.3°C | 27.5% | 523.3hPa | 2.5V | 02:24:27 | 02:50:48 | 00:00:00 | |
| S3001 | 2026-08-31 01:35:40 | 53.44896 | 11.38932 | 60° | 57km/h | 5365m | -7.9m/s | -12.2°C | 26.4% | 523.8hPa | 2.6V | 00:00:00 | 00:00:00 | 00:00:00 | |
| DO2SHX-10 | 2026-08-31 01:35:39 | 53.44888 | 11.38910 | 63° | 60km/h | 5373m | -9.2m/s | -12.3°C | 27.5% | 523.2hPa | 2.6V | 00:00:00 | 02:50:48 | 00:00:00 | |
| DC4HF-4 | 2026-08-31 01:35:37 | 53.44874 | 11.38866 | 61° | 60km/h | 5390m | -8.4m/s | -12.5°C | 26.5% | 522.1hPa | 2.6V | 00:00:00 | 00:00:00 | 00:00:00 | |
| DO2SHX-10 | 2026-08-31 01:35:36 | 53.44866 | 11.38844 | 61° | 60km/h | 5399m | -9.4m/s | -12.5°C | 27.4% | 521.5hPa | 2.6V | 02:24:00 | 02:50:45 | 00:00:00 | |
| DM0DOS-11 | 2026-08-31 01:35:35 | 53.44821 | 11.38707 | 57° | 68km/h | 5458m | -9.3m/s | -12.9°C | 27.8% | 517.8hPa | 2.6V | 02:24:36 | 02:50:39 | 00:00:00 | |
| DF8AY | 2026-08-31 01:35:31 | 53.44829 | 11.38730 | 61° | 64km/h | 5448m | -9.9m/s | -12.9°C | 31.7% | 518.4hPa | 2.5V | 02:25:15 | 02:50:40 | 00:00:00 | |
| DL1XH1-15 | 2026-08-31 01:35:30 | 53.44812 | 11.38683 | 58° | 66km/h | 5466m | -7.7m/s | -13°C | 28.8% | 517.2hPa | 2.6V | 02:24:37 | 02:50:38 | 00:00:00 | |
| DL1XH-west | 2026-08-31 01:35:30 | 53.44821 | 11.38707 | 58° | 68km/h | 5458m | -9.3m/s | -13°C | 32.1% | 517.8hPa | 2.6V | 02:25:15 | 02:50:39 | 00:00:00 | |
| DO2SHX-10 | 2026-08-31 01:35:30 | 53.44821 | 11.38706 | 58° | 64km/h | 5458m | -9.2m/s | -12.9°C | 27.8% | 517.7hPa | 2.6V | 00:00:00 | 02:50:39 | 00:00:00 | |
| DO2SHX-10 | 2026-08-31 01:35:27 | 53.44797 | 11.38638 | 61° | 64km/h | 5485m | -9.7m/s | -13.1°C | 28.4% | 515.9hPa | 2.6V | 02:24:00 | 02:50:36 | 00:00:00 | |
| DB0DAN | 2026-08-31 01:35:25 | 53.44781 | 11.38590 | 59° | 62km/h | 5504m | -10.6m/s | -13.4°C | 27.6% | 514.58hPa | 2.5V | 00:00:00 | 00:00:00 | 00:00:00 | |
| DM0DOS-11 | 2026-08-31 01:35:25 | 53.44738 | 11.38476 | 56° | 68km/h | 5553m | -10.4m/s | -13.7°C | 30.3% | 511.2hPa | 2.6V | 02:24:46 | 02:50:29 | 00:00:00 | |
| DF8AY | 2026-08-31 01:35:20 | 53.44738 | 11.38476 | 57° | 68km/h | 5553m | -10.4m/s | -13.7°C | 34.8% | 511.2hPa | 2.6V | 02:25:15 | 02:50:29 | 00:00:00 | |
| DL1XH1-15 | 2026-08-31 01:35:20 | 53.44729 | 11.38453 | 55° | 64km/h | 5564m | -10.2m/s | -13.8°C | 30.1% | 510.5hPa | 2.5V | 02:24:47 | 02:50:28 | 00:00:00 | |
| AA1-15 | 2026-08-31 01:35:19 | 53.44729 | 11.38453 | 56° | 66km/h | 5564m | -10.2m/s | -13.8°C | 34.5% | 510.5hPa | 2.5V | 02:25:15 | 02:50:28 | 00:00:00 | |
| DO2SHX-10 | 2026-08-31 01:35:18 | 53.44720 | 11.38430 | 57° | 64km/h | 5573m | -9.2m/s | -13.8°C | 30.2% | 509.8hPa | 2.5V | 02:24:00 | 02:50:27 | 00:00:00 | |
| SMARD9-15 | 2026-08-31 01:35:17 | 53.44703 | 11.38385 | 54° | 64km/h | 5591m | -10.8m/s | -14.0°C | 28.9% | 508.7hPa | 2.5V | 00:00:00 | 00:00:00 | 00:00:00 | |
| DM0DOS-11 | 2026-08-31 01:35:15 | 53.44648 | 11.38248 | 54° | 64km/h | 5652m | -10.8m/s | -14.6°C | 39.1% | 504.5hPa | 2.5V | 02:24:56 | 02:50:19 | 00:00:00 | |
| BIOWL1-15 | 2026-08-31 01:35:11 | 53.44657 | 11.38271 | 57° | 66km/h | 5642m | -11.1m/s | -14.5°C | 43.9% | 505.3hPa | 2.5V | 02:25:15 | 02:50:20 | 00:00:00 | |
| DB0DAN | 2026-08-31 01:35:10 | 53.44648 | 11.38248 | 55° | 60km/h | 5652m | -10.9m/s | -14.6°C | 37.6% | 504.51hPa | 2.5V | 00:00:00 | 00:00:00 | 00:00:00 | |
| DL1XH1-15 | 2026-08-31 01:35:10 | 53.44640 | 11.38226 | 54° | 62km/h | 5662m | -10.3m/s | -14.7°C | 39.8% | 503.9hPa | 2.6V | 02:24:57 | 02:50:18 | 00:00:00 | |
| AA1-15 | 2026-08-31 01:35:09 | 53.44639 | 11.38226 | 55° | 62km/h | 5662m | -10.3m/s | -14.7°C | 44.5% | 503.9hPa | 2.6V | 02:25:15 | 02:50:18 | 00:00:00 | |
| DO2SHX-10 | 2026-08-31 01:35:09 | 53.44639 | 11.38226 | 55° | 64km/h | 5662m | -10.3m/s | -14.6°C | 39.8% | 503.8hPa | 2.6V | 02:24:00 | 02:50:18 | 00:00:00 | |
| DO2SHX-10 | 2026-08-31 01:35:06 | 53.44612 | 11.38161 | 57° | 64km/h | 5692m | -10.9m/s | -14.9°C | 43.2% | 501.9hPa | 2.6V | 00:00:00 | 02:50:15 | 00:00:00 | |
| DM0DOS-11 | 2026-08-31 01:35:05 | 53.44557 | 11.38030 | 54° | 62km/h | 5754m | -10.2m/s | -15.5°C | 47.4% | 497.8hPa | 2.6V | 02:25:06 | 02:50:09 | 00:00:00 | |
| BIOWL1-15 | 2026-08-31 01:35:03 | 53.44566 | 11.38051 | 56° | 64km/h | 5744m | -10.1m/s | -15.4°C | 51.2% | 498.5hPa | 2.6V | 02:25:15 | 02:50:10 | 00:00:00 | |
| DO2SHX-10 | 2026-08-31 01:35:03 | 53.44584 | 11.38095 | 54° | 64km/h | 5724m | -10.9m/s | -15.2°C | 46.7% | 499.7hPa | 2.6V | 00:00:00 | 02:50:12 | 00:00:00 | |
| DL1XH-15 | 2026-08-31 01:35:02 | 53.44530 | 11.37964 | 56° | 66km/h | 5784m | -10.6m/s | -15.7°C | 40.8% | 495.9hPa | 2.6V | 02:25:09 | 02:50:06 | 00:00:00 | |
| DC4HF-4 | 2026-08-31 01:35:01 | 53.44566 | 11.38051 | 55° | 64km/h | 5744m | -10.1m/s | -15.4°C | 45.1% | 498.5hPa | 2.5V | 00:00:00 | 00:00:00 | 00:00:00 | |
| DL1XH1-15 | 2026-08-31 01:35:00 | 53.44548 | 11.38008 | 55° | 66km/h | 5764m | -10.5m/s | -15.6°C | 46.8% | 497.2hPa | 2.5V | 02:25:07 | 02:50:08 | 00:00:00 | |
| DF8AY | 2026-08-31 01:34:59 | 53.44548 | 11.38008 | 55° | 66km/h | 5764m | -10.5m/s | -15.6°C | 51.1% | 497.2hPa | 2.5V | 02:25:15 | 02:50:08 | 00:00:00 | |
| AA1-15 | 2026-08-31 01:34:58 | 53.44539 | 11.37986 | 54° | 62km/h | 5775m | -10.2m/s | -15.7°C | 48.8% | 496.5hPa | 2.5V | 02:25:15 | 02:50:07 | 00:00:00 | |
| DF8AY-15 | 2026-08-31 01:34:58 | 53.44539 | 11.37986 | 54° | 66km/h | 5775m | -10.1m/s | -15.6°C | 44.4% | 496.5hPa | 2.5V | 02:25:00 | 02:50:07 | 00:00:00 | |
| DO2SHX-10 | 2026-08-31 01:34:57 | 53.44530 | 11.37964 | 57° | 64km/h | 5784m | -10.6m/s | -15.7°C | 40.8% | 495.9hPa | 2.6V | 00:00:00 | 02:50:06 | 00:00:00 | |
| DM0DOS-11 | 2026-08-31 01:34:55 | 53.44462 | 11.37817 | 52° | 62km/h | 5852m | -9.4m/s | -16.2°C | 41.5% | 491.5hPa | 2.6V | 02:25:16 | 02:49:59 | 00:00:00 | |
| SONCRA | 2026-08-31 01:34:53 | 53.44462 | 11.37817 | 52° | 62km/h | 5852m | -9.4m/s | -16.2°C | 39.9% | 491.5hPa | 2.5V | 00:00:00 | 00:00:00 | 00:00:00 | |
| DL1XH-15 | 2026-08-31 01:34:52 | 53.44432 | 11.37754 | 51° | 64km/h | 5881m | -10.5m/s | -16.3°C | 40.1% | 489.6hPa | 2.5V | 02:25:19 | 02:49:56 | 00:00:00 | |
| BIOWL1-15 | 2026-08-31 01:34:51 | 53.44472 | 11.37838 | 51° | 68km/h | 5842m | -9.7m/s | -16.2°C | 45.8% | 492.1hPa | 2.6V | 02:25:15 | 02:50:00 | 00:00:00 | |
| DL1XH1-15 | 2026-08-31 01:34:50 | 53.44452 | 11.37796 | 50° | 64km/h | 5861m | -10.1m/s | -16.2°C | 41.3% | 490.9hPa | 2.6V | 02:25:17 | 02:49:58 | 00:00:00 | |
| DF8AY | 2026-08-31 01:34:49 | 53.44452 | 11.37796 | 51° | 64km/h | 5861m | -10.1m/s | -16.2°C | 45.6% | 490.9hPa | 2.6V | 02:26:06 | 02:49:58 | 00:00:00 | |
| DL1XH-west | 2026-08-31 01:34:48 | 53.44442 | 11.37775 | 51° | 66km/h | 5871m | -9.6m/s | -16.3°C | 45.2% | 490.3hPa | 2.6V | 02:26:06 | 02:49:57 | 00:00:00 | |
| AA1-15 | 2026-08-31 01:34:47 | 53.44432 | 11.37754 | 51° | 64km/h | 5881m | -10.5m/s | -16.3°C | 44.7% | 489.6hPa | 2.5V | 02:26:06 | 02:49:56 | 00:00:00 | |
| DM0DOS-11 | 2026-08-31 01:34:45 | 53.44354 | 11.37610 | 45° | 69km/h | 5943m | -7.2m/s | -16.7°C | 39% | 485.4hPa | 2.5V | 02:25:26 | 02:49:49 | 00:00:00 | |
| DO2SHX-10 | 2026-08-31 01:34:45 | 53.44410 | 11.37712 | 50° | 66km/h | 5902m | -9.7m/s | -16.4°C | 39.5% | 488.3hPa | 2.6V | 00:00:00 | 02:49:54 | 00:00:00 | |
| DL1XH-15 | 2026-08-31 01:34:42 | 53.44319 | 11.37546 | 46° | 71km/h | 5964m | -8.1m/s | -16.9°C | 39.7% | 484hPa | 2.6V | 02:25:29 | 02:49:46 | 00:00:00 | |
| DO2SHX-10 | 2026-08-31 01:34:42 | 53.44377 | 11.37651 | 47° | 68km/h | 5928m | -7.7m/s | -16.5°C | 38.7% | 486.5hPa | 2.6V | 02:25:00 | 02:49:51 | 00:00:00 | |
| DB0DAN | 2026-08-31 01:34:40 | 53.44354 | 11.37610 | 46° | 66km/h | 5943m | -7.2m/s | -16.7°C | 37.4% | 485.42hPa | 2.5V | 00:00:00 | 00:00:00 | 00:00:00 | |
| DL1XH1-15 | 2026-08-31 01:34:40 | 53.44343 | 11.37589 | 48° | 69km/h | 5950m | -7.6m/s | -16.8°C | 39.3% | 485.1hPa | 2.6V | 02:25:27 | 02:49:48 | 00:00:00 | |
| BIOWL1-15 | 2026-08-31 01:34:40 | 53.44354 | 11.37610 | 46° | 69km/h | 5943m | -7.2m/s | -16.7°C | 43% | 485.4hPa | 2.5V | 02:26:06 | 02:49:49 | 00:00:00 | |
| DF8AY | 2026-08-31 01:34:39 | 53.44343 | 11.37589 | 48° | 69km/h | 5950m | -7.6m/s | -16.8°C | 43.2% | 485.1hPa | 2.6V | 02:26:06 | 02:49:48 | 00:00:00 | |
| DL1XH-west | 2026-08-31 01:34:37 | 53.44319 | 11.37546 | 46° | 71km/h | 5964m | -8.1m/s | -16.9°C | 43.9% | 484hPa | 2.6V | 02:26:06 | 02:49:46 | 00:00:00 | |
| AA1-15 | 2026-08-31 01:34:36 | 53.44307 | 11.37525 | 47° | 68km/h | 5973m | -9m/s | -17°C | 44.3% | 483.4hPa | 2.5V | 02:26:06 | 02:49:45 | 00:00:00 | |
| DO2SHX-10 | 2026-08-31 01:34:36 | 53.44307 | 11.37525 | 48° | 69km/h | 5973m | -8.9m/s | -16.9°C | 40.0% | 483.4hPa | 2.6V | 00:00:00 | 02:49:45 | 00:00:00 | |
| DO2SHX-10 | 2026-08-31 01:34:33 | 53.44271 | 11.37461 | 47° | 71km/h | 6001m | -10.5m/s | -17.1°C | 40.2% | 481.8hPa | 2.6V | 02:25:00 | 02:49:42 | 00:00:00 | |
| DL1XH-15 | 2026-08-31 01:34:32 | 53.44199 | 11.37331 | 45° | 71km/h | 6061m | -9.6m/s | -17.7°C | 40.8% | 478hPa | 2.6V | 02:25:39 | 02:49:36 | 00:00:00 | |
| DL1XH1-15 | 2026-08-31 01:34:30 | 53.44224 | 11.37375 | 46° | 73km/h | 6041m | -10.9m/s | -17.5°C | 40.6% | 479.4hPa | 2.5V | 02:25:37 | 02:49:38 | 00:00:00 | |
| DF8AY | 2026-08-31 01:34:28 | 53.44211 | 11.37353 | 45° | 71km/h | 6051m | -10.2m/s | -17.6°C | 45% | 478.7hPa | 2.6V | 02:26:06 | 02:49:37 | 00:00:00 | |
| DL1XH-west | 2026-08-31 01:34:26 | 53.44187 | 11.37309 | 48° | 73km/h | 6070m | -9m/s | -17.8°C | 44.8% | 477.4hPa | 2.6V | 02:26:06 | 02:49:35 | 00:00:00 | |
| DB0DAN | 2026-08-31 01:34:25 | 53.44174 | 11.37287 | 47° | 68km/h | 6079m | -8.7m/s | -17.9°C | 39.5% | 476.75hPa | 2.5V | 00:00:00 | 00:00:00 | 00:00:00 | |
| AA1-15 | 2026-08-31 01:34:25 | 53.44174 | 11.37287 | 47° | 71km/h | 6079m | -8.7m/s | -17.9°C | 44.9% | 476.8hPa | 2.5V | 02:26:06 | 02:49:34 | 00:00:00 | |
| DM0DOS-11 | 2026-08-31 01:34:25 | 53.44113 | 11.37178 | 46° | 73km/h | 6122m | -9.2m/s | -18.3°C | 42.5% | 474hPa | 2.6V | 02:25:46 | 02:49:29 | 00:00:00 | |
| DO2SHX-10 | 2026-08-31 01:34:24 | 53.44162 | 11.37266 | 45° | 71km/h | 6087m | -9.6m/s | -17.9°C | 41.5% | 476.1hPa | 2.5V | 02:25:00 | 02:49:33 | 00:00:00 | |
| DL1XH-15 | 2026-08-31 01:34:22 | 53.44075 | 11.37111 | 46° | 71km/h | 6146m | -8.7m/s | -18.5°C | 42.6% | 472.4hPa | 2.6V | 02:25:49 | 02:49:26 | 00:00:00 | |
| BIOWL1-15 | 2026-08-31 01:34:18 | 53.44062 | 11.37088 | 47° | 77km/h | 6155m | -10.2m/s | -18.6°C | 46.6% | 472hPa | 2.6V | 02:26:06 | 02:49:25 | 00:00:00 | |
| DF8AY | 2026-08-31 01:34:18 | 53.44088 | 11.37133 | 47° | 75km/h | 6138m | -8.2m/s | -18.4°C | 46.2% | 472.9hPa | 2.5V | 02:26:06 | 02:49:27 | 00:00:00 | |
| DL1XH-west | 2026-08-31 01:34:15 | 53.44050 | 11.37065 | 49° | 73km/h | 6165m | -9.4m/s | -18.6°C | 46.5% | 471.3hPa | 2.6V | 02:26:06 | 02:49:24 | 00:00:00 | |
| AA1-15 | 2026-08-31 01:34:14 | 53.44037 | 11.37041 | 47° | 78km/h | 6175m | -10.5m/s | -18.7°C | 46% | 470.8hPa | 2.5V | 02:26:06 | 02:49:23 | 00:00:00 | |
| DL1XH-15 | 2026-08-31 01:34:12 | 53.43948 | 11.36879 | 45° | 77km/h | 6244m | -9.9m/s | -19.3°C | 42.4% | 466.3hPa | 2.5V | 02:25:59 | 02:49:16 | 00:00:00 | |
| DO2SHX-10 | 2026-08-31 01:34:12 | 53.44012 | 11.36995 | 48° | 75km/h | 6195m | -9.6m/s | -18.8°C | 42.0% | 469.4hPa | 2.6V | 00:00:00 | 02:49:21 | 00:00:00 | |
| DB0DAN | 2026-08-31 01:34:10 | 53.43986 | 11.36948 | 47° | 71km/h | 6213m | -8.7m/s | -19.1°C | 40.7% | 468.13hPa | 2.6V | 00:00:00 | 00:00:00 | 00:00:00 | |
| DL1XH1-15 | 2026-08-31 01:34:10 | 53.43974 | 11.36925 | 48° | 75km/h | 6222m | -11.4m/s | -19.1°C | 42.4% | 467.6hPa | 2.6V | 02:25:57 | 02:49:18 | 00:00:00 | |
| DF8AY | 2026-08-31 01:34:07 | 53.43948 | 11.36879 | 45° | 77km/h | 6244m | -9.9m/s | -19.3°C | 46.1% | 466.3hPa | 2.5V | 02:26:06 | 02:49:16 | 00:00:00 | |
| BIOWL1-15 | 2026-08-31 01:34:05 | 53.43882 | 11.36761 | 48° | 77km/h | 6291m | -9.1m/s | -19.7°C | 44.6% | 463.4hPa | 2.5V | 02:26:06 | 02:49:11 | 00:00:00 | |
| DL1XH-west | 2026-08-31 01:34:05 | 53.43921 | 11.36832 | 47° | 77km/h | 6262m | -9.5m/s | -19.5°C | 44.7% | 465.1hPa | 2.6V | 02:26:06 | 02:49:14 | 00:00:00 | |
| AA1-15 | 2026-08-31 01:34:03 | 53.43895 | 11.36785 | 48° | 77km/h | 6282m | -9.6m/s | -19.6°C | 44.8% | 464hPa | 2.5V | 02:26:06 | 02:49:12 | 00:00:00 | |
| DO2SHX-10 | 2026-08-31 01:34:03 | 53.43895 | 11.36785 | 48° | 77km/h | 6282m | -9.6m/s | -19.6°C | 41.2% | 463.9hPa | 2.6V | 00:00:00 | 02:49:12 | 00:00:00 | |
| AM1SDL-15 | 2026-08-31 01:34:02 | 53.43882 | 11.36761 | 48° | 80km/h | 6291m | -9.0m/s | -19.7°C | 41.0% | 463.3hPa | 2.6V | 00:00:00 | 02:49:11 | 00:00:00 | |
| DJ2DS-15 | 2026-08-31 01:34:01 | 53.43855 | 11.36712 | 47° | 78km/h | 6310m | -9.6m/s | -19.9°C | 39.2% | 462.3hPa | 2.6V | 00:00:00 | 00:00:00 | 00:00:00 | |
| DL1XH1-15 | 2026-08-31 01:34:00 | 53.43843 | 11.36689 | 47° | 75km/h | 6319m | -9.6m/s | -19.9°C | 41.1% | 461.7hPa | 2.6V | 02:26:07 | 02:49:08 | 00:00:00 | |
| DF8AY | 2026-08-31 01:33:57 | 53.43816 | 11.36640 | 48° | 80km/h | 6338m | -8.1m/s | -20.1°C | 44.5% | 460.6hPa | 2.5V | 02:26:57 | 02:49:06 | 00:00:00 | |
| BIOWL1-15 | 2026-08-31 01:33:56 | 53.43776 | 11.36567 | 46° | 77km/h | 6363m | -8.7m/s | -20.3°C | 45.3% | 459hPa | 2.6V | 02:26:57 | 02:49:03 | 00:00:00 | |
| DB0DAN | 2026-08-31 01:33:55 | 53.43789 | 11.36591 | 47° | 75km/h | 6354m | -8.4m/s | -20.2°C | 39.5% | 459.52hPa | 2.5V | 00:00:00 | 00:00:00 | 00:00:00 | |
| DL1XH-west | 2026-08-31 01:33:55 | 53.43789 | 11.36591 | 47° | 78km/h | 6354m | -8.4m/s | -20.2°C | 45.1% | 459.5hPa | 2.5V | 02:26:57 | 02:49:04 | 00:00:00 | |
| AA1-15 | 2026-08-31 01:33:52 | 53.43748 | 11.36517 | 47° | 86km/h | 6380m | -8.3m/s | -20.5°C | 45.3% | 457.8hPa | 2.6V | 02:26:57 | 02:49:01 | 00:00:00 | |
| DL1XH-15 | 2026-08-31 01:33:52 | 53.43678 | 11.36389 | 47° | 84km/h | 6427m | -8.8m/s | -20.9°C | 41.4% | 455hPa | 2.6V | 02:26:19 | 02:48:56 | 00:00:00 | |
| DO2SHX-10 | 2026-08-31 01:33:51 | 53.43734 | 11.36491 | 49° | 82km/h | 6390m | -10.5m/s | -20.5°C | 41.0% | 457.3hPa | 2.5V | 00:00:00 | 02:49:00 | 00:00:00 | |
| DL1XH1-15 | 2026-08-31 01:33:50 | 53.43706 | 11.36441 | 47° | 82km/h | 6410m | -8.9m/s | -20.7°C | 40.8% | 456.1hPa | 2.5V | 02:26:17 | 02:48:58 | 00:00:00 | |
| DF8AY | 2026-08-31 01:33:46 | 53.43664 | 11.36363 | 48° | 82km/h | 6436m | -7.7m/s | -20.9°C | 44.8% | 454.5hPa | 2.6V | 02:26:57 | 02:48:55 | 00:00:00 | |
| DM0DOS-11 | 2026-08-31 01:33:45 | 53.43580 | 11.36206 | 47° | 84km/h | 6481m | -10.4m/s | -21.3°C | 51.2% | 451.6hPa | 2.6V | 02:26:26 | 02:48:49 | 00:00:00 | |
| DL1XH-west | 2026-08-31 01:33:44 | 53.43636 | 11.36311 | 49° | 84km/h | 6451m | -7.4m/s | -21.1°C | 45.6% | 453.4hPa | 2.5V | 02:26:57 | 02:48:53 | 00:00:00 | |
| AA1-15 | 2026-08-31 01:33:41 | 53.43594 | 11.36232 | 48° | 84km/h | 6473m | -7.4m/s | -21.3°C | 50% | 452.1hPa | 2.6V | 02:26:57 | 02:48:50 | 00:00:00 | |
| DB0DAN | 2026-08-31 01:33:40 | 53.43580 | 11.36206 | 47° | 80km/h | 6481m | -10.4m/s | -21.3°C | 48.9% | 451.61hPa | 2.6V | 00:00:00 | 00:00:00 | 00:00:00 | |
| DF8AY | 2026-08-31 01:33:36 | 53.43524 | 11.36099 | 49° | 86km/h | 6520m | -10.2m/s | -21.6°C | 59.3% | 449.3hPa | 2.6V | 02:26:57 | 02:48:45 | 00:00:00 | |
| DL1XH-west | 2026-08-31 01:33:34 | 53.43497 | 11.36044 | 50° | 82km/h | 6538m | -9.3m/s | -21.8°C | 61.4% | 448.1hPa | 2.5V | 02:26:57 | 02:48:43 | 00:00:00 | |
| DO2SHX-10 | 2026-08-31 01:33:33 | 53.43484 | 11.36017 | 52° | 84km/h | 6548m | -9.1m/s | -21.8°C | 61.0% | 447.6hPa | 2.5V | 00:00:00 | 02:48:42 | 00:00:00 | |
| DL1XH-15 | 2026-08-31 01:33:32 | 53.43404 | 11.35851 | 51° | 86km/h | 6600m | -8.9m/s | -22.3°C | 72% | 444.7hPa | 2.5V | 02:26:39 | 02:48:36 | 00:00:00 | |
| AA1-15 | 2026-08-31 01:33:30 | 53.43444 | 11.35935 | 50° | 86km/h | 6572m | -9.5m/s | -22.1°C | 65.8% | 446.2hPa | 2.6V | 02:26:57 | 02:48:39 | 00:00:00 | |
| DL1XH1-15 | 2026-08-31 01:33:30 | 53.43430 | 11.35907 | 50° | 86km/h | 6582m | -9.5m/s | -22.2°C | 65.3% | 445.7hPa | 2.5V | 02:26:37 | 02:48:38 | 00:00:00 | |
| DO2SHX-10 | 2026-08-31 01:33:30 | 53.43444 | 11.35935 | 50° | 86km/h | 6572m | -9.4m/s | -22.0°C | 64.5% | 446.1hPa | 2.6V | 02:26:00 | 02:48:39 | 00:00:00 | |
| DO2SHX-10 | 2026-08-31 01:33:27 | 53.43403 | 11.35851 | 52° | 84km/h | 6600m | -8.8m/s | -22.3°C | 72.0% | 444.6hPa | 2.6V | 00:00:00 | 02:48:36 | 00:00:00 | |
| DB0DAN | 2026-08-31 01:33:25 | 53.43378 | 11.35795 | 52° | 78km/h | 6618m | -9m/s | -22.5°C | 73.7% | 443.54hPa | 2.6V | 00:00:00 | 00:00:00 | 00:00:00 | |
| DF8AY | 2026-08-31 01:33:25 | 53.43327 | 11.35683 | 52° | 84km/h | 6658m | -9.8m/s | -22.8°C | 83% | 441.1hPa | 2.5V | 02:26:57 | 02:48:30 | 00:00:00 | |
| DL1XH-west | 2026-08-31 01:33:23 | 53.43352 | 11.35739 | 54° | 82km/h | 6636m | -9.9m/s | -22.7°C | 80.5% | 442.4hPa | 2.5V | 02:26:57 | 02:48:32 | 00:00:00 | |
| DO2SHX-10 | 2026-08-31 01:33:21 | 53.43327 | 11.35682 | 53° | 82km/h | 6658m | -9.8m/s | -22.7°C | 83.4% | 441.1hPa | 2.5V | 02:26:00 | 02:48:30 | 00:00:00 | |
| DL1XH1-15 | 2026-08-31 01:33:20 | 53.43303 | 11.35628 | 53° | 80km/h | 6676m | -8.7m/s | -22.8°C | 82.5% | 440hPa | 2.6V | 02:26:47 | 02:48:28 | 00:00:00 | |
| AA1-15 | 2026-08-31 01:33:20 | 53.43315 | 11.35655 | 53° | 80km/h | 6668m | -9.2m/s | -22.8°C | 82.5% | 440.5hPa | 2.6V | 02:26:57 | 02:48:29 | 00:00:00 | |
| BIOWL1-15 | 2026-08-31 01:33:19 | 53.43254 | 11.35519 | 54° | 82km/h | 6714m | -9m/s | -23.2°C | 82.5% | 437.6hPa | 2.6V | 02:26:57 | 02:48:24 | 00:00:00 | |
| DF8AY | 2026-08-31 01:33:15 | 53.43242 | 11.35493 | 53° | 77km/h | 6722m | -8.8m/s | -23.2°C | 81.5% | 437.1hPa | 2.6V | 02:26:57 | 02:48:23 | 00:00:00 | |
| DL1XH-west | 2026-08-31 01:33:12 | 53.43220 | 11.35439 | 55° | 77km/h | 6742m | -9.7m/s | -23.3°C | 80.2% | 436hPa | 2.5V | 02:26:57 | 02:48:21 | 00:00:00 | |
| DL1XH-15 | 2026-08-31 01:33:12 | 53.43166 | 11.35307 | 56° | 77km/h | 6787m | -9.8m/s | -23.3°C | 77.6% | 433.3hPa | 2.5V | 02:26:59 | 02:48:16 | 00:00:00 | |
| DO2SHX-10 | 2026-08-31 01:33:12 | 53.43220 | 11.35439 | 56° | 77km/h | 6742m | -9.7m/s | -23.2°C | 81.2% | 435.9hPa | 2.5V | 02:26:00 | 02:48:21 | 00:00:00 | |
| DB0DAN | 2026-08-31 01:33:10 | 53.43198 | 11.35386 | 57° | 73km/h | 6760m | -9.6m/s | -23.3°C | 76.4% | 434.99hPa | 2.6V | 00:00:00 | 00:00:00 | 00:00:00 | |
| DL1XH1-15 | 2026-08-31 01:33:10 | 53.43187 | 11.35360 | 55° | 73km/h | 6769m | -9.4m/s | -23.3°C | 78.7% | 434.4hPa | 2.6V | 02:26:57 | 02:48:18 | 00:00:00 | |
| AA1-15 | 2026-08-31 01:33:09 | 53.43187 | 11.35360 | 56° | 73km/h | 6769m | -9.4m/s | -23.3°C | 79% | 434.5hPa | 2.6V | 02:26:57 | 02:48:18 | 00:00:00 | |
| BIOWL1-15 | 2026-08-31 01:33:05 | 53.43145 | 11.35253 | 55° | 77km/h | 6807m | -11.3m/s | -23.4°C | 78.6% | 432.2hPa | 2.6V | 02:27:48 | 02:48:14 | 00:00:00 | |
| DM0DOS-11 | 2026-08-31 01:33:05 | 53.43089 | 11.35115 | 57° | 78km/h | 6858m | -11.3m/s | -23.6°C | 80% | 429.2hPa | 2.5V | 02:27:06 | 02:48:09 | 00:00:00 | |
| DF8AY | 2026-08-31 01:33:04 | 53.43134 | 11.35226 | 56° | 78km/h | 6818m | -10.9m/s | -23.4°C | 79.4% | 431.6hPa | 2.6V | 02:27:48 | 02:48:13 | 00:00:00 | |
| DL1XH-west | 2026-08-31 01:33:02 | 53.43101 | 11.35143 | 56° | 80km/h | 6848m | -10.6m/s | -23.6°C | 81.7% | 429.9hPa | 2.5V | 02:27:48 | 02:48:10 | 00:00:00 | |
| DL1XH1-15 | 2026-08-31 01:33:00 | 53.43068 | 11.35060 | 57° | 78km/h | 6880m | -10.3m/s | -23.6°C | 78.5% | 428hPa | 2.6V | 02:27:08 | 02:48:07 | 00:00:00 | |
| AA1-15 | 2026-08-31 01:32:58 | 53.43068 | 11.35060 | 58° | 78km/h | 6880m | -10.3m/s | -23.7°C | 79.8% | 428hPa | 2.6V | 02:27:48 | 02:48:07 | 00:00:00 | |
| EDDB2-12 | 2026-08-31 01:32:56 | 53.43046 | 11.35003 | 56° | 80km/h | 6900m | -9.9m/s | -23.8°C | 75.9% | 426.8hPa | 2.5V | 00:00:00 | 00:00:00 | 00:00:00 | |
| DB0DAN | 2026-08-31 01:32:55 | 53.43035 | 11.34974 | 59° | 77km/h | 6909m | -9.3m/s | -23.9°C | 76.4% | 426.21hPa | 2.5V | 00:00:00 | 00:00:00 | 00:00:00 | |
| DM0DOS-11 | 2026-08-31 01:32:55 | 53.42982 | 11.34827 | 61° | 80km/h | 6953m | -11.2m/s | -24.1°C | 81.2% | 423.7hPa | 2.5V | 02:27:16 | 02:47:59 | 00:00:00 | |
| DF8AY | 2026-08-31 01:32:54 | 53.43025 | 11.34945 | 59° | 80km/h | 6917m | -6.9m/s | -23.9°C | 79.9% | 425.7hPa | 2.5V | 02:27:48 | 02:48:03 | 00:00:00 | |
| BIOWL9-15 | 2026-08-31 01:32:53 | 53.43014 | 11.34916 | 57° | 82km/h | 6924m | -7.8m/s | -23.9°C | 76.4% | 425.3hPa | 2.6V | 00:00:00 | 00:00:00 | 00:00:00 | |
| DL1XH-15 | 2026-08-31 01:32:52 | 53.42952 | 11.34735 | 59° | 82km/h | 6985m | -10.8m/s | -24.3°C | 82.1% | 421.8hPa | 2.6V | 02:27:19 | 02:47:56 | 00:00:00 | |
| DL1XH-west | 2026-08-31 01:32:50 | 53.42983 | 11.34827 | 61° | 80km/h | 6953m | -11.2m/s | -24.1°C | 82.3% | 423.7hPa | 2.5V | 02:27:48 | 02:47:59 | 00:00:00 | |
| DL1XH1-15 | 2026-08-31 01:32:50 | 53.42962 | 11.34766 | 60° | 82km/h | 6974m | -10.8m/s | -24.3°C | 82.3% | 422.4hPa | 2.5V | 02:27:18 | 02:47:57 | 00:00:00 | |
| AA1-15 | 2026-08-31 01:32:47 | 53.42952 | 11.34735 | 60° | 82km/h | 6985m | -10.8m/s | -24.4°C | 82.8% | 421.8hPa | 2.6V | 02:27:48 | 02:47:56 | 00:00:00 | |
| EDDB2-11 | 2026-08-31 01:32:46 | 53.42941 | 11.34705 | 60° | 80km/h | 6995m | -10.2m/s | -24.4°C | 78.7% | 421.1hPa | 2.6V | 00:00:00 | 00:00:00 | 00:00:00 | |
| DM0DOS-11 | 2026-08-31 01:32:45 | 53.42878 | 11.34529 | 56° | 80km/h | 7055m | -11.2m/s | -24.9°C | 83.6% | 417.8hPa | 2.6V | 02:27:26 | 02:47:49 | 00:00:00 | |
| DF8AY | 2026-08-31 01:32:43 | 53.42911 | 11.34617 | 59° | 82km/h | 7023m | -10.1m/s | -24.7°C | 83.5% | 419.6hPa | 2.5V | 02:27:48 | 02:47:52 | 00:00:00 | |
| BIOWL1-15 | 2026-08-31 01:32:43 | 53.42889 | 11.34558 | 58° | 82km/h | 7043m | -11.9m/s | -24.8°C | 84.5% | 418.4hPa | 2.6V | 02:27:48 | 02:47:50 | 00:00:00 | |
| DL1XH-15 | 2026-08-31 01:32:42 | 53.42845 | 11.34440 | 58° | 82km/h | 7086m | -10.3m/s | -25.1°C | 84.1% | 415.9hPa | 2.5V | 02:27:29 | 02:47:46 | 00:00:00 | |
| DO2SHX-10 | 2026-08-31 01:32:42 | 53.42899 | 11.34587 | 59° | 82km/h | 7032m | -10.9m/s | -24.7°C | 83.6% | 418.9hPa | 2.6V | 00:00:00 | 02:47:51 | 00:00:00 | |
| DB0DAN | 2026-08-31 01:32:40 | 53.42878 | 11.34529 | 57° | 77km/h | 7055m | -11.2m/s | -24.9°C | 79.8% | 417.75hPa | 2.6V | 00:00:00 | 00:00:00 | 00:00:00 | |
| DL1XH1-15 | 2026-08-31 01:32:40 | 53.42856 | 11.34470 | 57° | 80km/h | 7076m | -10.8m/s | -25°C | 84% | 416.6hPa | 2.5V | 02:27:28 | 02:47:47 | 00:00:00 | |
| DL1XH-west | 2026-08-31 01:32:39 | 53.42867 | 11.34499 | 59° | 84km/h | 7065m | -11.1m/s | -25°C | 84.4% | 417.2hPa | 2.6V | 02:27:48 | 02:47:48 | 00:00:00 | |
| AA1-15 | 2026-08-31 01:32:36 | 53.42834 | 11.34411 | 58° | 82km/h | 7096m | -10.3m/s | -25.2°C | 83.6% | 415.5hPa | 2.5V | 02:27:48 | 02:47:45 | 00:00:00 | |
| DF8AY | 2026-08-31 01:32:33 | 53.42802 | 11.34323 | 56° | 82km/h | 7125m | -11.3m/s | -25.2°C | 80.3% | 413.7hPa | 2.6V | 02:27:48 | 02:47:42 | 00:00:00 | |
| DO2SHX-10 | 2026-08-31 01:32:33 | 53.42802 | 11.34323 | 56° | 82km/h | 7125m | -11.2m/s | -25.2°C | 79.3% | 413.6hPa | 2.6V | 00:00:00 | 02:47:42 | 00:00:00 | |
| DL1XH-15 | 2026-08-31 01:32:32 | 53.42732 | 11.34144 | 56° | 88km/h | 7188m | -10.7m/s | -25.4°C | 78.2% | 410.1hPa | 2.6V | 02:27:39 | 02:47:36 | 00:00:00 | |
| BIOWL1-15 | 2026-08-31 01:32:30 | 53.42768 | 11.34235 | 57° | 88km/h | 7157m | -10.8m/s | -25.3°C | 79.7% | 411.9hPa | 2.5V | 02:27:48 | 02:47:39 | 00:00:00 | |
| DL1XH-west | 2026-08-31 01:32:29 | 53.42756 | 11.34204 | 57° | 86km/h | 7168m | -11.4m/s | -25.3°C | 79.4% | 411.3hPa | 2.6V | 02:27:48 | 02:47:38 | 00:00:00 | |
| DD8BA-10 | 2026-08-31 01:32:28 | 53.42744 | 11.34175 | 56° | 86km/h | 7179m | -10.2m/s | -25.3°C | 78.0% | 410.6hPa | 2.6V | 00:00:00 | 00:00:00 | 00:00:00 | |
| DO2SHX-10 | 2026-08-31 01:32:27 | 53.42732 | 11.34144 | 57° | 86km/h | 7188m | -10.6m/s | -25.4°C | 78.2% | 410.1hPa | 2.6V | 02:27:00 | 02:47:36 | 00:00:00 | |
| DB0DAN | 2026-08-31 01:32:25 | 53.42708 | 11.34085 | 55° | 80km/h | 7209m | -11.3m/s | -25.6°C | 75% | 409.01hPa | 2.5V | 00:00:00 | 00:00:00 | 00:00:00 | |
| AA1-15 | 2026-08-31 01:32:25 | 53.42708 | 11.34085 | 55° | 84km/h | 7209m | -11.3m/s | -25.6°C | 80.6% | 409hPa | 2.5V | 02:27:48 | 02:47:34 | 00:00:00 | |
| DL1XH1-15 | 2026-08-31 01:32:25 | 53.42647 | 11.33932 | 55° | 86km/h | 7260m | -10.8m/s | -26°C | 79.5% | 406hPa | 2.5V | 02:27:46 | 02:47:29 | 00:00:00 | |
| DF8AY | 2026-08-31 01:32:23 | 53.42684 | 11.34024 | 56° | 84km/h | 7229m | -10.8m/s | -25.8°C | 80.8% | 407.8hPa | 2.6V | 02:27:48 | 02:47:32 | 00:00:00 | |
| BIOWL1-15 | 2026-08-31 01:32:19 | 53.42635 | 11.33902 | 56° | 88km/h | 7270m | -10.6m/s | -26.1°C | 81.1% | 405.4hPa | 2.5V | 02:27:48 | 02:47:28 | 00:00:00 | |
| DL1XH-west | 2026-08-31 01:32:18 | 53.42622 | 11.33872 | 56° | 88km/h | 7280m | -11m/s | -26.2°C | 80.7% | 405hPa | 2.5V | 02:27:48 | 02:47:27 | 00:00:00 | |
| DO2SHX-10 | 2026-08-31 01:32:18 | 53.42622 | 11.33872 | 57° | 86km/h | 7281m | -11.0m/s | -26.2°C | 79.1% | 404.9hPa | 2.5V | 02:27:00 | 02:47:27 | 00:00:00 | |
| SONCRA | 2026-08-31 01:32:17 | 53.42610 | 11.33842 | 55° | 84km/h | 7291m | -10.3m/s | -26.3°C | 74.5% | 404.4hPa | 2.6V | 00:00:00 | 00:00:00 | 00:00:00 | |
| DM0DOS-11 | 2026-08-31 01:32:15 | 53.42519 | 11.33637 | 50° | 88km/h | 7364m | -10.4m/s | -26.4°C | 69% | 400.5hPa | 2.6V | 02:27:56 | 02:47:19 | 00:00:00 | |
| AA1-15 | 2026-08-31 01:32:14 | 53.42572 | 11.33753 | 53° | 86km/h | 7322m | -10.1m/s | -26.4°C | 79.5% | 402.6hPa | 2.5V | 02:28:39 | 02:47:23 | 00:00:00 | |
| DJ2DS-15 | 2026-08-31 01:32:13 | 53.42545 | 11.33694 | 52° | 84km/h | 7343m | -10.6m/s | -26.6°C | 72.0% | 401.5hPa | 2.5V | 00:00:00 | 00:00:00 | 00:00:00 | |
| DL1XH-15 | 2026-08-31 01:32:12 | 53.42477 | 11.33549 | 51° | 88km/h | 7395m | -10m/s | -26.6°C | 68% | 398.7hPa | 2.5V | 02:27:59 | 02:47:16 | 00:00:00 | |
| DF8AY | 2026-08-31 01:32:12 | 53.42545 | 11.33694 | 53° | 86km/h | 7343m | -10.6m/s | -26.6°C | 78.6% | 401.5hPa | 2.5V | 02:28:39 | 02:47:21 | 00:00:00 | |
| DO2SHX-10 | 2026-08-31 01:32:12 | 53.42545 | 11.33694 | 53° | 86km/h | 7343m | -10.5m/s | -26.5°C | 75.7% | 401.4hPa | 2.6V | 00:00:00 | 02:47:21 | 00:00:00 | |
| TFSTFS | 2026-08-31 01:32:11 | 53.42545 | 11.33694 | 54° | 86km/h | 7343m | -10.6m/s | -26.6°C | 72.0% | 401.5hPa | 2.6V | 02:28:00 | 00:00:00 | 00:00:00 | |
| DB0DAN | 2026-08-31 01:32:10 | 53.42519 | 11.33637 | 51° | 82km/h | 7364m | -10.4m/s | -26.4°C | 65.5% | 400.49hPa | 2.6V | 00:00:00 | 00:00:00 | 00:00:00 | |
| DL1XH1-15 | 2026-08-31 01:32:10 | 53.42505 | 11.33608 | 52° | 88km/h | 7375m | -10.7m/s | -26.4°C | 68.1% | 399.9hPa | 2.6V | 02:27:57 | 02:47:18 | 00:00:00 | |
| BIOWL1-15 | 2026-08-31 01:32:08 | 53.42491 | 11.33578 | 51° | 89km/h | 7385m | -10.3m/s | -26.5°C | 73% | 399.3hPa | 2.5V | 02:28:39 | 02:47:17 | 00:00:00 | |
| DL1XH-west | 2026-08-31 01:32:07 | 53.42477 | 11.33549 | 51° | 88km/h | 7395m | -10m/s | -26.6°C | 73% | 398.7hPa | 2.5V | 02:28:39 | 02:47:16 | 00:00:00 | |
| DO2SHX-10 | 2026-08-31 01:32:06 | 53.42463 | 11.33519 | 52° | 89km/h | 7405m | -10.2m/s | -26.6°C | 67.9% | 398.1hPa | 2.5V | 00:00:00 | 02:47:15 | 00:00:00 | |
| DM0DOS-11 | 2026-08-31 01:32:05 | 53.42381 | 11.33339 | 54° | 89km/h | 7468m | -11.2m/s | -27.2°C | 68% | 394.7hPa | 2.5V | 02:28:06 | 02:47:09 | 00:00:00 | |
| AA1-15 | 2026-08-31 01:32:03 | 53.42422 | 11.33431 | 52° | 89km/h | 7437m | -10.5m/s | -26.9°C | 71.5% | 396.4hPa | 2.6V | 02:28:39 | 02:47:12 | 00:00:00 | |
| DF8AY | 2026-08-31 01:32:01 | 53.42394 | 11.33370 | 53° | 91km/h | 7457m | -10.5m/s | -27.1°C | 71.8% | 395.2hPa | 2.5V | 02:28:39 | 02:47:10 | 00:00:00 | |
| BIOWL1-15 | 2026-08-31 01:31:58 | 53.42354 | 11.33277 | 53° | 88km/h | 7489m | -10.8m/s | -27.5°C | 74% | 393.4hPa | 2.6V | 02:28:39 | 02:47:07 | 00:00:00 | |
| DL1XH-west | 2026-08-31 01:31:57 | 53.42341 | 11.33248 | 52° | 89km/h | 7499m | -10m/s | -27.6°C | 74.6% | 392.8hPa | 2.6V | 02:28:39 | 02:47:06 | 00:00:00 | |
| DO2SHX-10 | 2026-08-31 01:31:57 | 53.42341 | 11.33248 | 53° | 91km/h | 7499m | -9.9m/s | -27.5°C | 69.6% | 392.8hPa | 2.5V | 00:00:00 | 02:47:06 | 00:00:00 | |
| DB0DAN | 2026-08-31 01:31:55 | 53.42313 | 11.33187 | 53° | 88km/h | 7521m | -10.9m/s | -27.7°C | 65.9% | 391.73hPa | 2.5V | 00:00:00 | 00:00:00 | 00:00:00 | |
| DM0DOS-11 | 2026-08-31 01:31:55 | 53.42247 | 11.33029 | 55° | 89km/h | 7575m | -10.2m/s | -28.3°C | 71.9% | 388.8hPa | 2.5V | 02:28:16 | 02:46:59 | 00:00:00 | |
| AA1-15 | 2026-08-31 01:31:52 | 53.42273 | 11.33092 | 56° | 91km/h | 7554m | -10.9m/s | -28.1°C | 75.1% | 389.9hPa | 2.6V | 02:28:39 | 02:47:01 | 00:00:00 | |
| DL1XH-15 | 2026-08-31 01:31:52 | 53.42208 | 11.32934 | 54° | 91km/h | 7607m | -9.9m/s | -28.6°C | 74.3% | 387hPa | 2.6V | 02:28:19 | 02:46:56 | 00:00:00 | |
| DF8AY | 2026-08-31 01:31:50 | 53.42247 | 11.33029 | 56° | 89km/h | 7575m | -10.2m/s | -28.3°C | 75.3% | 388.8hPa | 2.5V | 02:28:39 | 02:46:59 | 00:00:00 | |
| DL1XH1-15 | 2026-08-31 01:31:50 | 53.42222 | 11.32966 | 55° | 91km/h | 7597m | -10.2m/s | -28.5°C | 73.7% | 387.6hPa | 2.5V | 02:28:18 | 02:46:57 | 00:00:00 | |
| BIOWL1-15 | 2026-08-31 01:31:47 | 53.42154 | 11.32813 | 53° | 88km/h | 7645m | -8.7m/s | -28.9°C | 80.5% | 385hPa | 2.5V | 02:28:39 | 02:46:52 | 00:00:00 | |
| DL1XH-west | 2026-08-31 01:31:46 | 53.42195 | 11.32903 | 53° | 89km/h | 7617m | -10m/s | -28.7°C | 77.5% | 386.6hPa | 2.6V | 02:28:39 | 02:46:55 | 00:00:00 | |
| EDDB2-11 | 2026-08-31 01:31:44 | 53.42168 | 11.32843 | 53° | 88km/h | 7636m | -8.7m/s | -28.9°C | 73.0% | 385.4hPa | 2.5V | 00:00:00 | 00:00:00 | 00:00:00 | |
| SONDE2-11 | 2026-08-31 01:31:43 | 53.42154 | 11.32813 | 52° | 88km/h | 7644m | -8.7m/s | -28.9°C | 72.7% | 385.0hPa | 2.5V | 00:00:00 | 00:00:00 | 00:00:00 | |
| DL1XH-15 | 2026-08-31 01:31:42 | 53.42075 | 11.32632 | 55° | 89km/h | 7711m | -10.7m/s | -29.6°C | 79.2% | 381.5hPa | 2.5V | 02:28:29 | 02:46:46 | 00:00:00 | |
| AA1-15 | 2026-08-31 01:31:41 | 53.42128 | 11.32754 | 53° | 88km/h | 7666m | -12m/s | -29.1°C | 81.3% | 383.9hPa | 2.6V | 02:28:39 | 02:46:50 | 00:00:00 | |
| DF8AY | 2026-08-31 01:31:40 | 53.42114 | 11.32724 | 53° | 88km/h | 7678m | -11.7m/s | -29.2°C | 81.4% | 383.3hPa | 2.6V | 02:28:39 | 02:46:49 | 00:00:00 | |
| DB0DAN | 2026-08-31 01:31:40 | 53.42114 | 11.32724 | 53° | 84km/h | 7678m | -11.7m/s | -29.2°C | 72.5% | 383.26hPa | 2.6V | 00:00:00 | 00:00:00 | 00:00:00 | |
| DL1XH-west | 2026-08-31 01:31:35 | 53.42049 | 11.32570 | 54° | 89km/h | 7731m | -9.2m/s | -29.8°C | 83.8% | 380.4hPa | 2.6V | 02:28:39 | 02:46:44 | 00:00:00 | |
| DM0DOS-11 | 2026-08-31 01:31:35 | 53.41984 | 11.32414 | 54° | 93km/h | 7781m | -11.4m/s | -30.2°C | 76% | 377.8hPa | 2.5V | 02:28:36 | 02:46:39 | 00:00:00 | |
| DO2SHX-10 | 2026-08-31 01:31:33 | 53.42023 | 11.32508 | 56° | 89km/h | 7750m | -9.9m/s | -29.9°C | 80.8% | 379.4hPa | 2.6V | 02:28:00 | 02:46:42 | 00:00:00 | |
| DL1XH-15 | 2026-08-31 01:31:32 | 53.41944 | 11.32318 | 56° | 91km/h | 7813m | -10.6m/s | -30.5°C | 74% | 376.1hPa | 2.5V | 02:28:39 | 02:46:36 | 00:00:00 | |
| AA1-15 | 2026-08-31 01:31:30 | 53.41984 | 11.32414 | 55° | 93km/h | 7781m | -11.5m/s | -30.2°C | 84.2% | 377.8hPa | 2.5V | 02:28:39 | 02:46:39 | 00:00:00 | |
| DF8AY | 2026-08-31 01:31:29 | 53.41970 | 11.32382 | 55° | 91km/h | 7792m | -10.5m/s | -30.3°C | 83.1% | 377.3hPa | 2.6V | 02:28:39 | 02:46:38 | 00:00:00 | |
| DD8BA-10 | 2026-08-31 01:31:28 | 53.41957 | 11.32350 | 55° | 93km/h | 7803m | -10.5m/s | -30.3°C | 74.3% | 376.6hPa | 2.6V | 00:00:00 | 00:00:00 | 00:00:00 | |
| DO2SHX-10 | 2026-08-31 01:31:27 | 53.41944 | 11.32318 | 57° | 91km/h | 7813m | -10.5m/s | -30.4°C | 74.0% | 376.0hPa | 2.6V | 00:00:00 | 02:46:36 | 00:00:00 | |
| DB0DAN | 2026-08-31 01:31:25 | 53.41918 | 11.32254 | 56° | 88km/h | 7834m | -11.1m/s | -30.7°C | 68% | 375.06hPa | 2.6V | 00:00:00 | 00:00:00 | 00:00:00 | |
| DM0DOS-11 | 2026-08-31 01:31:25 | 53.41852 | 11.32090 | 55° | 93km/h | 7889m | -11.2m/s | -31.1°C | 73% | 372.1hPa | 2.6V | 02:28:46 | 02:46:29 | 00:00:00 | |
| DL1XH-west | 2026-08-31 01:31:24 | 53.41905 | 11.32221 | 56° | 93km/h | 7845m | -11.2m/s | -30.8°C | 79.9% | 374.5hPa | 2.6V | 02:29:30 | 02:46:33 | 00:00:00 | |
| EDDB2-12 | 2026-08-31 01:31:23 | 53.41891 | 11.32189 | 55° | 93km/h | 7856m | -11.0m/s | -30.8°C | 67.6% | 373.9hPa | 2.5V | 00:00:00 | 00:00:00 | 00:00:00 | |
| DL1XH-15 | 2026-08-31 01:31:22 | 53.41812 | 11.31993 | 55° | 91km/h | 7921m | -10.1m/s | -31.2°C | 73.9% | 370.4hPa | 2.5V | 02:28:49 | 02:46:26 | 00:00:00 | |
| AA1-15 | 2026-08-31 01:31:19 | 53.41838 | 11.32058 | 56° | 93km/h | 7900m | -11.2m/s | -31.1°C | 77% | 371.6hPa | 2.5V | 02:29:30 | 02:46:28 | 00:00:00 | |
| DF8AY | 2026-08-31 01:31:18 | 53.41825 | 11.32026 | 56° | 95km/h | 7911m | -10.7m/s | -31.2°C | 77.2% | 371hPa | 2.5V | 02:29:30 | 02:46:27 | 00:00:00 | |
| DL1XH-west | 2026-08-31 01:31:13 | 53.41759 | 11.31865 | 55° | 91km/h | 7960m | -8.7m/s | -31.5°C | 77.9% | 368.4hPa | 2.5V | 02:29:30 | 02:46:22 | 00:00:00 | |
| BIOWL1-15 | 2026-08-31 01:31:11 | 53.41707 | 11.31740 | 55° | 89km/h | 7997m | -9.4m/s | -31.9°C | 74.9% | 366.4hPa | 2.6V | 02:29:30 | 02:46:18 | 00:00:00 | |
| DM0DOS-11 | 2026-08-31 01:31:11 | 53.41720 | 11.31771 | 55° | 88km/h | 7988m | -9.9m/s | -31.9°C | 72.3% | 366.9hPa | 2.6V | 02:28:56 | 02:46:19 | 00:00:00 | |
| DB0DAN | 2026-08-31 01:31:10 | 53.41720 | 11.31771 | 56° | 84km/h | 7988m | -9.9m/s | -31.9°C | 68.2% | 366.86hPa | 2.6V | 00:00:00 | 00:00:00 | 00:00:00 | |
| DL1XH1-15 | 2026-08-31 01:31:09 | 53.41643 | 11.31582 | 57° | 89km/h | 8043m | -9.4m/s | -32.1°C | 72.6% | 364.1hPa | 2.6V | 02:29:02 | 02:46:13 | 00:00:00 | |
| DF8AY | 2026-08-31 01:31:08 | 53.41694 | 11.31709 | 56° | 89km/h | 8007m | -9.8m/s | -32°C | 75.7% | 365.9hPa | 2.6V | 02:29:30 | 02:46:17 | 00:00:00 | |
| DL4BBY-15 | 2026-08-31 01:31:08 | 53.41694 | 11.31709 | 57° | 93km/h | 8007m | -9.7m/s | -32.5°C | 0% | 0hPa | 2.5V | 00:00:00 | 00:00:00 | 00:00:00 | |
| TFSTFS | 2026-08-31 01:31:07 | 53.41694 | 11.31709 | 57° | 89km/h | 8007m | -9.8m/s | -32.0°C | 70.7% | 365.9hPa | 2.5V | 02:29:00 | 00:00:00 | 00:00:00 | |
| DO2SHX-10 | 2026-08-31 01:31:06 | 53.41668 | 11.31647 | 56° | 91km/h | 8025m | -8.7m/s | -32.0°C | 76.2% | 364.8hPa | 2.5V | 02:29:00 | 02:46:15 | 00:00:00 | |
| DM0DOS-11 | 2026-08-31 01:31:05 | 53.41592 | 11.31458 | 53° | 91km/h | 8081m | -8.7m/s | -32.2°C | 71.3% | 362.1hPa | 2.6V | 02:29:06 | 02:46:09 | 00:00:00 | |
| DF7ER-10 | 2026-08-31 01:31:04 | 53.41655 | 11.31614 | 58° | 93km/h | 8034m | -8.6m/s | -32.1°C | 69.6% | 364.4hPa | 2.5V | 02:29:00 | 00:00:00 | 00:00:00 | |
| DO2SHX-10 | 2026-08-31 01:31:03 | 53.41630 | 11.31550 | 57° | 88km/h | 8053m | -10.2m/s | -32.0°C | 73.3% | 363.6hPa | 2.5V | 00:00:00 | 02:46:12 | 00:00:00 | |
| DL1XH-15 | 2026-08-31 01:31:02 | 53.41550 | 11.31361 | 55° | 95km/h | 8107m | -8.7m/s | -32.8°C | 69.6% | 360.8hPa | 2.5V | 02:29:09 | 02:46:06 | 00:00:00 | |
| DL1XH-west | 2026-08-31 01:31:02 | 53.41618 | 11.31519 | 55° | 88km/h | 8062m | -9.6m/s | -32.2°C | 75.2% | 363.1hPa | 2.5V | 02:29:30 | 02:46:11 | 00:00:00 | |
| S3001 | 2026-08-31 01:31:01 | 53.41605 | 11.31489 | 54° | 89km/h | 8071m | -9.1m/s | -32.2°C | 70.3% | 362.6hPa | 2.6V | 00:00:00 | 00:00:00 | 00:00:00 | |
| DO2SHX-10 | 2026-08-31 01:31:00 | 53.41592 | 11.31458 | 54° | 93km/h | 8081m | -8.6m/s | -32.2°C | 71.3% | 362.1hPa | 2.6V | 00:00:00 | 02:46:09 | 00:00:00 | |
| DL1XH1-15 | 2026-08-31 01:30:59 | 53.41509 | 11.31260 | 56° | 97km/h | 8138m | -10.2m/s | -33.2°C | 70.5% | 359.3hPa | 2.6V | 02:29:12 | 02:46:03 | 00:00:00 | |
| BIOWL1-15 | 2026-08-31 01:30:59 | 53.41578 | 11.31426 | 54° | 93km/h | 8089m | -9m/s | -32.4°C | 74.8% | 361.6hPa | 2.6V | 02:29:30 | 02:46:08 | 00:00:00 | |
| AA1-15 | 2026-08-31 01:30:58 | 53.41564 | 11.31394 | 54° | 95km/h | 8099m | -8.7m/s | -32.6°C | 74.9% | 361.2hPa | 2.5V | 02:29:30 | 02:46:07 | 00:00:00 | |
| DF8AY | 2026-08-31 01:30:57 | 53.41550 | 11.31361 | 55° | 95km/h | 8107m | -8.7m/s | -32.8°C | 74.2% | 360.8hPa | 2.5V | 02:29:30 | 02:46:06 | 00:00:00 | |
| DO2SHX-10 | 2026-08-31 01:30:57 | 53.41550 | 11.31361 | 56° | 97km/h | 8107m | -8.7m/s | -32.7°C | 69.6% | 360.7hPa | 2.5V | 02:29:00 | 02:46:06 | 00:00:00 | |
| DB0DAN | 2026-08-31 01:30:55 | 53.41523 | 11.31294 | 56° | 93km/h | 8127m | -10.8m/s | -33.1°C | 65% | 359.75hPa | 2.6V | 00:00:00 | 00:00:00 | 00:00:00 | |
| DM0DOS-11 | 2026-08-31 01:30:55 | 53.41455 | 11.31125 | 54° | 93km/h | 8176m | -10.1m/s | -33.6°C | 71.9% | 357.4hPa | 2.5V | 02:29:16 | 02:45:59 | 00:00:00 | |
| DO2SHX-10 | 2026-08-31 01:30:54 | 53.41509 | 11.31260 | 57° | 97km/h | 8138m | -10.2m/s | -33.1°C | 70.5% | 359.2hPa | 2.6V | 00:00:00 | 02:46:03 | 00:00:00 | |
| DF7ER-10 | 2026-08-31 01:30:53 | 53.41509 | 11.31260 | 57° | 97km/h | 8138m | -10.2m/s | -33.2°C | 66.2% | 359.3hPa | 2.6V | 02:29:00 | 00:00:00 | 00:00:00 | |
| DL1XH-15 | 2026-08-31 01:30:52 | 53.41415 | 11.31026 | 55° | 93km/h | 8206m | -9.4m/s | -33.9°C | 72.5% | 355.8hPa | 2.6V | 02:29:19 | 02:45:56 | 00:00:00 | |
| DL1XH-west | 2026-08-31 01:30:51 | 53.41469 | 11.31158 | 56° | 93km/h | 8167m | -8.8m/s | -33.5°C | 74.9% | 357.7hPa | 2.5V | 02:29:30 | 02:46:00 | 00:00:00 | |
| DK1YY | 2026-08-31 01:30:50 | 53.41456 | 11.31125 | 54° | 93km/h | 8176m | -10.1m/s | -33.6°C | 67.5% | 357.4hPa | 2.5V | 00:00:00 | 00:00:00 | 00:00:00 | |
| DL1XH1-15 | 2026-08-31 01:30:49 | 53.41375 | 11.30926 | 55° | 95km/h | 8238m | -9.9m/s | -34.2°C | 72.2% | 354.2hPa | 2.5V | 02:29:22 | 02:45:53 | 00:00:00 | |
| BIOWL1-15 | 2026-08-31 01:30:48 | 53.41388 | 11.30959 | 57° | 95km/h | 8227m | -10.6m/s | -34.1°C | 76.5% | 354.7hPa | 2.5V | 02:29:30 | 02:45:54 | 00:00:00 | |
| AA1-15 | 2026-08-31 01:30:47 | 53.41415 | 11.31026 | 55° | 93km/h | 8206m | -9.4m/s | -33.9°C | 77.2% | 355.8hPa | 2.6V | 02:29:30 | 02:45:56 | 00:00:00 | |
| DF8AY | 2026-08-31 01:30:46 | 53.41401 | 11.30993 | 56° | 95km/h | 8216m | -11.2m/s | -34°C | 77% | 355.3hPa | 2.5V | 02:29:30 | 02:45:55 | 00:00:00 | |
| DM0DOS-11 | 2026-08-31 01:30:46 | 53.41322 | 11.30793 | 55° | 95km/h | 8276m | -10.1m/s | -34.5°C | 73.2% | 352.2hPa | 2.5V | 02:29:26 | 02:45:49 | 00:00:00 | |
| DO2SHX-10 | 2026-08-31 01:30:45 | 53.41388 | 11.30959 | 58° | 95km/h | 8227m | -10.6m/s | -34.0°C | 71.7% | 354.6hPa | 2.5V | 00:00:00 | 02:45:54 | 00:00:00 | |
| AM1SDL-15 | 2026-08-31 01:30:44 | 53.41375 | 11.30926 | 56° | 99km/h | 8238m | -9.9m/s | -34.1°C | 72.2% | 354.1hPa | 2.5V | 00:00:00 | 02:45:53 | 00:00:00 | |
| DF7ER-10 | 2026-08-31 01:30:43 | 53.41375 | 11.30926 | 57° | 95km/h | 8238m | -9.9m/s | -34.2°C | 67.7% | 354.2hPa | 2.5V | 02:29:00 | 00:00:00 | 00:00:00 | |
| DO2SHX-10 | 2026-08-31 01:30:42 | 53.41349 | 11.30859 | 58° | 93km/h | 8256m | -8.5m/s | -34.3°C | 72.7% | 353.1hPa | 2.5V | 00:00:00 | 02:45:51 | 00:00:00 | |
| DB0DAN | 2026-08-31 01:30:40 | 53.41322 | 11.30793 | 55° | 91km/h | 8276m | -10.1m/s | -34.5°C | 68.6% | 352.21hPa | 2.5V | 00:00:00 | 00:00:00 | 00:00:00 | |
| DL1XH-west | 2026-08-31 01:30:40 | 53.41322 | 11.30793 | 55° | 95km/h | 8276m | -10.1m/s | -34.5°C | 75.7% | 352.2hPa | 2.5V | 02:29:30 | 02:45:49 | 00:00:00 | |
| DL1XH1-15 | 2026-08-31 01:30:39 | 53.41241 | 11.30588 | 57° | 97km/h | 8332m | -10.7m/s | -35°C | 72.4% | 349.4hPa | 2.6V | 02:29:32 | 02:45:43 | 00:00:00 | |
| BIOWL1-15 | 2026-08-31 01:30:36 | 53.41268 | 11.30657 | 56° | 99km/h | 8312m | -8.8m/s | -34.8°C | 76.8% | 350.3hPa | 2.5V | 02:29:30 | 02:45:45 | 00:00:00 | |
| DL1XH-west | 2026-08-31 01:30:30 | 53.41184 | 11.30454 | 54° | 100km/h | 8371m | -8.8m/s | -35.4°C | 73.4% | 347.4hPa | 2.5V | 02:30:21 | 02:45:39 | 00:00:00 | |
| DO2SHX-10 | 2026-08-31 01:30:30 | 53.41184 | 11.30453 | 54° | 102km/h | 8371m | -8.8m/s | -35.3°C | 72.6% | 347.3hPa | 2.5V | 02:29:00 | 02:45:39 | 00:00:00 | |
| DL1XH1-15 | 2026-08-31 01:30:29 | 53.41099 | 11.30240 | 56° | 99km/h | 8432m | -11.3m/s | -35.9°C | 60.2% | 344.6hPa | 2.6V | 02:29:42 | 02:45:33 | 00:00:00 | |
| BIOWL1-15 | 2026-08-31 01:30:28 | 53.41056 | 11.30135 | 55° | 104km/h | 8463m | -10.3m/s | -36.1°C | 62.1% | 342.9hPa | 2.5V | 02:30:21 | 02:45:30 | 00:00:00 | |
| DO2SHX-10 | 2026-08-31 01:30:27 | 53.41140 | 11.30347 | 58° | 100km/h | 8400m | -10.5m/s | -35.6°C | 66.4% | 346.1hPa | 2.5V | 00:00:00 | 02:45:36 | 00:00:00 | |
| TFSTFS | 2026-08-31 01:30:26 | 53.41140 | 11.30347 | 58° | 102km/h | 8400m | -10.6m/s | -35.6°C | 62.0% | 346.1hPa | 2.5V | 02:30:00 | 00:00:00 | 00:00:00 | |
| DB0DAN | 2026-08-31 01:30:25 | 53.41113 | 11.30275 | 57° | 95km/h | 8421m | -11.2m/s | -35.8°C | 58.8% | 345.08hPa | 2.5V | 00:00:00 | 00:00:00 | 00:00:00 | |
| AA1-15 | 2026-08-31 01:30:25 | 53.41113 | 11.30275 | 58° | 99km/h | 8421m | -11.2m/s | -35.8°C | 66.9% | 345.1hPa | 2.5V | 02:30:21 | 02:45:34 | 00:00:00 | |
| DO2SHX-10 | 2026-08-31 01:30:24 | 53.41099 | 11.30240 | 57° | 99km/h | 8432m | -11.3m/s | -35.8°C | 60.2% | 344.5hPa | 2.6V | 00:00:00 | 02:45:33 | 00:00:00 | |
| DL1XH-15 | 2026-08-31 01:30:22 | 53.40999 | 11.29991 | 56° | 99km/h | 8504m | -10.7m/s | -36.4°C | 59.8% | 340.9hPa | 2.6V | 02:29:49 | 02:45:26 | 00:00:00 | |
| DL1XH-west | 2026-08-31 01:30:19 | 53.41027 | 11.30062 | 58° | 102km/h | 8483m | -10.4m/s | -36.3°C | 62.8% | 342hPa | 2.6V | 02:30:21 | 02:45:28 | 00:00:00 | |
| DL1XH1-15 | 2026-08-31 01:30:19 | 53.40956 | 11.29890 | 53° | 99km/h | 8536m | -10.2m/s | -36.7°C | 60.5% | 339.4hPa | 2.5V | 02:29:52 | 02:45:23 | 00:00:00 | |
| DF8AY-15 | 2026-08-31 01:30:18 | 53.41013 | 11.30026 | 58° | 104km/h | 8494m | -10.2m/s | -36.3°C | 59.3% | 341.4hPa | 2.5V | 00:00:00 | 02:45:27 | 00:00:00 | |
| DM0DOS-11 | 2026-08-31 01:30:16 | 53.40895 | 11.29748 | 55° | 104km/h | 8578m | -10.3m/s | -37°C | 58.3% | 337.3hPa | 2.5V | 02:29:56 | 02:45:19 | 00:00:00 | |
| DF8AY | 2026-08-31 01:30:15 | 53.40971 | 11.29923 | 55° | 99km/h | 8526m | -10.7m/s | -36.6°C | 63.5% | 339.9hPa | 2.5V | 02:30:21 | 02:45:24 | 00:00:00 | |
| AA1-15 | 2026-08-31 01:30:14 | 53.40956 | 11.29890 | 54° | 99km/h | 8536m | -10.2m/s | -36.7°C | 63.6% | 339.4hPa | 2.5V | 02:30:21 | 02:45:23 | 00:00:00 | |
| DC4HF-4 | 2026-08-31 01:30:13 | 53.40926 | 11.29821 | 53° | 104km/h | 8557m | -10.7m/s | -36.9°C | 54.9% | 338.3hPa | 2.5V | 00:00:00 | 00:00:00 | 00:00:00 | |
| DL1XH-15 | 2026-08-31 01:30:12 | 53.40849 | 11.29643 | 51° | 104km/h | 8608m | -9.4m/s | -37.3°C | 61.9% | 335.8hPa | 2.5V | 02:29:59 | 02:45:16 | 00:00:00 | |
| BIOWL1-15 | 2026-08-31 01:30:11 | 53.40910 | 11.29785 | 55° | 108km/h | 8568m | -10.4m/s | -36.9°C | 62.9% | 337.9hPa | 2.5V | 02:30:21 | 02:45:20 | 00:00:00 | |
| DB0DAN | 2026-08-31 01:30:10 | 53.40895 | 11.29748 | 56° | 100km/h | 8578m | -10.4m/s | -37°C | 54% | 337.31hPa | 2.5V | 00:00:00 | 00:00:00 | 00:00:00 | |
| DL1XH-west | 2026-08-31 01:30:09 | 53.40880 | 11.29712 | 55° | 100km/h | 8588m | -10.5m/s | -37.1°C | 62.6% | 336.8hPa | 2.6V | 02:30:21 | 02:45:18 | 00:00:00 | |
| DF8AY | 2026-08-31 01:30:04 | 53.40799 | 11.29534 | 55° | 110km/h | 8637m | -9m/s | -37.5°C | 64.8% | 334.4hPa | 2.6V | 02:30:21 | 02:45:13 | 00:00:00 | |
| AA1-15 | 2026-08-31 01:30:03 | 53.40784 | 11.29497 | 56° | 106km/h | 8646m | -9.6m/s | -37.6°C | 65.3% | 333.9hPa | 2.6V | 02:30:21 | 02:45:12 | 00:00:00 | |
| BIOWL1-15 | 2026-08-31 01:30:01 | 53.40540 | 11.28938 | 53° | 110km/h | 8765m | -8.4m/s | -38.6°C | 66.6% | 328.3hPa | 2.5V | 02:30:21 | 02:44:57 | 00:00:00 | |
| DO2SHX-10 | 2026-08-31 01:30:00 | 53.40736 | 11.29390 | 52° | 111km/h | 8674m | -9.0m/s | -37.8°C | 62.1% | 332.5hPa | 2.6V | 00:00:00 | 02:45:09 | 00:00:00 | |
| DL1XH1-15 | 2026-08-31 01:29:59 | 53.40506 | 11.28864 | 52° | 113km/h | 8781m | -8.4m/s | -38.8°C | 62.8% | 327.5hPa | 2.6V | 02:30:20 | 02:44:55 | 00:00:00 | |
| DF8AY | 2026-08-31 01:29:58 | 53.40488 | 11.28826 | 53° | 113km/h | 8790m | -8.7m/s | -38.7°C | 67.5% | 327hPa | 2.5V | 02:30:21 | 02:44:54 | 00:00:00 | |
| DO2SHX-10 | 2026-08-31 01:29:57 | 53.40684 | 11.29277 | 55° | 111km/h | 8702m | -9.3m/s | -38.1°C | 63.0% | 331.2hPa | 2.5V | 00:00:00 | 02:45:06 | 00:00:00 | |
| DB0DAN | 2026-08-31 01:29:55 | 53.40653 | 11.29199 | 56° | 106km/h | 8718m | -8.2m/s | -38.3°C | 61% | 330.31hPa | 2.5V | 00:00:00 | 00:00:00 | 00:00:00 | |
| AA1-15 | 2026-08-31 01:29:55 | 53.40471 | 11.28787 | 53° | 115km/h | 8798m | -8.4m/s | -38.4°C | 67.7% | 326.5hPa | 2.5V | 02:31:12 | 02:44:53 | 00:00:00 | |
| DM0DOS-11 | 2026-08-31 01:29:54 | 53.40401 | 11.28636 | 52° | 111km/h | 8829m | -6.9m/s | -38.9°C | 65.6% | 325.1hPa | 2.5V | 02:30:26 | 02:44:49 | 00:00:00 | |
| EDDB2-12 | 2026-08-31 01:29:50 | 53.40556 | 11.28975 | 53° | 108km/h | 8757m | -7.6m/s | -38.1°C | 56.9% | 328.5hPa | 2.5V | 00:00:00 | 00:00:00 | 00:00:00 | |
| BIOWL9-15 | 2026-08-31 01:29:47 | 53.40523 | 11.28901 | 52° | 110km/h | 8773m | -8.1m/s | -38.5°C | 57.2% | 327.8hPa | 2.5V | 00:00:00 | 00:00:00 | 00:00:00 | |
| DL1XH-west | 2026-08-31 01:29:41 | 53.40418 | 11.28674 | 52° | 111km/h | 8822m | -6.1m/s | -38.8°C | 67.1% | 325.4hPa | 2.5V | 02:31:12 | 02:44:50 | 00:00:00 | |
| DF8AY | 2026-08-31 01:29:41 | 53.40313 | 11.28447 | 53° | 113km/h | 8861m | -6.4m/s | -39.1°C | 65.2% | 323.6hPa | 2.5V | 02:31:12 | 02:44:44 | 00:00:00 | |
| DB0DAN | 2026-08-31 01:29:40 | 53.40401 | 11.28636 | 52° | 106km/h | 8829m | -6.9m/s | -38.9°C | 60.7% | 325.11hPa | 2.5V | 00:00:00 | 00:00:00 | 00:00:00 | |
| AA1-15 | 2026-08-31 01:29:39 | 53.40331 | 11.28486 | 53° | 113km/h | 8854m | -6.7m/s | -39.1°C | 65.9% | 323.9hPa | 2.6V | 02:31:12 | 02:44:45 | 00:00:00 | |
| DO2SHX-10 | 2026-08-31 01:29:39 | 53.40384 | 11.28599 | 52° | 113km/h | 8835m | -6.6m/s | -38.9°C | 65.7% | 324.8hPa | 2.5V | 00:00:00 | 02:44:48 | 00:00:00 | |
| DF8AY-15 | 2026-08-31 01:29:38 | 53.40366 | 11.28561 | 53° | 113km/h | 8842m | -6.4m/s | -38.9°C | 65.7% | 324.5hPa | 2.5V | 00:00:00 | 02:44:47 | 00:00:00 | |
| DL3AQ-11 | 2026-08-31 01:29:36 | 53.40313 | 11.28447 | 52° | 113km/h | 8861m | -6.4m/s | -39.1°C | 59.5% | 323.6hPa | 2.5V | 00:00:00 | 00:00:00 | 00:00:00 | |
| DM0DOS-11 | 2026-08-31 01:29:35 | 53.40228 | 11.28256 | 54° | 111km/h | 8896m | -7.9m/s | -39.6°C | 57.6% | 322hPa | 2.5V | 02:30:36 | 02:44:39 | 00:00:00 | |
| SMARD9-15 | 2026-08-31 01:29:35 | 53.40296 | 11.28409 | 52° | 113km/h | 8868m | -6.6m/s | -39.2°C | 58.7% | 323.3hPa | 2.6V | 00:00:00 | 00:00:00 | 00:00:00 | |
| DO2SHX-10 | 2026-08-31 01:29:33 | 53.40279 | 11.28371 | 54° | 113km/h | 8875m | -6.9m/s | -39.2°C | 62.5% | 323.0hPa | 2.6V | 00:00:00 | 02:44:42 | 00:00:00 | |
| DL1XH-15 | 2026-08-31 01:29:32 | 53.40179 | 11.28145 | 51° | 110km/h | 8922m | -9.8m/s | -39.9°C | 47.5% | 320.8hPa | 2.6V | 02:30:39 | 02:44:36 | 00:00:00 | |
| DF8AY | 2026-08-31 01:29:31 | 53.40245 | 11.28294 | 54° | 111km/h | 8888m | -6.2m/s | -39.4°C | 60% | 322.4hPa | 2.6V | 02:31:12 | 02:44:40 | 00:00:00 | |
| DL1XH-west | 2026-08-31 01:29:30 | 53.40228 | 11.28256 | 54° | 111km/h | 8896m | -7.9m/s | -39.6°C | 58.3% | 322hPa | 2.5V | 02:31:12 | 02:44:39 | 00:00:00 | |
| DO2SHX-10 | 2026-08-31 01:29:30 | 53.40228 | 11.28256 | 55° | 110km/h | 8896m | -7.9m/s | -39.5°C | 57.6% | 321.9hPa | 2.6V | 00:00:00 | 02:44:39 | 00:00:00 | |
| S3001 | 2026-08-31 01:29:28 | 53.40179 | 11.28145 | 51° | 108km/h | 8922m | -9.8m/s | -39.9°C | 43.3% | 320.8hPa | 2.6V | 00:00:00 | 00:00:00 | 00:00:00 | |
| DO2SHX-10 | 2026-08-31 01:29:27 | 53.40179 | 11.28145 | 52° | 111km/h | 8922m | -9.8m/s | -39.9°C | 47.5% | 320.7hPa | 2.6V | 02:30:00 | 02:44:36 | 00:00:00 | |
| DL1XH1-15 | 2026-08-31 01:29:26 | 53.40070 | 11.27919 | 51° | 119km/h | 8979m | -10.3m/s | -40.4°C | 34.1% | 318.2hPa | 2.6V | 02:30:45 | 02:44:30 | 00:00:00 | |
| DB0DAN | 2026-08-31 01:29:25 | 53.40143 | 11.28072 | 51° | 108km/h | 8941m | -8.7m/s | -40°C | 39.3% | 319.9hPa | 2.6V | 00:00:00 | 00:00:00 | 00:00:00 | |
| AA1-15 | 2026-08-31 01:29:25 | 53.40143 | 11.28072 | 51° | 113km/h | 8941m | -8.7m/s | -40°C | 45.2% | 319.9hPa | 2.6V | 02:31:12 | 02:44:34 | 00:00:00 | |
| DO2SHX-10 | 2026-08-31 01:29:24 | 53.40125 | 11.28034 | 52° | 117km/h | 8950m | -9.7m/s | -40.1°C | 41.4% | 319.4hPa | 2.5V | 00:00:00 | 02:44:33 | 00:00:00 | |
| DL1XH-15 | 2026-08-31 01:29:22 | 53.39998 | 11.27762 | 53° | 113km/h | 9019m | -9.1m/s | -40.5°C | 23.4% | 316.3hPa | 2.5V | 02:30:49 | 02:44:26 | 00:00:00 | |
| DF8AY | 2026-08-31 01:29:21 | 53.40070 | 11.27919 | 51° | 119km/h | 8979m | -10.3m/s | -40.4°C | 37.3% | 318.2hPa | 2.6V | 02:31:12 | 02:44:30 | 00:00:00 | |
| DL1XH-west | 2026-08-31 01:29:20 | 53.40051 | 11.27880 | 52° | 119km/h | 8990m | -10.2m/s | -40.4°C | 34.3% | 317.7hPa | 2.6V | 02:31:12 | 02:44:29 | 00:00:00 | |
| BIOWL1-15 | 2026-08-31 01:29:17 | 53.39998 | 11.27762 | 53° | 113km/h | 9019m | -9.1m/s | -40.5°C | 25.9% | 316.3hPa | 2.5V | 02:31:12 | 02:44:26 | 00:00:00 | |
| DL4BBY-15 | 2026-08-31 01:29:17 | 53.39997 | 11.27762 | 54° | 111km/h | 9019m | -9.0m/s | -41.0°C | 0% | 0hPa | 2.5V | 00:00:00 | 00:00:00 | 00:00:00 | |
| DL1XH1-15 | 2026-08-31 01:29:16 | 53.39895 | 11.27542 | 51° | 108km/h | 9074m | -9.6m/s | -40.8°C | 15.4% | 313.8hPa | 2.5V | 02:30:55 | 02:44:20 | 00:00:00 | |
| DM0DOS-11 | 2026-08-31 01:29:15 | 53.39878 | 11.27506 | 51° | 108km/h | 9083m | -9.9m/s | -40.9°C | 15.4% | 313.3hPa | 2.6V | 02:30:56 | 02:44:19 | 00:00:00 | |
| AA1-15 | 2026-08-31 01:29:15 | 53.39964 | 11.27686 | 52° | 111km/h | 9036m | -9.4m/s | -40.6°C | 21.9% | 315.6hPa | 2.6V | 02:31:12 | 02:44:24 | 00:00:00 | |
| DO2SHX-10 | 2026-08-31 01:29:15 | 53.39964 | 11.27686 | 53° | 110km/h | 9036m | -9.3m/s | -40.6°C | 19.5% | 315.5hPa | 2.6V | 00:00:00 | 02:44:24 | 00:00:00 | |
| DO2SHX-10 | 2026-08-31 01:29:12 | 53.39912 | 11.27577 | 52° | 108km/h | 9064m | -8.8m/s | -40.7°C | 15.6% | 314.1hPa | 2.6V | 00:00:00 | 02:44:21 | 00:00:00 | |
| DB0DAN | 2026-08-31 01:29:10 | 53.39878 | 11.27506 | 51° | 102km/h | 9083m | -9.9m/s | -40.9°C | 13.1% | 313.31hPa | 2.6V | 00:00:00 | 00:00:00 | 00:00:00 | |
| DF8AY | 2026-08-31 01:29:10 | 53.39878 | 11.27506 | 51° | 108km/h | 9083m | -9.9m/s | -40.9°C | 17.1% | 313.3hPa | 2.6V | 02:31:12 | 02:44:19 | 00:00:00 | |
| DL1XH-west | 2026-08-31 01:29:09 | 53.39861 | 11.27471 | 52° | 108km/h | 9093m | -9.6m/s | -41°C | 16.9% | 312.8hPa | 2.6V | 02:31:12 | 02:44:18 | 00:00:00 | |
| BIOWL1-15 | 2026-08-31 01:29:06 | 53.39811 | 11.27359 | 54° | 113km/h | 9119m | -8.6m/s | -41.1°C | 16.3% | 311.6hPa | 2.5V | 02:31:12 | 02:44:15 | 00:00:00 | |
| DL1XH1-15 | 2026-08-31 01:29:06 | 53.39722 | 11.27168 | 50° | 113km/h | 9160m | -8.4m/s | -41.5°C | 14.4% | 309.9hPa | 2.5V | 02:31:05 | 02:44:10 | 00:00:00 | |
| DM0DOS-11 | 2026-08-31 01:29:06 | 53.39705 | 11.27131 | 52° | 111km/h | 9167m | -6.4m/s | -41.5°C | 14.5% | 309.4hPa | 2.5V | 02:31:06 | 02:44:09 | 00:00:00 | |
| AA1-15 | 2026-08-31 01:29:04 | 53.39776 | 11.27281 | 52° | 117km/h | 9137m | -8.3m/s | -41.3°C | 16.2% | 310.8hPa | 2.6V | 02:31:12 | 02:44:13 | 00:00:00 | |
| BIOWL1-15 | 2026-08-31 01:29:00 | 53.39546 | 11.26794 | 52° | 111km/h | 9213m | -5.1m/s | -41.9°C | 16% | 307.3hPa | 2.5V | 02:32:03 | 02:44:00 | 00:00:00 | |
| DF8AY | 2026-08-31 01:29:00 | 53.39704 | 11.27131 | 52° | 111km/h | 9167m | -6.4m/s | -41.5°C | 16% | 309.4hPa | 2.5V | 02:31:12 | 02:44:09 | 00:00:00 | |
| DL1XH-west | 2026-08-31 01:28:58 | 53.39670 | 11.27056 | 52° | 113km/h | 9180m | -5.6m/s | -41.6°C | 16% | 308.7hPa | 2.6V | 02:31:12 | 02:44:07 | 00:00:00 | |
| S3001 | 2026-08-31 01:28:57 | 53.39634 | 11.26981 | 52° | 111km/h | 9189m | -4.6m/s | -41.6°C | 11.9% | 308.3hPa | 2.5V | 00:00:00 | 00:00:00 | 00:00:00 | |
| DL1XH1-15 | 2026-08-31 01:28:56 | 53.39547 | 11.26794 | 52° | 111km/h | 9213m | -5.1m/s | -41.9°C | 14.5% | 307.3hPa | 2.5V | 02:31:15 | 02:44:00 | 00:00:00 | |
| DL3AQ-11 | 2026-08-31 01:28:56 | 53.39617 | 11.26943 | 52° | 111km/h | 9194m | -4.8m/s | -41.6°C | 11.8% | 308.1hPa | 2.5V | 00:00:00 | 00:00:00 | 00:00:00 | |
| DM0DOS-11 | 2026-08-31 01:28:55 | 53.39529 | 11.26756 | 51° | 113km/h | 9218m | -3.9m/s | -41.9°C | 14.7% | 307hPa | 2.5V | 02:31:16 | 02:43:59 | 00:00:00 | |
| DB0DAN | 2026-08-31 01:28:55 | 53.39617 | 11.26943 | 52° | 108km/h | 9194m | -4.8m/s | -41.6°C | 11.8% | 308.12hPa | 2.5V | 00:00:00 | 00:00:00 | 00:00:00 | |
| AA1-15 | 2026-08-31 01:28:53 | 53.39582 | 11.26868 | 51° | 113km/h | 9204m | -4.8m/s | -41.8°C | 15.8% | 307.6hPa | 2.6V | 02:32:03 | 02:44:02 | 00:00:00 | |
| DL1XH-15 | 2026-08-31 01:28:53 | 53.39476 | 11.26644 | 52° | 113km/h | 9231m | -4.4m/s | -42°C | 14.9% | 306.4hPa | 2.6V | 02:31:19 | 02:43:56 | 00:00:00 | |
| DF8AY | 2026-08-31 01:28:50 | 53.39529 | 11.26756 | 52° | 113km/h | 9218m | -3.9m/s | -41.9°C | 16.1% | 307hPa | 2.5V | 02:32:03 | 02:43:59 | 00:00:00 | |
| DL1XH-west | 2026-08-31 01:28:47 | 53.39476 | 11.26644 | 52° | 113km/h | 9231m | -4.4m/s | -42°C | 16.3% | 306.4hPa | 2.6V | 02:32:03 | 02:43:56 | 00:00:00 | |
| DK1YY | 2026-08-31 01:28:46 | 53.39458 | 11.26606 | 52° | 113km/h | 9236m | -5.5m/s | -42.0°C | 12.6% | 306.1hPa | 2.6V | 00:00:00 | 00:00:00 | 00:00:00 | |
| BIOWL9-15 | 2026-08-31 01:28:45 | 53.39440 | 11.26568 | 51° | 113km/h | 9241m | -5.1m/s | -42.0°C | 12.7% | 306.0hPa | 2.6V | 00:00:00 | 00:00:00 | 00:00:00 | |
| AA1-15 | 2026-08-31 01:28:42 | 53.39388 | 11.26456 | 52° | 111km/h | 9257m | -5m/s | -42°C | 16.9% | 305.2hPa | 2.6V | 02:32:03 | 02:43:51 | 00:00:00 | |
| BIOWL1-15 | 2026-08-31 01:28:41 | 53.39370 | 11.26419 | 51° | 111km/h | 9262m | -5.6m/s | -42.1°C | 17% | 305hPa | 2.6V | 02:32:03 | 02:43:50 | 00:00:00 | |
| DF8AY | 2026-08-31 01:28:41 | 53.39334 | 11.26345 | 51° | 111km/h | 9274m | -6.1m/s | -42.2°C | 17.3% | 304.5hPa | 2.5V | 02:32:03 | 02:43:48 | 00:00:00 | |
| DB0DAN | 2026-08-31 01:28:40 | 53.39352 | 11.26382 | 51° | 108km/h | 9268m | -6m/s | -42.1°C | 12.9% | 304.71hPa | 2.5V | 00:00:00 | 00:00:00 | 00:00:00 | |
| SONCRA | 2026-08-31 01:28:40 | 53.39352 | 11.26382 | 51° | 111km/h | 9268m | -6.0m/s | -42.1°C | 12.9% | 304.7hPa | 2.6V | 00:00:00 | 00:00:00 | 00:00:00 | |
| DO2SHX-10 | 2026-08-31 01:28:39 | 53.39334 | 11.26345 | 51° | 111km/h | 9274m | -6.0m/s | -42.1°C | 15.4% | 304.4hPa | 2.6V | 00:00:00 | 02:43:48 | 00:00:00 | |
| DD8BA-10 | 2026-08-31 01:28:38 | 53.39317 | 11.26308 | 51° | 111km/h | 9280m | -6.1m/s | -42.2°C | 15.6% | 304.1hPa | 2.6V | 00:00:00 | 00:00:00 | 00:00:00 | |
| SONDE2-11 | 2026-08-31 01:28:37 | 53.39299 | 11.26272 | 50° | 111km/h | 9286m | -6.0m/s | -42.3°C | 13.3% | 303.9hPa | 2.6V | 00:00:00 | 00:00:00 | 00:00:00 | |
| DL1XH1-15 | 2026-08-31 01:28:36 | 53.39192 | 11.26050 | 51° | 111km/h | 9325m | -6.6m/s | -42.6°C | 16.7% | 302.2hPa | 2.6V | 02:31:35 | 02:43:40 | 00:00:00 | |
| DL1XH-west | 2026-08-31 01:28:36 | 53.39281 | 11.26235 | 51° | 111km/h | 9292m | -6.4m/s | -42.4°C | 17.9% | 303.7hPa | 2.6V | 02:32:03 | 02:43:45 | 00:00:00 | |
| AA1-15 | 2026-08-31 01:28:32 | 53.39210 | 11.26087 | 52° | 111km/h | 9318m | -6.6m/s | -42.6°C | 18.6% | 302.5hPa | 2.6V | 02:32:03 | 02:43:41 | 00:00:00 | |
| BIOWL1-15 | 2026-08-31 01:28:30 | 53.39069 | 11.25792 | 52° | 111km/h | 9377m | -7.2m/s | -43.4°C | 19.5% | 299.9hPa | 2.6V | 02:32:03 | 02:43:33 | 00:00:00 | |
| DO2SHX-10 | 2026-08-31 01:28:30 | 53.39175 | 11.26013 | 52° | 111km/h | 9332m | -6.6m/s | -42.8°C | 17.0% | 301.9hPa | 2.5V | 00:00:00 | 02:43:39 | 00:00:00 | |
| DL1XH-15 | 2026-08-31 01:28:29 | 53.39122 | 11.25903 | 51° | 111km/h | 9353m | -7.5m/s | -43.2°C | 17.4% | 301hPa | 2.5V | 02:31:39 | 02:43:36 | 00:00:00 | |
| DF8AY | 2026-08-31 01:28:29 | 53.39157 | 11.25976 | 51° | 111km/h | 9338m | -7.3m/s | -43°C | 19.2% | 301.7hPa | 2.5V | 02:32:03 | 02:43:38 | 00:00:00 | |
| DD8BA-10 | 2026-08-31 01:28:28 | 53.39140 | 11.25940 | 52° | 111km/h | 9346m | -7.4m/s | -43.0°C | 17.3% | 301.3hPa | 2.5V | 00:00:00 | 00:00:00 | 00:00:00 | |
| DO2SHX-10 | 2026-08-31 01:28:27 | 53.39122 | 11.25903 | 52° | 111km/h | 9353m | -7.4m/s | -43.1°C | 17.4% | 301.0hPa | 2.5V | 00:00:00 | 02:43:36 | 00:00:00 | |
| DL1XH1-15 | 2026-08-31 01:28:26 | 53.39016 | 11.25682 | 50° | 111km/h | 9402m | -7.3m/s | -43.6°C | 17.8% | 298.8hPa | 2.5V | 02:31:45 | 02:43:30 | 00:00:00 | |
| DB0DAN | 2026-08-31 01:28:25 | 53.39086 | 11.25829 | 51° | 108km/h | 9370m | -7.7m/s | -43.4°C | 14.7% | 300.3hPa | 2.6V | 00:00:00 | 00:00:00 | 00:00:00 | |
| DL1XH-west | 2026-08-31 01:28:25 | 53.39086 | 11.25829 | 51° | 113km/h | 9370m | -7.7m/s | -43.4°C | 19.6% | 300.3hPa | 2.6V | 02:32:03 | 02:43:34 | 00:00:00 | |
| DO2SHX-10 | 2026-08-31 01:28:24 | 53.39069 | 11.25792 | 52° | 111km/h | 9377m | -7.2m/s | -43.4°C | 17.2% | 299.9hPa | 2.6V | 02:31:00 | 02:43:33 | 00:00:00 | |
| TFSTFS | 2026-08-31 01:28:23 | 53.39069 | 11.25792 | 53° | 111km/h | 9377m | -7.2m/s | -43.4°C | 14.5% | 299.9hPa | 2.5V | 02:32:00 | 00:00:00 | 00:00:00 | |
| DL1XH-15 | 2026-08-31 01:28:22 | 53.38945 | 11.25535 | 51° | 111km/h | 9431m | -8.3m/s | -43.9°C | 17.4% | 297.6hPa | 2.5V | 02:31:49 | 02:43:26 | 00:00:00 | |
| AA1-15 | 2026-08-31 01:28:21 | 53.39016 | 11.25682 | 51° | 111km/h | 9402m | -7.3m/s | -43.6°C | 19.8% | 298.8hPa | 2.5V | 02:32:03 | 02:43:30 | 00:00:00 | |
| DF8AY | 2026-08-31 01:28:18 | 53.38963 | 11.25571 | 51° | 111km/h | 9423m | -6.8m/s | -43.8°C | 19.8% | 297.9hPa | 2.6V | 02:32:03 | 02:43:27 | 00:00:00 | |
| BIOWL1-15 | 2026-08-31 01:28:17 | 53.38945 | 11.25535 | 52° | 111km/h | 9431m | -8.3m/s | -43.9°C | 19.8% | 297.6hPa | 2.5V | 02:32:03 | 02:43:26 | 00:00:00 | |
| EDDB2-12 | 2026-08-31 01:28:17 | 53.38928 | 11.25498 | 51° | 110km/h | 9438m | -7.6m/s | -43.9°C | 14.7% | 297.2hPa | 2.5V | 00:00:00 | 00:00:00 | 00:00:00 | |
| DL1XH1-15 | 2026-08-31 01:28:16 | 53.38839 | 11.25315 | 51° | 111km/h | 9474m | -6.8m/s | -44.2°C | 18% | 295.7hPa | 2.5V | 02:31:55 | 02:43:20 | 00:00:00 | |
| DL3AQ-11 | 2026-08-31 01:28:16 | 53.38910 | 11.25462 | 50° | 110km/h | 9446m | -8.2m/s | -44.0°C | 14.7% | 296.9hPa | 2.5V | 00:00:00 | 00:00:00 | 00:00:00 | |
| DM0DOS-11 | 2026-08-31 01:28:15 | 53.38821 | 11.25278 | 51° | 111km/h | 9480m | -6.9m/s | -44.3°C | 18.3% | 295.3hPa | 2.5V | 02:31:56 | 02:43:19 | 00:00:00 | |
| DL1XH-west | 2026-08-31 01:28:14 | 53.38892 | 11.25426 | 50° | 111km/h | 9453m | -6.7m/s | -43.9°C | 19.8% | 296.5hPa | 2.6V | 02:32:03 | 02:43:23 | 00:00:00 | |
| DL1XH-15 | 2026-08-31 01:28:12 | 53.38768 | 11.25169 | 51° | 111km/h | 9501m | -5.5m/s | -44.3°C | 18.5% | 294.4hPa | 2.6V | 02:31:59 | 02:43:16 | 00:00:00 | |
| DO2SHX-10 | 2026-08-31 01:28:12 | 53.38856 | 11.25352 | 51° | 111km/h | 9467m | -6.6m/s | -44.0°C | 17.9% | 295.9hPa | 2.5V | 00:00:00 | 02:43:21 | 00:00:00 | |
| DB0DAN | 2026-08-31 01:28:10 | 53.38821 | 11.25278 | 51° | 106km/h | 9481m | -6.9m/s | -44.3°C | 15.4% | 295.33hPa | 2.5V | 00:00:00 | 00:00:00 | 00:00:00 | |
| AA1-15 | 2026-08-31 01:28:10 | 53.38821 | 11.25278 | 51° | 111km/h | 9481m | -6.9m/s | -44.3°C | 20.1% | 295.3hPa | 2.5V | 02:32:03 | 02:43:19 | 00:00:00 | |
| DF8AY | 2026-08-31 01:28:08 | 53.38786 | 11.25205 | 51° | 111km/h | 9494m | -6.7m/s | -44.3°C | 20.3% | 294.7hPa | 2.6V | 02:32:03 | 02:43:17 | 00:00:00 | |
| BIOWL1-15 | 2026-08-31 01:28:06 | 53.38696 | 11.25024 | 50° | 113km/h | 9521m | -5m/s | -44.5°C | 20.9% | 293.5hPa | 2.6V | 02:32:03 | 02:43:12 | 00:00:00 | |
| DL1XH1-15 | 2026-08-31 01:28:06 | 53.38659 | 11.24950 | 50° | 113km/h | 9533m | -6.1m/s | -44.6°C | 18.5% | 292.9hPa | 2.6V | 02:32:05 | 02:43:10 | 00:00:00 | |
| DM0DOS-11 | 2026-08-31 01:28:05 | 53.38641 | 11.24914 | 50° | 113km/h | 9540m | -7.1m/s | -44.7°C | 18.5% | 292.7hPa | 2.5V | 02:32:06 | 02:43:09 | 00:00:00 | |
| DL1XH-west | 2026-08-31 01:28:04 | 53.38714 | 11.25060 | 50° | 111km/h | 9516m | -5m/s | -44.4°C | 20.9% | 293.6hPa | 2.5V | 02:32:03 | 02:43:13 | 00:00:00 | |
| TFSTFS | 2026-08-31 01:28:03 | 53.38696 | 11.25024 | 51° | 113km/h | 9522m | -5.0m/s | -44.5°C | 15.9% | 293.5hPa | 2.5V | 02:32:00 | 00:00:00 | 00:00:00 | |
| DL1XH-15 | 2026-08-31 01:28:02 | 53.38586 | 11.24802 | 50° | 113km/h | 9559m | -6.3m/s | -44.9°C | 18.8% | 291.8hPa | 2.5V | 02:32:09 | 02:43:06 | 00:00:00 | |
| AA1-15 | 2026-08-31 01:27:59 | 53.38623 | 11.24877 | 50° | 113km/h | 9547m | -6.9m/s | -44.7°C | 20.9% | 292.4hPa | 2.5V | 02:32:54 | 02:43:08 | 00:00:00 | |
| DF8AY | 2026-08-31 01:27:58 | 53.38604 | 11.24839 | 50° | 113km/h | 9553m | -6.5m/s | -44.8°C | 21% | 292.1hPa | 2.5V | 02:32:54 | 02:43:07 | 00:00:00 | |
| DF8AY-15 | 2026-08-31 01:27:58 | 53.38604 | 11.24839 | 51° | 113km/h | 9554m | -6.5m/s | -44.7°C | 18.7% | 292.0hPa | 2.5V | 02:32:00 | 02:43:07 | 00:00:00 | |
| DO2SHX-10 | 2026-08-31 01:27:57 | 53.38586 | 11.24803 | 51° | 113km/h | 9560m | -6.3m/s | -44.8°C | 18.8% | 291.8hPa | 2.5V | 02:32:00 | 02:43:06 | 00:00:00 | |
| DL1XH1-15 | 2026-08-31 01:27:56 | 53.38476 | 11.24582 | 49° | 113km/h | 9594m | -5.1m/s | -45.2°C | 19.6% | 290.3hPa | 2.5V | 02:32:15 | 02:43:00 | 00:00:00 | |
| DB0DAN | 2026-08-31 01:27:55 | 53.38549 | 11.24729 | 50° | 110km/h | 9572m | -6.2m/s | -44.8°C | 15.9% | 291.25hPa | 2.6V | 00:00:00 | 00:00:00 | 00:00:00 | |
| DM0DOS-11 | 2026-08-31 01:27:55 | 53.38457 | 11.24545 | 49° | 113km/h | 9599m | -5.5m/s | -45.2°C | 19.7% | 290hPa | 2.6V | 02:32:16 | 02:42:59 | 00:00:00 | |
| BIOWL1-15 | 2026-08-31 01:27:54 | 53.38494 | 11.24618 | 50° | 113km/h | 9589m | -5.7m/s | -45°C | 21.3% | 290.5hPa | 2.5V | 02:32:54 | 02:43:01 | 00:00:00 | |
| DL1XH-west | 2026-08-31 01:27:53 | 53.38512 | 11.24655 | 50° | 113km/h | 9583m | -6.1m/s | -45°C | 21.2% | 290.7hPa | 2.5V | 02:32:54 | 02:43:02 | 00:00:00 | |
| DL1XH-15 | 2026-08-31 01:27:52 | 53.38402 | 11.24435 | 50° | 113km/h | 9617m | -6.4m/s | -45.3°C | 20% | 289.3hPa | 2.5V | 02:32:19 | 02:42:56 | 00:00:00 | |
| AA1-15 | 2026-08-31 01:27:48 | 53.38420 | 11.24472 | 51° | 113km/h | 9611m | -6.4m/s | -45.2°C | 21.8% | 289.6hPa | 2.5V | 02:32:54 | 02:42:57 | 00:00:00 | |
| DF8AY | 2026-08-31 01:27:47 | 53.38402 | 11.24435 | 50° | 113km/h | 9617m | -6.4m/s | -45.3°C | 22% | 289.3hPa | 2.5V | 02:32:54 | 02:42:56 | 00:00:00 | |
| DL4BBY-15 | 2026-08-31 01:27:47 | 53.38402 | 11.24434 | 51° | 115km/h | 9618m | -6.4m/s | -45.8°C | 0% | 0hPa | 2.5V | 00:00:00 | 00:00:00 | 00:00:00 | |
| DL1XH1-15 | 2026-08-31 01:27:46 | 53.38291 | 11.24214 | 49° | 113km/h | 9655m | -5.9m/s | -45.5°C | 20.1% | 287.7hPa | 2.5V | 02:32:25 | 02:42:50 | 00:00:00 | |
| EDDB2-12 | 2026-08-31 01:27:46 | 53.38365 | 11.24361 | 49° | 113km/h | 9630m | -6.7m/s | -45.4°C | 16.9% | 288.7hPa | 2.5V | 00:00:00 | 00:00:00 | 00:00:00 | |
| DM0DOS-11 | 2026-08-31 01:27:45 | 53.38272 | 11.24178 | 48° | 113km/h | 9661m | -6.3m/s | -45.6°C | 20.1% | 287.4hPa | 2.5V | 02:32:26 | 02:42:49 | 00:00:00 | |
| BIOWL1-15 | 2026-08-31 01:27:44 | 53.38235 | 11.24105 | 50° | 115km/h | 9674m | -7.1m/s | -45.9°C | 22.8% | 286.9hPa | 2.6V | 02:32:54 | 02:42:47 | 00:00:00 | |
| DL1XH-west | 2026-08-31 01:27:42 | 53.38309 | 11.24251 | 50° | 113km/h | 9649m | -6m/s | -45.5°C | 22.4% | 287.9hPa | 2.5V | 02:32:54 | 02:42:51 | 00:00:00 | |
| DO2SHX-10 | 2026-08-31 01:27:42 | 53.38309 | 11.24251 | 51° | 113km/h | 9649m | -5.9m/s | -45.4°C | 20.0% | 287.8hPa | 2.5V | 00:00:00 | 02:42:51 | 00:00:00 | |
| DB0DAN | 2026-08-31 01:27:40 | 53.38272 | 11.24178 | 49° | 108km/h | 9661m | -6.4m/s | -45.6°C | 16.9% | 287.36hPa | 2.5V | 00:00:00 | 00:00:00 | 00:00:00 | |
| DF8AY | 2026-08-31 01:27:37 | 53.38216 | 11.24068 | 50° | 113km/h | 9681m | -6.7m/s | -46°C | 22.8% | 286.6hPa | 2.6V | 02:32:54 | 02:42:46 | 00:00:00 | |
| EDDB2-11 | 2026-08-31 01:27:36 | 53.38179 | 11.23994 | 49° | 113km/h | 9694m | -6.9m/s | -46.0°C | 17.6% | 286.0hPa | 2.5V | 00:00:00 | 00:00:00 | 00:00:00 | |
| DM0DOS-11 | 2026-08-31 01:27:35 | 53.38085 | 11.23810 | 49° | 115km/h | 9724m | -5.8m/s | -46.1°C | 20.7% | 284.7hPa | 2.5V | 02:32:36 | 02:42:39 | 00:00:00 | |
| SONDE2-11 | 2026-08-31 01:27:35 | 53.38160 | 11.23957 | 50° | 113km/h | 9701m | -6.4m/s | -45.9°C | 17.5% | 285.7hPa | 2.6V | 00:00:00 | 00:00:00 | 00:00:00 | |
| DO2SHX-10 | 2026-08-31 01:27:33 | 53.38142 | 11.23920 | 50° | 115km/h | 9707m | -5.9m/s | -45.8°C | 20.6% | 285.4hPa | 2.6V | 00:00:00 | 02:42:42 | 00:00:00 | |
| DL1XH-15 | 2026-08-31 01:27:32 | 53.38029 | 11.23699 | 48° | 115km/h | 9742m | -6m/s | -46.3°C | 20.7% | 284hPa | 2.6V | 02:32:39 | 02:42:36 | 00:00:00 | |
| BIOWL1-15 | 2026-08-31 01:27:32 | 53.38123 | 11.23884 | 49° | 115km/h | 9713m | -6.1m/s | -46°C | 23.2% | 285.2hPa | 2.6V | 02:32:54 | 02:42:41 | 00:00:00 | |
| AA1-15 | 2026-08-31 01:27:26 | 53.38010 | 11.23663 | 49° | 115km/h | 9748m | -6.1m/s | -46.3°C | 23.4% | 283.7hPa | 2.6V | 02:32:54 | 02:42:35 | 00:00:00 | |
| DB0DAN | 2026-08-31 01:27:25 | 53.37990 | 11.23626 | 49° | 111km/h | 9754m | -5.1m/s | -46.3°C | 17.5% | 283.48hPa | 2.6V | 00:00:00 | 00:00:00 | 00:00:00 | |
| DF7ER-10 | 2026-08-31 01:27:24 | 53.37990 | 11.23626 | 50° | 117km/h | 9754m | -5.1m/s | -46.3°C | 17.5% | 283.5hPa | 2.5V | 02:32:00 | 00:00:00 | 00:00:00 | |
| DL3AQ-11 | 2026-08-31 01:27:23 | 53.37934 | 11.23512 | 50° | 115km/h | 9771m | -5.6m/s | -46.3°C | 17.4% | 282.8hPa | 2.5V | 00:00:00 | 00:00:00 | 00:00:00 | |
| DL1XH-15 | 2026-08-31 01:27:22 | 53.37841 | 11.23327 | 50° | 115km/h | 9799m | -5m/s | -46.6°C | 21.8% | 281.6hPa | 2.5V | 02:32:49 | 02:42:26 | 00:00:00 | |
| DL1XH-west | 2026-08-31 01:27:21 | 53.37915 | 11.23475 | 50° | 115km/h | 9776m | -5.8m/s | -46.3°C | 23.5% | 282.5hPa | 2.5V | 02:32:54 | 02:42:30 | 00:00:00 | |
| DO2SHX-10 | 2026-08-31 01:27:21 | 53.37915 | 11.23475 | 51° | 115km/h | 9776m | -5.8m/s | -46.3°C | 20.9% | 282.4hPa | 2.5V | 02:32:00 | 02:42:30 | 00:00:00 | |
| SP3BTT-10 | 2026-08-31 01:27:20 | 53.37897 | 11.23438 | 51° | 113km/h | 9782m | -5.8m/s | -46.3°C | 21.2% | 282.2hPa | 2.5V | 00:00:00 | 00:00:00 | 00:00:00 | |
| DO2SHX-10 | 2026-08-31 01:27:18 | 53.37860 | 11.23364 | 51° | 115km/h | 9794m | -5.4m/s | -46.5°C | 21.7% | 281.8hPa | 2.5V | 00:00:00 | 02:42:27 | 00:00:00 | |
| DO9LL-15 | 2026-08-31 01:27:17 | 53.37841 | 11.23327 | 51° | 115km/h | 9799m | -4.9m/s | -46.6°C | 21.8% | 281.5hPa | 2.5V | 00:00:00 | 02:42:26 | 00:00:00 | |
| DL1XH1-15 | 2026-08-31 01:27:16 | 53.37729 | 11.23102 | 51° | 115km/h | 9832m | -6.2m/s | -47.2°C | 22.2% | 280.1hPa | 2.5V | 02:32:55 | 02:42:20 | 00:00:00 | |
| DF8AY | 2026-08-31 01:27:16 | 53.37823 | 11.23290 | 50° | 113km/h | 9804m | -5.3m/s | -46.8°C | 24.1% | 281.3hPa | 2.5V | 02:32:54 | 02:42:25 | 00:00:00 | |
| AA1-15 | 2026-08-31 01:27:15 | 53.37804 | 11.23253 | 50° | 115km/h | 9809m | -5.7m/s | -46.9°C | 24.3% | 281.2hPa | 2.5V | 02:32:54 | 02:42:24 | 00:00:00 | |
| DO2SHX-10 | 2026-08-31 01:27:15 | 53.37804 | 11.23253 | 50° | 115km/h | 9810m | -5.7m/s | -46.9°C | 22.1% | 281.1hPa | 2.6V | 00:00:00 | 02:42:24 | 00:00:00 | |
| EDDB2-12 | 2026-08-31 01:27:14 | 53.37785 | 11.23216 | 49° | 115km/h | 9815m | -5.3m/s | -47.0°C | 18.8% | 280.8hPa | 2.6V | 00:00:00 | 00:00:00 | 00:00:00 | |
| DK1YY | 2026-08-31 01:27:13 | 53.37766 | 11.23178 | 50° | 115km/h | 9820m | -5.3m/s | -47.0°C | 18.8% | 280.6hPa | 2.6V | 00:00:00 | 00:00:00 | 00:00:00 | |
| DL1XH-15 | 2026-08-31 01:27:12 | 53.37655 | 11.22952 | 50° | 117km/h | 9856m | -6m/s | -47.5°C | 22.1% | 279.2hPa | 2.6V | 02:32:59 | 02:42:16 | 00:00:00 | |
| DO2SHX-10 | 2026-08-31 01:27:12 | 53.37748 | 11.23140 | 51° | 115km/h | 9826m | -5.6m/s | -47.1°C | 22.3% | 280.4hPa | 2.5V | 02:32:00 | 02:42:21 | 00:00:00 | |
| DB0DAN | 2026-08-31 01:27:10 | 53.37711 | 11.23065 | 51° | 110km/h | 9838m | -5.9m/s | -47.2°C | 18.6% | 279.9hPa | 2.5V | 00:00:00 | 00:00:00 | 00:00:00 | |
| BIOWL1-15 | 2026-08-31 01:27:10 | 53.37711 | 11.23065 | 51° | 115km/h | 9838m | -5.9m/s | -47.2°C | 24.5% | 279.9hPa | 2.5V | 02:33:45 | 02:42:19 | 00:00:00 | |
| DO2SHX-10 | 2026-08-31 01:27:09 | 53.37692 | 11.23027 | 50° | 115km/h | 9844m | -5.9m/s | -47.2°C | 22.2% | 279.6hPa | 2.6V | 00:00:00 | 02:42:18 | 00:00:00 | |
| DD8BA-10 | 2026-08-31 01:27:08 | 53.37674 | 11.22990 | 50° | 117km/h | 9850m | -6.0m/s | -47.4°C | 22.3% | 279.3hPa | 2.6V | 00:00:00 | 00:00:00 | 00:00:00 | |
| SONCRA | 2026-08-31 01:27:07 | 53.37655 | 11.22952 | 50° | 117km/h | 9856m | -6.0m/s | -47.5°C | 18.6% | 279.2hPa | 2.6V | 00:00:00 | 00:00:00 | 00:00:00 | |
| DL1XH1-15 | 2026-08-31 01:27:06 | 53.37544 | 11.22724 | 50° | 117km/h | 9892m | -5.4m/s | -47.6°C | 21.8% | 277.6hPa | 2.6V | 02:33:05 | 02:42:10 | 00:00:00 | |
| DF8AY | 2026-08-31 01:27:05 | 53.37618 | 11.22875 | 52° | 117km/h | 9868m | -6.3m/s | -47.4°C | 24.4% | 278.6hPa | 2.5V | 02:33:45 | 02:42:14 | 00:00:00 | |
| AA1-15 | 2026-08-31 01:27:04 | 53.37599 | 11.22837 | 51° | 115km/h | 9874m | -6m/s | -47.5°C | 24.4% | 278.3hPa | 2.5V | 02:33:45 | 02:42:13 | 00:00:00 | |
| SONDE2-11 | 2026-08-31 01:27:04 | 53.37581 | 11.22799 | 50° | 113km/h | 9880m | -6.2m/s | -47.6°C | 18.5% | 278.1hPa | 2.5V | 00:00:00 | 00:00:00 | 00:00:00 | |
| DO2SHX-10 | 2026-08-31 01:27:03 | 53.37581 | 11.22799 | 51° | 115km/h | 9880m | -6.2m/s | -47.5°C | 22.0% | 278.0hPa | 2.5V | 02:33:00 | 02:42:12 | 00:00:00 | |
| DM0DOS-11 | 2026-08-31 01:27:02 | 53.37526 | 11.22686 | 50° | 117km/h | 9897m | -5.7m/s | -47.7°C | 21.9% | 277.3hPa | 2.6V | 02:33:06 | 02:42:09 | 00:00:00 | |
| DL1XH-15 | 2026-08-31 01:27:02 | 53.37471 | 11.22570 | 52° | 115km/h | 9915m | -6.3m/s | -47.9°C | 22.2% | 276.6hPa | 2.5V | 02:33:09 | 02:42:06 | 00:00:00 | |
| DL1XH-west | 2026-08-31 01:26:59 | 53.37507 | 11.22648 | 51° | 117km/h | 9904m | -6m/s | -47.8°C | 24.4% | 277.1hPa | 2.5V | 02:33:45 | 02:42:08 | 00:00:00 | |
| DF8AY-15 | 2026-08-31 01:26:58 | 53.37488 | 11.22609 | 52° | 115km/h | 9909m | -5.9m/s | -47.8°C | 22.1% | 276.8hPa | 2.5V | 02:33:00 | 02:42:07 | 00:00:00 | |
| DO2SHX-10 | 2026-08-31 01:26:57 | 53.37471 | 11.22570 | 53° | 115km/h | 9915m | -6.2m/s | -47.9°C | 22.2% | 276.6hPa | 2.6V | 00:00:00 | 02:42:06 | 00:00:00 | |
| DL1XH1-15 | 2026-08-31 01:26:56 | 53.37362 | 11.22340 | 52° | 117km/h | 9950m | -6m/s | -48.1°C | 23.5% | 275.1hPa | 2.6V | 02:33:15 | 02:42:00 | 00:00:00 | |
| DL3AQ-11 | 2026-08-31 01:26:56 | 53.37435 | 11.22494 | 51° | 113km/h | 9927m | -5.9m/s | -47.9°C | 18.9% | 276.1hPa | 2.6V | 00:00:00 | 00:00:00 | 00:00:00 | |
| DB0DAN | 2026-08-31 01:26:55 | 53.37435 | 11.22494 | 51° | 110km/h | 9927m | -5.9m/s | -47.9°C | 18.9% | 276.07hPa | 2.6V | 00:00:00 | 00:00:00 | 00:00:00 | |
| DM0DOS-11 | 2026-08-31 01:26:55 | 53.37344 | 11.22301 | 52° | 115km/h | 9956m | -5.9m/s | -48.1°C | 23.9% | 274.9hPa | 2.6V | 02:33:16 | 02:41:59 | 00:00:00 | |
| DF8AY | 2026-08-31 01:26:54 | 53.37416 | 11.22456 | 51° | 115km/h | 9933m | -5.7m/s | -48°C | 24.8% | 275.9hPa | 2.5V | 02:33:45 | 02:42:03 | 00:00:00 | |
| AA1-15 | 2026-08-31 01:26:53 | 53.37398 | 11.22418 | 51° | 117km/h | 9939m | -5.9m/s | -48°C | 24.9% | 275.6hPa | 2.5V | 02:33:45 | 02:42:02 | 00:00:00 | |
| BIOWL1-15 | 2026-08-31 01:26:49 | 53.37326 | 11.22263 | 53° | 113km/h | 9961m | -5.3m/s | -48.2°C | 26.2% | 274.6hPa | 2.6V | 02:33:45 | 02:41:58 | 00:00:00 | |
| DL1XH-west | 2026-08-31 01:26:48 | 53.37309 | 11.22225 | 52° | 113km/h | 9967m | -5.8m/s | -48.1°C | 26.5% | 274.4hPa | 2.5V | 02:33:45 | 02:41:57 | 00:00:00 | |
| DO2SHX-10 | 2026-08-31 01:26:48 | 53.37309 | 11.22225 | 53° | 113km/h | 9967m | -5.8m/s | -48.1°C | 24.8% | 274.3hPa | 2.5V | 00:00:00 | 02:41:57 | 00:00:00 | |
| DL4BBY-15 | 2026-08-31 01:26:47 | 53.37292 | 11.22187 | 53° | 113km/h | 9972m | -5.8m/s | -48.7°C | 0% | 0hPa | 2.5V | 00:00:00 | 00:00:00 | 00:00:00 | |
| DL1XH1-15 | 2026-08-31 01:26:46 | 53.37187 | 11.21955 | 52° | 115km/h | 10008m | -6.8m/s | -48.6°C | 24.9% | 272.8hPa | 2.5V | 02:33:25 | 02:41:50 | 00:00:00 | |
| DM0DOS-11 | 2026-08-31 01:26:45 | 53.37170 | 11.21916 | 52° | 115km/h | 10016m | -7.7m/s | -48.7°C | 24.8% | 272.5hPa | 2.5V | 02:33:26 | 02:41:49 | 00:00:00 | |
| DF8AY | 2026-08-31 01:26:43 | 53.37222 | 11.22032 | 54° | 113km/h | 9996m | -5.8m/s | -48.4°C | 28% | 273.2hPa | 2.6V | 02:33:45 | 02:41:52 | 00:00:00 | |
| DL3AQ-11 | 2026-08-31 01:26:43 | 53.37205 | 11.21993 | 53° | 113km/h | 10002m | -6.2m/s | -48.5°C | 21.2% | 273.0hPa | 2.6V | 00:00:00 | 00:00:00 | 00:00:00 | |
| DL1XH-15 | 2026-08-31 01:26:42 | 53.37117 | 11.21798 | 54° | 113km/h | 10040m | -8.2m/s | -48.7°C | 26.3% | 271.5hPa | 2.6V | 02:33:29 | 02:41:46 | 00:00:00 | |
| AA1-15 | 2026-08-31 01:26:42 | 53.37205 | 11.21993 | 53° | 113km/h | 10002m | -6.2m/s | -48.5°C | 28.2% | 273hPa | 2.6V | 02:33:45 | 02:41:51 | 00:00:00 | |
| DO2SHX-10 | 2026-08-31 01:26:42 | 53.37205 | 11.21993 | 54° | 115km/h | 10002m | -6.1m/s | -48.4°C | 25.0% | 272.9hPa | 2.5V | 00:00:00 | 02:41:51 | 00:00:00 | |
| DB0DAN | 2026-08-31 01:26:40 | 53.37169 | 11.21916 | 53° | 111km/h | 10016m | -7.7m/s | -48.7°C | 21% | 272.49hPa | 2.5V | 00:00:00 | 00:00:00 | 00:00:00 | |
| BIOWL1-15 | 2026-08-31 01:26:38 | 53.37101 | 11.21760 | 54° | 113km/h | 10047m | -6.5m/s | -48.7°C | 29.6% | 271.1hPa | 2.5V | 02:33:45 | 02:41:45 | 00:00:00 | |
| DL1XH-west | 2026-08-31 01:26:38 | 53.37135 | 11.21838 | 54° | 115km/h | 10032m | -7.9m/s | -48.7°C | 28.9% | 271.9hPa | 2.6V | 02:33:45 | 02:41:47 | 00:00:00 | |
| DF8AY-15 | 2026-08-31 01:26:38 | 53.37134 | 11.21838 | 55° | 113km/h | 10032m | -7.8m/s | -48.7°C | 25.4% | 271.8hPa | 2.6V | 00:00:00 | 02:41:47 | 00:00:00 | |
| DL1XH1-15 | 2026-08-31 01:26:36 | 53.37017 | 11.21563 | 54° | 113km/h | 10079m | -6.1m/s | -49°C | 30.3% | 269.8hPa | 2.6V | 02:33:35 | 02:41:40 | 00:00:00 | |
| DO2SHX-10 | 2026-08-31 01:26:36 | 53.37101 | 11.21760 | 54° | 115km/h | 10047m | -6.5m/s | -48.7°C | 27.1% | 271.1hPa | 2.5V | 02:33:00 | 02:41:45 | 00:00:00 | |
| DM0DOS-11 | 2026-08-31 01:26:35 | 53.37000 | 11.21524 | 54° | 113km/h | 10085m | -5.7m/s | -49°C | 30.5% | 269.6hPa | 2.5V | 02:33:36 | 02:41:39 | 00:00:00 | |
| DF8AY | 2026-08-31 01:26:32 | 53.37033 | 11.21602 | 55° | 113km/h | 10073m | -6.3m/s | -48.9°C | 31.3% | 270.1hPa | 2.6V | 02:33:45 | 02:41:41 | 00:00:00 | |
| AA1-15 | 2026-08-31 01:26:31 | 53.37017 | 11.21563 | 55° | 113km/h | 10079m | -6.1m/s | -49°C | 31.8% | 269.8hPa | 2.6V | 02:33:45 | 02:41:40 | 00:00:00 | |
| DL1XH-15 | 2026-08-31 01:26:31 | 53.36950 | 11.21407 | 54° | 113km/h | 10105m | -6.9m/s | -49.1°C | 30.9% | 268.8hPa | 2.5V | 02:33:39 | 02:41:36 | 00:00:00 | |
| BIOWL1-15 | 2026-08-31 01:26:28 | 53.36934 | 11.21369 | 54° | 111km/h | 10111m | -6.2m/s | -49.2°C | 33.4% | 268.6hPa | 2.6V | 02:33:45 | 02:41:35 | 00:00:00 | |
| DL1XH-west | 2026-08-31 01:26:27 | 53.36950 | 11.21407 | 55° | 113km/h | 10105m | -6.9m/s | -49.1°C | 33.2% | 268.8hPa | 2.5V | 02:33:45 | 02:41:36 | 00:00:00 | |
| DO2SHX-10 | 2026-08-31 01:26:27 | 53.36950 | 11.21407 | 55° | 111km/h | 10105m | -6.9m/s | -49.0°C | 30.9% | 268.7hPa | 2.5V | 02:33:00 | 02:41:36 | 00:00:00 | |
| DB0DAN | 2026-08-31 01:26:25 | 53.36917 | 11.21331 | 54° | 108km/h | 10117m | -5.8m/s | -49.2°C | 25.9% | 268.27hPa | 2.6V | 00:00:00 | 00:00:00 | 00:00:00 | |
| DM0DOS-11 | 2026-08-31 01:26:25 | 53.36833 | 11.21137 | 53° | 113km/h | 10157m | -6.6m/s | -49.5°C | 31.2% | 266.6hPa | 2.6V | 02:33:46 | 02:41:29 | 00:00:00 | |
| DF8AY | 2026-08-31 01:26:22 | 53.36866 | 11.21214 | 55° | 113km/h | 10141m | -9.5m/s | -49.6°C | 33.8% | 267.4hPa | 2.5V | 02:33:45 | 02:41:31 | 00:00:00 | |
| DL1XH-15 | 2026-08-31 01:26:21 | 53.36783 | 11.21020 | 54° | 113km/h | 10175m | -6.4m/s | -49.6°C | 30.8% | 265.9hPa | 2.5V | 02:33:49 | 02:41:26 | 00:00:00 | |
| AA1-15 | 2026-08-31 01:26:20 | 53.36833 | 11.21137 | 54° | 113km/h | 10157m | -6.6m/s | -49.5°C | 34% | 266.6hPa | 2.6V | 02:34:36 | 02:41:29 | 00:00:00 | |
| DL1XH-west | 2026-08-31 01:26:17 | 53.36783 | 11.21020 | 55° | 113km/h | 10175m | -6.4m/s | -49.6°C | 34.3% | 265.9hPa | 2.5V | 02:34:36 | 02:41:26 | 00:00:00 | |
| BIOWL1-15 | 2026-08-31 01:26:16 | 53.36766 | 11.20981 | 54° | 113km/h | 10182m | -6.6m/s | -49.7°C | 34.5% | 265.6hPa | 2.5V | 02:34:36 | 02:41:25 | 00:00:00 | |
| DL3AQ-11 | 2026-08-31 01:26:16 | 53.36750 | 11.20942 | 53° | 113km/h | 10188m | -6.5m/s | -49.8°C | 27.2% | 265.4hPa | 2.6V | 00:00:00 | 00:00:00 | 00:00:00 | |
| DO2SHX-10 | 2026-08-31 01:26:15 | 53.36749 | 11.20942 | 54° | 113km/h | 10188m | -6.5m/s | -49.8°C | 31.8% | 265.3hPa | 2.6V | 00:00:00 | 02:41:24 | 00:00:00 | |
| DO9LL-15 | 2026-08-31 01:26:14 | 53.36733 | 11.20903 | 55° | 117km/h | 10195m | -5.8m/s | -49.9°C | 32.0% | 265.0hPa | 2.6V | 00:00:00 | 02:41:23 | 00:00:00 | |
| TFSTFS | 2026-08-31 01:26:13 | 53.36733 | 11.20903 | 55° | 113km/h | 10195m | -5.9m/s | -49.9°C | 27.4% | 265.1hPa | 2.6V | 02:34:00 | 00:00:00 | 00:00:00 | |
| DO2SHX-10 | 2026-08-31 01:26:12 | 53.36699 | 11.20825 | 56° | 113km/h | 10207m | -6.5m/s | -50.0°C | 32.0% | 264.5hPa | 2.6V | 00:00:00 | 02:41:21 | 00:00:00 | |
| DL1XH-15 | 2026-08-31 01:26:11 | 53.36615 | 11.20627 | 55° | 115km/h | 10238m | -5.5m/s | -50.2°C | 32.9% | 263.3hPa | 2.6V | 02:33:59 | 02:41:16 | 00:00:00 | |
| DB0DAN | 2026-08-31 01:26:10 | 53.36666 | 11.20746 | 54° | 110km/h | 10220m | -6.8m/s | -50.1°C | 28.3% | 264hPa | 2.5V | 00:00:00 | 00:00:00 | 00:00:00 | |
| AA1-15 | 2026-08-31 01:26:09 | 53.36649 | 11.20707 | 54° | 115km/h | 10226m | -6.5m/s | -50.2°C | 35.4% | 263.7hPa | 2.5V | 02:34:36 | 02:41:18 | 00:00:00 | |
| DL1XH-west | 2026-08-31 01:26:06 | 53.36599 | 11.20588 | 55° | 113km/h | 10244m | -6m/s | -50.2°C | 35.6% | 263hPa | 2.6V | 02:34:36 | 02:41:15 | 00:00:00 | |
| DO2SHX-10 | 2026-08-31 01:26:06 | 53.36599 | 11.20588 | 56° | 115km/h | 10244m | -6.0m/s | -50.1°C | 32.8% | 263.0hPa | 2.5V | 00:00:00 | 02:41:15 | 00:00:00 | |
| DM0DOS-11 | 2026-08-31 01:26:05 | 53.36499 | 11.20349 | 55° | 115km/h | 10283m | -6.6m/s | -50.5°C | 32.7% | 261.5hPa | 2.5V | 02:34:06 | 02:41:09 | 00:00:00 | |
| BIOWL1-15 | 2026-08-31 01:26:05 | 53.36582 | 11.20548 | 55° | 113km/h | 10250m | -6.4m/s | -50.3°C | 35.7% | 262.8hPa | 2.5V | 02:34:36 | 02:41:14 | 00:00:00 | |
| DF8AY | 2026-08-31 01:26:00 | 53.36499 | 11.20349 | 56° | 115km/h | 10283m | -6.6m/s | -50.5°C | 35.7% | 261.5hPa | 2.5V | 02:34:36 | 02:41:09 | 00:00:00 | |
| AA1-15 | 2026-08-31 01:25:58 | 53.36465 | 11.20268 | 55° | 117km/h | 10296m | -6.9m/s | -50.7°C | 35.8% | 261hPa | 2.5V | 02:34:36 | 02:41:07 | 00:00:00 | |
| DD8BA-10 | 2026-08-31 01:25:58 | 53.36465 | 11.20268 | 56° | 119km/h | 10296m | -6.8m/s | -50.6°C | 33.1% | 261.0hPa | 2.5V | 00:00:00 | 00:00:00 | 00:00:00 | |
| DO2SHX-10 | 2026-08-31 01:25:57 | 53.36448 | 11.20227 | 56° | 119km/h | 10302m | -6.1m/s | -50.6°C | 33.0% | 260.7hPa | 2.5V | 00:00:00 | 02:41:06 | 00:00:00 | |
| DL1XH1-15 | 2026-08-31 01:25:56 | 53.36349 | 11.19978 | 55° | 119km/h | 10340m | -6.3m/s | -51°C | 34.6% | 259.2hPa | 2.5V | 02:34:15 | 02:41:00 | 00:00:00 | |
| DB0DAN | 2026-08-31 01:25:55 | 53.36415 | 11.20144 | 57° | 113km/h | 10315m | -6.3m/s | -50.6°C | 27.8% | 260.25hPa | 2.6V | 00:00:00 | 00:00:00 | 00:00:00 | |
| DL1XH-west | 2026-08-31 01:25:55 | 53.36415 | 11.20144 | 57° | 119km/h | 10315m | -6.3m/s | -50.6°C | 35.6% | 260.2hPa | 2.6V | 02:34:36 | 02:41:04 | 00:00:00 | |
| BIOWL1-15 | 2026-08-31 01:25:54 | 53.36399 | 11.20102 | 57° | 119km/h | 10322m | -6.3m/s | -50.7°C | 35.6% | 260hPa | 2.5V | 02:34:36 | 02:41:03 | 00:00:00 | |
| DL3AQ-11 | 2026-08-31 01:25:52 | 53.36349 | 11.19978 | 55° | 117km/h | 10340m | -6.3m/s | -51.0°C | 29.6% | 259.3hPa | 2.5V | 00:00:00 | 00:00:00 | 00:00:00 | |
| DL1XH-15 | 2026-08-31 01:25:51 | 53.36281 | 11.19814 | 55° | 117km/h | 10366m | -6.8m/s | -51.1°C | 34.6% | 258.2hPa | 2.5V | 02:34:19 | 02:40:56 | 00:00:00 | |
| DF8AY | 2026-08-31 01:25:50 | 53.36332 | 11.19937 | 56° | 119km/h | 10347m | -6.3m/s | -51.1°C | 36.2% | 259hPa | 2.6V | 02:34:36 | 02:40:59 | 00:00:00 | |
| AA1-15 | 2026-08-31 01:25:47 | 53.36281 | 11.19814 | 55° | 117km/h | 10366m | -6.8m/s | -51.2°C | 36.4% | 258.2hPa | 2.5V | 02:34:36 | 02:40:56 | 00:00:00 | |
| DL4BBY-15 | 2026-08-31 01:25:47 | 53.36281 | 11.19814 | 56° | 120km/h | 10367m | -6.7m/s | -51.7°C | 0% | 0hPa | 2.5V | 00:00:00 | 00:00:00 | 00:00:00 | |
| DK7RCA | 2026-08-31 01:25:46 | 53.36281 | 11.19814 | 56° | 117km/h | 10367m | -6.8m/s | -51.1°C | 29.6% | 258.2hPa | 2.5V | 02:34:00 | 00:00:00 | 00:00:00 | |
| DM0DOS-11 | 2026-08-31 01:25:45 | 53.36161 | 11.19525 | 54° | 119km/h | 10418m | -9.9m/s | -51.4°C | 32.5% | 256.2hPa | 2.5V | 02:34:26 | 02:40:49 | 00:00:00 | |
| DL1XH-west | 2026-08-31 01:25:45 | 53.36247 | 11.19733 | 55° | 120km/h | 10379m | -6.2m/s | -51.3°C | 36.5% | 257.6hPa | 2.5V | 02:34:36 | 02:40:54 | 00:00:00 | |
| BIOWL1-15 | 2026-08-31 01:25:43 | 53.36178 | 11.19567 | 56° | 119km/h | 10408m | -9.6m/s | -51.5°C | 36% | 256.6hPa | 2.5V | 02:34:36 | 02:40:50 | 00:00:00 | |
| DO2SHX-10 | 2026-08-31 01:25:42 | 53.36195 | 11.19608 | 57° | 119km/h | 10400m | -7.4m/s | -51.4°C | 33.2% | 256.9hPa | 2.5V | 02:34:00 | 02:40:51 | 00:00:00 | |
| DL1XH-15 | 2026-08-31 01:25:41 | 53.36107 | 11.19399 | 54° | 124km/h | 10442m | -6.7m/s | -51.3°C | 32.2% | 255.2hPa | 2.6V | 02:34:29 | 02:40:46 | 00:00:00 | |
| DB0DAN | 2026-08-31 01:25:40 | 53.36161 | 11.19525 | 55° | 113km/h | 10418m | -9.9m/s | -51.4°C | 27.6% | 256.25hPa | 2.5V | 00:00:00 | 00:00:00 | 00:00:00 | |
| DF8AY | 2026-08-31 01:25:39 | 53.36144 | 11.19483 | 55° | 122km/h | 10427m | -8.6m/s | -51.4°C | 35.7% | 255.9hPa | 2.6V | 02:34:36 | 02:40:48 | 00:00:00 | |
| AA1-15 | 2026-08-31 01:25:36 | 53.36089 | 11.19356 | 54° | 124km/h | 10449m | -6.6m/s | -51.3°C | 35.3% | 254.9hPa | 2.5V | 02:34:36 | 02:40:45 | 00:00:00 | |
| DL1XH1-15 | 2026-08-31 01:25:36 | 53.35998 | 11.19148 | 53° | 120km/h | 10484m | -7m/s | -51.7°C | 36.2% | 253.7hPa | 2.6V | 02:34:35 | 02:40:40 | 00:00:00 | |
| BIOWL1-15 | 2026-08-31 01:25:34 | 53.36016 | 11.19189 | 54° | 120km/h | 10476m | -6.9m/s | -51.7°C | 36.2% | 254hPa | 2.6V | 02:34:36 | 02:40:41 | 00:00:00 | |
| DL1XH-west | 2026-08-31 01:25:34 | 53.36053 | 11.19272 | 54° | 122km/h | 10463m | -6.9m/s | -51.5°C | 35.6% | 254.5hPa | 2.5V | 02:34:36 | 02:40:43 | 00:00:00 | |
| DF8AY | 2026-08-31 01:25:29 | 53.35961 | 11.19066 | 54° | 122km/h | 10498m | -7.4m/s | -51.8°C | 36.9% | 253.2hPa | 2.5V | 02:35:27 | 02:40:38 | 00:00:00 | |
| DD8BA-10 | 2026-08-31 01:25:28 | 53.35943 | 11.19024 | 55° | 122km/h | 10505m | -6.6m/s | -51.8°C | 37.3% | 252.7hPa | 2.6V | 00:00:00 | 00:00:00 | 00:00:00 | |
| DO2SHX-10 | 2026-08-31 01:25:27 | 53.35925 | 11.18982 | 54° | 120km/h | 10512m | -6.5m/s | -51.8°C | 36.9% | 252.5hPa | 2.6V | 00:00:00 | 02:40:36 | 00:00:00 | |
| DL1XH1-15 | 2026-08-31 01:25:26 | 53.35815 | 11.18734 | 53° | 122km/h | 10563m | -8.6m/s | -52.4°C | 34.7% | 250.7hPa | 2.6V | 02:34:45 | 02:40:30 | 00:00:00 | |
| DB0DAN | 2026-08-31 01:25:25 | 53.35889 | 11.18900 | 53° | 117km/h | 10527m | -9m/s | -52.1°C | 30.6% | 252.02hPa | 2.6V | 00:00:00 | 00:00:00 | 00:00:00 | |
| AA1-15 | 2026-08-31 01:25:25 | 53.35889 | 11.18900 | 53° | 122km/h | 10527m | -9m/s | -52.1°C | 37.7% | 252hPa | 2.6V | 02:35:27 | 02:40:34 | 00:00:00 | |
| DM0DOS-11 | 2026-08-31 01:25:25 | 53.35797 | 11.18693 | 53° | 124km/h | 10571m | -8.2m/s | -52.4°C | 34.8% | 250.3hPa | 2.6V | 02:34:46 | 02:40:29 | 00:00:00 | |
| BIOWL1-15 | 2026-08-31 01:25:24 | 53.35834 | 11.18776 | 53° | 122km/h | 10554m | -9.1m/s | -52.4°C | 37.6% | 251hPa | 2.5V | 02:35:27 | 02:40:31 | 00:00:00 | |
| DL1XH-west | 2026-08-31 01:25:23 | 53.35852 | 11.18817 | 54° | 122km/h | 10545m | -9.1m/s | -52.3°C | 37.5% | 251.3hPa | 2.5V | 02:35:27 | 02:40:32 | 00:00:00 | |
| DL3AQ-11 | 2026-08-31 01:25:23 | 53.35834 | 11.18776 | 53° | 120km/h | 10554m | -9.1m/s | -52.4°C | 29.8% | 251.0hPa | 2.5V | 00:00:00 | 00:00:00 | 00:00:00 | |
| DL1XH-15 | 2026-08-31 01:25:21 | 53.35742 | 11.18568 | 53° | 122km/h | 10595m | -8.2m/s | -52.5°C | 33.1% | 249.3hPa | 2.5V | 02:34:49 | 02:40:26 | 00:00:00 | |
| DF8AY | 2026-08-31 01:25:18 | 53.35760 | 11.18609 | 53° | 120km/h | 10587m | -8.2m/s | -52.4°C | 37.1% | 249.6hPa | 2.5V | 02:35:27 | 02:40:27 | 00:00:00 | |
| DO2SHX-10 | 2026-08-31 01:25:18 | 53.35760 | 11.18609 | 54° | 122km/h | 10588m | -8.2m/s | -52.4°C | 33.5% | 249.6hPa | 2.5V | 00:00:00 | 02:40:27 | 00:00:00 | |
| DL4BBY-15 | 2026-08-31 01:25:17 | 53.35741 | 11.18568 | 54° | 124km/h | 10595m | -8.1m/s | -53.0°C | 0% | 0hPa | 2.5V | 00:00:00 | 00:00:00 | 00:00:00 | |
| DL1XH1-15 | 2026-08-31 01:25:16 | 53.35631 | 11.18320 | 53° | 122km/h | 10650m | -8.8m/s | -52.7°C | 31.9% | 247.2hPa | 2.5V | 02:34:55 | 02:40:20 | 00:00:00 | |
| DM0DOS-11 | 2026-08-31 01:25:15 | 53.35612 | 11.18279 | 52° | 122km/h | 10658m | -6.7m/s | -52.6°C | 32.6% | 246.8hPa | 2.5V | 02:34:56 | 02:40:19 | 00:00:00 | |
| AA1-15 | 2026-08-31 01:25:14 | 53.35686 | 11.18444 | 53° | 122km/h | 10622m | -9.8m/s | -52.7°C | 36% | 248.4hPa | 2.6V | 02:35:27 | 02:40:23 | 00:00:00 | |
| BIOWL1-15 | 2026-08-31 01:25:13 | 53.35631 | 11.18320 | 53° | 122km/h | 10650m | -8.8m/s | -52.7°C | 35.4% | 247.2hPa | 2.5V | 02:35:27 | 02:40:20 | 00:00:00 | |
| DL1XH-west | 2026-08-31 01:25:13 | 53.35668 | 11.18403 | 53° | 122km/h | 10631m | -9.6m/s | -52.8°C | 35.8% | 247.9hPa | 2.6V | 02:35:27 | 02:40:22 | 00:00:00 | |
| DO2SHX-10 | 2026-08-31 01:25:12 | 53.35649 | 11.18361 | 54° | 122km/h | 10641m | -8.9m/s | -52.7°C | 31.5% | 247.5hPa | 2.5V | 00:00:00 | 02:40:21 | 00:00:00 | |
| DB0DAN | 2026-08-31 01:25:10 | 53.35612 | 11.18278 | 53° | 117km/h | 10658m | -6.7m/s | -52.6°C | 27.5% | 246.82hPa | 2.5V | 00:00:00 | 00:00:00 | 00:00:00 | |
| DF8AY | 2026-08-31 01:25:07 | 53.35556 | 11.18153 | 54° | 122km/h | 10677m | -6.5m/s | -52.8°C | 35.7% | 246.1hPa | 2.6V | 02:35:27 | 02:40:16 | 00:00:00 | |
| DL1XH1-15 | 2026-08-31 01:25:06 | 53.35446 | 11.17905 | 52° | 122km/h | 10716m | -6m/s | -53.2°C | 38% | 244.6hPa | 2.6V | 02:35:05 | 02:40:10 | 00:00:00 | |
| DO2SHX-10 | 2026-08-31 01:25:06 | 53.35538 | 11.18111 | 54° | 120km/h | 10684m | -6.3m/s | -52.8°C | 35.5% | 245.9hPa | 2.5V | 02:35:00 | 02:40:15 | 00:00:00 | |
| DM0DOS-11 | 2026-08-31 01:25:05 | 53.35427 | 11.17863 | 53° | 124km/h | 10723m | -6.6m/s | -53.2°C | 38% | 244.4hPa | 2.5V | 02:35:06 | 02:40:09 | 00:00:00 | |
| AA1-15 | 2026-08-31 01:25:03 | 53.35483 | 11.17988 | 53° | 122km/h | 10703m | -6.4m/s | -53.1°C | 36.4% | 245.1hPa | 2.6V | 02:35:27 | 02:40:12 | 00:00:00 | |
| DL1XH-west | 2026-08-31 01:25:02 | 53.35464 | 11.17947 | 53° | 122km/h | 10710m | -6.6m/s | -53.1°C | 36.6% | 245hPa | 2.6V | 02:35:27 | 02:40:11 | 00:00:00 | |
| BIOWL1-15 | 2026-08-31 01:25:00 | 53.35427 | 11.17863 | 53° | 124km/h | 10723m | -6.6m/s | -53.2°C | 37% | 244.4hPa | 2.5V | 02:35:27 | 02:40:09 | 00:00:00 | |
| SONDE2-11 | 2026-08-31 01:24:59 | 53.35408 | 11.17821 | 53° | 124km/h | 10730m | -6.9m/s | -53.3°C | 32.6% | 244.1hPa | 2.5V | 00:00:00 | 00:00:00 | 00:00:00 | |
| DF8AY-15 | 2026-08-31 01:24:58 | 53.35389 | 11.17778 | 54° | 128km/h | 10737m | -6.8m/s | -53.3°C | 38.4% | 243.8hPa | 2.5V | 02:35:00 | 02:40:07 | 00:00:00 | |
| DO2SHX-10 | 2026-08-31 01:24:57 | 53.35371 | 11.17735 | 55° | 126km/h | 10743m | -6.7m/s | -53.3°C | 38.1% | 243.6hPa | 2.5V | 02:35:00 | 02:40:06 | 00:00:00 | |
| DL1XH1-15 | 2026-08-31 01:24:56 | 53.35259 | 11.17477 | 53° | 128km/h | 10796m | -11.1m/s | -53.7°C | 34% | 241.8hPa | 2.5V | 02:35:15 | 02:40:00 | 00:00:00 | |
| DL3AQ-11 | 2026-08-31 01:24:56 | 53.35333 | 11.17650 | 53° | 124km/h | 10758m | -9.2m/s | -53.5°C | 30.6% | 243.1hPa | 2.6V | 00:00:00 | 00:00:00 | 00:00:00 | |
| DB0DAN | 2026-08-31 01:24:55 | 53.35333 | 11.17650 | 54° | 120km/h | 10758m | -9.2m/s | -53.5°C | 30.6% | 243.13hPa | 2.6V | 00:00:00 | 00:00:00 | 00:00:00 | |
| AA1-15 | 2026-08-31 01:24:53 | 53.35296 | 11.17564 | 54° | 126km/h | 10776m | -10.3m/s | -53.6°C | 37.5% | 242.5hPa | 2.5V | 02:35:27 | 02:40:02 | 00:00:00 | |
| DL1XH-west | 2026-08-31 01:24:51 | 53.35259 | 11.17477 | 54° | 128km/h | 10796m | -11.1m/s | -53.7°C | 37.1% | 241.8hPa | 2.5V | 02:35:27 | 02:40:00 | 00:00:00 | |
| BIOWL1-15 | 2026-08-31 01:24:49 | 53.35183 | 11.17302 | 54° | 128km/h | 10839m | -10.6m/s | -53.8°C | 36.9% | 240.2hPa | 2.5V | 02:35:27 | 02:39:56 | 00:00:00 | |
| DF8AY | 2026-08-31 01:24:46 | 53.35165 | 11.17258 | 55° | 128km/h | 10849m | -10m/s | -53.9°C | 36.9% | 239.8hPa | 2.5V | 02:35:27 | 02:39:55 | 00:00:00 | |
| DM0DOS-11 | 2026-08-31 01:24:45 | 53.35053 | 11.16991 | 55° | 130km/h | 10903m | -10m/s | -54.1°C | 33.8% | 237.7hPa | 2.5V | 02:35:26 | 02:39:49 | 00:00:00 | |
| AA1-15 | 2026-08-31 01:24:43 | 53.35090 | 11.17081 | 55° | 130km/h | 10883m | -9.9m/s | -54°C | 36.7% | 238.4hPa | 2.5V | 02:35:27 | 02:39:51 | 00:00:00 | |
| DL1XH-west | 2026-08-31 01:24:41 | 53.35071 | 11.17036 | 56° | 130km/h | 10893m | -10.4m/s | -54.1°C | 36.7% | 238.2hPa | 2.5V | 02:35:27 | 02:39:50 | 00:00:00 | |
| DB0DAN | 2026-08-31 01:24:40 | 53.35053 | 11.16991 | 56° | 124km/h | 10903m | -10m/s | -54.1°C | 28.4% | 237.74hPa | 2.5V | 00:00:00 | 00:00:00 | 00:00:00 | |
| BIOWL1-15 | 2026-08-31 01:24:37 | 53.34944 | 11.16721 | 56° | 128km/h | 10957m | -7.5m/s | -54.3°C | 37.5% | 235.7hPa | 2.6V | 02:36:18 | 02:39:43 | 00:00:00 | |
| BIOWL9-15 | 2026-08-31 01:24:37 | 53.34980 | 11.16811 | 56° | 128km/h | 10942m | -6.9m/s | -54.2°C | 31.8% | 236.2hPa | 2.5V | 00:00:00 | 00:00:00 | 00:00:00 | |
| DF8AY | 2026-08-31 01:24:37 | 53.34980 | 11.16811 | 56° | 128km/h | 10942m | -6.9m/s | -54.2°C | 37.5% | 236.2hPa | 2.5V | 02:36:18 | 02:39:45 | 00:00:00 | |
| DM0DOS-11 | 2026-08-31 01:24:36 | 53.34872 | 11.16542 | 56° | 128km/h | 10994m | -9.9m/s | -54.5°C | 34.7% | 234.3hPa | 2.5V | 02:35:36 | 02:39:39 | 00:00:00 | |
| DL1XH-west | 2026-08-31 01:24:31 | 53.34890 | 11.16586 | 56° | 128km/h | 10984m | -9.7m/s | -54.4°C | 37.2% | 234.8hPa | 2.5V | 02:36:18 | 02:39:40 | 00:00:00 | |
| DO2SHX-10 | 2026-08-31 01:24:30 | 53.34872 | 11.16542 | 57° | 126km/h | 10994m | -9.8m/s | -54.4°C | 34.7% | 234.3hPa | 2.5V | 02:35:00 | 02:39:39 | 00:00:00 | |
| EDDB2-11 | 2026-08-31 01:24:29 | 53.34854 | 11.16497 | 56° | 126km/h | 11004m | -9.0m/s | -54.6°C | 29.2% | 234.0hPa | 2.6V | 00:00:00 | 00:00:00 | 00:00:00 | |
| SONDE2-11 | 2026-08-31 01:24:28 | 53.34837 | 11.16452 | 56° | 126km/h | 11012m | -8.6m/s | -54.6°C | 28.9% | 233.7hPa | 2.6V | 00:00:00 | 00:00:00 | 00:00:00 | |
| DO2SHX-10 | 2026-08-31 01:24:27 | 53.34819 | 11.16408 | 57° | 126km/h | 11021m | -9.5m/s | -54.6°C | 33.9% | 233.3hPa | 2.6V | 00:00:00 | 02:39:36 | 00:00:00 | |
| DL1XH1-15 | 2026-08-31 01:24:26 | 53.34713 | 11.16142 | 56° | 126km/h | 11079m | -9.2m/s | -54.9°C | 33.5% | 231.3hPa | 2.6V | 02:35:45 | 02:39:30 | 00:00:00 | |
| DB0DAN | 2026-08-31 01:24:25 | 53.34783 | 11.16319 | 56° | 120km/h | 11040m | -9.8m/s | -54.8°C | 27.4% | 232.69hPa | 2.6V | 00:00:00 | 00:00:00 | 00:00:00 | |
| DF8AY | 2026-08-31 01:24:25 | 53.34783 | 11.16319 | 56° | 126km/h | 11040m | -9.8m/s | -54.8°C | 36.3% | 232.7hPa | 2.6V | 02:36:18 | 02:39:34 | 00:00:00 | |
| BIOWL1-15 | 2026-08-31 01:24:23 | 53.34677 | 11.16053 | 57° | 126km/h | 11095m | -7.2m/s | -54.9°C | 35.7% | 230.6hPa | 2.5V | 02:36:18 | 02:39:28 | 00:00:00 | |
| DB0NH | 2026-08-31 01:24:23 | 53.34747 | 11.16230 | 57° | 130km/h | 11060m | -9.6m/s | -54.8°C | 32.7% | 231.9hPa | 2.5V | 00:00:00 | 02:39:32 | 00:00:00 | |
| DL1XH-15 | 2026-08-31 01:24:22 | 53.34642 | 11.15964 | 56° | 126km/h | 11109m | -7.6m/s | -55.1°C | 34.7% | 230.2hPa | 2.5V | 02:35:49 | 02:39:26 | 00:00:00 | |
| DL1XH-west | 2026-08-31 01:24:21 | 53.34713 | 11.16142 | 57° | 126km/h | 11079m | -9.2m/s | -54.9°C | 35.8% | 231.3hPa | 2.6V | 02:36:18 | 02:39:30 | 00:00:00 | |
| AA1-15 | 2026-08-31 01:24:21 | 53.34695 | 11.16097 | 57° | 126km/h | 11087m | -7.9m/s | -54.8°C | 35.7% | 230.9hPa | 2.6V | 02:36:18 | 02:39:29 | 00:00:00 | |
| BIOWL7-15 | 2026-08-31 01:24:19 | 53.34695 | 11.16097 | 57° | 126km/h | 11087m | -7.9m/s | -54.8°C | 28.1% | 230.9hPa | 2.5V | 00:00:00 | 00:00:00 | 00:00:00 | |
| DO2SHX-10 | 2026-08-31 01:24:18 | 53.34660 | 11.16008 | 57° | 126km/h | 11102m | -7.2m/s | -55.0°C | 34.6% | 230.3hPa | 2.5V | 00:00:00 | 02:39:27 | 00:00:00 | |
| DD8BA-10 | 2026-08-31 01:24:17 | 53.34642 | 11.15964 | 57° | 128km/h | 11109m | -7.6m/s | -55.1°C | 34.7% | 230.1hPa | 2.5V | 02:35:00 | 00:00:00 | 00:00:00 | |
| DL1XH1-15 | 2026-08-31 01:24:16 | 53.34536 | 11.15696 | 57° | 126km/h | 11152m | -9.5m/s | -55.4°C | 32% | 228.6hPa | 2.5V | 02:35:55 | 02:39:20 | 00:00:00 | |
| DF8AY | 2026-08-31 01:24:15 | 53.34607 | 11.15875 | 56° | 126km/h | 11123m | -6.7m/s | -55.2°C | 35.6% | 229.5hPa | 2.6V | 02:36:18 | 02:39:24 | 00:00:00 | |
| BIOWL1-15 | 2026-08-31 01:24:13 | 53.34572 | 11.15786 | 57° | 128km/h | 11137m | -7m/s | -55.3°C | 35.1% | 229.1hPa | 2.5V | 02:36:18 | 02:39:22 | 00:00:00 | |
| DL1XH-15 | 2026-08-31 01:24:12 | 53.34467 | 11.15514 | 57° | 130km/h | 11189m | -9.1m/s | -55.5°C | 33.4% | 227.3hPa | 2.5V | 02:35:59 | 02:39:16 | 00:00:00 | |
| DL1XH-west | 2026-08-31 01:24:11 | 53.34536 | 11.15696 | 57° | 126km/h | 11152m | -9.5m/s | -55.4°C | 34.4% | 228.6hPa | 2.5V | 02:36:18 | 02:39:20 | 00:00:00 | |
| DB0DAN | 2026-08-31 01:24:10 | 53.34519 | 11.15651 | 57° | 120km/h | 11162m | -10m/s | -55.4°C | 26.5% | 228.32hPa | 2.6V | 00:00:00 | 00:00:00 | 00:00:00 | |
| AA1-15 | 2026-08-31 01:24:10 | 53.34519 | 11.15651 | 57° | 128km/h | 11162m | -10m/s | -55.4°C | 34.2% | 228.3hPa | 2.6V | 02:36:18 | 02:39:19 | 00:00:00 | |
| DO2SHX-10 | 2026-08-31 01:24:09 | 53.34501 | 11.15606 | 58° | 130km/h | 11172m | -9.2m/s | -55.4°C | 32.6% | 227.9hPa | 2.5V | 00:00:00 | 02:39:18 | 00:00:00 | |
| EDDB2-12 | 2026-08-31 01:24:08 | 53.34484 | 11.15560 | 57° | 128km/h | 11180m | -9.0m/s | -55.5°C | 27.1% | 227.6hPa | 2.5V | 00:00:00 | 00:00:00 | 00:00:00 | |
| DD8BA-10 | 2026-08-31 01:24:07 | 53.34466 | 11.15514 | 58° | 131km/h | 11190m | -9.0m/s | -55.5°C | 33.4% | 227.2hPa | 2.5V | 00:00:00 | 00:00:00 | 00:00:00 | |
| DL1XH1-15 | 2026-08-31 01:24:06 | 53.34361 | 11.15234 | 57° | 131km/h | 11235m | -7.7m/s | -55.8°C | 33.3% | 225.6hPa | 2.5V | 02:36:05 | 02:39:10 | 00:00:00 | |
| DO2SHX-10 | 2026-08-31 01:24:06 | 53.34449 | 11.15468 | 58° | 131km/h | 11198m | -9.1m/s | -55.6°C | 34.1% | 226.9hPa | 2.5V | 00:00:00 | 02:39:15 | 00:00:00 | |
| DM0DOS-11 | 2026-08-31 01:24:05 | 53.34343 | 11.15187 | 57° | 133km/h | 11243m | -7.9m/s | -55.9°C | 32.4% | 225.3hPa | 2.5V | 02:36:06 | 02:39:09 | 00:00:00 | |
| DF8AY | 2026-08-31 01:24:05 | 53.34414 | 11.15374 | 58° | 131km/h | 11214m | -7m/s | -55.7°C | 33.7% | 226.3hPa | 2.6V | 02:36:18 | 02:39:13 | 00:00:00 | |
| BIOWL1-15 | 2026-08-31 01:24:02 | 53.34379 | 11.15280 | 58° | 131km/h | 11228m | -6.9m/s | -55.8°C | 33.3% | 225.8hPa | 2.5V | 02:36:18 | 02:39:11 | 00:00:00 | |
| DL1XH-15 | 2026-08-31 01:24:02 | 53.34289 | 11.15045 | 58° | 133km/h | 11267m | -7.8m/s | -55.9°C | 31.6% | 224.4hPa | 2.5V | 02:36:09 | 02:39:06 | 00:00:00 | |
| DL1XH-west | 2026-08-31 01:24:00 | 53.34343 | 11.15187 | 57° | 133km/h | 11243m | -7.9m/s | -55.9°C | 32.5% | 225.3hPa | 2.5V | 02:36:18 | 02:39:09 | 00:00:00 | |
| AA1-15 | 2026-08-31 01:24:00 | 53.34325 | 11.15140 | 58° | 131km/h | 11251m | -9.1m/s | -55.9°C | 32.2% | 225hPa | 2.6V | 02:36:18 | 02:39:08 | 00:00:00 | |
| DO2SHX-10 | 2026-08-31 01:24:00 | 53.34343 | 11.15187 | 58° | 131km/h | 11243m | -7.8m/s | -55.8°C | 32.4% | 225.3hPa | 2.6V | 00:00:00 | 02:39:09 | 00:00:00 | |
| DF8AY-15 | 2026-08-31 01:23:58 | 53.34307 | 11.15093 | 58° | 133km/h | 11260m | -7.6m/s | -55.8°C | 31.9% | 224.7hPa | 2.6V | 02:36:00 | 02:39:07 | 00:00:00 | |
| DO2SHX-10 | 2026-08-31 01:23:57 | 53.34289 | 11.15045 | 59° | 133km/h | 11267m | -7.8m/s | -55.9°C | 31.6% | 224.4hPa | 2.5V | 00:00:00 | 02:39:06 | 00:00:00 | |
| DL1XH1-15 | 2026-08-31 01:23:56 | 53.34185 | 11.14760 | 59° | 130km/h | 11326m | -11.4m/s | -56.1°C | 29.5% | 222.4hPa | 2.5V | 02:36:15 | 02:39:00 | 00:00:00 | |
| DB0DAN | 2026-08-31 01:23:55 | 53.34254 | 11.14950 | 59° | 126km/h | 11283m | -9.2m/s | -56°C | 25.2% | 223.83hPa | 2.5V | 00:00:00 | 00:00:00 | 00:00:00 | |
| DF8AY | 2026-08-31 01:23:54 | 53.34237 | 11.14902 | 59° | 133km/h | 11292m | -10m/s | -56.1°C | 30.3% | 223.6hPa | 2.6V | 02:36:18 | 02:39:03 | 00:00:00 | |
| DO2SHX-10 | 2026-08-31 01:23:54 | 53.34236 | 11.14902 | 59° | 131km/h | 11292m | -10.0m/s | -56.0°C | 30.4% | 223.5hPa | 2.6V | 02:36:00 | 02:39:03 | 00:00:00 | |
| DM0DOS-11 | 2026-08-31 01:23:53 | 53.34168 | 11.14713 | 58° | 131km/h | 11336m | -10.2m/s | -56.1°C | 29.5% | 222hPa | 2.5V | 02:36:16 | 02:38:59 | 00:00:00 | |
| DB0NH | 2026-08-31 01:23:53 | 53.34219 | 11.14854 | 59° | 133km/h | 11303m | -11.5m/s | -56.0°C | 29.7% | 223.2hPa | 2.6V | 00:00:00 | 02:39:02 | 00:00:00 | |
| DL1XH-15 | 2026-08-31 01:23:52 | 53.34116 | 11.14568 | 59° | 133km/h | 11364m | -11.9m/s | -56.1°C | 28.2% | 221.1hPa | 2.6V | 02:36:19 | 02:38:56 | 00:00:00 | |
| BIOWL1-15 | 2026-08-31 01:23:51 | 53.34151 | 11.14665 | 59° | 133km/h | 11346m | -10.5m/s | -56.1°C | 28% | 221.7hPa | 2.5V | 02:36:18 | 02:38:58 | 00:00:00 | |
| DL1XH-west | 2026-08-31 01:23:50 | 53.34168 | 11.14713 | 59° | 131km/h | 11336m | -10.2m/s | -56.1°C | 28.4% | 222hPa | 2.5V | 02:36:18 | 02:38:59 | 00:00:00 | |
| AA1-15 | 2026-08-31 01:23:48 | 53.34134 | 11.14617 | 59° | 133km/h | 11355m | -7.7m/s | -56.1°C | 27.5% | 221.3hPa | 2.6V | 02:36:18 | 02:38:57 | 00:00:00 | |
| DO2SHX-10 | 2026-08-31 01:23:48 | 53.34134 | 11.14617 | 59° | 135km/h | 11355m | -7.6m/s | -56.0°C | 28.8% | 221.3hPa | 2.6V | 00:00:00 | 02:38:57 | 00:00:00 | |
| DD8BA-10 | 2026-08-31 01:23:47 | 53.34116 | 11.14568 | 60° | 133km/h | 11365m | -11.9m/s | -56.0°C | 28.2% | 221.1hPa | 2.6V | 02:36:00 | 00:00:00 | 00:00:00 | |
| DL1XH1-15 | 2026-08-31 01:23:46 | 53.34014 | 11.14275 | 60° | 137km/h | 11435m | -11.1m/s | -56.3°C | 25.4% | 218.7hPa | 2.6V | 02:36:25 | 02:38:50 | 00:00:00 | |
| S3001 | 2026-08-31 01:23:46 | 53.34099 | 11.14519 | 59° | 135km/h | 11376m | -12.5m/s | -56.0°C | 22.1% | 220.7hPa | 2.5V | 00:00:00 | 00:00:00 | 00:00:00 | |
| DM0DOS-11 | 2026-08-31 01:23:45 | 53.33997 | 11.14225 | 60° | 135km/h | 11447m | -12.4m/s | -56.2°C | 24.7% | 218.2hPa | 2.5V | 02:36:26 | 02:38:49 | 00:00:00 | |
| DF8AY | 2026-08-31 01:23:43 | 53.34048 | 11.14372 | 60° | 133km/h | 11412m | -12.6m/s | -56.2°C | 24.7% | 219.4hPa | 2.6V | 02:37:09 | 02:38:52 | 00:00:00 | |
| DO2SHX-10 | 2026-08-31 01:23:42 | 53.34031 | 11.14324 | 60° | 135km/h | 11425m | -11.9m/s | -56.2°C | 26.1% | 219.0hPa | 2.5V | 00:00:00 | 02:38:51 | 00:00:00 | |
| DB0DAN | 2026-08-31 01:23:40 | 53.33997 | 11.14225 | 61° | 128km/h | 11447m | -12.4m/s | -56.3°C | 19.3% | 218.26hPa | 2.5V | 00:00:00 | 00:00:00 | 00:00:00 | |
| DL1XH-west | 2026-08-31 01:23:39 | 53.33981 | 11.14176 | 61° | 131km/h | 11459m | -11.5m/s | -56.3°C | 22% | 217.9hPa | 2.5V | 02:37:09 | 02:38:48 | 00:00:00 | |
| AA1-15 | 2026-08-31 01:23:37 | 53.33949 | 11.14078 | 61° | 131km/h | 11482m | -11.7m/s | -56.2°C | 20.2% | 217.1hPa | 2.5V | 02:37:09 | 02:38:46 | 00:00:00 | |
| DD8BA-10 | 2026-08-31 01:23:37 | 53.33949 | 11.14078 | 61° | 133km/h | 11482m | -11.7m/s | -56.2°C | 22.8% | 217.0hPa | 2.6V | 00:00:00 | 00:00:00 | 00:00:00 | |
| DL3AQ-11 | 2026-08-31 01:23:36 | 53.33916 | 11.13981 | 59° | 131km/h | 11506m | -13.3m/s | -55.9°C | 15.7% | 216.3hPa | 2.6V | 00:00:00 | 00:00:00 | 00:00:00 | |
| DM0DOS-11 | 2026-08-31 01:23:35 | 53.33832 | 11.13735 | 59° | 131km/h | 11566m | -10.4m/s | -55.1°C | 16.4% | 214.2hPa | 2.6V | 02:36:36 | 02:38:39 | 00:00:00 | |
| DF8AY | 2026-08-31 01:23:32 | 53.33865 | 11.13833 | 61° | 135km/h | 11544m | -11.5m/s | -55.3°C | 16% | 215hPa | 2.5V | 02:37:09 | 02:38:41 | 00:00:00 | |
| DL1XH-west | 2026-08-31 01:23:28 | 53.33798 | 11.13637 | 60° | 135km/h | 11589m | -11.3m/s | -54.8°C | 13.1% | 213.5hPa | 2.5V | 02:37:09 | 02:38:37 | 00:00:00 | |
| AA1-15 | 2026-08-31 01:23:26 | 53.33765 | 11.13536 | 62° | 137km/h | 11612m | -11.5m/s | -54.5°C | 11.7% | 212.8hPa | 2.5V | 02:37:09 | 02:38:35 | 00:00:00 | |
| DL1XH1-15 | 2026-08-31 01:23:26 | 53.33686 | 11.13283 | 63° | 133km/h | 11667m | -10.2m/s | -53.1°C | 9.8% | 210.9hPa | 2.5V | 02:36:45 | 02:38:30 | 00:00:00 | |
| DB0DAN | 2026-08-31 01:23:25 | 53.33749 | 11.13485 | 62° | 130km/h | 11623m | -10.2m/s | -54.2°C | 8.8% | 212.44hPa | 2.6V | 00:00:00 | 00:00:00 | 00:00:00 | |
| BIOWL1-15 | 2026-08-31 01:23:23 | 53.33717 | 11.13384 | 63° | 133km/h | 11645m | -10.7m/s | -53.6°C | 9.7% | 211.7hPa | 2.6V | 02:37:09 | 02:38:32 | 00:00:00 | |
| DF8AY | 2026-08-31 01:23:21 | 53.33687 | 11.13283 | 64° | 133km/h | 11667m | -10.2m/s | -53.2°C | 8.6% | 211hPa | 2.5V | 02:37:09 | 02:38:30 | 00:00:00 | |
| DL1XH-west | 2026-08-31 01:23:18 | 53.33643 | 11.13133 | 64° | 131km/h | 11697m | -10.1m/s | -53.1°C | 7.4% | 209.9hPa | 2.6V | 02:37:09 | 02:38:27 | 00:00:00 | |
| DO2SHX-10 | 2026-08-31 01:23:18 | 53.33642 | 11.13132 | 65° | 130km/h | 11697m | -10.0m/s | -53.0°C | 8.9% | 209.9hPa | 2.6V | 02:36:00 | 02:38:27 | 00:00:00 | |
| DL4BBY-15 | 2026-08-31 01:23:17 | 53.33628 | 11.13083 | 65° | 119km/h | 11707m | -9.6m/s | -53.6°C | 0% | 0hPa | 2.5V | 00:00:00 | 00:00:00 | 00:00:00 | |
| DL1XH1-15 | 2026-08-31 01:23:16 | 53.33547 | 11.12794 | 65° | 122km/h | 11760m | -7.3m/s | -52.4°C | 7.2% | 207.9hPa | 2.5V | 02:36:55 | 02:38:20 | 00:00:00 | |
| AA1-15 | 2026-08-31 01:23:16 | 53.33600 | 11.12985 | 65° | 128km/h | 11724m | -7.7m/s | -53°C | 6.5% | 209hPa | 2.5V | 02:37:09 | 02:38:24 | 00:00:00 | |
| DM0DOS-11 | 2026-08-31 01:23:15 | 53.33534 | 11.12747 | 64° | 120km/h | 11767m | -6.8m/s | -52.4°C | 7.2% | 207.6hPa | 2.5V | 02:36:56 | 02:38:19 | 00:00:00 | |
| BIOWL1-15 | 2026-08-31 01:23:13 | 53.33573 | 11.12889 | 65° | 126km/h | 11742m | -9.9m/s | -52.6°C | 5.6% | 208.5hPa | 2.6V | 02:37:09 | 02:38:22 | 00:00:00 | |
| DL3AQ-11 | 2026-08-31 01:23:12 | 53.33547 | 11.12794 | 65° | 120km/h | 11760m | -7.3m/s | -52.4°C | 4.4% | 207.9hPa | 2.6V | 00:00:00 | 00:00:00 | 00:00:00 | |
| DL1XH-15 | 2026-08-31 01:23:11 | 53.33494 | 11.12609 | 64° | 120km/h | 11791m | -7.8m/s | -52.2°C | 7.2% | 206.8hPa | 2.6V | 02:36:59 | 02:38:16 | 00:00:00 | |
| DF8AY | 2026-08-31 01:23:11 | 53.33547 | 11.12794 | 66° | 122km/h | 11760m | -7.3m/s | -52.4°C | 5.2% | 207.9hPa | 2.5V | 02:37:09 | 02:38:20 | 00:00:00 | |
| DB0DAN | 2026-08-31 01:23:10 | 53.33534 | 11.12747 | 65° | 115km/h | 11767m | -6.8m/s | -52.4°C | 4.4% | 207.61hPa | 2.5V | 00:00:00 | 00:00:00 | 00:00:00 | |
| DL1XH-west | 2026-08-31 01:23:07 | 53.33494 | 11.12609 | 64° | 120km/h | 11791m | -7.9m/s | -52.2°C | 4.7% | 206.8hPa | 2.6V | 02:37:09 | 02:38:16 | 00:00:00 | |
| DO2SHX-10 | 2026-08-31 01:23:06 | 53.33481 | 11.12563 | 64° | 120km/h | 11799m | -6.8m/s | -52.0°C | 7.1% | 206.5hPa | 2.6V | 00:00:00 | 02:38:15 | 00:00:00 | |
| DL1XH1-15 | 2026-08-31 01:23:06 | 53.33413 | 11.12339 | 63° | 117km/h | 11835m | -8.1m/s | -51.8°C | 6.6% | 205.5hPa | 2.6V | 02:37:05 | 02:38:10 | 00:00:00 | |
| DM0DOS-11 | 2026-08-31 01:23:05 | 53.33399 | 11.12295 | 62° | 115km/h | 11843m | -7.8m/s | -51.8°C | 6.6% | 205.2hPa | 2.6V | 02:37:06 | 02:38:09 | 00:00:00 | |
| AA1-15 | 2026-08-31 01:23:04 | 53.33453 | 11.12472 | 63° | 119km/h | 11813m | -7.4m/s | -51.8°C | 4.3% | 206.2hPa | 2.5V | 02:37:09 | 02:38:13 | 00:00:00 | |
| BIOWL1-15 | 2026-08-31 01:23:02 | 53.33413 | 11.12339 | 63° | 117km/h | 11835m | -8.1m/s | -51.8°C | 4.1% | 205.5hPa | 2.6V | 02:37:09 | 02:38:10 | 00:00:00 | |
| DL1XH-15 | 2026-08-31 01:23:02 | 53.33359 | 11.12165 | 63° | 115km/h | 11867m | -8.3m/s | -51.7°C | 5.9% | 204.5hPa | 2.6V | 02:37:09 | 02:38:06 | 00:00:00 | |
| DF8AY | 2026-08-31 01:23:00 | 53.33399 | 11.12295 | 63° | 115km/h | 11843m | -7.9m/s | -51.8°C | 4% | 205.2hPa | 2.6V | 02:37:09 | 02:38:09 | 00:00:00 | |
| DL1XH-west | 2026-08-31 01:22:57 | 53.33359 | 11.12165 | 63° | 115km/h | 11867m | -8.3m/s | -51.7°C | 3.4% | 204.5hPa | 2.6V | 02:37:09 | 02:38:06 | 00:00:00 | |
| DO2SHX-10 | 2026-08-31 01:22:57 | 53.33359 | 11.12165 | 64° | 115km/h | 11867m | -8.2m/s | -51.6°C | 5.9% | 204.5hPa | 2.6V | 00:00:00 | 02:38:06 | 00:00:00 | |
| DL1XH1-15 | 2026-08-31 01:22:56 | 53.33281 | 11.11907 | 63° | 111km/h | 11926m | -9.7m/s | -51.7°C | 5.3% | 202.6hPa | 2.6V | 02:37:15 | 02:38:00 | 00:00:00 | |
| DL3AQ-11 | 2026-08-31 01:22:56 | 53.33333 | 11.12079 | 62° | 113km/h | 11887m | -9.0m/s | -51.8°C | 3.2% | 203.9hPa | 2.5V | 00:00:00 | 00:00:00 | 00:00:00 | |
| DB0DAN | 2026-08-31 01:22:55 | 53.33333 | 11.12079 | 63° | 110km/h | 11887m | -9m/s | -51.8°C | 3.2% | 203.88hPa | 2.5V | 00:00:00 | 00:00:00 | 00:00:00 | |
| DM0DOS-11 | 2026-08-31 01:22:55 | 53.33268 | 11.11866 | 62° | 110km/h | 11935m | -8.4m/s | -51.6°C | 5.1% | 202.3hPa | 2.6V | 02:37:16 | 02:37:59 | 00:00:00 | |
| BIOWL1-15 | 2026-08-31 01:22:54 | 53.33294 | 11.11950 | 63° | 115km/h | 11916m | -9.6m/s | -51.8°C | 2.8% | 203hPa | 2.6V | 02:38:00 | 02:38:01 | 00:00:00 | |
| AA1-15 | 2026-08-31 01:22:53 | 53.33307 | 11.11993 | 63° | 115km/h | 11906m | -11m/s | -51.8°C | 2.9% | 203.4hPa | 2.5V | 02:38:00 | 02:38:02 | 00:00:00 | |
| DF8AY | 2026-08-31 01:22:50 | 53.33268 | 11.11865 | 63° | 110km/h | 11935m | -8.4m/s | -51.7°C | 2.4% | 202.3hPa | 2.6V | 02:38:00 | 02:37:59 | 00:00:00 | |
| DL1XH-west | 2026-08-31 01:22:47 | 53.33230 | 11.11743 | 62° | 108km/h | 11965m | -9.7m/s | -51.3°C | 1.9% | 201.4hPa | 2.5V | 02:38:00 | 02:37:56 | 00:00:00 | |
| DL4BBY-15 | 2026-08-31 01:22:47 | 53.33230 | 11.11743 | 62° | 99km/h | 11965m | -9.7m/s | -51.8°C | 0% | 0hPa | 2.5V | 00:00:00 | 00:00:00 | 00:00:00 | |
| AM1SDL-15 | 2026-08-31 01:22:46 | 53.33217 | 11.11704 | 61° | 104km/h | 11973m | -8.5m/s | -50.9°C | 4.5% | 201.1hPa | 2.5V | 00:00:00 | 02:37:55 | 00:00:00 | |
| DM0DOS-11 | 2026-08-31 01:22:45 | 53.33138 | 11.11469 | 61° | 102km/h | 12025m | -7.3m/s | -50.1°C | 4.2% | 199.5hPa | 2.5V | 02:37:26 | 02:37:49 | 00:00:00 | |
| S3001 | 2026-08-31 01:22:44 | 53.33190 | 11.11626 | 60° | 108km/h | 11991m | -10.6m/s | -50.7°C | 2.0% | 200.6hPa | 2.5V | 00:00:00 | 00:00:00 | 00:00:00 | |
| AA1-15 | 2026-08-31 01:22:42 | 53.33164 | 11.11546 | 61° | 106km/h | 12010m | -7.8m/s | -50.2°C | 1.2% | 200hPa | 2.5V | 02:38:00 | 02:37:51 | 00:00:00 | |
| DO2SHX-10 | 2026-08-31 01:22:42 | 53.33164 | 11.11546 | 62° | 104km/h | 12010m | -7.8m/s | -50.2°C | 4.1% | 200.0hPa | 2.5V | 02:37:00 | 02:37:51 | 00:00:00 | |
| DL1XH-15 | 2026-08-31 01:22:41 | 53.33102 | 11.11357 | 60° | 99km/h | 12048m | -7.3m/s | -50°C | 4.3% | 198.8hPa | 2.5V | 02:37:29 | 02:37:46 | 00:00:00 | |
| DB0DAN | 2026-08-31 01:22:40 | 53.33138 | 11.11469 | 61° | 99km/h | 12025m | -7.3m/s | -50.1°C | 1.9% | 199.54hPa | 2.5V | 00:00:00 | 00:00:00 | 00:00:00 | |
| DF8AY | 2026-08-31 01:22:39 | 53.33126 | 11.11431 | 62° | 102km/h | 12033m | -7.3m/s | -50.1°C | 1.2% | 199.3hPa | 2.6V | 02:38:00 | 02:37:48 | 00:00:00 | |
| DO2SHX-10 | 2026-08-31 01:22:39 | 53.33126 | 11.11431 | 62° | 100km/h | 12033m | -7.2m/s | -50.0°C | 4.2% | 199.3hPa | 2.5V | 00:00:00 | 02:37:48 | 00:00:00 | |
| DF8AY-15 | 2026-08-31 01:22:38 | 53.33114 | 11.11393 | 62° | 95km/h | 12040m | -7.4m/s | -50.0°C | 4.2% | 199.1hPa | 2.5V | 00:00:00 | 02:37:47 | 00:00:00 | |
| DD8BA-10 | 2026-08-31 01:22:37 | 53.33101 | 11.11357 | 61° | 97km/h | 12048m | -7.3m/s | -49.9°C | 4.3% | 198.8hPa | 2.5V | 00:00:00 | 00:00:00 | 00:00:00 | |
| DL1XH1-15 | 2026-08-31 01:22:36 | 53.33027 | 11.11142 | 61° | 97km/h | 12093m | -6.8m/s | -49.8°C | 4% | 197.4hPa | 2.5V | 02:37:35 | 02:37:40 | 00:00:00 | |
| DL1XH-west | 2026-08-31 01:22:36 | 53.33089 | 11.11322 | 60° | 99km/h | 12055m | -7.7m/s | -49.9°C | 1.1% | 198.7hPa | 2.5V | 02:38:00 | 02:37:45 | 00:00:00 | |
| AA1-15 | 2026-08-31 01:22:32 | 53.33027 | 11.11142 | 62° | 97km/h | 12093m | -6.8m/s | -49.8°C | 1% | 197.5hPa | 2.5V | 02:38:00 | 02:37:40 | 00:00:00 | |
| BIOWL1-15 | 2026-08-31 01:22:31 | 53.32991 | 11.11037 | 61° | 95km/h | 12115m | -7.7m/s | -49.8°C | 0.8% | 196.8hPa | 2.6V | 02:38:00 | 02:37:37 | 00:00:00 | |
| DL1XH-15 | 2026-08-31 01:22:31 | 53.32979 | 11.11003 | 59° | 93km/h | 12123m | -10.1m/s | -49.8°C | 3.8% | 196.5hPa | 2.6V | 02:37:39 | 02:37:36 | 00:00:00 | |
| DF8AY | 2026-08-31 01:22:29 | 53.33003 | 11.11072 | 60° | 95km/h | 12107m | -7.2m/s | -49.8°C | 0.9% | 197hPa | 2.5V | 02:38:00 | 02:37:38 | 00:00:00 | |
| DO2SHX-10 | 2026-08-31 01:22:27 | 53.32979 | 11.11003 | 60° | 91km/h | 12124m | -10.0m/s | -49.7°C | 3.8% | 196.4hPa | 2.5V | 00:00:00 | 02:37:36 | 00:00:00 | |
| DF7ER-10 | 2026-08-31 01:22:26 | 53.32979 | 11.11003 | 60° | 93km/h | 12124m | -10.1m/s | -49.8°C | 1.7% | 196.5hPa | 2.5V | 02:38:00 | 00:00:00 | 00:00:00 | |
| DB0DAN | 2026-08-31 01:22:25 | 53.32956 | 11.10936 | 60° | 88km/h | 12147m | -12.8m/s | -49.6°C | 1.6% | 196.01hPa | 2.5V | 00:00:00 | 00:00:00 | 00:00:00 | |
| DL1XH-west | 2026-08-31 01:22:25 | 53.32956 | 11.10936 | 60° | 91km/h | 12147m | -12.8m/s | -49.6°C | 0.7% | 196hPa | 2.5V | 02:38:00 | 02:37:34 | 00:00:00 | |
| DC4HF-4 | 2026-08-31 01:22:24 | 53.32933 | 11.10868 | 59° | 93km/h | 12172m | -11.7m/s | -49.6°C | 1.6% | 195.2hPa | 2.5V | 00:00:00 | 00:00:00 | 00:00:00 | |
| AM1SDL-15 | 2026-08-31 01:22:22 | 53.32920 | 11.10833 | 60° | 95km/h | 12184m | -12.1m/s | -49.6°C | 3.6% | 194.9hPa | 2.5V | 00:00:00 | 02:37:31 | 00:00:00 | |
| DL1XH-15 | 2026-08-31 01:22:21 | 53.32860 | 11.10661 | 60° | 97km/h | 12231m | -7.1m/s | -49.7°C | 3.6% | 193.3hPa | 2.5V | 02:37:49 | 02:37:26 | 00:00:00 | |
| AA1-15 | 2026-08-31 01:22:20 | 53.32896 | 11.10764 | 59° | 97km/h | 12205m | -9.6m/s | -49.8°C | 0.6% | 194.2hPa | 2.5V | 02:38:00 | 02:37:29 | 00:00:00 | |
| DF8AY | 2026-08-31 01:22:18 | 53.32811 | 11.10520 | 60° | 95km/h | 12265m | -8.2m/s | -49.4°C | 0.4% | 192.4hPa | 2.5V | 02:38:00 | 02:37:22 | 00:00:00 | |
| BIOWL1-15 | 2026-08-31 01:22:18 | 53.32873 | 11.10695 | 57° | 95km/h | 12224m | -7.6m/s | -49.7°C | 0.6% | 193.6hPa | 2.5V | 02:38:00 | 02:37:27 | 00:00:00 | |
| DO2SHX-10 | 2026-08-31 01:22:18 | 53.32873 | 11.10695 | 58° | 95km/h | 12224m | -7.5m/s | -49.7°C | 3.6% | 193.5hPa | 2.5V | 00:00:00 | 02:37:27 | 00:00:00 | |
| DD8BA-10 | 2026-08-31 01:22:17 | 53.32860 | 11.10660 | 61° | 97km/h | 12231m | -7.0m/s | -49.6°C | 3.6% | 193.2hPa | 2.5V | 02:37:00 | 00:00:00 | 00:00:00 | |
| DF7ER-10 | 2026-08-31 01:22:16 | 53.32860 | 11.10660 | 62° | 97km/h | 12231m | -7.1m/s | -49.7°C | 1.6% | 193.3hPa | 2.6V | 02:38:00 | 00:00:00 | 00:00:00 | |
| DM0DOS-11 | 2026-08-31 01:22:15 | 53.32774 | 11.10416 | 59° | 97km/h | 12289m | -7.7m/s | -49.5°C | 3.4% | 191.7hPa | 2.6V | 02:37:56 | 02:37:19 | 00:00:00 | |
| DL1XH-west | 2026-08-31 01:22:14 | 53.32823 | 11.10555 | 60° | 99km/h | 12257m | -7.7m/s | -49.4°C | 0.4% | 192.6hPa | 2.6V | 02:38:00 | 02:37:23 | 00:00:00 | |
| DO9LL-15 | 2026-08-31 01:22:14 | 53.32823 | 11.10555 | 60° | 91km/h | 12257m | -7.6m/s | -49.3°C | 3.4% | 192.6hPa | 2.6V | 02:37:00 | 02:37:23 | 00:00:00 | |
| S3001 | 2026-08-31 01:22:13 | 53.32811 | 11.10520 | 59° | 93km/h | 12265m | -8.2m/s | -49.4°C | 1.4% | 192.4hPa | 2.5V | 00:00:00 | 00:00:00 | 00:00:00 | |
| DO2SHX-10 | 2026-08-31 01:22:12 | 53.32799 | 11.10486 | 59° | 95km/h | 12273m | -7.4m/s | -49.4°C | 3.5% | 192.1hPa | 2.5V | 00:00:00 | 02:37:21 | 00:00:00 | |
| DL1XH-15 | 2026-08-31 01:22:11 | 53.32737 | 11.10310 | 59° | 95km/h | 12311m | -6.6m/s | -49.6°C | 3.5% | 191hPa | 2.5V | 02:37:59 | 02:37:16 | 00:00:00 | |
| DB0DAN | 2026-08-31 01:22:10 | 53.32774 | 11.10416 | 60° | 93km/h | 12289m | -7.7m/s | -49.5°C | 1.4% | 191.72hPa | 2.6V | 00:00:00 | 00:00:00 | 00:00:00 | |
| AA1-15 | 2026-08-31 01:22:09 | 53.32762 | 11.10381 | 60° | 97km/h | 12297m | -7m/s | -49.6°C | 0.4% | 191.5hPa | 2.6V | 02:38:00 | 02:37:18 | 00:00:00 | |
| BIOWL1-15 | 2026-08-31 01:22:07 | 53.32737 | 11.10310 | 60° | 95km/h | 12311m | -6.6m/s | -49.6°C | 0.5% | 191hPa | 2.5V | 02:38:00 | 02:37:16 | 00:00:00 | |
| DF8AY | 2026-08-31 01:22:05 | 53.32712 | 11.10241 | 59° | 95km/h | 12327m | -7.1m/s | -49.6°C | 0.4% | 190.6hPa | 2.6V | 02:38:51 | 02:37:14 | 00:00:00 | |
| DL1XH1-15 | 2026-08-31 01:22:04 | 53.32664 | 11.10109 | 57° | 86km/h | 12357m | -8.5m/s | -49.5°C | 3.4% | 189.7hPa | 2.5V | 02:38:05 | 02:37:10 | 00:00:00 | |
| DL1XH-west | 2026-08-31 01:22:04 | 53.32700 | 11.10207 | 59° | 93km/h | 12334m | -7.4m/s | -49.6°C | 0.4% | 190.3hPa | 2.6V | 02:38:51 | 02:37:13 | 00:00:00 | |
| DK1YY | 2026-08-31 01:22:03 | 53.32676 | 11.10141 | 58° | 89km/h | 12349m | -7.7m/s | -49.6°C | 1.4% | 189.9hPa | 2.5V | 00:00:00 | 00:00:00 | 00:00:00 | |
| DL1XH-15 | 2026-08-31 01:22:01 | 53.32616 | 11.09988 | 56° | 86km/h | 12389m | -7.6m/s | -49.6°C | 3.4% | 188.7hPa | 2.5V | 02:38:09 | 02:37:06 | 00:00:00 | |
| AA1-15 | 2026-08-31 01:21:59 | 53.32640 | 11.10049 | 56° | 86km/h | 12374m | -7.2m/s | -49.5°C | 0.3% | 189.2hPa | 2.6V | 02:38:51 | 02:37:08 | 00:00:00 | |
| BIOWL1-15 | 2026-08-31 01:21:57 | 53.32616 | 11.09988 | 57° | 88km/h | 12389m | -7.6m/s | -49.6°C | 0.3% | 188.7hPa | 2.5V | 02:38:51 | 02:37:06 | 00:00:00 | |
| SONCRA | 2026-08-31 01:21:56 | 53.32604 | 11.09957 | 56° | 86km/h | 12396m | -8.1m/s | -49.7°C | 1.4% | 188.5hPa | 2.5V | 00:00:00 | 00:00:00 | 00:00:00 | |
| DB0DAN | 2026-08-31 01:21:55 | 53.32592 | 11.09926 | 58° | 84km/h | 12404m | -8.1m/s | -49.7°C | 1.4% | 188.3hPa | 2.5V | 00:00:00 | 00:00:00 | 00:00:00 | |
| DF8AY | 2026-08-31 01:21:55 | 53.32592 | 11.09926 | 58° | 88km/h | 12404m | -8.1m/s | -49.7°C | 0.3% | 188.3hPa | 2.5V | 02:38:51 | 02:37:04 | 00:00:00 | |
| DL1XH-west | 2026-08-31 01:21:53 | 53.32569 | 11.09863 | 59° | 88km/h | 12419m | -7.3m/s | -49.9°C | 0.4% | 187.9hPa | 2.6V | 02:38:51 | 02:37:02 | 00:00:00 | |
| DL1XH1-15 | 2026-08-31 01:21:52 | 53.32546 | 11.09799 | 59° | 89km/h | 12434m | -7.9m/s | -50°C | 3.4% | 187.5hPa | 2.5V | 02:38:15 | 02:37:00 | 00:00:00 | |
| DL3AQ-11 | 2026-08-31 01:21:52 | 53.32546 | 11.09799 | 59° | 88km/h | 12434m | -7.9m/s | -50.0°C | 1.3% | 187.5hPa | 2.6V | 00:00:00 | 00:00:00 | 00:00:00 | |
| DL1XH-15 | 2026-08-31 01:21:51 | 53.32499 | 11.09669 | 58° | 91km/h | 12467m | -8.4m/s | -49.8°C | 3.3% | 186.5hPa | 2.6V | 02:38:19 | 02:36:56 | 00:00:00 | |
| AA1-15 | 2026-08-31 01:21:48 | 53.32511 | 11.09702 | 58° | 91km/h | 12459m | -8.1m/s | -49.8°C | 0.3% | 186.7hPa | 2.5V | 02:38:51 | 02:36:57 | 00:00:00 | |
| BIOWL1-15 | 2026-08-31 01:21:46 | 53.32486 | 11.09636 | 59° | 91km/h | 12475m | -8.4m/s | -49.8°C | 0.1% | 186.3hPa | 2.6V | 02:38:51 | 02:36:55 | 00:00:00 | |
| DL1XH1-15 | 2026-08-31 01:21:46 | 53.32433 | 11.09473 | 63° | 88km/h | 12518m | -8.6m/s | -49.4°C | 3.2% | 185.1hPa | 2.6V | 02:38:25 | 02:36:50 | 00:00:00 | |
| DM0DOS-11 | 2026-08-31 01:21:45 | 53.32423 | 11.09440 | 64° | 88km/h | 12527m | -7.9m/s | -49.4°C | 3.1% | 184.8hPa | 2.6V | 02:38:26 | 02:36:49 | 00:00:00 | |
| DF8AY | 2026-08-31 01:21:44 | 53.32464 | 11.09571 | 61° | 88km/h | 12492m | -8.2m/s | -49.5°C | 0.1% | 185.8hPa | 2.5V | 02:38:51 | 02:36:53 | 00:00:00 | |
| DL1XH-west | 2026-08-31 01:21:42 | 53.32443 | 11.09506 | 62° | 88km/h | 12509m | -9.2m/s | -49.5°C | 0.1% | 185.3hPa | 2.5V | 02:38:51 | 02:36:51 | 00:00:00 | |
| DO2SHX-10 | 2026-08-31 01:21:42 | 53.32442 | 11.09506 | 63° | 88km/h | 12509m | -9.2m/s | -49.4°C | 3.2% | 185.2hPa | 2.6V | 00:00:00 | 02:36:51 | 00:00:00 | |
| DB0DAN | 2026-08-31 01:21:40 | 53.32423 | 11.09440 | 64° | 84km/h | 12527m | -7.9m/s | -49.4°C | 1.2% | 184.85hPa | 2.6V | 00:00:00 | 00:00:00 | 00:00:00 | |
| AA1-15 | 2026-08-31 01:21:37 | 53.32394 | 11.09339 | 64° | 88km/h | 12553m | -10.4m/s | -49.5°C | 0% | 184.1hPa | 2.5V | 02:38:51 | 02:36:46 | 00:00:00 | |
| DD8BA-10 | 2026-08-31 01:21:37 | 53.32393 | 11.09339 | 64° | 91km/h | 12553m | -10.3m/s | -49.5°C | 3.2% | 184.1hPa | 2.6V | 00:00:00 | 00:00:00 | 00:00:00 | |
| DO2SHX-10 | 2026-08-31 01:21:36 | 53.32384 | 11.09305 | 64° | 89km/h | 12563m | -9.1m/s | -49.5°C | 3.2% | 183.8hPa | 2.6V | 00:00:00 | 02:36:45 | 00:00:00 | |
| BIOWL1-15 | 2026-08-31 01:21:36 | 53.32384 | 11.09305 | 64° | 88km/h | 12563m | -9.2m/s | -49.5°C | 0.1% | 183.8hPa | 2.6V | 02:38:51 | 02:36:45 | 00:00:00 | |
| DM0DOS-11 | 2026-08-31 01:21:35 | 53.32323 | 11.09096 | 67° | 93km/h | 12614m | -8.5m/s | -49.9°C | 3.2% | 182.4hPa | 2.6V | 02:38:36 | 02:36:39 | 00:00:00 | |
| DF8AY | 2026-08-31 01:21:34 | 53.32363 | 11.09238 | 63° | 91km/h | 12580m | -8.5m/s | -49.6°C | 0.1% | 183.3hPa | 2.6V | 02:38:51 | 02:36:43 | 00:00:00 | |
| DL1XH-west | 2026-08-31 01:21:32 | 53.32342 | 11.09168 | 65° | 93km/h | 12596m | -8.9m/s | -49.8°C | 0.1% | 182.9hPa | 2.5V | 02:38:51 | 02:36:41 | 00:00:00 | |
| DL1XH-15 | 2026-08-31 01:21:31 | 53.32298 | 11.08987 | 68° | 91km/h | 12639m | -9.1m/s | -50.1°C | 3.2% | 181.7hPa | 2.5V | 02:38:39 | 02:36:36 | 00:00:00 | |
| BIOWL1-15 | 2026-08-31 01:21:26 | 53.32289 | 11.08951 | 68° | 91km/h | 12648m | -8.8m/s | -50.2°C | 0.1% | 181.4hPa | 2.5V | 02:38:51 | 02:36:35 | 00:00:00 | |
| DB0DAN | 2026-08-31 01:21:25 | 53.32280 | 11.08916 | 68° | 86km/h | 12657m | -8m/s | -50.3°C | 1.3% | 181.18hPa | 2.6V | 00:00:00 | 00:00:00 | 00:00:00 | |
| DF8AY | 2026-08-31 01:21:24 | 53.32262 | 11.08846 | 66° | 89km/h | 12673m | -8.1m/s | -50.4°C | 0.2% | 180.7hPa | 2.6V | 02:38:51 | 02:36:32 | 00:00:00 | |
| DL1XH-west | 2026-08-31 01:21:21 | 53.32244 | 11.08777 | 65° | 89km/h | 12689m | -7.6m/s | -50.5°C | 0.2% | 180.3hPa | 2.5V | 02:38:51 | 02:36:30 | 00:00:00 | |
| DL1XH-15 | 2026-08-31 01:21:21 | 53.32207 | 11.08641 | 68° | 86km/h | 12721m | -8.4m/s | -50.2°C | 3.3% | 179.4hPa | 2.6V | 02:38:49 | 02:36:26 | 00:00:00 | |
| DO2SHX-10 | 2026-08-31 01:21:21 | 53.32243 | 11.08777 | 66° | 89km/h | 12689m | -7.5m/s | -50.4°C | 3.4% | 180.2hPa | 2.5V | 02:38:00 | 02:36:30 | 00:00:00 | |
| SMARD9-15 | 2026-08-31 01:21:18 | 53.32207 | 11.08641 | 68° | 86km/h | 12721m | -8.4m/s | -50.2°C | 1.2% | 179.4hPa | 2.6V | 00:00:00 | 00:00:00 | 00:00:00 | |
| DL4BBY-15 | 2026-08-31 01:21:17 | 53.32207 | 11.08641 | 69° | 80km/h | 12721m | -8.3m/s | -50.7°C | 0% | 0hPa | 2.6V | 00:00:00 | 00:00:00 | 00:00:00 | |
| DL1XH1-15 | 2026-08-31 01:21:16 | 53.32162 | 11.08441 | 67° | 80km/h | 12772m | -8.5m/s | -50.4°C | 3.3% | 178hPa | 2.6V | 02:38:55 | 02:36:20 | 00:00:00 | |
| BIOWL1-15 | 2026-08-31 01:21:15 | 53.32192 | 11.08573 | 70° | 86km/h | 12738m | -8.6m/s | -50.2°C | 0% | 178.9hPa | 2.5V | 02:38:51 | 02:36:24 | 00:00:00 | |
| DF8AY | 2026-08-31 01:21:13 | 53.32177 | 11.08506 | 70° | 84km/h | 12755m | -8.4m/s | -50.3°C | 0.1% | 178.5hPa | 2.5V | 02:39:42 | 02:36:22 | 00:00:00 | |
| DL3AQ-11 | 2026-08-31 01:21:12 | 53.32162 | 11.08441 | 67° | 80km/h | 12772m | -8.5m/s | -50.4°C | 1.2% | 178.0hPa | 2.6V | 00:00:00 | 00:00:00 | 00:00:00 | |
| DL1XH-15 | 2026-08-31 01:21:11 | 53.32131 | 11.08316 | 67° | 80km/h | 12807m | -8.7m/s | -50.6°C | 3.3% | 177.1hPa | 2.6V | 02:38:59 | 02:36:16 | 00:00:00 | |
| DL1XH-west | 2026-08-31 01:21:10 | 53.32154 | 11.08410 | 67° | 80km/h | 12781m | -8.9m/s | -50.4°C | 0% | 177.8hPa | 2.5V | 02:39:42 | 02:36:19 | 00:00:00 | |
| DB0DAN | 2026-08-31 01:21:10 | 53.32154 | 11.08410 | 67° | 77km/h | 12781m | -8.9m/s | -50.4°C | 1.2% | 177.78hPa | 2.5V | 00:00:00 | 00:00:00 | 00:00:00 | |
| BIOWL1-15 | 2026-08-31 01:21:05 | 53.32116 | 11.08254 | 67° | 78km/h | 12825m | -8.1m/s | -50.7°C | 0.2% | 176.6hPa | 2.6V | 02:39:42 | 02:36:14 | 00:00:00 | |
| AA1-15 | 2026-08-31 01:21:04 | 53.32108 | 11.08223 | 67° | 78km/h | 12833m | -8.7m/s | -50.8°C | 0.1% | 176.3hPa | 2.5V | 02:39:42 | 02:36:13 | 00:00:00 | |
| DL1XH1-15 | 2026-08-31 01:21:04 | 53.32083 | 11.08133 | 64° | 78km/h | 12858m | -8.6m/s | -51°C | 3.4% | 175.7hPa | 2.6V | 02:39:05 | 02:36:10 | 00:00:00 | |
| DF8AY | 2026-08-31 01:21:03 | 53.32100 | 11.08193 | 66° | 78km/h | 12841m | -8.2m/s | -50.9°C | 0.1% | 176.2hPa | 2.5V | 02:39:42 | 02:36:12 | 00:00:00 | |
| DO2SHX-10 | 2026-08-31 01:21:03 | 53.32100 | 11.08193 | 66° | 78km/h | 12842m | -8.1m/s | -50.9°C | 3.4% | 176.1hPa | 2.5V | 02:39:00 | 02:36:12 | 00:00:00 | |
| EDDB2-12 | 2026-08-31 01:21:02 | 53.32092 | 11.08163 | 65° | 78km/h | 12849m | -8.5m/s | -51.0°C | 1.2% | 175.9hPa | 2.5V | 00:00:00 | 00:00:00 | 00:00:00 | |
| DL1XH-15 | 2026-08-31 01:21:01 | 53.32046 | 11.08014 | 60° | 80km/h | 12893m | -8.9m/s | -51.2°C | 3.5% | 174.8hPa | 2.5V | 02:39:09 | 02:36:06 | 00:00:00 | |
| DL1XH-west | 2026-08-31 01:20:59 | 53.32065 | 11.08074 | 62° | 80km/h | 12875m | -9.3m/s | -51.2°C | 0.2% | 175.2hPa | 2.5V | 02:39:42 | 02:36:08 | 00:00:00 | |
| DL3AQ-11 | 2026-08-31 01:20:56 | 53.32026 | 11.07955 | 60° | 78km/h | 12911m | -8.4m/s | -51.3°C | 1.3% | 174.2hPa | 2.6V | 00:00:00 | 00:00:00 | 00:00:00 | |
| DB0DAN | 2026-08-31 01:20:55 | 53.32026 | 11.07955 | 61° | 77km/h | 12911m | -8.4m/s | -51.3°C | 1.3% | 174.24hPa | 2.6V | 00:00:00 | 00:00:00 | 00:00:00 | |
| DM0DOS-11 | 2026-08-31 01:20:55 | 53.31978 | 11.07811 | 59° | 75km/h | 12959m | -10m/s | -51°C | 3.4% | 173hPa | 2.5V | 02:39:16 | 02:35:59 | 00:00:00 | |
| BIOWL1-15 | 2026-08-31 01:20:55 | 53.31997 | 11.07867 | 61° | 78km/h | 12938m | -10.4m/s | -51°C | 0.2% | 173.7hPa | 2.5V | 02:39:42 | 02:36:01 | 00:00:00 | |
| AA1-15 | 2026-08-31 01:20:54 | 53.32016 | 11.07925 | 61° | 80km/h | 12920m | -8.8m/s | -51.2°C | 0.3% | 174.1hPa | 2.6V | 02:39:42 | 02:36:03 | 00:00:00 | |
| DF8AY | 2026-08-31 01:20:54 | 53.32007 | 11.07896 | 61° | 78km/h | 12929m | -8.8m/s | -51.1°C | 0.2% | 173.8hPa | 2.5V | 02:39:42 | 02:36:02 | 00:00:00 | |
| DO2SHX-10 | 2026-08-31 01:20:54 | 53.32016 | 11.07925 | 62° | 78km/h | 12920m | -8.8m/s | -51.2°C | 3.5% | 174.0hPa | 2.6V | 02:39:00 | 02:36:03 | 00:00:00 | |
| DL1XH1-15 | 2026-08-31 01:20:52 | 53.31987 | 11.07838 | 60° | 77km/h | 12949m | -10.6m/s | -51°C | 3.4% | 173.3hPa | 2.5V | 02:39:15 | 02:36:00 | 00:00:00 | |
| DL1XH-west | 2026-08-31 01:20:48 | 53.31958 | 11.07755 | 59° | 75km/h | 12978m | -9.3m/s | -51.1°C | 0.1% | 172.6hPa | 2.6V | 02:39:42 | 02:35:57 | 00:00:00 | |
| DJ2DS-15 | 2026-08-31 01:20:48 | 53.31948 | 11.07728 | 59° | 77km/h | 12988m | -9.6m/s | -51.1°C | 1.3% | 172.2hPa | 2.5V | 00:00:00 | 00:00:00 | 00:00:00 | |
| SMARD9-15 | 2026-08-31 01:20:47 | 53.31938 | 11.07699 | 58° | 78km/h | 12998m | -10.6m/s | -51.2°C | 1.3% | 172.0hPa | 2.5V | 00:00:00 | 00:00:00 | 00:00:00 | |
| DL1XH1-15 | 2026-08-31 01:20:46 | 53.31884 | 11.07553 | 57° | 82km/h | 13041m | -8m/s | -51.2°C | 3.5% | 170.8hPa | 2.5V | 02:39:25 | 02:35:50 | 00:00:00 | |
| DM0DOS-11 | 2026-08-31 01:20:45 | 53.31873 | 11.07524 | 57° | 82km/h | 13050m | -8.9m/s | -51.1°C | 3.5% | 170.7hPa | 2.5V | 02:39:26 | 02:35:49 | 00:00:00 | |
| AA1-15 | 2026-08-31 01:20:44 | 53.31917 | 11.07641 | 58° | 82km/h | 13017m | -8.6m/s | -51.2°C | 0.2% | 171.4hPa | 2.5V | 02:39:42 | 02:35:53 | 00:00:00 | |
| DF8AY | 2026-08-31 01:20:42 | 53.31895 | 11.07582 | 58° | 82km/h | 13033m | -7.9m/s | -51.3°C | 0.3% | 171hPa | 2.6V | 02:39:42 | 02:35:51 | 00:00:00 | |
| DO2SHX-10 | 2026-08-31 01:20:42 | 53.31895 | 11.07582 | 58° | 82km/h | 13033m | -7.9m/s | -51.2°C | 3.5% | 170.9hPa | 2.5V | 00:00:00 | 02:35:51 | 00:00:00 | |
| DF7ER-10 | 2026-08-31 01:20:41 | 53.31895 | 11.07582 | 59° | 82km/h | 13033m | -7.9m/s | -51.3°C | 1.3% | 171.0hPa | 2.5V | 02:39:00 | 00:00:00 | 00:00:00 | |
| DB0DAN | 2026-08-31 01:20:40 | 53.31872 | 11.07524 | 57° | 78km/h | 13050m | -8.9m/s | -51.1°C | 1.3% | 170.67hPa | 2.5V | 00:00:00 | 00:00:00 | 00:00:00 | |
| DL1XH-west | 2026-08-31 01:20:37 | 53.31838 | 11.07436 | 56° | 82km/h | 13076m | -8.7m/s | -51.2°C | 0.3% | 169.9hPa | 2.6V | 02:39:42 | 02:35:46 | 00:00:00 | |
| DD8BA-10 | 2026-08-31 01:20:37 | 53.31838 | 11.07436 | 57° | 86km/h | 13076m | -8.6m/s | -51.1°C | 3.5% | 169.9hPa | 2.6V | 00:00:00 | 00:00:00 | 00:00:00 | |
| DO2SHX-10 | 2026-08-31 01:20:36 | 53.31826 | 11.07407 | 56° | 84km/h | 13085m | -8.2m/s | -51.2°C | 3.5% | 169.6hPa | 2.6V | 02:39:00 | 02:35:45 | 00:00:00 | |
| DM0DOS-11 | 2026-08-31 01:20:35 | 53.31749 | 11.07235 | 52° | 88km/h | 13137m | -8.8m/s | -51.4°C | 3.5% | 168.3hPa | 2.5V | 02:39:36 | 02:35:39 | 00:00:00 | |
| BIOWL1-15 | 2026-08-31 01:20:33 | 53.31762 | 11.07264 | 52° | 88km/h | 13129m | -8.4m/s | -51.3°C | 0.3% | 168.6hPa | 2.6V | 02:39:42 | 02:35:40 | 00:00:00 | |
| AA1-15 | 2026-08-31 01:20:33 | 53.31789 | 11.07321 | 53° | 84km/h | 13111m | -9.1m/s | -51.2°C | 0.2% | 169hPa | 2.5V | 02:39:42 | 02:35:42 | 00:00:00 | |
| DF8AY | 2026-08-31 01:20:32 | 53.31776 | 11.07292 | 52° | 86km/h | 13120m | -8.7m/s | -51.3°C | 0.2% | 168.8hPa | 2.6V | 02:39:42 | 02:35:41 | 00:00:00 | |
| DL1XH-west | 2026-08-31 01:20:26 | 53.31695 | 11.07114 | 54° | 91km/h | 13172m | -8.8m/s | -51.6°C | 0.3% | 167.4hPa | 2.6V | 02:39:42 | 02:35:35 | 00:00:00 | |
| DB0DAN | 2026-08-31 01:20:25 | 53.31681 | 11.07083 | 54° | 88km/h | 13180m | -8.6m/s | -51.6°C | 1.3% | 167.19hPa | 2.6V | 00:00:00 | 00:00:00 | 00:00:00 | |
| DO2SHX-10 | 2026-08-31 01:20:24 | 53.31667 | 11.07052 | 54° | 93km/h | 13189m | -8.4m/s | -51.6°C | 3.6% | 166.9hPa | 2.5V | 00:00:00 | 02:35:33 | 00:00:00 | |
| SONCRA | 2026-08-31 01:20:23 | 53.31653 | 11.07021 | 53° | 91km/h | 13198m | -8.6m/s | -51.6°C | 1.3% | 166.8hPa | 2.5V | 00:00:00 | 00:00:00 | 00:00:00 | |
| DL1XH1-15 | 2026-08-31 01:20:22 | 53.31625 | 11.06958 | 52° | 93km/h | 13215m | -8.3m/s | -51.7°C | 3.7% | 166.3hPa | 2.5V | 02:39:45 | 02:35:30 | 00:00:00 | |
| AA1-15 | 2026-08-31 01:20:22 | 53.31639 | 11.06989 | 53° | 93km/h | 13206m | -8.5m/s | -51.7°C | 0.4% | 166.5hPa | 2.5V | 02:40:33 | 02:35:31 | 00:00:00 | |
| DL1XH-15 | 2026-08-31 01:20:21 | 53.31569 | 11.06831 | 53° | 93km/h | 13248m | -8.4m/s | -51.8°C | 3.6% | 165.4hPa | 2.5V | 02:39:49 | 02:35:26 | 00:00:00 | |
| DF8AY | 2026-08-31 01:20:21 | 53.31625 | 11.06958 | 53° | 93km/h | 13215m | -8.3m/s | -51.7°C | 0.4% | 166.3hPa | 2.5V | 02:40:33 | 02:35:30 | 00:00:00 | |
| BIOWL1-15 | 2026-08-31 01:20:20 | 53.31470 | 11.06600 | 56° | 97km/h | 13309m | -8.2m/s | -52°C | 0.5% | 163.9hPa | 2.5V | 02:40:33 | 02:35:19 | 00:00:00 | |
| SONDE2-11 | 2026-08-31 01:20:20 | 53.31611 | 11.06927 | 53° | 93km/h | 13223m | -8.6m/s | -51.7°C | 1.3% | 166.1hPa | 2.5V | 00:00:00 | 00:00:00 | 00:00:00 | |
| DF7ER-10 | 2026-08-31 01:20:19 | 53.31611 | 11.06927 | 54° | 93km/h | 13223m | -8.6m/s | -51.7°C | 1.4% | 166.1hPa | 2.5V | 02:40:00 | 00:00:00 | 00:00:00 | |
| DF8AY-15 | 2026-08-31 01:20:18 | 53.31582 | 11.06863 | 54° | 95km/h | 13240m | -7.9m/s | -51.7°C | 3.6% | 165.6hPa | 2.5V | 00:00:00 | 02:35:27 | 00:00:00 | |
| DD8BA-10 | 2026-08-31 01:20:17 | 53.31569 | 11.06831 | 54° | 97km/h | 13248m | -8.3m/s | -51.8°C | 3.6% | 165.4hPa | 2.5V | 02:39:00 | 00:00:00 | 00:00:00 | |
| DL1XH1-15 | 2026-08-31 01:20:16 | 53.31484 | 11.06634 | 54° | 99km/h | 13301m | -8.7m/s | -52°C | 3.8% | 164.1hPa | 2.5V | 02:39:55 | 02:35:20 | 00:00:00 | |
| DL1XH-west | 2026-08-31 01:20:15 | 53.31541 | 11.06767 | 54° | 95km/h | 13265m | -9.1m/s | -51.9°C | 0.4% | 165.1hPa | 2.5V | 02:40:33 | 02:35:24 | 00:00:00 | |
| DO2SHX-10 | 2026-08-31 01:20:15 | 53.31540 | 11.06767 | 55° | 95km/h | 13265m | -9.1m/s | -51.8°C | 3.7% | 165.0hPa | 2.6V | 00:00:00 | 02:35:24 | 00:00:00 | |
| DO9LL-15 | 2026-08-31 01:20:14 | 53.31527 | 11.06734 | 55° | 89km/h | 13275m | -9.9m/s | -51.8°C | 3.7% | 164.8hPa | 2.6V | 00:00:00 | 02:35:23 | 00:00:00 | |
| GOEST3-10 | 2026-08-31 01:20:13 | 53.31512 | 11.06701 | 55° | 97km/h | 13284m | -8.4m/s | -51.8°C | 3.7% | 164.4hPa | 2.6V | 00:00:00 | 02:35:22 | 00:00:00 | |
| DO2SHX-10 | 2026-08-31 01:20:12 | 53.31498 | 11.06668 | 56° | 97km/h | 13292m | -8.5m/s | -51.9°C | 3.7% | 164.3hPa | 2.6V | 00:00:00 | 02:35:21 | 00:00:00 | |
| DL1XH-15 | 2026-08-31 01:20:11 | 53.31430 | 11.06500 | 56° | 93km/h | 13333m | -7.9m/s | -52°C | 3.8% | 163.3hPa | 2.6V | 02:39:59 | 02:35:16 | 00:00:00 | |
| DF8AY | 2026-08-31 01:20:11 | 53.31484 | 11.06634 | 55° | 99km/h | 13301m | -8.7m/s | -52°C | 0.4% | 164.1hPa | 2.5V | 02:40:33 | 02:35:20 | 00:00:00 | |
| DB0DAN | 2026-08-31 01:20:10 | 53.31470 | 11.06600 | 56° | 93km/h | 13309m | -8.2m/s | -52°C | 1.4% | 163.88hPa | 2.5V | 00:00:00 | 00:00:00 | 00:00:00 | |
| S3001 | 2026-08-31 01:20:09 | 53.31443 | 11.06533 | 56° | 95km/h | 13326m | -7.7m/s | -52.0°C | 1.4% | 163.5hPa | 2.5V | 00:00:00 | 00:00:00 | 00:00:00 | |
| GOEST3-10 | 2026-08-31 01:20:08 | 53.31443 | 11.06533 | 57° | 93km/h | 13326m | -7.7m/s | -51.9°C | 3.8% | 163.5hPa | 2.5V | 00:00:00 | 00:00:00 | 00:00:00 | |
| DD8BA-10 | 2026-08-31 01:20:07 | 53.31430 | 11.06500 | 57° | 93km/h | 13333m | -7.8m/s | -52.0°C | 3.8% | 163.2hPa | 2.5V | 00:00:00 | 00:00:00 | 00:00:00 | |
| DO2SHX-10 | 2026-08-31 01:20:06 | 53.31417 | 11.06467 | 57° | 93km/h | 13342m | -8.4m/s | -52.0°C | 3.8% | 163.0hPa | 2.5V | 00:00:00 | 02:35:15 | 00:00:00 | |
| DM0DOS-11 | 2026-08-31 01:20:05 | 53.31340 | 11.06266 | 58° | 95km/h | 13394m | -9m/s | -51.8°C | 3.7% | 161.8hPa | 2.5V | 02:40:06 | 02:35:09 | 00:00:00 | |
| DL1XH-west | 2026-08-31 01:20:04 | 53.31391 | 11.06401 | 57° | 93km/h | 13359m | -8.6m/s | -52°C | 0.4% | 162.7hPa | 2.5V | 02:40:33 | 02:35:13 | 00:00:00 | |
| DL1XH1-15 | 2026-08-31 01:20:04 | 53.31352 | 11.06301 | 58° | 95km/h | 13385m | -8.6m/s | -51.8°C | 3.8% | 162hPa | 2.5V | 02:40:05 | 02:35:10 | 00:00:00 | |
| BIOWL1-15 | 2026-08-31 01:20:02 | 53.31365 | 11.06335 | 58° | 95km/h | 13376m | -8.2m/s | -51.9°C | 0.3% | 162.2hPa | 2.6V | 02:40:33 | 02:35:11 | 00:00:00 | |
| DL1XH-15 | 2026-08-31 01:20:01 | 53.31304 | 11.06166 | 59° | 89km/h | 13418m | -7.6m/s | -51.7°C | 3.7% | 161.2hPa | 2.6V | 02:40:09 | 02:35:06 | 00:00:00 | |
| DF8AY | 2026-08-31 01:20:00 | 53.31340 | 11.06266 | 59° | 95km/h | 13394m | -9m/s | -51.8°C | 0.3% | 161.8hPa | 2.5V | 02:40:33 | 02:35:09 | 00:00:00 | |
| EDDB2-12 | 2026-08-31 01:20:00 | 53.31327 | 11.06232 | 59° | 93km/h | 13403m | -8.7m/s | -51.8°C | 1.3% | 161.6hPa | 2.5V | 00:00:00 | 00:00:00 | 00:00:00 | |
| DC4HF-4 | 2026-08-31 01:19:59 | 53.31327 | 11.06232 | 59° | 93km/h | 13403m | -8.7m/s | -51.8°C | 1.3% | 161.6hPa | 2.5V | 00:00:00 | 00:00:00 | 00:00:00 | |
| DB0UT-7 | 2026-08-31 01:19:58 | 53.31316 | 11.06199 | 60° | 75km/h | 13411m | -7.7m/s | -51.7°C | 3.8% | 161.3hPa | 2.5V | 00:00:00 | 00:00:00 | 00:00:00 | |
| DO2SHX-10 | 2026-08-31 01:19:57 | 53.31304 | 11.06166 | 60° | 88km/h | 13418m | -7.5m/s | -51.7°C | 3.7% | 161.1hPa | 2.5V | 00:00:00 | 02:35:06 | 00:00:00 | |
| DB0DAN | 2026-08-31 01:19:55 | 53.31281 | 11.06102 | 58° | 82km/h | 13434m | -8.2m/s | -51.6°C | 1.3% | 160.79hPa | 2.5V | 00:00:00 | 00:00:00 | 00:00:00 | |
| DM0DOS-11 | 2026-08-31 01:19:55 | 53.31226 | 11.05954 | 58° | 78km/h | 13479m | -8.6m/s | -50.5°C | 3.3% | 159.7hPa | 2.6V | 02:40:16 | 02:34:59 | 00:00:00 | |
| DL1XH-west | 2026-08-31 01:19:54 | 53.31269 | 11.06072 | 58° | 86km/h | 13442m | -8.7m/s | -51.3°C | 0.2% | 160.5hPa | 2.5V | 02:40:33 | 02:35:03 | 00:00:00 | |
| DO2SHX-10 | 2026-08-31 01:19:54 | 53.31269 | 11.06072 | 58° | 84km/h | 13442m | -8.6m/s | -51.3°C | 3.6% | 160.5hPa | 2.6V | 00:00:00 | 02:35:03 | 00:00:00 | |
| GOEST3-10 | 2026-08-31 01:19:53 | 53.31258 | 11.06042 | 58° | 80km/h | 13451m | -9.1m/s | -51.2°C | 3.5% | 160.3hPa | 2.6V | 00:00:00 | 02:35:02 | 00:00:00 | |
| DL1XH1-15 | 2026-08-31 01:19:52 | 53.31236 | 11.05983 | 59° | 80km/h | 13470m | -9.6m/s | -50.7°C | 3.3% | 159.9hPa | 2.6V | 02:40:15 | 02:35:00 | 00:00:00 | |
| BIOWL1-15 | 2026-08-31 01:19:52 | 53.31247 | 11.06012 | 58° | 82km/h | 13460m | -9.7m/s | -51°C | 0% | 160.1hPa | 2.5V | 02:40:33 | 02:35:01 | 00:00:00 | |
| DL1XH-15 | 2026-08-31 01:19:51 | 53.31197 | 11.05872 | 58° | 75km/h | 13504m | -8.2m/s | -50.4°C | 3.2% | 159.1hPa | 2.5V | 02:40:19 | 02:34:56 | 00:00:00 | |
| AA1-15 | 2026-08-31 01:19:50 | 53.31226 | 11.05954 | 59° | 78km/h | 13479m | -8.6m/s | -50.6°C | 0% | 159.7hPa | 2.6V | 02:40:33 | 02:34:59 | 00:00:00 | |
| SONDE2-11 | 2026-08-31 01:19:49 | 53.31216 | 11.05926 | 59° | 75km/h | 13488m | -8.4m/s | -50.4°C | 1.1% | 159.5hPa | 2.5V | 00:00:00 | 00:00:00 | 00:00:00 | |
| DO2SHX-10 | 2026-08-31 01:19:48 | 53.31206 | 11.05899 | 59° | 75km/h | 13496m | -8.2m/s | -50.4°C | 3.3% | 159.2hPa | 2.5V | 00:00:00 | 02:34:57 | 00:00:00 | |
| DD8BA-10 | 2026-08-31 01:19:47 | 53.31196 | 11.05871 | 59° | 69km/h | 13504m | -8.1m/s | -50.3°C | 3.2% | 159.0hPa | 2.5V | 02:40:00 | 00:00:00 | 00:00:00 | |
| DL1XH1-15 | 2026-08-31 01:19:46 | 53.31137 | 11.05722 | 54° | 68km/h | 13554m | -8.3m/s | -50.1°C | 3.2% | 157.8hPa | 2.5V | 02:40:25 | 02:34:50 | 00:00:00 | |
| SP3WXH-11 | 2026-08-31 01:19:46 | 53.31177 | 11.05819 | 57° | 71km/h | 13522m | -8.6m/s | -50.2°C | 1.0% | 158.7hPa | 2.5V | 00:00:00 | 00:00:00 | 00:00:00 | |
| SMARD9-15 | 2026-08-31 01:19:44 | 53.31167 | 11.05794 | 56° | 69km/h | 13530m | -8.4m/s | -50.1°C | 1.0% | 158.4hPa | 2.5V | 00:00:00 | 00:00:00 | 00:00:00 | |
| DL1XH-west | 2026-08-31 01:19:43 | 53.31157 | 11.05770 | 56° | 69km/h | 13538m | -7.8m/s | -50.1°C | 0% | 158.2hPa | 2.5V | 02:40:33 | 02:34:52 | 00:00:00 | |
| GOEST3-10 | 2026-08-31 01:19:43 | 53.31157 | 11.05770 | 56° | 68km/h | 13539m | -7.8m/s | -50.1°C | 3.1% | 158.2hPa | 2.6V | 00:00:00 | 02:34:52 | 00:00:00 | |
| DM0DOS-11 | 2026-08-31 01:19:42 | 53.31128 | 11.05699 | 55° | 68km/h | 13563m | -8.6m/s | -50.1°C | 3.1% | 157.6hPa | 2.6V | 02:40:26 | 02:34:49 | 00:00:00 | |
| DO2SHX-10 | 2026-08-31 01:19:42 | 53.31147 | 11.05746 | 56° | 68km/h | 13547m | -7.8m/s | -50.0°C | 3.2% | 158.0hPa | 2.5V | 02:40:00 | 02:34:51 | 00:00:00 | |
| DL1XH-15 | 2026-08-31 01:19:41 | 53.31098 | 11.05630 | 53° | 66km/h | 13587m | -7.6m/s | -50°C | 3.1% | 157.1hPa | 2.5V | 02:40:29 | 02:34:46 | 00:00:00 | |
| DB0DAN | 2026-08-31 01:19:40 | 53.31128 | 11.05699 | 55° | 64km/h | 13563m | -8.6m/s | -50.1°C | 1% | 157.64hPa | 2.6V | 00:00:00 | 00:00:00 | 00:00:00 | |
| AA1-15 | 2026-08-31 01:19:39 | 53.31118 | 11.05676 | 55° | 68km/h | 13571m | -8m/s | -50°C | 0% | 157.4hPa | 2.6V | 02:40:33 | 02:34:48 | 00:00:00 | |
| DO2SHX-10 | 2026-08-31 01:19:39 | 53.31118 | 11.05675 | 55° | 66km/h | 13571m | -8.0m/s | -50.0°C | 3.2% | 157.4hPa | 2.5V | 00:00:00 | 02:34:48 | 00:00:00 | |
| S3001 | 2026-08-31 01:19:38 | 53.31098 | 11.05630 | 53° | 66km/h | 13587m | -7.6m/s | -50.0°C | 1.0% | 157.1hPa | 2.5V | 00:00:00 | 00:00:00 | 00:00:00 | |
| DD8BA-10 | 2026-08-31 01:19:37 | 53.31098 | 11.05630 | 54° | 69km/h | 13587m | -7.6m/s | -50.0°C | 3.1% | 157.0hPa | 2.5V | 00:00:00 | 00:00:00 | 00:00:00 | |
| DL3AQ-11 | 2026-08-31 01:19:36 | 53.31078 | 11.05586 | 50° | 66km/h | 13604m | -8.7m/s | -50.0°C | 1.0% | 156.6hPa | 2.5V | 00:00:00 | 00:00:00 | 00:00:00 | |
| DM0DOS-11 | 2026-08-31 01:19:35 | 53.31020 | 11.05480 | 46° | 71km/h | 13649m | -10.4m/s | -50.1°C | 3.1% | 155.6hPa | 2.5V | 02:40:36 | 02:34:39 | 00:00:00 | |
| DL1XH1-15 | 2026-08-31 01:19:34 | 53.31032 | 11.05502 | 46° | 69km/h | 13639m | -10.2m/s | -50.1°C | 3.1% | 155.9hPa | 2.5V | 02:40:35 | 02:34:40 | 00:00:00 | |
| DL1XH-west | 2026-08-31 01:19:33 | 53.31056 | 11.05544 | 48° | 68km/h | 13621m | -8.2m/s | -50.1°C | 0% | 156.2hPa | 2.6V | 02:40:33 | 02:34:42 | 00:00:00 | |
| DO2SHX-10 | 2026-08-31 01:19:33 | 53.31056 | 11.05544 | 49° | 68km/h | 13621m | -8.2m/s | -50.0°C | 3.1% | 156.2hPa | 2.6V | 02:40:00 | 02:34:42 | 00:00:00 | |
| DL1XH-15 | 2026-08-31 01:19:31 | 53.30981 | 11.05413 | 46° | 75km/h | 13679m | -11.4m/s | -50.1°C | 3.1% | 154.9hPa | 2.6V | 02:40:39 | 02:34:36 | 00:00:00 | |
| BIOWL1-15 | 2026-08-31 01:19:29 | 53.31007 | 11.05458 | 46° | 73km/h | 13659m | -9.5m/s | -50.1°C | 0% | 155.4hPa | 2.6V | 02:41:24 | 02:34:38 | 00:00:00 | |
| DF8AY | 2026-08-31 01:19:28 | 53.30994 | 11.05436 | 46° | 75km/h | 13668m | -9.8m/s | -50.1°C | 0% | 155.1hPa | 2.6V | 02:41:24 | 02:34:37 | 00:00:00 | |
| DB0UT-7 | 2026-08-31 01:19:28 | 53.30994 | 11.05436 | 47° | 77km/h | 13668m | -9.8m/s | -50.1°C | 3.1% | 155.1hPa | 2.6V | 02:40:00 | 02:34:37 | 00:00:00 | |
| DO2SHX-10 | 2026-08-31 01:19:27 | 53.30981 | 11.05413 | 47° | 73km/h | 13679m | -11.4m/s | -50.0°C | 3.1% | 154.9hPa | 2.5V | 00:00:00 | 02:34:36 | 00:00:00 | |
| DF7ER-10 | 2026-08-31 01:19:26 | 53.30981 | 11.05413 | 47° | 75km/h | 13679m | -11.4m/s | -50.1°C | 1.0% | 154.9hPa | 2.5V | 02:41:00 | 00:00:00 | 00:00:00 | |
| DB0DAN | 2026-08-31 01:19:25 | 53.30956 | 11.05369 | 45° | 68km/h | 13701m | -11.1m/s | -50.3°C | 1% | 154.4hPa | 2.5V | 00:00:00 | 00:00:00 | 00:00:00 | |
| DM0DOS-11 | 2026-08-31 01:19:25 | 53.30894 | 11.05267 | 45° | 69km/h | 13750m | -9.3m/s | -50.5°C | 3.2% | 153.2hPa | 2.5V | 02:40:46 | 02:34:29 | 00:00:00 | |
| DL1XH-west | 2026-08-31 01:19:22 | 53.30919 | 11.05307 | 45° | 68km/h | 13732m | -8.5m/s | -50.4°C | 0% | 153.6hPa | 2.6V | 02:41:24 | 02:34:31 | 00:00:00 | |
| DL1XH1-15 | 2026-08-31 01:19:22 | 53.30907 | 11.05287 | 45° | 68km/h | 13741m | -8.9m/s | -50.5°C | 3.2% | 153.4hPa | 2.5V | 02:40:45 | 02:34:30 | 00:00:00 | |
| BIOWL1-15 | 2026-08-31 01:19:20 | 53.30882 | 11.05246 | 44° | 71km/h | 13759m | -8.8m/s | -50.5°C | 0% | 153hPa | 2.5V | 02:41:24 | 02:34:28 | 00:00:00 | |
| AA1-15 | 2026-08-31 01:19:18 | 53.30869 | 11.05225 | 43° | 73km/h | 13768m | -9.1m/s | -50.5°C | 0% | 152.8hPa | 2.6V | 02:41:24 | 02:34:27 | 00:00:00 | |
| DF8AY | 2026-08-31 01:19:17 | 53.30855 | 11.05203 | 43° | 77km/h | 13777m | -9m/s | -50.6°C | 0% | 152.6hPa | 2.6V | 02:41:24 | 02:34:26 | 00:00:00 | |
| DD8BA-10 | 2026-08-31 01:19:17 | 53.30855 | 11.05203 | 44° | 77km/h | 13777m | -8.9m/s | -50.5°C | 3.2% | 152.5hPa | 2.6V | 02:40:00 | 00:00:00 | 00:00:00 | |
| DL1XH1-15 | 2026-08-31 01:19:16 | 53.30775 | 11.05060 | 51° | 77km/h | 13832m | -8.5m/s | -50.9°C | 3.3% | 151.4hPa | 2.6V | 02:40:55 | 02:34:20 | 00:00:00 | |
| DL1XH-west | 2026-08-31 01:19:12 | 53.30787 | 11.05085 | 50° | 77km/h | 13823m | -9m/s | -50.9°C | 0% | 151.5hPa | 2.5V | 02:41:24 | 02:34:21 | 00:00:00 | |
| DO2SHX-10 | 2026-08-31 01:19:12 | 53.30787 | 11.05085 | 51° | 77km/h | 13823m | -9.0m/s | -50.9°C | 3.3% | 151.5hPa | 2.6V | 00:00:00 | 02:34:21 | 00:00:00 | |
| DM0DOS-11 | 2026-08-31 01:19:11 | 53.30763 | 11.05035 | 51° | 77km/h | 13840m | -8.8m/s | -50.9°C | 3.3% | 151.1hPa | 2.6V | 02:40:56 | 02:34:19 | 00:00:00 | |
| DB0DAN | 2026-08-31 01:19:10 | 53.30763 | 11.05035 | 51° | 73km/h | 13840m | -8.8m/s | -50.9°C | 1% | 151.14hPa | 2.6V | 00:00:00 | 00:00:00 | 00:00:00 | |
| BIOWL1-15 | 2026-08-31 01:19:09 | 53.30751 | 11.05010 | 51° | 75km/h | 13849m | -8.5m/s | -50.9°C | 0% | 150.9hPa | 2.6V | 02:41:24 | 02:34:18 | 00:00:00 | |
| DF8AY | 2026-08-31 01:19:07 | 53.30726 | 11.04962 | 49° | 77km/h | 13866m | -8.3m/s | -50.9°C | 0% | 150.5hPa | 2.5V | 02:41:24 | 02:34:16 | 00:00:00 | |
| DL1XH-west | 2026-08-31 01:19:01 | 53.30645 | 11.04809 | 51° | 84km/h | 13921m | -9.3m/s | -50.5°C | 0% | 149.3hPa | 2.5V | 02:41:24 | 02:34:10 | 00:00:00 | |
| DL1XH-15 | 2026-08-31 01:19:01 | 53.30592 | 11.04698 | 53° | 80km/h | 13958m | -11.1m/s | -50.5°C | 3.1% | 148.4hPa | 2.5V | 02:41:09 | 02:34:06 | 00:00:00 | |
| DM0DOS-11 | 2026-08-31 01:19:01 | 53.30631 | 11.04781 | 51° | 86km/h | 13930m | -9.2m/s | -50.4°C | 3.1% | 149hPa | 2.6V | 02:41:06 | 02:34:09 | 00:00:00 | |
| BIOWL1-15 | 2026-08-31 01:18:58 | 53.30605 | 11.04726 | 52° | 82km/h | 13948m | -9.3m/s | -50.4°C | 0% | 148.7hPa | 2.6V | 02:41:24 | 02:34:07 | 00:00:00 | |
| AA1-15 | 2026-08-31 01:18:56 | 53.30580 | 11.04671 | 54° | 80km/h | 13969m | -10m/s | -50.6°C | 0% | 148.2hPa | 2.5V | 02:41:24 | 02:34:05 | 00:00:00 | |
| DB0DAN | 2026-08-31 01:18:55 | 53.30569 | 11.04643 | 55° | 77km/h | 13979m | -10.2m/s | -50.6°C | 0.9% | 148hPa | 2.5V | 00:00:00 | 00:00:00 | 00:00:00 | |
| DL1XH-west | 2026-08-31 01:18:51 | 53.30522 | 11.04531 | 54° | 84km/h | 14019m | -10.5m/s | -50.8°C | 0% | 147.1hPa | 2.5V | 02:41:24 | 02:34:00 | 00:00:00 | |
| DL1XH-15 | 2026-08-31 01:18:51 | 53.30470 | 11.04414 | 54° | 86km/h | 14057m | -9.8m/s | -51.1°C | 3.2% | 146.1hPa | 2.6V | 02:41:19 | 02:33:56 | 00:00:00 | |
| DM0DOS-11 | 2026-08-31 01:18:51 | 53.30510 | 11.04502 | 52° | 86km/h | 14029m | -9.8m/s | -50.9°C | 3.2% | 146.8hPa | 2.5V | 02:41:16 | 02:33:59 | 00:00:00 | |
| BIOWL1-15 | 2026-08-31 01:18:48 | 53.30483 | 11.04444 | 53° | 88km/h | 14047m | -9.3m/s | -51.1°C | 0% | 146.4hPa | 2.6V | 02:41:24 | 02:33:57 | 00:00:00 | |
| DF8AY | 2026-08-31 01:18:46 | 53.30457 | 11.04385 | 55° | 86km/h | 14067m | -10m/s | -51.2°C | 0% | 145.9hPa | 2.5V | 02:41:24 | 02:33:55 | 00:00:00 | |
| DL1XH1-15 | 2026-08-31 01:18:46 | 53.30384 | 11.04198 | 57° | 89km/h | 14127m | -10m/s | -51.6°C | 3.3% | 144.6hPa | 2.5V | 02:41:26 | 02:33:49 | 00:00:00 | |
| AA1-15 | 2026-08-31 01:18:45 | 53.30445 | 11.04355 | 56° | 86km/h | 14077m | -10.9m/s | -51.3°C | 0% | 145.8hPa | 2.5V | 02:41:24 | 02:33:54 | 00:00:00 | |
| DO2SHX-10 | 2026-08-31 01:18:45 | 53.30445 | 11.04355 | 57° | 88km/h | 14077m | -10.8m/s | -51.2°C | 3.2% | 145.7hPa | 2.6V | 00:00:00 | 02:33:54 | 00:00:00 | |
| DO9LL-15 | 2026-08-31 01:18:44 | 53.30433 | 11.04325 | 57° | 77km/h | 14087m | -10.4m/s | -51.3°C | 3.3% | 145.5hPa | 2.6V | 00:00:00 | 02:33:53 | 00:00:00 | |
| DL3AQ-11 | 2026-08-31 01:18:43 | 53.30409 | 11.04262 | 57° | 89km/h | 14108m | -10.5m/s | -51.5°C | 1.0% | 145.1hPa | 2.6V | 00:00:00 | 00:00:00 | 00:00:00 | |
| DB0NH | 2026-08-31 01:18:42 | 53.30409 | 11.04262 | 58° | 75km/h | 14108m | -10.4m/s | -51.4°C | 3.3% | 145.0hPa | 2.6V | 00:00:00 | 02:33:51 | 00:00:00 | |
| DL1XH-15 | 2026-08-31 01:18:41 | 53.30351 | 11.04105 | 60° | 82km/h | 14158m | -11.3m/s | -51.5°C | 3.3% | 143.9hPa | 2.6V | 02:41:29 | 02:33:46 | 00:00:00 | |
| DB0DAN | 2026-08-31 01:18:40 | 53.30385 | 11.04198 | 58° | 84km/h | 14127m | -10m/s | -51.6°C | 1% | 144.58hPa | 2.5V | 00:00:00 | 00:00:00 | 00:00:00 | |
| DL1XH-west | 2026-08-31 01:18:40 | 53.30385 | 11.04198 | 58° | 89km/h | 14127m | -10m/s | -51.6°C | 0% | 144.6hPa | 2.5V | 02:42:15 | 02:33:49 | 00:00:00 | |
| BIOWL1-15 | 2026-08-31 01:18:37 | 53.30351 | 11.04105 | 61° | 82km/h | 14158m | -11.3m/s | -51.5°C | 0% | 143.9hPa | 2.6V | 02:43:06 | 02:33:46 | 00:00:00 | |
| DF8AY | 2026-08-31 01:18:36 | 53.30341 | 11.04075 | 62° | 80km/h | 14169m | -10.7m/s | -51.5°C | 0% | 143.7hPa | 2.6V | 02:42:15 | 02:33:45 | 00:00:00 | |
| AA1-15 | 2026-08-31 01:18:35 | 53.30332 | 11.04045 | 64° | 78km/h | 14179m | -9.3m/s | -51.4°C | 0% | 143.4hPa | 2.5V | 02:42:15 | 02:33:44 | 00:00:00 | |
| DL1XH1-15 | 2026-08-31 01:18:35 | 53.30292 | 11.03898 | 65° | 75km/h | 14228m | -9.1m/s | -51.4°C | 3.3% | 142.4hPa | 2.6V | 02:41:36 | 02:33:39 | 00:00:00 | |
| SP3BTT-10 | 2026-08-31 01:18:34 | 53.30323 | 11.04015 | 66° | 68km/h | 14189m | -9.8m/s | -51.3°C | 3.3% | 143.2hPa | 2.5V | 02:41:00 | 00:00:00 | 00:00:00 | |
| GOEST3-10 | 2026-08-31 01:18:33 | 53.30315 | 11.03986 | 66° | 77km/h | 14199m | -10.3m/s | -51.3°C | 3.2% | 143.0hPa | 2.5V | 02:41:00 | 02:33:42 | 00:00:00 | |
| DL3AQ-11 | 2026-08-31 01:18:32 | 53.30300 | 11.03927 | 66° | 75km/h | 14219m | -10.4m/s | -51.4°C | 1.0% | 142.6hPa | 2.5V | 00:00:00 | 00:00:00 | 00:00:00 | |
| DL1XH-15 | 2026-08-31 01:18:31 | 53.30268 | 11.03811 | 66° | 75km/h | 14256m | -9.8m/s | -51.4°C | 3.2% | 141.8hPa | 2.5V | 02:41:39 | 02:33:36 | 00:00:00 | |
| BIOWL1-15 | 2026-08-31 01:18:31 | 53.30268 | 11.03811 | 66° | 75km/h | 14256m | -9.8m/s | -51.4°C | 0% | 141.8hPa | 2.5V | 02:43:06 | 02:33:36 | 00:00:00 | |
| DL1XH-west | 2026-08-31 01:18:30 | 53.30292 | 11.03898 | 66° | 75km/h | 14228m | -9.1m/s | -51.4°C | 0% | 142.4hPa | 2.6V | 02:42:15 | 02:33:39 | 00:00:00 | |
| DF8AY | 2026-08-31 01:18:26 | 53.30261 | 11.03782 | 66° | 75km/h | 14266m | -9.5m/s | -51.4°C | 0% | 141.6hPa | 2.5V | 02:42:15 | 02:33:35 | 00:00:00 | |
| DB0DAN | 2026-08-31 01:18:25 | 53.30253 | 11.03753 | 66° | 71km/h | 14275m | -9.5m/s | -51.3°C | 0.9% | 141.42hPa | 2.6V | 00:00:00 | 00:00:00 | 00:00:00 | |
| AA1-15 | 2026-08-31 01:18:24 | 53.30245 | 11.03725 | 66° | 73km/h | 14284m | -8.8m/s | -51.1°C | 0% | 141.1hPa | 2.6V | 02:42:15 | 02:33:33 | 00:00:00 | |
| DL1XH-west | 2026-08-31 01:18:19 | 53.30207 | 11.03588 | 65° | 69km/h | 14330m | -9m/s | -51.2°C | 0% | 140.2hPa | 2.6V | 02:42:15 | 02:33:28 | 00:00:00 | |
| BIOWL1-15 | 2026-08-31 01:18:16 | 53.30185 | 11.03513 | 62° | 64km/h | 14357m | -9.3m/s | -51.2°C | 0% | 139.6hPa | 2.5V | 02:43:06 | 02:33:25 | 00:00:00 | |
| DL3AQ-11 | 2026-08-31 01:18:16 | 53.30177 | 11.03489 | 60° | 62km/h | 14367m | -9.4m/s | -51.2°C | 0.9% | 139.4hPa | 2.5V | 00:00:00 | 00:00:00 | 00:00:00 | |
| DL1XH1-15 | 2026-08-31 01:18:15 | 53.30134 | 11.03378 | 54° | 64km/h | 14413m | -9.9m/s | -51.2°C | 3.1% | 138.4hPa | 2.5V | 02:41:56 | 02:33:19 | 00:00:00 | |
| DF8AY | 2026-08-31 01:18:15 | 53.30177 | 11.03489 | 61° | 64km/h | 14367m | -9.4m/s | -51.2°C | 0% | 139.4hPa | 2.5V | 02:42:15 | 02:33:24 | 00:00:00 | |
| AA1-15 | 2026-08-31 01:18:13 | 53.30161 | 11.03444 | 57° | 62km/h | 14385m | -9.1m/s | -51.1°C | 0% | 138.9hPa | 2.6V | 02:42:15 | 02:33:22 | 00:00:00 | |
| DB0NH | 2026-08-31 01:18:12 | 53.30152 | 11.03421 | 56° | 60km/h | 14394m | -9.3m/s | -51.0°C | 3.0% | 138.7hPa | 2.5V | 02:41:00 | 02:33:21 | 00:00:00 | |
| DL1XH-15 | 2026-08-31 01:18:11 | 53.30107 | 11.03311 | 56° | 64km/h | 14442m | -9.6m/s | -51.3°C | 3.1% | 137.8hPa | 2.6V | 02:41:59 | 02:33:16 | 00:00:00 | |
| DB0DAN | 2026-08-31 01:18:10 | 53.30134 | 11.03378 | 55° | 60km/h | 14413m | -9.9m/s | -51.2°C | 0.9% | 138.4hPa | 2.5V | 00:00:00 | 00:00:00 | 00:00:00 | |
| DL1XH-west | 2026-08-31 01:18:08 | 53.30116 | 11.03334 | 57° | 64km/h | 14433m | -9.2m/s | -51.3°C | 0% | 138hPa | 2.6V | 02:42:15 | 02:33:17 | 00:00:00 | |
| BIOWL1-15 | 2026-08-31 01:18:05 | 53.30055 | 11.03186 | 52° | 57km/h | 14496m | -9.2m/s | -51.6°C | 0% | 136.6hPa | 2.6V | 02:43:06 | 02:33:10 | 00:00:00 | |
| DF8AY | 2026-08-31 01:18:04 | 53.30081 | 11.03245 | 56° | 60km/h | 14470m | -8.7m/s | -51.5°C | 0% | 137.2hPa | 2.5V | 02:42:15 | 02:33:13 | 00:00:00 | |
| AA1-15 | 2026-08-31 01:18:03 | 53.30072 | 11.03224 | 55° | 58km/h | 14478m | -8.2m/s | -51.6°C | 0% | 137hPa | 2.5V | 02:42:15 | 02:33:12 | 00:00:00 | |
| DO2SHX-10 | 2026-08-31 01:18:03 | 53.30072 | 11.03224 | 55° | 57km/h | 14478m | -8.1m/s | -51.5°C | 3.2% | 136.9hPa | 2.5V | 02:42:00 | 02:33:12 | 00:00:00 | |
| DF7ER-10 | 2026-08-31 01:18:02 | 53.30072 | 11.03224 | 56° | 58km/h | 14478m | -8.2m/s | -51.6°C | 0.9% | 137.0hPa | 2.6V | 02:42:00 | 00:00:00 | 00:00:00 | |
| DM0DOS-11 | 2026-08-31 01:18:01 | 53.30046 | 11.03168 | 49° | 57km/h | 14505m | -8.9m/s | -51.7°C | 3.2% | 136.4hPa | 2.6V | 02:42:06 | 02:33:09 | 00:00:00 | |
| DL1XH-west | 2026-08-31 01:17:57 | 53.30017 | 11.03112 | 47° | 60km/h | 14531m | -8.7m/s | -51.8°C | 0% | 135.8hPa | 2.5V | 02:42:15 | 02:33:06 | 00:00:00 | |
| HTAHTA | 2026-08-31 01:17:57 | 53.29996 | 11.03076 | 46° | 58km/h | 14548m | -9.4m/s | -51.8°C | 0.9% | 135.6hPa | 2.6V | 00:00:00 | 00:00:00 | 00:00:00 | |
| EDDB2-12 | 2026-08-31 01:17:56 | 53.29996 | 11.03076 | 46° | 58km/h | 14548m | -9.4m/s | -51.8°C | 0.9% | 135.6hPa | 2.6V | 00:00:00 | 00:00:00 | 00:00:00 | |
| DB0DAN | 2026-08-31 01:17:55 | 53.29996 | 11.03076 | 46° | 57km/h | 14548m | -9.4m/s | -51.8°C | 0.9% | 135.56hPa | 2.6V | 00:00:00 | 00:00:00 | 00:00:00 | |
| DF8AY | 2026-08-31 01:17:53 | 53.29975 | 11.03040 | 47° | 58km/h | 14566m | -8.8m/s | -51.8°C | 0% | 135.2hPa | 2.5V | 02:42:15 | 02:33:02 | 00:00:00 | |
| AA1-15 | 2026-08-31 01:17:52 | 53.29965 | 11.03022 | 49° | 57km/h | 14576m | -10m/s | -51.9°C | 0% | 135hPa | 2.6V | 02:42:15 | 02:33:01 | 00:00:00 | |
| BIOWL1-15 | 2026-08-31 01:17:50 | 53.29931 | 11.02945 | 57° | 60km/h | 14613m | -9.1m/s | -51.9°C | 0% | 134.2hPa | 2.5V | 02:43:06 | 02:32:57 | 00:00:00 | |
| DL1XH-west | 2026-08-31 01:17:46 | 53.29913 | 11.02901 | 56° | 66km/h | 14631m | -9.2m/s | -51.9°C | 0% | 133.8hPa | 2.6V | 02:43:06 | 02:32:55 | 00:00:00 | |
| EDDB2-11 | 2026-08-31 01:17:46 | 53.29913 | 11.02901 | 55° | 64km/h | 14631m | -9.2m/s | -51.9°C | 0.9% | 133.8hPa | 2.5V | 00:00:00 | 00:00:00 | 00:00:00 | |
| SONDE2-11 | 2026-08-31 01:17:45 | 53.29894 | 11.02854 | 54° | 69km/h | 14650m | -9.4m/s | -52.0°C | 0.9% | 133.4hPa | 2.5V | 00:00:00 | 00:00:00 | 00:00:00 | |
| DF8AY | 2026-08-31 01:17:42 | 53.29873 | 11.02805 | 56° | 71km/h | 14668m | -8.5m/s | -52.1°C | 0% | 133.1hPa | 2.5V | 02:43:06 | 02:32:51 | 00:00:00 | |
| BIOWL1-15 | 2026-08-31 01:17:42 | 53.29854 | 11.02754 | 60° | 71km/h | 14685m | -8.9m/s | -52.1°C | 0% | 132.7hPa | 2.6V | 02:43:06 | 02:32:49 | 00:00:00 | |
| DL1XH-15 | 2026-08-31 01:17:41 | 53.29829 | 11.02674 | 64° | 71km/h | 14712m | -8.9m/s | -52.2°C | 3.3% | 132.2hPa | 2.5V | 02:42:29 | 02:32:46 | 00:00:00 | |
| AA1-15 | 2026-08-31 01:17:41 | 53.29863 | 11.02779 | 58° | 69km/h | 14676m | -8.2m/s | -52.1°C | 0% | 132.9hPa | 2.5V | 02:43:06 | 02:32:50 | 00:00:00 | |
| DB0DAN | 2026-08-31 01:17:40 | 53.29854 | 11.02754 | 60° | 68km/h | 14685m | -8.9m/s | -52.1°C | 0.9% | 132.73hPa | 2.6V | 00:00:00 | 00:00:00 | 00:00:00 | |
| DL1XH-west | 2026-08-31 01:17:35 | 53.29806 | 11.02592 | 67° | 71km/h | 14741m | -9.8m/s | -52.2°C | 0% | 131.6hPa | 2.6V | 02:43:06 | 02:32:43 | 00:00:00 | |
| DF8AY | 2026-08-31 01:17:33 | 53.29792 | 11.02537 | 67° | 69km/h | 14759m | -8.5m/s | -52°C | 0% | 131.2hPa | 2.5V | 02:43:06 | 02:32:41 | 00:00:00 | |
| BIOWL1-15 | 2026-08-31 01:17:32 | 53.29779 | 11.02485 | 66° | 66km/h | 14776m | -7.7m/s | -51.8°C | 0% | 130.9hPa | 2.5V | 02:43:06 | 02:32:39 | 00:00:00 | |
| DM0DOS-11 | 2026-08-31 01:17:31 | 53.29779 | 11.02485 | 66° | 66km/h | 14776m | -7.7m/s | -51.8°C | 3.2% | 130.9hPa | 2.5V | 02:42:36 | 02:32:39 | 00:00:00 | |
| AA1-15 | 2026-08-31 01:17:31 | 53.29786 | 11.02511 | 66° | 68km/h | 14768m | -9.1m/s | -51.9°C | 0% | 131hPa | 2.5V | 02:43:06 | 02:32:40 | 00:00:00 | |
| DO2SHX-10 | 2026-08-31 01:17:30 | 53.29779 | 11.02485 | 67° | 64km/h | 14776m | -7.6m/s | -51.8°C | 3.2% | 130.8hPa | 2.6V | 00:00:00 | 02:32:39 | 00:00:00 | |
| DL1XH-15 | 2026-08-31 01:17:28 | 53.29758 | 11.02413 | 63° | 60km/h | 14805m | -9.2m/s | -51.9°C | 3.2% | 130.3hPa | 2.6V | 02:42:39 | 02:32:36 | 00:00:00 | |
| DB0UT-7 | 2026-08-31 01:17:28 | 53.29765 | 11.02437 | 64° | 64km/h | 14796m | -10.5m/s | -51.8°C | 3.1% | 130.5hPa | 2.6V | 00:00:00 | 02:32:37 | 00:00:00 | |
| DO2SHX-10 | 2026-08-31 01:17:27 | 53.29758 | 11.02413 | 64° | 60km/h | 14805m | -9.1m/s | -51.8°C | 3.2% | 130.2hPa | 2.6V | 02:42:00 | 02:32:36 | 00:00:00 | |
| DB0DAN | 2026-08-31 01:17:25 | 53.29745 | 11.02368 | 64° | 55km/h | 14824m | -9.1m/s | -51.9°C | 0.9% | 129.87hPa | 2.5V | 00:00:00 | 00:00:00 | 00:00:00 | |
| DL1XH-west | 2026-08-31 01:17:24 | 53.29739 | 11.02346 | 65° | 57km/h | 14834m | -10.8m/s | -52°C | 0% | 129.7hPa | 2.5V | 02:43:06 | 02:32:33 | 00:00:00 | |
| DO2SHX-10 | 2026-08-31 01:17:24 | 53.29739 | 11.02346 | 65° | 55km/h | 14834m | -10.8m/s | -51.9°C | 3.2% | 129.6hPa | 2.5V | 00:00:00 | 02:32:33 | 00:00:00 | |
| DL3AQ-11 | 2026-08-31 01:17:23 | 53.29727 | 11.02304 | 64° | 53km/h | 14854m | -9.2m/s | -52.1°C | 0.9% | 129.3hPa | 2.5V | 00:00:00 | 00:00:00 | 00:00:00 | |
| BIOWL9-15 | 2026-08-31 01:17:22 | 53.29727 | 11.02304 | 64° | 53km/h | 14854m | -9.2m/s | -52.1°C | 0.9% | 129.3hPa | 2.5V | 00:00:00 | 00:00:00 | 00:00:00 | |
| DF8AY | 2026-08-31 01:17:22 | 53.29727 | 11.02304 | 65° | 55km/h | 14854m | -9.2m/s | -52.1°C | 0% | 129.3hPa | 2.6V | 02:43:06 | 02:32:31 | 00:00:00 | |
| DM0DOS-11 | 2026-08-31 01:17:21 | 53.29715 | 11.02263 | 64° | 55km/h | 14873m | -9.4m/s | -52.2°C | 3.2% | 128.9hPa | 2.5V | 02:42:46 | 02:32:29 | 00:00:00 | |
| AA1-15 | 2026-08-31 01:17:20 | 53.29715 | 11.02263 | 65° | 55km/h | 14873m | -9.4m/s | -52.2°C | 0% | 128.9hPa | 2.5V | 02:43:06 | 02:32:29 | 00:00:00 | |
| BIOWL1-15 | 2026-08-31 01:17:19 | 53.29709 | 11.02242 | 64° | 57km/h | 14882m | -9.5m/s | -52.3°C | 0% | 128.8hPa | 2.5V | 02:43:06 | 02:32:28 | 00:00:00 | |
| DO2SHX-10 | 2026-08-31 01:17:18 | 53.29703 | 11.02220 | 63° | 60km/h | 14892m | -9.1m/s | -52.3°C | 3.3% | 128.5hPa | 2.6V | 02:42:00 | 02:32:27 | 00:00:00 | |
| SONCRA | 2026-08-31 01:17:17 | 53.29696 | 11.02198 | 62° | 58km/h | 14901m | -9.4m/s | -52.4°C | 0.9% | 128.3hPa | 2.5V | 00:00:00 | 00:00:00 | 00:00:00 | |
| DL1XH1-15 | 2026-08-31 01:17:15 | 53.29642 | 11.02038 | 59° | 64km/h | 14969m | -9.5m/s | -52.7°C | 3.4% | 127hPa | 2.5V | 02:42:56 | 02:32:19 | 00:00:00 | |
| DL1XH-west | 2026-08-31 01:17:13 | 53.29666 | 11.02107 | 61° | 64km/h | 14940m | -9.6m/s | -52.6°C | 0% | 127.6hPa | 2.5V | 02:43:06 | 02:32:22 | 00:00:00 | |
| DF8AY | 2026-08-31 01:17:12 | 53.29658 | 11.02084 | 60° | 64km/h | 14950m | -9.9m/s | -52.6°C | 0% | 127.4hPa | 2.6V | 02:43:06 | 02:32:21 | 00:00:00 | |
| DO2SHX-10 | 2026-08-31 01:17:12 | 53.29658 | 11.02084 | 60° | 64km/h | 14950m | -9.8m/s | -52.5°C | 3.3% | 127.3hPa | 2.5V | 00:00:00 | 02:32:21 | 00:00:00 | |
| DB0DAN | 2026-08-31 01:17:10 | 53.29642 | 11.02038 | 59° | 60km/h | 14969m | -9.5m/s | -52.7°C | 0.9% | 127hPa | 2.5V | 00:00:00 | 00:00:00 | 00:00:00 | |
| AA1-15 | 2026-08-31 01:17:09 | 53.29634 | 11.02014 | 60° | 66km/h | 14979m | -10.2m/s | -52.7°C | 0% | 126.8hPa | 2.5V | 02:43:06 | 02:32:18 | 00:00:00 | |
| BIOWL1-15 | 2026-08-31 01:17:08 | 53.29608 | 11.01939 | 61° | 71km/h | 15010m | -9.7m/s | -52.8°C | 0% | 126.2hPa | 2.6V | 02:43:06 | 02:32:15 | 00:00:00 | |
| GOEST3-10 | 2026-08-31 01:17:08 | 53.29625 | 11.01990 | 60° | 71km/h | 14989m | -10.2m/s | -52.7°C | 3.4% | 126.6hPa | 2.6V | 00:00:00 | 00:00:00 | 00:00:00 | |
| DD8BA-10 | 2026-08-31 01:17:07 | 53.29617 | 11.01965 | 61° | 75km/h | 15000m | -10.3m/s | -52.7°C | 3.4% | 126.4hPa | 2.6V | 00:00:00 | 00:00:00 | 00:00:00 | |
| DO2SHX-10 | 2026-08-31 01:17:06 | 53.29608 | 11.01939 | 61° | 75km/h | 15010m | -9.6m/s | -52.7°C | 3.4% | 126.2hPa | 2.6V | 00:00:00 | 02:32:15 | 00:00:00 | |
| DL1ZP-14 | 2026-08-31 01:17:05 | 53.29599 | 11.01912 | 60° | 73km/h | 15019m | -9.5m/s | -52.8°C | 0.9% | 126.1hPa | 2.6V | 00:00:00 | 00:00:00 | 00:00:00 | |
| DM0DOS-11 | 2026-08-31 01:17:03 | 53.29554 | 11.01772 | 62° | 75km/h | 15070m | -10.5m/s | -52.6°C | 3.4% | 125.1hPa | 2.6V | 02:43:06 | 02:32:09 | 00:00:00 | |
| DL1XH-west | 2026-08-31 01:17:02 | 53.29572 | 11.01828 | 62° | 75km/h | 15049m | -10.2m/s | -52.7°C | 0% | 125.5hPa | 2.5V | 02:43:06 | 02:32:11 | 00:00:00 | |
| DF8AY | 2026-08-31 01:17:01 | 53.29563 | 11.01800 | 62° | 75km/h | 15060m | -10.6m/s | -52.6°C | 0% | 125.2hPa | 2.6V | 02:43:06 | 02:32:10 | 00:00:00 | |
| AA1-15 | 2026-08-31 01:16:58 | 53.29537 | 11.01716 | 63° | 75km/h | 15090m | -9.8m/s | -52.7°C | 0% | 124.7hPa | 2.5V | 02:43:57 | 02:32:07 | 00:00:00 | |
| BIOWL1-15 | 2026-08-31 01:16:57 | 53.29519 | 11.01660 | 64° | 77km/h | 15109m | -8.8m/s | -52.8°C | 0% | 124.3hPa | 2.6V | 02:43:57 | 02:32:05 | 00:00:00 | |
| DL3AQ-11 | 2026-08-31 01:16:56 | 53.29511 | 11.01631 | 63° | 77km/h | 15118m | -9.4m/s | -52.8°C | 1.0% | 124.1hPa | 2.6V | 00:00:00 | 00:00:00 | 00:00:00 | |
| DB0DAN | 2026-08-31 01:16:55 | 53.29511 | 11.01631 | 64° | 73km/h | 15118m | -9.4m/s | -52.8°C | 1% | 124.13hPa | 2.6V | 00:00:00 | 00:00:00 | 00:00:00 | |
| EDDB2-12 | 2026-08-31 01:16:54 | 53.29494 | 11.01571 | 64° | 78km/h | 15137m | -10.3m/s | -52.6°C | 0.9% | 123.8hPa | 2.6V | 00:00:00 | 00:00:00 | 00:00:00 | |
| GOEST3-10 | 2026-08-31 01:16:53 | 53.29493 | 11.01571 | 65° | 80km/h | 15138m | -10.3m/s | -52.6°C | 3.4% | 123.7hPa | 2.6V | 00:00:00 | 02:32:02 | 00:00:00 | |
| DM0DOS-11 | 2026-08-31 01:16:52 | 53.29469 | 11.01478 | 67° | 80km/h | 15167m | -10.5m/s | -52.5°C | 3.4% | 123.2hPa | 2.6V | 02:43:16 | 02:31:59 | 00:00:00 | |
| DF8AY | 2026-08-31 01:16:51 | 53.29476 | 11.01509 | 66° | 80km/h | 15157m | -9.8m/s | -52.5°C | 0% | 123.4hPa | 2.5V | 02:43:57 | 02:32:00 | 00:00:00 | |
| AA1-15 | 2026-08-31 01:16:47 | 53.29448 | 11.01386 | 70° | 75km/h | 15198m | -10m/s | -52.5°C | 0% | 122.6hPa | 2.5V | 02:43:57 | 02:31:56 | 00:00:00 | |
| SONCRA | 2026-08-31 01:16:46 | 53.29434 | 11.01328 | 68° | 71km/h | 15217m | -9.9m/s | -52.5°C | 1.0% | 122.2hPa | 2.6V | 00:00:00 | 00:00:00 | 00:00:00 | |
| BIOWL1-15 | 2026-08-31 01:16:45 | 53.29421 | 11.01272 | 68° | 69km/h | 15237m | -9.5m/s | -52.4°C | 0% | 121.9hPa | 2.6V | 02:43:57 | 02:31:52 | 00:00:00 | |
| DO2SHX-10 | 2026-08-31 01:16:45 | 53.29434 | 11.01327 | 69° | 71km/h | 15218m | -9.8m/s | -52.4°C | 3.5% | 122.2hPa | 2.5V | 00:00:00 | 02:31:54 | 00:00:00 | |
| DO9LL-15 | 2026-08-31 01:16:44 | 53.29428 | 11.01299 | 69° | 66km/h | 15228m | -9.4m/s | -52.4°C | 3.6% | 122.0hPa | 2.5V | 00:00:00 | 02:31:53 | 00:00:00 | |
| SONDE2-11 | 2026-08-31 01:16:43 | 53.29415 | 11.01245 | 67° | 68km/h | 15246m | -9.7m/s | -52.4°C | 1.0% | 121.7hPa | 2.5V | 00:00:00 | 00:00:00 | 00:00:00 | |
| DB0NH | 2026-08-31 01:16:42 | 53.29415 | 11.01245 | 68° | 64km/h | 15247m | -9.7m/s | -52.3°C | 3.6% | 121.6hPa | 2.5V | 02:43:00 | 02:31:51 | 00:00:00 | |
| DL1XH-15 | 2026-08-31 01:16:41 | 53.29382 | 11.01116 | 67° | 66km/h | 15294m | -9.8m/s | -52°C | 3.4% | 120.8hPa | 2.5V | 02:43:29 | 02:31:46 | 00:00:00 | |
| DM0DOS-11 | 2026-08-31 01:16:41 | 53.29401 | 11.01192 | 65° | 68km/h | 15265m | -10.4m/s | -52.2°C | 3.5% | 121.3hPa | 2.5V | 02:43:26 | 02:31:49 | 00:00:00 | |
| DF8AY | 2026-08-31 01:16:41 | 53.29408 | 11.01218 | 67° | 68km/h | 15256m | -8.9m/s | -52.3°C | 0% | 121.5hPa | 2.5V | 02:43:57 | 02:31:50 | 00:00:00 | |
| DL1XH-west | 2026-08-31 01:16:41 | 53.29401 | 11.01192 | 66° | 68km/h | 15265m | -10.4m/s | -52.2°C | 0% | 121.3hPa | 2.5V | 02:43:57 | 02:31:49 | 00:00:00 | |
| DB0DAN | 2026-08-31 01:16:40 | 53.29401 | 11.01192 | 66° | 64km/h | 15265m | -10.4m/s | -52.2°C | 1% | 121.3hPa | 2.5V | 00:00:00 | 00:00:00 | 00:00:00 | |
| AA1-15 | 2026-08-31 01:16:37 | 53.29382 | 11.01116 | 67° | 66km/h | 15294m | -9.8m/s | -52°C | 0% | 120.8hPa | 2.5V | 02:43:57 | 02:31:46 | 00:00:00 | |
| DD8BA-10 | 2026-08-31 01:16:37 | 53.29382 | 11.01116 | 68° | 64km/h | 15295m | -9.7m/s | -52.0°C | 3.4% | 120.8hPa | 2.5V | 00:00:00 | 00:00:00 | 00:00:00 | |
| DO2SHX-10 | 2026-08-31 01:16:36 | 53.29375 | 11.01090 | 68° | 68km/h | 15305m | -10.2m/s | -52.0°C | 3.4% | 120.6hPa | 2.5V | 00:00:00 | 02:31:45 | 00:00:00 | |
| DL1XH1-15 | 2026-08-31 01:16:35 | 53.29337 | 11.00938 | 61° | 62km/h | 15367m | -10.6m/s | -51.7°C | 3.3% | 119.5hPa | 2.5V | 02:43:36 | 02:31:39 | 00:00:00 | |
| BIOWL1-15 | 2026-08-31 01:16:33 | 53.29357 | 11.01012 | 68° | 64km/h | 15336m | -10.9m/s | -52.2°C | 0% | 120hPa | 2.6V | 02:43:57 | 02:31:42 | 00:00:00 | |
| DF8AY | 2026-08-31 01:16:32 | 53.29344 | 11.00962 | 66° | 62km/h | 15357m | -9.9m/s | -52°C | 0% | 119.7hPa | 2.5V | 02:43:57 | 02:31:40 | 00:00:00 | |
| DL3AQ-11 | 2026-08-31 01:16:32 | 53.29350 | 11.00986 | 67° | 62km/h | 15347m | -10.1m/s | -52.1°C | 0.9% | 119.8hPa | 2.6V | 00:00:00 | 00:00:00 | 00:00:00 | |
| DL1XH-15 | 2026-08-31 01:16:31 | 53.29313 | 11.00872 | 54° | 60km/h | 15398m | -10.1m/s | -51.7°C | 3.2% | 118.9hPa | 2.6V | 02:43:39 | 02:31:36 | 00:00:00 | |
| DL1XH-west | 2026-08-31 01:16:30 | 53.29337 | 11.00938 | 62° | 62km/h | 15367m | -10.6m/s | -51.7°C | 0% | 119.5hPa | 2.5V | 02:43:57 | 02:31:39 | 00:00:00 | |
| AA1-15 | 2026-08-31 01:16:26 | 53.29303 | 11.00851 | 53° | 60km/h | 15409m | -11.5m/s | -51.7°C | 0% | 118.7hPa | 2.5V | 02:43:57 | 02:31:35 | 00:00:00 | |
| DB0DAN | 2026-08-31 01:16:25 | 53.29294 | 11.00831 | 51° | 57km/h | 15419m | -10m/s | -51.7°C | 0.9% | 118.5hPa | 2.5V | 00:00:00 | 00:00:00 | 00:00:00 | |
| BIOWL1-15 | 2026-08-31 01:16:23 | 53.29275 | 11.00792 | 51° | 60km/h | 15440m | -10m/s | -51.8°C | 0% | 118.1hPa | 2.6V | 02:43:57 | 02:31:32 | 00:00:00 | |
| DF8AY | 2026-08-31 01:16:20 | 53.29248 | 11.00730 | 56° | 60km/h | 15469m | -10.5m/s | -51.8°C | 0% | 117.6hPa | 2.5V | 02:43:57 | 02:31:29 | 00:00:00 | |
| DL1XH-west | 2026-08-31 01:16:19 | 53.29239 | 11.00709 | 55° | 62km/h | 15479m | -9.7m/s | -51.8°C | 0% | 117.4hPa | 2.5V | 02:43:57 | 02:31:28 | 00:00:00 | |
| AA1-15 | 2026-08-31 01:16:15 | 53.29198 | 11.00622 | 49° | 69km/h | 15521m | -10m/s | -51.4°C | 0% | 116.7hPa | 2.5V | 02:43:57 | 02:31:24 | 00:00:00 | |
| SONCRA | 2026-08-31 01:16:15 | 53.29186 | 11.00600 | 47° | 69km/h | 15532m | -10.4m/s | -51.4°C | 0.8% | 116.5hPa | 2.5V | 00:00:00 | 00:00:00 | 00:00:00 | |
| DO9LL-15 | 2026-08-31 01:16:14 | 53.29186 | 11.00599 | 48° | 53km/h | 15532m | -10.3m/s | -51.3°C | 3.1% | 116.4hPa | 2.5V | 02:43:00 | 02:31:23 | 00:00:00 | |
| DM0DOS-11 | 2026-08-31 01:16:13 | 53.29137 | 11.00511 | 48° | 69km/h | 15571m | -11.5m/s | -51.3°C | 3.1% | 115.8hPa | 2.6V | 02:43:56 | 02:31:19 | 00:00:00 | |
| BIOWL1-15 | 2026-08-31 01:16:13 | 53.29162 | 11.00555 | 47° | 71km/h | 15550m | -9.5m/s | -51.4°C | 0% | 116.1hPa | 2.6V | 02:43:57 | 02:31:21 | 00:00:00 | |
| DL1XH-15 | 2026-08-31 01:16:12 | 53.29037 | 11.00294 | 54° | 75km/h | 15665m | -10.1m/s | -51.6°C | 3.2% | 114.1hPa | 2.6V | 02:44:05 | 02:31:10 | 00:00:00 | |
| DB0NH | 2026-08-31 01:16:12 | 53.29162 | 11.00555 | 47° | 69km/h | 15550m | -9.5m/s | -51.3°C | 3.1% | 116.1hPa | 2.6V | 00:00:00 | 02:31:21 | 00:00:00 | |
| AP2371 | 2026-08-31 01:16:11 | 53.29162 | 11.00555 | 48° | 71km/h | 15550m | -9.5m/s | -51.4°C | 0.8% | 116.1hPa | 2.6V | 00:00:00 | 00:00:00 | 00:00:00 | |
| DB0DAN | 2026-08-31 01:16:10 | 53.29138 | 11.00511 | 48° | 68km/h | 15571m | -11.5m/s | -51.3°C | 0.7% | 115.81hPa | 2.6V | 00:00:00 | 00:00:00 | 00:00:00 | |
| DL1XH-west | 2026-08-31 01:16:09 | 53.29114 | 11.00467 | 50° | 71km/h | 15593m | -9.9m/s | -51.4°C | 0% | 115.4hPa | 2.5V | 02:44:48 | 02:31:17 | 00:00:00 | |
| DF8AY | 2026-08-31 01:16:09 | 53.29126 | 11.00489 | 49° | 69km/h | 15582m | -11m/s | -51.4°C | 0% | 115.6hPa | 2.5V | 02:43:57 | 02:31:18 | 00:00:00 | |
| DO2SHX-10 | 2026-08-31 01:16:09 | 53.29126 | 11.00489 | 50° | 71km/h | 15582m | -11.0m/s | -51.3°C | 3.1% | 115.6hPa | 2.5V | 00:00:00 | 02:31:18 | 00:00:00 | |
| GOEST3-10 | 2026-08-31 01:16:08 | 53.29114 | 11.00467 | 51° | 71km/h | 15593m | -9.9m/s | -51.3°C | 3.1% | 115.3hPa | 2.5V | 00:00:00 | 00:00:00 | 00:00:00 | |
| DL1XH-15 | 2026-08-31 01:16:07 | 53.28997 | 11.00191 | 60° | 71km/h | 15711m | -10.8m/s | -51.4°C | 3.1% | 113.3hPa | 2.5V | 02:44:09 | 02:31:06 | 00:00:00 | |
| AA1-15 | 2026-08-31 01:16:04 | 53.29070 | 11.00371 | 54° | 75km/h | 15633m | -10.6m/s | -51.7°C | 0% | 114.7hPa | 2.5V | 02:44:48 | 02:31:13 | 00:00:00 | |
| BIOWL1-15 | 2026-08-31 01:16:01 | 53.29037 | 11.00294 | 55° | 75km/h | 15665m | -10.1m/s | -51.6°C | 0% | 114.1hPa | 2.6V | 02:44:48 | 02:31:10 | 00:00:00 | |
| DM0DOS-11 | 2026-08-31 01:16:01 | 53.29026 | 11.00268 | 56° | 75km/h | 15676m | -11.5m/s | -51.4°C | 3.1% | 113.9hPa | 2.6V | 02:44:06 | 02:31:09 | 00:00:00 | |
| DL1XH-west | 2026-08-31 01:15:59 | 53.29016 | 11.00242 | 58° | 71km/h | 15688m | -12.1m/s | -51.4°C | 0% | 113.8hPa | 2.6V | 02:44:48 | 02:31:08 | 00:00:00 | |
| DF8AY | 2026-08-31 01:15:58 | 53.29007 | 11.00217 | 58° | 71km/h | 15700m | -11m/s | -51.4°C | 0% | 113.5hPa | 2.5V | 02:44:48 | 02:31:07 | 00:00:00 | |
| BUE01 | 2026-08-31 01:15:56 | 53.28951 | 11.00022 | 68° | 75km/h | 15774m | -10.6m/s | -51.2°C | 0.7% | 112.2hPa | 2.6V | 00:00:00 | 00:00:00 | 00:00:00 | |
| DL1XH1-15 | 2026-08-31 01:15:55 | 53.28944 | 10.99994 | 68° | 73km/h | 15786m | -11.9m/s | -51.2°C | 3% | 112hPa | 2.6V | 02:44:16 | 02:30:59 | 00:00:00 | |
| DB0DAN | 2026-08-31 01:15:55 | 53.28981 | 11.00138 | 63° | 69km/h | 15733m | -11.3m/s | -51.4°C | 0.7% | 112.98hPa | 2.6V | 00:00:00 | 00:00:00 | 00:00:00 | |
| AA1-15 | 2026-08-31 01:15:53 | 53.28965 | 11.00081 | 67° | 75km/h | 15754m | -9.4m/s | -51.4°C | 0% | 112.6hPa | 2.5V | 02:44:48 | 02:31:02 | 00:00:00 | |
| DF8AY | 2026-08-31 01:15:48 | 53.28931 | 10.99941 | 65° | 64km/h | 15812m | -12.9m/s | -51.1°C | 0% | 111.6hPa | 2.6V | 02:44:48 | 02:30:57 | 00:00:00 | |
| DO2SHX-10 | 2026-08-31 01:15:48 | 53.28931 | 10.99941 | 66° | 62km/h | 15812m | -12.8m/s | -51.1°C | 3.0% | 111.5hPa | 2.6V | 02:44:00 | 02:30:57 | 00:00:00 | |
| DD8BA-10 | 2026-08-31 01:15:47 | 53.28924 | 10.99918 | 63° | 60km/h | 15825m | -12.1m/s | -51.0°C | 3.0% | 111.3hPa | 2.5V | 02:44:00 | 00:00:00 | 00:00:00 | |
| DM0DOS-11 | 2026-08-31 01:15:45 | 53.28870 | 10.99770 | 59° | 62km/h | 15900m | -10.6m/s | -50.8°C | 3% | 110.1hPa | 2.5V | 02:44:26 | 02:30:49 | 00:00:00 | |
| AA1-15 | 2026-08-31 01:15:42 | 53.28886 | 10.99813 | 57° | 58km/h | 15878m | -10.3m/s | -51°C | 0% | 110.4hPa | 2.5V | 02:44:48 | 02:30:51 | 00:00:00 | |
| DO2SHX-10 | 2026-08-31 01:15:42 | 53.28886 | 10.99813 | 57° | 60km/h | 15878m | -10.2m/s | -50.9°C | 3.0% | 110.3hPa | 2.6V | 00:00:00 | 02:30:51 | 00:00:00 | |
| DL1XH-15 | 2026-08-31 01:15:41 | 53.28848 | 10.99699 | 67° | 64km/h | 15935m | -12.6m/s | -50.7°C | 2.9% | 109.5hPa | 2.6V | 02:44:29 | 02:30:46 | 00:00:00 | |
| DB0DAN | 2026-08-31 01:15:40 | 53.28870 | 10.99770 | 60° | 58km/h | 15900m | -10.6m/s | -50.8°C | 0.7% | 110.06hPa | 2.5V | 00:00:00 | 00:00:00 | 00:00:00 | |
| BIOWL1-15 | 2026-08-31 01:15:39 | 53.28829 | 10.99597 | 76° | 62km/h | 15981m | -10.8m/s | -50.6°C | 0% | 108.7hPa | 2.6V | 02:44:48 | 02:30:42 | 00:00:00 | |
| DL1XH-west | 2026-08-31 01:15:37 | 53.28848 | 10.99699 | 68° | 64km/h | 15935m | -12.6m/s | -50.7°C | 0% | 109.5hPa | 2.6V | 02:44:48 | 02:30:46 | 00:00:00 | |
| DD8BA-10 | 2026-08-31 01:15:37 | 53.28848 | 10.99699 | 68° | 62km/h | 15936m | -12.6m/s | -50.7°C | 2.9% | 109.5hPa | 2.5V | 00:00:00 | 00:00:00 | 00:00:00 | |
| TFSTFS | 2026-08-31 01:15:36 | 53.28842 | 10.99673 | 71° | 64km/h | 15947m | -11.6m/s | -50.7°C | 0.7% | 109.3hPa | 2.5V | 02:44:00 | 00:00:00 | 00:00:00 | |
| DL1XH1-15 | 2026-08-31 01:15:35 | 53.28817 | 10.99523 | 72° | 60km/h | 16017m | -13.8m/s | -50.7°C | 2.9% | 108.2hPa | 2.5V | 02:44:36 | 02:30:39 | 00:00:00 | |
| DK7RCA | 2026-08-31 01:15:34 | 53.28837 | 10.99648 | 74° | 64km/h | 15959m | -11.5m/s | -50.7°C | 0.7% | 109.1hPa | 2.6V | 02:44:00 | 00:00:00 | 00:00:00 | |
| DO2SHX-10 | 2026-08-31 01:15:33 | 53.28829 | 10.99597 | 77° | 60km/h | 15981m | -10.8m/s | -50.5°C | 2.9% | 108.6hPa | 2.6V | 00:00:00 | 02:30:42 | 00:00:00 | |
| DL2RXE-15 | 2026-08-31 01:15:32 | 53.28825 | 10.99572 | 77° | 60km/h | 15992m | -11.0m/s | -50.6°C | 0.6% | 108.5hPa | 2.6V | 00:00:00 | 00:00:00 | 00:00:00 | |
| DL1XH-15 | 2026-08-31 01:15:31 | 53.28802 | 10.99449 | 70° | 66km/h | 16054m | -12.6m/s | -50.9°C | 3% | 107.5hPa | 2.6V | 02:44:39 | 02:30:36 | 00:00:00 | |
| AA1-15 | 2026-08-31 01:15:31 | 53.28822 | 10.99547 | 74° | 60km/h | 16004m | -12.8m/s | -50.6°C | 0% | 108.4hPa | 2.5V | 02:44:48 | 02:30:40 | 00:00:00 | |
| DO2SHX-10 | 2026-08-31 01:15:30 | 53.28817 | 10.99523 | 73° | 62km/h | 16017m | -13.7m/s | -50.6°C | 2.9% | 108.1hPa | 2.5V | 02:44:00 | 02:30:39 | 00:00:00 | |
| S3001 | 2026-08-31 01:15:29 | 53.28813 | 10.99499 | 71° | 60km/h | 16029m | -11.3m/s | -50.8°C | 0.6% | 107.9hPa | 2.5V | 00:00:00 | 00:00:00 | 00:00:00 | |
| DB0UT-7 | 2026-08-31 01:15:28 | 53.28808 | 10.99474 | 71° | 44km/h | 16042m | -13.1m/s | -50.8°C | 3.0% | 107.7hPa | 2.5V | 00:00:00 | 02:30:37 | 00:00:00 | |
| DO2SHX-10 | 2026-08-31 01:15:27 | 53.28802 | 10.99449 | 71° | 68km/h | 16054m | -12.6m/s | -50.9°C | 3.0% | 107.5hPa | 2.5V | 00:00:00 | 02:30:36 | 00:00:00 | |
| DL1XH-west | 2026-08-31 01:15:27 | 53.28802 | 10.99449 | 71° | 66km/h | 16054m | -12.6m/s | -50.9°C | 0% | 107.5hPa | 2.6V | 02:44:48 | 02:30:36 | 00:00:00 | |
| DB0DAN | 2026-08-31 01:15:25 | 53.28792 | 10.99395 | 73° | 64km/h | 16079m | -10.6m/s | -51°C | 0.7% | 107.12hPa | 2.5V | 00:00:00 | 00:00:00 | 00:00:00 | |
| AP2371 | 2026-08-31 01:15:25 | 53.28792 | 10.99395 | 74° | 68km/h | 16079m | -10.6m/s | -51.0°C | 0.7% | 107.1hPa | 2.5V | 00:00:00 | 00:00:00 | 00:00:00 | |
| DO2SHX-10 | 2026-08-31 01:15:24 | 53.28787 | 10.99368 | 76° | 64km/h | 16089m | -10.2m/s | -51.0°C | 3.1% | 106.9hPa | 2.5V | 00:00:00 | 02:30:33 | 00:00:00 | |
| DM0DOS-11 | 2026-08-31 01:15:23 | 53.28774 | 10.99269 | 79° | 55km/h | 16132m | -11.6m/s | -51.1°C | 3.1% | 106.2hPa | 2.5V | 02:44:46 | 02:30:29 | 00:00:00 | |
| DF7ER-10 | 2026-08-31 01:15:23 | 53.28783 | 10.99342 | 78° | 64km/h | 16100m | -10.5m/s | -51.1°C | 0.7% | 106.8hPa | 2.5V | 02:44:00 | 00:00:00 | 00:00:00 | |
| BIOWL1-15 | 2026-08-31 01:15:22 | 53.28738 | 10.98998 | 78° | 27km/h | 16343m | -11.2m/s | -50°C | 0% | 102.8hPa | 2.5V | 02:45:39 | 02:30:12 | 00:00:00 | |
| AA1-15 | 2026-08-31 01:15:22 | 53.28764 | 10.99163 | 82° | 46km/h | 16196m | -12m/s | -50.6°C | 0% | 105.2hPa | 2.6V | 02:45:39 | 02:30:24 | 00:00:00 | |
| EDDB2-12 | 2026-08-31 01:15:22 | 53.28774 | 10.99269 | 79° | 55km/h | 16132m | -11.6m/s | -51.2°C | 0.6% | 106.2hPa | 2.6V | 00:00:00 | 00:00:00 | 00:00:00 | |
| DO2SHX-10 | 2026-08-31 01:15:21 | 53.28769 | 10.99225 | 81° | 49km/h | 16158m | -13.9m/s | -50.8°C | 3.0% | 105.8hPa | 2.6V | 00:00:00 | 02:30:27 | 00:00:00 | |
| DD8BA-10 | 2026-08-31 01:15:19 | 53.28768 | 10.99204 | 82° | 40km/h | 16172m | -13.4m/s | -50.7°C | 3.0% | 105.6hPa | 2.6V | 02:44:00 | 00:00:00 | 00:00:00 | |
| DM0DOS-11 | 2026-08-31 01:15:18 | 53.28754 | 10.99083 | 71° | 35km/h | 16260m | -14m/s | -50°C | 2.7% | 104.2hPa | 2.6V | 02:44:56 | 02:30:19 | 00:00:00 | |
| DL1XH-west | 2026-08-31 01:15:18 | 53.28761 | 10.99128 | 79° | 40km/h | 16220m | -12.6m/s | -50.2°C | 0% | 104.8hPa | 2.5V | 02:45:39 | 02:30:22 | 00:00:00 | |
| DF8AY | 2026-08-31 01:15:18 | 53.28766 | 10.99183 | 82° | 49km/h | 16185m | -11.6m/s | -50.7°C | 0% | 105.4hPa | 2.6V | 02:45:39 | 02:30:25 | 00:00:00 | |
| TFSTFS | 2026-08-31 01:15:18 | 53.28766 | 10.99183 | 83° | 49km/h | 16185m | -11.6m/s | -50.7°C | 0.6% | 105.4hPa | 2.5V | 02:45:00 | 00:00:00 | 00:00:00 | |
| DO2SHX-10 | 2026-08-31 01:15:17 | 53.28764 | 10.99163 | 83° | 42km/h | 16196m | -11.9m/s | -50.6°C | 2.9% | 105.2hPa | 2.5V | 00:00:00 | 02:30:24 | 00:00:00 | |
| DK7RCA | 2026-08-31 01:15:16 | 53.28764 | 10.99163 | 83° | 46km/h | 16196m | -12.0m/s | -50.6°C | 0.7% | 105.2hPa | 2.5V | 02:45:00 | 00:00:00 | 00:00:00 | |
| SONCRA | 2026-08-31 01:15:13 | 53.28759 | 10.99112 | 76° | 35km/h | 16233m | -13.9m/s | -50.0°C | 0.6% | 104.7hPa | 2.5V | 00:00:00 | 00:00:00 | 00:00:00 | |
| DF7ER-10 | 2026-08-31 01:15:12 | 53.28759 | 10.99112 | 77° | 37km/h | 16233m | -13.9m/s | -50.0°C | 0.6% | 104.6hPa | 2.5V | 02:45:00 | 00:00:00 | 00:00:00 | |
| DL1XH-15 | 2026-08-31 01:15:12 | 53.28746 | 10.99044 | 71° | 31km/h | 16298m | -12.9m/s | -49.8°C | 2.7% | 103.6hPa | 2.5V | 02:44:59 | 02:30:16 | 00:00:00 | |
| DL1XH1-15 | 2026-08-31 01:15:11 | 53.28751 | 10.99069 | 70° | 33km/h | 16273m | -12.3m/s | -49.9°C | 2.7% | 104hPa | 2.5V | 02:44:57 | 02:30:18 | 00:00:00 | |
| BIOWL1-15 | 2026-08-31 01:15:11 | 53.28735 | 10.98975 | 80° | 27km/h | 16365m | -10.6m/s | -49.9°C | 0% | 102.5hPa | 2.5V | 02:45:39 | 02:30:10 | 00:00:00 | |
| DB0DAN | 2026-08-31 01:15:10 | 53.28754 | 10.99083 | 71° | 33km/h | 16260m | -14m/s | -50°C | 0.6% | 104.24hPa | 2.6V | 00:00:00 | 00:00:00 | 00:00:00 | |
| AA1-15 | 2026-08-31 01:15:09 | 53.28751 | 10.99069 | 71° | 33km/h | 16273m | -12.3m/s | -49.9°C | 0% | 104hPa | 2.5V | 02:45:39 | 02:30:18 | 00:00:00 | |
| DF8AY | 2026-08-31 01:15:06 | 53.28743 | 10.99032 | 73° | 29km/h | 16310m | -11.5m/s | -49.9°C | 0% | 103.4hPa | 2.6V | 02:45:39 | 02:30:15 | 00:00:00 | |
| DO2SHX-10 | 2026-08-31 01:15:06 | 53.28743 | 10.99032 | 73° | 27km/h | 16310m | -11.4m/s | -49.9°C | 2.7% | 103.4hPa | 2.6V | 00:00:00 | 02:30:15 | 00:00:00 | |
| DM0DOS-11 | 2026-08-31 01:15:05 | 53.28734 | 10.98964 | 78° | 27km/h | 16375m | -10.8m/s | -50°C | 2.8% | 102.3hPa | 2.6V | 02:45:06 | 02:30:09 | 00:00:00 | |
| DL1XH-west | 2026-08-31 01:15:03 | 53.28737 | 10.98987 | 79° | 27km/h | 16354m | -10.7m/s | -49.9°C | 0% | 102.6hPa | 2.5V | 02:45:39 | 02:30:11 | 00:00:00 | |
| DO2SHX-10 | 2026-08-31 01:15:03 | 53.28738 | 10.98998 | 78° | 27km/h | 16343m | -11.2m/s | -49.9°C | 2.8% | 102.8hPa | 2.5V | 02:45:00 | 02:30:12 | 00:00:00 | |
| DL1XH1-15 | 2026-08-31 01:15:01 | 53.28732 | 10.98953 | 74° | 27km/h | 16386m | -11.1m/s | -50.1°C | 2.8% | 102.2hPa | 2.6V | 02:45:07 | 02:30:08 | 00:00:00 | |
| AA1-15 | 2026-08-31 01:14:58 | 53.28730 | 10.98942 | 70° | 26km/h | 16397m | -10.7m/s | -50.1°C | 0% | 102hPa | 2.5V | 02:45:39 | 02:30:07 | 00:00:00 | |
| DL3AQ-11 | 2026-08-31 01:14:56 | 53.28722 | 10.98920 | 42° | 18km/h | 16429m | -10.4m/s | -50.3°C | 0.6% | 101.5hPa | 2.6V | 00:00:00 | 00:00:00 | 00:00:00 | |
| DB0DAN | 2026-08-31 01:14:55 | 53.28722 | 10.98920 | 42° | 18km/h | 16429m | -10.4m/s | -50.3°C | 0.6% | 101.54hPa | 2.6V | 00:00:00 | 00:00:00 | 00:00:00 | |
| DF8AY | 2026-08-31 01:14:55 | 53.28722 | 10.98920 | 42° | 20km/h | 16429m | -10.4m/s | -50.3°C | 0% | 101.5hPa | 2.6V | 02:45:39 | 02:30:04 | 00:00:00 | |
| DL1XH-west | 2026-08-31 01:14:52 | 53.28708 | 10.98901 | 38° | 24km/h | 16469m | -16.4m/s | -50.4°C | 0% | 101hPa | 2.5V | 02:45:39 | 02:30:01 | 00:00:00 | |
| GOEST3-10 | 2026-08-31 01:14:52 | 53.28708 | 10.98901 | 38° | 22km/h | 16469m | -16.3m/s | -50.3°C | 2.7% | 100.9hPa | 2.5V | 00:00:00 | 02:30:01 | 00:00:00 | |
| DL1XH-15 | 2026-08-31 01:14:51 | 53.28686 | 10.98877 | 24° | 20km/h | 16545m | -12.9m/s | -50.6°C | 2.8% | 99.7hPa | 2.5V | 02:45:19 | 02:29:56 | 00:00:00 | |
| BIOWL1-15 | 2026-08-31 01:14:51 | 53.28690 | 10.98881 | 30° | 20km/h | 16531m | -14.4m/s | -50.5°C | 0% | 100hPa | 2.6V | 02:45:39 | 02:29:57 | 00:00:00 | |
| DO2SHX-10 | 2026-08-31 01:14:51 | 53.28703 | 10.98895 | 35° | 22km/h | 16485m | -16.5m/s | -50.4°C | 2.7% | 100.7hPa | 2.6V | 00:00:00 | 02:30:00 | 00:00:00 | |
| DL1XH1-15 | 2026-08-31 01:14:50 | 53.28695 | 10.98885 | 32° | 20km/h | 16517m | -15.2m/s | -50.4°C | 2.7% | 100.2hPa | 2.6V | 02:45:17 | 02:29:58 | 00:00:00 | |
| AA1-15 | 2026-08-31 01:14:47 | 53.28686 | 10.98877 | 24° | 20km/h | 16545m | -12.9m/s | -50.6°C | 0% | 99.7hPa | 2.5V | 02:45:39 | 02:29:56 | 00:00:00 | |
| DF8AY | 2026-08-31 01:14:45 | 53.28676 | 10.98870 | 19° | 22km/h | 16569m | -12.2m/s | -50.8°C | 0% | 99.4hPa | 2.5V | 02:45:39 | 02:29:54 | 00:00:00 | |
| DO2SHX-10 | 2026-08-31 01:14:45 | 53.28676 | 10.98870 | 19° | 24km/h | 16569m | -12.1m/s | -50.7°C | 2.8% | 99.3hPa | 2.5V | 02:45:00 | 02:29:54 | 00:00:00 | |
| DL1XH1-15 | 2026-08-31 01:14:44 | 53.28641 | 10.98844 | 27° | 27km/h | 16640m | -11m/s | -51.3°C | 2.9% | 98.3hPa | 2.5V | 02:45:27 | 02:29:48 | 00:00:00 | |
| DL1XH-west | 2026-08-31 01:14:41 | 53.28653 | 10.98854 | 27° | 27km/h | 16616m | -11.6m/s | -51.2°C | 0% | 98.7hPa | 2.5V | 02:45:39 | 02:29:50 | 00:00:00 | |
| DL1XH-15 | 2026-08-31 01:14:41 | 53.28629 | 10.98834 | 24° | 27km/h | 16661m | -11m/s | -51.5°C | 3% | 98hPa | 2.6V | 02:45:29 | 02:29:46 | 00:00:00 | |
| BIOWL1-15 | 2026-08-31 01:14:41 | 53.28647 | 10.98849 | 27° | 27km/h | 16628m | -12.5m/s | -51.3°C | 0% | 98.5hPa | 2.5V | 02:45:39 | 02:29:49 | 00:00:00 | |
| DB0DAN | 2026-08-31 01:14:40 | 53.28647 | 10.98849 | 27° | 26km/h | 16628m | -12.5m/s | -51.3°C | 0.6% | 98.52hPa | 2.5V | 00:00:00 | 00:00:00 | 00:00:00 | |
| AA1-15 | 2026-08-31 01:14:37 | 53.28628 | 10.98834 | 25° | 27km/h | 16661m | -11m/s | -51.5°C | 0% | 98hPa | 2.6V | 02:45:39 | 02:29:46 | 00:00:00 | |
| DF8AY | 2026-08-31 01:14:34 | 53.28607 | 10.98818 | 27° | 35km/h | 16693m | -11.2m/s | -51.6°C | 0% | 97.5hPa | 2.5V | 02:45:39 | 02:29:43 | 00:00:00 | |
| TFSTFS | 2026-08-31 01:14:34 | 53.28608 | 10.98818 | 28° | 35km/h | 16694m | -11.2m/s | -51.6°C | 0.7% | 97.5hPa | 2.6V | 02:45:00 | 00:00:00 | 00:00:00 | |
| DO2SHX-10 | 2026-08-31 01:14:33 | 53.28599 | 10.98810 | 29° | 40km/h | 16704m | -10.2m/s | -51.6°C | 3.1% | 97.3hPa | 2.6V | 00:00:00 | 02:29:42 | 00:00:00 | |
| GOEST3-10 | 2026-08-31 01:14:32 | 53.28590 | 10.98802 | 30° | 44km/h | 16714m | -10.1m/s | -51.4°C | 3.0% | 97.1hPa | 2.6V | 02:45:00 | 02:29:41 | 00:00:00 | |
| DL1XH-15 | 2026-08-31 01:14:31 | 53.28545 | 10.98753 | 35° | 40km/h | 16765m | -10.3m/s | -51.4°C | 3% | 96.4hPa | 2.6V | 02:45:39 | 02:29:36 | 00:00:00 | |
| DL1XH-west | 2026-08-31 01:14:30 | 53.28529 | 10.98733 | 37° | 38km/h | 16786m | -10.3m/s | -51.3°C | 0% | 96.1hPa | 2.5V | 02:46:30 | 02:29:34 | 00:00:00 | |
| BIOWL1-15 | 2026-08-31 01:14:29 | 53.28563 | 10.98773 | 33° | 44km/h | 16744m | -10.1m/s | -51.4°C | 0% | 96.7hPa | 2.5V | 02:45:39 | 02:29:38 | 00:00:00 | |
| AA1-15 | 2026-08-31 01:14:26 | 53.28537 | 10.98743 | 37° | 38km/h | 16776m | -11.1m/s | -51.4°C | 0% | 96.2hPa | 2.6V | 02:46:30 | 02:29:35 | 00:00:00 | |
| DB0DAN | 2026-08-31 01:14:25 | 53.28529 | 10.98733 | 37° | 37km/h | 16786m | -10.3m/s | -51.3°C | 0.6% | 96.08hPa | 2.5V | 00:00:00 | 00:00:00 | 00:00:00 | |
| DF8AY | 2026-08-31 01:14:24 | 53.28521 | 10.98723 | 36° | 40km/h | 16797m | -10.4m/s | -51.3°C | 0% | 95.9hPa | 2.5V | 02:46:30 | 02:29:33 | 00:00:00 | |
| DO2SHX-10 | 2026-08-31 01:14:24 | 53.28521 | 10.98723 | 36° | 40km/h | 16797m | -10.4m/s | -51.3°C | 3.0% | 95.9hPa | 2.5V | 00:00:00 | 02:29:33 | 00:00:00 | |
| BUE01 | 2026-08-31 01:14:23 | 53.28504 | 10.98704 | 32° | 40km/h | 16818m | -11.2m/s | -51.3°C | 0.6% | 95.6hPa | 2.5V | 00:00:00 | 00:00:00 | 00:00:00 | |
| GOEST3-10 | 2026-08-31 01:14:22 | 53.28504 | 10.98704 | 33° | 47km/h | 16819m | -11.2m/s | -51.3°C | 3.0% | 95.6hPa | 2.5V | 00:00:00 | 02:29:31 | 00:00:00 | |
| DL1XH-15 | 2026-08-31 01:14:21 | 53.28451 | 10.98652 | 28° | 57km/h | 16878m | -11.2m/s | -51.6°C | 3.1% | 94.7hPa | 2.5V | 02:45:49 | 02:29:26 | 00:00:00 | |
| DL1XH1-15 | 2026-08-31 01:14:21 | 53.28474 | 10.98674 | 29° | 51km/h | 16854m | -12.3m/s | -51.5°C | 3% | 95.1hPa | 2.5V | 02:45:47 | 02:29:28 | 00:00:00 | |
| BIOWL1-15 | 2026-08-31 01:14:19 | 53.28451 | 10.98652 | 28° | 57km/h | 16878m | -11.2m/s | -51.7°C | 0% | 94.7hPa | 2.5V | 02:46:30 | 02:29:26 | 00:00:00 | |
| DL1XH-west | 2026-08-31 01:14:16 | 53.28438 | 10.98641 | 27° | 57km/h | 16889m | -10.5m/s | -51.7°C | 0% | 94.6hPa | 2.6V | 02:46:30 | 02:29:25 | 00:00:00 | |
| AA1-15 | 2026-08-31 01:14:15 | 53.28425 | 10.98631 | 26° | 55km/h | 16900m | -11.7m/s | -51.6°C | 0% | 94.4hPa | 2.6V | 02:46:30 | 02:29:24 | 00:00:00 | |
| DF8AY | 2026-08-31 01:14:13 | 53.28401 | 10.98611 | 25° | 53km/h | 16924m | -12.2m/s | -51.3°C | 0% | 94.1hPa | 2.5V | 02:46:30 | 02:29:22 | 00:00:00 | |
| DB0NH | 2026-08-31 01:14:12 | 53.28388 | 10.98601 | 26° | 55km/h | 16937m | -11.5m/s | -51.2°C | 3.0% | 93.9hPa | 2.5V | 00:00:00 | 02:29:21 | 00:00:00 | |
| DL1XH-15 | 2026-08-31 01:14:11 | 53.28334 | 10.98545 | 36° | 55km/h | 16992m | -11.1m/s | -51°C | 2.9% | 93.1hPa | 2.5V | 02:45:59 | 02:29:16 | 00:00:00 | |
| DB0DAN | 2026-08-31 01:14:10 | 53.28366 | 10.98582 | 29° | 46km/h | 16960m | -11.2m/s | -51.2°C | 0.6% | 93.58hPa | 2.6V | 00:00:00 | 00:00:00 | 00:00:00 | |
| BIOWL1-15 | 2026-08-31 01:14:07 | 53.28334 | 10.98545 | 37° | 55km/h | 16992m | -11.1m/s | -51°C | 0% | 93.2hPa | 2.5V | 02:46:30 | 02:29:16 | 00:00:00 | |
| DL1XH-west | 2026-08-31 01:14:05 | 53.28311 | 10.98516 | 37° | 62km/h | 17015m | -11.8m/s | -51.1°C | 0% | 92.8hPa | 2.6V | 02:46:30 | 02:29:14 | 00:00:00 | |
| AA1-15 | 2026-08-31 01:14:04 | 53.28298 | 10.98499 | 36° | 66km/h | 17026m | -11.7m/s | -51.1°C | 0% | 92.6hPa | 2.6V | 02:46:30 | 02:29:13 | 00:00:00 | |
| DF8AY | 2026-08-31 01:14:02 | 53.28271 | 10.98468 | 31° | 62km/h | 17048m | -12.3m/s | -51.2°C | 0% | 92.3hPa | 2.5V | 02:46:30 | 02:29:11 | 00:00:00 | |
| BIOWL1-15 | 2026-08-31 01:13:56 | 53.28198 | 10.98379 | 44° | 57km/h | 17147m | -17.7m/s | -51.6°C | 0% | 91hPa | 2.5V | 02:46:30 | 02:29:05 | 00:00:00 | |
| S3001 | 2026-08-31 01:13:56 | 53.28188 | 10.98362 | 42° | 58km/h | 17165m | -19.5m/s | -51.6°C | 0.6% | 90.8hPa | 2.5V | 00:00:00 | 00:00:00 | 00:00:00 | |
| DB0DAN | 2026-08-31 01:13:55 | 53.28188 | 10.98362 | 43° | 57km/h | 17165m | -19.5m/s | -51.6°C | 0.6% | 90.79hPa | 2.5V | 00:00:00 | 00:00:00 | 00:00:00 | |
| DL1XH-west | 2026-08-31 01:13:54 | 53.28177 | 10.98345 | 43° | 57km/h | 17183m | -19.7m/s | -51.5°C | 0% | 90.6hPa | 2.6V | 02:46:30 | 02:29:03 | 00:00:00 | |
| AA1-15 | 2026-08-31 01:13:53 | 53.28167 | 10.98329 | 44° | 57km/h | 17202m | -19.8m/s | -51.2°C | 0% | 90.2hPa | 2.6V | 02:46:30 | 02:29:02 | 00:00:00 | |
| DF8AY | 2026-08-31 01:13:52 | 53.28157 | 10.98313 | 45° | 53km/h | 17222m | -20.2m/s | -51.2°C | 0% | 90hPa | 2.5V | 02:46:30 | 02:29:01 | 00:00:00 | |
| BUE01 | 2026-08-31 01:13:52 | 53.28148 | 10.98296 | 51° | 51km/h | 17242m | -20.8m/s | -51.1°C | 0.6% | 89.8hPa | 2.6V | 00:00:00 | 00:00:00 | 00:00:00 | |
| TFSTFS | 2026-08-31 01:13:51 | 53.28148 | 10.98296 | 52° | 53km/h | 17242m | -20.8m/s | -51.1°C | 0.6% | 89.8hPa | 2.6V | 02:46:00 | 00:00:00 | 00:00:00 | |
| DL1XH1-15 | 2026-08-31 01:13:50 | 53.28131 | 10.98262 | 50° | 51km/h | 17282m | -20.4m/s | -51°C | 3% | 89.2hPa | 2.6V | 02:46:17 | 02:28:58 | 00:00:00 | |
| BIOWL1-15 | 2026-08-31 01:13:45 | 53.28104 | 10.98184 | 65° | 55km/h | 17362m | -21m/s | -51.4°C | 0% | 88.1hPa | 2.5V | 02:46:30 | 02:28:54 | 00:00:00 | |
| BIOWL9-15 | 2026-08-31 01:13:45 | 53.28098 | 10.98162 | 69° | 53km/h | 17383m | -20.8m/s | -51.4°C | 0.6% | 87.9hPa | 2.5V | 00:00:00 | 00:00:00 | 00:00:00 | |
| DL1XH1-15 | 2026-08-31 01:13:44 | 53.28080 | 10.98061 | 72° | 46km/h | 17481m | -18.6m/s | -50.8°C | 3% | 86.5hPa | 2.5V | 02:46:27 | 02:28:48 | 00:00:00 | |
| DL1XH-west | 2026-08-31 01:13:43 | 53.28094 | 10.98141 | 73° | 51km/h | 17403m | -20.2m/s | -51.4°C | 0% | 87.6hPa | 2.6V | 02:46:30 | 02:28:52 | 00:00:00 | |
| AA1-15 | 2026-08-31 01:13:42 | 53.28090 | 10.98120 | 74° | 49km/h | 17423m | -20.1m/s | -51.4°C | 0% | 87.3hPa | 2.6V | 02:46:30 | 02:28:51 | 00:00:00 | |
| DF8AY | 2026-08-31 01:13:41 | 53.28087 | 10.98100 | 75° | 47km/h | 17443m | -19.6m/s | -51.2°C | 0% | 87hPa | 2.5V | 02:46:30 | 02:28:50 | 00:00:00 | |
| DB0DAN | 2026-08-31 01:13:40 | 53.28083 | 10.98080 | 74° | 46km/h | 17462m | -19.5m/s | -51°C | 0.6% | 86.74hPa | 2.5V | 00:00:00 | 00:00:00 | 00:00:00 | |
| BIOWL1-15 | 2026-08-31 01:13:35 | 53.28062 | 10.97991 | 66° | 46km/h | 17550m | -17m/s | -50.3°C | 0% | 85.6hPa | 2.5V | 02:47:21 | 02:28:44 | 00:00:00 | |
| DL1XH-west | 2026-08-31 01:13:32 | 53.28049 | 10.97941 | 67° | 38km/h | 17602m | -17.6m/s | -50.2°C | 0% | 84.9hPa | 2.6V | 02:47:21 | 02:28:41 | 00:00:00 | |
| AA1-15 | 2026-08-31 01:13:31 | 53.28046 | 10.97926 | 72° | 38km/h | 17619m | -18.3m/s | -50.1°C | 0% | 84.7hPa | 2.6V | 02:47:21 | 02:28:40 | 00:00:00 | |
| DL1XH1-15 | 2026-08-31 01:13:30 | 53.28040 | 10.97898 | 68° | 33km/h | 17653m | -16.4m/s | -50°C | 2.8% | 84.2hPa | 2.5V | 02:46:37 | 02:28:38 | 00:00:00 | |
| DF8AY | 2026-08-31 01:13:30 | 53.28042 | 10.97912 | 71° | 37km/h | 17637m | -17.2m/s | -50°C | 0% | 84.4hPa | 2.5V | 02:47:21 | 02:28:39 | 00:00:00 | |
| DO2SHX-10 | 2026-08-31 01:13:30 | 53.28042 | 10.97912 | 72° | 35km/h | 17637m | -17.1m/s | -49.9°C | 2.7% | 84.4hPa | 2.5V | 00:00:00 | 02:28:39 | 00:00:00 | |
| TFSTFS | 2026-08-31 01:13:29 | 53.28040 | 10.97898 | 70° | 33km/h | 17654m | -16.4m/s | -50.0°C | 0.5% | 84.2hPa | 2.5V | 00:00:00 | 00:00:00 | 00:00:00 | |
| DB0UT-7 | 2026-08-31 01:13:28 | 53.28036 | 10.97885 | 68° | 38km/h | 17669m | -15.9m/s | -49.9°C | 2.8% | 83.9hPa | 2.5V | 02:46:00 | 02:28:37 | 00:00:00 | |
| GOEST3-10 | 2026-08-31 01:13:27 | 53.28033 | 10.97872 | 67° | 29km/h | 17684m | -14.6m/s | -49.8°C | 2.8% | 83.7hPa | 2.6V | 00:00:00 | 00:00:00 | 00:00:00 | |
| DB0DAN | 2026-08-31 01:13:25 | 53.28027 | 10.97849 | 65° | 27km/h | 17711m | -13.9m/s | -49.9°C | 0.5% | 83.37hPa | 2.6V | 00:00:00 | 00:00:00 | 00:00:00 | |
| BIOWL1-15 | 2026-08-31 01:13:24 | 53.28024 | 10.97838 | 61° | 29km/h | 17726m | -15.8m/s | -49.9°C | 0% | 83.3hPa | 2.5V | 02:47:21 | 02:28:33 | 00:00:00 | |
| DL1XH-west | 2026-08-31 01:13:21 | 53.28013 | 10.97806 | 59° | 31km/h | 17776m | -17.4m/s | -50.1°C | 0% | 82.6hPa | 2.6V | 02:47:21 | 02:28:30 | 00:00:00 | |
| DL1XH1-15 | 2026-08-31 01:13:21 | 53.28004 | 10.97783 | 59° | 33km/h | 17809m | -15.3m/s | -50.3°C | 2.8% | 82.2hPa | 2.5V | 02:46:47 | 02:28:28 | 00:00:00 | |
| AA1-15 | 2026-08-31 01:13:20 | 53.28009 | 10.97795 | 59° | 31km/h | 17793m | -17.3m/s | -50.2°C | 0% | 82.4hPa | 2.6V | 02:47:21 | 02:28:29 | 00:00:00 | |
| DF8AY | 2026-08-31 01:13:20 | 53.28005 | 10.97783 | 59° | 33km/h | 17809m | -15.3m/s | -50.3°C | 0% | 82.2hPa | 2.5V | 02:47:21 | 02:28:28 | 00:00:00 | |
| DL1XH-15 | 2026-08-31 01:13:20 | 53.27996 | 10.97757 | 64° | 37km/h | 17838m | -15.3m/s | -50.5°C | 2.8% | 81.8hPa | 2.5V | 02:46:49 | 02:28:26 | 00:00:00 | |
| BIOWL1-15 | 2026-08-31 01:13:14 | 53.27983 | 10.97710 | 66° | 44km/h | 17884m | -14.6m/s | -50.7°C | 0% | 81.3hPa | 2.6V | 02:47:21 | 02:28:23 | 00:00:00 | |
| MECKS9 | 2026-08-31 01:13:13 | 53.27983 | 10.97710 | 67° | 44km/h | 17884m | -14.6m/s | -50.7°C | 0.6% | 81.3hPa | 2.6V | 00:00:00 | 00:00:00 | 00:00:00 | |
| DL3AQ-11 | 2026-08-31 01:13:12 | 53.27969 | 10.97659 | 65° | 44km/h | 17922m | -12.2m/s | -50.7°C | 0.5% | 80.7hPa | 2.6V | 00:00:00 | 00:00:00 | 00:00:00 | |
| DL1XH1-15 | 2026-08-31 01:13:11 | 53.27960 | 10.97626 | 65° | 42km/h | 17946m | -11.8m/s | -50.4°C | 2.9% | 80.4hPa | 2.6V | 02:46:57 | 02:28:18 | 00:00:00 | |
| DL1XH-west | 2026-08-31 01:13:11 | 53.27969 | 10.97659 | 65° | 44km/h | 17922m | -12.2m/s | -50.7°C | 0% | 80.7hPa | 2.5V | 02:47:21 | 02:28:20 | 00:00:00 | |
| DB0DAN | 2026-08-31 01:13:10 | 53.27964 | 10.97642 | 65° | 42km/h | 17934m | -12.5m/s | -50.4°C | 0.5% | 80.56hPa | 2.6V | 00:00:00 | 00:00:00 | 00:00:00 | |
| DL4BBY-15 | 2026-08-31 01:13:10 | 53.27964 | 10.97642 | 66° | 38km/h | 17934m | -12.5m/s | -50.9°C | 0% | 0hPa | 2.5V | 00:00:00 | 00:00:00 | 00:00:00 | |
| DL1XH-15 | 2026-08-31 01:13:09 | 53.27952 | 10.97594 | 66° | 42km/h | 17969m | -12.3m/s | -50.3°C | 2.9% | 80.1hPa | 2.5V | 02:46:59 | 02:28:16 | 00:00:00 | |
| DF8AY | 2026-08-31 01:13:09 | 53.27960 | 10.97626 | 65° | 42km/h | 17946m | -11.8m/s | -50.4°C | 0% | 80.4hPa | 2.6V | 02:47:21 | 02:28:18 | 00:00:00 | |
| BIOWL1-15 | 2026-08-31 01:13:03 | 53.27923 | 10.97428 | 79° | 38km/h | 18113m | -13.5m/s | -50.3°C | 0% | 78.4hPa | 2.5V | 02:47:21 | 02:28:06 | 00:00:00 | |
| HSKMA3-T | 2026-08-31 01:13:02 | 53.27934 | 10.97511 | 75° | 42km/h | 18037m | -14.5m/s | -50.3°C | 0% | 79.4hPa | 2.5V | 02:50:45 | 02:28:11 | 00:00:00 | |
| DL1XH-west | 2026-08-31 01:13:00 | 53.27929 | 10.97478 | 77° | 40km/h | 18068m | -15.2m/s | -50.3°C | 0% | 79hPa | 2.5V | 02:47:21 | 02:28:09 | 00:00:00 | |
| DL1XH1-15 | 2026-08-31 01:13:00 | 53.27927 | 10.97461 | 79° | 40km/h | 18083m | -16.2m/s | -50.3°C | 2.8% | 78.8hPa | 2.6V | 02:47:07 | 02:28:08 | 00:00:00 | |
| DO2SHX-10 | 2026-08-31 01:13:00 | 53.27929 | 10.97477 | 78° | 40km/h | 18068m | -15.2m/s | -50.2°C | 2.8% | 79.0hPa | 2.5V | 00:00:00 | 02:28:09 | 00:00:00 | |
| DL1XH-15 | 2026-08-31 01:12:59 | 53.27923 | 10.97428 | 79° | 38km/h | 18113m | -13.5m/s | -50.3°C | 2.8% | 78.4hPa | 2.5V | 02:47:09 | 02:28:06 | 00:00:00 | |
| DF8AY | 2026-08-31 01:12:58 | 53.27925 | 10.97444 | 80° | 38km/h | 18099m | -15.6m/s | -50.3°C | 0% | 78.7hPa | 2.6V | 02:47:21 | 02:28:07 | 00:00:00 | |
| DL1ZP-14 | 2026-08-31 01:12:57 | 53.27921 | 10.97412 | 75° | 38km/h | 18127m | -13.0m/s | -50.3°C | 0.5% | 78.3hPa | 2.5V | 00:00:00 | 00:00:00 | 00:00:00 | |
| DL3AQ-11 | 2026-08-31 01:12:56 | 53.27918 | 10.97397 | 72° | 35km/h | 18140m | -12.5m/s | -50.2°C | 0.5% | 78.1hPa | 2.6V | 00:00:00 | 00:00:00 | 00:00:00 | |
| DB0DAN | 2026-08-31 01:12:55 | 53.27918 | 10.97397 | 73° | 35km/h | 18140m | -12.5m/s | -50.2°C | 0.5% | 78.13hPa | 2.6V | 00:00:00 | 00:00:00 | 00:00:00 | |
| S3001 | 2026-08-31 01:12:54 | 53.27912 | 10.97369 | 60° | 35km/h | 18165m | -12.5m/s | -50.3°C | 0.5% | 77.8hPa | 2.6V | 00:00:00 | 00:00:00 | 00:00:00 | |
| DM0DOS-11 | 2026-08-31 01:12:53 | 53.27890 | 10.97318 | 51° | 38km/h | 18217m | -13.9m/s | -50.5°C | 2.8% | 77.2hPa | 2.6V | 02:47:17 | 02:27:58 | 00:00:00 | |
| DL1XH-west | 2026-08-31 01:12:49 | 53.27890 | 10.97318 | 51° | 38km/h | 18217m | -14m/s | -50.5°C | 0% | 77.2hPa | 2.6V | 02:47:21 | 02:27:58 | 00:00:00 | |
| DL1XH-15 | 2026-08-31 01:12:49 | 53.27878 | 10.97292 | 53° | 38km/h | 18244m | -12.7m/s | -50.5°C | 2.8% | 76.9hPa | 2.5V | 02:47:19 | 02:27:56 | 00:00:00 | |
| BIOWL1-15 | 2026-08-31 01:12:49 | 53.27862 | 10.97256 | 54° | 33km/h | 18282m | -13.4m/s | -50.5°C | 0% | 76.4hPa | 2.6V | 02:48:12 | 02:27:53 | 00:00:00 | |
| DF8AY | 2026-08-31 01:12:48 | 53.27884 | 10.97305 | 53° | 38km/h | 18231m | -13.5m/s | -50.5°C | 0% | 77.1hPa | 2.6V | 02:47:21 | 02:27:57 | 00:00:00 | |
| AA1-15 | 2026-08-31 01:12:47 | 53.27878 | 10.97292 | 53° | 38km/h | 18244m | -12.7m/s | -50.5°C | 0% | 76.9hPa | 2.5V | 02:47:21 | 02:27:56 | 00:00:00 | |
| GOEST3-10 | 2026-08-31 01:12:47 | 53.27878 | 10.97292 | 54° | 37km/h | 18244m | -12.7m/s | -50.5°C | 2.8% | 76.8hPa | 2.5V | 02:47:00 | 00:00:00 | 00:00:00 | |
| DO2LYB-13 | 2026-08-31 01:12:46 | 53.27873 | 10.97280 | 54° | 37km/h | 18257m | -12.3m/s | -50.5°C | 0.6% | 76.7hPa | 2.6V | 00:00:00 | 00:00:00 | 00:00:00 | |
| DO2SHX-10 | 2026-08-31 01:12:45 | 53.27867 | 10.97268 | 53° | 33km/h | 18269m | -13.1m/s | -50.4°C | 2.8% | 76.5hPa | 2.6V | 00:00:00 | 02:27:54 | 00:00:00 | |
| DK1YY | 2026-08-31 01:12:44 | 53.27852 | 10.97236 | 49° | 29km/h | 18311m | -16.1m/s | -50.6°C | 0.5% | 76.1hPa | 2.6V | 00:00:00 | 00:00:00 | 00:00:00 | |
| BIOWL9-15 | 2026-08-31 01:12:43 | 53.27852 | 10.97236 | 49° | 29km/h | 18311m | -16.1m/s | -50.6°C | 0.5% | 76.1hPa | 2.6V | 00:00:00 | 00:00:00 | 00:00:00 | |
| DB0NH | 2026-08-31 01:12:42 | 53.27852 | 10.97236 | 50° | 31km/h | 18311m | -16.0m/s | -50.5°C | 2.7% | 76.1hPa | 2.6V | 00:00:00 | 02:27:51 | 00:00:00 | |
| DL1XH1-15 | 2026-08-31 01:12:41 | 53.27835 | 10.97208 | 40° | 33km/h | 18356m | -13.5m/s | -50.9°C | 2.8% | 75.6hPa | 2.6V | 02:47:27 | 02:27:48 | 00:00:00 | |
| DB0DAN | 2026-08-31 01:12:40 | 53.27841 | 10.97217 | 42° | 29km/h | 18342m | -15m/s | -50.8°C | 0.5% | 75.78hPa | 2.5V | 00:00:00 | 00:00:00 | 00:00:00 | |
| DL4BBY-15 | 2026-08-31 01:12:40 | 53.27842 | 10.97217 | 42° | 33km/h | 18342m | -15.0m/s | -51.3°C | 0% | 0hPa | 2.6V | 00:00:00 | 00:00:00 | 00:00:00 | |
| DL1XH-15 | 2026-08-31 01:12:39 | 53.27821 | 10.97189 | 39° | 38km/h | 18381m | -12.9m/s | -51°C | 2.9% | 75.3hPa | 2.6V | 02:47:29 | 02:27:46 | 00:00:00 | |
| DL1XH-west | 2026-08-31 01:12:39 | 53.27835 | 10.97208 | 40° | 33km/h | 18356m | -13.5m/s | -50.9°C | 0% | 75.6hPa | 2.6V | 02:48:12 | 02:27:48 | 00:00:00 | |
| BIOWL1-15 | 2026-08-31 01:12:38 | 53.27799 | 10.97155 | 48° | 42km/h | 18419m | -13m/s | -51.3°C | 0% | 74.8hPa | 2.5V | 02:48:12 | 02:27:43 | 00:00:00 | |
| HSKMA3-T | 2026-08-31 01:12:37 | 53.27821 | 10.97189 | 40° | 38km/h | 18381m | -12.9m/s | -51.1°C | 0% | 75.3hPa | 2.6V | 02:50:45 | 02:27:46 | 00:00:00 | |
| AA1-15 | 2026-08-31 01:12:36 | 53.27814 | 10.97179 | 41° | 38km/h | 18393m | -11.5m/s | -51.1°C | 0% | 75.2hPa | 2.5V | 02:48:12 | 02:27:45 | 00:00:00 | |
| EDDB2-11 | 2026-08-31 01:12:36 | 53.27806 | 10.97168 | 44° | 40km/h | 18406m | -14.0m/s | -51.2°C | 0.6% | 75.0hPa | 2.6V | 00:00:00 | 00:00:00 | 00:00:00 | |
| DD8BA-10 | 2026-08-31 01:12:34 | 53.27799 | 10.97155 | 49° | 35km/h | 18420m | -13.0m/s | -51.2°C | 2.9% | 74.8hPa | 2.6V | 00:00:00 | 00:00:00 | 00:00:00 | |
| DO2SHX-10 | 2026-08-31 01:12:33 | 53.27792 | 10.97142 | 52° | 40km/h | 18432m | -11.8m/s | -51.4°C | 3.0% | 74.6hPa | 2.6V | 00:00:00 | 02:27:42 | 00:00:00 | |
| DL3AQ-11 | 2026-08-31 01:12:32 | 53.27780 | 10.97115 | 55° | 37km/h | 18453m | -11.2m/s | -51.6°C | 0.6% | 74.4hPa | 2.6V | 00:00:00 | 00:00:00 | 00:00:00 | |
| SP3WXH-11 | 2026-08-31 01:12:31 | 53.27780 | 10.97115 | 55° | 37km/h | 18453m | -11.2m/s | -51.6°C | 0.6% | 74.4hPa | 2.6V | 00:00:00 | 00:00:00 | 00:00:00 | |
| SMARD9-15 | 2026-08-31 01:12:30 | 53.27770 | 10.97090 | 53° | 33km/h | 18477m | -12.7m/s | -51.6°C | 0.6% | 74.2hPa | 2.6V | 00:00:00 | 00:00:00 | 00:00:00 | |
| DL1XH-15 | 2026-08-31 01:12:29 | 53.27761 | 10.97070 | 50° | 29km/h | 18503m | -12.4m/s | -51.7°C | 3% | 73.9hPa | 2.6V | 02:47:39 | 02:27:36 | 00:00:00 | |
| DL1XH-west | 2026-08-31 01:12:28 | 53.27761 | 10.97070 | 50° | 29km/h | 18503m | -12.4m/s | -51.7°C | 0% | 73.9hPa | 2.6V | 02:48:12 | 02:27:36 | 00:00:00 | |
| DF8AY | 2026-08-31 01:12:26 | 53.27756 | 10.97060 | 49° | 31km/h | 18515m | -12.5m/s | -51.6°C | 0% | 73.7hPa | 2.6V | 02:48:12 | 02:27:35 | 00:00:00 | |
| BIOWL1-15 | 2026-08-31 01:12:26 | 53.27750 | 10.97050 | 46° | 33km/h | 18528m | -13.1m/s | -51.4°C | 0% | 73.6hPa | 2.5V | 02:48:12 | 02:27:34 | 00:00:00 | |
| DB0DAN | 2026-08-31 01:12:25 | 53.27750 | 10.97050 | 46° | 31km/h | 18528m | -13.1m/s | -51.4°C | 0.6% | 73.58hPa | 2.5V | 00:00:00 | 00:00:00 | 00:00:00 | |
| DD8BA-10 | 2026-08-31 01:12:24 | 53.27745 | 10.97040 | 46° | 29km/h | 18542m | -13.2m/s | -51.2°C | 2.9% | 73.4hPa | 2.6V | 00:00:00 | 00:00:00 | 00:00:00 | |
| S3001 | 2026-08-31 01:12:23 | 53.27733 | 10.97022 | 43° | 29km/h | 18566m | -11.2m/s | -51.3°C | 0.6% | 73.2hPa | 2.6V | 00:00:00 | 00:00:00 | 00:00:00 | |
| GOEST3-10 | 2026-08-31 01:12:22 | 53.27733 | 10.97021 | 44° | 27km/h | 18566m | -11.2m/s | -51.3°C | 2.9% | 73.1hPa | 2.6V | 00:00:00 | 02:27:31 | 00:00:00 | |
| DO2SHX-10 | 2026-08-31 01:12:21 | 53.27727 | 10.97013 | 41° | 27km/h | 18577m | -11.4m/s | -51.3°C | 2.9% | 73.0hPa | 2.6V | 02:47:00 | 02:27:30 | 00:00:00 | |
| DL1XH1-15 | 2026-08-31 01:12:20 | 53.27716 | 10.97000 | 30° | 26km/h | 18600m | -11.8m/s | -51.5°C | 3% | 72.8hPa | 2.5V | 02:47:47 | 02:27:28 | 00:00:00 | |
| DL1XH-15 | 2026-08-31 01:12:19 | 53.27705 | 10.96990 | 23° | 26km/h | 18624m | -13.9m/s | -51.7°C | 3% | 72.5hPa | 2.6V | 02:47:49 | 02:27:26 | 00:00:00 | |
| DL1XH-west | 2026-08-31 01:12:17 | 53.27704 | 10.96990 | 24° | 27km/h | 18624m | -13.9m/s | -51.7°C | 0% | 72.5hPa | 2.6V | 02:48:12 | 02:27:26 | 00:00:00 | |
| BIOWL1-15 | 2026-08-31 01:12:15 | 53.27679 | 10.96971 | 23° | 27km/h | 18675m | -12.1m/s | -52°C | 0% | 72hPa | 2.6V | 02:48:12 | 02:27:22 | 00:00:00 | |
| AA1-15 | 2026-08-31 01:12:15 | 53.27692 | 10.96981 | 24° | 29km/h | 18650m | -11.6m/s | -51.8°C | 0% | 72.2hPa | 2.5V | 02:48:12 | 02:27:24 | 00:00:00 | |
| DO2SHX-10 | 2026-08-31 01:12:15 | 53.27692 | 10.96980 | 24° | 27km/h | 18650m | -11.5m/s | -51.8°C | 3.0% | 72.2hPa | 2.5V | 00:00:00 | 02:27:24 | 00:00:00 | |
| DD8BA-10 | 2026-08-31 01:12:14 | 53.27685 | 10.96976 | 25° | 31km/h | 18663m | -12.8m/s | -51.9°C | 3.0% | 72.1hPa | 2.5V | 02:47:00 | 00:00:00 | 00:00:00 | |
| DK1YY | 2026-08-31 01:12:13 | 53.27672 | 10.96967 | 21° | 27km/h | 18687m | -12.0m/s | -52.1°C | 0.6% | 71.8hPa | 2.5V | 00:00:00 | 00:00:00 | 00:00:00 | |
| DK7RCA | 2026-08-31 01:12:12 | 53.27672 | 10.96967 | 23° | 27km/h | 18687m | -12.0m/s | -52.1°C | 0.6% | 71.8hPa | 2.5V | 02:48:00 | 00:00:00 | 00:00:00 | |
| DB0DAN | 2026-08-31 01:12:10 | 53.27659 | 10.96957 | 26° | 27km/h | 18712m | -13.2m/s | -52.3°C | 0.6% | 71.56hPa | 2.5V | 00:00:00 | 00:00:00 | 00:00:00 | |
| DL4BBY-15 | 2026-08-31 01:12:10 | 53.27659 | 10.96957 | 27° | 33km/h | 18712m | -13.1m/s | -52.8°C | 0% | 0hPa | 2.6V | 00:00:00 | 00:00:00 | 00:00:00 | |
| DL1XH-15 | 2026-08-31 01:12:09 | 53.27638 | 10.96936 | 37° | 35km/h | 18752m | -12.8m/s | -52.2°C | 3.1% | 71.1hPa | 2.6V | 02:47:59 | 02:27:16 | 00:00:00 | |
| DL1XH-west | 2026-08-31 01:12:07 | 53.27638 | 10.96936 | 37° | 35km/h | 18752m | -12.8m/s | -52.2°C | 0% | 71.1hPa | 2.6V | 02:48:12 | 02:27:16 | 00:00:00 | |
| DF8AY | 2026-08-31 01:12:05 | 53.27625 | 10.96916 | 45° | 35km/h | 18778m | -12.7m/s | -52°C | 0% | 70.8hPa | 2.5V | 02:48:12 | 02:27:14 | 00:00:00 | |
| AA1-15 | 2026-08-31 01:12:04 | 53.27619 | 10.96906 | 47° | 35km/h | 18790m | -12.1m/s | -52.1°C | 0% | 70.7hPa | 2.5V | 02:48:12 | 02:27:13 | 00:00:00 | |
| DD8BA-10 | 2026-08-31 01:12:04 | 53.27619 | 10.96906 | 47° | 33km/h | 18790m | -12.0m/s | -52.0°C | 3.0% | 70.7hPa | 2.6V | 00:00:00 | 00:00:00 | 00:00:00 | |
| DL3AQ-11 | 2026-08-31 01:12:03 | 53.27607 | 10.96884 | 48° | 33km/h | 18814m | -14.7m/s | -52.3°C | 0.6% | 70.4hPa | 2.6V | 00:00:00 | 00:00:00 | 00:00:00 | |
| GOEST3-10 | 2026-08-31 01:12:02 | 53.27607 | 10.96884 | 49° | 33km/h | 18814m | -14.7m/s | -52.2°C | 3.1% | 70.4hPa | 2.6V | 02:48:00 | 02:27:11 | 00:00:00 | |
| DL1XH-15 | 2026-08-31 01:12:01 | 53.27581 | 10.96832 | 51° | 33km/h | 18885m | -12.2m/s | -52.6°C | 3.2% | 69.6hPa | 2.5V | 02:48:09 | 02:27:06 | 00:00:00 | |
| DL1XH1-15 | 2026-08-31 01:12:00 | 53.27591 | 10.96853 | 49° | 33km/h | 18858m | -13.9m/s | -52.5°C | 3.2% | 70hPa | 2.5V | 02:48:07 | 02:27:08 | 00:00:00 | |
| DL1XH-west | 2026-08-31 01:11:57 | 53.27581 | 10.96832 | 52° | 33km/h | 18885m | -12.2m/s | -52.6°C | 0% | 69.7hPa | 2.5V | 02:48:12 | 02:27:06 | 00:00:00 | |
| DO2SHX-10 | 2026-08-31 01:11:57 | 53.27581 | 10.96832 | 52° | 33km/h | 18885m | -12.2m/s | -52.5°C | 3.2% | 69.6hPa | 2.6V | 00:00:00 | 02:27:06 | 00:00:00 | |
| DB0DAN | 2026-08-31 01:11:55 | 53.27571 | 10.96809 | 58° | 31km/h | 18909m | -12.2m/s | -52.6°C | 0.6% | 69.41hPa | 2.6V | 00:00:00 | 00:00:00 | 00:00:00 | |
| DF8AY | 2026-08-31 01:11:54 | 53.27567 | 10.96797 | 60° | 35km/h | 18921m | -11.9m/s | -52.7°C | 0% | 69.3hPa | 2.5V | 02:48:12 | 02:27:03 | 00:00:00 | |
| AA1-15 | 2026-08-31 01:11:53 | 53.27563 | 10.96784 | 64° | 35km/h | 18933m | -12.8m/s | -52.8°C | 0% | 69.1hPa | 2.5V | 02:49:03 | 02:27:02 | 00:00:00 | |
| S3001 | 2026-08-31 01:11:52 | 53.27556 | 10.96757 | 70° | 33km/h | 18960m | -13.7m/s | -52.9°C | 0.7% | 68.9hPa | 2.5V | 00:00:00 | 00:00:00 | 00:00:00 | |
| DO2SHX-10 | 2026-08-31 01:11:51 | 53.27556 | 10.96757 | 71° | 35km/h | 18960m | -13.7m/s | -52.9°C | 3.3% | 68.8hPa | 2.5V | 00:00:00 | 02:27:00 | 00:00:00 | |
| DL1XH1-15 | 2026-08-31 01:11:50 | 53.27551 | 10.96730 | 72° | 33km/h | 18986m | -13.2m/s | -53°C | 3.3% | 68.6hPa | 2.5V | 02:48:17 | 02:26:58 | 00:00:00 | |
| DL1XH-west | 2026-08-31 01:11:46 | 53.27542 | 10.96691 | 69° | 33km/h | 19023m | -11.8m/s | -52.9°C | 0% | 68.2hPa | 2.6V | 02:49:03 | 02:26:55 | 00:00:00 | |
| BIOWL1-15 | 2026-08-31 01:11:44 | 53.27537 | 10.96666 | 73° | 29km/h | 19048m | -13.3m/s | -52.8°C | 0% | 67.9hPa | 2.5V | 02:49:03 | 02:26:53 | 00:00:00 | |
| AA1-15 | 2026-08-31 01:11:42 | 53.27534 | 10.96642 | 80° | 27km/h | 19073m | -13.3m/s | -52.9°C | 0% | 67.7hPa | 2.5V | 02:49:03 | 02:26:51 | 00:00:00 | |
| DO2SHX-10 | 2026-08-31 01:11:42 | 53.27534 | 10.96642 | 81° | 27km/h | 19073m | -13.2m/s | -52.9°C | 3.3% | 67.6hPa | 2.6V | 00:00:00 | 02:26:51 | 00:00:00 | |
| TFSTFS | 2026-08-31 01:11:41 | 53.27534 | 10.96642 | 81° | 27km/h | 19073m | -13.3m/s | -52.9°C | 0.7% | 67.7hPa | 2.6V | 02:49:00 | 00:00:00 | 00:00:00 | |
| DB0DAN | 2026-08-31 01:11:40 | 53.27533 | 10.96618 | 90° | 27km/h | 19098m | -12.7m/s | -52.9°C | 0.7% | 67.39hPa | 2.6V | 00:00:00 | 00:00:00 | 00:00:00 | |
| DL4BBY-15 | 2026-08-31 01:11:40 | 53.27532 | 10.96618 | 90° | 20km/h | 19098m | -12.7m/s | -53.4°C | 0% | 0hPa | 2.5V | 00:00:00 | 00:00:00 | 00:00:00 | |
| DL1XH-15 | 2026-08-31 01:11:39 | 53.27534 | 10.96583 | 95° | 26km/h | 19136m | -13.7m/s | -52.7°C | 3.2% | 67hPa | 2.5V | 02:48:29 | 02:26:46 | 00:00:00 | |
| HSKMA3-T | 2026-08-31 01:11:37 | 53.27534 | 10.96583 | 95° | 26km/h | 19136m | -13.7m/s | -52.7°C | 0% | 67hPa | 2.5V | 02:50:45 | 02:26:46 | 00:00:00 | |
| DL1XH-west | 2026-08-31 01:11:36 | 53.27534 | 10.96572 | 91° | 24km/h | 19150m | -15.1m/s | -52.6°C | 0% | 66.9hPa | 2.6V | 02:49:03 | 02:26:45 | 00:00:00 | |
| DF8AY | 2026-08-31 01:11:34 | 53.27534 | 10.96554 | 82° | 18km/h | 19177m | -13.2m/s | -52.7°C | 0% | 66.6hPa | 2.6V | 02:49:03 | 02:26:43 | 00:00:00 | |
| DD8BA-10 | 2026-08-31 01:11:34 | 53.27534 | 10.96554 | 82° | 13km/h | 19177m | -13.1m/s | -52.6°C | 3.1% | 66.5hPa | 2.6V | 00:00:00 | 00:00:00 | 00:00:00 | |
| DO2SHX-10 | 2026-08-31 01:11:33 | 53.27533 | 10.96547 | 76° | 15km/h | 19191m | -13.2m/s | -52.7°C | 3.2% | 66.4hPa | 2.6V | 00:00:00 | 02:26:42 | 00:00:00 | |
| DL1XH1-15 | 2026-08-31 01:11:32 | 53.27527 | 10.96527 | 52° | 11km/h | 19240m | -13.3m/s | -52.9°C | 3.3% | 65.9hPa | 2.6V | 02:48:37 | 02:26:38 | 00:00:00 | |
| AA1-15 | 2026-08-31 01:11:31 | 53.27530 | 10.96536 | 65° | 13km/h | 19216m | -11.9m/s | -52.8°C | 0% | 66.2hPa | 2.5V | 02:49:03 | 02:26:40 | 00:00:00 | |
| DO2SHX-10 | 2026-08-31 01:11:30 | 53.27529 | 10.96531 | 57° | 11km/h | 19227m | -11.8m/s | -52.8°C | 3.3% | 66.0hPa | 2.5V | 00:00:00 | 02:26:39 | 00:00:00 | |
| MECKS9 | 2026-08-31 01:11:29 | 53.27529 | 10.96531 | 58° | 13km/h | 19227m | -11.8m/s | -52.9°C | 0.6% | 66.0hPa | 2.5V | 00:00:00 | 00:00:00 | 00:00:00 | |
| DL1XH-15 | 2026-08-31 01:11:28 | 53.27524 | 10.96520 | 52° | 11km/h | 19266m | -13.5m/s | -52.8°C | 3.3% | 65.7hPa | 2.5V | 02:48:39 | 02:26:36 | 00:00:00 | |
| DL1XH-west | 2026-08-31 01:11:26 | 53.27522 | 10.96516 | 54° | 11km/h | 19279m | -12.1m/s | -52.7°C | 0% | 65.6hPa | 2.6V | 02:49:03 | 02:26:35 | 00:00:00 | |
| DB0DAN | 2026-08-31 01:11:25 | 53.27520 | 10.96513 | 52° | 13km/h | 19291m | -12.3m/s | -52.6°C | 0.6% | 65.46hPa | 2.6V | 00:00:00 | 00:00:00 | 00:00:00 | |
| DF8AY | 2026-08-31 01:11:23 | 53.27515 | 10.96505 | 34° | 16km/h | 19319m | -15.7m/s | -52.6°C | 0% | 65.2hPa | 2.5V | 02:49:03 | 02:26:32 | 00:00:00 | |
| BIOWL1-15 | 2026-08-31 01:11:21 | 53.27492 | 10.96488 | 13° | 24km/h | 19389m | -11.9m/s | -52.8°C | 0% | 64.5hPa | 2.5V | 02:49:03 | 02:26:27 | 00:00:00 | |
| AA1-15 | 2026-08-31 01:11:20 | 53.27503 | 10.96494 | 21° | 22km/h | 19363m | -13.4m/s | -52.7°C | 0% | 64.7hPa | 2.6V | 02:49:03 | 02:26:29 | 00:00:00 | |
| DL1XH1-15 | 2026-08-31 01:11:20 | 53.27497 | 10.96491 | 16° | 22km/h | 19376m | -12.8m/s | -52.7°C | 3.2% | 64.6hPa | 2.6V | 02:48:47 | 02:26:28 | 00:00:00 | |
| DL1XH-west | 2026-08-31 01:11:15 | 53.27475 | 10.96485 | 5° | 22km/h | 19427m | -13.9m/s | -52.9°C | 0% | 64.1hPa | 2.6V | 02:49:03 | 02:26:24 | 00:00:00 | |
| DF8AY | 2026-08-31 01:11:12 | 53.27458 | 10.96480 | 15° | 24km/h | 19469m | -13.1m/s | -52.9°C | 0% | 63.7hPa | 2.5V | 02:49:03 | 02:26:21 | 00:00:00 | |
| DO2LYB-13 | 2026-08-31 01:11:12 | 53.27458 | 10.96480 | 16° | 24km/h | 19469m | -13.1m/s | -52.9°C | 0.7% | 63.7hPa | 2.6V | 00:00:00 | 00:00:00 | 00:00:00 | |
| DF7ER-10 | 2026-08-31 01:11:11 | 53.27458 | 10.96480 | 16° | 24km/h | 19469m | -13.1m/s | -52.9°C | 0.7% | 63.7hPa | 2.6V | 02:49:00 | 00:00:00 | 00:00:00 | |
| DB0DAN | 2026-08-31 01:11:10 | 53.27446 | 10.96473 | 23° | 27km/h | 19496m | -14.7m/s | -53°C | 0.6% | 63.38hPa | 2.6V | 00:00:00 | 00:00:00 | 00:00:00 | |
| DM0DOS-11 | 2026-08-31 01:11:10 | 53.27439 | 10.96468 | 22° | 31km/h | 19511m | -16m/s | -53°C | 3.2% | 63.2hPa | 2.6V | 02:48:57 | 02:26:18 | 00:00:00 | |
| AA1-15 | 2026-08-31 01:11:09 | 53.27439 | 10.96468 | 23° | 31km/h | 19511m | -16m/s | -53°C | 0% | 63.2hPa | 2.6V | 02:49:03 | 02:26:18 | 00:00:00 | |
| DO2SHX-10 | 2026-08-31 01:11:09 | 53.27438 | 10.96468 | 23° | 33km/h | 19511m | -15.9m/s | -53.0°C | 3.2% | 63.2hPa | 2.6V | 02:48:00 | 02:26:18 | 00:00:00 | |
| DL1XH-15 | 2026-08-31 01:11:08 | 53.27423 | 10.96457 | 18° | 35km/h | 19543m | -15.1m/s | -53.3°C | 3.3% | 62.9hPa | 2.5V | 02:48:59 | 02:26:16 | 00:00:00 | |
| DL1XH-west | 2026-08-31 01:11:04 | 53.27396 | 10.96444 | 15° | 38km/h | 19584m | -13.1m/s | -53.5°C | 0% | 62.5hPa | 2.6V | 02:49:03 | 02:26:13 | 00:00:00 | |
| DF8AY | 2026-08-31 01:11:01 | 53.27368 | 10.96430 | 21° | 40km/h | 19623m | -11.9m/s | -53.4°C | 0% | 62.1hPa | 2.5V | 02:49:54 | 02:26:10 | 00:00:00 | |
| SP3BTT-10 | 2026-08-31 01:11:01 | 53.27368 | 10.96430 | 21° | 24km/h | 19624m | -11.8m/s | -53.3°C | 3.4% | 62.1hPa | 2.5V | 00:00:00 | 00:00:00 | 00:00:00 | |
| DM0DOS-11 | 2026-08-31 01:11:00 | 53.27350 | 10.96416 | 30° | 37km/h | 19648m | -12.8m/s | -53.1°C | 3.2% | 61.9hPa | 2.5V | 02:49:07 | 02:26:08 | 00:00:00 | |
| AA1-15 | 2026-08-31 01:10:58 | 53.27342 | 10.96408 | 33° | 37km/h | 19661m | -13.2m/s | -53.1°C | 0% | 61.8hPa | 2.5V | 02:49:54 | 02:26:07 | 00:00:00 | |
| DL1XH-15 | 2026-08-31 01:10:58 | 53.27334 | 10.96399 | 34° | 38km/h | 19674m | -14.8m/s | -53.2°C | 3.3% | 61.6hPa | 2.6V | 02:49:09 | 02:26:06 | 00:00:00 | |
| DF8AY-15 | 2026-08-31 01:10:58 | 53.27342 | 10.96408 | 34° | 38km/h | 19661m | -13.1m/s | -53.1°C | 3.3% | 61.7hPa | 2.5V | 02:49:00 | 02:26:07 | 00:00:00 | |
| GOEST3-10 | 2026-08-31 01:10:57 | 53.27334 | 10.96399 | 35° | 42km/h | 19675m | -14.7m/s | -53.2°C | 3.3% | 61.6hPa | 2.6V | 00:00:00 | 00:00:00 | 00:00:00 | |
| AP2371 | 2026-08-31 01:10:56 | 53.27334 | 10.96399 | 35° | 38km/h | 19675m | -14.8m/s | -53.2°C | 0.6% | 61.6hPa | 2.6V | 00:00:00 | 00:00:00 | 00:00:00 | |
| DB0DAN | 2026-08-31 01:10:55 | 53.27318 | 10.96380 | 32° | 40km/h | 19702m | -13.3m/s | -53.4°C | 0.7% | 61.41hPa | 2.6V | 00:00:00 | 00:00:00 | 00:00:00 | |
| DL1XH-west | 2026-08-31 01:10:54 | 53.27308 | 10.96371 | 31° | 44km/h | 19716m | -14.4m/s | -53.4°C | 0% | 61.2hPa | 2.5V | 02:49:54 | 02:26:03 | 00:00:00 | |
| DF8AY | 2026-08-31 01:10:50 | 53.27271 | 10.96335 | 30° | 40km/h | 19770m | -13.7m/s | -53.2°C | 0% | 60.8hPa | 2.6V | 02:49:54 | 02:25:59 | 00:00:00 | |
| DL1XH1-15 | 2026-08-31 01:10:50 | 53.27262 | 10.96326 | 32° | 38km/h | 19783m | -13.7m/s | -53.2°C | 3.3% | 60.6hPa | 2.6V | 02:49:17 | 02:25:58 | 00:00:00 | |
| S3001 | 2026-08-31 01:10:50 | 53.27262 | 10.96326 | 32° | 37km/h | 19784m | -13.7m/s | -53.2°C | 0.6% | 60.6hPa | 2.5V | 00:00:00 | 00:00:00 | 00:00:00 | |
| DO9LL-15 | 2026-08-31 01:10:49 | 53.27262 | 10.96326 | 33° | 31km/h | 19784m | -13.7m/s | -53.2°C | 3.3% | 60.6hPa | 2.5V | 00:00:00 | 02:25:58 | 00:00:00 | |
| DL1XH-15 | 2026-08-31 01:10:48 | 53.27247 | 10.96308 | 40° | 37km/h | 19810m | -14.2m/s | -53.3°C | 3.3% | 60.4hPa | 2.5V | 02:49:19 | 02:25:56 | 00:00:00 | |
| BIOWL1-15 | 2026-08-31 01:10:48 | 53.27255 | 10.96318 | 35° | 37km/h | 19797m | -13m/s | -53.2°C | 0% | 60.5hPa | 2.5V | 02:49:54 | 02:25:57 | 00:00:00 | |
| HSKMA3-T | 2026-08-31 01:10:47 | 53.27247 | 10.96308 | 40° | 37km/h | 19810m | -14.2m/s | -53.3°C | 0% | 60.4hPa | 2.5V | 02:50:45 | 02:25:56 | 00:00:00 | |
| DL1XH-west | 2026-08-31 01:10:44 | 53.27229 | 10.96277 | 51° | 35km/h | 19854m | -14.3m/s | -53.4°C | 0% | 60hPa | 2.6V | 02:49:54 | 02:25:53 | 00:00:00 | |
| DD8BA-10 | 2026-08-31 01:10:44 | 53.27229 | 10.96277 | 51° | 35km/h | 19854m | -14.3m/s | -53.3°C | 3.4% | 59.9hPa | 2.6V | 02:49:00 | 00:00:00 | 00:00:00 | |
| DL3AQ-11 | 2026-08-31 01:10:43 | 53.27218 | 10.96253 | 52° | 35km/h | 19883m | -15.2m/s | -53.4°C | -1.0% | -1.0hPa | 2.5V | 00:00:00 | 00:00:00 | 00:00:00 | |
| DL1XH-15 | 2026-08-31 01:10:42 | 53.27190 | 10.96191 | 54° | 37km/h | 19956m | -15.7m/s | -53.7°C | 3.4% | 59hPa | 2.5V | 02:49:29 | 02:25:46 | 00:00:00 | |
| DO2SHX-10 | 2026-08-31 01:10:42 | 53.27218 | 10.96253 | 53° | 37km/h | 19883m | -15.1m/s | -53.4°C | 3.3% | 59.7hPa | 2.5V | 02:49:00 | 02:25:51 | 00:00:00 | |
| DB0DAN | 2026-08-31 01:10:40 | 53.27207 | 10.96229 | 54° | 35km/h | 19914m | -14.9m/s | -53.6°C | 0.7% | 59.43hPa | 2.6V | 00:00:00 | 00:00:00 | 00:00:00 | |
| DL1XH1-15 | 2026-08-31 01:10:40 | 53.27201 | 10.96216 | 53° | 37km/h | 19927m | -12.3m/s | -53.6°C | 3.4% | 59.3hPa | 2.6V | 02:49:27 | 02:25:48 | 00:00:00 | |
| DF8AY | 2026-08-31 01:10:39 | 53.27201 | 10.96216 | 54° | 37km/h | 19927m | -12.3m/s | -53.6°C | 0% | 59.3hPa | 2.6V | 02:49:54 | 02:25:48 | 00:00:00 | |
| BIOWL1-15 | 2026-08-31 01:10:38 | 53.27196 | 10.96204 | 55° | 37km/h | 19941m | -14.8m/s | -53.7°C | 0% | 59.2hPa | 2.6V | 02:49:54 | 02:25:47 | 00:00:00 | |
| AA1-15 | 2026-08-31 01:10:36 | 53.27185 | 10.96179 | 56° | 35km/h | 19972m | -15.1m/s | -53.8°C | 0% | 58.9hPa | 2.5V | 02:49:54 | 02:25:45 | 00:00:00 | |
| DL1XH-west | 2026-08-31 01:10:33 | 53.27168 | 10.96130 | 65° | 31km/h | 20028m | -13.6m/s | -53.8°C | 0% | 58.4hPa | 2.6V | 02:49:54 | 02:25:41 | 00:00:00 | |
| GOEST3-10 | 2026-08-31 01:10:33 | 53.27168 | 10.96130 | 65° | 33km/h | 20028m | -13.6m/s | -53.8°C | 3.5% | 58.3hPa | 2.6V | 02:49:00 | 02:25:41 | 00:00:00 | |
| EDDB2-11 | 2026-08-31 01:10:32 | 53.27165 | 10.96118 | 66° | 31km/h | 20043m | -14.9m/s | -53.8°C | 0.7% | 58.3hPa | 2.5V | 00:00:00 | 00:00:00 | 00:00:00 | |
| NBG1-10 | 2026-08-31 01:10:31 | 53.27165 | 10.96118 | 67° | 16km/h | 20043m | -14.8m/s | -53.8°C | 3.5% | 58.2hPa | 2.5V | 00:00:00 | 02:25:40 | 00:00:00 | |
| DL1XH1-15 | 2026-08-31 01:10:30 | 53.27160 | 10.96092 | 75° | 31km/h | 20072m | -14.8m/s | -53.9°C | 3.5% | 58hPa | 2.5V | 02:49:37 | 02:25:38 | 00:00:00 | |
| HSKMA3-T | 2026-08-31 01:10:30 | 53.27162 | 10.96105 | 72° | 33km/h | 20057m | -14.3m/s | -53.9°C | 0% | 58.1hPa | 2.5V | 02:50:45 | 02:25:39 | 00:00:00 | |
| DF8AY | 2026-08-31 01:10:29 | 53.27160 | 10.96092 | 75° | 31km/h | 20072m | -14.8m/s | -53.9°C | 0% | 58hPa | 2.5V | 02:49:54 | 02:25:38 | 00:00:00 | |
| BIOWL1-15 | 2026-08-31 01:10:27 | 53.27156 | 10.96067 | 80° | 29km/h | 20099m | -12.4m/s | -53.9°C | 0% | 57.7hPa | 2.6V | 02:49:54 | 02:25:36 | 00:00:00 | |
| DO2SHX-10 | 2026-08-31 01:10:27 | 53.27156 | 10.96067 | 80° | 27km/h | 20099m | -12.4m/s | -53.8°C | 3.5% | 57.7hPa | 2.6V | 00:00:00 | 02:25:36 | 00:00:00 | |
| DB0DAN | 2026-08-31 01:10:25 | 53.27154 | 10.96044 | 79° | 24km/h | 20126m | -13.4m/s | -53.8°C | 0.7% | 57.5hPa | 2.6V | 00:00:00 | 00:00:00 | 00:00:00 | |
| AA1-15 | 2026-08-31 01:10:25 | 53.27154 | 10.96044 | 79° | 24km/h | 20126m | -13.4m/s | -53.8°C | 0% | 57.5hPa | 2.6V | 02:49:54 | 02:25:34 | 00:00:00 | |
| DO2SHX-10 | 2026-08-31 01:10:24 | 53.27152 | 10.96035 | 80° | 16km/h | 20141m | -15.3m/s | -53.6°C | 3.5% | 57.4hPa | 2.5V | 02:49:00 | 02:25:33 | 00:00:00 | |
| DM0DOS-11 | 2026-08-31 01:10:23 | 53.27149 | 10.96009 | 63° | 13km/h | 20212m | -11.9m/s | -53.3°C | 3.4% | 56.7hPa | 2.6V | 02:49:47 | 02:25:28 | 00:00:00 | |
| DL1XH-west | 2026-08-31 01:10:22 | 53.27151 | 10.96022 | 84° | 13km/h | 20172m | -14.2m/s | -53.5°C | 0% | 57.1hPa | 2.5V | 02:49:54 | 02:25:31 | 00:00:00 | |
| DL1XH-15 | 2026-08-31 01:10:22 | 53.27145 | 10.95996 | 60° | 22km/h | 20239m | -14.7m/s | -53.3°C | 3.4% | 56.5hPa | 2.5V | 02:49:49 | 02:25:26 | 00:00:00 | |
| HSKMA3-T | 2026-08-31 01:10:20 | 53.27150 | 10.96013 | 72° | 11km/h | 20199m | -12.9m/s | -53.3°C | 0% | 56.9hPa | 2.6V | 02:50:45 | 02:25:29 | 00:00:00 | |
| DF8AY | 2026-08-31 01:10:18 | 53.27148 | 10.96003 | 61° | 16km/h | 20225m | -14.4m/s | -53.3°C | 0% | 56.6hPa | 2.5V | 02:49:54 | 02:25:27 | 00:00:00 | |
| BIOWL1-15 | 2026-08-31 01:10:16 | 53.27127 | 10.95952 | 47° | 24km/h | 20310m | -18.4m/s | -53.4°C | 0% | 55.9hPa | 2.5V | 02:49:54 | 02:25:21 | 00:00:00 | |
| AA1-15 | 2026-08-31 01:10:15 | 53.27139 | 10.95978 | 58° | 27km/h | 20268m | -12.3m/s | -53.4°C | 0% | 56.3hPa | 2.6V | 02:49:54 | 02:25:24 | 00:00:00 | |
| DO2SHX-10 | 2026-08-31 01:10:15 | 53.27139 | 10.95978 | 58° | 26km/h | 20268m | -12.3m/s | -53.3°C | 3.4% | 56.2hPa | 2.6V | 02:49:00 | 02:25:24 | 00:00:00 | |
| DD8BA-10 | 2026-08-31 01:10:14 | 53.27135 | 10.95969 | 55° | 22km/h | 20281m | -13.1m/s | -53.3°C | 3.4% | 56.1hPa | 2.6V | 02:49:00 | 00:00:00 | 00:00:00 | |
| DL1XH-15 | 2026-08-31 01:10:12 | 53.27107 | 10.95923 | 37° | 20km/h | 20381m | -11.9m/s | -53.3°C | 3.4% | 55.3hPa | 2.5V | 02:49:59 | 02:25:16 | 00:00:00 | |
| DL1XH-west | 2026-08-31 01:10:11 | 53.27123 | 10.95945 | 45° | 22km/h | 20328m | -16.9m/s | -53.5°C | 0% | 55.8hPa | 2.5V | 02:50:45 | 02:25:20 | 00:00:00 | |
| DF8AY | 2026-08-31 01:10:08 | 53.27111 | 10.95928 | 36° | 20km/h | 20368m | -12.8m/s | -53.5°C | 0% | 55.4hPa | 2.6V | 02:50:45 | 02:25:17 | 00:00:00 | |
| AA1-15 | 2026-08-31 01:10:04 | 53.27097 | 10.95905 | 55° | 18km/h | 20424m | -13.8m/s | -52.9°C | 0% | 54.9hPa | 2.6V | 02:50:45 | 02:25:13 | 00:00:00 | |
| DL1XH-15 | 2026-08-31 01:10:02 | 53.27094 | 10.95879 | 117° | 5km/h | 20522m | -14.2m/s | -53°C | 3.3% | 54hPa | 2.6V | 02:50:09 | 02:25:06 | 00:00:00 | |
| DL1XH-west | 2026-08-31 01:10:00 | 53.27091 | 10.95886 | 106° | 7km/h | 20481m | -15m/s | -52.9°C | 0% | 54.4hPa | 2.5V | 02:50:45 | 02:25:09 | 00:00:00 | |
| DF8AY | 2026-08-31 01:09:57 | 53.27094 | 10.95879 | 117° | 5km/h | 20522m | -14.2m/s | -53°C | 0% | 54hPa | 2.6V | 02:50:45 | 02:25:06 | 00:00:00 | |
| SP3WXH-11 | 2026-08-31 01:09:56 | 53.27094 | 10.95877 | 93° | 4km/h | 20536m | -14.8m/s | -52.9°C | 0.6% | 54.0hPa | 2.5V | 00:00:00 | 00:00:00 | 00:00:00 | |
| DB0DAN | 2026-08-31 01:09:55 | 53.27094 | 10.95875 | 65° | 5km/h | 20550m | -14m/s | -52.9°C | 0.7% | 53.82hPa | 2.5V | 00:00:00 | 00:00:00 | 00:00:00 | |
| BIOWL1-15 | 2026-08-31 01:09:53 | 53.27092 | 10.95870 | 52° | 9km/h | 20579m | -14.5m/s | -53°C | 0% | 53.6hPa | 2.6V | 02:50:45 | 02:25:02 | 00:00:00 | |
| DF8AY | 2026-08-31 01:09:52 | 53.27092 | 10.95838 | 106° | 13km/h | 20667m | -15.3m/s | -53.1°C | 0% | 52.9hPa | 2.6V | 02:50:45 | 02:24:56 | 00:00:00 | |
| DL1XH1-15 | 2026-08-31 01:09:52 | 53.27091 | 10.95850 | 96° | 15km/h | 20636m | -15.8m/s | -53°C | 3.3% | 53.1hPa | 2.5V | 02:50:17 | 02:24:58 | 00:00:00 | |
| DL1XH-west | 2026-08-31 01:09:49 | 53.27091 | 10.95850 | 97° | 15km/h | 20636m | -15.8m/s | -53°C | 0% | 53.1hPa | 2.5V | 02:50:45 | 02:24:58 | 00:00:00 | |
| DC4HF-4 | 2026-08-31 01:09:46 | 53.27093 | 10.95834 | 111° | 9km/h | 20682m | -15.6m/s | -53.2°C | 0.7% | 52.8hPa | 2.5V | 00:00:00 | 00:00:00 | 00:00:00 | |
| BIOWL1-15 | 2026-08-31 01:09:45 | 53.27096 | 10.95822 | 114° | 7km/h | 20731m | -16m/s | -53.3°C | 0% | 52.4hPa | 2.5V | 02:50:45 | 02:24:52 | 00:00:00 | |
| AA1-15 | 2026-08-31 01:09:42 | 53.27096 | 10.95819 | 107° | 5km/h | 20746m | -14.8m/s | -53.4°C | 0% | 52.3hPa | 2.5V | 02:50:45 | 02:24:51 | 00:00:00 | |
| DL1XH1-15 | 2026-08-31 01:09:42 | 53.27095 | 10.95814 | 32° | 7km/h | 20791m | -14.8m/s | -53.5°C | 3.4% | 51.9hPa | 2.5V | 02:50:27 | 02:24:48 | 00:00:00 | |
| DL1XH-15 | 2026-08-31 01:09:41 | 53.27092 | 10.95811 | 20° | 11km/h | 20820m | -16.4m/s | -53.4°C | 3.4% | 51.7hPa | 2.5V | 02:50:29 | 02:24:46 | 00:00:00 | |
| DB0DAN | 2026-08-31 01:09:40 | 53.27096 | 10.95816 | 61° | 4km/h | 20776m | -14.2m/s | -53.4°C | 0.7% | 51.96hPa | 2.6V | 00:00:00 | 00:00:00 | 00:00:00 | |
| HSKMA3-T | 2026-08-31 01:09:39 | 53.27095 | 10.95814 | 33° | 7km/h | 20791m | -14.8m/s | -53.5°C | 0% | 51.9hPa | 2.5V | 02:50:45 | 02:24:48 | 00:00:00 | |
| DF8AY | 2026-08-31 01:09:36 | 53.27088 | 10.95809 | 22° | 16km/h | 20837m | -18.5m/s | -53.4°C | 0% | 51.5hPa | 2.6V | 02:50:45 | 02:24:45 | 00:00:00 | |
| BIOWL1-15 | 2026-08-31 01:09:34 | 53.27059 | 10.95786 | 34° | 22km/h | 20939m | -16.3m/s | -53.6°C | 0% | 50.7hPa | 2.6V | 02:50:45 | 02:24:39 | 00:00:00 | |
| DO2SHX-10 | 2026-08-31 01:09:34 | 53.27079 | 10.95803 | 21° | 20km/h | 20874m | -16.9m/s | -53.4°C | 3.4% | 51.2hPa | 2.5V | 00:00:00 | 02:24:43 | 00:00:00 | |
| TFSTFS | 2026-08-31 01:09:33 | 53.27079 | 10.95803 | 21° | 20km/h | 20874m | -16.9m/s | -53.5°C | 0.7% | 51.3hPa | 2.5V | 00:00:00 | 00:00:00 | 00:00:00 | |
| TFSTFS | 2026-08-31 01:09:32 | 53.27074 | 10.95800 | 23° | 22km/h | 20890m | -16.5m/s | -53.5°C | 0.7% | 51.1hPa | 2.5V | 02:50:00 | 00:00:00 | 00:00:00 | |
| DL1XH-15 | 2026-08-31 01:09:31 | 53.27047 | 10.95769 | 47° | 20km/h | 20986m | -16.3m/s | -53.5°C | 3.5% | 50.3hPa | 2.5V | 02:50:39 | 02:24:36 | 00:00:00 | |
| AA1-15 | 2026-08-31 01:09:31 | 53.27064 | 10.95792 | 30° | 24km/h | 20923m | -17.1m/s | -53.6°C | 0% | 50.8hPa | 2.5V | 02:50:45 | 02:24:40 | 00:00:00 | |
| HSKMA3-T | 2026-08-31 01:09:28 | 53.27051 | 10.95775 | 42° | 20km/h | 20970m | -15.8m/s | -53.5°C | 0% | 50.4hPa | 2.6V | 02:50:45 | 02:24:37 | 00:00:00 | |
| DF8AY | 2026-08-31 01:09:26 | 53.27044 | 10.95763 | 52° | 22km/h | 21002m | -15.4m/s | -53.3°C | 0% | 50.2hPa | 2.5V | 02:50:45 | 02:24:35 | 00:00:00 | |
| DB0DAN | 2026-08-31 01:09:25 | 53.27041 | 10.95755 | 56° | 22km/h | 21017m | -15.4m/s | -53.2°C | 0.7% | 50.09hPa | 2.5V | 00:00:00 | 00:00:00 | 00:00:00 | |
| DO2SHX-10 | 2026-08-31 01:09:25 | 53.27040 | 10.95755 | 57° | 22km/h | 21017m | -15.3m/s | -53.2°C | 3.4% | 50.0hPa | 2.5V | 00:00:00 | 02:24:34 | 00:00:00 | |
| DD8BA-10 | 2026-08-31 01:09:24 | 53.27038 | 10.95747 | 59° | 15km/h | 21033m | -15.1m/s | -53.1°C | 3.3% | 49.9hPa | 2.5V | 00:00:00 | 00:00:00 | 00:00:00 | |
| SMARD9-15 | 2026-08-31 01:09:23 | 53.27035 | 10.95740 | 58° | 20km/h | 21048m | -15.6m/s | -53.1°C | 0.7% | 49.9hPa | 2.5V | 00:00:00 | 00:00:00 | 00:00:00 | |
| DO2SHX-10 | 2026-08-31 01:09:22 | 53.27032 | 10.95732 | 60° | 16km/h | 21064m | -16.5m/s | -53.0°C | 3.4% | 49.7hPa | 2.5V | 00:00:00 | 02:24:31 | 00:00:00 | |
| DL1XH-15 | 2026-08-31 01:09:21 | 53.27028 | 10.95704 | 103° | 11km/h | 21143m | -17.6m/s | -53°C | 3.4% | 49.1hPa | 2.5V | 02:50:49 | 02:24:26 | 00:00:00 | |
| GOEST3-10 | 2026-08-31 01:09:21 | 53.27030 | 10.95726 | 64° | 13km/h | 21081m | -16.4m/s | -53.1°C | 3.4% | 49.6hPa | 2.6V | 00:00:00 | 02:24:30 | 00:00:00 | |
| DL1XH1-15 | 2026-08-31 01:09:20 | 53.27028 | 10.95714 | 80° | 13km/h | 21110m | -14.2m/s | -53.1°C | 3.4% | 49.4hPa | 2.6V | 02:50:47 | 02:24:28 | 00:00:00 | |
| AA1-15 | 2026-08-31 01:09:20 | 53.27029 | 10.95720 | 70° | 15km/h | 21096m | -15m/s | -53.2°C | 0% | 49.5hPa | 2.6V | 02:51:36 | 02:24:29 | 00:00:00 | |
| BIOWL1-15 | 2026-08-31 01:09:19 | 53.27032 | 10.95690 | 129° | 9km/h | 21207m | -12.2m/s | -53°C | 0% | 48.6hPa | 2.6V | 02:51:36 | 02:24:22 | 00:00:00 | |
| HSKMA3-T | 2026-08-31 01:09:18 | 53.27028 | 10.95709 | 93° | 11km/h | 21126m | -17.2m/s | -53.1°C | 0% | 49.2hPa | 2.5V | 02:51:36 | 02:24:27 | 00:00:00 | |
| DL1XH-west | 2026-08-31 01:09:18 | 53.27028 | 10.95705 | 103° | 11km/h | 21143m | -17.6m/s | -53°C | 0% | 49.1hPa | 2.5V | 02:51:36 | 02:24:26 | 00:00:00 | |
| DF8AY | 2026-08-31 01:09:15 | 53.27030 | 10.95697 | 116° | 9km/h | 21178m | -17.6m/s | -53°C | 0% | 48.9hPa | 2.6V | 02:51:36 | 02:24:24 | 00:00:00 | |
| SP3BTT-10 | 2026-08-31 01:09:15 | 53.27030 | 10.95697 | 116° | 15km/h | 21178m | -17.5m/s | -53.0°C | 3.4% | 48.8hPa | 2.6V | 00:00:00 | 00:00:00 | 00:00:00 | |
| DD8BA-10 | 2026-08-31 01:09:14 | 53.27031 | 10.95693 | 121° | 11km/h | 21194m | -14.5m/s | -53.0°C | 3.4% | 48.7hPa | 2.6V | 02:50:00 | 00:00:00 | 00:00:00 | |
| DL1XH1-15 | 2026-08-31 01:09:13 | 53.27034 | 10.95693 | 269° | 11km/h | 21270m | -16.6m/s | -52.5°C | 3.1% | 48.2hPa | 2.6V | 02:50:57 | 02:24:18 | 00:00:00 | |
| DL1XH-15 | 2026-08-31 01:09:11 | 53.27034 | 10.95704 | 270° | 16km/h | 21303m | -16.9m/s | -52.8°C | 3.2% | 47.9hPa | 2.6V | 02:50:59 | 02:24:16 | 00:00:00 | |
| DB0DAN | 2026-08-31 01:09:10 | 53.27034 | 10.95689 | 264° | 7km/h | 21253m | -17.5m/s | -52.6°C | 0.6% | 48.33hPa | 2.5V | 00:00:00 | 00:00:00 | 00:00:00 | |
| AA1-15 | 2026-08-31 01:09:09 | 53.27035 | 10.95693 | 269° | 11km/h | 21270m | -16.6m/s | -52.5°C | 0% | 48.2hPa | 2.6V | 02:51:36 | 02:24:18 | 00:00:00 | |
| DL1XH-west | 2026-08-31 01:09:07 | 53.27034 | 10.95704 | 271° | 16km/h | 21303m | -16.9m/s | -52.8°C | 0% | 47.9hPa | 2.6V | 02:51:36 | 02:24:16 | 00:00:00 | |
| DF8AY | 2026-08-31 01:09:05 | 53.27033 | 10.95717 | 277° | 15km/h | 21337m | -16.7m/s | -53°C | 0% | 47.7hPa | 2.5V | 02:51:36 | 02:24:14 | 00:00:00 | |
| AA1-15 | 2026-08-31 01:08:58 | 53.27021 | 10.95737 | 344° | 11km/h | 21447m | -15.4m/s | -53.1°C | 0% | 46.9hPa | 2.6V | 02:51:36 | 02:24:07 | 00:00:00 | |
| DL1XH-west | 2026-08-31 01:08:57 | 53.27018 | 10.95738 | 346° | 11km/h | 21462m | -14.4m/s | -53.2°C | 0% | 46.7hPa | 2.5V | 02:51:36 | 02:24:06 | 00:00:00 | |
| DB0DAN | 2026-08-31 01:08:55 | 53.27013 | 10.95741 | 330° | 9km/h | 21491m | -14.9m/s | -53.3°C | 0.6% | 46.53hPa | 2.5V | 00:00:00 | 00:00:00 | 00:00:00 | |
| DF8AY | 2026-08-31 01:08:54 | 53.27011 | 10.95743 | 314° | 7km/h | 21505m | -13.7m/s | -53.4°C | 0% | 46.4hPa | 2.6V | 02:51:36 | 02:24:03 | 00:00:00 | |
| AA1-15 | 2026-08-31 01:08:48 | 53.27011 | 10.95769 | 274° | 15km/h | 21591m | -16.4m/s | -53.3°C | 0% | 45.8hPa | 2.6V | 02:51:36 | 02:23:57 | 00:00:00 | |
| DL1XH-west | 2026-08-31 01:08:47 | 53.27009 | 10.95781 | 297° | 15km/h | 21627m | -17.4m/s | -53.5°C | 0% | 45.6hPa | 2.6V | 02:51:36 | 02:23:55 | 00:00:00 | |
| DJ2DS-15 | 2026-08-31 01:08:46 | 53.27009 | 10.95781 | 296° | 15km/h | 21627m | -17.4m/s | -53.5°C | 0.7% | 45.6hPa | 2.5V | 00:00:00 | 00:00:00 | 00:00:00 | |
| S3001 | 2026-08-31 01:08:45 | 53.27007 | 10.95786 | 306° | 16km/h | 21644m | -16.4m/s | -53.5°C | 0.6% | 45.5hPa | 2.5V | 00:00:00 | 00:00:00 | 00:00:00 | |
| DF8AY | 2026-08-31 01:08:43 | 53.27001 | 10.95797 | 318° | 16km/h | 21674m | -15.6m/s | -53.4°C | 0% | 45.3hPa | 2.5V | 02:51:36 | 02:23:52 | 00:00:00 | |
| HSKMA3-T | 2026-08-31 01:08:41 | 53.26995 | 10.95805 | 328° | 15km/h | 21708m | -17.6m/s | -53.3°C | 0% | 45hPa | 2.6V | 02:51:36 | 02:23:50 | 00:00:00 | |
| DL1XH-15 | 2026-08-31 01:08:41 | 53.26980 | 10.95816 | 340° | 18km/h | 21779m | -18.3m/s | -53.5°C | 3.4% | 44.5hPa | 2.6V | 02:51:29 | 02:23:46 | 00:00:00 | |
| DB0DAN | 2026-08-31 01:08:40 | 53.26991 | 10.95808 | 331° | 15km/h | 21725m | -17.4m/s | -53.3°C | 0.6% | 44.9hPa | 2.5V | 00:00:00 | 00:00:00 | 00:00:00 | |
| AA1-15 | 2026-08-31 01:08:38 | 53.26984 | 10.95813 | 339° | 16km/h | 21760m | -18.1m/s | -53.5°C | 0% | 44.7hPa | 2.6V | 02:51:36 | 02:23:47 | 00:00:00 | |
| DL1XH-west | 2026-08-31 01:08:36 | 53.26976 | 10.95818 | 343° | 18km/h | 21797m | -19.4m/s | -53.6°C | 0% | 44.4hPa | 2.5V | 02:51:36 | 02:23:45 | 00:00:00 | |
| DF8AY | 2026-08-31 01:08:33 | 53.26960 | 10.95822 | 358° | 24km/h | 21851m | -14.4m/s | -53.8°C | 0% | 44hPa | 2.6V | 02:51:36 | 02:23:42 | 00:00:00 | |
| DF7ER-10 | 2026-08-31 01:08:32 | 53.26960 | 10.95822 | 359° | 24km/h | 21851m | -14.4m/s | -53.8°C | 0.7% | 44.0hPa | 2.6V | 02:51:00 | 00:00:00 | 00:00:00 | |
| DL1XH-15 | 2026-08-31 01:08:31 | 53.26917 | 10.95813 | 16° | 27km/h | 21949m | -18.1m/s | -53.8°C | 3.5% | 43.4hPa | 2.6V | 02:51:39 | 02:23:36 | 00:00:00 | |
| HSKMA3-T | 2026-08-31 01:08:31 | 53.26946 | 10.95822 | 5° | 29km/h | 21879m | -15.3m/s | -53.9°C | 0% | 43.8hPa | 2.6V | 02:51:36 | 02:23:40 | 00:00:00 | |
| DO2SHX-10 | 2026-08-31 01:08:31 | 53.26946 | 10.95822 | 5° | 29km/h | 21879m | -15.2m/s | -53.8°C | 0% | 43.8hPa | 2.5V | 00:00:00 | 02:23:40 | 00:00:00 | |
| DL1XH1-15 | 2026-08-31 01:08:30 | 53.26931 | 10.95819 | 12° | 29km/h | 21911m | -19.7m/s | -53.7°C | 3.5% | 43.6hPa | 2.5V | 02:51:37 | 02:23:38 | 00:00:00 | |
| BIOWL1-15 | 2026-08-31 01:08:28 | 53.26924 | 10.95816 | 14° | 27km/h | 21931m | -19.7m/s | -53.8°C | 0% | 43.5hPa | 2.5V | 02:52:27 | 02:23:37 | 00:00:00 | |
| AA1-15 | 2026-08-31 01:08:27 | 53.26917 | 10.95813 | 17° | 27km/h | 21949m | -18.1m/s | -53.8°C | 0% | 43.4hPa | 2.6V | 02:52:27 | 02:23:36 | 00:00:00 | |
| DL1XH-west | 2026-08-31 01:08:25 | 53.26905 | 10.95806 | 22° | 22km/h | 21982m | -16m/s | -53.7°C | 0% | 43.1hPa | 2.6V | 02:52:27 | 02:23:34 | 00:00:00 | |
| DB0DAN | 2026-08-31 01:08:25 | 53.26905 | 10.95806 | 22° | 20km/h | 21982m | -16m/s | -53.7°C | 0.7% | 43.14hPa | 2.6V | 00:00:00 | 00:00:00 | 00:00:00 | |
| DF8AY | 2026-08-31 01:08:23 | 53.26897 | 10.95801 | 23° | 15km/h | 22014m | -15.9m/s | -53.5°C | 0% | 42.9hPa | 2.5V | 02:52:27 | 02:23:32 | 00:00:00 | |
| DO2SHX-10 | 2026-08-31 01:08:22 | 53.26893 | 10.95799 | 27° | 13km/h | 22030m | -15.9m/s | -53.4°C | 3.4% | 42.8hPa | 2.6V | 00:00:00 | 02:23:31 | 00:00:00 | |
| DL1XH-15 | 2026-08-31 01:08:21 | 53.26880 | 10.95778 | 45° | 18km/h | 22118m | -18.6m/s | -53.7°C | 3.5% | 42.3hPa | 2.6V | 02:51:49 | 02:23:26 | 00:00:00 | |
| HSKMA3-T | 2026-08-31 01:08:20 | 53.26888 | 10.95792 | 45° | 13km/h | 22064m | -17.6m/s | -53.6°C | 0% | 42.6hPa | 2.6V | 02:52:27 | 02:23:29 | 00:00:00 | |
| DL1XH1-15 | 2026-08-31 01:08:20 | 53.26886 | 10.95788 | 47° | 15km/h | 22081m | -17.5m/s | -53.6°C | 3.5% | 42.5hPa | 2.5V | 02:51:47 | 02:23:28 | 00:00:00 | |
| BIOWL1-15 | 2026-08-31 01:08:18 | 53.26861 | 10.95752 | 57° | 4km/h | 22234m | -18.1m/s | -53.6°C | 0% | 41.5hPa | 2.5V | 02:52:27 | 02:23:19 | 00:00:00 | |
| AA1-15 | 2026-08-31 01:08:17 | 53.26880 | 10.95778 | 45° | 18km/h | 22118m | -18.6m/s | -53.7°C | 0% | 42.3hPa | 2.6V | 02:52:27 | 02:23:26 | 00:00:00 | |
| DL1XH-west | 2026-08-31 01:08:15 | 53.26873 | 10.95768 | 41° | 18km/h | 22153m | -16.6m/s | -53.8°C | 0% | 42hPa | 2.5V | 02:52:27 | 02:23:24 | 00:00:00 | |
| DF8AY | 2026-08-31 01:08:12 | 53.26864 | 10.95756 | 35° | 11km/h | 22200m | -15.4m/s | -53.7°C | 0% | 41.7hPa | 2.6V | 02:52:27 | 02:23:21 | 00:00:00 | |
| AP2371 | 2026-08-31 01:08:11 | 53.26864 | 10.95756 | 36° | 11km/h | 22200m | -15.4m/s | -53.7°C | 0.7% | 41.7hPa | 2.5V | 02:52:00 | 00:00:00 | 00:00:00 | |
| DB0DAN | 2026-08-31 01:08:10 | 53.26861 | 10.95752 | 57° | 4km/h | 22234m | -18.1m/s | -53.6°C | 0.6% | 41.53hPa | 2.5V | 00:00:00 | 00:00:00 | 00:00:00 | |
| HSKMA3-T | 2026-08-31 01:08:09 | 53.26861 | 10.95751 | 85° | 2km/h | 22251m | -16.6m/s | -53.6°C | 0% | 41.4hPa | 2.5V | 02:52:27 | 02:23:18 | 00:00:00 | |
| BIOWL1-15 | 2026-08-31 01:08:07 | 53.26861 | 10.95749 | 148° | 2km/h | 22283m | -16.5m/s | -53.5°C | 0% | 41.2hPa | 2.6V | 02:52:27 | 02:23:16 | 00:00:00 | |
| AA1-15 | 2026-08-31 01:08:06 | 53.26862 | 10.95749 | 315° | 0km/h | 22299m | -16m/s | -53.5°C | 0% | 41.1hPa | 2.6V | 02:52:27 | 02:23:15 | 00:00:00 | |
| DL1XH-west | 2026-08-31 01:08:04 | 53.26861 | 10.95751 | 289° | 4km/h | 22334m | -16.4m/s | -53.5°C | 0% | 40.9hPa | 2.5V | 02:52:27 | 02:23:13 | 00:00:00 | |
| DF8AY | 2026-08-31 01:08:02 | 53.26861 | 10.95754 | 287° | 4km/h | 22367m | -16.7m/s | -53.4°C | 0% | 40.6hPa | 2.6V | 02:52:27 | 02:23:11 | 00:00:00 | |
| DL1XH-15 | 2026-08-31 01:08:02 | 53.26856 | 10.95764 | 311° | 5km/h | 22450m | -16m/s | -53.3°C | 3.3% | 40.1hPa | 2.5V | 02:52:09 | 02:23:06 | 00:00:00 | |
| DO2SHX-10 | 2026-08-31 01:08:01 | 53.26860 | 10.95756 | 299° | 5km/h | 22383m | -16.7m/s | -53.2°C | 3.3% | 40.5hPa | 2.5V | 00:00:00 | 02:23:10 | 00:00:00 | |
| DL1XH1-15 | 2026-08-31 01:08:00 | 53.26859 | 10.95760 | 313° | 7km/h | 22418m | -17.4m/s | -53.2°C | 3.3% | 40.4hPa | 2.5V | 02:52:07 | 02:23:08 | 00:00:00 | |
| HSKMA3-T | 2026-08-31 01:07:59 | 53.26858 | 10.95760 | 314° | 7km/h | 22418m | -17.4m/s | -53.2°C | 0% | 40.4hPa | 2.5V | 02:52:27 | 02:23:08 | 00:00:00 | |
| BIOWL1-15 | 2026-08-31 01:07:57 | 53.26843 | 10.95785 | 327° | 15km/h | 22567m | -14.9m/s | -53.4°C | 0% | 39.4hPa | 2.6V | 02:52:27 | 02:22:59 | 00:00:00 | |
| AA1-15 | 2026-08-31 01:07:55 | 53.26854 | 10.95768 | 305° | 5km/h | 22485m | -18.1m/s | -53.3°C | 0% | 39.9hPa | 2.6V | 02:52:27 | 02:23:04 | 00:00:00 | |
| DB0DAN | 2026-08-31 01:07:55 | 53.26854 | 10.95768 | 304° | 5km/h | 22485m | -18.1m/s | -53.3°C | 0.6% | 39.93hPa | 2.6V | 00:00:00 | 00:00:00 | 00:00:00 | |
| DL1XH-west | 2026-08-31 01:07:53 | 53.26851 | 10.95774 | 310° | 9km/h | 22519m | -15m/s | -53.4°C | 0% | 39.7hPa | 2.5V | 02:52:27 | 02:23:02 | 00:00:00 | |
| DF8AY | 2026-08-31 01:07:51 | 53.26846 | 10.95781 | 318° | 16km/h | 22552m | -16.3m/s | -53.3°C | 0% | 39.5hPa | 2.5V | 02:52:27 | 02:23:00 | 00:00:00 | |
| GOEST3-10 | 2026-08-31 01:07:51 | 53.26846 | 10.95781 | 318° | 16km/h | 22552m | -16.3m/s | -53.3°C | 3.4% | 39.5hPa | 2.5V | 00:00:00 | 02:23:00 | 00:00:00 | |
| DL1XH-15 | 2026-08-31 01:07:50 | 53.26832 | 10.95792 | 348° | 18km/h | 22618m | -18.3m/s | -53.4°C | 3.3% | 39.1hPa | 2.5V | 02:52:19 | 02:22:56 | 00:00:00 | |
| DL1XH1-15 | 2026-08-31 01:07:50 | 53.26840 | 10.95788 | 335° | 16km/h | 22583m | -16.9m/s | -53.4°C | 3.4% | 39.3hPa | 2.6V | 02:52:17 | 02:22:58 | 00:00:00 | |
| HSKMA3-T | 2026-08-31 01:07:48 | 53.26836 | 10.95791 | 343° | 16km/h | 22600m | -17.9m/s | -53.4°C | 0% | 39.2hPa | 2.5V | 02:52:27 | 02:22:57 | 00:00:00 | |
| BIOWL1-15 | 2026-08-31 01:07:44 | 53.26819 | 10.95796 | 351° | 15km/h | 22670m | -16.6m/s | -53.5°C | 0% | 38.8hPa | 2.5V | 02:52:27 | 02:22:53 | 00:00:00 | |
| DL1XH-west | 2026-08-31 01:07:43 | 53.26812 | 10.95798 | 356° | 13km/h | 22704m | -17.2m/s | -53.7°C | 0% | 38.6hPa | 2.6V | 02:52:27 | 02:22:51 | 00:00:00 | |
| DO2SHX-10 | 2026-08-31 01:07:43 | 53.26816 | 10.95797 | 352° | 15km/h | 22688m | -16.4m/s | -53.5°C | 3.3% | 38.6hPa | 2.5V | 00:00:00 | 02:22:52 | 00:00:00 | |
| DK7RCA | 2026-08-31 01:07:42 | 53.26815 | 10.95797 | 353° | 15km/h | 22688m | -16.5m/s | -53.6°C | 0.6% | 38.7hPa | 2.5V | 02:52:00 | 00:00:00 | 00:00:00 | |
| DB0DAN | 2026-08-31 01:07:40 | 53.26805 | 10.95798 | 7° | 13km/h | 22741m | -17.6m/s | -53.9°C | 0.6% | 38.36hPa | 2.5V | 00:00:00 | 00:00:00 | 00:00:00 | |
| DF8AY | 2026-08-31 01:07:40 | 53.26805 | 10.95798 | 7° | 13km/h | 22741m | -17.6m/s | -53.9°C | 0% | 38.4hPa | 2.5V | 02:52:27 | 02:22:49 | 00:00:00 | |
| HSKMA3-T | 2026-08-31 01:07:37 | 53.26795 | 10.95793 | 26° | 15km/h | 22790m | -17.3m/s | -54°C | 0% | 38.1hPa | 2.6V | 02:53:18 | 02:22:46 | 00:00:00 | |
| AA1-15 | 2026-08-31 01:07:34 | 53.26786 | 10.95781 | 51° | 15km/h | 22844m | -18.5m/s | -54.2°C | 0% | 37.8hPa | 2.5V | 02:53:18 | 02:22:43 | 00:00:00 | |
| BIOWL1-15 | 2026-08-31 01:07:33 | 53.26776 | 10.95760 | 52° | 9km/h | 22962m | -18.2m/s | -54°C | 0% | 37.1hPa | 2.5V | 02:53:18 | 02:22:37 | 00:00:00 | |
| DL1XH-west | 2026-08-31 01:07:32 | 53.26782 | 10.95772 | 48° | 11km/h | 22882m | -19.3m/s | -54°C | 0% | 37.5hPa | 2.5V | 02:53:18 | 02:22:41 | 00:00:00 | |
| DO2SHX-10 | 2026-08-31 01:07:31 | 53.26780 | 10.95769 | 50° | 9km/h | 22902m | -20.8m/s | -53.9°C | 3.5% | 37.4hPa | 2.6V | 02:52:00 | 02:22:40 | 00:00:00 | |
| DL1XH1-15 | 2026-08-31 01:07:30 | 53.26777 | 10.95763 | 48° | 9km/h | 22943m | -19.7m/s | -54°C | 3.5% | 37.2hPa | 2.6V | 02:52:37 | 02:22:38 | 00:00:00 | |
| DF8AY | 2026-08-31 01:07:29 | 53.26777 | 10.95763 | 48° | 9km/h | 22943m | -19.7m/s | -54°C | 0% | 37.2hPa | 2.6V | 02:53:18 | 02:22:38 | 00:00:00 | |
| DO2SHX-10 | 2026-08-31 01:07:28 | 53.26775 | 10.95760 | 52° | 13km/h | 22962m | -18.2m/s | -53.9°C | 3.6% | 37.0hPa | 2.6V | 00:00:00 | 02:22:37 | 00:00:00 | |
| SONCRA | 2026-08-31 01:07:27 | 53.26774 | 10.95756 | 60° | 11km/h | 22981m | -18.2m/s | -54.0°C | 0.7% | 37.0hPa | 2.6V | 00:00:00 | 00:00:00 | 00:00:00 | |
| DB0DAN | 2026-08-31 01:07:25 | 53.26770 | 10.95745 | 61° | 16km/h | 23016m | -18.9m/s | -54°C | 0.7% | 36.77hPa | 2.6V | 00:00:00 | 00:00:00 | 00:00:00 | |
| HSKMA3-T | 2026-08-31 01:07:25 | 53.26770 | 10.95745 | 61° | 16km/h | 23016m | -18.9m/s | -54°C | 0% | 36.8hPa | 2.6V | 02:53:18 | 02:22:34 | 00:00:00 | |
| BIOWL1-15 | 2026-08-31 01:07:23 | 53.26763 | 10.95725 | 55° | 11km/h | 23085m | -17.1m/s | -54°C | 0% | 36.4hPa | 2.5V | 02:53:18 | 02:22:30 | 00:00:00 | |
| AA1-15 | 2026-08-31 01:07:23 | 53.26766 | 10.95734 | 58° | 15km/h | 23052m | -16.3m/s | -54°C | 0% | 36.5hPa | 2.6V | 02:53:18 | 02:22:32 | 00:00:00 | |
| DM0DOS-11 | 2026-08-31 01:07:22 | 53.26761 | 10.95719 | 89° | 5km/h | 23123m | -17.8m/s | -54°C | 3.5% | 36.2hPa | 2.6V | 02:52:47 | 02:22:28 | 00:00:00 | |
| DL1XH-west | 2026-08-31 01:07:22 | 53.26764 | 10.95729 | 57° | 13km/h | 23068m | -16.9m/s | -54°C | 0% | 36.5hPa | 2.5V | 02:53:18 | 02:22:31 | 00:00:00 | |
| DF8AY | 2026-08-31 01:07:20 | 53.26761 | 10.95719 | 90° | 5km/h | 23123m | -17.8m/s | -54°C | 0% | 36.2hPa | 2.6V | 02:53:18 | 02:22:28 | 00:00:00 | |
| HSKMA3-T | 2026-08-31 01:07:14 | 53.26766 | 10.95714 | 156° | 5km/h | 23214m | -16.9m/s | -54°C | 0% | 35.6hPa | 2.5V | 02:53:18 | 02:22:23 | 00:00:00 | |
| AA1-15 | 2026-08-31 01:07:12 | 53.26769 | 10.95711 | 129° | 4km/h | 23248m | -18.5m/s | -53.6°C | 0% | 35.5hPa | 2.6V | 02:53:18 | 02:22:21 | 00:00:00 | |
| DL1XH-west | 2026-08-31 01:07:11 | 53.26769 | 10.95710 | 355° | 0km/h | 23266m | -18.8m/s | -53.6°C | 0% | 35.4hPa | 2.5V | 02:53:18 | 02:22:20 | 00:00:00 | |
| DM0DOS-11 | 2026-08-31 01:07:11 | 53.26768 | 10.95711 | 341° | 4km/h | 23301m | -14.9m/s | -53.6°C | 3.6% | 35.2hPa | 2.6V | 02:52:57 | 02:22:18 | 00:00:00 | |
| DB0DAN | 2026-08-31 01:07:10 | 53.26769 | 10.95710 | 334° | 2km/h | 23285m | -17.8m/s | -53.6°C | 0.6% | 35.26hPa | 2.5V | 00:00:00 | 00:00:00 | 00:00:00 | |
| DF8AY | 2026-08-31 01:07:08 | 53.26768 | 10.95711 | 308° | 4km/h | 23316m | -14m/s | -53.6°C | 0% | 35.1hPa | 2.6V | 02:53:18 | 02:22:17 | 00:00:00 | |
| HSKMA3-T | 2026-08-31 01:07:04 | 53.26766 | 10.95719 | 292° | 7km/h | 23386m | -19.6m/s | -53.1°C | 0% | 34.8hPa | 2.6V | 02:53:18 | 02:22:13 | 00:00:00 | |
| DL1XH1-15 | 2026-08-31 01:07:04 | 53.26762 | 10.95721 | 79° | 4km/h | 23486m | -20.7m/s | -52.9°C | 3.4% | 34.2hPa | 2.5V | 02:53:07 | 02:22:08 | 00:00:00 | |
| BIOWL1-15 | 2026-08-31 01:07:01 | 53.26764 | 10.95723 | 29° | 4km/h | 23445m | -21.1m/s | -52.8°C | 0% | 34.4hPa | 2.6V | 02:53:18 | 02:22:10 | 00:00:00 | |
| DL1XH-west | 2026-08-31 01:07:00 | 53.26763 | 10.95722 | 40° | 4km/h | 23466m | -20.5m/s | -52.8°C | 0% | 34.3hPa | 2.6V | 02:53:18 | 02:22:09 | 00:00:00 | |
| DL1XH-15 | 2026-08-31 01:06:59 | 53.26763 | 10.95717 | 138° | 5km/h | 23524m | -15.9m/s | -53.1°C | 3.4% | 34hPa | 2.5V | 02:53:09 | 02:22:06 | 00:00:00 | |
| DF8AY | 2026-08-31 01:06:58 | 53.26762 | 10.95719 | 94° | 5km/h | 23506m | -18.7m/s | -53°C | 0% | 34.1hPa | 2.5V | 02:53:18 | 02:22:07 | 00:00:00 | |
| SONCRA | 2026-08-31 01:06:56 | 53.26765 | 10.95715 | 174° | 5km/h | 23557m | -17.4m/s | -53.1°C | 0.6% | 33.8hPa | 2.6V | 00:00:00 | 00:00:00 | 00:00:00 | |
| DB0DAN | 2026-08-31 01:06:55 | 53.26765 | 10.95715 | 175° | 7km/h | 23557m | -17.4m/s | -53.1°C | 0.6% | 33.81hPa | 2.6V | 00:00:00 | 00:00:00 | 00:00:00 | |
| HSKMA3-T | 2026-08-31 01:06:54 | 53.26767 | 10.95715 | 176° | 9km/h | 23576m | -20.1m/s | -53°C | 0% | 33.7hPa | 2.6V | 02:53:18 | 02:22:03 | 00:00:00 | |
| BIOWL1-15 | 2026-08-31 01:06:53 | 53.26772 | 10.95713 | 141° | 4km/h | 23636m | -19.4m/s | -52.9°C | 0% | 33.4hPa | 2.5V | 02:53:18 | 02:22:00 | 00:00:00 | |
| SONDE2-11 | 2026-08-31 01:06:53 | 53.26771 | 10.95714 | 163° | 5km/h | 23616m | -21.4m/s | -52.9°C | 0.6% | 33.5hPa | 2.5V | 00:00:00 | 00:00:00 | 00:00:00 | |
| DO2SHX-10 | 2026-08-31 01:06:52 | 53.26771 | 10.95714 | 164° | 5km/h | 23617m | -21.3m/s | -52.9°C | 3.4% | 33.5hPa | 2.5V | 00:00:00 | 02:22:01 | 00:00:00 | |
| DL1XH-15 | 2026-08-31 01:06:51 | 53.26768 | 10.95707 | 16° | 13km/h | 23711m | -17.7m/s | -52.7°C | 3.5% | 33hPa | 2.5V | 02:53:19 | 02:21:56 | 00:00:00 | |
| AA1-15 | 2026-08-31 01:06:50 | 53.26772 | 10.95712 | 98° | 4km/h | 23656m | -19m/s | -52.9°C | 0% | 33.4hPa | 2.6V | 02:53:18 | 02:21:59 | 00:00:00 | |
| DL1XH-west | 2026-08-31 01:06:49 | 53.26772 | 10.95710 | 47° | 5km/h | 23674m | -19.2m/s | -52.9°C | 0% | 33.2hPa | 2.6V | 02:53:18 | 02:21:58 | 00:00:00 | |
| DF8AY | 2026-08-31 01:06:47 | 53.26768 | 10.95707 | 17° | 13km/h | 23711m | -17.7m/s | -52.7°C | 0% | 33hPa | 2.5V | 02:54:09 | 02:21:56 | 00:00:00 | |
| HSKMA3-T | 2026-08-31 01:06:44 | 53.26758 | 10.95704 | 12° | 11km/h | 23763m | -18.7m/s | -52.5°C | 0% | 32.8hPa | 2.6V | 02:54:09 | 02:21:53 | 00:00:00 | |
| DD8BA-10 | 2026-08-31 01:06:44 | 53.26758 | 10.95704 | 13° | 7km/h | 23764m | -18.7m/s | -52.4°C | 3.4% | 32.7hPa | 2.6V | 02:53:00 | 00:00:00 | 00:00:00 | |
| DO2SHX-10 | 2026-08-31 01:06:43 | 53.26756 | 10.95702 | 39° | 7km/h | 23782m | -18.4m/s | -52.3°C | 3.4% | 32.6hPa | 2.6V | 00:00:00 | 02:21:52 | 00:00:00 | |
| DL1XH-15 | 2026-08-31 01:06:41 | 53.26762 | 10.95685 | 125° | 7km/h | 23898m | -20.9m/s | -51.8°C | 3.1% | 32.1hPa | 2.6V | 02:53:29 | 02:21:46 | 00:00:00 | |
| BIOWL1-15 | 2026-08-31 01:06:40 | 53.26757 | 10.95694 | 134° | 9km/h | 23838m | -19.9m/s | -51.9°C | 0% | 32.4hPa | 2.5V | 02:54:09 | 02:21:49 | 00:00:00 | |
| DB0DAN | 2026-08-31 01:06:40 | 53.26757 | 10.95694 | 134° | 9km/h | 23838m | -19.9m/s | -51.9°C | 0.5% | 32.4hPa | 2.5V | 00:00:00 | 00:00:00 | 00:00:00 | |
| AA1-15 | 2026-08-31 01:06:39 | 53.26759 | 10.95691 | 139° | 11km/h | 23857m | -19.9m/s | -51.9°C | 0% | 32.3hPa | 2.5V | 02:54:09 | 02:21:48 | 00:00:00 | |
| DL1XH-west | 2026-08-31 01:06:39 | 53.26760 | 10.95688 | 134° | 9km/h | 23877m | -20m/s | -51.9°C | 0% | 32.2hPa | 2.6V | 02:54:09 | 02:21:47 | 00:00:00 | |
| DF8AY | 2026-08-31 01:06:36 | 53.26762 | 10.95683 | 118° | 5km/h | 23918m | -20.2m/s | -51.6°C | 0% | 32hPa | 2.6V | 02:54:09 | 02:21:45 | 00:00:00 | |
| HSKMA3-T | 2026-08-31 01:06:33 | 53.26762 | 10.95677 | 49° | 4km/h | 23973m | -18m/s | -51.5°C | 0% | 31.7hPa | 2.5V | 02:54:09 | 02:21:42 | 00:00:00 | |
| EDDB2-12 | 2026-08-31 01:06:33 | 53.26761 | 10.95676 | 53° | 4km/h | 23993m | -20.8m/s | -51.5°C | 0.5% | 31.6hPa | 2.5V | 00:00:00 | 00:00:00 | 00:00:00 | |
| DL1XH-15 | 2026-08-31 01:06:31 | 53.26760 | 10.95665 | 68° | 4km/h | 24083m | -18.1m/s | -51.5°C | 3% | 31.2hPa | 2.5V | 02:53:39 | 02:21:36 | 00:00:00 | |
| DO2SHX-10 | 2026-08-31 01:06:31 | 53.26761 | 10.95674 | 71° | 5km/h | 24012m | -19.1m/s | -51.5°C | 3.1% | 31.5hPa | 2.5V | 00:00:00 | 02:21:40 | 00:00:00 | |
| DL1XH1-15 | 2026-08-31 01:06:30 | 53.26760 | 10.95670 | 81° | 5km/h | 24049m | -18.5m/s | -51.5°C | 3.1% | 31.3hPa | 2.5V | 02:53:37 | 02:21:38 | 00:00:00 | |
| AA1-15 | 2026-08-31 01:06:28 | 53.26760 | 10.95668 | 86° | 5km/h | 24066m | -16.4m/s | -51.5°C | 0% | 31.2hPa | 2.5V | 02:54:09 | 02:21:37 | 00:00:00 | |
| DO2SHX-10 | 2026-08-31 01:06:28 | 53.26760 | 10.95668 | 86° | 4km/h | 24066m | -16.4m/s | -51.4°C | 3.0% | 31.2hPa | 2.5V | 02:53:00 | 02:21:37 | 00:00:00 | |
| AM1SDL-15 | 2026-08-31 01:06:27 | 53.26760 | 10.95665 | 69° | 5km/h | 24083m | -18.1m/s | -51.4°C | 3.0% | 31.2hPa | 2.6V | 00:00:00 | 02:21:36 | 00:00:00 | |
| DL1XH-west | 2026-08-31 01:06:27 | 53.26760 | 10.95665 | 68° | 4km/h | 24083m | -18.1m/s | -51.5°C | 0% | 31.2hPa | 2.5V | 02:54:09 | 02:21:36 | 00:00:00 | |
| DB0DAN | 2026-08-31 01:06:25 | 53.26759 | 10.95662 | 86° | 4km/h | 24121m | -21.8m/s | -51.5°C | 0.5% | 31.01hPa | 2.6V | 00:00:00 | 00:00:00 | 00:00:00 | |
| DF8AY | 2026-08-31 01:06:25 | 53.26759 | 10.95662 | 86° | 4km/h | 24121m | -21.8m/s | -51.5°C | 0% | 31hPa | 2.6V | 02:54:09 | 02:21:34 | 00:00:00 | |
| HSKMA3-T | 2026-08-31 01:06:23 | 53.26758 | 10.95657 | 59° | 7km/h | 24162m | -19.5m/s | -51.5°C | 0% | 30.8hPa | 2.5V | 02:54:09 | 02:21:32 | 00:00:00 | |
| DM0DOS-11 | 2026-08-31 01:06:23 | 53.26753 | 10.95647 | 27° | 7km/h | 24237m | -18.3m/s | -51.6°C | 3.1% | 30.4hPa | 2.6V | 02:53:47 | 02:21:28 | 00:00:00 | |
| AA1-15 | 2026-08-31 01:06:17 | 53.26750 | 10.95646 | 34° | 5km/h | 24274m | -19.7m/s | -51.7°C | 0% | 30.3hPa | 2.5V | 02:54:09 | 02:21:26 | 00:00:00 | |
| DL1XH-west | 2026-08-31 01:06:16 | 53.26750 | 10.95644 | 86° | 2km/h | 24293m | -20.5m/s | -51.8°C | 0% | 30.2hPa | 2.5V | 02:54:09 | 02:21:25 | 00:00:00 | |
| DF8AY | 2026-08-31 01:06:15 | 53.26750 | 10.95644 | 153° | 4km/h | 24313m | -19.4m/s | -51.9°C | 0% | 30.1hPa | 2.5V | 02:54:09 | 02:21:24 | 00:00:00 | |
| HSKMA3-T | 2026-08-31 01:06:12 | 53.26754 | 10.95642 | 161° | 11km/h | 24375m | -20.9m/s | -52.2°C | 0% | 29.8hPa | 2.6V | 02:54:09 | 02:21:21 | 00:00:00 | |
| DO2LYB-13 | 2026-08-31 01:06:11 | 53.26754 | 10.95642 | 162° | 11km/h | 24375m | -20.9m/s | -52.2°C | 0.6% | 29.8hPa | 2.5V | 00:00:00 | 00:00:00 | 00:00:00 | |
| DB0DAN | 2026-08-31 01:06:10 | 53.26758 | 10.95638 | 163° | 4km/h | 24416m | -22.7m/s | -52.2°C | 0.5% | 29.64hPa | 2.5V | 00:00:00 | 00:00:00 | 00:00:00 | |
| DL1XH1-15 | 2026-08-31 01:06:10 | 53.26758 | 10.95638 | 185° | 2km/h | 24439m | -22.2m/s | -52.2°C | 3.2% | 29.6hPa | 2.5V | 02:53:57 | 02:21:18 | 00:00:00 | |
| AA1-15 | 2026-08-31 01:06:07 | 53.26759 | 10.95639 | 233° | 4km/h | 24480m | -20m/s | -52.2°C | 0% | 29.4hPa | 2.6V | 02:54:09 | 02:21:16 | 00:00:00 | |
| DL1XH-west | 2026-08-31 01:06:06 | 53.26760 | 10.95640 | 228° | 4km/h | 24501m | -20.5m/s | -52.3°C | 0% | 29.3hPa | 2.6V | 02:54:09 | 02:21:15 | 00:00:00 | |
| BIOWL1-15 | 2026-08-31 01:06:06 | 53.26762 | 10.95642 | 148° | 2km/h | 24579m | -17.2m/s | -52.4°C | 0% | 28.9hPa | 2.6V | 02:54:09 | 02:21:11 | 00:00:00 | |
| DF8AY | 2026-08-31 01:06:04 | 53.26762 | 10.95642 | 43° | 0km/h | 24615m | -19.5m/s | -52.3°C | 0% | 28.7hPa | 2.6V | 02:54:09 | 02:21:09 | 00:00:00 | |
| DO2SHX-10 | 2026-08-31 01:06:04 | 53.26761 | 10.95642 | 197° | 4km/h | 24542m | -20.4m/s | -52.4°C | 3.3% | 29.0hPa | 2.5V | 00:00:00 | 02:21:13 | 00:00:00 | |
| DM0DOS-11 | 2026-08-31 01:06:03 | 53.26762 | 10.95642 | 193° | 2km/h | 24636m | -21.1m/s | -52.3°C | 3.3% | 28.6hPa | 2.5V | 02:54:07 | 02:21:08 | 00:00:00 | |
| HSKMA3-T | 2026-08-31 01:06:01 | 53.26762 | 10.95642 | 32° | 2km/h | 24597m | -17.9m/s | -52.3°C | 0% | 28.8hPa | 2.6V | 02:54:09 | 02:21:10 | 00:00:00 | |
| DL1XH-west | 2026-08-31 01:05:56 | 53.26765 | 10.95647 | 225° | 9km/h | 24702m | -20.9m/s | -52.1°C | 0% | 28.4hPa | 2.6V | 02:55:00 | 02:21:05 | 00:00:00 | |
| DB0DAN | 2026-08-31 01:05:55 | 53.26767 | 10.95650 | 226° | 9km/h | 24722m | -19.6m/s | -52.1°C | 0.5% | 28.25hPa | 2.6V | 00:00:00 | 00:00:00 | 00:00:00 | |
| BIOWL1-15 | 2026-08-31 01:05:54 | 53.26769 | 10.95653 | 207° | 11km/h | 24742m | -21.5m/s | -52°C | 0% | 28.2hPa | 2.6V | 02:55:00 | 02:21:03 | 00:00:00 | |
| HSKMA3-T | 2026-08-31 01:05:51 | 53.26774 | 10.95659 | 231° | 9km/h | 24806m | -21.4m/s | -52°C | 0% | 27.9hPa | 2.5V | 02:55:51 | 02:21:00 | 00:00:00 | |
| DL1XH-15 | 2026-08-31 01:05:51 | 53.26777 | 10.95674 | 261° | 13km/h | 24890m | -20.6m/s | -52°C | 3.2% | 27.6hPa | 2.5V | 02:54:19 | 02:20:56 | 00:00:00 | |
| SONDE2-11 | 2026-08-31 01:05:51 | 53.26775 | 10.95662 | 237° | 7km/h | 24827m | -21.8m/s | -52.1°C | 0.5% | 27.8hPa | 2.6V | 00:00:00 | 00:00:00 | 00:00:00 | |
| DL1XH1-15 | 2026-08-31 01:05:50 | 53.26776 | 10.95665 | 251° | 11km/h | 24849m | -20.4m/s | -52.1°C | 3.2% | 27.7hPa | 2.6V | 02:54:17 | 02:20:58 | 00:00:00 | |
| DF8AY | 2026-08-31 01:05:49 | 53.26776 | 10.95665 | 252° | 11km/h | 24849m | -20.4m/s | -52.1°C | 0% | 27.7hPa | 2.6V | 02:55:00 | 02:20:58 | 00:00:00 | |
| SP3WXH-11 | 2026-08-31 01:05:48 | 53.26777 | 10.95669 | 256° | 11km/h | 24869m | -20.9m/s | -52.0°C | 0.5% | 27.7hPa | 2.5V | 00:00:00 | 00:00:00 | 00:00:00 | |
| DL1NUX | 2026-08-31 01:05:46 | 53.26770 | 10.95694 | 323° | 11km/h | 25022m | -19.2m/s | -52.1°C | 3.1% | 27hPa | 2.5V | 02:54:25 | 02:20:50 | 00:00:00 | |
| AA1-15 | 2026-08-31 01:05:45 | 53.26776 | 10.95683 | 298° | 9km/h | 24934m | -23m/s | -51.9°C | 0% | 27.4hPa | 2.5V | 02:55:00 | 02:20:54 | 00:00:00 | |
| BIOWL1-15 | 2026-08-31 01:05:44 | 53.26770 | 10.95694 | 323° | 11km/h | 25022m | -19.2m/s | -52.1°C | 0% | 27hPa | 2.5V | 02:55:00 | 02:20:50 | 00:00:00 | |
| DO2SHX-10 | 2026-08-31 01:05:43 | 53.26773 | 10.95689 | 308° | 9km/h | 24980m | -23.0m/s | -52.0°C | 3.2% | 27.1hPa | 2.6V | 02:54:00 | 02:20:52 | 00:00:00 | |
| DL1ZP-14 | 2026-08-31 01:05:42 | 53.26770 | 10.95694 | 323° | 9km/h | 25022m | -19.2m/s | -52.1°C | 0.5% | 27.0hPa | 2.5V | 00:00:00 | 00:00:00 | 00:00:00 | |
| DL1XH-15 | 2026-08-31 01:05:41 | 53.26762 | 10.95701 | 342° | 11km/h | 25108m | -21.7m/s | -52.3°C | 3.2% | 26.6hPa | 2.6V | 02:54:29 | 02:20:46 | 00:00:00 | |
| HSKMA3-T | 2026-08-31 01:05:40 | 53.26768 | 10.95697 | 320° | 7km/h | 25042m | -22.3m/s | -52.1°C | 0% | 26.9hPa | 2.5V | 02:55:51 | 02:20:49 | 00:00:00 | |
| DB0DAN | 2026-08-31 01:05:40 | 53.26768 | 10.95697 | 320° | 7km/h | 25042m | -22.3m/s | -52.1°C | 0.6% | 26.92hPa | 2.5V | 00:00:00 | 00:00:00 | 00:00:00 | |
| DF8AY | 2026-08-31 01:05:38 | 53.26764 | 10.95700 | 336° | 7km/h | 25087m | -22.8m/s | -52.2°C | 0% | 26.8hPa | 2.6V | 02:55:00 | 02:20:47 | 00:00:00 | |
| DL1XH-west | 2026-08-31 01:05:35 | 53.26757 | 10.95703 | 352° | 15km/h | 25151m | -20.9m/s | -52.3°C | 0% | 26.4hPa | 2.5V | 02:55:00 | 02:20:44 | 00:00:00 | |
| AA1-15 | 2026-08-31 01:05:34 | 53.26753 | 10.95704 | 344° | 16km/h | 25171m | -21m/s | -52.3°C | 0% | 26.4hPa | 2.5V | 02:55:00 | 02:20:43 | 00:00:00 | |
| DO2SHX-10 | 2026-08-31 01:05:34 | 53.26753 | 10.95704 | 345° | 16km/h | 25171m | -21.0m/s | -52.2°C | 3.3% | 26.3hPa | 2.5V | 02:54:00 | 02:20:43 | 00:00:00 | |
| DD8BA-10 | 2026-08-31 01:05:33 | 53.26749 | 10.95706 | 351° | 15km/h | 25191m | -20.1m/s | -52.2°C | 3.3% | 26.2hPa | 2.5V | 00:00:00 | 00:00:00 | 00:00:00 | |
| HTAHTA | 2026-08-31 01:05:32 | 53.26741 | 10.95707 | 5° | 11km/h | 25231m | -20.8m/s | -52.1°C | 0.5% | 26.2hPa | 2.5V | 00:00:00 | 00:00:00 | 00:00:00 | |
| DL1XH-15 | 2026-08-31 01:05:31 | 53.26734 | 10.95691 | 75° | 16km/h | 25314m | -20.2m/s | -52.3°C | 3.3% | 25.8hPa | 2.5V | 02:54:39 | 02:20:36 | 00:00:00 | |
| DO2SHX-10 | 2026-08-31 01:05:31 | 53.26741 | 10.95706 | 6° | 11km/h | 25231m | -20.8m/s | -52.1°C | 3.3% | 26.1hPa | 2.5V | 00:00:00 | 02:20:40 | 00:00:00 | |
| DL1XH1-15 | 2026-08-31 01:05:30 | 53.26736 | 10.95702 | 61° | 13km/h | 25273m | -21.7m/s | -52.1°C | 3.3% | 26hPa | 2.5V | 02:54:37 | 02:20:38 | 00:00:00 | |
| HSKMA3-T | 2026-08-31 01:05:29 | 53.26736 | 10.95702 | 61° | 13km/h | 25273m | -21.7m/s | -52.1°C | 0% | 26hPa | 2.5V | 02:55:51 | 02:20:38 | 00:00:00 | |
| DF8AY | 2026-08-31 01:05:28 | 53.26735 | 10.95697 | 65° | 13km/h | 25294m | -20.5m/s | -52.2°C | 0% | 25.9hPa | 2.5V | 02:55:00 | 02:20:37 | 00:00:00 | |
| BIOWL9-15 | 2026-08-31 01:05:28 | 53.26734 | 10.95691 | 75° | 16km/h | 25314m | -20.2m/s | -52.3°C | 0.5% | 25.8hPa | 2.6V | 00:00:00 | 00:00:00 | 00:00:00 | |
| AP2371 | 2026-08-31 01:05:26 | 53.26734 | 10.95691 | 76° | 16km/h | 25314m | -20.2m/s | -52.3°C | 0.5% | 25.8hPa | 2.6V | 00:00:00 | 00:00:00 | 00:00:00 | |
| DB0DAN | 2026-08-31 01:05:25 | 53.26732 | 10.95676 | 80° | 16km/h | 25354m | -20.4m/s | -52.3°C | 0.5% | 25.67hPa | 2.6V | 00:00:00 | 00:00:00 | 00:00:00 | |
| DL1XH-west | 2026-08-31 01:05:24 | 53.26732 | 10.95670 | 84° | 15km/h | 25375m | -22.8m/s | -52.3°C | 0% | 25.6hPa | 2.6V | 02:55:00 | 02:20:33 | 00:00:00 | |
| AA1-15 | 2026-08-31 01:05:23 | 53.26732 | 10.95664 | 87° | 13km/h | 25398m | -23.6m/s | -52.3°C | 0% | 25.5hPa | 2.5V | 02:55:00 | 02:20:32 | 00:00:00 | |
| HSKMA3-T | 2026-08-31 01:05:19 | 53.26733 | 10.95646 | 109° | 11km/h | 25490m | -20.2m/s | -52.3°C | 0% | 25.1hPa | 2.6V | 02:55:51 | 02:20:28 | 00:00:00 | |
| DF8AY | 2026-08-31 01:05:17 | 53.26735 | 10.95635 | 122° | 13km/h | 25532m | -22.3m/s | -52°C | 0% | 25hPa | 2.5V | 02:55:00 | 02:20:26 | 00:00:00 | |
| DL1XH-west | 2026-08-31 01:05:14 | 53.26742 | 10.95630 | 185° | 11km/h | 25594m | -18.8m/s | -51.9°C | 0% | 24.7hPa | 2.6V | 02:55:00 | 02:20:23 | 00:00:00 | |
| AA1-15 | 2026-08-31 01:05:12 | 53.26748 | 10.95633 | 219° | 13km/h | 25635m | -19.7m/s | -51.7°C | 0% | 24.6hPa | 2.6V | 02:55:00 | 02:20:21 | 00:00:00 | |
| BIOWL1-15 | 2026-08-31 01:05:12 | 53.26746 | 10.95690 | 315° | 15km/h | 25853m | -25.1m/s | -50.5°C | 0% | 23.8hPa | 2.6V | 02:55:51 | 02:20:11 | 00:00:00 | |
| DB0DAN | 2026-08-31 01:05:10 | 53.26752 | 10.95642 | 247° | 15km/h | 25676m | -23.2m/s | -51.4°C | 0.5% | 24.42hPa | 2.5V | 00:00:00 | 00:00:00 | 00:00:00 | |
| DL1XH1-15 | 2026-08-31 01:05:10 | 53.26752 | 10.95648 | 262° | 16km/h | 25698m | -21.2m/s | -51.3°C | 3.3% | 24.3hPa | 2.5V | 02:54:57 | 02:20:18 | 00:00:00 | |
| DO2SHX-10 | 2026-08-31 01:05:10 | 53.26752 | 10.95642 | 248° | 15km/h | 25677m | -23.1m/s | -51.4°C | 3.3% | 24.4hPa | 2.5V | 00:00:00 | 02:20:19 | 00:00:00 | |
| DL1NUX | 2026-08-31 01:05:09 | 53.26751 | 10.95679 | 293° | 15km/h | 25808m | -20.6m/s | -50.8°C | 3.1% | 23.9hPa | 2.5V | 02:55:02 | 02:20:13 | 00:00:00 | |
| HSKMA3-T | 2026-08-31 01:05:08 | 53.26753 | 10.95654 | 265° | 15km/h | 25719m | -22m/s | -51.2°C | 0% | 24.3hPa | 2.6V | 02:55:51 | 02:20:17 | 00:00:00 | |
| DF8AY | 2026-08-31 01:05:06 | 53.26752 | 10.95667 | 280° | 15km/h | 25766m | -23.4m/s | -51°C | 0% | 24.1hPa | 2.6V | 02:55:00 | 02:20:15 | 00:00:00 | |
| DB0NH | 2026-08-31 01:05:06 | 53.26752 | 10.95667 | 280° | 11km/h | 25766m | -23.3m/s | -50.9°C | 3.2% | 24.0hPa | 2.5V | 00:00:00 | 02:20:15 | 00:00:00 | |
| 13BRC | 2026-08-31 01:05:04 | 53.26751 | 10.95679 | 295° | 15km/h | 25809m | -20.6m/s | -50.8°C | 0.5% | 23.9hPa | 2.5V | 00:00:00 | 00:00:00 | 00:00:00 | |
| DL1XH-west | 2026-08-31 01:05:04 | 53.26749 | 10.95685 | 303° | 16km/h | 25830m | -22.8m/s | -50.6°C | 0% | 23.9hPa | 2.5V | 02:55:51 | 02:20:12 | 00:00:00 | |
| DM0DOS-11 | 2026-08-31 01:05:03 | 53.26738 | 10.95701 | 330° | 13km/h | 25931m | -26.1m/s | -50.3°C | 2.9% | 23.5hPa | 2.5V | 02:55:07 | 02:20:08 | 00:00:00 | |
| DD8BA-10 | 2026-08-31 01:05:03 | 53.26749 | 10.95685 | 303° | 13km/h | 25830m | -22.7m/s | -50.6°C | 3.0% | 23.8hPa | 2.5V | 00:00:00 | 00:00:00 | 00:00:00 | |
| DL1XH-15 | 2026-08-31 01:05:01 | 53.26733 | 10.95703 | 348° | 11km/h | 25979m | -23m/s | -50.4°C | 3% | 23.3hPa | 2.5V | 02:55:09 | 02:20:06 | 00:00:00 | |
| AA1-15 | 2026-08-31 01:05:01 | 53.26744 | 10.95694 | 315° | 13km/h | 25878m | -25.1m/s | -50.4°C | 0% | 23.7hPa | 2.6V | 02:55:51 | 02:20:10 | 00:00:00 | |
| HTAHTA | 2026-08-31 01:05:01 | 53.26741 | 10.95698 | 322° | 13km/h | 25904m | -27.4m/s | -50.3°C | 0.5% | 23.6hPa | 2.6V | 00:00:00 | 00:00:00 | 00:00:00 | |
| EDDB2-12 | 2026-08-31 01:05:00 | 53.26738 | 10.95701 | 330° | 11km/h | 25931m | -26.1m/s | -50.3°C | 0.5% | 23.5hPa | 2.6V | 00:00:00 | 00:00:00 | 00:00:00 | |
| DL1NUX | 2026-08-31 01:04:59 | 53.26724 | 10.95702 | 16° | 13km/h | 26050m | -23.4m/s | -50.3°C | 3% | 23.1hPa | 2.6V | 02:55:12 | 02:20:03 | 00:00:00 | |
| DF8AY | 2026-08-31 01:04:56 | 53.26730 | 10.95704 | 7° | 11km/h | 26002m | -23.9m/s | -50.4°C | 0% | 23.2hPa | 2.6V | 02:55:51 | 02:20:05 | 00:00:00 | |
| BIOWL1-15 | 2026-08-31 01:04:55 | 53.26727 | 10.95703 | 8° | 13km/h | 26026m | -24m/s | -50.4°C | 0% | 23.1hPa | 2.6V | 02:55:51 | 02:20:04 | 00:00:00 | |
| DL1XH-west | 2026-08-31 01:04:53 | 53.26718 | 10.95697 | 27° | 15km/h | 26096m | -22.7m/s | -50.4°C | 0% | 22.9hPa | 2.5V | 02:55:51 | 02:20:01 | 00:00:00 | |
| HSKMA3-T | 2026-08-31 01:04:52 | 53.26714 | 10.95694 | 27° | 16km/h | 26119m | -23.3m/s | -50.3°C | 0% | 22.8hPa | 2.5V | 02:55:51 | 02:20:00 | 00:00:00 | |
| AA1-15 | 2026-08-31 01:04:50 | 53.26710 | 10.95691 | 23° | 18km/h | 26141m | -22.1m/s | -50.2°C | 0% | 22.7hPa | 2.6V | 02:55:51 | 02:19:59 | 00:00:00 | |
| DL1XH1-15 | 2026-08-31 01:04:50 | 53.26706 | 10.95687 | 24° | 18km/h | 26162m | -21m/s | -50.2°C | 3% | 22.7hPa | 2.6V | 02:55:17 | 02:19:58 | 00:00:00 | |
| EDDB2-11 | 2026-08-31 01:04:50 | 53.26710 | 10.95691 | 23° | 18km/h | 26142m | -22.1m/s | -50.2°C | 0.5% | 22.7hPa | 2.6V | 00:00:00 | 00:00:00 | 00:00:00 | |
| DL1NUX | 2026-08-31 01:04:49 | 53.26691 | 10.95671 | 65° | 7km/h | 26273m | -19.9m/s | -50.1°C | 3% | 22.2hPa | 2.6V | 02:55:22 | 02:19:53 | 00:00:00 | |
| DF8AY | 2026-08-31 01:04:46 | 53.26694 | 10.95677 | 39° | 13km/h | 26231m | -22.8m/s | -50.2°C | 0% | 22.4hPa | 2.5V | 02:55:51 | 02:19:55 | 00:00:00 | |
| SP3WXH-11 | 2026-08-31 01:04:46 | 53.26692 | 10.95674 | 40° | 9km/h | 26253m | -21.4m/s | -50.2°C | 0.5% | 22.3hPa | 2.6V | 00:00:00 | 00:00:00 | 00:00:00 | |
| SMARD9-15 | 2026-08-31 01:04:44 | 53.26691 | 10.95671 | 65° | 5km/h | 26273m | -19.9m/s | -50.1°C | 0.4% | 22.3hPa | 2.6V | 00:00:00 | 00:00:00 | 00:00:00 | |
| DL1XH-west | 2026-08-31 01:04:42 | 53.26690 | 10.95667 | 92° | 4km/h | 26315m | -22.3m/s | -50.1°C | 0% | 22.1hPa | 2.6V | 02:55:51 | 02:19:51 | 00:00:00 | |
| DM0DOS-11 | 2026-08-31 01:04:42 | 53.26690 | 10.95663 | 79° | 4km/h | 26379m | -21.7m/s | -50°C | 2.9% | 21.9hPa | 2.5V | 02:55:27 | 02:19:48 | 00:00:00 | |
| 13BRC | 2026-08-31 01:04:42 | 53.26690 | 10.95667 | 93° | 4km/h | 26316m | -22.3m/s | -50.1°C | 0.4% | 22.1hPa | 2.6V | 00:00:00 | 00:00:00 | 00:00:00 | |
| DL1XH-15 | 2026-08-31 01:04:41 | 53.26689 | 10.95659 | 58° | 7km/h | 26423m | -23.1m/s | -50.1°C | 2.9% | 21.8hPa | 2.6V | 02:55:29 | 02:19:46 | 00:00:00 | |
| DB0DAN | 2026-08-31 01:04:40 | 53.26690 | 10.95665 | 108° | 4km/h | 26357m | -22.9m/s | -50°C | 0.5% | 22.02hPa | 2.5V | 00:00:00 | 00:00:00 | 00:00:00 | |
| HSKMA3-T | 2026-08-31 01:04:40 | 53.26690 | 10.95665 | 108° | 4km/h | 26357m | -22.9m/s | -50°C | 0% | 22hPa | 2.5V | 02:55:51 | 02:19:49 | 00:00:00 | |
| AA1-15 | 2026-08-31 01:04:39 | 53.26690 | 10.95663 | 80° | 4km/h | 26380m | -21.7m/s | -50°C | 0% | 21.9hPa | 2.5V | 02:55:51 | 02:19:48 | 00:00:00 | |
| DF8AY | 2026-08-31 01:04:35 | 53.26687 | 10.95655 | 26° | 5km/h | 26469m | -23m/s | -50.1°C | 0% | 21.6hPa | 2.5V | 02:55:51 | 02:19:44 | 00:00:00 | |
| DL1XH-west | 2026-08-31 01:04:32 | 53.26685 | 10.95654 | 269° | 2km/h | 26559m | -23.8m/s | -50.1°C | 0% | 21.3hPa | 2.6V | 02:55:51 | 02:19:40 | 00:00:00 | |
| DL1XH-15 | 2026-08-31 01:04:31 | 53.26688 | 10.95655 | 160° | 7km/h | 26649m | -24.8m/s | -50°C | 3% | 21hPa | 2.5V | 02:55:39 | 02:19:36 | 00:00:00 | |
| DO2SHX-10 | 2026-08-31 01:04:31 | 53.26685 | 10.95654 | 269° | 2km/h | 26559m | -23.7m/s | -50.0°C | 3.0% | 21.3hPa | 2.6V | 02:55:00 | 02:19:40 | 00:00:00 | |
| DL1XH1-15 | 2026-08-31 01:04:30 | 53.26686 | 10.95655 | 216° | 0km/h | 26604m | -21.1m/s | -50.1°C | 3% | 21.2hPa | 2.5V | 02:55:37 | 02:19:38 | 00:00:00 | |
| AA1-15 | 2026-08-31 01:04:29 | 53.26686 | 10.95655 | 217° | 0km/h | 26604m | -21.1m/s | -50.2°C | 0% | 21.2hPa | 2.5V | 02:55:51 | 02:19:38 | 00:00:00 | |
| BIOWL1-15 | 2026-08-31 01:04:28 | 53.26711 | 10.95645 | 198° | 11km/h | 26832m | -21.1m/s | -49.6°C | 0% | 20.4hPa | 2.6V | 02:55:51 | 02:19:28 | 00:00:00 | |
| DF8AY | 2026-08-31 01:04:24 | 53.26695 | 10.95649 | 151° | 15km/h | 26721m | -23.9m/s | -49.8°C | 0% | 20.8hPa | 2.6V | 02:55:51 | 02:19:33 | 00:00:00 | |
| DM0DOS-11 | 2026-08-31 01:04:24 | 53.26711 | 10.95645 | 197° | 11km/h | 26832m | -21.1m/s | -49.6°C | 2.9% | 20.4hPa | 2.6V | 02:55:47 | 02:19:28 | 00:00:00 | |
| DD8BA-10 | 2026-08-31 01:04:23 | 53.26698 | 10.95646 | 164° | 13km/h | 26745m | -22.8m/s | -49.8°C | 2.9% | 20.7hPa | 2.5V | 00:00:00 | 00:00:00 | 00:00:00 | |
| DC4HF-4 | 2026-08-31 01:04:22 | 53.26702 | 10.95645 | 168° | 15km/h | 26767m | -22.7m/s | -49.8°C | 0.4% | 20.7hPa | 2.5V | 00:00:00 | 00:00:00 | 00:00:00 | |
| DL1XH-15 | 2026-08-31 01:04:21 | 53.26715 | 10.95650 | 243° | 11km/h | 26876m | -23.8m/s | -49.5°C | 2.8% | 20.4hPa | 2.5V | 02:55:49 | 02:19:26 | 00:00:00 | |
| DL1XH-west | 2026-08-31 01:04:20 | 53.26708 | 10.95644 | 191° | 13km/h | 26811m | -21.3m/s | -49.7°C | 0% | 20.5hPa | 2.6V | 02:55:51 | 02:19:29 | 00:00:00 | |
| DL1NUX | 2026-08-31 01:04:19 | 53.26718 | 10.95663 | 256° | 11km/h | 26946m | -23.3m/s | -49.6°C | 2.9% | 20.1hPa | 2.6V | 02:55:52 | 02:19:23 | 00:00:00 | |
| HSKMA3-T | 2026-08-31 01:04:18 | 53.26713 | 10.95647 | 221° | 9km/h | 26853m | -21.5m/s | -49.6°C | 0% | 20.4hPa | 2.6V | 02:55:51 | 02:19:27 | 00:00:00 | |
| DF8AY | 2026-08-31 01:04:14 | 53.26718 | 10.95663 | 256° | 11km/h | 26946m | -23.3m/s | -49.6°C | 0% | 20.1hPa | 2.6V | 02:56:42 | 02:19:23 | 00:00:00 | |
| BIOWL1-15 | 2026-08-31 01:04:12 | 53.26720 | 10.95673 | 259° | 15km/h | 26992m | -23.5m/s | -49.6°C | 0% | 20hPa | 2.6V | 02:56:42 | 02:19:21 | 00:00:00 | |
| DL1XH-15 | 2026-08-31 01:04:11 | 53.26719 | 10.95702 | 288° | 9km/h | 27106m | -22m/s | -49.6°C | 2.8% | 19.6hPa | 2.6V | 02:55:59 | 02:19:16 | 00:00:00 | |
| DB0DAN | 2026-08-31 01:04:10 | 53.26720 | 10.95686 | 264° | 15km/h | 27039m | -23.4m/s | -49.5°C | 0.4% | 19.82hPa | 2.5V | 00:00:00 | 00:00:00 | 00:00:00 | |
| DL1XH-west | 2026-08-31 01:04:10 | 53.26720 | 10.95686 | 264° | 15km/h | 27039m | -23.4m/s | -49.5°C | 0% | 19.8hPa | 2.5V | 02:56:42 | 02:19:19 | 00:00:00 | |
| DO2SHX-10 | 2026-08-31 01:04:10 | 53.26720 | 10.95686 | 265° | 15km/h | 27039m | -23.3m/s | -49.5°C | 2.8% | 19.8hPa | 2.5V | 00:00:00 | 02:19:19 | 00:00:00 | |
| DL1NUX | 2026-08-31 01:04:09 | 53.26714 | 10.95709 | 347° | 11km/h | 27170m | -23m/s | -49.7°C | 2.9% | 19.4hPa | 2.5V | 02:56:02 | 02:19:13 | 00:00:00 | |
| AA1-15 | 2026-08-31 01:04:08 | 53.26720 | 10.95698 | 283° | 11km/h | 27084m | -21.3m/s | -49.5°C | 0% | 19.7hPa | 2.6V | 02:56:42 | 02:19:17 | 00:00:00 | |
| HSKMA3-T | 2026-08-31 01:04:07 | 53.26719 | 10.95702 | 289° | 9km/h | 27106m | -22m/s | -49.6°C | 0% | 19.6hPa | 2.6V | 02:56:42 | 02:19:16 | 00:00:00 | |
| DF8AY | 2026-08-31 01:04:04 | 53.26714 | 10.95709 | 348° | 11km/h | 27170m | -23m/s | -49.7°C | 0% | 19.4hPa | 2.5V | 02:56:42 | 02:19:13 | 00:00:00 | |
| DO2SHX-10 | 2026-08-31 01:04:04 | 53.26714 | 10.95709 | 348° | 11km/h | 27170m | -23.0m/s | -49.7°C | 2.9% | 19.4hPa | 2.5V | 02:56:00 | 02:19:13 | 00:00:00 | |
| DM0DOS-11 | 2026-08-31 01:04:03 | 53.26698 | 10.95714 | 337° | 16km/h | 27286m | -23.6m/s | -49.9°C | 2.9% | 19.1hPa | 2.5V | 02:56:07 | 02:19:08 | 00:00:00 | |
| DD8BA-10 | 2026-08-31 01:04:03 | 53.26711 | 10.95710 | 358° | 15km/h | 27192m | -22.9m/s | -49.7°C | 2.9% | 19.3hPa | 2.5V | 00:00:00 | 00:00:00 | 00:00:00 | |
| BUE01 | 2026-08-31 01:04:02 | 53.26709 | 10.95710 | 355° | 9km/h | 27215m | -23.5m/s | -49.9°C | 0.4% | 19.3hPa | 2.5V | 00:00:00 | 00:00:00 | 00:00:00 | |
| DL1XH-15 | 2026-08-31 01:04:01 | 53.26691 | 10.95720 | 324° | 16km/h | 27334m | -24m/s | -49.9°C | 3% | 19hPa | 2.5V | 02:56:09 | 02:19:06 | 00:00:00 | |
| DL1XH-west | 2026-08-31 01:04:00 | 53.26702 | 10.95712 | 345° | 15km/h | 27262m | -24.4m/s | -49.9°C | 0% | 19.2hPa | 2.6V | 02:56:42 | 02:19:09 | 00:00:00 | |
| HSKMA3-T | 2026-08-31 01:03:57 | 53.26691 | 10.95720 | 324° | 16km/h | 27334m | -24m/s | -49.9°C | 0% | 19hPa | 2.5V | 02:56:42 | 02:19:06 | 00:00:00 | |
| DF8AY | 2026-08-31 01:03:53 | 53.26674 | 10.95731 | 344° | 20km/h | 27429m | -23.9m/s | -49.9°C | 0% | 18.7hPa | 2.5V | 02:56:42 | 02:19:02 | 00:00:00 | |
| BIOWL1-15 | 2026-08-31 01:03:52 | 53.26660 | 10.95737 | 345° | 9km/h | 27522m | -25m/s | -49.8°C | 0% | 18.4hPa | 2.6V | 02:56:42 | 02:18:58 | 00:00:00 | |
| DL1XH-15 | 2026-08-31 01:03:51 | 53.26656 | 10.95738 | 335° | 4km/h | 27572m | -24.9m/s | -49.4°C | 2.9% | 18.3hPa | 2.5V | 02:56:19 | 02:18:56 | 00:00:00 | |
| GOEST3-10 | 2026-08-31 01:03:51 | 53.26666 | 10.95734 | 350° | 9km/h | 27475m | -22.7m/s | -49.8°C | 3.0% | 18.5hPa | 2.6V | 00:00:00 | 02:19:00 | 00:00:00 | |
| DL1XH1-15 | 2026-08-31 01:03:50 | 53.26660 | 10.95737 | 345° | 9km/h | 27522m | -25m/s | -49.8°C | 3% | 18.4hPa | 2.6V | 02:56:17 | 02:18:58 | 00:00:00 | |
| DL1XH-west | 2026-08-31 01:03:50 | 53.26662 | 10.95736 | 343° | 13km/h | 27498m | -24.4m/s | -49.8°C | 0% | 18.5hPa | 2.6V | 02:56:42 | 02:18:59 | 00:00:00 | |
| DL1NUX | 2026-08-31 01:03:49 | 53.26659 | 10.95736 | 162° | 7km/h | 27648m | -26.2m/s | -49.3°C | 2.8% | 18.1hPa | 2.6V | 02:56:22 | 02:18:53 | 00:00:00 | |
| AA1-15 | 2026-08-31 01:03:46 | 53.26656 | 10.95737 | 150° | 5km/h | 27597m | -24.8m/s | -49.3°C | 0% | 18.2hPa | 2.5V | 02:56:42 | 02:18:55 | 00:00:00 | |
| DC4HF-4 | 2026-08-31 01:03:46 | 53.26657 | 10.95736 | 181° | 4km/h | 27623m | -26.0m/s | -49.3°C | 0.4% | 18.2hPa | 2.5V | 00:00:00 | 00:00:00 | 00:00:00 | |
| SONCRA | 2026-08-31 01:03:44 | 53.26659 | 10.95736 | 162° | 7km/h | 27648m | -26.2m/s | -49.3°C | 0.4% | 18.1hPa | 2.5V | 00:00:00 | 00:00:00 | 00:00:00 | |
| DF8AY | 2026-08-31 01:03:42 | 53.26661 | 10.95734 | 219° | 2km/h | 27699m | -26m/s | -49.3°C | 0% | 18hPa | 2.5V | 02:56:42 | 02:18:51 | 00:00:00 | |
| DM0DOS-11 | 2026-08-31 01:03:42 | 53.26658 | 10.95737 | 333° | 11km/h | 27775m | -25.6m/s | -49.5°C | 2.9% | 17.7hPa | 2.5V | 02:56:27 | 02:18:48 | 00:00:00 | |
| DB0DAN | 2026-08-31 01:03:40 | 53.26660 | 10.95736 | 331° | 7km/h | 27749m | -25.4m/s | -49.4°C | 0.4% | 17.82hPa | 2.6V | 00:00:00 | 00:00:00 | 00:00:00 | |
| DL1XH-west | 2026-08-31 01:03:39 | 53.26658 | 10.95737 | 334° | 11km/h | 27775m | -25.6m/s | -49.5°C | 0% | 17.7hPa | 2.5V | 02:56:42 | 02:18:48 | 00:00:00 | |
| BIOWL1-15 | 2026-08-31 01:03:38 | 53.26655 | 10.95740 | 327° | 15km/h | 27800m | -25.2m/s | -49.5°C | 0% | 17.6hPa | 2.5V | 02:56:42 | 02:18:47 | 00:00:00 | |
| HSKMA3-T | 2026-08-31 01:03:36 | 53.26648 | 10.95748 | 311° | 16km/h | 27849m | -25.8m/s | -49.4°C | 0% | 17.6hPa | 2.6V | 02:56:42 | 02:18:45 | 00:00:00 | |
| AA1-15 | 2026-08-31 01:03:35 | 53.26646 | 10.95753 | 306° | 13km/h | 27873m | -25m/s | -49.4°C | 0% | 17.5hPa | 2.5V | 02:56:42 | 02:18:44 | 00:00:00 | |
| DF8AY | 2026-08-31 01:03:32 | 53.26643 | 10.95761 | 276° | 7km/h | 27949m | -25.7m/s | -49.4°C | 0% | 17.3hPa | 2.6V | 02:56:42 | 02:18:41 | 00:00:00 | |
| DO2SHX-10 | 2026-08-31 01:03:31 | 53.26642 | 10.95763 | 319° | 11km/h | 27975m | -25.0m/s | -49.1°C | 2.9% | 17.2hPa | 2.5V | 00:00:00 | 02:18:40 | 00:00:00 | |
| DL1NUX | 2026-08-31 01:03:29 | 53.26610 | 10.95774 | 357° | 29km/h | 28153m | -25.9m/s | -49°C | 2.9% | 16.7hPa | 2.5V | 02:56:42 | 02:18:33 | 00:00:00 | |
| DL1XH-west | 2026-08-31 01:03:29 | 53.26637 | 10.95769 | 334° | 15km/h | 28024m | -25.9m/s | -49°C | 0% | 17.1hPa | 2.5V | 02:56:42 | 02:18:38 | 00:00:00 | |
| DO2SHX-10 | 2026-08-31 01:03:28 | 53.26634 | 10.95770 | 347° | 22km/h | 28050m | -25.2m/s | -49.0°C | 2.9% | 17.0hPa | 2.5V | 02:56:00 | 02:18:37 | 00:00:00 | |
| SMARD9-10 | 2026-08-31 01:03:27 | 53.26634 | 10.95770 | 347° | 16km/h | 28050m | -25.2m/s | -49.0°C | 0.4% | 17.0hPa | 2.6V | 00:00:00 | 00:00:00 | 00:00:00 | |
| DB0DAN | 2026-08-31 01:03:25 | 53.26617 | 10.95774 | 357° | 26km/h | 28127m | -27.1m/s | -49°C | 0.4% | 16.86hPa | 2.6V | 00:00:00 | 00:00:00 | 00:00:00 | |
| HSKMA3-T | 2026-08-31 01:03:25 | 53.26617 | 10.95774 | 357° | 26km/h | 28127m | -27.1m/s | -49°C | 0% | 16.9hPa | 2.6V | 02:56:42 | 02:18:34 | 00:00:00 | |
| AA1-15 | 2026-08-31 01:03:24 | 53.26610 | 10.95774 | 357° | 29km/h | 28153m | -25.9m/s | -49°C | 0% | 16.7hPa | 2.5V | 02:56:42 | 02:18:33 | 00:00:00 | |
| DF8AY | 2026-08-31 01:03:21 | 53.26587 | 10.95769 | 13° | 29km/h | 28229m | -25.4m/s | -48.7°C | 0% | 16.6hPa | 2.6V | 02:57:33 | 02:18:30 | 00:00:00 | |
| GOEST3-10 | 2026-08-31 01:03:21 | 53.26587 | 10.95769 | 14° | 24km/h | 28229m | -25.4m/s | -48.7°C | 2.9% | 16.5hPa | 2.6V | 00:00:00 | 02:18:30 | 00:00:00 | |
| DL1XH1-15 | 2026-08-31 01:03:20 | 53.26576 | 10.95760 | 39° | 22km/h | 28282m | -25.8m/s | -48.5°C | 2.8% | 16.5hPa | 2.6V | 02:56:47 | 02:18:28 | 00:00:00 | |
| DL1NUX | 2026-08-31 01:03:19 | 53.26563 | 10.95719 | 76° | 22km/h | 28411m | -27.5m/s | -48.6°C | 2.9% | 16.1hPa | 2.6V | 02:56:52 | 02:18:23 | 00:00:00 | |
| DL1XH-west | 2026-08-31 01:03:18 | 53.26572 | 10.95752 | 51° | 22km/h | 28306m | -26.4m/s | -48.4°C | 0% | 16.4hPa | 2.5V | 02:57:33 | 02:18:27 | 00:00:00 | |
| HSKMA3-T | 2026-08-31 01:03:15 | 53.26564 | 10.95728 | 70° | 20km/h | 28384m | -27.8m/s | -48.5°C | 0% | 16.2hPa | 2.6V | 02:57:33 | 02:18:24 | 00:00:00 | |
| SP3BTT-10 | 2026-08-31 01:03:14 | 53.26562 | 10.95719 | 77° | 13km/h | 28411m | -27.5m/s | -48.5°C | 2.9% | 16.1hPa | 2.6V | 00:00:00 | 00:00:00 | 00:00:00 | |
| DM0DOS-11 | 2026-08-31 01:03:13 | 53.26556 | 10.95683 | 65° | 5km/h | 28551m | -28.6m/s | -48.5°C | 2.9% | 15.8hPa | 2.6V | 02:56:57 | 02:18:18 | 00:00:00 | |
| BIOWL1-15 | 2026-08-31 01:03:13 | 53.26561 | 10.95711 | 79° | 24km/h | 28439m | -29.3m/s | -48.6°C | 0% | 16.1hPa | 2.6V | 02:57:33 | 02:18:22 | 00:00:00 | |
| DF8AY | 2026-08-31 01:03:11 | 53.26558 | 10.95693 | 72° | 18km/h | 28496m | -27.6m/s | -48.7°C | 0% | 15.9hPa | 2.5V | 02:57:33 | 02:18:20 | 00:00:00 | |
| DB0DAN | 2026-08-31 01:03:10 | 53.26557 | 10.95686 | 68° | 13km/h | 28523m | -27.6m/s | -48.6°C | 0.4% | 15.84hPa | 2.5V | 00:00:00 | 00:00:00 | 00:00:00 | |
| DC4HF-4 | 2026-08-31 01:03:10 | 53.26555 | 10.95683 | 65° | 5km/h | 28551m | -28.6m/s | -48.5°C | 0.4% | 15.8hPa | 2.5V | 00:00:00 | 00:00:00 | 00:00:00 | |
| DL1NUX | 2026-08-31 01:03:09 | 53.26563 | 10.95687 | 211° | 13km/h | 28695m | -29.2m/s | -47.7°C | 2.8% | 15.4hPa | 2.5V | 02:57:02 | 02:18:13 | 00:00:00 | |
| DL1XH-west | 2026-08-31 01:03:07 | 53.26556 | 10.95681 | 187° | 5km/h | 28608m | -28.7m/s | -48.2°C | 0% | 15.7hPa | 2.6V | 02:57:33 | 02:18:16 | 00:00:00 | |
| HSKMA3-T | 2026-08-31 01:03:05 | 53.26560 | 10.95685 | 199° | 13km/h | 28667m | -28.4m/s | -47.8°C | 0% | 15.5hPa | 2.5V | 02:57:33 | 02:18:14 | 00:00:00 | |
| BIOWL1-15 | 2026-08-31 01:03:03 | 53.26562 | 10.95699 | 13° | 11km/h | 28839m | -28.6m/s | -47°C | 0% | 15.1hPa | 2.5V | 02:57:33 | 02:18:08 | 00:00:00 | |
| DF8AY | 2026-08-31 01:03:02 | 53.26566 | 10.95696 | 315° | 7km/h | 28782m | -29m/s | -47.4°C | 0% | 15.2hPa | 2.6V | 02:57:33 | 02:18:10 | 00:00:00 | |
| BUE01 | 2026-08-31 01:03:00 | 53.26562 | 10.95699 | 13° | 11km/h | 28839m | -28.6m/s | -47.0°C | 0.4% | 15.1hPa | 2.6V | 00:00:00 | 00:00:00 | 00:00:00 | |
| DL1NUX | 2026-08-31 01:02:59 | 53.26549 | 10.95679 | 51° | 18km/h | 28979m | -28.5m/s | -46.8°C | 2.7% | 14.8hPa | 2.6V | 02:57:12 | 02:18:03 | 00:00:00 | |
| DL1XH-west | 2026-08-31 01:02:56 | 53.26554 | 10.95690 | 46° | 15km/h | 28923m | -28.3m/s | -46.7°C | 0% | 14.9hPa | 2.5V | 02:57:33 | 02:18:05 | 00:00:00 | |
| HSKMA3-T | 2026-08-31 01:02:54 | 53.26549 | 10.95679 | 51° | 18km/h | 28979m | -28.5m/s | -46.8°C | 0% | 14.8hPa | 2.6V | 02:57:33 | 02:18:03 | 00:00:00 | |
| BIOWL1-15 | 2026-08-31 01:02:52 | 53.26544 | 10.95666 | 67° | 16km/h | 29036m | -29.1m/s | -46.5°C | 0% | 14.7hPa | 2.5V | 02:57:33 | 02:18:01 | 00:00:00 | |
| DF8AY | 2026-08-31 01:02:51 | 53.26543 | 10.95660 | 79° | 13km/h | 29065m | -29.5m/s | -46.4°C | 0% | 14.6hPa | 2.5V | 02:57:33 | 02:18:00 | 00:00:00 | |
| AA1-15 | 2026-08-31 01:02:51 | 53.26542 | 10.95654 | 77° | 9km/h | 29093m | -28.8m/s | -46.2°C | 0% | 14.5hPa | 2.6V | 02:57:33 | 02:17:59 | 00:00:00 | |
| DM0DOS-11 | 2026-08-31 01:02:50 | 53.26541 | 10.95651 | 20° | 7km/h | 29122m | -29.2m/s | -46°C | 2.4% | 14.5hPa | 2.6V | 02:57:17 | 02:17:58 | 00:00:00 | |
| DL1XH-west | 2026-08-31 01:02:45 | 53.26531 | 10.95644 | 39° | 11km/h | 29239m | -29.2m/s | -45.4°C | 0% | 14.2hPa | 2.5V | 02:57:33 | 02:17:54 | 00:00:00 | |
| SONDE2-11 | 2026-08-31 01:02:44 | 53.26528 | 10.95641 | 46° | 13km/h | 29268m | -28.9m/s | -45.1°C | 0.3% | 14.2hPa | 2.6V | 00:00:00 | 00:00:00 | 00:00:00 | |
| HSKMA3-T | 2026-08-31 01:02:43 | 53.26526 | 10.95636 | 50° | 18km/h | 29297m | -29.9m/s | -45°C | 0% | 14.1hPa | 2.6V | 02:57:33 | 02:17:52 | 00:00:00 | |
| BIOWL1-15 | 2026-08-31 01:02:42 | 53.26515 | 10.95612 | 55° | 26km/h | 29382m | -28.1m/s | -45°C | 0% | 13.9hPa | 2.5V | 02:57:33 | 02:17:49 | 00:00:00 | |
| DF8AY | 2026-08-31 01:02:41 | 53.26519 | 10.95621 | 53° | 26km/h | 29355m | -28.5m/s | -44.9°C | 0% | 14hPa | 2.5V | 02:57:33 | 02:17:50 | 00:00:00 | |
| AA1-15 | 2026-08-31 01:02:40 | 53.26511 | 10.95604 | 55° | 26km/h | 29410m | -28.7m/s | -45.2°C | 0% | 13.9hPa | 2.5V | 02:57:33 | 02:17:48 | 00:00:00 | |
| DB0DAN | 2026-08-31 01:02:40 | 53.26515 | 10.95612 | 55° | 26km/h | 29383m | -28.1m/s | -45°C | 0.3% | 13.94hPa | 2.5V | 00:00:00 | 00:00:00 | 00:00:00 | |
| DO2SHX-10 | 2026-08-31 01:02:40 | 53.26515 | 10.95612 | 55° | 26km/h | 29383m | -28.1m/s | -45.0°C | 2.2% | 13.9hPa | 2.5V | 00:00:00 | 02:17:49 | 00:00:00 | |
| DL1NUX | 2026-08-31 01:02:39 | 53.26498 | 10.95555 | 77° | 24km/h | 29555m | -29.5m/s | -45.9°C | 2.5% | 13.6hPa | 2.5V | 02:57:32 | 02:17:43 | 00:00:00 | |
| DL1XH-west | 2026-08-31 01:02:34 | 53.26498 | 10.95555 | 77° | 24km/h | 29555m | -29.5m/s | -45.9°C | 0% | 13.6hPa | 2.5V | 02:57:33 | 02:17:43 | 00:00:00 | |
| HSKMA3-T | 2026-08-31 01:02:32 | 53.26496 | 10.95533 | 82° | 26km/h | 29613m | -30m/s | -45.9°C | 0% | 13.4hPa | 2.6V | 02:58:24 | 02:17:41 | 00:00:00 | |
| DF8AY | 2026-08-31 01:02:31 | 53.26495 | 10.95522 | 85° | 26km/h | 29643m | -30.8m/s | -45.9°C | 0% | 13.4hPa | 2.6V | 02:58:24 | 02:17:40 | 00:00:00 | |
| BIOWL1-15 | 2026-08-31 01:02:30 | 53.26495 | 10.95512 | 90° | 22km/h | 29674m | -30.7m/s | -45.9°C | 0% | 13.3hPa | 2.6V | 02:58:24 | 02:17:39 | 00:00:00 | |
| DM0DOS-11 | 2026-08-31 01:02:30 | 53.26495 | 10.95502 | 106° | 22km/h | 29704m | -29.5m/s | -45.9°C | 2.5% | 13.3hPa | 2.5V | 02:57:37 | 02:17:38 | 00:00:00 | |
| AA1-15 | 2026-08-31 01:02:29 | 53.26497 | 10.95494 | 118° | 18km/h | 29732m | -28.4m/s | -45.8°C | 0% | 13.2hPa | 2.5V | 02:58:24 | 02:17:37 | 00:00:00 | |
| BUE01 | 2026-08-31 01:02:29 | 53.26497 | 10.95494 | 118° | 18km/h | 29732m | -28.4m/s | -45.8°C | 0.3% | 13.2hPa | 2.6V | 00:00:00 | 00:00:00 | 00:00:00 | |
| DB0UT-7 | 2026-08-31 01:02:28 | 53.26497 | 10.95494 | 119° | 9km/h | 29732m | -28.4m/s | -45.8°C | 2.5% | 13.1hPa | 2.6V | 00:00:00 | 02:17:37 | 00:00:00 | |
| DO2SHX-10 | 2026-08-31 01:02:27 | 53.26499 | 10.95487 | 127° | 16km/h | 29762m | -30.8m/s | -45.7°C | 2.5% | 13.1hPa | 2.6V | 00:00:00 | 02:17:36 | 00:00:00 | |
| DB0DAN | 2026-08-31 01:02:25 | 53.26505 | 10.95477 | 143° | 13km/h | 29822m | -30.1m/s | -45.7°C | 0.3% | 13.02hPa | 2.6V | 00:00:00 | 00:00:00 | 00:00:00 | |
| DL1XH-west | 2026-08-31 01:02:23 | 53.26509 | 10.95471 | 165° | 7km/h | 29881m | -31.2m/s | -45.5°C | 0% | 12.9hPa | 2.5V | 02:58:24 | 02:17:32 | 00:00:00 | |
| HSKMA3-T | 2026-08-31 01:02:21 | 53.26511 | 10.95468 | 133° | 2km/h | 29941m | -30.4m/s | -45.2°C | 0% | 12.8hPa | 2.6V | 02:58:24 | 02:17:30 | 00:00:00 | |
| DO2SHX-10 | 2026-08-31 01:02:21 | 53.26511 | 10.95468 | 134° | 5km/h | 29942m | -30.4m/s | -45.2°C | 2.4% | 12.8hPa | 2.5V | 00:00:00 | 02:17:30 | 00:00:00 | |
| DL1XH1-15 | 2026-08-31 01:02:20 | 53.26510 | 10.95464 | 39° | 7km/h | 30000m | -30.4m/s | -44.8°C | 2.3% | 12.7hPa | 2.5V | 02:57:47 | 02:17:28 | 00:00:00 | |
| BIOWL1-15 | 2026-08-31 01:02:19 | 53.26510 | 10.95464 | 40° | 7km/h | 30000m | -30.4m/s | -44.8°C | 0% | 12.7hPa | 2.5V | 02:58:24 | 02:17:28 | 00:00:00 | |
| AA1-15 | 2026-08-31 01:02:17 | 53.26507 | 10.95460 | 15° | 7km/h | 30062m | -31.5m/s | -44.4°C | 0% | 12.6hPa | 2.6V | 02:58:24 | 02:17:26 | 00:00:00 | |
| DL1NUX | 2026-08-31 01:02:16 | 53.26504 | 10.95464 | 261° | 7km/h | 30157m | -32.1m/s | -44.3°C | 2.1% | 12.4hPa | 2.5V | 02:57:52 | 02:17:23 | 00:00:00 | |
| DL1XH-west | 2026-08-31 01:02:13 | 53.26505 | 10.95471 | 257° | 11km/h | 30220m | -31.4m/s | -44.5°C | 0% | 12.3hPa | 2.6V | 02:58:24 | 02:17:21 | 00:00:00 | |
| DL1XH1-15 | 2026-08-31 01:02:13 | 53.26507 | 10.95482 | 211° | 4km/h | 30316m | -32.8m/s | -44.9°C | 2.3% | 12.1hPa | 2.5V | 02:57:57 | 02:17:18 | 00:00:00 | |
| DF8AY | 2026-08-31 01:02:11 | 53.26505 | 10.95475 | 251° | 11km/h | 30252m | -31.6m/s | -44.6°C | 0% | 12.2hPa | 2.6V | 02:58:24 | 02:17:20 | 00:00:00 | |
| HSKMA3-T | 2026-08-31 01:02:10 | 53.26506 | 10.95479 | 248° | 11km/h | 30284m | -32.3m/s | -44.8°C | 0% | 12.2hPa | 2.5V | 02:58:24 | 02:17:19 | 00:00:00 | |
| BIOWL1-15 | 2026-08-31 01:02:08 | 53.26507 | 10.95483 | 116° | 5km/h | 30348m | -33m/s | -45°C | 0% | 12.1hPa | 2.5V | 02:58:24 | 02:17:17 | 00:00:00 | |
| AA1-15 | 2026-08-31 01:02:07 | 53.26507 | 10.95480 | 72° | 9km/h | 30380m | -32.5m/s | -45°C | 0% | 12hPa | 2.6V | 02:58:24 | 02:17:16 | 00:00:00 | |
| DO3MHA-11 | 2026-08-31 01:02:06 | 53.26507 | 10.95476 | 79° | 7km/h | 30411m | -32.5m/s | -45.0°C | 2.3% | 11.9hPa | 2.5V | 00:00:00 | 02:17:15 | 00:00:00 | |
| DB0NH | 2026-08-31 01:02:05 | 53.26506 | 10.95470 | 76° | 9km/h | 30443m | -32.7m/s | -45.1°C | 2.4% | 11.8hPa | 2.5V | 00:00:00 | 02:17:14 | 00:00:00 | |
| DL1ZP-14 | 2026-08-31 01:02:04 | 53.26505 | 10.95463 | 93° | 15km/h | 30475m | -33.5m/s | -45.3°C | 0.3% | 11.8hPa | 2.5V | 00:00:00 | 00:00:00 | 00:00:00 | |
| DO2SHX-10 | 2026-08-31 01:02:03 | 53.26505 | 10.95457 | 89° | 7km/h | 30509m | -33.8m/s | -45.3°C | 2.4% | 11.7hPa | 2.6V | 00:00:00 | 02:17:12 | 00:00:00 | |
| DL1XH1-15 | 2026-08-31 01:02:02 | 53.26503 | 10.95452 | 252° | 7km/h | 30641m | -32.3m/s | -45.5°C | 2.5% | 11.5hPa | 2.6V | 02:58:07 | 02:17:08 | 00:00:00 | |
| DL1XH-west | 2026-08-31 01:02:02 | 53.26504 | 10.95451 | 31° | 4km/h | 30575m | -35.4m/s | -45.4°C | 0% | 11.7hPa | 2.6V | 02:58:24 | 02:17:10 | 00:00:00 | |
| DL1XH-15 | 2026-08-31 01:02:01 | 53.26505 | 10.95458 | 222° | 11km/h | 30708m | -34.5m/s | -45.6°C | 2.5% | 11.4hPa | 2.5V | 02:58:09 | 02:17:06 | 00:00:00 | |
| BIOWL1-15 | 2026-08-31 01:02:00 | 53.26505 | 10.95458 | 222° | 11km/h | 30708m | -34.5m/s | -45.6°C | 0% | 11.4hPa | 2.5V | 02:58:24 | 02:17:06 | 00:00:00 | |
| DF8AY | 2026-08-31 01:02:00 | 53.26503 | 10.95450 | 310° | 4km/h | 30609m | -32.7m/s | -45.5°C | 0% | 11.6hPa | 2.6V | 02:58:24 | 02:17:09 | 00:00:00 | |
| HSKMA3-T | 2026-08-31 01:01:59 | 53.26503 | 10.95452 | 253° | 7km/h | 30642m | -32.3m/s | -45.5°C | 0% | 11.5hPa | 2.6V | 02:58:24 | 02:17:08 | 00:00:00 | |
| AA1-15 | 2026-08-31 01:01:57 | 53.26506 | 10.95460 | 243° | 5km/h | 30743m | -34.4m/s | -45.4°C | 0% | 11.4hPa | 2.5V | 02:58:24 | 02:17:05 | 00:00:00 | |
| DB0DAN | 2026-08-31 01:01:55 | 53.26506 | 10.95462 | 231° | 4km/h | 30777m | -33.8m/s | -45.3°C | 0.3% | 11.31hPa | 2.6V | 00:00:00 | 00:00:00 | 00:00:00 | |
| DO2SHX-10 | 2026-08-31 01:01:54 | 53.26507 | 10.95463 | 214° | 5km/h | 30811m | -33.6m/s | -45.1°C | 2.5% | 11.2hPa | 2.6V | 00:00:00 | 02:17:03 | 00:00:00 | |
| DD8BA-10 | 2026-08-31 01:01:53 | 53.26507 | 10.95464 | 165° | 11km/h | 30845m | -32.1m/s | -45.0°C | 2.5% | 11.1hPa | 2.6V | 00:00:00 | 00:00:00 | 00:00:00 | |
| DL1XH1-15 | 2026-08-31 01:01:52 | 53.26513 | 10.95444 | 101° | 16km/h | 30977m | -34.2m/s | -44.3°C | 2.3% | 11hPa | 2.6V | 02:58:17 | 02:16:58 | 00:00:00 | |
| DL1XH-west | 2026-08-31 01:01:51 | 53.26510 | 10.95458 | 126° | 18km/h | 30910m | -33.4m/s | -44.7°C | 0% | 11.1hPa | 2.5V | 02:58:24 | 02:17:00 | 00:00:00 | |
| DF8AY | 2026-08-31 01:01:50 | 53.26512 | 10.95451 | 110° | 18km/h | 30943m | -33.9m/s | -44.4°C | 0% | 11hPa | 2.6V | 02:58:24 | 02:16:59 | 00:00:00 | |
| DL1XH-15 | 2026-08-31 01:01:49 | 53.26513 | 10.95433 | 88° | 11km/h | 31046m | -35.5m/s | -44.3°C | 2.3% | 10.9hPa | 2.5V | 02:58:19 | 02:16:56 | 00:00:00 | |
| DM0DOS-11 | 2026-08-31 01:01:48 | 53.26509 | 10.95424 | 7° | 7km/h | 31151m | -35.1m/s | -43.9°C | 2.3% | 10.7hPa | 2.5V | 02:58:22 | 02:16:53 | 00:00:00 | |
| BIOWL1-15 | 2026-08-31 01:01:48 | 53.26513 | 10.95438 | 93° | 13km/h | 31012m | -34.4m/s | -44.3°C | 0% | 10.9hPa | 2.5V | 02:58:24 | 02:16:57 | 00:00:00 | |
| AA1-15 | 2026-08-31 01:01:45 | 53.26511 | 10.95426 | 58° | 7km/h | 31116m | -35.1m/s | -44°C | 0% | 10.8hPa | 2.6V | 02:58:24 | 02:16:54 | 00:00:00 | |
| DO2SHX-10 | 2026-08-31 01:01:45 | 53.26511 | 10.95426 | 58° | 7km/h | 31117m | -35.1m/s | -43.9°C | 2.3% | 10.7hPa | 2.5V | 00:00:00 | 02:16:54 | 00:00:00 | |
| EDDB2-11 | 2026-08-31 01:01:44 | 53.26507 | 10.95423 | 338° | 5km/h | 31185m | -35.4m/s | -43.9°C | 0.3% | 10.7hPa | 2.5V | 00:00:00 | 00:00:00 | 00:00:00 | |
| DD8BA-10 | 2026-08-31 01:01:43 | 53.26507 | 10.95423 | 339° | 7km/h | 31186m | -35.4m/s | -43.9°C | 2.3% | 10.6hPa | 2.5V | 02:58:00 | 00:00:00 | 00:00:00 | |
| DL1XH-15 | 2026-08-31 01:01:42 | 53.26505 | 10.95418 | 156° | 9km/h | 31405m | -36.8m/s | -43.8°C | 2.3% | 10.3hPa | 2.5V | 02:58:29 | 02:16:46 | 00:00:00 | |
| BIOWL1-15 | 2026-08-31 01:01:41 | 53.26505 | 10.95418 | 156° | 9km/h | 31405m | -36.8m/s | -43.8°C | 0% | 10.3hPa | 2.5V | 02:59:15 | 02:16:46 | 00:00:00 | |
| DB0DAN | 2026-08-31 01:01:40 | 53.26504 | 10.95424 | 59° | 5km/h | 31293m | -36.8m/s | -43.7°C | 0.2% | 10.51hPa | 2.6V | 00:00:00 | 00:00:00 | 00:00:00 | |
| DF8AY | 2026-08-31 01:01:40 | 53.26504 | 10.95424 | 59° | 5km/h | 31293m | -36.8m/s | -43.7°C | 0% | 10.5hPa | 2.6V | 02:59:15 | 02:16:49 | 00:00:00 | |
| HSKMA3-T | 2026-08-31 01:01:38 | 53.26504 | 10.95419 | 135° | 7km/h | 31368m | -37.8m/s | -43.8°C | 0% | 10.4hPa | 2.5V | 02:59:15 | 02:16:47 | 00:00:00 | |
| DF8AY-15 | 2026-08-31 01:01:38 | 53.26504 | 10.95419 | 136° | 9km/h | 31368m | -37.7m/s | -43.7°C | 2.4% | 10.3hPa | 2.6V | 00:00:00 | 02:16:47 | 00:00:00 | |
| DO2SHX-10 | 2026-08-31 01:01:36 | 53.26508 | 10.95416 | 144° | 11km/h | 31442m | -36.7m/s | -43.6°C | 2.4% | 10.2hPa | 2.6V | 00:00:00 | 02:16:45 | 00:00:00 | |
| DL1NUX | 2026-08-31 01:01:35 | 53.26511 | 10.95409 | 106° | 11km/h | 31513m | -36.9m/s | -43.4°C | 2.3% | 10.2hPa | 2.6V | 02:58:32 | 02:16:43 | 00:00:00 | |
| AA1-15 | 2026-08-31 01:01:35 | 53.26511 | 10.95409 | 107° | 11km/h | 31513m | -36.9m/s | -43.4°C | 0% | 10.2hPa | 2.6V | 02:59:15 | 02:16:43 | 00:00:00 | |
| DF7PN | 2026-08-31 01:01:34 | 53.26511 | 10.95409 | 106° | 9km/h | 31514m | -36.9m/s | -43.4°C | 0.3% | 10.2hPa | 2.5V | 00:00:00 | 00:00:00 | 00:00:00 | |
| DO2SHX-10 | 2026-08-31 01:01:33 | 53.26511 | 10.95404 | 90° | 9km/h | 31550m | -35.9m/s | -43.2°C | 2.3% | 10.0hPa | 2.5V | 00:00:00 | 02:16:42 | 00:00:00 | |
| DL1XH-15 | 2026-08-31 01:01:32 | 53.26504 | 10.95385 | 57° | 5km/h | 31799m | -36.1m/s | -41.9°C | 2.1% | 9.7hPa | 2.5V | 02:58:40 | 02:16:35 | 00:00:00 | |
| DF8AY | 2026-08-31 01:01:30 | 53.26508 | 10.95394 | 30° | 7km/h | 31656m | -35.2m/s | -42.9°C | 0% | 9.9hPa | 2.6V | 02:59:15 | 02:16:39 | 00:00:00 | |
| BIOWL1-15 | 2026-08-31 01:01:27 | 53.26504 | 10.95388 | 56° | 5km/h | 31764m | -35.2m/s | -42.2°C | 0% | 9.8hPa | 2.5V | 02:59:15 | 02:16:36 | 00:00:00 | |
| BUE01 | 2026-08-31 01:01:27 | 53.26504 | 10.95385 | 57° | 4km/h | 31799m | -36.2m/s | -41.9°C | 0.2% | 9.7hPa | 2.6V | 00:00:00 | 00:00:00 | 00:00:00 | |
| DM0DOS-11 | 2026-08-31 01:01:26 | 53.26501 | 10.95380 | 73° | 11km/h | 31870m | -36.4m/s | -41.3°C | 2% | 9.6hPa | 2.6V | 02:58:42 | 02:16:33 | 00:00:00 | |
| AA1-15 | 2026-08-31 01:01:24 | 53.26500 | 10.95375 | 71° | 11km/h | 31906m | -37.2m/s | -41.1°C | 0% | 9.6hPa | 2.6V | 02:59:15 | 02:16:32 | 00:00:00 | |
| DD8BA-10 | 2026-08-31 01:01:23 | 53.26500 | 10.95375 | 71° | 15km/h | 31906m | -37.1m/s | -41.0°C | 1.9% | 9.6hPa | 2.5V | 00:00:00 | 00:00:00 | 00:00:00 | |
| EDDB2-12 | 2026-08-31 01:01:22 | 53.26499 | 10.95371 | 58° | 11km/h | 31942m | -36.0m/s | -40.8°C | 0.2% | 9.5hPa | 2.5V | 00:00:00 | 00:00:00 | 00:00:00 | |
| DL1XH-15 | 2026-08-31 01:01:21 | 53.26485 | 10.95342 | 49° | 15km/h | 32163m | -35.9m/s | -40.6°C | 1.8% | 9.2hPa | 2.5V | 02:58:50 | 02:16:25 | 00:00:00 | |
| DO2SHX-10 | 2026-08-31 01:01:21 | 53.26497 | 10.95366 | 65° | 15km/h | 31978m | -36.3m/s | -40.5°C | 1.8% | 9.4hPa | 2.5V | 02:58:00 | 02:16:30 | 00:00:00 | |
| DL1XH1-15 | 2026-08-31 01:01:20 | 53.26493 | 10.95356 | 55° | 13km/h | 32051m | -37m/s | -40.6°C | 1.8% | 9.4hPa | 2.6V | 02:58:47 | 02:16:28 | 00:00:00 | |
| DF8AY | 2026-08-31 01:01:20 | 53.26495 | 10.95360 | 56° | 15km/h | 32014m | -37.9m/s | -40.5°C | 0% | 9.4hPa | 2.5V | 02:59:15 | 02:16:29 | 00:00:00 | |
| BIOWL1-15 | 2026-08-31 01:01:18 | 53.26485 | 10.95342 | 50° | 15km/h | 32163m | -35.9m/s | -40.7°C | 0% | 9.2hPa | 2.5V | 02:59:15 | 02:16:25 | 00:00:00 | |
| HSKMA3-T | 2026-08-31 01:01:17 | 53.26488 | 10.95346 | 40° | 15km/h | 32127m | -37.6m/s | -40.6°C | 0% | 9.3hPa | 2.5V | 02:59:15 | 02:16:26 | 00:00:00 | |
| DM0DOS-11 | 2026-08-31 01:01:16 | 53.26480 | 10.95332 | 47° | 15km/h | 32230m | -34.6m/s | -40.8°C | 1.8% | 9.1hPa | 2.6V | 02:58:52 | 02:16:23 | 00:00:00 | |
| AA1-15 | 2026-08-31 01:01:14 | 53.26478 | 10.95326 | 63° | 18km/h | 32266m | -37.9m/s | -40.9°C | 0% | 9.1hPa | 2.5V | 02:59:15 | 02:16:22 | 00:00:00 | |
| EDDB2-11 | 2026-08-31 01:01:13 | 53.26475 | 10.95319 | 62° | 20km/h | 32303m | -38.5m/s | -40.9°C | 0.2% | 9.0hPa | 2.5V | 00:00:00 | 00:00:00 | 00:00:00 | |
| DO2SHX-10 | 2026-08-31 01:01:12 | 53.26475 | 10.95319 | 63° | 22km/h | 32303m | -38.4m/s | -40.9°C | 1.9% | 9.0hPa | 2.5V | 02:58:00 | 02:16:21 | 00:00:00 | |
| DL1XH-15 | 2026-08-31 01:01:11 | 53.26474 | 10.95265 | 101° | 16km/h | 32514m | -33.7m/s | -41.2°C | 2% | 8.8hPa | 2.5V | 02:59:00 | 02:16:15 | 00:00:00 | |
| GOEST3-10 | 2026-08-31 01:01:11 | 53.26473 | 10.95310 | 80° | 22km/h | 32341m | -37.4m/s | -40.9°C | 1.9% | 8.9hPa | 2.6V | 00:00:00 | 02:16:20 | 00:00:00 | |
| DL1XH1-15 | 2026-08-31 01:01:10 | 53.26472 | 10.95291 | 93° | 24km/h | 32414m | -35.7m/s | -41.1°C | 1.9% | 8.9hPa | 2.6V | 02:58:57 | 02:16:18 | 00:00:00 | |
| DF8AY | 2026-08-31 01:01:09 | 53.26472 | 10.95291 | 93° | 24km/h | 32414m | -35.7m/s | -41.1°C | 0% | 8.9hPa | 2.6V | 02:59:15 | 02:16:18 | 00:00:00 | |
| BIOWL1-15 | 2026-08-31 01:01:08 | 53.26475 | 10.95253 | 84° | 11km/h | 32583m | -37.1m/s | -41.1°C | 0% | 8.7hPa | 2.6V | 02:59:15 | 02:16:13 | 00:00:00 | |
| DL1NUX | 2026-08-31 01:01:08 | 53.26474 | 10.95248 | 69° | 13km/h | 32619m | -36.4m/s | -41.2°C | 2% | 8.6hPa | 2.6V | 02:59:03 | 02:16:12 | 00:00:00 | |
| HSKMA3-T | 2026-08-31 01:01:07 | 53.26474 | 10.95265 | 102° | 16km/h | 32514m | -33.7m/s | -41.2°C | 0% | 8.8hPa | 2.5V | 02:59:15 | 02:16:15 | 00:00:00 | |
| SMARD9-15 | 2026-08-31 01:01:07 | 53.26474 | 10.95265 | 101° | 15km/h | 32514m | -33.7m/s | -41.2°C | 0.2% | 8.8hPa | 2.6V | 00:00:00 | 00:00:00 | 00:00:00 | |
| DO2SHX-10 | 2026-08-31 01:01:06 | 53.26474 | 10.95265 | 102° | 13km/h | 32514m | -33.7m/s | -41.1°C | 2.0% | 8.7hPa | 2.6V | 00:00:00 | 02:16:15 | 00:00:00 | |
| DM0DOS-11 | 2026-08-31 01:01:05 | 53.26475 | 10.95253 | 84° | 11km/h | 32583m | -37.1m/s | -41.1°C | 2% | 8.7hPa | 2.6V | 02:59:02 | 02:16:13 | 00:00:00 | |
| AA1-15 | 2026-08-31 01:01:03 | 53.26473 | 10.95242 | 57° | 15km/h | 32655m | -36.3m/s | -41.2°C | 0% | 8.6hPa | 2.5V | 02:59:15 | 02:16:11 | 00:00:00 | |
| DD8BA-10 | 2026-08-31 01:01:03 | 53.26474 | 10.95247 | 70° | 24km/h | 32620m | -36.3m/s | -41.1°C | 2.0% | 8.5hPa | 2.5V | 00:00:00 | 00:00:00 | 00:00:00 | |
| DL1ZP-14 | 2026-08-31 01:01:02 | 53.26473 | 10.95242 | 57° | 15km/h | 32656m | -36.3m/s | -41.2°C | 0.2% | 8.6hPa | 2.5V | 00:00:00 | 00:00:00 | 00:00:00 | |
| DL1XH-15 | 2026-08-31 01:01:01 | 53.26455 | 10.95191 | 62° | 31km/h | 32874m | -36.1m/s | -41.4°C | 2.1% | 8.3hPa | 2.5V | 02:59:10 | 02:16:05 | 00:00:00 | |
| GOEST3-10 | 2026-08-31 01:01:01 | 53.26470 | 10.95236 | 58° | 24km/h | 32693m | -38.7m/s | -41.3°C | 2.1% | 8.5hPa | 2.5V | 02:59:00 | 02:16:10 | 00:00:00 | |
| DL1XH1-15 | 2026-08-31 01:01:00 | 53.26465 | 10.95221 | 63° | 26km/h | 32768m | -37.5m/s | -41.5°C | 2.1% | 8.4hPa | 2.6V | 02:59:07 | 02:16:08 | 00:00:00 | |
| DF8AY | 2026-08-31 01:00:59 | 53.26465 | 10.95221 | 64° | 26km/h | 32768m | -37.5m/s | -41.5°C | 0% | 8.4hPa | 2.6V | 02:59:15 | 02:16:08 | 00:00:00 | |
| DL1NUX | 2026-08-31 01:00:58 | 53.26444 | 10.95156 | 65° | 29km/h | 32975m | -32.3m/s | -41.2°C | 2.2% | 8.2hPa | 2.6V | 02:59:13 | 02:16:02 | 00:00:00 | |
| BIOWL1-15 | 2026-08-31 01:00:56 | 53.26454 | 10.95191 | 62° | 31km/h | 32874m | -36.1m/s | -41.4°C | 0% | 8.3hPa | 2.5V | 02:59:15 | 02:16:05 | 00:00:00 | |
| BUE01 | 2026-08-31 01:00:56 | 53.26451 | 10.95179 | 64° | 29km/h | 32909m | -34.2m/s | -41.4°C | 0.2% | 8.2hPa | 2.5V | 00:00:00 | 00:00:00 | 00:00:00 | |
| HTAHTA | 2026-08-31 01:00:52 | 53.26441 | 10.95144 | 69° | 27km/h | 33009m | -36.5m/s | -40.9°C | 0.2% | 8.2hPa | 2.5V | 00:00:00 | 00:00:00 | 00:00:00 | |
| DL1XH-15 | 2026-08-31 01:00:51 | 53.26432 | 10.95082 | 90° | 24km/h | 33231m | -37m/s | -39.2°C | 1.9% | 7.9hPa | 2.5V | 02:59:20 | 02:15:55 | 00:00:00 | |
| DL1XH-west | 2026-08-31 01:00:49 | 53.26434 | 10.95112 | 74° | 24km/h | 33120m | -36.6m/s | -40.1°C | 0% | 8hPa | 2.5V | 03:00:06 | 02:15:58 | 00:00:00 | |
| HSKMA3-T | 2026-08-31 01:00:46 | 53.26432 | 10.95082 | 91° | 24km/h | 33231m | -37m/s | -39.2°C | 0% | 7.9hPa | 2.5V | 03:00:06 | 02:15:55 | 00:00:00 | |
| BIOWL1-15 | 2026-08-31 01:00:45 | 53.26434 | 10.95021 | 96° | 33km/h | 33418m | -36.4m/s | -38.2°C | 0% | 7.7hPa | 2.5V | 03:00:06 | 02:15:50 | 00:00:00 | |
| AA1-15 | 2026-08-31 01:00:44 | 53.26432 | 10.95060 | 95° | 27km/h | 33305m | -39.4m/s | -38.7°C | 0% | 7.8hPa | 2.6V | 03:00:06 | 02:15:53 | 00:00:00 | |
| DO3MHA-11 | 2026-08-31 01:00:44 | 53.26432 | 10.95060 | 96° | 24km/h | 33305m | -39.3m/s | -38.7°C | 1.8% | 7.7hPa | 2.6V | 02:59:00 | 02:15:53 | 00:00:00 | |
| DD8BA-10 | 2026-08-31 01:00:43 | 53.26433 | 10.95048 | 96° | 26km/h | 33344m | -38.2m/s | -38.6°C | 1.8% | 7.7hPa | 2.6V | 02:59:00 | 00:00:00 | 00:00:00 | |
| DO2SHX-10 | 2026-08-31 01:00:42 | 53.26433 | 10.95034 | 93° | 31km/h | 33381m | -38.2m/s | -38.4°C | 1.8% | 7.7hPa | 2.6V | 00:00:00 | 02:15:51 | 00:00:00 | |
| MECKS9 | 2026-08-31 01:00:41 | 53.26433 | 10.95034 | 93° | 31km/h | 33381m | -38.2m/s | -38.5°C | 0.1% | 7.7hPa | 2.6V | 03:00:00 | 00:00:00 | 00:00:00 | |
| DL1XH1-15 | 2026-08-31 01:00:40 | 53.26434 | 10.94996 | 93° | 29km/h | 33487m | -33.8m/s | -38°C | 1.7% | 7.6hPa | 2.6V | 02:59:27 | 02:15:48 | 00:00:00 | |
| DL4BBY-15 | 2026-08-31 01:00:40 | 53.26434 | 10.95008 | 89° | 27km/h | 33454m | -34.6m/s | -38.5°C | 0% | 0hPa | 2.6V | 00:00:00 | 00:00:00 | 00:00:00 | |
| DM0DOS-11 | 2026-08-31 01:00:39 | 53.26437 | 10.94942 | 103° | 16km/h | 33692m | -39.3m/s | -37.2°C | 1.7% | 7.4hPa | 2.6V | 02:59:33 | 02:15:42 | 00:00:00 | |
| DL1XH-west | 2026-08-31 01:00:39 | 53.26435 | 10.94984 | 90° | 26km/h | 33521m | -34.8m/s | -38.1°C | 0% | 7.5hPa | 2.6V | 03:00:06 | 02:15:47 | 00:00:00 | |
| HSKMA3-T | 2026-08-31 01:00:36 | 53.26435 | 10.94965 | 93° | 18km/h | 33587m | -32.7m/s | -37.9°C | 0% | 7.5hPa | 2.5V | 03:00:06 | 02:15:45 | 00:00:00 | |
| BIOWL1-15 | 2026-08-31 01:00:33 | 53.26437 | 10.94942 | 104° | 16km/h | 33692m | -39.3m/s | -37.2°C | 0% | 7.4hPa | 2.6V | 03:00:06 | 02:15:42 | 00:00:00 | |
| DO2SHX-10 | 2026-08-31 01:00:33 | 53.26437 | 10.94942 | 104° | 18km/h | 33693m | -39.3m/s | -37.2°C | 1.7% | 7.3hPa | 2.6V | 00:00:00 | 02:15:42 | 00:00:00 | |
| DF7PN | 2026-08-31 01:00:32 | 53.26438 | 10.94934 | 99° | 18km/h | 33732m | -41.1m/s | -37.2°C | 0.1% | 7.3hPa | 2.6V | 00:00:00 | 00:00:00 | 00:00:00 | |
| DL1XH-15 | 2026-08-31 01:00:31 | 53.26432 | 10.94871 | 69° | 31km/h | 33959m | -36.2m/s | -36.2°C | 1.6% | 7.1hPa | 2.6V | 02:59:40 | 02:15:35 | 00:00:00 | |
| MECKS9 | 2026-08-31 01:00:31 | 53.26438 | 10.94926 | 92° | 20km/h | 33774m | -40.4m/s | -37.1°C | 0.1% | 7.3hPa | 2.5V | 03:00:00 | 00:00:00 | 00:00:00 | |
| DL1XH1-15 | 2026-08-31 01:00:30 | 53.26438 | 10.94907 | 79° | 26km/h | 33848m | -39m/s | -36.8°C | 1.6% | 7.2hPa | 2.5V | 02:59:37 | 02:15:38 | 00:00:00 | |
| DF8AY | 2026-08-31 01:00:28 | 53.26437 | 10.94896 | 80° | 27km/h | 33885m | -35.5m/s | -36.6°C | 0% | 7.2hPa | 2.6V | 03:00:06 | 02:15:37 | 00:00:00 | |
| DL1XH-west | 2026-08-31 01:00:27 | 53.26435 | 10.94884 | 75° | 31km/h | 33921m | -38m/s | -36.4°C | 0% | 7.1hPa | 2.6V | 03:00:06 | 02:15:36 | 00:00:00 | |
| HSKMA3-T | 2026-08-31 01:00:26 | 53.26433 | 10.94871 | 70° | 31km/h | 33959m | -36.2m/s | -36.2°C | 0% | 7.1hPa | 2.6V | 03:00:06 | 02:15:35 | 00:00:00 | |
| DB0DAN | 2026-08-31 01:00:25 | 53.26430 | 10.94860 | 73° | 27km/h | 33995m | -34.6m/s | -36.1°C | 0.1% | 7.04hPa | 2.5V | 00:00:00 | 00:00:00 | 00:00:00 | |
| DL1XH1-15 | 2026-08-31 01:00:25 | 53.26418 | 10.94793 | 78° | 26km/h | 34229m | -40.1m/s | -35.1°C | 1.5% | 6.8hPa | 2.5V | 02:59:47 | 02:15:28 | 00:00:00 | |
| BIOWL1-15 | 2026-08-31 01:00:23 | 53.26420 | 10.94804 | 74° | 26km/h | 34189m | -39.5m/s | -35.3°C | 0% | 6.9hPa | 2.6V | 03:00:06 | 02:15:29 | 00:00:00 | |
| AA1-15 | 2026-08-31 01:00:22 | 53.26424 | 10.94823 | 71° | 26km/h | 34110m | -41m/s | -35.6°C | 0% | 6.9hPa | 2.6V | 03:00:06 | 02:15:31 | 00:00:00 | |
| DF8AY | 2026-08-31 01:00:17 | 53.26416 | 10.94773 | 85° | 29km/h | 34306m | -40.3m/s | -34.5°C | 0% | 6.8hPa | 2.5V | 03:00:06 | 02:15:26 | 00:00:00 | |
| HSKMA3-T | 2026-08-31 01:00:16 | 53.26415 | 10.94748 | 93° | 29km/h | 34393m | -44.8m/s | -34.4°C | 0% | 6.7hPa | 2.6V | 03:00:06 | 02:15:24 | 00:00:00 | |
| GOEST3-10 | 2026-08-31 01:00:16 | 53.26415 | 10.94760 | 90° | 24km/h | 34349m | -43.4m/s | -34.4°C | 1.4% | 6.7hPa | 2.6V | 02:59:00 | 00:00:00 | 00:00:00 | |
| DO2SHX-10 | 2026-08-31 01:00:15 | 53.26415 | 10.94748 | 94° | 24km/h | 34393m | -44.7m/s | -34.4°C | 1.4% | 6.6hPa | 2.5V | 00:00:00 | 02:15:24 | 00:00:00 | |
| DL1XH1-15 | 2026-08-31 01:00:14 | 53.26417 | 10.94718 | 270° | 5km/h | 34639m | -39.6m/s | -35.1°C | 1.4% | 6.4hPa | 2.5V | 02:59:57 | 02:15:18 | 00:00:00 | |
| BIOWL1-15 | 2026-08-31 01:00:14 | 53.26416 | 10.94720 | 89° | 11km/h | 34521m | -41.5m/s | -34.9°C | 0% | 6.5hPa | 2.5V | 03:00:06 | 02:15:21 | 00:00:00 | |
| AA1-15 | 2026-08-31 01:00:11 | 53.26416 | 10.94717 | 101° | 7km/h | 34561m | -38.5m/s | -35°C | 0% | 6.5hPa | 2.6V | 03:00:06 | 02:15:20 | 00:00:00 | |
| DF8AY | 2026-08-31 01:00:07 | 53.26416 | 10.94723 | 264° | 5km/h | 34719m | -41.9m/s | -34.8°C | 0% | 6.4hPa | 2.6V | 03:00:06 | 02:15:16 | 00:00:00 | |
| DL1XH-west | 2026-08-31 01:00:06 | 53.26416 | 10.94725 | 303° | 5km/h | 34763m | -45.7m/s | -34.6°C | 0% | 6.3hPa | 2.6V | 03:00:06 | 02:15:15 | 00:00:00 | |
| HSKMA3-T | 2026-08-31 01:00:05 | 53.26416 | 10.94726 | 336° | 4km/h | 34808m | -46.6m/s | -34.6°C | 0% | 6.3hPa | 2.5V | 03:00:06 | 02:15:14 | 00:00:00 | |
| SMARD9-15 | 2026-08-31 01:00:05 | 53.26415 | 10.94727 | 337° | 4km/h | 34854m | -45.2m/s | -34.8°C | 0.1% | 6.3hPa | 2.6V | 00:00:00 | 00:00:00 | 00:00:00 | |
| DL1XH1-15 | 2026-08-31 01:00:04 | 53.26405 | 10.94749 | 296° | 24km/h | 35067m | -41.7m/s | -34.8°C | 1.4% | 6.1hPa | 2.6V | 03:00:07 | 02:15:08 | 00:00:00 | |
| BIOWL1-15 | 2026-08-31 01:00:04 | 53.26412 | 10.94731 | 305° | 11km/h | 34943m | -43.5m/s | -35°C | 0% | 6.2hPa | 2.6V | 03:00:06 | 02:15:11 | 00:00:00 | |
| AA1-15 | 2026-08-31 01:00:00 | 53.26408 | 10.94741 | 304° | 20km/h | 35026m | -40.4m/s | -34.8°C | 0% | 6.1hPa | 2.5V | 03:00:06 | 02:15:09 | 00:00:00 | |
| DF8AY | 2026-08-31 00:59:57 | 53.26399 | 10.94769 | 292° | 29km/h | 35152m | -43.4m/s | -34.9°C | 0% | 6hPa | 2.6V | 03:00:57 | 02:15:06 | 00:00:00 | |
| DO2SHX-10 | 2026-08-31 00:59:57 | 53.26399 | 10.94769 | 293° | 26km/h | 35152m | -43.4m/s | -34.9°C | 1.4% | 5.9hPa | 2.6V | 00:00:00 | 02:15:06 | 00:00:00 | |
| DM0DOS-11 | 2026-08-31 00:59:56 | 53.26387 | 10.94800 | 336° | 18km/h | 35322m | -40.2m/s | -35.3°C | 1.5% | 5.8hPa | 2.6V | 03:00:13 | 02:15:02 | 00:00:00 | |
| DL1XH-west | 2026-08-31 00:59:56 | 53.26396 | 10.94780 | 292° | 26km/h | 35195m | -43.8m/s | -35°C | 0% | 5.9hPa | 2.5V | 03:00:57 | 02:15:05 | 00:00:00 | |
| HSKMA3-T | 2026-08-31 00:59:55 | 53.26393 | 10.94789 | 304° | 24km/h | 35239m | -42.5m/s | -35°C | 0% | 5.9hPa | 2.5V | 03:00:57 | 02:15:04 | 00:00:00 | |
| GOEST3-10 | 2026-08-31 00:59:55 | 53.26393 | 10.94789 | 305° | 20km/h | 35239m | -42.4m/s | -35.0°C | 1.4% | 5.8hPa | 2.5V | 03:00:00 | 00:00:00 | 00:00:00 | |
| DL1XH1-15 | 2026-08-31 00:59:54 | 53.26362 | 10.94797 | 10° | 33km/h | 35479m | -37.2m/s | -35.9°C | 1.6% | 5.7hPa | 2.5V | 03:00:17 | 02:14:58 | 00:00:00 | |
| BIOWL1-15 | 2026-08-31 00:59:51 | 53.26376 | 10.94801 | 7° | 26km/h | 35402m | -38.4m/s | -35.7°C | 0% | 5.8hPa | 2.6V | 03:00:57 | 02:15:00 | 00:00:00 | |
| AA1-15 | 2026-08-31 00:59:49 | 53.26362 | 10.94797 | 11° | 33km/h | 35479m | -37.2m/s | -35.9°C | 0% | 5.7hPa | 2.5V | 03:00:57 | 02:14:58 | 00:00:00 | |
| DF8AY | 2026-08-31 00:59:47 | 53.26345 | 10.94794 | 360° | 35km/h | 35552m | -36.6m/s | -36°C | 0% | 5.6hPa | 2.6V | 03:00:57 | 02:14:56 | 00:00:00 | |
| DM0DOS-11 | 2026-08-31 00:59:46 | 53.26312 | 10.94807 | 333° | 31km/h | 35677m | -28m/s | -35.1°C | 1.6% | 5.5hPa | 2.5V | 03:00:23 | 02:14:52 | 00:00:00 | |
| HSKMA3-T | 2026-08-31 00:59:45 | 53.26328 | 10.94797 | 347° | 35km/h | 35618m | -29.9m/s | -35.7°C | 0% | 5.6hPa | 2.6V | 03:00:57 | 02:14:54 | 00:00:00 | |
| GOEST3-10 | 2026-08-31 00:59:45 | 53.26328 | 10.94797 | 347° | 31km/h | 35619m | -29.9m/s | -35.6°C | 1.6% | 5.5hPa | 2.6V | 00:00:00 | 00:00:00 | 00:00:00 | |
| DL1XH1-15 | 2026-08-31 00:59:44 | 53.26287 | 10.94804 | 46° | 31km/h | 35791m | -26.2m/s | -34.3°C | 1.5% | 5.4hPa | 2.6V | 03:00:27 | 02:14:48 | 00:00:00 | |
| BIOWL1-15 | 2026-08-31 00:59:40 | 53.26293 | 10.94812 | 28° | 26km/h | 35764m | -29.3m/s | -34.5°C | 0% | 5.4hPa | 2.6V | 03:00:57 | 02:14:49 | 00:00:00 | |
| EDDB2-11 | 2026-08-31 00:59:40 | 53.26287 | 10.94804 | 46° | 31km/h | 35792m | -26.2m/s | -34.3°C | 0.1% | 5.4hPa | 2.6V | 00:00:00 | 00:00:00 | 00:00:00 | |
| DL1XH-15 | 2026-08-31 00:59:39 | 53.26263 | 10.94723 | 64° | 60km/h | 35903m | -33.9m/s | -33.6°C | 1.4% | 5.3hPa | 2.6V | 03:00:31 | 02:14:44 | 00:00:00 | |
| AA1-15 | 2026-08-31 00:59:39 | 53.26287 | 10.94804 | 47° | 31km/h | 35791m | -26.2m/s | -34.3°C | 0% | 5.4hPa | 2.6V | 03:00:57 | 02:14:48 | 00:00:00 | |
| DF8AY | 2026-08-31 00:59:36 | 53.26270 | 10.94747 | 66° | 66km/h | 35872m | -29m/s | -33.8°C | 0% | 5.3hPa | 2.5V | 03:00:57 | 02:14:45 | 00:00:00 | |
| HSKMA3-T | 2026-08-31 00:59:35 | 53.26263 | 10.94723 | 65° | 60km/h | 35903m | -33.9m/s | -33.6°C | 0% | 5.3hPa | 2.6V | 03:00:57 | 02:14:44 | 00:00:00 | |
| DB0NH | 2026-08-31 00:59:35 | 53.26263 | 10.94723 | 65° | 44km/h | 35904m | -33.9m/s | -33.6°C | 1.4% | 5.3hPa | 2.6V | 00:00:00 | 02:14:44 | 00:00:00 | |
| SMARD9-15 | 2026-08-31 00:59:34 | 53.26250 | 10.94690 | 39° | 33km/h | 35974m | -35.7m/s | -33.3°C | 0.0% | 5.3hPa | 2.6V | 00:00:00 | 00:00:00 | 00:00:00 | |
| DO2SHX-10 | 2026-08-31 00:59:33 | 53.26249 | 10.94690 | 40° | 27km/h | 35974m | -35.6m/s | -33.3°C | 1.4% | 5.2hPa | 2.6V | 00:00:00 | 02:14:42 | 00:00:00 | |
| DO2SHX-10 | 2026-08-31 00:59:30 | 53.26232 | 10.94689 | 309° | 26km/h | 36067m | -28.9m/s | -32.7°C | 1.4% | 5.2hPa | 2.6V | 00:00:00 | 02:14:39 | 00:00:00 | |
| DL1XH-15 | 2026-08-31 00:59:29 | 53.26224 | 10.94693 | 85° | 29km/h | 36241m | -30.5m/s | -32.1°C | 1.3% | 5hPa | 2.6V | 03:00:41 | 02:14:34 | 00:00:00 | |
| BIOWL1-15 | 2026-08-31 00:59:29 | 53.26228 | 10.94699 | 293° | 31km/h | 36097m | -34.1m/s | -32.5°C | 0% | 5.2hPa | 2.6V | 03:00:57 | 02:14:38 | 00:00:00 | |
| DF8AY | 2026-08-31 00:59:26 | 53.26224 | 10.94704 | 85° | 22km/h | 36208m | -37.2m/s | -32.3°C | 0% | 5.1hPa | 2.6V | 03:00:57 | 02:14:35 | 00:00:00 | |
| DL1XH-west | 2026-08-31 00:59:25 | 53.26224 | 10.94693 | 86° | 31km/h | 36241m | -30.5m/s | -32.2°C | 0% | 5hPa | 2.6V | 03:00:57 | 02:14:34 | 00:00:00 | |
| HSKMA3-T | 2026-08-31 00:59:24 | 53.26223 | 10.94678 | 89° | 42km/h | 36268m | -23.7m/s | -31.7°C | 0% | 5hPa | 2.5V | 03:00:57 | 02:14:33 | 00:00:00 | |
| DL1XH1-15 | 2026-08-31 00:59:24 | 53.26217 | 10.94509 | 73° | 53km/h | 36378m | -51.5m/s | -30.4°C | 1.1% | 5hPa | 2.5V | 03:00:47 | 02:14:28 | 00:00:00 | |
| DD8BA-10 | 2026-08-31 00:59:23 | 53.26223 | 10.94657 | 89° | 58km/h | 36287m | -16.6m/s | -31.4°C | 1.2% | 5.0hPa | 2.5V | 00:00:00 | 00:00:00 | 00:00:00 | |
| BUE01 | 2026-08-31 00:59:22 | 53.26223 | 10.94628 | 87° | 80km/h | 36301m | -13.7m/s | -31.2°C | 0.0% | 5.0hPa | 2.5V | 00:00:00 | 00:00:00 | 00:00:00 | |
| SO1NDE-10 | 2026-08-31 00:59:21 | 53.26221 | 10.94589 | 87° | 42km/h | 36315m | -16.0m/s | -30.9°C | 1.1% | 5.0hPa | 2.5V | 00:00:00 | 02:14:30 | 00:00:00 | |
| GOEST3-10 | 2026-08-31 00:59:20 | 53.26220 | 10.94543 | 87° | 58km/h | 36337m | -30.9m/s | -30.6°C | 1.1% | 4.9hPa | 2.5V | 00:00:00 | 02:14:29 | 00:00:00 | |
| DL1XH-15 | 2026-08-31 00:59:19 | 53.26202 | 10.94450 | 288° | 11km/h | 36529m | -23.7m/s | -31°C | 1.2% | 4.9hPa | 2.5V | 03:00:51 | 02:14:24 | 00:00:00 | |
| AA1-15 | 2026-08-31 00:59:18 | 53.26209 | 10.94468 | 69° | 47km/h | 36467m | -38.3m/s | -30.6°C | 0% | 4.9hPa | 2.6V | 03:00:57 | 02:14:26 | 00:00:00 | |
| DM0DOS-11 | 2026-08-31 00:59:18 | 53.26202 | 10.94463 | 270° | 20km/h | 36560m | -6.6m/s | -31.2°C | 1.2% | 4.8hPa | 2.5V | 03:00:53 | 02:14:22 | 00:00:00 | |
| DF8AY | 2026-08-31 00:59:16 | 53.26205 | 10.94453 | 59° | 29km/h | 36502m | -31.3m/s | -30.8°C | 0% | 4.9hPa | 2.6V | 03:00:57 | 02:14:25 | 00:00:00 | |
| DL1XH-west | 2026-08-31 00:59:15 | 53.26202 | 10.94450 | 289° | 11km/h | 36529m | -23.7m/s | -31°C | 0% | 4.9hPa | 2.5V | 03:00:57 | 02:14:24 | 00:00:00 | |
| GOEST3-10 | 2026-08-31 00:59:15 | 53.26202 | 10.94450 | 289° | 18km/h | 36530m | -23.6m/s | -30.9°C | 1.2% | 4.8hPa | 2.5V | 03:00:00 | 00:00:00 | 00:00:00 | |
| DL1XH1-15 | 2026-08-31 00:59:14 | 53.26212 | 10.94487 | 182° | 24km/h | 36550m | 3.7m/s | -31.1°C | 1.2% | 4.8hPa | 2.5V | 03:00:57 | 02:14:18 | 00:00:00 | |
| HSKMA3-T | 2026-08-31 00:59:13 | 53.26202 | 10.94463 | 271° | 20km/h | 36560m | -6.6m/s | -31.2°C | 0% | 4.8hPa | 2.5V | 03:00:57 | 02:14:22 | 00:00:00 | |
| DD8BA-10 | 2026-08-31 00:59:13 | 53.26202 | 10.94463 | 271° | 37km/h | 36561m | -6.6m/s | -31.1°C | 1.2% | 4.8hPa | 2.5V | 03:00:00 | 00:00:00 | 00:00:00 | |
| DL2RXE-15 | 2026-08-31 00:59:12 | 53.26201 | 10.94463 | 272° | 20km/h | 36561m | -6.6m/s | -31.2°C | 0.0% | 4.8hPa | 2.6V | 00:00:00 | 00:00:00 | 00:00:00 | |
| DO2SHX-10 | 2026-08-31 00:59:11 | 53.26203 | 10.94479 | 243° | 22km/h | 36559m | 5.1m/s | -31.1°C | 1.2% | 4.8hPa | 2.6V | 00:00:00 | 02:14:20 | 00:00:00 | |
| DL1XH-15 | 2026-08-31 00:59:09 | 53.26230 | 10.94444 | 91° | 47km/h | 36530m | 5.8m/s | -31°C | 1.2% | 4.8hPa | 2.6V | 03:01:01 | 02:14:14 | 00:00:00 | |
| EDDB2-11 | 2026-08-31 00:59:09 | 53.26218 | 10.94484 | 152° | 27km/h | 36546m | 4.1m/s | -31.0°C | 0.0% | 4.9hPa | 2.5V | 00:00:00 | 00:00:00 | 00:00:00 | |
| DM0DOS-11 | 2026-08-31 00:59:08 | 53.26225 | 10.94403 | 61° | 51km/h | 36520m | 4.4m/s | -31°C | 1.2% | 4.9hPa | 2.5V | 03:01:03 | 02:14:12 | 00:00:00 | |
| AA1-15 | 2026-08-31 00:59:07 | 53.26224 | 10.94476 | 129° | 35km/h | 36541m | 5.5m/s | -31.1°C | 0% | 4.9hPa | 2.6V | 03:01:48 | 02:14:16 | 00:00:00 | |
| DF8AY | 2026-08-31 00:59:05 | 53.26230 | 10.94444 | 92° | 47km/h | 36530m | 5.8m/s | -31°C | 0% | 4.9hPa | 2.6V | 03:01:48 | 02:14:14 | 00:00:00 | |
| DL1XH-west | 2026-08-31 00:59:04 | 53.26229 | 10.94423 | 77° | 51km/h | 36524m | 5.1m/s | -31°C | 0% | 4.9hPa | 2.6V | 03:01:48 | 02:14:13 | 00:00:00 | |
| DL1NUX | 2026-08-31 00:59:03 | 53.26217 | 10.94387 | 45° | 46km/h | 36515m | 4m/s | -31°C | 1.2% | 4.9hPa | 2.5V | 03:01:04 | 02:14:11 | 00:00:00 | |
| HSKMA3-T | 2026-08-31 00:59:01 | 53.26209 | 10.94377 | 27° | 38km/h | 36512m | 4.3m/s | -30.9°C | 0% | 4.9hPa | 2.6V | 03:01:48 | 02:14:10 | 00:00:00 | |
| DO2SHX-10 | 2026-08-31 00:59:01 | 53.26209 | 10.94377 | 27° | 31km/h | 36512m | 4.3m/s | -30.9°C | 1.2% | 4.8hPa | 2.6V | 00:00:00 | 02:14:10 | 00:00:00 | |
| TFSTFS | 2026-08-31 00:59:00 | 53.26209 | 10.94377 | 27° | 38km/h | 36512m | 4.3m/s | -30.9°C | 0.0% | 4.9hPa | 2.6V | 03:01:00 | 00:00:00 | 00:00:00 | |
| GOEST3-10 | 2026-08-31 00:58:59 | 53.26194 | 10.94375 | 334° | 26km/h | 36503m | 5.3m/s | -30.8°C | 1.1% | 4.8hPa | 2.6V | 00:00:00 | 02:14:08 | 00:00:00 | |
| DM0DOS-11 | 2026-08-31 00:58:58 | 53.26215 | 10.94387 | 130° | 46km/h | 36477m | 5m/s | -30.9°C | 1.2% | 4.9hPa | 2.6V | 03:01:13 | 02:14:02 | 00:00:00 | |
| DO2SHX-10 | 2026-08-31 00:58:58 | 53.26190 | 10.94381 | 297° | 24km/h | 36497m | 5.1m/s | -30.9°C | 1.2% | 4.8hPa | 2.6V | 00:00:00 | 02:14:07 | 00:00:00 | |
| DL1NUX | 2026-08-31 00:58:57 | 53.26221 | 10.94369 | 113° | 57km/h | 36472m | 5.3m/s | -30.8°C | 1.2% | 4.9hPa | 2.6V | 03:01:14 | 02:14:01 | 00:00:00 | |
| DL1XH-west | 2026-08-31 00:58:54 | 53.26207 | 10.94399 | 153° | 37km/h | 36482m | 4.2m/s | -30.9°C | 0% | 4.9hPa | 2.6V | 03:01:48 | 02:14:03 | 00:00:00 | |
| AA1-15 | 2026-08-31 00:58:52 | 53.26222 | 10.94369 | 114° | 57km/h | 36472m | 5.3m/s | -30.8°C | 0% | 4.9hPa | 2.6V | 03:01:48 | 02:14:01 | 00:00:00 | |
| HSKMA3-T | 2026-08-31 00:58:51 | 53.26226 | 10.94346 | 100° | 60km/h | 36467m | 5.1m/s | -30.9°C | 0% | 4.9hPa | 2.5V | 03:01:48 | 02:14:00 | 00:00:00 | |
| DD8BA-10 | 2026-08-31 00:58:51 | 53.26226 | 10.94346 | 100° | 42km/h | 36468m | 5.0m/s | -30.8°C | 1.2% | 4.9hPa | 2.6V | 00:00:00 | 00:00:00 | 00:00:00 | |
| GOEST3-10 | 2026-08-31 00:58:49 | 53.26224 | 10.94297 | 72° | 40km/h | 36461m | 3.5m/s | -30.8°C | 1.1% | 4.9hPa | 2.6V | 00:00:00 | 02:13:58 | 00:00:00 | |
| DM0DOS-11 | 2026-08-31 00:58:48 | 53.26189 | 10.94279 | 262° | 22km/h | 36431m | 3.1m/s | -31°C | 1.2% | 4.9hPa | 2.6V | 03:01:23 | 02:13:52 | 00:00:00 | |
| EDDB2-12 | 2026-08-31 00:58:47 | 53.26211 | 10.94265 | 34° | 38km/h | 36452m | 5.4m/s | -30.9°C | 0.0% | 4.9hPa | 2.6V | 00:00:00 | 00:00:00 | 00:00:00 | |
| DK7RCA | 2026-08-31 00:58:46 | 53.26203 | 10.94260 | 7° | 33km/h | 36446m | 6.6m/s | -31.0°C | 0.0% | 4.9hPa | 2.6V | 00:00:00 | 00:00:00 | 00:00:00 | |
| DO2SHX-10 | 2026-08-31 00:58:45 | 53.26195 | 10.94262 | 333° | 26km/h | 36440m | 6.1m/s | -30.9°C | 1.1% | 4.9hPa | 2.6V | 00:00:00 | 02:13:54 | 00:00:00 | |
| DL1XH1-15 | 2026-08-31 00:58:44 | 53.26212 | 10.94264 | 125° | 53km/h | 36414m | 6.8m/s | -31.1°C | 1.2% | 4.9hPa | 2.6V | 03:01:27 | 02:13:48 | 00:00:00 | |
| DF8AY | 2026-08-31 00:58:43 | 53.26190 | 10.94279 | 263° | 22km/h | 36431m | 3.1m/s | -31°C | 0% | 4.9hPa | 2.6V | 03:01:48 | 02:13:52 | 00:00:00 | |
| DL1NUX | 2026-08-31 00:58:43 | 53.26192 | 10.94285 | 210° | 18km/h | 36428m | 2.8m/s | -31°C | 1.2% | 4.9hPa | 2.6V | 03:01:24 | 02:13:51 | 00:00:00 | |
| HSKMA3-T | 2026-08-31 00:58:41 | 53.26197 | 10.94285 | 165° | 27km/h | 36425m | 3.8m/s | -31.1°C | 0% | 4.9hPa | 2.6V | 03:01:48 | 02:13:50 | 00:00:00 | |
| AA1-15 | 2026-08-31 00:58:39 | 53.26212 | 10.94264 | 126° | 53km/h | 36415m | 6.8m/s | -31.1°C | 0% | 4.9hPa | 2.6V | 03:01:48 | 02:13:48 | 00:00:00 | |
| DO2SHX-10 | 2026-08-31 00:58:39 | 53.26212 | 10.94264 | 126° | 62km/h | 36415m | 6.7m/s | -31.1°C | 1.2% | 4.9hPa | 2.6V | 00:00:00 | 02:13:48 | 00:00:00 | |
| DM0DOS-11 | 2026-08-31 00:58:38 | 53.26216 | 10.94119 | 48° | 35km/h | 36389m | 6.1m/s | -31.3°C | 1.2% | 5hPa | 2.6V | 03:01:33 | 02:13:42 | 00:00:00 | |
| DF8AY-15 | 2026-08-31 00:58:38 | 53.26219 | 10.94242 | 113° | 47km/h | 36408m | 6.7m/s | -31.1°C | 1.2% | 4.9hPa | 2.6V | 03:01:00 | 02:13:47 | 00:00:00 | |
| DL1NUX | 2026-08-31 00:58:37 | 53.26210 | 10.94112 | 16° | 26km/h | 36383m | 7.8m/s | -31.3°C | 1.2% | 4.9hPa | 2.6V | 03:01:34 | 02:13:41 | 00:00:00 | |
| SONDE2-11 | 2026-08-31 00:58:36 | 53.26225 | 10.94156 | 80° | 60km/h | 36397m | 1.6m/s | -31.2°C | 0.0% | 5.0hPa | 2.5V | 00:00:00 | 00:00:00 | 00:00:00 | |
| DO2SHX-10 | 2026-08-31 00:58:35 | 53.26225 | 10.94156 | 81° | 47km/h | 36397m | 1.5m/s | -31.2°C | 1.2% | 4.9hPa | 2.5V | 03:01:00 | 02:13:44 | 00:00:00 | |
| DL1XH1-15 | 2026-08-31 00:58:34 | 53.26198 | 10.94128 | 270° | 20km/h | 36366m | 1.9m/s | -31.4°C | 1.2% | 5hPa | 2.5V | 03:01:37 | 02:13:38 | 00:00:00 | |
| DL1XH-west | 2026-08-31 00:58:33 | 53.26216 | 10.94119 | 49° | 35km/h | 36389m | 6.1m/s | -31.3°C | 0% | 5hPa | 2.6V | 03:01:48 | 02:13:42 | 00:00:00 | |
| DF8AY | 2026-08-31 00:58:32 | 53.26210 | 10.94112 | 16° | 26km/h | 36383m | 7.8m/s | -31.3°C | 0% | 5hPa | 2.6V | 03:01:48 | 02:13:41 | 00:00:00 | |
| HSKMA3-T | 2026-08-31 00:58:31 | 53.26204 | 10.94113 | 332° | 24km/h | 36375m | 7.5m/s | -31.4°C | 0% | 5hPa | 2.6V | 03:01:48 | 02:13:40 | 00:00:00 | |
| BIOWL1-15 | 2026-08-31 00:58:30 | 53.26200 | 10.94120 | 302° | 26km/h | 36369m | 4.6m/s | -31.4°C | 0% | 5hPa | 2.6V | 03:01:48 | 02:13:39 | 00:00:00 | |
| AA1-15 | 2026-08-31 00:58:29 | 53.26198 | 10.94128 | 271° | 20km/h | 36366m | 1.9m/s | -31.4°C | 0% | 5hPa | 2.5V | 03:01:48 | 02:13:38 | 00:00:00 | |
| DO2SHX-10 | 2026-08-31 00:58:29 | 53.26198 | 10.94128 | 271° | 18km/h | 36366m | 1.8m/s | -31.4°C | 1.2% | 4.9hPa | 2.5V | 00:00:00 | 02:13:38 | 00:00:00 | |
| DB0UT-7 | 2026-08-31 00:58:28 | 53.26199 | 10.94134 | 215° | 42km/h | 36365m | 1.1m/s | -31.4°C | 1.2% | 4.9hPa | 2.5V | 00:00:00 | 02:13:37 | 00:00:00 | |
| DL1ZP-14 | 2026-08-31 00:58:27 | 53.26209 | 10.94125 | 131° | 38km/h | 36358m | 6.6m/s | -31.5°C | 0.0% | 5.0hPa | 2.6V | 00:00:00 | 00:00:00 | 00:00:00 | |
| DO2SHX-10 | 2026-08-31 00:58:26 | 53.26208 | 10.94125 | 132° | 55km/h | 36358m | 6.5m/s | -31.5°C | 1.2% | 4.9hPa | 2.6V | 00:00:00 | 02:13:35 | 00:00:00 | |
| S3001 | 2026-08-31 00:58:25 | 53.26227 | 10.94022 | 90° | 77km/h | 36333m | 1.9m/s | -31.6°C | 0.0% | 5.0hPa | 2.6V | 00:00:00 | 00:00:00 | 00:00:00 | |
| DL1XH1-15 | 2026-08-31 00:58:24 | 53.26216 | 10.93951 | 47° | 40km/h | 36325m | 5.6m/s | -31.8°C | 1.2% | 5hPa | 2.6V | 03:01:47 | 02:13:28 | 00:00:00 | |
| DL1XH-west | 2026-08-31 00:58:22 | 53.26227 | 10.94022 | 91° | 77km/h | 36332m | 1.9m/s | -31.6°C | 0% | 5hPa | 2.6V | 03:01:48 | 02:13:31 | 00:00:00 | |
| DF8AY | 2026-08-31 00:58:21 | 53.26226 | 10.93992 | 80° | 66km/h | 36331m | 0.8m/s | -31.7°C | 0% | 5hPa | 2.6V | 03:01:48 | 02:13:30 | 00:00:00 | |
| HSKMA3-T | 2026-08-31 00:58:20 | 53.26222 | 10.93968 | 67° | 53km/h | 36329m | 2.7m/s | -31.7°C | 0% | 5hPa | 2.6V | 03:01:48 | 02:13:29 | 00:00:00 | |
| BIOWL1-15 | 2026-08-31 00:58:19 | 53.26216 | 10.93951 | 48° | 40km/h | 36325m | 5.6m/s | -31.8°C | 0% | 5hPa | 2.6V | 03:01:48 | 02:13:28 | 00:00:00 | |
| AA1-15 | 2026-08-31 00:58:19 | 53.26208 | 10.93943 | 21° | 33km/h | 36319m | 7.6m/s | -31.8°C | 0% | 5hPa | 2.5V | 03:01:48 | 02:13:27 | 00:00:00 | |
| DM0DOS-11 | 2026-08-31 00:58:18 | 53.26192 | 10.93962 | 140° | 15km/h | 36297m | 3m/s | -32.1°C | 1.2% | 5hPa | 2.6V | 03:01:53 | 02:13:22 | 00:00:00 | |
| DL1XH-west | 2026-08-31 00:58:12 | 53.26200 | 10.93939 | 111° | 51km/h | 36286m | 8.1m/s | -32.2°C | 0% | 5hPa | 2.6V | 03:02:39 | 02:13:20 | 00:00:00 | |
| DF8AY | 2026-08-31 00:58:10 | 53.26204 | 10.93915 | 105° | 69km/h | 36278m | 8m/s | -32.2°C | 0% | 5hPa | 2.6V | 03:02:39 | 02:13:19 | 00:00:00 | |
| DL1XH1-15 | 2026-08-31 00:58:10 | 53.26208 | 10.93885 | 97° | 78km/h | 36271m | 5.3m/s | -32.3°C | 1.2% | 5hPa | 2.6V | 03:01:57 | 02:13:18 | 00:00:00 | |
| BIOWL1-15 | 2026-08-31 00:58:09 | 53.26204 | 10.93796 | 70° | 55km/h | 36264m | 1.9m/s | -32.5°C | 0% | 5.1hPa | 2.6V | 03:02:39 | 02:13:15 | 00:00:00 | |
| HSKMA3-T | 2026-08-31 00:58:09 | 53.26208 | 10.93885 | 98° | 78km/h | 36271m | 5.3m/s | -32.3°C | 0% | 5hPa | 2.6V | 03:02:39 | 02:13:18 | 00:00:00 | |
| AA1-15 | 2026-08-31 00:58:08 | 53.26208 | 10.93821 | 81° | 68km/h | 36265m | 0.9m/s | -32.4°C | 0% | 5hPa | 2.6V | 03:02:39 | 02:13:16 | 00:00:00 | |
| DO2SHX-10 | 2026-08-31 00:58:08 | 53.26209 | 10.93851 | 90° | 68km/h | 36267m | 2.4m/s | -32.3°C | 1.2% | 5.0hPa | 2.6V | 00:00:00 | 02:13:17 | 00:00:00 | |
| AP2371 | 2026-08-31 00:58:07 | 53.26210 | 10.93851 | 91° | 80km/h | 36267m | 2.4m/s | -32.4°C | 0.0% | 5.0hPa | 2.6V | 00:00:00 | 00:00:00 | 00:00:00 | |
| EDDB2-11 | 2026-08-31 00:58:06 | 53.26204 | 10.93796 | 69° | 53km/h | 36264m | 1.9m/s | -32.5°C | 0.0% | 5.1hPa | 2.6V | 00:00:00 | 00:00:00 | 00:00:00 | |
| DO2SHX-10 | 2026-08-31 00:58:05 | 53.26199 | 10.93779 | 56° | 31km/h | 36261m | 5.1m/s | -32.5°C | 1.2% | 5.0hPa | 2.6V | 00:00:00 | 02:13:14 | 00:00:00 | |
| DL1XH1-15 | 2026-08-31 00:58:04 | 53.26180 | 10.93791 | 139° | 9km/h | 36232m | 2.1m/s | -32.8°C | 1.3% | 5hPa | 2.6V | 03:02:07 | 02:13:08 | 00:00:00 | |
| DL1XH-west | 2026-08-31 00:58:00 | 53.26178 | 10.93790 | 263° | 9km/h | 36234m | 0.9m/s | -32.8°C | 0% | 5hPa | 2.6V | 03:02:39 | 02:13:09 | 00:00:00 | |
| HSKMA3-T | 2026-08-31 00:57:59 | 53.26179 | 10.93791 | 140° | 9km/h | 36232m | 2.1m/s | -32.8°C | 0% | 5hPa | 2.6V | 03:02:39 | 02:13:08 | 00:00:00 | |
| DJ8HS-15 | 2026-08-31 00:57:59 | 53.26179 | 10.93791 | 140° | 42km/h | 36232m | 2.0m/s | -32.8°C | 1.3% | 5.0hPa | 2.6V | 00:00:00 | 02:13:08 | 00:00:00 | |
| DM0DOS-11 | 2026-08-31 00:57:58 | 53.26176 | 10.93659 | 65° | 66km/h | 36203m | 1.1m/s | -32.9°C | 1.3% | 5.1hPa | 2.6V | 03:02:13 | 02:13:02 | 00:00:00 | |
| DL1NUX | 2026-08-31 00:57:58 | 53.26168 | 10.93638 | 52° | 53km/h | 36201m | 2.7m/s | -32.9°C | 1.3% | 5.1hPa | 2.6V | 03:02:14 | 02:13:01 | 00:00:00 | |
| AA1-15 | 2026-08-31 00:57:56 | 53.26185 | 10.93747 | 93° | 64km/h | 36215m | 8.1m/s | -32.9°C | 0% | 5.1hPa | 2.6V | 03:02:39 | 02:13:05 | 00:00:00 | |
| DL1ZP-14 | 2026-08-31 00:57:56 | 53.26184 | 10.93718 | 84° | 75km/h | 36209m | 5.3m/s | -32.9°C | 0.0% | 5.1hPa | 2.6V | 00:00:00 | 00:00:00 | 00:00:00 | |
| DB0DAN | 2026-08-31 00:57:55 | 53.26184 | 10.93718 | 85° | 71km/h | 36208m | 5.3m/s | -32.9°C | 0% | 5.09hPa | 2.6V | 00:00:00 | 00:00:00 | 00:00:00 | |
| DL1XH-west | 2026-08-31 00:57:50 | 53.26151 | 10.93618 | 8° | 35km/h | 36190m | 8.2m/s | -32.9°C | 0% | 5.1hPa | 2.6V | 03:02:39 | 02:12:59 | 00:00:00 | |
| DF8AY | 2026-08-31 00:57:49 | 53.26143 | 10.93620 | 332° | 35km/h | 36182m | 8.2m/s | -32.9°C | 0% | 5.1hPa | 2.6V | 03:02:39 | 02:12:58 | 00:00:00 | |
| BIOWL1-15 | 2026-08-31 00:57:48 | 53.26133 | 10.93640 | 291° | 27km/h | 36172m | 2.1m/s | -32.8°C | 0% | 5.1hPa | 2.5V | 03:02:39 | 02:12:56 | 00:00:00 | |
| HSKMA3-T | 2026-08-31 00:57:48 | 53.26137 | 10.93629 | 306° | 35km/h | 36175m | 5.3m/s | -32.9°C | 0% | 5.1hPa | 2.5V | 03:02:39 | 02:12:57 | 00:00:00 | |
| DL1NUX | 2026-08-31 00:57:47 | 53.26129 | 10.93604 | 80° | 64km/h | 36149m | 7.9m/s | -32.8°C | 1.2% | 5.1hPa | 2.5V | 03:02:24 | 02:12:51 | 00:00:00 | |
| AA1-15 | 2026-08-31 00:57:46 | 53.26131 | 10.93648 | 286° | 13km/h | 36170m | 1.2m/s | -32.8°C | 0% | 5.1hPa | 2.6V | 03:02:39 | 02:12:55 | 00:00:00 | |
| EDDB2-12 | 2026-08-31 00:57:45 | 53.26131 | 10.93649 | 74° | 4km/h | 36168m | 2.9m/s | -32.8°C | 0.0% | 5.1hPa | 2.6V | 00:00:00 | 00:00:00 | 00:00:00 | |
| DL1XH1-15 | 2026-08-31 00:57:44 | 53.26109 | 10.93519 | 52° | 69km/h | 36136m | 1.8m/s | -32.8°C | 1.3% | 5.1hPa | 2.6V | 03:02:27 | 02:12:48 | 00:00:00 | |
| DO2SHX-10 | 2026-08-31 00:57:44 | 53.26131 | 10.93642 | 95° | 46km/h | 36164m | 5.6m/s | -32.7°C | 1.2% | 5.1hPa | 2.6V | 00:00:00 | 02:12:53 | 00:00:00 | |
| BIOWL9-15 | 2026-08-31 00:57:42 | 53.26129 | 10.93604 | 80° | 64km/h | 36149m | 7.9m/s | -32.8°C | 0.0% | 5.1hPa | 2.6V | 00:00:00 | 00:00:00 | 00:00:00 | |
| DB0DAN | 2026-08-31 00:57:40 | 53.26118 | 10.93545 | 65° | 73km/h | 36139m | 2.2m/s | -32.8°C | 0% | 5.14hPa | 2.6V | 00:00:00 | 00:00:00 | 00:00:00 | |
| DL1XH-15 | 2026-08-31 00:57:40 | 53.26067 | 10.93488 | 330° | 33km/h | 36118m | 7m/s | -32.9°C | 1.3% | 5.1hPa | 2.5V | 03:02:31 | 02:12:44 | 00:00:00 | |
| DL1XH-west | 2026-08-31 00:57:40 | 53.26118 | 10.93545 | 65° | 77km/h | 36139m | 2.2m/s | -32.8°C | 0% | 5.1hPa | 2.6V | 03:02:39 | 02:12:49 | 00:00:00 | |
| DF8AY | 2026-08-31 00:57:39 | 53.26109 | 10.93519 | 53° | 69km/h | 36136m | 1.8m/s | -32.8°C | 0% | 5.1hPa | 2.6V | 03:02:39 | 02:12:48 | 00:00:00 | |
| BIOWL1-15 | 2026-08-31 00:57:38 | 53.26059 | 10.93507 | 275° | 22km/h | 36107m | 3.8m/s | -33°C | 0% | 5.2hPa | 2.6V | 03:02:39 | 02:12:42 | 00:00:00 | |
| HSKMA3-T | 2026-08-31 00:57:38 | 53.26097 | 10.93500 | 39° | 58km/h | 36134m | 2.4m/s | -32.8°C | 0% | 5.1hPa | 2.6V | 03:02:39 | 02:12:47 | 00:00:00 | |
| AA1-15 | 2026-08-31 00:57:35 | 53.26067 | 10.93488 | 331° | 33km/h | 36118m | 7.1m/s | -32.9°C | 0% | 5.1hPa | 2.5V | 03:02:39 | 02:12:44 | 00:00:00 | |
| DF8AY | 2026-08-31 00:57:29 | 53.26067 | 10.93492 | 93° | 46km/h | 36092m | 6m/s | -33.2°C | 0% | 5.2hPa | 2.5V | 03:02:39 | 02:12:38 | 00:00:00 | |
| HSKMA3-T | 2026-08-31 00:57:27 | 53.26061 | 10.93445 | 66° | 69km/h | 36080m | 4.7m/s | -33.3°C | 0% | 5.2hPa | 2.6V | 03:02:39 | 02:12:36 | 00:00:00 | |
| DB0DAN | 2026-08-31 00:57:25 | 53.26040 | 10.93400 | 37° | 66km/h | 36072m | 3.8m/s | -33.4°C | 0% | 5.19hPa | 2.6V | 00:00:00 | 00:00:00 | 00:00:00 | |
| AA1-15 | 2026-08-31 00:57:25 | 53.26026 | 10.93387 | 21° | 62km/h | 36069m | 4.7m/s | -33.4°C | 0% | 5.2hPa | 2.5V | 03:03:30 | 02:12:33 | 00:00:00 | |
| DL1XH1-15 | 2026-08-31 00:57:24 | 53.25977 | 10.93419 | 204° | 5km/h | 36037m | 4.1m/s | -33.6°C | 1.3% | 5.2hPa | 2.5V | 03:02:48 | 02:12:27 | 00:00:00 | |
| BIOWL1-15 | 2026-08-31 00:57:22 | 53.25980 | 10.93387 | 83° | 51km/h | 36020m | 6.5m/s | -33.6°C | 0% | 5.2hPa | 2.6V | 03:03:30 | 02:12:24 | 00:00:00 | |
| SO1NDE-10 | 2026-08-31 00:57:21 | 53.25987 | 10.93393 | 323° | 42km/h | 36050m | 5.8m/s | -33.5°C | 1.3% | 5.1hPa | 2.6V | 00:00:00 | 02:12:30 | 00:00:00 | |
| DL1XH-15 | 2026-08-31 00:57:20 | 53.25980 | 10.93387 | 82° | 51km/h | 36020m | 6.5m/s | -33.6°C | 1.3% | 5.2hPa | 2.6V | 03:02:51 | 02:12:24 | 00:00:00 | |
| DL1XH-west | 2026-08-31 00:57:18 | 53.25977 | 10.93419 | 204° | 5km/h | 36037m | 4.1m/s | -33.6°C | 0% | 5.2hPa | 2.5V | 03:03:30 | 02:12:27 | 00:00:00 | |
| HSKMA3-T | 2026-08-31 00:57:16 | 53.25980 | 10.93405 | 95° | 35km/h | 36026m | 6.7m/s | -33.6°C | 0% | 5.2hPa | 2.6V | 03:03:30 | 02:12:25 | 00:00:00 | |
| AA1-15 | 2026-08-31 00:57:14 | 53.25969 | 10.93340 | 58° | 66km/h | 36010m | 3.3m/s | -33.6°C | 0% | 5.2hPa | 2.6V | 03:03:30 | 02:12:22 | 00:00:00 | |
| DL1XH1-15 | 2026-08-31 00:57:13 | 53.25922 | 10.93298 | 346° | 47km/h | 35990m | 7.6m/s | -33.6°C | 1.3% | 5.2hPa | 2.6V | 03:02:57 | 02:12:18 | 00:00:00 | |
| SP6BVK | 2026-08-31 00:57:11 | 53.25959 | 10.93319 | 44° | 62km/h | 36008m | 2.4m/s | -33.6°C | 0.0% | 5.2hPa | 2.6V | 03:03:00 | 00:00:00 | 00:00:00 | |
| BIOWL1-15 | 2026-08-31 00:57:11 | 53.25922 | 10.93298 | 346° | 47km/h | 35991m | 7.6m/s | -33.6°C | 0% | 5.2hPa | 2.6V | 03:03:30 | 02:12:18 | 00:00:00 | |
| DB0DAN | 2026-08-31 00:57:10 | 53.25933 | 10.93298 | 10° | 47km/h | 35997m | 6.6m/s | -33.7°C | 0% | 5.24hPa | 2.6V | 00:00:00 | 00:00:00 | 00:00:00 | |
| DL1XH-15 | 2026-08-31 00:57:10 | 53.25901 | 10.93336 | 253° | 9km/h | 35972m | 2.5m/s | -33.7°C | 1.3% | 5.3hPa | 2.6V | 03:03:01 | 02:12:14 | 00:00:00 | |
| DF8AY | 2026-08-31 00:57:08 | 53.25905 | 10.93318 | 301° | 37km/h | 35978m | 4.2m/s | -33.7°C | 0% | 5.3hPa | 2.6V | 03:03:30 | 02:12:16 | 00:00:00 | |
| HSKMA3-T | 2026-08-31 00:57:06 | 53.25902 | 10.93330 | 284° | 24km/h | 35975m | 2.2m/s | -33.7°C | 0% | 5.2hPa | 2.5V | 03:03:30 | 02:12:15 | 00:00:00 | |
| DB0NH | 2026-08-31 00:57:05 | 53.25901 | 10.93336 | 254° | 40km/h | 35973m | 2.4m/s | -33.7°C | 1.3% | 5.2hPa | 2.6V | 00:00:00 | 02:12:14 | 00:00:00 | |
| GOEST3-10 | 2026-08-31 00:57:04 | 53.25902 | 10.93335 | 115° | 44km/h | 35969m | 4.3m/s | -33.7°C | 1.3% | 5.2hPa | 2.5V | 00:00:00 | 00:00:00 | 00:00:00 | |
| DL1XH1-15 | 2026-08-31 00:57:03 | 53.25886 | 10.93239 | 51° | 64km/h | 35941m | 2.1m/s | -33.9°C | 1.4% | 5.3hPa | 2.5V | 03:03:07 | 02:12:08 | 00:00:00 | |
| AA1-15 | 2026-08-31 00:57:03 | 53.25903 | 10.93310 | 86° | 49km/h | 35955m | 8m/s | -33.9°C | 0% | 5.3hPa | 2.6V | 03:03:30 | 02:12:11 | 00:00:00 | |
| SONCRA | 2026-08-31 00:57:01 | 53.25895 | 10.93262 | 64° | 68km/h | 35945m | 3.2m/s | -33.9°C | 0.0% | 5.3hPa | 2.6V | 00:00:00 | 00:00:00 | 00:00:00 | |
| DL1XH-15 | 2026-08-31 00:57:00 | 53.25841 | 10.93215 | 329° | 44km/h | 35920m | 7.6m/s | -34°C | 1.3% | 5.3hPa | 2.6V | 03:03:11 | 02:12:04 | 00:00:00 | |
| DL1XH-west | 2026-08-31 00:56:57 | 53.25863 | 10.93211 | 17° | 49km/h | 35934m | 5.4m/s | -34°C | 0% | 5.3hPa | 2.6V | 03:03:30 | 02:12:06 | 00:00:00 | |
| DF8AY | 2026-08-31 00:56:56 | 53.25852 | 10.93209 | 354° | 46km/h | 35928m | 7.6m/s | -34°C | 0% | 5.3hPa | 2.6V | 03:03:30 | 02:12:05 | 00:00:00 | |
| DB0DAN | 2026-08-31 00:56:55 | 53.25841 | 10.93215 | 330° | 42km/h | 35920m | 7.6m/s | -34°C | 0.1% | 5.3hPa | 2.6V | 00:00:00 | 00:00:00 | 00:00:00 | |
| HSKMA3-T | 2026-08-31 00:56:55 | 53.25841 | 10.93215 | 330° | 44km/h | 35920m | 7.6m/s | -34°C | 0% | 5.3hPa | 2.6V | 03:03:30 | 02:12:04 | 00:00:00 | |
| DF7PN | 2026-08-31 00:56:55 | 53.25825 | 10.93252 | 287° | 18km/h | 35909m | 0.9m/s | -34.1°C | 0.0% | 5.3hPa | 2.6V | 00:00:00 | 00:00:00 | 00:00:00 | |
| DO2SHX-10 | 2026-08-31 00:56:54 | 53.25832 | 10.93227 | 309° | 33km/h | 35915m | 5.4m/s | -34.0°C | 1.3% | 5.2hPa | 2.6V | 00:00:00 | 02:12:03 | 00:00:00 | |
| DL1XH1-15 | 2026-08-31 00:56:53 | 53.25822 | 10.93239 | 78° | 40km/h | 35895m | 8.9m/s | -34.2°C | 1.4% | 5.3hPa | 2.6V | 03:03:17 | 02:11:58 | 00:00:00 | |
| DM0DOS-11 | 2026-08-31 00:56:53 | 53.25825 | 10.93252 | 287° | 18km/h | 35908m | 0.9m/s | -34.1°C | 1.3% | 5.3hPa | 2.6V | 03:03:14 | 02:12:01 | 00:00:00 | |
| AA1-15 | 2026-08-31 00:56:52 | 53.25825 | 10.93252 | 288° | 18km/h | 35908m | 0.9m/s | -34.1°C | 0% | 5.3hPa | 2.6V | 03:03:30 | 02:12:01 | 00:00:00 | |
| DL1XH-west | 2026-08-31 00:56:47 | 53.25812 | 10.93193 | 66° | 73km/h | 35878m | 6m/s | -34.3°C | 0% | 5.3hPa | 2.6V | 03:03:30 | 02:11:56 | 00:00:00 | |
| DF8AY | 2026-08-31 00:56:46 | 53.25804 | 10.93165 | 59° | 77km/h | 35874m | 2.3m/s | -34.3°C | 0% | 5.3hPa | 2.6V | 03:03:30 | 02:11:55 | 00:00:00 | |
| HSKMA3-T | 2026-08-31 00:56:44 | 53.25781 | 10.93125 | 33° | 57km/h | 35869m | 3.2m/s | -34.3°C | 0% | 5.3hPa | 2.6V | 03:03:30 | 02:11:53 | 00:00:00 | |
| AA1-15 | 2026-08-31 00:56:42 | 53.25760 | 10.93115 | 350° | 38km/h | 35858m | 8.4m/s | -34.4°C | 0% | 5.3hPa | 2.5V | 03:03:30 | 02:11:51 | 00:00:00 | |
| DO2SHX-10 | 2026-08-31 00:56:41 | 53.25751 | 10.93121 | 321° | 33km/h | 35850m | 8.0m/s | -34.3°C | 1.4% | 5.3hPa | 2.6V | 03:03:00 | 02:11:50 | 00:00:00 | |
| DL1XH-15 | 2026-08-31 00:56:40 | 53.25736 | 10.93127 | 72° | 49km/h | 35821m | 8m/s | -34.4°C | 1.4% | 5.4hPa | 2.6V | 03:03:31 | 02:11:44 | 00:00:00 | |
| BIOWL9-15 | 2026-08-31 00:56:40 | 53.25743 | 10.93144 | 285° | 26km/h | 35839m | 2.6m/s | -34.4°C | 0.1% | 5.3hPa | 2.6V | 00:00:00 | 00:00:00 | 00:00:00 | |
| SP3BTT-10 | 2026-08-31 00:56:39 | 53.25743 | 10.93144 | 286° | 42km/h | 35839m | 2.6m/s | -34.3°C | 1.4% | 5.3hPa | 2.6V | 00:00:00 | 00:00:00 | 00:00:00 | |
| DO2SHX-10 | 2026-08-31 00:56:38 | 53.25742 | 10.93151 | 289° | 40km/h | 35836m | 2.0m/s | -34.3°C | 1.3% | 5.3hPa | 2.6V | 00:00:00 | 02:11:47 | 00:00:00 | |
| DM0DOS-11 | 2026-08-31 00:56:37 | 53.25710 | 10.93051 | 49° | 78km/h | 35803m | 2.8m/s | -34.4°C | 1.4% | 5.4hPa | 2.6V | 03:03:34 | 02:11:41 | 00:00:00 | |
| DL1XH-west | 2026-08-31 00:56:37 | 53.25741 | 10.93151 | 70° | 11km/h | 35833m | 3.2m/s | -34.4°C | 0% | 5.4hPa | 2.6V | 03:03:30 | 02:11:46 | 00:00:00 | |
| DF8AY | 2026-08-31 00:56:35 | 53.25736 | 10.93127 | 72° | 49km/h | 35821m | 8m/s | -34.4°C | 0% | 5.4hPa | 2.6V | 03:04:21 | 02:11:44 | 00:00:00 | |
| DL1XH1-15 | 2026-08-31 00:56:35 | 53.25669 | 10.93010 | 7° | 49km/h | 35793m | 5.7m/s | -34.5°C | 1.4% | 5.4hPa | 2.6V | 03:03:37 | 02:11:38 | 00:00:00 | |
| HSKMA3-T | 2026-08-31 00:56:34 | 53.25731 | 10.93104 | 65° | 66km/h | 35814m | 7.4m/s | -34.4°C | 0% | 5.4hPa | 2.6V | 03:04:21 | 02:11:43 | 00:00:00 | |
| AA1-15 | 2026-08-31 00:56:32 | 53.25669 | 10.93010 | 7° | 49km/h | 35793m | 5.7m/s | -34.5°C | 0% | 5.4hPa | 2.6V | 03:04:21 | 02:11:38 | 00:00:00 | |
| SONDE2-11 | 2026-08-31 00:56:32 | 53.25697 | 10.93030 | 37° | 69km/h | 35801m | 2.2m/s | -34.4°C | 0.1% | 5.3hPa | 2.6V | 00:00:00 | 00:00:00 | 00:00:00 | |
| DL1XH-15 | 2026-08-31 00:56:31 | 53.25643 | 10.93038 | 276° | 18km/h | 35767m | 3.9m/s | -34.7°C | 1.4% | 5.4hPa | 2.6V | 03:03:41 | 02:11:34 | 00:00:00 | |
| SP3WXH-11 | 2026-08-31 00:56:31 | 53.25669 | 10.93010 | 7° | 47km/h | 35793m | 5.7m/s | -34.5°C | 0.1% | 5.4hPa | 2.6V | 00:00:00 | 00:00:00 | 00:00:00 | |
| GOEST3-10 | 2026-08-31 00:56:30 | 53.25669 | 10.93010 | 8° | 35km/h | 35794m | 5.6m/s | -34.4°C | 1.4% | 5.3hPa | 2.6V | 00:00:00 | 02:11:38 | 00:00:00 | |
| DD8BA-10 | 2026-08-31 00:56:29 | 53.25669 | 10.93010 | 8° | 33km/h | 35794m | 5.6m/s | -34.4°C | 1.4% | 5.3hPa | 2.6V | 03:03:00 | 00:00:00 | 00:00:00 | |
| SP6BVK | 2026-08-31 00:56:28 | 53.25669 | 10.93010 | 8° | 49km/h | 35794m | 5.7m/s | -34.5°C | 0.1% | 5.4hPa | 2.6V | 03:04:00 | 00:00:00 | 00:00:00 | |
| DM0DOS-11 | 2026-08-31 00:56:27 | 53.25642 | 10.93033 | 83° | 29km/h | 35756m | 5m/s | -34.8°C | 1.4% | 5.4hPa | 2.6V | 03:03:44 | 02:11:31 | 00:00:00 | |
| DL1XH-west | 2026-08-31 00:56:26 | 53.25645 | 10.93029 | 297° | 29km/h | 35772m | 5.7m/s | -34.6°C | 0% | 5.4hPa | 2.6V | 03:04:21 | 02:11:35 | 00:00:00 | |
| DF8AY | 2026-08-31 00:56:25 | 53.25643 | 10.93038 | 277° | 18km/h | 35767m | 3.9m/s | -34.7°C | 0% | 5.4hPa | 2.6V | 03:04:21 | 02:11:34 | 00:00:00 | |
| BIOWL1-15 | 2026-08-31 00:56:25 | 53.25642 | 10.93043 | 280° | 4km/h | 35764m | 2.9m/s | -34.7°C | 0% | 5.4hPa | 2.5V | 03:04:21 | 02:11:33 | 00:00:00 | |
| DF7PN | 2026-08-31 00:56:24 | 53.25642 | 10.93041 | 94° | 11km/h | 35761m | 3.6m/s | -34.7°C | 0.1% | 5.4hPa | 2.6V | 00:00:00 | 00:00:00 | 00:00:00 | |
| DL1XH1-15 | 2026-08-31 00:56:23 | 53.25621 | 10.92980 | 42° | 69km/h | 35740m | 4.5m/s | -34.9°C | 1.4% | 5.4hPa | 2.6V | 03:03:47 | 02:11:28 | 00:00:00 | |
| HSKMA3-T | 2026-08-31 00:56:23 | 53.25642 | 10.93041 | 94° | 11km/h | 35760m | 3.6m/s | -34.7°C | 0% | 5.4hPa | 2.5V | 03:04:21 | 02:11:32 | 00:00:00 | |
| AA1-15 | 2026-08-31 00:56:21 | 53.25639 | 10.93018 | 65° | 44km/h | 35751m | 6.3m/s | -34.8°C | 0% | 5.4hPa | 2.6V | 03:04:21 | 02:11:30 | 00:00:00 | |
| SO1NDE-10 | 2026-08-31 00:56:21 | 53.25639 | 10.93018 | 66° | 47km/h | 35752m | 6.2m/s | -34.8°C | 1.4% | 5.4hPa | 2.6V | 00:00:00 | 02:11:30 | 00:00:00 | |
| DL1XH-15 | 2026-08-31 00:56:20 | 53.25558 | 10.92952 | 342° | 60km/h | 35720m | 6.8m/s | -34.9°C | 1.4% | 5.4hPa | 2.6V | 03:03:51 | 02:11:24 | 00:00:00 | |
| DD8BA-10 | 2026-08-31 00:56:19 | 53.25621 | 10.92980 | 43° | 47km/h | 35741m | 4.4m/s | -34.8°C | 1.4% | 5.4hPa | 2.5V | 00:00:00 | 00:00:00 | 00:00:00 | |
| DO2SHX-10 | 2026-08-31 00:56:18 | 53.25607 | 10.92962 | 30° | 69km/h | 35736m | 4.3m/s | -34.8°C | 1.4% | 5.4hPa | 2.5V | 03:03:00 | 02:11:27 | 00:00:00 | |
| DM0DOS-11 | 2026-08-31 00:56:16 | 53.25532 | 10.92990 | 288° | 31km/h | 35702m | 4.5m/s | -35.1°C | 1.4% | 5.5hPa | 2.5V | 03:03:54 | 02:11:21 | 00:00:00 | |
| DL1NUX | 2026-08-31 00:56:16 | 53.25531 | 10.92999 | 276° | 16km/h | 35698m | 4.3m/s | -35.1°C | 1.4% | 5.5hPa | 2.6V | 03:03:55 | 02:11:20 | 00:00:00 | |
| DL1XH-west | 2026-08-31 00:56:15 | 53.25558 | 10.92952 | 342° | 60km/h | 35720m | 6.8m/s | -34.9°C | 0% | 5.4hPa | 2.6V | 03:04:21 | 02:11:24 | 00:00:00 | |
| HSKMA3-T | 2026-08-31 00:56:12 | 53.25532 | 10.92990 | 289° | 31km/h | 35702m | 4.5m/s | -35.1°C | 0% | 5.5hPa | 2.5V | 03:04:21 | 02:11:21 | 00:00:00 | |
| AA1-15 | 2026-08-31 00:56:11 | 53.25531 | 10.92999 | 276° | 16km/h | 35698m | 4.3m/s | -35.1°C | 0% | 5.5hPa | 2.6V | 03:04:21 | 02:11:20 | 00:00:00 | |
| DL1XH-15 | 2026-08-31 00:56:10 | 53.25499 | 10.92948 | 19° | 66km/h | 35668m | 4.2m/s | -35.6°C | 1.5% | 5.5hPa | 2.6V | 03:04:01 | 02:11:14 | 00:00:00 | |
| DL1XH1-15 | 2026-08-31 00:56:10 | 53.25531 | 10.92998 | 78° | 18km/h | 35687m | 6.2m/s | -35.3°C | 1.4% | 5.5hPa | 2.6V | 03:03:57 | 02:11:18 | 00:00:00 | |
| DL1XH-west | 2026-08-31 00:56:05 | 53.25499 | 10.92948 | 20° | 66km/h | 35668m | 4.2m/s | -35.6°C | 0% | 5.5hPa | 2.6V | 03:04:21 | 02:11:14 | 00:00:00 | |
| DF7ER-10 | 2026-08-31 00:56:05 | 53.25499 | 10.92948 | 20° | 66km/h | 35668m | 4.2m/s | -35.6°C | 0.1% | 5.5hPa | 2.6V | 03:04:00 | 00:00:00 | 00:00:00 | |
| DL1XH1-15 | 2026-08-31 00:56:04 | 53.25417 | 10.93016 | 282° | 20km/h | 35633m | 5.2m/s | -35.9°C | 1.5% | 5.5hPa | 2.6V | 03:04:08 | 02:11:07 | 00:00:00 | |
| DF8AY | 2026-08-31 00:56:04 | 53.25483 | 10.92942 | 4° | 68km/h | 35663m | 5.6m/s | -35.7°C | 0% | 5.5hPa | 2.6V | 03:04:21 | 02:11:13 | 00:00:00 | |
| DM0DOS-11 | 2026-08-31 00:56:04 | 53.25449 | 10.92954 | 332° | 69km/h | 35650m | 6.2m/s | -35.8°C | 1.5% | 5.5hPa | 2.6V | 03:04:04 | 02:11:11 | 00:00:00 | |
| DO2SHX-10 | 2026-08-31 00:56:03 | 53.25465 | 10.92944 | 349° | 68km/h | 35657m | 6.6m/s | -35.7°C | 1.5% | 5.5hPa | 2.6V | 00:00:00 | 02:11:12 | 00:00:00 | |
| DL1NUX | 2026-08-31 00:56:02 | 53.25435 | 10.92971 | 317° | 66km/h | 35644m | 4.5m/s | -35.8°C | 1.5% | 5.5hPa | 2.6V | 03:04:05 | 02:11:10 | 00:00:00 | |
| HSKMA3-T | 2026-08-31 00:56:02 | 53.25449 | 10.92954 | 332° | 69km/h | 35650m | 6.2m/s | -35.8°C | 0% | 5.5hPa | 2.6V | 03:04:21 | 02:11:11 | 00:00:00 | |
| BIOWL1-15 | 2026-08-31 00:56:02 | 53.25425 | 10.92989 | 306° | 49km/h | 35640m | 3.1m/s | -35.8°C | 0% | 5.5hPa | 2.5V | 03:04:21 | 02:11:09 | 00:00:00 | |
| AA1-15 | 2026-08-31 00:56:02 | 53.25417 | 10.93016 | 283° | 20km/h | 35634m | 5.2m/s | -35.9°C | 0% | 5.5hPa | 2.6V | 03:04:21 | 02:11:07 | 00:00:00 | |
| SONDE2-11 | 2026-08-31 00:56:01 | 53.25425 | 10.92989 | 306° | 49km/h | 35640m | 3.1m/s | -35.8°C | 0.1% | 5.5hPa | 2.6V | 00:00:00 | 00:00:00 | 00:00:00 | |
| SONCRA | 2026-08-31 00:55:59 | 53.25417 | 10.93016 | 282° | 20km/h | 35634m | 5.2m/s | -35.9°C | 0.1% | 5.5hPa | 2.6V | 00:00:00 | 00:00:00 | 00:00:00 | |
| DM0DOS-11 | 2026-08-31 00:55:58 | 53.25401 | 10.92964 | 28° | 49km/h | 35601m | 3.8m/s | -36.1°C | 1.5% | 5.5hPa | 2.6V | 03:04:14 | 02:11:01 | 00:00:00 | |
| DO2SHX-10 | 2026-08-31 00:55:57 | 53.25417 | 10.93021 | 229° | 18km/h | 35627m | 7.2m/s | -35.9°C | 1.5% | 5.5hPa | 2.6V | 00:00:00 | 02:11:06 | 00:00:00 | |
| DL1NUX | 2026-08-31 00:55:56 | 53.25389 | 10.92957 | 9° | 53km/h | 35596m | 5.8m/s | -36.1°C | 1.5% | 5.5hPa | 2.6V | 03:04:15 | 02:11:00 | 00:00:00 | |
| DB0DAN | 2026-08-31 00:55:55 | 53.25418 | 10.93007 | 86° | 31km/h | 35613m | 5.9m/s | -36°C | 0.1% | 5.54hPa | 2.6V | 00:00:00 | 00:00:00 | 00:00:00 | |
| DL1XH-west | 2026-08-31 00:55:54 | 53.25415 | 10.92992 | 69° | 42km/h | 35608m | 4m/s | -36°C | 0% | 5.6hPa | 2.5V | 03:04:21 | 02:11:03 | 00:00:00 | |
| DO2SHX-10 | 2026-08-31 00:55:54 | 53.25415 | 10.92992 | 70° | 46km/h | 35608m | 4.0m/s | -36.0°C | 1.5% | 5.5hPa | 2.5V | 03:04:00 | 02:11:03 | 00:00:00 | |
| DL1XH1-15 | 2026-08-31 00:55:53 | 53.25346 | 10.92979 | 323° | 66km/h | 35576m | 5.9m/s | -36.1°C | 1.5% | 5.5hPa | 2.5V | 03:04:18 | 02:10:57 | 00:00:00 | |
| HSKMA3-T | 2026-08-31 00:55:51 | 53.25389 | 10.92958 | 9° | 53km/h | 35596m | 5.8m/s | -36.1°C | 0% | 5.5hPa | 2.6V | 03:04:21 | 02:11:00 | 00:00:00 | |
| DO2SHX-10 | 2026-08-31 00:55:51 | 53.25389 | 10.92958 | 10° | 58km/h | 35596m | 5.8m/s | -36.0°C | 1.5% | 5.5hPa | 2.6V | 00:00:00 | 02:11:00 | 00:00:00 | |
| DL1XH-15 | 2026-08-31 00:55:50 | 53.25322 | 10.93028 | 291° | 29km/h | 35563m | 4.7m/s | -36.2°C | 1.5% | 5.6hPa | 2.6V | 03:04:21 | 02:10:54 | 00:00:00 | |
| BIOWL1-15 | 2026-08-31 00:55:50 | 53.25334 | 10.92996 | 312° | 58km/h | 35571m | 3.8m/s | -36.1°C | 0% | 5.6hPa | 2.6V | 03:04:21 | 02:10:56 | 00:00:00 | |
| AA1-15 | 2026-08-31 00:55:49 | 53.25346 | 10.92979 | 323° | 66km/h | 35576m | 5.9m/s | -36.1°C | 0% | 5.5hPa | 2.5V | 03:04:21 | 02:10:57 | 00:00:00 | |
| DL1XH-west | 2026-08-31 00:55:44 | 53.25321 | 10.93037 | 270° | 16km/h | 35557m | 6.9m/s | -36.2°C | 0% | 5.6hPa | 2.6V | 03:05:12 | 02:10:53 | 00:00:00 | |
| DM0DOS-11 | 2026-08-31 00:55:43 | 53.25325 | 10.93036 | 121° | 22km/h | 35543m | 6.2m/s | -36.2°C | 1.5% | 5.6hPa | 2.5V | 03:04:24 | 02:10:51 | 00:00:00 | |
| DL1XH1-15 | 2026-08-31 00:55:43 | 53.25316 | 10.92995 | 17° | 35km/h | 35529m | 4.6m/s | -36.1°C | 1.5% | 5.6hPa | 2.6V | 03:04:28 | 02:10:47 | 00:00:00 | |
| DL1NUX | 2026-08-31 00:55:42 | 53.25327 | 10.93025 | 100° | 29km/h | 35538m | 4.1m/s | -36.2°C | 1.5% | 5.6hPa | 2.6V | 03:04:25 | 02:10:50 | 00:00:00 | |
| HSKMA3-T | 2026-08-31 00:55:41 | 53.25327 | 10.93025 | 101° | 29km/h | 35538m | 4.1m/s | -36.2°C | 0% | 5.6hPa | 2.6V | 03:05:12 | 02:10:50 | 00:00:00 | |
| DB0DAN | 2026-08-31 00:55:40 | 53.25327 | 10.93013 | 78° | 29km/h | 35535m | 1.9m/s | -36.2°C | 0.1% | 5.6hPa | 2.6V | 00:00:00 | 00:00:00 | 00:00:00 | |
| BIOWL1-15 | 2026-08-31 00:55:39 | 53.25323 | 10.93002 | 47° | 31km/h | 35532m | 2.5m/s | -36.1°C | 0% | 5.6hPa | 2.6V | 03:05:12 | 02:10:48 | 00:00:00 | |
| AA1-15 | 2026-08-31 00:55:38 | 53.25306 | 10.92994 | 352° | 44km/h | 35523m | 7.3m/s | -36.1°C | 0% | 5.6hPa | 2.6V | 03:05:12 | 02:10:46 | 00:00:00 | |
| DL1NUX | 2026-08-31 00:55:37 | 53.25239 | 10.93079 | 300° | 27km/h | 35495m | 4.7m/s | -36.1°C | 1.5% | 5.6hPa | 2.6V | 03:04:35 | 02:10:40 | 00:00:00 | |
| DL1XH-west | 2026-08-31 00:55:33 | 53.25253 | 10.93050 | 313° | 62km/h | 35500m | 2m/s | -36°C | 0% | 5.6hPa | 2.6V | 03:05:12 | 02:10:42 | 00:00:00 | |
| HSKMA3-T | 2026-08-31 00:55:30 | 53.25237 | 10.93086 | 278° | 11km/h | 35489m | 7.4m/s | -36.1°C | 0% | 5.6hPa | 2.5V | 03:05:12 | 02:10:39 | 00:00:00 | |
| AA1-15 | 2026-08-31 00:55:28 | 53.25246 | 10.93074 | 125° | 31km/h | 35466m | 5m/s | -36.1°C | 0% | 5.7hPa | 2.6V | 03:05:12 | 02:10:36 | 00:00:00 | |
| SONCRA | 2026-08-31 00:55:28 | 53.25246 | 10.93074 | 124° | 29km/h | 35466m | 5.0m/s | -36.1°C | 0.1% | 5.7hPa | 2.6V | 00:00:00 | 00:00:00 | 00:00:00 | |
| DO2SHX-10 | 2026-08-31 00:55:27 | 53.25245 | 10.93074 | 125° | 24km/h | 35466m | 4.9m/s | -36.0°C | 1.5% | 5.6hPa | 2.6V | 00:00:00 | 02:10:36 | 00:00:00 | |
| DB0DAN | 2026-08-31 00:55:25 | 53.25249 | 10.93056 | 72° | 15km/h | 35460m | 2.1m/s | -36.1°C | 0.1% | 5.68hPa | 2.6V | 00:00:00 | 00:00:00 | 00:00:00 | |
| GOEST3-10 | 2026-08-31 00:55:24 | 53.25246 | 10.93051 | 16° | 44km/h | 35457m | 3.8m/s | -36.0°C | 1.5% | 5.6hPa | 2.6V | 00:00:00 | 00:00:00 | 00:00:00 | |
| DM0DOS-11 | 2026-08-31 00:55:23 | 53.25231 | 10.93057 | 337° | 47km/h | 35445m | 7.9m/s | -36.1°C | 1.5% | 5.7hPa | 2.6V | 03:04:44 | 02:10:31 | 00:00:00 | |
| DL1XH1-15 | 2026-08-31 00:55:23 | 53.25183 | 10.93109 | 316° | 46km/h | 35425m | 1.9m/s | -35.9°C | 1.5% | 5.7hPa | 2.5V | 03:04:48 | 02:10:27 | 00:00:00 | |
| DL1XH-west | 2026-08-31 00:55:23 | 53.25240 | 10.93051 | 348° | 31km/h | 35452m | 6.4m/s | -36.1°C | 0% | 5.7hPa | 2.6V | 03:05:12 | 02:10:32 | 00:00:00 | |
| HSKMA3-T | 2026-08-31 00:55:19 | 53.25193 | 10.93095 | 323° | 58km/h | 35427m | 2.9m/s | -36°C | 0% | 5.7hPa | 2.6V | 03:05:12 | 02:10:28 | 00:00:00 | |
| GOEST3-10 | 2026-08-31 00:55:19 | 53.25193 | 10.93095 | 324° | 31km/h | 35427m | 2.9m/s | -35.9°C | 1.5% | 5.6hPa | 2.5V | 00:00:00 | 02:10:28 | 00:00:00 | |
| DO2SHX-10 | 2026-08-31 00:55:18 | 53.25182 | 10.93109 | 317° | 31km/h | 35425m | 1.8m/s | -35.9°C | 1.5% | 5.6hPa | 2.5V | 03:04:00 | 02:10:27 | 00:00:00 | |
| DM0DOS-11 | 2026-08-31 00:55:17 | 53.25188 | 10.93129 | 168° | 22km/h | 35391m | 3.6m/s | -35.9°C | 1.5% | 5.7hPa | 2.5V | 03:04:54 | 02:10:21 | 00:00:00 | |
| AA1-15 | 2026-08-31 00:55:17 | 53.25173 | 10.93128 | 294° | 15km/h | 35417m | 6.1m/s | -35.9°C | 0% | 5.7hPa | 2.6V | 03:05:12 | 02:10:25 | 00:00:00 | |
| DL1NUX | 2026-08-31 00:55:16 | 53.25192 | 10.93128 | 179° | 13km/h | 35388m | 3.1m/s | -35.9°C | 1.5% | 5.7hPa | 2.5V | 03:04:55 | 02:10:20 | 00:00:00 | |
| DL1XH-west | 2026-08-31 00:55:12 | 53.25188 | 10.93129 | 168° | 22km/h | 35391m | 3.6m/s | -35.9°C | 0% | 5.7hPa | 2.5V | 03:05:12 | 02:10:21 | 00:00:00 | |
| DO2SHX-10 | 2026-08-31 00:55:12 | 53.25188 | 10.93129 | 169° | 13km/h | 35392m | 3.6m/s | -35.8°C | 1.5% | 5.6hPa | 2.6V | 00:00:00 | 02:10:21 | 00:00:00 | |
| HTAHTA | 2026-08-31 00:55:11 | 53.25187 | 10.93140 | 324° | 33km/h | 35374m | 7.1m/s | -35.8°C | 0.1% | 5.7hPa | 2.6V | 00:00:00 | 00:00:00 | 00:00:00 | |
| DL1XH-15 | 2026-08-31 00:55:10 | 53.25156 | 10.93170 | 333° | 51km/h | 35356m | 3.9m/s | -35.8°C | 1.5% | 5.8hPa | 2.6V | 03:05:01 | 02:10:14 | 00:00:00 | |
| DL1XH1-15 | 2026-08-31 00:55:10 | 53.25187 | 10.93140 | 324° | 33km/h | 35374m | 7.1m/s | -35.8°C | 1.5% | 5.7hPa | 2.6V | 03:04:58 | 02:10:17 | 00:00:00 | |
| HSKMA3-T | 2026-08-31 00:55:09 | 53.25192 | 10.93134 | 317° | 20km/h | 35381m | 5.9m/s | -35.9°C | 0% | 5.7hPa | 2.6V | 03:05:12 | 02:10:18 | 00:00:00 | |
| AA1-15 | 2026-08-31 00:55:07 | 53.25156 | 10.93170 | 333° | 51km/h | 35356m | 3.9m/s | -35.8°C | 0% | 5.8hPa | 2.6V | 03:05:12 | 02:10:14 | 00:00:00 | |
| BIOWL9-15 | 2026-08-31 00:55:07 | 53.25168 | 10.93160 | 331° | 51km/h | 35361m | 5.9m/s | -35.8°C | 0.1% | 5.7hPa | 2.6V | 00:00:00 | 00:00:00 | 00:00:00 | |
| DL1NUX | 2026-08-31 00:55:06 | 53.25130 | 10.93196 | 283° | 11km/h | 35339m | 6m/s | -35.6°C | 1.5% | 5.7hPa | 2.6V | 03:05:05 | 02:10:10 | 00:00:00 | |
| DO2SHX-10 | 2026-08-31 00:55:06 | 53.25168 | 10.93160 | 332° | 49km/h | 35361m | 5.8m/s | -35.8°C | 1.5% | 5.7hPa | 2.5V | 03:05:00 | 02:10:15 | 00:00:00 | |
| DL4BBY-15 | 2026-08-31 00:55:05 | 53.25156 | 10.93169 | 334° | 24km/h | 35356m | 3.9m/s | -36.3°C | 0% | 0hPa | 2.6V | 00:00:00 | 00:00:00 | 00:00:00 | |
| DO3MHA-11 | 2026-08-31 00:55:04 | 53.25146 | 10.93179 | 335° | 35km/h | 35353m | 3.3m/s | -35.7°C | 1.5% | 5.7hPa | 2.6V | 00:00:00 | 02:10:13 | 00:00:00 | |
| DM0DOS-11 | 2026-08-31 00:55:03 | 53.25132 | 10.93191 | 323° | 18km/h | 35344m | 5m/s | -35.6°C | 1.5% | 5.8hPa | 2.6V | 03:05:04 | 02:10:11 | 00:00:00 | |
| DL1XH1-15 | 2026-08-31 00:55:03 | 53.25138 | 10.93212 | 226° | 27km/h | 35322m | 4.7m/s | -35.6°C | 1.5% | 5.8hPa | 2.6V | 03:05:08 | 02:10:07 | 00:00:00 | |
| DL1XH-west | 2026-08-31 00:55:01 | 53.25130 | 10.93196 | 283° | 11km/h | 35339m | 6m/s | -35.6°C | 0% | 5.7hPa | 2.6V | 03:05:12 | 02:10:10 | 00:00:00 | |
| DL1XH-15 | 2026-08-31 00:55:00 | 53.25146 | 10.93247 | 275° | 35km/h | 35308m | 5m/s | -35.5°C | 1.5% | 5.8hPa | 2.6V | 03:05:11 | 02:10:04 | 00:00:00 | |
| HSKMA3-T | 2026-08-31 00:54:59 | 53.25134 | 10.93205 | 217° | 22km/h | 35327m | 5.1m/s | -35.6°C | 0% | 5.8hPa | 2.6V | 03:05:12 | 02:10:08 | 00:00:00 | |
| DF8AY-15 | 2026-08-31 00:54:58 | 53.25138 | 10.93212 | 227° | 26km/h | 35322m | 4.7m/s | -35.5°C | 1.5% | 5.7hPa | 2.6V | 00:00:00 | 02:10:07 | 00:00:00 | |
| DM0DOS-11 | 2026-08-31 00:54:57 | 53.25134 | 10.93285 | 317° | 31km/h | 35293m | 4.8m/s | -35.5°C | 1.5% | 5.8hPa | 2.6V | 03:05:14 | 02:10:01 | 00:00:00 | |
| DL1NUX | 2026-08-31 00:54:56 | 53.25129 | 10.93291 | 334° | 26km/h | 35288m | 6.1m/s | -35.5°C | 1.5% | 5.8hPa | 2.6V | 03:05:15 | 02:10:00 | 00:00:00 | |
| SP3WXH-11 | 2026-08-31 00:54:56 | 53.25145 | 10.93233 | 257° | 29km/h | 35313m | 5.1m/s | -35.5°C | 0.1% | 5.8hPa | 2.6V | 00:00:00 | 00:00:00 | 00:00:00 | |
| DB0DAN | 2026-08-31 00:54:55 | 53.25146 | 10.93247 | 275° | 33km/h | 35308m | 5m/s | -35.5°C | 0.1% | 5.78hPa | 2.6V | 00:00:00 | 00:00:00 | 00:00:00 | |
| BIOWL1-15 | 2026-08-31 00:54:54 | 53.25144 | 10.93261 | 291° | 35km/h | 35303m | 5m/s | -35.5°C | 0% | 5.8hPa | 2.5V | 03:05:12 | 02:10:03 | 00:00:00 | |
| DL1XH-west | 2026-08-31 00:54:51 | 53.25129 | 10.93292 | 334° | 26km/h | 35288m | 6.1m/s | -35.5°C | 0% | 5.8hPa | 2.6V | 03:06:03 | 02:10:00 | 00:00:00 | |
| SO1NDE-10 | 2026-08-31 00:54:51 | 53.25129 | 10.93292 | 335° | 22km/h | 35288m | 6.0m/s | -35.5°C | 1.5% | 5.8hPa | 2.6V | 00:00:00 | 02:10:00 | 00:00:00 | |
| DL1XH-15 | 2026-08-31 00:54:50 | 53.25123 | 10.93289 | 219° | 11km/h | 35256m | 4.3m/s | -35.7°C | 1.5% | 5.8hPa | 2.6V | 03:05:21 | 02:09:54 | 00:00:00 | |
| HSKMA3-T | 2026-08-31 00:54:48 | 53.25119 | 10.93292 | 80° | 7km/h | 35270m | 5.5m/s | -35.6°C | 0% | 5.8hPa | 2.5V | 03:06:03 | 02:09:57 | 00:00:00 | |
| S3001 | 2026-08-31 00:54:47 | 53.25119 | 10.93289 | 126° | 7km/h | 35265m | 4.9m/s | -35.6°C | 0.1% | 5.8hPa | 2.6V | 00:00:00 | 00:00:00 | 00:00:00 | |
| DC4HF-4 | 2026-08-31 00:54:45 | 53.25125 | 10.93294 | 249° | 18km/h | 35252m | 5.1m/s | -35.7°C | 0.1% | 5.8hPa | 2.6V | 00:00:00 | 00:00:00 | 00:00:00 | |
| BIOWL1-15 | 2026-08-31 00:54:44 | 53.25126 | 10.93303 | 268° | 27km/h | 35246m | 6.1m/s | -35.8°C | 0% | 5.8hPa | 2.6V | 03:06:03 | 02:09:52 | 00:00:00 | |
| SP6BVK | 2026-08-31 00:54:44 | 53.25125 | 10.93294 | 251° | 18km/h | 35252m | 5.1m/s | -35.7°C | 0.1% | 5.8hPa | 2.5V | 03:06:00 | 00:00:00 | 00:00:00 | |
| DM0DOS-11 | 2026-08-31 00:54:43 | 53.25125 | 10.93316 | 279° | 35km/h | 35240m | 6.3m/s | -35.8°C | 1.5% | 5.8hPa | 2.5V | 03:05:24 | 02:09:51 | 00:00:00 | |
| GOEST3-10 | 2026-08-31 00:54:43 | 53.25126 | 10.93303 | 269° | 33km/h | 35246m | 6.1m/s | -35.7°C | 1.5% | 5.8hPa | 2.6V | 00:00:00 | 00:00:00 | 00:00:00 | |
| DL1NUX | 2026-08-31 00:54:42 | 53.25123 | 10.93332 | 287° | 40km/h | 35235m | 5m/s | -35.8°C | 1.5% | 5.9hPa | 2.6V | 03:05:25 | 02:09:50 | 00:00:00 | |
| DL1XH-west | 2026-08-31 00:54:41 | 53.25123 | 10.93332 | 287° | 40km/h | 35235m | 5.1m/s | -35.8°C | 0% | 5.9hPa | 2.6V | 03:06:03 | 02:09:50 | 00:00:00 | |
| DF8AY | 2026-08-31 00:54:40 | 53.25120 | 10.93347 | 290° | 37km/h | 35230m | 3.9m/s | -35.7°C | 0% | 5.8hPa | 2.6V | 03:06:03 | 02:09:49 | 00:00:00 | |
| DL1XH1-15 | 2026-08-31 00:54:40 | 53.25116 | 10.93371 | 283° | 20km/h | 35222m | 4.9m/s | -35.7°C | 1.5% | 5.9hPa | 2.6V | 03:05:28 | 02:09:47 | 00:00:00 | |
| DB0DAN | 2026-08-31 00:54:40 | 53.25120 | 10.93347 | 290° | 35km/h | 35230m | 3.9m/s | -35.7°C | 0.1% | 5.84hPa | 2.6V | 00:00:00 | 00:00:00 | 00:00:00 | |
| HSKMA3-T | 2026-08-31 00:54:38 | 53.25116 | 10.93370 | 283° | 20km/h | 35222m | 4.9m/s | -35.7°C | 0% | 5.9hPa | 2.6V | 03:06:03 | 02:09:47 | 00:00:00 | |
| GOEST3-10 | 2026-08-31 00:54:38 | 53.25116 | 10.93370 | 284° | 15km/h | 35223m | 4.8m/s | -35.6°C | 1.5% | 5.8hPa | 2.6V | 00:00:00 | 02:09:47 | 00:00:00 | |
| DM0DOS-11 | 2026-08-31 00:54:37 | 53.25130 | 10.93374 | 209° | 11km/h | 35192m | 4m/s | -35.6°C | 1.5% | 5.9hPa | 2.6V | 03:05:34 | 02:09:41 | 00:00:00 | |
| AA1-15 | 2026-08-31 00:54:34 | 53.25131 | 10.93374 | 209° | 11km/h | 35192m | 4m/s | -35.6°C | 0% | 5.9hPa | 2.6V | 03:06:03 | 02:09:41 | 00:00:00 | |
| DL1XH-west | 2026-08-31 00:54:31 | 53.25132 | 10.93379 | 255° | 15km/h | 35187m | 5.9m/s | -35.6°C | 0% | 5.9hPa | 2.6V | 03:06:03 | 02:09:40 | 00:00:00 | |
| DF8AY | 2026-08-31 00:54:30 | 53.25132 | 10.93387 | 277° | 24km/h | 35180m | 6.9m/s | -35.5°C | 0% | 5.9hPa | 2.5V | 03:06:03 | 02:09:39 | 00:00:00 | |
| DL1XH1-15 | 2026-08-31 00:54:30 | 53.25128 | 10.93414 | 284° | 42km/h | 35168m | 4.6m/s | -35.5°C | 1.5% | 5.9hPa | 2.6V | 03:05:38 | 02:09:37 | 00:00:00 | |
| HSKMA3-T | 2026-08-31 00:54:27 | 53.25126 | 10.93431 | 280° | 40km/h | 35164m | 3.1m/s | -35.5°C | 0% | 5.9hPa | 2.6V | 03:06:03 | 02:09:36 | 00:00:00 | |
| DO2SHX-10 | 2026-08-31 00:54:27 | 53.25126 | 10.93431 | 280° | 33km/h | 35164m | 3.1m/s | -35.4°C | 1.5% | 5.9hPa | 2.5V | 00:00:00 | 02:09:36 | 00:00:00 | |
| DB0UT-7 | 2026-08-31 00:54:26 | 53.25125 | 10.93446 | 271° | 26km/h | 35161m | 3.1m/s | -35.4°C | 1.5% | 5.9hPa | 2.5V | 00:00:00 | 02:09:35 | 00:00:00 | |
| DO3MHA-11 | 2026-08-31 00:54:25 | 53.25126 | 10.93458 | 253° | 20km/h | 35158m | 4.5m/s | -35.4°C | 1.5% | 5.8hPa | 2.5V | 03:05:00 | 02:09:34 | 00:00:00 | |
| DO2SHX-10 | 2026-08-31 00:54:24 | 53.25129 | 10.93465 | 223° | 20km/h | 35152m | 6.3m/s | -35.4°C | 1.5% | 5.9hPa | 2.5V | 00:00:00 | 02:09:33 | 00:00:00 | |
| DL1XH1-15 | 2026-08-31 00:54:23 | 53.25146 | 10.93449 | 348° | 9km/h | 35121m | 5.8m/s | -35.3°C | 1.4% | 5.9hPa | 2.5V | 03:05:48 | 02:09:27 | 00:00:00 | |
| BIOWL1-15 | 2026-08-31 00:54:22 | 53.25133 | 10.93472 | 298° | 38km/h | 35103m | 4.5m/s | -35.4°C | 0% | 6hPa | 2.6V | 03:06:03 | 02:09:24 | 00:00:00 | |
| AA1-15 | 2026-08-31 00:54:22 | 53.25143 | 10.93461 | 141° | 24km/h | 35134m | 4m/s | -35.4°C | 0% | 6hPa | 2.6V | 03:06:03 | 02:09:30 | 00:00:00 | |
| DL1NUX | 2026-08-31 00:54:22 | 53.25143 | 10.93461 | 140° | 24km/h | 35134m | 4m/s | -35.4°C | 1.5% | 5.9hPa | 2.6V | 03:05:45 | 02:09:30 | 00:00:00 | |
| DL1XH-west | 2026-08-31 00:54:20 | 53.25146 | 10.93455 | 122° | 16km/h | 35130m | 3.5m/s | -35.4°C | 0% | 5.9hPa | 2.6V | 03:06:03 | 02:09:29 | 00:00:00 | |
| DF8AY | 2026-08-31 00:54:19 | 53.25147 | 10.93450 | 90° | 7km/h | 35126m | 4.2m/s | -35.4°C | 0% | 6hPa | 2.6V | 03:06:03 | 02:09:28 | 00:00:00 | |
| HSKMA3-T | 2026-08-31 00:54:17 | 53.25143 | 10.93452 | 320° | 20km/h | 35115m | 6.8m/s | -35.4°C | 0% | 6hPa | 2.6V | 03:06:03 | 02:09:26 | 00:00:00 | |
| DL1NUX | 2026-08-31 00:54:16 | 53.25133 | 10.93513 | 196° | 16km/h | 35086m | 6.2m/s | -35.5°C | 1.5% | 6hPa | 2.6V | 03:05:55 | 02:09:20 | 00:00:00 | |
| AA1-15 | 2026-08-31 00:54:11 | 53.25133 | 10.93513 | 197° | 16km/h | 35086m | 6.3m/s | -35.5°C | 0% | 6hPa | 2.6V | 03:06:03 | 02:09:20 | 00:00:00 | |
| DB0DAN | 2026-08-31 00:54:10 | 53.25138 | 10.93512 | 157° | 22km/h | 35080m | 6.4m/s | -35.5°C | 0.1% | 5.98hPa | 2.6V | 00:00:00 | 00:00:00 | 00:00:00 | |
| DL1XH1-15 | 2026-08-31 00:54:10 | 53.25146 | 10.93495 | 113° | 31km/h | 35069m | 3.8m/s | -35.6°C | 1.5% | 6hPa | 2.6V | 03:05:58 | 02:09:17 | 00:00:00 | |
| DL1XH-west | 2026-08-31 00:54:09 | 53.25143 | 10.93506 | 130° | 29km/h | 35074m | 5.4m/s | -35.6°C | 0% | 6hPa | 2.6V | 03:06:03 | 02:09:18 | 00:00:00 | |
| DF8AY | 2026-08-31 00:54:08 | 53.25147 | 10.93495 | 113° | 31km/h | 35069m | 3.8m/s | -35.6°C | 0% | 6hPa | 2.6V | 03:06:03 | 02:09:17 | 00:00:00 | |
| DL2RXE-15 | 2026-08-31 00:54:07 | 53.25148 | 10.93484 | 92° | 27km/h | 35066m | 3.1m/s | -35.6°C | 0.1% | 6.0hPa | 2.6V | 00:00:00 | 00:00:00 | 00:00:00 | |
| DL1NUX | 2026-08-31 00:54:06 | 53.25119 | 10.93497 | 288° | 35km/h | 35035m | 3.3m/s | -35.7°C | 1.5% | 6hPa | 2.6V | 03:06:05 | 02:09:10 | 00:00:00 | |
| HSKMA3-T | 2026-08-31 00:54:06 | 53.25147 | 10.93474 | 60° | 24km/h | 35062m | 4.3m/s | -35.7°C | 0% | 6hPa | 2.6V | 03:06:03 | 02:09:15 | 00:00:00 | |
| AA1-15 | 2026-08-31 00:54:01 | 53.25118 | 10.93510 | 263° | 27km/h | 35032m | 3.9m/s | -35.7°C | 0% | 6hPa | 2.5V | 03:06:54 | 02:09:09 | 00:00:00 | |
| DL1XH1-15 | 2026-08-31 00:54:00 | 53.25124 | 10.93525 | 194° | 24km/h | 35021m | 6.4m/s | -35.7°C | 1.5% | 6hPa | 2.6V | 03:06:08 | 02:09:07 | 00:00:00 | |
| BIOWL1-15 | 2026-08-31 00:53:59 | 53.25120 | 10.93519 | 232° | 24km/h | 35027m | 5.5m/s | -35.7°C | 0% | 6hPa | 2.6V | 03:06:54 | 02:09:08 | 00:00:00 | |
| DF8AY | 2026-08-31 00:53:58 | 53.25125 | 10.93525 | 195° | 24km/h | 35021m | 6.4m/s | -35.7°C | 0% | 6hPa | 2.6V | 03:06:54 | 02:09:07 | 00:00:00 | |
| GOEST3-10 | 2026-08-31 00:53:58 | 53.25125 | 10.93525 | 195° | 27km/h | 35021m | 6.4m/s | -35.7°C | 1.5% | 6.0hPa | 2.6V | 00:00:00 | 02:09:07 | 00:00:00 | |
| DL1XH-15 | 2026-08-31 00:53:57 | 53.25143 | 10.93509 | 120° | 29km/h | 35005m | 3.3m/s | -35.7°C | 1.5% | 6hPa | 2.6V | 03:06:11 | 02:09:04 | 00:00:00 | |
| HSKMA3-T | 2026-08-31 00:53:56 | 53.25138 | 10.93519 | 140° | 31km/h | 35009m | 4.7m/s | -35.7°C | 0% | 6hPa | 2.6V | 03:06:54 | 02:09:05 | 00:00:00 | |
| DB0DAN | 2026-08-31 00:53:55 | 53.25143 | 10.93509 | 121° | 27km/h | 35005m | 3.3m/s | -35.7°C | 0.1% | 6.05hPa | 2.6V | 00:00:00 | 00:00:00 | 00:00:00 | |
| SP3WXH-11 | 2026-08-31 00:53:54 | 53.25144 | 10.93499 | 91° | 22km/h | 35002m | 4.3m/s | -35.7°C | 0.1% | 6.0hPa | 2.6V | 00:00:00 | 00:00:00 | 00:00:00 | |
| SMARD9-15 | 2026-08-31 00:53:52 | 53.25138 | 10.93487 | 8° | 24km/h | 34991m | 6.6m/s | -35.7°C | 0.1% | 6.0hPa | 2.6V | 00:00:00 | 00:00:00 | 00:00:00 | |
| DO2SHX-10 | 2026-08-31 00:53:51 | 53.25131 | 10.93489 | 341° | 37km/h | 34984m | 6.4m/s | -35.7°C | 1.5% | 6.0hPa | 2.6V | 00:00:00 | 02:09:00 | 00:00:00 | |
| DL1XH-15 | 2026-08-31 00:53:50 | 53.25121 | 10.93547 | 192° | 31km/h | 34954m | 6.8m/s | -35.7°C | 1.5% | 6.1hPa | 2.6V | 03:06:21 | 02:08:54 | 00:00:00 | |
| DL1XH1-15 | 2026-08-31 00:53:50 | 53.25113 | 10.93521 | 286° | 33km/h | 34971m | 3.5m/s | -35.7°C | 1.5% | 6.1hPa | 2.6V | 03:06:18 | 02:08:57 | 00:00:00 | |
| BIOWL1-15 | 2026-08-31 00:53:49 | 53.25117 | 10.93508 | 306° | 38km/h | 34974m | 3.1m/s | -35.7°C | 0% | 6hPa | 2.6V | 03:06:54 | 02:08:58 | 00:00:00 | |
| DL1XH-west | 2026-08-31 00:53:47 | 53.25112 | 10.93533 | 259° | 27km/h | 34966m | 4.9m/s | -35.7°C | 0% | 6.1hPa | 2.6V | 03:06:54 | 02:08:56 | 00:00:00 | |
| HSKMA3-T | 2026-08-31 00:53:46 | 53.25115 | 10.93542 | 222° | 26km/h | 34961m | 6.2m/s | -35.7°C | 0% | 6.1hPa | 2.6V | 03:06:54 | 02:08:55 | 00:00:00 | |
| DM0DOS-11 | 2026-08-31 00:53:45 | 53.25146 | 10.93519 | 56° | 16km/h | 34929m | 6.2m/s | -35.6°C | 1.5% | 6.1hPa | 2.6V | 03:06:26 | 02:08:49 | 00:00:00 | |
| DO2SHX-10 | 2026-08-31 00:53:45 | 53.25121 | 10.93547 | 193° | 33km/h | 34954m | 6.8m/s | -35.6°C | 1.5% | 6.0hPa | 2.6V | 00:00:00 | 02:08:54 | 00:00:00 | |
| SMARD9-10 | 2026-08-31 00:53:44 | 53.25121 | 10.93547 | 194° | 31km/h | 34954m | 6.8m/s | -35.7°C | 0.1% | 6.1hPa | 2.6V | 00:00:00 | 00:00:00 | 00:00:00 | |
| GOEST3-10 | 2026-08-31 00:53:43 | 53.25137 | 10.93542 | 151° | 24km/h | 34943m | 3.8m/s | -35.6°C | 1.5% | 6.0hPa | 2.6V | 00:00:00 | 00:00:00 | 00:00:00 | |
| DO2SHX-10 | 2026-08-31 00:53:42 | 53.25143 | 10.93534 | 130° | 22km/h | 34940m | 3.5m/s | -35.6°C | 1.5% | 6.1hPa | 2.6V | 03:06:00 | 02:08:51 | 00:00:00 | |
| BUE01 | 2026-08-31 00:53:41 | 53.25146 | 10.93519 | 56° | 15km/h | 34930m | 6.3m/s | -35.6°C | 0.1% | 6.1hPa | 2.6V | 00:00:00 | 00:00:00 | 00:00:00 | |
| DL1XH1-15 | 2026-08-31 00:53:40 | 53.25135 | 10.93517 | 344° | 29km/h | 34916m | 5.9m/s | -35.5°C | 1.5% | 6.1hPa | 2.6V | 03:06:28 | 02:08:47 | 00:00:00 | |
| DB0DAN | 2026-08-31 00:53:40 | 53.25146 | 10.93519 | 57° | 15km/h | 34930m | 6.3m/s | -35.6°C | 0.1% | 6.11hPa | 2.6V | 00:00:00 | 00:00:00 | 00:00:00 | |
| BIOWL1-15 | 2026-08-31 00:53:38 | 53.25136 | 10.93517 | 344° | 29km/h | 34917m | 5.9m/s | -35.5°C | 0% | 6.1hPa | 2.6V | 03:06:54 | 02:08:47 | 00:00:00 | |
| DF8AY | 2026-08-31 00:53:37 | 53.25128 | 10.93522 | 326° | 33km/h | 34912m | 4m/s | -35.5°C | 0% | 6.1hPa | 2.6V | 03:06:54 | 02:08:46 | 00:00:00 | |
| DL1XH-15 | 2026-08-31 00:53:37 | 53.25119 | 10.93542 | 279° | 27km/h | 34905m | 3.4m/s | -35.5°C | 1.5% | 6.1hPa | 2.6V | 03:06:31 | 02:08:44 | 00:00:00 | |
| DL1XH-west | 2026-08-31 00:53:36 | 53.25123 | 10.93531 | 307° | 31km/h | 34908m | 2.5m/s | -35.5°C | 0% | 6.1hPa | 2.5V | 03:06:54 | 02:08:45 | 00:00:00 | |
| HSKMA3-T | 2026-08-31 00:53:35 | 53.25120 | 10.93542 | 280° | 27km/h | 34905m | 3.4m/s | -35.5°C | 0% | 6.1hPa | 2.6V | 03:06:54 | 02:08:44 | 00:00:00 | |
| DB0NH | 2026-08-31 00:53:35 | 53.25119 | 10.93542 | 280° | 29km/h | 34905m | 3.4m/s | -35.5°C | 1.5% | 6.1hPa | 2.6V | 00:00:00 | 02:08:44 | 00:00:00 | |
| BIOWL9-15 | 2026-08-31 00:53:34 | 53.25125 | 10.93561 | 212° | 31km/h | 34894m | 7.1m/s | -35.6°C | 0.1% | 6.2hPa | 2.6V | 00:00:00 | 00:00:00 | 00:00:00 | |
| DC4HF-4 | 2026-08-31 00:53:33 | 53.25134 | 10.93567 | 190° | 40km/h | 34887m | 6.8m/s | -35.6°C | 0.1% | 6.1hPa | 2.6V | 00:00:00 | 00:00:00 | 00:00:00 | |
| AP2371 | 2026-08-31 00:53:32 | 53.25134 | 10.93567 | 192° | 40km/h | 34887m | 6.8m/s | -35.6°C | 0.1% | 6.1hPa | 2.6V | 00:00:00 | 00:00:00 | 00:00:00 | |
| DL1XH-15 | 2026-08-31 00:53:31 | 53.25159 | 10.93537 | 357° | 31km/h | 34849m | 6.3m/s | -35.4°C | 1.4% | 6.2hPa | 2.6V | 03:06:41 | 02:08:34 | 00:00:00 | |
| DL1XH1-15 | 2026-08-31 00:53:31 | 53.25168 | 10.93550 | 122° | 20km/h | 34870m | 4.8m/s | -35.5°C | 1.5% | 6.2hPa | 2.6V | 03:06:38 | 02:08:37 | 00:00:00 | |
| AA1-15 | 2026-08-31 00:53:27 | 53.25169 | 10.93543 | 73° | 15km/h | 34864m | 7.1m/s | -35.5°C | 0% | 6.2hPa | 2.6V | 03:06:54 | 02:08:36 | 00:00:00 | |
| DF8AY | 2026-08-31 00:53:26 | 53.25145 | 10.93560 | 198° | 27km/h | 34828m | 7.8m/s | -35.4°C | 0% | 6.2hPa | 2.6V | 03:06:54 | 02:08:29 | 00:00:00 | |
| DB0DAN | 2026-08-31 00:53:25 | 53.25159 | 10.93537 | 357° | 31km/h | 34849m | 6.3m/s | -35.4°C | 0.1% | 6.18hPa | 2.6V | 00:00:00 | 00:00:00 | 00:00:00 | |
| DL1XH-west | 2026-08-31 00:53:25 | 53.25159 | 10.93537 | 357° | 31km/h | 34849m | 6.3m/s | -35.4°C | 0% | 6.2hPa | 2.6V | 03:06:54 | 02:08:34 | 00:00:00 | |
| DO2SHX-10 | 2026-08-31 00:53:24 | 53.25151 | 10.93539 | 344° | 26km/h | 34844m | 3.4m/s | -35.3°C | 1.4% | 6.1hPa | 2.5V | 00:00:00 | 02:08:33 | 00:00:00 | |
| GOEST3-10 | 2026-08-31 00:53:23 | 53.25144 | 10.93544 | 329° | 26km/h | 34841m | 1.6m/s | -35.3°C | 1.4% | 6.1hPa | 2.5V | 00:00:00 | 00:00:00 | 00:00:00 | |
| DL3OBA | 2026-08-31 00:53:22 | 53.25144 | 10.93544 | 329° | 26km/h | 34841m | 1.6m/s | -35.4°C | 0.1% | 6.2hPa | 2.5V | 03:06:00 | 00:00:00 | 00:00:00 | |
| SO1NDE-10 | 2026-08-31 00:53:21 | 53.25140 | 10.93555 | 233° | 27km/h | 34835m | 5.9m/s | -35.4°C | 1.4% | 6.1hPa | 2.5V | 00:00:00 | 02:08:30 | 00:00:00 | |
| 13BRC | 2026-08-31 00:53:20 | 53.25140 | 10.93555 | 234° | 15km/h | 34835m | 5.9m/s | -35.4°C | 0.1% | 6.2hPa | 2.5V | 00:00:00 | 00:00:00 | 00:00:00 | |
| DL1XH1-15 | 2026-08-31 00:53:19 | 53.25165 | 10.93560 | 172° | 53km/h | 34813m | 5.2m/s | -35.5°C | 1.4% | 6.2hPa | 2.5V | 03:06:48 | 02:08:27 | 00:00:00 | |
| DD8BA-10 | 2026-08-31 00:53:19 | 53.25153 | 10.93561 | 181° | 35km/h | 34820m | 8.2m/s | -35.4°C | 1.4% | 6.1hPa | 2.6V | 00:00:00 | 00:00:00 | 00:00:00 | |
| GOEST3-10 | 2026-08-31 00:53:18 | 53.25165 | 10.93560 | 173° | 42km/h | 34814m | 5.2m/s | -35.5°C | 1.4% | 6.2hPa | 2.6V | 00:00:00 | 02:08:27 | 00:00:00 | |
| DL1XH-15 | 2026-08-31 00:53:17 | 53.25196 | 10.93542 | 140° | 27km/h | 34803m | 4.3m/s | -35.7°C | 1.5% | 6.2hPa | 2.6V | 03:06:51 | 02:08:24 | 00:00:00 | |
| AA1-15 | 2026-08-31 00:53:16 | 53.25189 | 10.93549 | 155° | 40km/h | 34806m | 2.2m/s | -35.7°C | 0% | 6.2hPa | 2.6V | 03:06:54 | 02:08:25 | 00:00:00 | |
| DL1XH-west | 2026-08-31 00:53:15 | 53.25196 | 10.93542 | 140° | 27km/h | 34803m | 4.3m/s | -35.7°C | 0% | 6.2hPa | 2.6V | 03:06:54 | 02:08:24 | 00:00:00 | |
| HSKMA3-T | 2026-08-31 00:53:14 | 53.25199 | 10.93536 | 105° | 15km/h | 34798m | 6.8m/s | -35.8°C | 0% | 6.2hPa | 2.6V | 03:06:54 | 02:08:23 | 00:00:00 | |
| DF8AY | 2026-08-31 00:53:11 | 53.25177 | 10.93526 | 355° | 29km/h | 34772m | 2.4m/s | -36°C | 0% | 6.2hPa | 2.6V | 03:07:45 | 02:08:19 | 00:00:00 | |
| DL1XH-15 | 2026-08-31 00:53:10 | 53.25188 | 10.93521 | 164° | 47km/h | 34745m | 7.1m/s | -36°C | 1.5% | 6.3hPa | 2.5V | 03:07:01 | 02:08:14 | 00:00:00 | |
| AA1-15 | 2026-08-31 00:53:05 | 53.25188 | 10.93521 | 164° | 47km/h | 34745m | 7.1m/s | -36°C | 0% | 6.3hPa | 2.5V | 03:07:45 | 02:08:14 | 00:00:00 | |
| DL1XH-west | 2026-08-31 00:53:04 | 53.25200 | 10.93515 | 159° | 51km/h | 34739m | 4.7m/s | -36°C | 0% | 6.3hPa | 2.6V | 03:07:45 | 02:08:13 | 00:00:00 | |
| HSKMA3-T | 2026-08-31 00:53:03 | 53.25211 | 10.93506 | 153° | 46km/h | 34735m | 3.7m/s | -36°C | 0% | 6.2hPa | 2.6V | 03:07:45 | 02:08:12 | 00:00:00 | |
| DL1XH1-15 | 2026-08-31 00:53:03 | 53.25221 | 10.93468 | 28° | 24km/h | 34708m | 6.9m/s | -36°C | 1.5% | 6.3hPa | 2.6V | 03:07:08 | 02:08:07 | 00:00:00 | |
| DM0DOS-11 | 2026-08-31 00:53:03 | 53.25227 | 10.93481 | 87° | 18km/h | 34722m | 6.5m/s | -36°C | 1.5% | 6.3hPa | 2.5V | 03:07:06 | 02:08:09 | 00:00:00 | |
| BIOWL1-15 | 2026-08-31 00:53:02 | 53.25216 | 10.93464 | 23° | 26km/h | 34701m | 5.8m/s | -36°C | 0% | 6.3hPa | 2.6V | 03:07:45 | 02:08:06 | 00:00:00 | |
| DF8AY | 2026-08-31 00:53:00 | 53.25207 | 10.93445 | 126° | 20km/h | 34681m | 5.9m/s | -35.9°C | 0% | 6.3hPa | 2.6V | 03:07:45 | 02:08:02 | 00:00:00 | |
| DD8BA-10 | 2026-08-31 00:53:00 | 53.25225 | 10.93474 | 50° | 24km/h | 34715m | 7.1m/s | -35.9°C | 1.5% | 6.2hPa | 2.6V | 00:00:00 | 00:00:00 | 00:00:00 | |
| 13BRC | 2026-08-31 00:52:59 | 53.25225 | 10.93474 | 50° | 20km/h | 34715m | 7.2m/s | -36.0°C | 0.1% | 6.3hPa | 2.6V | 03:07:00 | 00:00:00 | 00:00:00 | |
| DF8AY-15 | 2026-08-31 00:52:58 | 53.25221 | 10.93468 | 29° | 22km/h | 34708m | 6.8m/s | -35.9°C | 1.5% | 6.3hPa | 2.6V | 00:00:00 | 02:08:07 | 00:00:00 | |
| DL1XH-15 | 2026-08-31 00:52:57 | 53.25207 | 10.93456 | 46° | 13km/h | 34691m | 4.3m/s | -36°C | 1.5% | 6.3hPa | 2.5V | 03:07:11 | 02:08:04 | 00:00:00 | |
| DC4HF-4 | 2026-08-31 00:52:57 | 53.25210 | 10.93460 | 23° | 20km/h | 34696m | 4.7m/s | -36.0°C | 0.1% | 6.3hPa | 2.5V | 00:00:00 | 00:00:00 | 00:00:00 | |
| EDDB2-11 | 2026-08-31 00:52:56 | 53.25210 | 10.93460 | 23° | 20km/h | 34696m | 4.7m/s | -36.0°C | 0.1% | 6.3hPa | 2.5V | 00:00:00 | 00:00:00 | 00:00:00 | |
| DB0DAN | 2026-08-31 00:52:55 | 53.25207 | 10.93456 | 47° | 13km/h | 34691m | 4.3m/s | -36°C | 0.1% | 6.31hPa | 2.5V | 00:00:00 | 00:00:00 | 00:00:00 | |
| DL1XH-west | 2026-08-31 00:52:54 | 53.25206 | 10.93451 | 95° | 13km/h | 34687m | 5.2m/s | -35.9°C | 0% | 6.3hPa | 2.6V | 03:07:45 | 02:08:03 | 00:00:00 | |
| HSKMA3-T | 2026-08-31 00:52:52 | 53.25211 | 10.93438 | 136° | 29km/h | 34675m | 6.3m/s | -35.9°C | 0% | 6.3hPa | 2.6V | 03:07:45 | 02:08:01 | 00:00:00 | |
| BIOWL1-15 | 2026-08-31 00:52:51 | 53.25224 | 10.93418 | 134° | 37km/h | 34663m | 5.6m/s | -35.8°C | 0% | 6.3hPa | 2.6V | 03:07:45 | 02:07:59 | 00:00:00 | |
| DL1NUX | 2026-08-31 00:52:51 | 53.25224 | 10.93418 | 133° | 37km/h | 34663m | 5.6m/s | -35.8°C | 1.5% | 6.3hPa | 2.6V | 03:07:16 | 02:07:59 | 00:00:00 | |
| DO2SHX-10 | 2026-08-31 00:52:51 | 53.25217 | 10.93429 | 138° | 35km/h | 34669m | 6.0m/s | -35.8°C | 1.5% | 6.3hPa | 2.6V | 00:00:00 | 02:08:00 | 00:00:00 | |
| DL1XH-15 | 2026-08-31 00:52:50 | 53.25235 | 10.93365 | 68° | 20km/h | 34636m | 5.6m/s | -35.7°C | 1.5% | 6.4hPa | 2.6V | 03:07:21 | 02:07:54 | 00:00:00 | |
| DF8AY | 2026-08-31 00:52:47 | 53.25236 | 10.93383 | 99° | 26km/h | 34647m | 5.5m/s | -35.7°C | 0% | 6.4hPa | 2.6V | 03:07:45 | 02:07:56 | 00:00:00 | |
| DF7PN | 2026-08-31 00:52:46 | 53.25236 | 10.93373 | 83° | 20km/h | 34642m | 5.7m/s | -35.7°C | 0.1% | 6.4hPa | 2.6V | 00:00:00 | 00:00:00 | 00:00:00 | |
| DO2SHX-10 | 2026-08-31 00:52:45 | 53.25235 | 10.93365 | 69° | 16km/h | 34637m | 5.5m/s | -35.6°C | 1.5% | 6.3hPa | 2.6V | 00:00:00 | 02:07:54 | 00:00:00 | |
| DJ8HS-15 | 2026-08-31 00:52:44 | 53.25233 | 10.93358 | 58° | 29km/h | 34631m | 5.8m/s | -35.6°C | 1.5% | 6.3hPa | 2.6V | 00:00:00 | 02:07:53 | 00:00:00 | |
| DM0DOS-11 | 2026-08-31 00:52:43 | 53.25229 | 10.93336 | 87° | 20km/h | 34608m | 5.2m/s | -35.6°C | 1.5% | 6.4hPa | 2.6V | 03:07:26 | 02:07:49 | 00:00:00 | |
| DL1XH-west | 2026-08-31 00:52:43 | 53.25231 | 10.93353 | 61° | 15km/h | 34625m | 6.3m/s | -35.7°C | 0% | 6.4hPa | 2.5V | 03:07:45 | 02:07:52 | 00:00:00 | |
| HSKMA3-T | 2026-08-31 00:52:41 | 53.25229 | 10.93343 | 86° | 15km/h | 34613m | 5.1m/s | -35.6°C | 0% | 6.4hPa | 2.6V | 03:07:45 | 02:07:50 | 00:00:00 | |
| DB0DAN | 2026-08-31 00:52:40 | 53.25229 | 10.93336 | 87° | 20km/h | 34608m | 5.3m/s | -35.6°C | 0.1% | 6.42hPa | 2.6V | 00:00:00 | 00:00:00 | 00:00:00 | |
| BIOWL1-15 | 2026-08-31 00:52:39 | 53.25226 | 10.93238 | 96° | 31km/h | 34568m | 5.2m/s | -35.4°C | 0% | 6.4hPa | 2.6V | 03:07:45 | 02:07:42 | 00:00:00 | |
| BUE01 | 2026-08-31 00:52:39 | 53.25229 | 10.93315 | 88° | 29km/h | 34597m | 6.4m/s | -35.6°C | 0.1% | 6.4hPa | 2.6V | 00:00:00 | 00:00:00 | 00:00:00 | |
| DF8AY-15 | 2026-08-31 00:52:38 | 53.25229 | 10.93315 | 89° | 29km/h | 34597m | 6.4m/s | -35.5°C | 1.5% | 6.4hPa | 2.6V | 00:00:00 | 02:07:47 | 00:00:00 | |
| DL1XH-15 | 2026-08-31 00:52:37 | 53.25227 | 10.93267 | 86° | 38km/h | 34577m | 4.8m/s | -35.5°C | 1.5% | 6.4hPa | 2.6V | 03:07:31 | 02:07:44 | 00:00:00 | |
| DF8AY | 2026-08-31 00:52:37 | 53.25229 | 10.93301 | 84° | 37km/h | 34590m | 6.9m/s | -35.6°C | 0% | 6.4hPa | 2.5V | 03:07:45 | 02:07:46 | 00:00:00 | |
| AA1-15 | 2026-08-31 00:52:32 | 53.25228 | 10.93226 | 109° | 26km/h | 34562m | 6.4m/s | -35.4°C | 0% | 6.4hPa | 2.6V | 03:07:45 | 02:07:41 | 00:00:00 | |
| DL1NUX | 2026-08-31 00:52:31 | 53.25233 | 10.93213 | 145° | 16km/h | 34549m | 5.6m/s | -35.3°C | 1.5% | 6.4hPa | 2.6V | 03:07:36 | 02:07:39 | 00:00:00 | |
| HSKMA3-T | 2026-08-31 00:52:30 | 53.25234 | 10.93213 | 145° | 16km/h | 34549m | 5.6m/s | -35.3°C | 0% | 6.4hPa | 2.6V | 03:07:45 | 02:07:39 | 00:00:00 | |
| DL1XH-15 | 2026-08-31 00:52:30 | 53.25232 | 10.93188 | 56° | 31km/h | 34523m | 6.7m/s | -35.2°C | 1.5% | 6.5hPa | 2.6V | 03:07:41 | 02:07:34 | 00:00:00 | |
| DF8AY | 2026-08-31 00:52:26 | 53.25236 | 10.93197 | 56° | 20km/h | 34530m | 6.5m/s | -35.2°C | 0% | 6.5hPa | 2.6V | 03:07:45 | 02:07:35 | 00:00:00 | |
| DB0UT-7 | 2026-08-31 00:52:26 | 53.25236 | 10.93197 | 56° | 35km/h | 34530m | 6.4m/s | -35.1°C | 1.5% | 6.4hPa | 2.6V | 00:00:00 | 02:07:35 | 00:00:00 | |
| DM0DOS-11 | 2026-08-31 00:52:24 | 53.25225 | 10.93108 | 113° | 38km/h | 34496m | 6.7m/s | -35.1°C | 1.5% | 6.5hPa | 2.6V | 03:07:46 | 02:07:29 | 00:00:00 | |
| BIOWL1-15 | 2026-08-31 00:52:24 | 53.25224 | 10.93159 | 72° | 42km/h | 34512m | 4.4m/s | -35.1°C | 0% | 6.5hPa | 2.6V | 03:07:45 | 02:07:32 | 00:00:00 | |
| DL1XH1-15 | 2026-08-31 00:52:23 | 53.25235 | 10.93085 | 142° | 29km/h | 34485m | 4.6m/s | -35.1°C | 1.4% | 6.5hPa | 2.5V | 03:07:48 | 02:07:27 | 00:00:00 | |
| DL1XH-west | 2026-08-31 00:52:22 | 53.25222 | 10.93141 | 84° | 42km/h | 34508m | 4.4m/s | -35.1°C | 0% | 6.5hPa | 2.5V | 03:07:45 | 02:07:31 | 00:00:00 | |
| AA1-15 | 2026-08-31 00:52:21 | 53.25222 | 10.93124 | 98° | 42km/h | 34502m | 6m/s | -35.1°C | 0% | 6.5hPa | 2.6V | 03:07:45 | 02:07:30 | 00:00:00 | |
| HSKMA3-T | 2026-08-31 00:52:20 | 53.25225 | 10.93108 | 114° | 38km/h | 34496m | 6.7m/s | -35.1°C | 0% | 6.5hPa | 2.6V | 03:08:36 | 02:07:29 | 00:00:00 | |
| DF8AY | 2026-08-31 00:52:16 | 53.25243 | 10.93074 | 126° | 13km/h | 34476m | 4.3m/s | -35.1°C | 0% | 6.5hPa | 2.6V | 03:08:36 | 02:07:25 | 00:00:00 | |
| BIOWL1-15 | 2026-08-31 00:52:12 | 53.25228 | 10.93044 | 47° | 46km/h | 34451m | 5.1m/s | -35.1°C | 0% | 6.5hPa | 2.6V | 03:08:36 | 02:07:21 | 00:00:00 | |
| DL1XH-west | 2026-08-31 00:52:11 | 53.25221 | 10.93029 | 58° | 47km/h | 34447m | 4m/s | -35.1°C | 0% | 6.5hPa | 2.5V | 03:08:36 | 02:07:20 | 00:00:00 | |
| HSKMA3-T | 2026-08-31 00:52:10 | 53.25216 | 10.93011 | 72° | 47km/h | 34442m | 4.4m/s | -35.1°C | 0% | 6.6hPa | 2.6V | 03:08:36 | 02:07:19 | 00:00:00 | |
| DL1XH1-15 | 2026-08-31 00:52:10 | 53.25215 | 10.92973 | 103° | 44km/h | 34431m | 7.2m/s | -35.1°C | 1.5% | 6.5hPa | 2.6V | 03:07:58 | 02:07:17 | 00:00:00 | |
| DB0DAN | 2026-08-31 00:52:10 | 53.25216 | 10.93011 | 72° | 46km/h | 34442m | 4.4m/s | -35.1°C | 0.1% | 6.56hPa | 2.6V | 00:00:00 | 00:00:00 | 00:00:00 | |
| DF8AY | 2026-08-31 00:52:05 | 53.25231 | 10.92933 | 139° | 31km/h | 34414m | 3.1m/s | -35.1°C | 0% | 6.6hPa | 2.6V | 03:08:36 | 02:07:14 | 00:00:00 | |
| DL4BBY-15 | 2026-08-31 00:52:05 | 53.25231 | 10.92932 | 139° | 38km/h | 34414m | 3.0m/s | -35.6°C | 0% | 0hPa | 2.6V | 00:00:00 | 00:00:00 | 00:00:00 | |
| DB0NH | 2026-08-31 00:52:04 | 53.25236 | 10.92925 | 131° | 38km/h | 34411m | 3.3m/s | -35.0°C | 1.4% | 6.5hPa | 2.6V | 03:08:00 | 02:07:13 | 00:00:00 | |
| DL1XH1-15 | 2026-08-31 00:52:03 | 53.25203 | 10.92871 | 51° | 49km/h | 34377m | 2.9m/s | -35°C | 1.4% | 6.6hPa | 2.6V | 03:08:08 | 02:07:07 | 00:00:00 | |
| BIOWL1-15 | 2026-08-31 00:52:02 | 53.25231 | 10.92907 | 31° | 35km/h | 34393m | 7.5m/s | -35°C | 0% | 6.6hPa | 2.6V | 03:08:36 | 02:07:10 | 00:00:00 | |
| DL1XH-west | 2026-08-31 00:52:00 | 53.25222 | 10.92898 | 32° | 47km/h | 34386m | 6.2m/s | -35°C | 0% | 6.6hPa | 2.5V | 03:08:36 | 02:07:09 | 00:00:00 | |
| HSKMA3-T | 2026-08-31 00:51:59 | 53.25212 | 10.92886 | 40° | 53km/h | 34381m | 3.9m/s | -35°C | 0% | 6.6hPa | 2.5V | 03:08:36 | 02:07:08 | 00:00:00 | |
| DJ8HS-15 | 2026-08-31 00:51:58 | 53.25203 | 10.92870 | 52° | 40km/h | 34378m | 2.8m/s | -35.0°C | 1.4% | 6.6hPa | 2.6V | 00:00:00 | 02:07:07 | 00:00:00 | |
| DL1XH-15 | 2026-08-31 00:51:57 | 53.25195 | 10.92818 | 103° | 42km/h | 34361m | 7.6m/s | -35.1°C | 1.4% | 6.6hPa | 2.6V | 03:08:11 | 02:07:04 | 00:00:00 | |
| DF8AY | 2026-08-31 00:51:54 | 53.25199 | 10.92802 | 121° | 44km/h | 34354m | 6.6m/s | -35.1°C | 0% | 6.6hPa | 2.5V | 03:08:36 | 02:07:03 | 00:00:00 | |
| DO2SHX-10 | 2026-08-31 00:51:54 | 53.25199 | 10.92802 | 122° | 40km/h | 34354m | 6.5m/s | -35.1°C | 1.4% | 6.6hPa | 2.6V | 03:08:00 | 02:07:03 | 00:00:00 | |
| DM0DOS-11 | 2026-08-31 00:51:53 | 53.25217 | 10.92755 | 84° | 20km/h | 34335m | 5.8m/s | -35.1°C | 1.4% | 6.7hPa | 2.6V | 03:08:16 | 02:06:59 | 00:00:00 | |
| SONDE2-11 | 2026-08-31 00:51:52 | 53.25211 | 10.92775 | 128° | 35km/h | 34345m | 3.4m/s | -35.1°C | 0.1% | 6.7hPa | 2.6V | 00:00:00 | 00:00:00 | 00:00:00 | |
| DO2SHX-10 | 2026-08-31 00:51:51 | 53.25216 | 10.92764 | 116° | 24km/h | 34341m | 4.6m/s | -35.0°C | 1.4% | 6.6hPa | 2.6V | 00:00:00 | 02:07:00 | 00:00:00 | |
| DL1XH-15 | 2026-08-31 00:51:50 | 53.25183 | 10.92708 | 48° | 42km/h | 34308m | 4.6m/s | -35.2°C | 1.4% | 6.7hPa | 2.6V | 03:08:21 | 02:06:54 | 00:00:00 | |
| DL1XH1-15 | 2026-08-31 00:51:50 | 53.25209 | 10.92739 | 33° | 35km/h | 34323m | 6.3m/s | -35.1°C | 1.4% | 6.6hPa | 2.6V | 03:08:18 | 02:06:57 | 00:00:00 | |
| DL1XH-west | 2026-08-31 00:51:49 | 53.25215 | 10.92747 | 47° | 26km/h | 34330m | 6.6m/s | -35.1°C | 0% | 6.7hPa | 2.5V | 03:08:36 | 02:06:58 | 00:00:00 | |
| AA1-15 | 2026-08-31 00:51:48 | 53.25209 | 10.92739 | 34° | 35km/h | 34323m | 6.4m/s | -35.1°C | 0% | 6.7hPa | 2.6V | 03:08:36 | 02:06:57 | 00:00:00 | |
| DF8AY | 2026-08-31 00:51:45 | 53.25177 | 10.92694 | 65° | 40km/h | 34303m | 5.6m/s | -35.3°C | 0% | 6.7hPa | 2.6V | 03:08:36 | 02:06:53 | 00:00:00 | |
| DO2SHX-10 | 2026-08-31 00:51:45 | 53.25182 | 10.92708 | 49° | 40km/h | 34308m | 4.5m/s | -35.2°C | 1.4% | 6.6hPa | 2.5V | 00:00:00 | 02:06:54 | 00:00:00 | |
| DM0DOS-11 | 2026-08-31 00:51:44 | 53.25184 | 10.92624 | 116° | 47km/h | 34279m | 4m/s | -35.6°C | 1.5% | 6.7hPa | 2.5V | 03:08:26 | 02:06:49 | 00:00:00 | |
| DL1XH1-15 | 2026-08-31 00:51:43 | 53.25191 | 10.92590 | 99° | 38km/h | 34271m | 4.7m/s | -35.8°C | 1.5% | 6.7hPa | 2.6V | 03:08:28 | 02:06:47 | 00:00:00 | |
| DL1XH-west | 2026-08-31 00:51:38 | 53.25192 | 10.92590 | 99° | 38km/h | 34271m | 4.7m/s | -35.8°C | 0% | 6.7hPa | 2.6V | 03:08:36 | 02:06:47 | 00:00:00 | |
| AA1-15 | 2026-08-31 00:51:38 | 53.25192 | 10.92575 | 82° | 35km/h | 34266m | 6.4m/s | -35.8°C | 0% | 6.7hPa | 2.6V | 03:08:36 | 02:06:46 | 00:00:00 | |
| DL1XH-15 | 2026-08-31 00:51:37 | 53.25183 | 10.92551 | 37° | 37km/h | 34252m | 6.8m/s | -36°C | 1.5% | 6.7hPa | 2.5V | 03:08:31 | 02:06:44 | 00:00:00 | |
| GOEST3-10 | 2026-08-31 00:51:37 | 53.25189 | 10.92562 | 59° | 33km/h | 34260m | 7.3m/s | -35.9°C | 1.5% | 6.7hPa | 2.6V | 00:00:00 | 02:06:45 | 00:00:00 | |
| DO2SHX-10 | 2026-08-31 00:51:36 | 53.25189 | 10.92562 | 59° | 37km/h | 34260m | 7.3m/s | -35.9°C | 1.5% | 6.7hPa | 2.6V | 00:00:00 | 02:06:45 | 00:00:00 | |
| DL1NUX | 2026-08-31 00:51:35 | 53.25158 | 10.92513 | 105° | 22km/h | 34227m | 7.3m/s | -35.9°C | 1.5% | 6.8hPa | 2.6V | 03:08:36 | 02:06:39 | 00:00:00 | |
| DF8AY | 2026-08-31 00:51:33 | 53.25168 | 10.92536 | 28° | 33km/h | 34242m | 3.5m/s | -35.9°C | 0% | 6.8hPa | 2.6V | 03:08:36 | 02:06:42 | 00:00:00 | |
| DO2SHX-10 | 2026-08-31 00:51:33 | 53.25168 | 10.92536 | 29° | 26km/h | 34242m | 3.5m/s | -35.9°C | 1.5% | 6.7hPa | 2.6V | 00:00:00 | 02:06:42 | 00:00:00 | |
| EDDB2-12 | 2026-08-31 00:51:32 | 53.25162 | 10.92529 | 41° | 24km/h | 34238m | 3.9m/s | -35.9°C | 0.1% | 6.7hPa | 2.6V | 00:00:00 | 00:00:00 | 00:00:00 | |
| GOEST3-10 | 2026-08-31 00:51:31 | 53.25158 | 10.92522 | 66° | 33km/h | 34234m | 6.0m/s | -35.9°C | 1.5% | 6.7hPa | 2.6V | 03:08:00 | 00:00:00 | 00:00:00 | |
| DL1XH-15 | 2026-08-31 00:51:30 | 53.25181 | 10.92443 | 94° | 40km/h | 34201m | 5m/s | -35.9°C | 1.5% | 6.8hPa | 2.6V | 03:08:41 | 02:06:34 | 00:00:00 | |
| DL1XH1-15 | 2026-08-31 00:51:30 | 53.25167 | 10.92491 | 128° | 42km/h | 34213m | 5.6m/s | -35.9°C | 1.5% | 6.8hPa | 2.5V | 03:08:38 | 02:06:37 | 00:00:00 | |
| BIOWL1-15 | 2026-08-31 00:51:29 | 53.25178 | 10.92459 | 111° | 44km/h | 34205m | 3.7m/s | -35.9°C | 0% | 6.8hPa | 2.6V | 03:09:27 | 02:06:35 | 00:00:00 | |
| DL1XH-west | 2026-08-31 00:51:28 | 53.25167 | 10.92491 | 129° | 42km/h | 34213m | 5.6m/s | -35.9°C | 0% | 6.8hPa | 2.5V | 03:09:27 | 02:06:37 | 00:00:00 | |
| HSKMA3-T | 2026-08-31 00:51:27 | 53.25173 | 10.92476 | 123° | 46km/h | 34209m | 3.4m/s | -35.9°C | 0% | 6.8hPa | 2.6V | 03:09:27 | 02:06:36 | 00:00:00 | |
| DD8BA-10 | 2026-08-31 00:51:27 | 53.25173 | 10.92476 | 123° | 37km/h | 34209m | 3.4m/s | -35.9°C | 1.5% | 6.7hPa | 2.6V | 00:00:00 | 00:00:00 | 00:00:00 | |
| AP2371 | 2026-08-31 00:51:26 | 53.25173 | 10.92476 | 124° | 46km/h | 34209m | 3.4m/s | -35.9°C | 0.1% | 6.8hPa | 2.6V | 00:00:00 | 00:00:00 | 00:00:00 | |
| DB0DAN | 2026-08-31 00:51:25 | 53.25181 | 10.92443 | 94° | 38km/h | 34201m | 5m/s | -35.9°C | 0.1% | 6.8hPa | 2.6V | 00:00:00 | 00:00:00 | 00:00:00 | |
| DF8AY | 2026-08-31 00:51:23 | 53.25175 | 10.92412 | 52° | 40km/h | 34189m | 6.7m/s | -36°C | 0% | 6.8hPa | 2.5V | 03:09:27 | 02:06:32 | 00:00:00 | |
| EDDB2-11 | 2026-08-31 00:51:23 | 53.25175 | 10.92412 | 52° | 38km/h | 34189m | 6.7m/s | -36.0°C | 0.1% | 6.8hPa | 2.6V | 00:00:00 | 00:00:00 | 00:00:00 | |
| GOEST3-10 | 2026-08-31 00:51:21 | 53.25159 | 10.92391 | 29° | 29km/h | 34177m | 4.5m/s | -36.0°C | 1.5% | 6.8hPa | 2.6V | 00:00:00 | 00:00:00 | 00:00:00 | |
| DO3MHA-11 | 2026-08-31 00:51:20 | 53.25151 | 10.92383 | 30° | 35km/h | 34173m | 4.2m/s | -36.1°C | 1.5% | 6.8hPa | 2.6V | 03:08:00 | 02:06:29 | 00:00:00 | |
| SONCRA | 2026-08-31 00:51:19 | 53.25142 | 10.92369 | 69° | 18km/h | 34163m | 5.6m/s | -36.2°C | 0.1% | 6.8hPa | 2.6V | 00:00:00 | 00:00:00 | 00:00:00 | |
| DO2SHX-10 | 2026-08-31 00:51:18 | 53.25142 | 10.92369 | 70° | 26km/h | 34163m | 5.5m/s | -36.2°C | 1.5% | 6.8hPa | 2.6V | 03:08:00 | 02:06:27 | 00:00:00 | |
| DL1XH-15 | 2026-08-31 00:51:17 | 53.25147 | 10.92336 | 115° | 40km/h | 34143m | 5.8m/s | -36.4°C | 1.5% | 6.9hPa | 2.6V | 03:08:51 | 02:06:24 | 00:00:00 | |
| DL1XH-west | 2026-08-31 00:51:17 | 53.25141 | 10.92360 | 102° | 24km/h | 34156m | 6.4m/s | -36.3°C | 0% | 6.8hPa | 2.6V | 03:09:27 | 02:06:26 | 00:00:00 | |
| HSKMA3-T | 2026-08-31 00:51:17 | 53.25147 | 10.92336 | 116° | 40km/h | 34144m | 5.8m/s | -36.4°C | 0% | 6.9hPa | 2.6V | 03:09:27 | 02:06:24 | 00:00:00 | |
| AA1-15 | 2026-08-31 00:51:16 | 53.25144 | 10.92349 | 113° | 31km/h | 34150m | 6.6m/s | -36.4°C | 0% | 6.8hPa | 2.6V | 03:09:27 | 02:06:25 | 00:00:00 | |
| BIOWL1-15 | 2026-08-31 00:51:16 | 53.25135 | 10.92242 | 29° | 27km/h | 34108m | 4.2m/s | -36.5°C | 0% | 6.9hPa | 2.6V | 03:09:27 | 02:06:17 | 00:00:00 | |
| DF8AY | 2026-08-31 00:51:13 | 53.25154 | 10.92303 | 98° | 40km/h | 34134m | 4.9m/s | -36.5°C | 0% | 6.8hPa | 2.6V | 03:09:27 | 02:06:22 | 00:00:00 | |
| DJ8HS-15 | 2026-08-31 00:51:13 | 53.25154 | 10.92303 | 99° | 46km/h | 34134m | 4.8m/s | -36.5°C | 1.5% | 6.8hPa | 2.6V | 00:00:00 | 02:06:22 | 00:00:00 | |
| DO2SHX-10 | 2026-08-31 00:51:12 | 53.25154 | 10.92286 | 85° | 37km/h | 34129m | 5.4m/s | -36.5°C | 1.5% | 6.8hPa | 2.6V | 00:00:00 | 02:06:21 | 00:00:00 | |
| GOEST3-10 | 2026-08-31 00:51:11 | 53.25152 | 10.92271 | 68° | 31km/h | 34123m | 5.7m/s | -36.5°C | 1.5% | 6.8hPa | 2.6V | 03:08:00 | 00:00:00 | 00:00:00 | |
| DL1XH-15 | 2026-08-31 00:51:10 | 53.25126 | 10.92226 | 99° | 16km/h | 34092m | 6.5m/s | -36.6°C | 1.5% | 6.9hPa | 2.6V | 03:09:01 | 02:06:14 | 00:00:00 | |
| DL1NUX | 2026-08-31 00:51:10 | 53.25141 | 10.92249 | 36° | 33km/h | 34112m | 4.9m/s | -36.5°C | 1.5% | 6.8hPa | 2.6V | 03:08:57 | 02:06:18 | 00:00:00 | |
| DL1XH1-15 | 2026-08-31 00:51:10 | 53.25135 | 10.92242 | 29° | 27km/h | 34108m | 4.2m/s | -36.5°C | 1.6% | 6.9hPa | 2.6V | 03:08:58 | 02:06:17 | 00:00:00 | |
| DB0DAN | 2026-08-31 00:51:10 | 53.25147 | 10.92258 | 49° | 33km/h | 34117m | 5.8m/s | -36.6°C | 0.1% | 6.87hPa | 2.5V | 00:00:00 | 00:00:00 | 00:00:00 | |
| DL1XH-west | 2026-08-31 00:51:07 | 53.25130 | 10.92237 | 30° | 20km/h | 34103m | 4.1m/s | -36.5°C | 0% | 6.9hPa | 2.6V | 03:09:27 | 02:06:16 | 00:00:00 | |
| AA1-15 | 2026-08-31 00:51:05 | 53.25126 | 10.92226 | 99° | 16km/h | 34092m | 6.5m/s | -36.6°C | 0% | 6.9hPa | 2.6V | 03:09:27 | 02:06:14 | 00:00:00 | |
| HSKMA3-T | 2026-08-31 00:51:05 | 53.25128 | 10.92217 | 115° | 29km/h | 34086m | 5.8m/s | -36.6°C | 0% | 6.9hPa | 2.5V | 03:09:27 | 02:06:13 | 00:00:00 | |
| DL4BBY-15 | 2026-08-31 00:51:05 | 53.25126 | 10.92226 | 100° | 37km/h | 34092m | 6.5m/s | -37.1°C | 0% | 0hPa | 2.5V | 00:00:00 | 00:00:00 | 00:00:00 | |
| DB0NH | 2026-08-31 00:51:04 | 53.25128 | 10.92217 | 116° | 38km/h | 34086m | 5.8m/s | -36.5°C | 1.6% | 6.9hPa | 2.5V | 00:00:00 | 02:06:13 | 00:00:00 | |
| DM0DOS-11 | 2026-08-31 00:51:03 | 53.25136 | 10.92144 | 80° | 57km/h | 34067m | 5.1m/s | -36.6°C | 1.5% | 6.9hPa | 2.6V | 03:09:06 | 02:06:09 | 00:00:00 | |
| DL1XH1-15 | 2026-08-31 00:51:03 | 53.25124 | 10.92100 | 52° | 60km/h | 34055m | 5.9m/s | -36.6°C | 1.5% | 6.9hPa | 2.5V | 03:09:08 | 02:06:07 | 00:00:00 | |
| DF8AY | 2026-08-31 00:51:03 | 53.25134 | 10.92188 | 106° | 49km/h | 34076m | 4.3m/s | -36.6°C | 0% | 6.9hPa | 2.6V | 03:09:27 | 02:06:11 | 00:00:00 | |
| BIOWL1-15 | 2026-08-31 00:50:57 | 53.25114 | 10.92082 | 38° | 57km/h | 34051m | 4.2m/s | -36.6°C | 0% | 6.9hPa | 2.6V | 03:09:27 | 02:06:06 | 00:00:00 | |
| DL1XH-15 | 2026-08-31 00:50:57 | 53.25095 | 10.92065 | 15° | 33km/h | 34044m | 3.5m/s | -36.7°C | 1.5% | 6.9hPa | 2.6V | 03:09:11 | 02:06:04 | 00:00:00 | |
| DL1XH-west | 2026-08-31 00:50:56 | 53.25104 | 10.92071 | 26° | 46km/h | 34047m | 3m/s | -36.7°C | 0% | 6.9hPa | 2.6V | 03:09:27 | 02:06:05 | 00:00:00 | |
| AA1-15 | 2026-08-31 00:50:54 | 53.25088 | 10.92063 | 8° | 18km/h | 34039m | 6m/s | -36.7°C | 0% | 7hPa | 2.6V | 03:09:27 | 02:06:03 | 00:00:00 | |
| DF8AY | 2026-08-31 00:50:51 | 53.25094 | 10.92059 | 157° | 31km/h | 34019m | 5.4m/s | -36.8°C | 0% | 7hPa | 2.5V | 03:09:27 | 02:06:00 | 00:00:00 | |
| DO2SHX-10 | 2026-08-31 00:50:51 | 53.25094 | 10.92059 | 158° | 38km/h | 34019m | 5.3m/s | -36.8°C | 1.5% | 6.9hPa | 2.6V | 00:00:00 | 02:06:00 | 00:00:00 | |
| DL1XH-15 | 2026-08-31 00:50:50 | 53.25105 | 10.91957 | 55° | 58km/h | 33987m | 5.7m/s | -36.9°C | 1.5% | 7hPa | 2.6V | 03:09:21 | 02:05:54 | 00:00:00 | |
| BIOWL1-15 | 2026-08-31 00:50:46 | 53.25112 | 10.91979 | 69° | 57km/h | 33993m | 6.6m/s | -36.9°C | 0% | 7hPa | 2.6V | 03:09:27 | 02:05:55 | 00:00:00 | |
| DL1XH-west | 2026-08-31 00:50:46 | 53.25105 | 10.91958 | 56° | 58km/h | 33987m | 5.7m/s | -36.9°C | 0% | 7hPa | 2.6V | 03:09:27 | 02:05:54 | 00:00:00 | |
| DJ2DS-15 | 2026-08-31 00:50:45 | 53.25096 | 10.91940 | 45° | 51km/h | 33982m | 4.1m/s | -37.0°C | 0.1% | 7.0hPa | 2.5V | 00:00:00 | 00:00:00 | 00:00:00 | |
| DL1NUX | 2026-08-31 00:50:44 | 53.25080 | 10.91917 | 189° | 22km/h | 33955m | 6.2m/s | -37.2°C | 1.6% | 7hPa | 2.5V | 03:09:27 | 02:05:48 | 00:00:00 | |
| AA1-15 | 2026-08-31 00:50:43 | 53.25087 | 10.91927 | 37° | 40km/h | 33978m | 3.9m/s | -37.1°C | 0% | 7hPa | 2.5V | 03:09:27 | 02:05:52 | 00:00:00 | |
| DF8AY | 2026-08-31 00:50:41 | 53.25077 | 10.91916 | 199° | 9km/h | 33961m | 7.1m/s | -37.2°C | 0% | 7hPa | 2.6V | 03:09:27 | 02:05:49 | 00:00:00 | |
| GOEST3-10 | 2026-08-31 00:50:40 | 53.25077 | 10.91916 | 199° | 24km/h | 33962m | 7.1m/s | -37.2°C | 1.5% | 7.0hPa | 2.6V | 00:00:00 | 00:00:00 | 00:00:00 | |
| DO2SHX-10 | 2026-08-31 00:50:39 | 53.25080 | 10.91917 | 190° | 27km/h | 33955m | 6.1m/s | -37.2°C | 1.6% | 7.0hPa | 2.6V | 00:00:00 | 02:05:48 | 00:00:00 | |
| DF8AY-15 | 2026-08-31 00:50:38 | 53.25087 | 10.91917 | 178° | 24km/h | 33950m | 4.7m/s | -37.2°C | 1.6% | 7.0hPa | 2.6V | 03:09:00 | 02:05:47 | 00:00:00 | |
| DL1XH-15 | 2026-08-31 00:50:37 | 53.25106 | 10.91899 | 114° | 31km/h | 33936m | 5.3m/s | -37.4°C | 1.6% | 7hPa | 2.6V | 03:09:31 | 02:05:44 | 00:00:00 | |
| DD8BA-10 | 2026-08-31 00:50:37 | 53.25094 | 10.91915 | 165° | 33km/h | 33944m | 3.4m/s | -37.3°C | 1.6% | 7.0hPa | 2.6V | 00:00:00 | 00:00:00 | 00:00:00 | |
| DO2SHX-10 | 2026-08-31 00:50:36 | 53.25101 | 10.91909 | 141° | 31km/h | 33940m | 3.9m/s | -37.3°C | 1.6% | 7.0hPa | 2.6V | 00:00:00 | 02:05:45 | 00:00:00 | |
| DM0DOS-11 | 2026-08-31 00:50:35 | 53.25090 | 10.91826 | 51° | 37km/h | 33907m | 4.5m/s | -37.6°C | 1.6% | 7.1hPa | 2.6V | 03:09:36 | 02:05:39 | 00:00:00 | |
| BIOWL1-15 | 2026-08-31 00:50:35 | 53.25106 | 10.91899 | 115° | 31km/h | 33936m | 5.3m/s | -37.4°C | 0% | 7hPa | 2.6V | 03:10:18 | 02:05:44 | 00:00:00 | |
| DL1XH-west | 2026-08-31 00:50:34 | 53.25107 | 10.91886 | 90° | 35km/h | 33930m | 6.3m/s | -37.4°C | 0% | 7.1hPa | 2.6V | 03:10:18 | 02:05:43 | 00:00:00 | |
| HSKMA3-T | 2026-08-31 00:50:33 | 53.25106 | 10.91871 | 73° | 40km/h | 33923m | 6.5m/s | -37.5°C | 0% | 7.1hPa | 2.5V | 03:10:18 | 02:05:42 | 00:00:00 | |
| AA1-15 | 2026-08-31 00:50:32 | 53.25102 | 10.91855 | 61° | 44km/h | 33917m | 5.8m/s | -37.5°C | 0% | 7.1hPa | 2.6V | 03:10:18 | 02:05:41 | 00:00:00 | |
| DF8AY | 2026-08-31 00:50:30 | 53.25090 | 10.91826 | 52° | 37km/h | 33907m | 4.5m/s | -37.6°C | 0% | 7.1hPa | 2.6V | 03:10:18 | 02:05:39 | 00:00:00 | |
| DL1XH1-15 | 2026-08-31 00:50:30 | 53.25082 | 10.91808 | 61° | 16km/h | 33897m | 5.7m/s | -37.8°C | 1.6% | 7.1hPa | 2.6V | 03:09:38 | 02:05:37 | 00:00:00 | |
| BIOWL1-15 | 2026-08-31 00:50:25 | 53.25089 | 10.91790 | 85° | 16km/h | 33859m | 5.2m/s | -37.8°C | 0% | 7.1hPa | 2.5V | 03:10:18 | 02:05:30 | 00:00:00 | |
| DL1XH-west | 2026-08-31 00:50:24 | 53.25086 | 10.91800 | 166° | 7km/h | 33874m | 5.7m/s | -37.8°C | 0% | 7.1hPa | 2.6V | 03:10:18 | 02:05:33 | 00:00:00 | |
| DL1NUX | 2026-08-31 00:50:24 | 53.25087 | 10.91773 | 79° | 24km/h | 33847m | 6.5m/s | -37.9°C | 1.6% | 7.1hPa | 2.6V | 03:09:47 | 02:05:28 | 00:00:00 | |
| DO2SHX-10 | 2026-08-31 00:50:24 | 53.25086 | 10.91800 | 167° | 9km/h | 33875m | 5.6m/s | -37.7°C | 1.6% | 7.1hPa | 2.6V | 00:00:00 | 02:05:33 | 00:00:00 | |
| DM0DOS-11 | 2026-08-31 00:50:23 | 53.25089 | 10.91782 | 81° | 22km/h | 33854m | 5.7m/s | -37.8°C | 1.6% | 7.1hPa | 2.6V | 03:09:46 | 02:05:29 | 00:00:00 | |
| AA1-15 | 2026-08-31 00:50:22 | 53.25089 | 10.91796 | 99° | 11km/h | 33864m | 4.9m/s | -37.8°C | 0% | 7.1hPa | 2.6V | 03:10:18 | 02:05:31 | 00:00:00 | |
| DJ8HS-15 | 2026-08-31 00:50:22 | 53.25089 | 10.91795 | 100° | 20km/h | 33864m | 4.8m/s | -37.8°C | 1.6% | 7.1hPa | 2.6V | 00:00:00 | 02:05:31 | 00:00:00 | |
| DO2SHX-10 | 2026-08-31 00:50:21 | 53.25089 | 10.91790 | 85° | 20km/h | 33860m | 5.1m/s | -37.8°C | 1.6% | 7.1hPa | 2.6V | 00:00:00 | 02:05:30 | 00:00:00 | |
| DL1XH-15 | 2026-08-31 00:50:20 | 53.25079 | 10.91738 | 46° | 20km/h | 33826m | 5m/s | -38°C | 1.6% | 7.2hPa | 2.6V | 03:09:51 | 02:05:24 | 00:00:00 | |
| DF8AY | 2026-08-31 00:50:20 | 53.25088 | 10.91782 | 82° | 22km/h | 33854m | 5.7m/s | -37.8°C | 0% | 7.1hPa | 2.6V | 03:10:18 | 02:05:29 | 00:00:00 | |
| BIOWL1-15 | 2026-08-31 00:50:15 | 53.25084 | 10.91712 | 136° | 38km/h | 33779m | 4.4m/s | -38.1°C | 0% | 7.2hPa | 2.5V | 03:10:18 | 02:05:15 | 00:00:00 | |
| DO2SHX-10 | 2026-08-31 00:50:15 | 53.25079 | 10.91738 | 47° | 18km/h | 33827m | 4.9m/s | -38.0°C | 1.6% | 7.1hPa | 2.6V | 00:00:00 | 02:05:24 | 00:00:00 | |
| DL1NUX | 2026-08-31 00:50:14 | 53.25066 | 10.91727 | 167° | 13km/h | 33797m | 5.5m/s | -38.1°C | 1.7% | 7.2hPa | 2.6V | 03:09:57 | 02:05:18 | 00:00:00 | |
| DL1XH-west | 2026-08-31 00:50:13 | 53.25071 | 10.91729 | 20° | 16km/h | 33816m | 5.7m/s | -38.1°C | 0% | 7.2hPa | 2.6V | 03:10:18 | 02:05:22 | 00:00:00 | |
| DM0DOS-11 | 2026-08-31 00:50:12 | 53.25064 | 10.91727 | 190° | 2km/h | 33802m | 4m/s | -38.1°C | 1.7% | 7.2hPa | 2.6V | 03:09:56 | 02:05:19 | 00:00:00 | |
| AA1-15 | 2026-08-31 00:50:11 | 53.25065 | 10.91727 | 353° | 7km/h | 33806m | 3.8m/s | -38.1°C | 0% | 7.2hPa | 2.6V | 03:10:18 | 02:05:20 | 00:00:00 | |
| DL1XH-15 | 2026-08-31 00:50:11 | 53.25090 | 10.91699 | 120° | 40km/h | 33775m | 3.2m/s | -38.1°C | 1.7% | 7.2hPa | 2.6V | 03:10:01 | 02:05:14 | 00:00:00 | |
| DF8AY | 2026-08-31 00:50:10 | 53.25066 | 10.91727 | 167° | 13km/h | 33797m | 5.5m/s | -38.1°C | 0% | 7.2hPa | 2.6V | 03:10:18 | 02:05:18 | 00:00:00 | |
| DO2SHX-10 | 2026-08-31 00:50:09 | 53.25066 | 10.91727 | 168° | 22km/h | 33798m | 5.5m/s | -38.1°C | 1.7% | 7.1hPa | 2.6V | 00:00:00 | 02:05:18 | 00:00:00 | |
| SP3BTT-10 | 2026-08-31 00:50:08 | 53.25070 | 10.91725 | 161° | 40km/h | 33792m | 6.9m/s | -38.1°C | 1.7% | 7.2hPa | 2.6V | 00:00:00 | 00:00:00 | 00:00:00 | |
| DD8BA-10 | 2026-08-31 00:50:07 | 53.25077 | 10.91721 | 155° | 35km/h | 33785m | 6.3m/s | -38.1°C | 1.7% | 7.2hPa | 2.6V | 00:00:00 | 00:00:00 | 00:00:00 | |
| DO2SHX-10 | 2026-08-31 00:50:06 | 53.25084 | 10.91712 | 136° | 40km/h | 33780m | 4.3m/s | -38.1°C | 1.6% | 7.2hPa | 2.6V | 03:10:00 | 02:05:15 | 00:00:00 | |
| DL4BBY-15 | 2026-08-31 00:50:05 | 53.25090 | 10.91699 | 121° | 42km/h | 33775m | 3.2m/s | -38.6°C | 0% | 0hPa | 2.6V | 00:00:00 | 00:00:00 | 00:00:00 | |
| DL1NUX | 2026-08-31 00:50:04 | 53.25070 | 10.91619 | 7° | 24km/h | 33744m | 2.9m/s | -38.2°C | 1.7% | 7.2hPa | 2.6V | 03:10:07 | 02:05:08 | 00:00:00 | |
| DB0NH | 2026-08-31 00:50:04 | 53.25093 | 10.91683 | 103° | 42km/h | 33772m | 4.1m/s | -38.1°C | 1.6% | 7.2hPa | 2.6V | 03:10:00 | 02:05:13 | 00:00:00 | |
| DL1XH1-15 | 2026-08-31 00:50:03 | 53.25066 | 10.91620 | 332° | 11km/h | 33740m | 4.4m/s | -38.2°C | 1.6% | 7.2hPa | 2.6V | 03:10:08 | 02:05:07 | 00:00:00 | |
| DL1XH-west | 2026-08-31 00:50:03 | 53.25091 | 10.91648 | 64° | 44km/h | 33758m | 7.3m/s | -38.2°C | 0% | 7.2hPa | 2.6V | 03:10:18 | 02:05:11 | 00:00:00 | |
| DM0DOS-11 | 2026-08-31 00:50:02 | 53.25077 | 10.91624 | 27° | 37km/h | 33747m | 3.4m/s | -38.2°C | 1.6% | 7.2hPa | 2.5V | 03:10:06 | 02:05:09 | 00:00:00 | |
| AA1-15 | 2026-08-31 00:50:01 | 53.25085 | 10.91633 | 45° | 42km/h | 33752m | 5.7m/s | -38.2°C | 0% | 7.2hPa | 2.6V | 03:10:18 | 02:05:10 | 00:00:00 | |
| BIOWL1-15 | 2026-08-31 00:49:56 | 53.25110 | 10.91602 | 124° | 55km/h | 33710m | 3.5m/s | -38.4°C | 0% | 7.3hPa | 2.6V | 03:10:18 | 02:05:01 | 00:00:00 | |
| DB0UT-7 | 2026-08-31 00:49:56 | 53.25069 | 10.91628 | 205° | 40km/h | 33728m | 7.1m/s | -38.2°C | 1.6% | 7.2hPa | 2.5V | 00:00:00 | 00:00:00 | 00:00:00 | |
| DO2SHX-10 | 2026-08-31 00:49:54 | 53.25089 | 10.91628 | 162° | 53km/h | 33717m | 3.5m/s | -38.2°C | 1.7% | 7.2hPa | 2.5V | 03:10:00 | 02:05:03 | 00:00:00 | |
| MECKS9 | 2026-08-31 00:49:53 | 53.25089 | 10.91628 | 162° | 51km/h | 33717m | 3.6m/s | -38.3°C | 0.2% | 7.3hPa | 2.5V | 03:10:00 | 00:00:00 | 00:00:00 | |
| DM0DOS-11 | 2026-08-31 00:49:52 | 53.25115 | 10.91560 | 78° | 53km/h | 33699m | 7.2m/s | -38.5°C | 1.7% | 7.3hPa | 2.5V | 03:10:16 | 02:04:59 | 00:00:00 | |
| HSKMA3-T | 2026-08-31 00:49:51 | 53.25115 | 10.91582 | 103° | 53km/h | 33705m | 6.1m/s | -38.4°C | 0% | 7.3hPa | 2.5V | 03:10:18 | 02:05:00 | 00:00:00 | |
| AA1-15 | 2026-08-31 00:49:50 | 53.25115 | 10.91560 | 79° | 53km/h | 33699m | 7.2m/s | -38.5°C | 0% | 7.3hPa | 2.5V | 03:10:18 | 02:04:59 | 00:00:00 | |
| DF8AY | 2026-08-31 00:49:45 | 53.25076 | 10.91513 | 322° | 22km/h | 33672m | 5.3m/s | -38.7°C | 0% | 7.3hPa | 2.6V | 03:11:09 | 02:04:54 | 00:00:00 | |
| BIOWL1-15 | 2026-08-31 00:49:43 | 53.25093 | 10.91525 | 157° | 42km/h | 33652m | 4.6m/s | -38.8°C | 0% | 7.4hPa | 2.5V | 03:11:09 | 02:04:50 | 00:00:00 | |
| DL1XH-west | 2026-08-31 00:49:40 | 53.25103 | 10.91514 | 134° | 51km/h | 33647m | 5.9m/s | -38.9°C | 0% | 7.4hPa | 2.5V | 03:11:09 | 02:04:49 | 00:00:00 | |
| DB0DAN | 2026-08-31 00:49:40 | 53.25103 | 10.91514 | 134° | 47km/h | 33647m | 5.9m/s | -38.9°C | 0.1% | 7.37hPa | 2.5V | 00:00:00 | 00:00:00 | 00:00:00 | |
| DL1NUX | 2026-08-31 00:49:39 | 53.25114 | 10.91470 | 97° | 66km/h | 33633m | 6.1m/s | -38.9°C | 1.7% | 7.4hPa | 2.6V | 03:10:28 | 02:04:47 | 00:00:00 | |
| AA1-15 | 2026-08-31 00:49:39 | 53.25110 | 10.91495 | 114° | 58km/h | 33640m | 6.7m/s | -38.9°C | 0% | 7.3hPa | 2.6V | 03:11:09 | 02:04:48 | 00:00:00 | |
| DO2SHX-10 | 2026-08-31 00:49:39 | 53.25110 | 10.91495 | 115° | 60km/h | 33641m | 6.6m/s | -38.9°C | 1.7% | 7.3hPa | 2.6V | 00:00:00 | 02:04:48 | 00:00:00 | |
| DF8AY-15 | 2026-08-31 00:49:38 | 53.25114 | 10.91470 | 98° | 40km/h | 33634m | 6.0m/s | -38.9°C | 1.7% | 7.3hPa | 2.6V | 00:00:00 | 02:04:47 | 00:00:00 | |
| DD8BA-10 | 2026-08-31 00:49:37 | 53.25114 | 10.91443 | 83° | 35km/h | 33628m | 4.9m/s | -38.9°C | 1.7% | 7.3hPa | 2.6V | 00:00:00 | 00:00:00 | 00:00:00 | |
| DL3OBA | 2026-08-31 00:49:36 | 53.25114 | 10.91443 | 83° | 68km/h | 33628m | 4.9m/s | -39.0°C | 0.1% | 7.4hPa | 2.6V | 03:11:00 | 00:00:00 | 00:00:00 | |
| DM0DOS-11 | 2026-08-31 00:49:35 | 53.25090 | 10.91384 | 174° | 22km/h | 33585m | 3.8m/s | -39°C | 1.7% | 7.4hPa | 2.6V | 03:10:37 | 02:04:38 | 00:00:00 | |
| DF8AY | 2026-08-31 00:49:35 | 53.25103 | 10.91396 | 55° | 53km/h | 33618m | 4.4m/s | -39°C | 0% | 7.4hPa | 2.5V | 03:11:09 | 02:04:44 | 00:00:00 | |
| BIOWL1-15 | 2026-08-31 00:49:34 | 53.25085 | 10.91374 | 337° | 15km/h | 33600m | 6.5m/s | -39°C | 0% | 7.4hPa | 2.6V | 03:11:09 | 02:04:41 | 00:00:00 | |
| DL1XH-west | 2026-08-31 00:49:30 | 53.25085 | 10.91382 | 211° | 16km/h | 33589m | 4.2m/s | -39°C | 0% | 7.4hPa | 2.5V | 03:11:09 | 02:04:39 | 00:00:00 | |
| HSKMA3-T | 2026-08-31 00:49:30 | 53.25090 | 10.91384 | 175° | 22km/h | 33585m | 3.8m/s | -39°C | 0% | 7.4hPa | 2.6V | 03:11:09 | 02:04:38 | 00:00:00 | |
| DL1XH1-15 | 2026-08-31 00:49:30 | 53.25096 | 10.91380 | 144° | 29km/h | 33581m | 4.8m/s | -39°C | 1.7% | 7.4hPa | 2.6V | 03:10:38 | 02:04:37 | 00:00:00 | |
| AA1-15 | 2026-08-31 00:49:28 | 53.25096 | 10.91380 | 145° | 29km/h | 33581m | 4.8m/s | -39°C | 0% | 7.4hPa | 2.6V | 03:11:09 | 02:04:37 | 00:00:00 | |
| DF8AY | 2026-08-31 00:49:24 | 53.25108 | 10.91307 | 82° | 60km/h | 33557m | 5.6m/s | -38.9°C | 0% | 7.4hPa | 2.6V | 03:11:09 | 02:04:33 | 00:00:00 | |
| DM0DOS-11 | 2026-08-31 00:49:24 | 53.25091 | 10.91235 | 55° | 26km/h | 33537m | 5.3m/s | -38.9°C | 1.7% | 7.5hPa | 2.5V | 03:10:46 | 02:04:29 | 00:00:00 | |
| DO2SHX-10 | 2026-08-31 00:49:24 | 53.25108 | 10.91307 | 83° | 55km/h | 33557m | 5.6m/s | -38.9°C | 1.7% | 7.4hPa | 2.6V | 00:00:00 | 02:04:33 | 00:00:00 | |
| DL1XH1-15 | 2026-08-31 00:49:23 | 53.25087 | 10.91223 | 94° | 7km/h | 33525m | 6.2m/s | -39°C | 1.7% | 7.5hPa | 2.6V | 03:10:48 | 02:04:27 | 00:00:00 | |
| BIOWL1-15 | 2026-08-31 00:49:21 | 53.25088 | 10.91228 | 59° | 15km/h | 33531m | 5.9m/s | -38.9°C | 0% | 7.5hPa | 2.6V | 03:11:09 | 02:04:28 | 00:00:00 | |
| DL1XH-15 | 2026-08-31 00:49:21 | 53.25093 | 10.91213 | 130° | 18km/h | 33507m | 5m/s | -39.2°C | 1.7% | 7.5hPa | 2.6V | 03:10:51 | 02:04:24 | 00:00:00 | |
| HSKMA3-T | 2026-08-31 00:49:19 | 53.25087 | 10.91223 | 95° | 7km/h | 33525m | 6.2m/s | -39°C | 0% | 7.5hPa | 2.6V | 03:11:09 | 02:04:27 | 00:00:00 | |
| AA1-15 | 2026-08-31 00:49:17 | 53.25088 | 10.91221 | 142° | 9km/h | 33519m | 6.5m/s | -39°C | 0% | 7.5hPa | 2.6V | 03:11:09 | 02:04:26 | 00:00:00 | |
| DD8BA-10 | 2026-08-31 00:49:17 | 53.25088 | 10.91221 | 143° | 26km/h | 33519m | 6.5m/s | -39.0°C | 1.7% | 7.4hPa | 2.6V | 00:00:00 | 00:00:00 | 00:00:00 | |
| DM0DOS-11 | 2026-08-31 00:49:15 | 53.25100 | 10.91154 | 80° | 33km/h | 33481m | 5.8m/s | -39.6°C | 1.8% | 7.5hPa | 2.6V | 03:10:56 | 02:04:19 | 00:00:00 | |
| DF8AY | 2026-08-31 00:49:13 | 53.25099 | 10.91195 | 106° | 29km/h | 33498m | 5.3m/s | -39.4°C | 0% | 7.5hPa | 2.6V | 03:11:09 | 02:04:22 | 00:00:00 | |
| SMARD9-15 | 2026-08-31 00:49:13 | 53.25101 | 10.91182 | 94° | 31km/h | 33493m | 5.5m/s | -39.5°C | 0.2% | 7.5hPa | 2.5V | 00:00:00 | 00:00:00 | 00:00:00 | |
| DO9LL-15 | 2026-08-31 00:49:12 | 53.25101 | 10.91182 | 95° | 26km/h | 33493m | 5.4m/s | -39.4°C | 1.7% | 7.5hPa | 2.5V | 00:00:00 | 02:04:21 | 00:00:00 | |
| DL1XH-15 | 2026-08-31 00:49:10 | 53.25091 | 10.91094 | 78° | 27km/h | 33452m | 5.5m/s | -39.8°C | 1.8% | 7.6hPa | 2.5V | 03:11:01 | 02:04:14 | 00:00:00 | |
| DB0DAN | 2026-08-31 00:49:10 | 53.25100 | 10.91154 | 81° | 33km/h | 33481m | 5.8m/s | -39.7°C | 0.2% | 7.55hPa | 2.6V | 00:00:00 | 00:00:00 | 00:00:00 | |
| DL1XH-west | 2026-08-31 00:49:09 | 53.25098 | 10.91141 | 77° | 33km/h | 33475m | 5.8m/s | -39.7°C | 0% | 7.5hPa | 2.5V | 03:11:09 | 02:04:18 | 00:00:00 | |
| BIOWL1-15 | 2026-08-31 00:49:09 | 53.25091 | 10.91094 | 78° | 27km/h | 33452m | 5.5m/s | -39.8°C | 0% | 7.6hPa | 2.5V | 03:11:09 | 02:04:14 | 00:00:00 | |
| HSKMA3-T | 2026-08-31 00:49:08 | 53.25096 | 10.91128 | 74° | 29km/h | 33469m | 5.9m/s | -39.8°C | 0% | 7.5hPa | 2.6V | 03:11:09 | 02:04:17 | 00:00:00 | |
| AA1-15 | 2026-08-31 00:49:06 | 53.25093 | 10.91105 | 75° | 27km/h | 33458m | 5.4m/s | -39.8°C | 0% | 7.6hPa | 2.6V | 03:11:09 | 02:04:15 | 00:00:00 | |
| DF8AY | 2026-08-31 00:49:03 | 53.25089 | 10.91069 | 86° | 31km/h | 33440m | 6m/s | -39.9°C | 0% | 7.6hPa | 2.6V | 03:11:09 | 02:04:12 | 00:00:00 | |
| BIOWL1-15 | 2026-08-31 00:48:59 | 53.25087 | 10.91008 | 59° | 16km/h | 33402m | 4.7m/s | -39.9°C | 0% | 7.6hPa | 2.6V | 03:12:00 | 02:04:05 | 00:00:00 | |
| DL1XH-west | 2026-08-31 00:48:58 | 53.25089 | 10.91018 | 86° | 11km/h | 33412m | 6m/s | -39.9°C | 0% | 7.6hPa | 2.6V | 03:11:09 | 02:04:07 | 00:00:00 | |
| DF8AY-15 | 2026-08-31 00:48:58 | 53.25089 | 10.91018 | 86° | 24km/h | 33413m | 6.0m/s | -39.8°C | 1.8% | 7.5hPa | 2.6V | 00:00:00 | 02:04:07 | 00:00:00 | |
| DL1XH-15 | 2026-08-31 00:48:57 | 53.25084 | 10.91001 | 59° | 24km/h | 33397m | 5.1m/s | -39.9°C | 1.8% | 7.6hPa | 2.6V | 03:11:11 | 02:04:04 | 00:00:00 | |
| DO2SHX-10 | 2026-08-31 00:48:57 | 53.25088 | 10.91013 | 64° | 18km/h | 33407m | 5.1m/s | -39.8°C | 1.8% | 7.6hPa | 2.6V | 00:00:00 | 02:04:06 | 00:00:00 | |
| DM0DOS-11 | 2026-08-31 00:48:56 | 53.25066 | 10.90926 | 74° | 37km/h | 33369m | 4.7m/s | -40.1°C | 1.7% | 7.7hPa | 2.6V | 03:11:16 | 02:03:59 | 00:00:00 | |
| AA1-15 | 2026-08-31 00:48:56 | 53.25084 | 10.91001 | 59° | 24km/h | 33397m | 5.1m/s | -39.9°C | 0% | 7.6hPa | 2.6V | 03:12:00 | 02:04:04 | 00:00:00 | |
| DB0DAN | 2026-08-31 00:48:55 | 53.25084 | 10.91001 | 59° | 24km/h | 33397m | 5.1m/s | -39.9°C | 0.2% | 7.63hPa | 2.6V | 00:00:00 | 00:00:00 | 00:00:00 | |
| DF8AY | 2026-08-31 00:48:52 | 53.25072 | 10.90959 | 69° | 46km/h | 33378m | 5.1m/s | -40°C | 0% | 7.7hPa | 2.6V | 03:12:00 | 02:04:01 | 00:00:00 | |
| DL4XJ-10 | 2026-08-31 00:48:52 | 53.25072 | 10.90959 | 70° | 24km/h | 33379m | 5.1m/s | -40.5°C | 0% | 0hPa | 2.5V | 00:00:00 | 00:00:00 | 00:00:00 | |
| DO2SHX-10 | 2026-08-31 00:48:51 | 53.25069 | 10.90941 | 72° | 35km/h | 33373m | 4.1m/s | -40.0°C | 1.8% | 7.6hPa | 2.5V | 03:11:00 | 02:04:00 | 00:00:00 | |
| DL1XH1-15 | 2026-08-31 00:48:50 | 53.25063 | 10.90903 | 83° | 16km/h | 33357m | 7.3m/s | -40.2°C | 1.8% | 7.7hPa | 2.5V | 03:11:18 | 02:03:57 | 00:00:00 | |
| DL1XH-15 | 2026-08-31 00:48:50 | 53.25063 | 10.90894 | 89° | 4km/h | 33339m | 5m/s | -40.5°C | 1.8% | 7.7hPa | 2.6V | 03:11:21 | 02:03:54 | 00:00:00 | |
| DL1XH-west | 2026-08-31 00:48:48 | 53.25063 | 10.90903 | 84° | 16km/h | 33357m | 7.3m/s | -40.3°C | 0% | 7.7hPa | 2.5V | 03:12:00 | 02:03:57 | 00:00:00 | |
| HSKMA3-T | 2026-08-31 00:48:47 | 53.25063 | 10.90896 | 112° | 4km/h | 33344m | 5.3m/s | -40.4°C | 0% | 7.7hPa | 2.6V | 03:12:00 | 02:03:55 | 00:00:00 | |
| BIOWL1-15 | 2026-08-31 00:48:45 | 53.25063 | 10.90894 | 89° | 4km/h | 33339m | 5m/s | -40.5°C | 0% | 7.7hPa | 2.6V | 03:12:00 | 02:03:54 | 00:00:00 | |
| AA1-15 | 2026-08-31 00:48:44 | 53.25063 | 10.90891 | 64° | 9km/h | 33334m | 5.7m/s | -40.6°C | 0% | 7.7hPa | 2.6V | 03:12:00 | 02:03:53 | 00:00:00 | |
| GOEST3-10 | 2026-08-31 00:48:44 | 53.25062 | 10.90891 | 64° | 24km/h | 33334m | 5.7m/s | -40.5°C | 1.8% | 7.7hPa | 2.5V | 00:00:00 | 02:03:53 | 00:00:00 | |
| DL1NUX | 2026-08-31 00:48:43 | 53.25047 | 10.90830 | 73° | 29km/h | 33298m | 5.5m/s | -40.7°C | 1.8% | 7.8hPa | 2.5V | 03:11:28 | 02:03:47 | 00:00:00 | |
| DF8AY | 2026-08-31 00:48:42 | 53.25059 | 10.90878 | 63° | 26km/h | 33322m | 5.2m/s | -40.7°C | 0% | 7.7hPa | 2.6V | 03:12:00 | 02:03:51 | 00:00:00 | |
| SMARD9-15 | 2026-08-31 00:48:42 | 53.25055 | 10.90867 | 63° | 33km/h | 33317m | 5.6m/s | -40.7°C | 0.2% | 7.7hPa | 2.6V | 00:00:00 | 00:00:00 | 00:00:00 | |
| DL1XH-15 | 2026-08-31 00:48:40 | 53.25042 | 10.90797 | 78° | 26km/h | 33283m | 4.9m/s | -40.9°C | 1.8% | 7.8hPa | 2.6V | 03:11:31 | 02:03:44 | 00:00:00 | |
| DB0DAN | 2026-08-31 00:48:40 | 53.25052 | 10.90855 | 66° | 31km/h | 33311m | 6.5m/s | -40.7°C | 0.2% | 7.72hPa | 2.6V | 00:00:00 | 00:00:00 | 00:00:00 | |
| DL1XH-west | 2026-08-31 00:48:38 | 53.25046 | 10.90830 | 73° | 29km/h | 33298m | 5.5m/s | -40.7°C | 0% | 7.8hPa | 2.5V | 03:12:00 | 02:03:47 | 00:00:00 | |
| HSKMA3-T | 2026-08-31 00:48:36 | 53.25044 | 10.90807 | 79° | 26km/h | 33288m | 4.8m/s | -40.9°C | 0% | 7.8hPa | 2.6V | 03:12:00 | 02:03:45 | 00:00:00 | |
| AA1-15 | 2026-08-31 00:48:33 | 53.25039 | 10.90776 | 67° | 27km/h | 33271m | 6.3m/s | -41.1°C | 0% | 7.8hPa | 2.6V | 03:12:00 | 02:03:42 | 00:00:00 | |
| DF8AY | 2026-08-31 00:48:32 | 53.25027 | 10.90745 | 48° | 27km/h | 33254m | 5m/s | -41.3°C | 0% | 7.8hPa | 2.5V | 03:12:00 | 02:03:39 | 00:00:00 | |
| AP2371 | 2026-08-31 00:48:31 | 53.25035 | 10.90765 | 63° | 29km/h | 33266m | 5.9m/s | -41.2°C | 0.2% | 7.8hPa | 2.6V | 00:00:00 | 00:00:00 | 00:00:00 | |
| DL1XH-15 | 2026-08-31 00:48:30 | 53.25011 | 10.90727 | 32° | 9km/h | 33226m | 4.4m/s | -41.5°C | 1.9% | 7.8hPa | 2.6V | 03:11:41 | 02:03:34 | 00:00:00 | |
| DL1XH-west | 2026-08-31 00:48:27 | 53.25015 | 10.90730 | 20° | 13km/h | 33238m | 6.8m/s | -41.4°C | 0% | 7.8hPa | 2.5V | 03:12:00 | 02:03:36 | 00:00:00 | |
| HSKMA3-T | 2026-08-31 00:48:26 | 53.25011 | 10.90727 | 32° | 9km/h | 33226m | 4.4m/s | -41.5°C | 0% | 7.8hPa | 2.6V | 03:12:00 | 02:03:34 | 00:00:00 | |
| DM0DOS-11 | 2026-08-31 00:48:26 | 53.24989 | 10.90675 | 58° | 47km/h | 33196m | 4.9m/s | -41.7°C | 1.9% | 7.8hPa | 2.6V | 03:11:46 | 02:03:29 | 00:00:00 | |
| DO2SHX-10 | 2026-08-31 00:48:24 | 53.25008 | 10.90723 | 46° | 27km/h | 33222m | 4.2m/s | -41.5°C | 1.9% | 7.8hPa | 2.6V | 00:00:00 | 02:03:33 | 00:00:00 | |
| BIOWL1-15 | 2026-08-31 00:48:24 | 53.25008 | 10.90724 | 46° | 16km/h | 33222m | 4.3m/s | -41.5°C | 0% | 7.8hPa | 2.6V | 03:12:00 | 02:03:33 | 00:00:00 | |
| DL1XH1-15 | 2026-08-31 00:48:23 | 53.24977 | 10.90644 | 57° | 38km/h | 33188m | 4.5m/s | -41.7°C | 1.9% | 7.9hPa | 2.6V | 03:11:48 | 02:03:27 | 00:00:00 | |
| AA1-15 | 2026-08-31 00:48:23 | 53.25005 | 10.90716 | 54° | 27km/h | 33216m | 6.3m/s | -41.5°C | 0% | 7.8hPa | 2.5V | 03:12:00 | 02:03:32 | 00:00:00 | |
| DF8AY | 2026-08-31 00:48:19 | 53.24964 | 10.90623 | 350° | 9km/h | 33164m | 5m/s | -42°C | 0% | 7.9hPa | 2.6V | 03:12:00 | 02:03:23 | 00:00:00 | |
| DL1XH-15 | 2026-08-31 00:48:19 | 53.24966 | 10.90623 | 15° | 9km/h | 33169m | 5.9m/s | -41.9°C | 2% | 7.9hPa | 2.6V | 03:11:51 | 02:03:24 | 00:00:00 | |
| DL1XH-west | 2026-08-31 00:48:17 | 53.24972 | 10.90633 | 53° | 26km/h | 33183m | 6.4m/s | -41.8°C | 0% | 7.9hPa | 2.5V | 03:12:00 | 02:03:26 | 00:00:00 | |
| HSKMA3-T | 2026-08-31 00:48:15 | 53.24966 | 10.90623 | 16° | 9km/h | 33169m | 5.9m/s | -41.9°C | 0% | 7.9hPa | 2.6V | 03:12:00 | 02:03:24 | 00:00:00 | |
| DO2SHX-10 | 2026-08-31 00:48:15 | 53.24966 | 10.90623 | 16° | 9km/h | 33170m | 5.8m/s | -41.8°C | 2.0% | 7.9hPa | 2.5V | 03:11:00 | 02:03:24 | 00:00:00 | |
| DM0DOS-11 | 2026-08-31 00:48:13 | 53.24951 | 10.90604 | 58° | 37km/h | 33142m | 6.5m/s | -42.1°C | 2% | 7.9hPa | 2.5V | 03:11:56 | 02:03:19 | 00:00:00 | |
| BIOWL1-15 | 2026-08-31 00:48:13 | 53.24955 | 10.90615 | 51° | 26km/h | 33148m | 6.6m/s | -42.1°C | 0% | 7.9hPa | 2.5V | 03:12:00 | 02:03:20 | 00:00:00 | |
| AA1-15 | 2026-08-31 00:48:12 | 53.24959 | 10.90621 | 37° | 16km/h | 33154m | 5.6m/s | -42°C | 0% | 7.9hPa | 2.6V | 03:12:00 | 02:03:21 | 00:00:00 | |
| DO2SHX-10 | 2026-08-31 00:48:12 | 53.24959 | 10.90621 | 37° | 26km/h | 33155m | 5.6m/s | -42.0°C | 2.0% | 7.9hPa | 2.6V | 00:00:00 | 02:03:21 | 00:00:00 | |
| SMARD9-15 | 2026-08-31 00:48:11 | 53.24951 | 10.90604 | 58° | 35km/h | 33142m | 6.5m/s | -42.1°C | 0.2% | 7.9hPa | 2.6V | 00:00:00 | 00:00:00 | 00:00:00 | |
| DL1XH-15 | 2026-08-31 00:48:10 | 53.24934 | 10.90524 | 86° | 29km/h | 33113m | 6.6m/s | -42.3°C | 2% | 8hPa | 2.6V | 03:12:01 | 02:03:14 | 00:00:00 | |
| DB0DAN | 2026-08-31 00:48:10 | 53.24951 | 10.90604 | 58° | 35km/h | 33142m | 6.5m/s | -42.1°C | 0.2% | 7.94hPa | 2.5V | 00:00:00 | 00:00:00 | 00:00:00 | |
| DF8AY | 2026-08-31 00:48:09 | 53.24942 | 10.90572 | 68° | 47km/h | 33130m | 4.9m/s | -42.2°C | 0% | 8hPa | 2.6V | 03:12:00 | 02:03:17 | 00:00:00 | |
| DL1XH-west | 2026-08-31 00:48:07 | 53.24938 | 10.90554 | 73° | 44km/h | 33125m | 5.2m/s | -42.2°C | 0% | 8hPa | 2.6V | 03:12:00 | 02:03:16 | 00:00:00 | |
| HSKMA3-T | 2026-08-31 00:48:05 | 53.24934 | 10.90524 | 87° | 29km/h | 33113m | 6.6m/s | -42.3°C | 0% | 8hPa | 2.6V | 03:12:51 | 02:03:14 | 00:00:00 | |
| DL4BBY-15 | 2026-08-31 00:48:05 | 53.24934 | 10.90524 | 87° | 31km/h | 33113m | 6.5m/s | -42.8°C | 0% | 0hPa | 2.6V | 00:00:00 | 00:00:00 | 00:00:00 | |
| DB0NH | 2026-08-31 00:48:04 | 53.24934 | 10.90513 | 99° | 31km/h | 33107m | 6.4m/s | -42.3°C | 2.0% | 7.9hPa | 2.6V | 03:12:00 | 02:03:13 | 00:00:00 | |
| DL1XH1-15 | 2026-08-31 00:48:03 | 53.24924 | 10.90462 | 52° | 44km/h | 33072m | 6.4m/s | -42.6°C | 2.1% | 8hPa | 2.6V | 03:12:08 | 02:03:07 | 00:00:00 | |
| BIOWL1-15 | 2026-08-31 00:48:03 | 53.24935 | 10.90506 | 107° | 16km/h | 33100m | 5.3m/s | -42.4°C | 0% | 8hPa | 2.6V | 03:12:51 | 02:03:12 | 00:00:00 | |
| AA1-15 | 2026-08-31 00:48:01 | 53.24936 | 10.90494 | 72° | 16km/h | 33090m | 4.8m/s | -42.5°C | 0% | 8hPa | 2.6V | 03:12:51 | 02:03:10 | 00:00:00 | |
| DF8AY | 2026-08-31 00:47:57 | 53.24892 | 10.90375 | 73° | 26km/h | 33038m | 5.5m/s | -42.7°C | 0% | 8hPa | 2.6V | 03:12:51 | 02:03:01 | 00:00:00 | |
| BIOWL1-15 | 2026-08-31 00:47:57 | 53.24895 | 10.90387 | 68° | 31km/h | 33044m | 5.9m/s | -42.7°C | 0% | 8hPa | 2.6V | 03:12:51 | 02:03:02 | 00:00:00 | |
| DL1XH-west | 2026-08-31 00:47:56 | 53.24910 | 10.90431 | 55° | 49km/h | 33061m | 4.8m/s | -42.7°C | 0% | 8hPa | 2.5V | 03:12:51 | 02:03:05 | 00:00:00 | |
| HSKMA3-T | 2026-08-31 00:47:55 | 53.24903 | 10.90415 | 58° | 44km/h | 33055m | 5.5m/s | -42.7°C | 0% | 8hPa | 2.6V | 03:12:51 | 02:03:04 | 00:00:00 | |
| EDDB2-12 | 2026-08-31 00:47:55 | 53.24903 | 10.90415 | 57° | 44km/h | 33056m | 5.5m/s | -42.7°C | 0.2% | 8.0hPa | 2.5V | 00:00:00 | 00:00:00 | 00:00:00 | |
| BIOWL9-15 | 2026-08-31 00:47:52 | 53.24890 | 10.90366 | 66° | 22km/h | 33033m | 5.0m/s | -42.6°C | 0.2% | 8.1hPa | 2.5V | 00:00:00 | 00:00:00 | 00:00:00 | |
| DL1XH-15 | 2026-08-31 00:47:51 | 53.24852 | 10.90315 | 27° | 38km/h | 32998m | 5m/s | -42.5°C | 2.1% | 8.1hPa | 2.5V | 03:12:21 | 02:02:54 | 00:00:00 | |
| AA1-15 | 2026-08-31 00:47:50 | 53.24887 | 10.90357 | 57° | 26km/h | 33028m | 5.4m/s | -42.6°C | 0% | 8.1hPa | 2.5V | 03:12:51 | 02:02:59 | 00:00:00 | |
| DL1XH1-15 | 2026-08-31 00:47:50 | 53.24877 | 10.90339 | 37° | 35km/h | 33015m | 6.8m/s | -42.5°C | 2.1% | 8.1hPa | 2.6V | 03:12:18 | 02:02:57 | 00:00:00 | |
| DL1XH-west | 2026-08-31 00:47:46 | 53.24860 | 10.90322 | 28° | 42km/h | 33003m | 5.4m/s | -42.5°C | 0% | 8.1hPa | 2.6V | 03:12:51 | 02:02:55 | 00:00:00 | |
| HSKMA3-T | 2026-08-31 00:47:45 | 53.24844 | 10.90307 | 30° | 33km/h | 32992m | 5.5m/s | -42.5°C | 0% | 8.1hPa | 2.6V | 03:12:51 | 02:02:53 | 00:00:00 | |
| SONDE2-11 | 2026-08-31 00:47:44 | 53.24837 | 10.90301 | 36° | 26km/h | 32987m | 6.8m/s | -42.5°C | 0.2% | 8.1hPa | 2.6V | 00:00:00 | 00:00:00 | 00:00:00 | |
| DL1XH1-15 | 2026-08-31 00:47:43 | 53.24829 | 10.90254 | 69° | 31km/h | 32958m | 4.8m/s | -42.5°C | 2% | 8.1hPa | 2.6V | 03:12:28 | 02:02:47 | 00:00:00 | |
| BIOWL1-15 | 2026-08-31 00:47:43 | 53.24837 | 10.90301 | 36° | 27km/h | 32987m | 6.8m/s | -42.5°C | 0% | 8.1hPa | 2.6V | 03:12:51 | 02:02:52 | 00:00:00 | |
| AA1-15 | 2026-08-31 00:47:39 | 53.24830 | 10.90266 | 83° | 27km/h | 32963m | 4.3m/s | -42.5°C | 0% | 8.1hPa | 2.6V | 03:12:51 | 02:02:48 | 00:00:00 | |
| DL1XH-15 | 2026-08-31 00:47:39 | 53.24808 | 10.90219 | 25° | 47km/h | 32940m | 6.2m/s | -42.6°C | 2.1% | 8.2hPa | 2.5V | 03:12:31 | 02:02:44 | 00:00:00 | |
| DL1XH-west | 2026-08-31 00:47:36 | 53.24808 | 10.90219 | 26° | 47km/h | 32940m | 6.2m/s | -42.6°C | 0% | 8.2hPa | 2.5V | 03:12:51 | 02:02:44 | 00:00:00 | |
| HSKMA3-T | 2026-08-31 00:47:34 | 53.24796 | 10.90212 | 13° | 49km/h | 32935m | 5m/s | -42.6°C | 0% | 8.2hPa | 2.5V | 03:12:51 | 02:02:43 | 00:00:00 | |
| DB0NH | 2026-08-31 00:47:34 | 53.24796 | 10.90212 | 14° | 37km/h | 32935m | 4.9m/s | -42.5°C | 2.1% | 8.1hPa | 2.6V | 00:00:00 | 02:02:43 | 00:00:00 | |
| S3001 | 2026-08-31 00:47:33 | 53.24775 | 10.90211 | 351° | 35km/h | 32926m | 4.7m/s | -42.6°C | 0.2% | 8.2hPa | 2.6V | 00:00:00 | 00:00:00 | 00:00:00 | |
| DC4HF-4 | 2026-08-31 00:47:32 | 53.24775 | 10.90211 | 351° | 35km/h | 32926m | 4.7m/s | -42.6°C | 0.2% | 8.2hPa | 2.6V | 00:00:00 | 00:00:00 | 00:00:00 | |
| DL3OBA | 2026-08-31 00:47:31 | 53.24775 | 10.90210 | 352° | 37km/h | 32927m | 4.7m/s | -42.6°C | 0.2% | 8.2hPa | 2.6V | 03:12:00 | 00:00:00 | 00:00:00 | |
| DL1XH-15 | 2026-08-31 00:47:30 | 53.24778 | 10.90178 | 84° | 44km/h | 32886m | 6.1m/s | -42.5°C | 2.1% | 8.2hPa | 2.6V | 03:12:41 | 02:02:34 | 00:00:00 | |
| DL1XH1-15 | 2026-08-31 00:47:30 | 53.24769 | 10.90217 | 148° | 22km/h | 32902m | 5.3m/s | -42.5°C | 2.1% | 8.2hPa | 2.6V | 03:12:38 | 02:02:37 | 00:00:00 | |
| AA1-15 | 2026-08-31 00:47:28 | 53.24769 | 10.90218 | 148° | 22km/h | 32902m | 5.3m/s | -42.5°C | 0% | 8.2hPa | 2.6V | 03:12:51 | 02:02:37 | 00:00:00 | |
| DL1XH-west | 2026-08-31 00:47:25 | 53.24778 | 10.90178 | 84° | 44km/h | 32886m | 6.1m/s | -42.5°C | 0% | 8.2hPa | 2.6V | 03:12:51 | 02:02:34 | 00:00:00 | |
| DB0DAN | 2026-08-31 00:47:25 | 53.24778 | 10.90178 | 84° | 42km/h | 32886m | 6.1m/s | -42.5°C | 0.2% | 8.23hPa | 2.6V | 00:00:00 | 00:00:00 | 00:00:00 | |
| DF8AY | 2026-08-31 00:47:24 | 53.24775 | 10.90160 | 63° | 49km/h | 32880m | 5.7m/s | -42.5°C | 0% | 8.2hPa | 2.5V | 03:12:51 | 02:02:33 | 00:00:00 | |
| HSKMA3-T | 2026-08-31 00:47:24 | 53.24767 | 10.90143 | 45° | 53km/h | 32874m | 5.3m/s | -42.5°C | 0% | 8.2hPa | 2.6V | 03:12:51 | 02:02:32 | 00:00:00 | |
| BIOWL1-15 | 2026-08-31 00:47:21 | 53.24745 | 10.90124 | 8° | 46km/h | 32863m | 5.2m/s | -42.5°C | 0% | 8.2hPa | 2.6V | 03:12:51 | 02:02:30 | 00:00:00 | |
| BIOWL9-15 | 2026-08-31 00:47:21 | 53.24735 | 10.90124 | 348° | 37km/h | 32858m | 5.6m/s | -42.5°C | 0.2% | 8.3hPa | 2.6V | 00:00:00 | 00:00:00 | 00:00:00 | |
| DL1XH-15 | 2026-08-31 00:47:18 | 53.24735 | 10.90141 | 142° | 29km/h | 32829m | 5.9m/s | -42.6°C | 2.1% | 8.3hPa | 2.6V | 03:12:51 | 02:02:24 | 00:00:00 | |
| AA1-15 | 2026-08-31 00:47:17 | 53.24725 | 10.90143 | 227° | 16km/h | 32841m | 5.9m/s | -42.5°C | 0% | 8.2hPa | 2.6V | 03:12:51 | 02:02:26 | 00:00:00 | |
| DL1XH-west | 2026-08-31 00:47:14 | 53.24740 | 10.90130 | 118° | 37km/h | 32824m | 5.8m/s | -42.6°C | 0% | 8.3hPa | 2.6V | 03:13:42 | 02:02:23 | 00:00:00 | |
| DF8AY | 2026-08-31 00:47:13 | 53.24742 | 10.90115 | 94° | 40km/h | 32818m | 5.3m/s | -42.6°C | 0% | 8.3hPa | 2.6V | 03:13:42 | 02:02:22 | 00:00:00 | |
| DM0DOS-11 | 2026-08-31 00:47:13 | 53.24718 | 10.90063 | 11° | 38km/h | 32797m | 5.4m/s | -42.5°C | 2.1% | 8.3hPa | 2.6V | 03:12:57 | 02:02:18 | 00:00:00 | |
| SONDE2-11 | 2026-08-31 00:47:13 | 53.24741 | 10.90097 | 73° | 44km/h | 32813m | 5.4m/s | -42.5°C | 0.2% | 8.3hPa | 2.5V | 00:00:00 | 00:00:00 | 00:00:00 | |
| DO9LL-15 | 2026-08-31 00:47:12 | 53.24741 | 10.90097 | 74° | 35km/h | 32814m | 5.4m/s | -42.5°C | 2.1% | 8.3hPa | 2.5V | 00:00:00 | 02:02:21 | 00:00:00 | |
| SP3WXH-11 | 2026-08-31 00:47:11 | 53.24728 | 10.90069 | 31° | 42km/h | 32802m | 5.7m/s | -42.5°C | 0.2% | 8.3hPa | 2.6V | 00:00:00 | 00:00:00 | 00:00:00 | |
| DL1XH-15 | 2026-08-31 00:47:10 | 53.24701 | 10.90084 | 230° | 20km/h | 32773m | 6.7m/s | -42.3°C | 2% | 8.4hPa | 2.6V | 03:13:01 | 02:02:14 | 00:00:00 | |
| DB0DAN | 2026-08-31 00:47:10 | 53.24728 | 10.90069 | 32° | 42km/h | 32802m | 5.7m/s | -42.5°C | 0.2% | 8.33hPa | 2.6V | 00:00:00 | 00:00:00 | 00:00:00 | |
| AA1-15 | 2026-08-31 00:47:07 | 53.24703 | 10.90068 | 316° | 26km/h | 32786m | 6m/s | -42.4°C | 0% | 8.4hPa | 2.5V | 03:13:42 | 02:02:16 | 00:00:00 | |
| DD8BA-10 | 2026-08-31 00:47:07 | 53.24703 | 10.90068 | 316° | 33km/h | 32786m | 5.9m/s | -42.3°C | 2.1% | 8.3hPa | 2.5V | 03:12:00 | 00:00:00 | 00:00:00 | |
| DO2SHX-10 | 2026-08-31 00:47:06 | 53.24700 | 10.90076 | 276° | 24km/h | 32780m | 6.5m/s | -42.3°C | 2.1% | 8.3hPa | 2.5V | 00:00:00 | 02:02:15 | 00:00:00 | |
| DL4BBY-15 | 2026-08-31 00:47:05 | 53.24701 | 10.90084 | 231° | 29km/h | 32773m | 6.7m/s | -42.8°C | 0% | 0hPa | 2.6V | 00:00:00 | 00:00:00 | 00:00:00 | |
| DB0NH | 2026-08-31 00:47:04 | 53.24706 | 10.90088 | 189° | 27km/h | 32767m | 5.8m/s | -42.2°C | 2.0% | 8.3hPa | 2.6V | 00:00:00 | 02:02:13 | 00:00:00 | |
| DL1NUX | 2026-08-31 00:47:03 | 53.24715 | 10.90016 | 40° | 46km/h | 32732m | 6.1m/s | -42°C | 2% | 8.4hPa | 2.6V | 03:13:08 | 02:02:07 | 00:00:00 | |
| DL1XH-west | 2026-08-31 00:47:03 | 53.24713 | 10.90087 | 158° | 33km/h | 32761m | 4.9m/s | -42.2°C | 0% | 8.4hPa | 2.5V | 03:13:42 | 02:02:12 | 00:00:00 | |
| HSKMA3-T | 2026-08-31 00:47:03 | 53.24720 | 10.90078 | 132° | 37km/h | 32757m | 4.8m/s | -42.2°C | 0% | 8.4hPa | 2.5V | 03:13:42 | 02:02:11 | 00:00:00 | |
| 13BRC | 2026-08-31 00:47:02 | 53.24713 | 10.90087 | 159° | 33km/h | 32762m | 4.9m/s | -42.2°C | 0% | 0hPa | 2.6V | 03:13:00 | 00:00:00 | 00:00:00 | |
| DK7RCA | 2026-08-31 00:47:01 | 53.24720 | 10.90078 | 133° | 37km/h | 32757m | 4.8m/s | -42.2°C | 0.2% | 8.4hPa | 2.6V | 03:13:00 | 00:00:00 | 00:00:00 | |
| DM0DOS-11 | 2026-08-31 00:47:00 | 53.24722 | 10.90031 | 60° | 46km/h | 32739m | 6.5m/s | -42.1°C | 2% | 8.4hPa | 2.6V | 03:13:07 | 02:02:08 | 00:00:00 | |
| DO2SHX-10 | 2026-08-31 00:47:00 | 53.24725 | 10.90048 | 83° | 44km/h | 32745m | 6.1m/s | -42.1°C | 2.0% | 8.3hPa | 2.6V | 00:00:00 | 02:02:09 | 00:00:00 | |
| DO3MHA-11 | 2026-08-31 00:46:59 | 53.24722 | 10.90031 | 61° | 31km/h | 32739m | 6.4m/s | -42.0°C | 2.0% | 8.4hPa | 2.6V | 00:00:00 | 02:02:08 | 00:00:00 | |
| DL1XH-15 | 2026-08-31 00:46:58 | 53.24689 | 10.90004 | 343° | 24km/h | 32717m | 4.9m/s | -42°C | 2% | 8.4hPa | 2.6V | 03:13:11 | 02:02:04 | 00:00:00 | |
| AA1-15 | 2026-08-31 00:46:56 | 53.24696 | 10.90003 | 4° | 35km/h | 32721m | 4.5m/s | -42°C | 0% | 8.4hPa | 2.6V | 03:13:42 | 02:02:05 | 00:00:00 | |
| HTAHTA | 2026-08-31 00:46:54 | 53.24696 | 10.90011 | 157° | 31km/h | 32692m | 6.3m/s | -42.0°C | 0.2% | 8.5hPa | 2.6V | 00:00:00 | 00:00:00 | 00:00:00 | |
| DM0DOS-11 | 2026-08-31 00:46:53 | 53.24710 | 10.89991 | 120° | 38km/h | 32681m | 5.3m/s | -42°C | 2% | 8.5hPa | 2.6V | 03:13:17 | 02:01:58 | 00:00:00 | |
| DF8AY | 2026-08-31 00:46:53 | 53.24690 | 10.90014 | 180° | 24km/h | 32699m | 6.6m/s | -42°C | 0% | 8.4hPa | 2.6V | 03:13:42 | 02:02:01 | 00:00:00 | |
| BIOWL1-15 | 2026-08-31 00:46:51 | 53.24696 | 10.90011 | 157° | 31km/h | 32692m | 6.3m/s | -42°C | 0% | 8.5hPa | 2.5V | 03:13:42 | 02:02:00 | 00:00:00 | |
| DO2SHX-10 | 2026-08-31 00:46:51 | 53.24696 | 10.90011 | 158° | 37km/h | 32693m | 6.2m/s | -42.0°C | 2.0% | 8.4hPa | 2.6V | 03:13:00 | 02:02:00 | 00:00:00 | |
| DL1XH-15 | 2026-08-31 00:46:50 | 53.24704 | 10.89933 | 41° | 37km/h | 32657m | 6.3m/s | -42°C | 2% | 8.5hPa | 2.6V | 03:13:21 | 02:01:54 | 00:00:00 | |
| DL1XH1-15 | 2026-08-31 00:46:50 | 53.24713 | 10.89976 | 99° | 40km/h | 32675m | 5.6m/s | -42°C | 2% | 8.5hPa | 2.6V | 03:13:18 | 02:01:57 | 00:00:00 | |
| AA1-15 | 2026-08-31 00:46:45 | 53.24704 | 10.89933 | 41° | 37km/h | 32657m | 6.3m/s | -42°C | 0% | 8.5hPa | 2.6V | 03:13:42 | 02:01:54 | 00:00:00 | |
| DO2SHX-10 | 2026-08-31 00:46:45 | 53.24704 | 10.89933 | 42° | 31km/h | 32658m | 6.3m/s | -41.9°C | 2.0% | 8.5hPa | 2.6V | 00:00:00 | 02:01:54 | 00:00:00 | |
| DL1NUX | 2026-08-31 00:46:43 | 53.24683 | 10.89916 | 130° | 13km/h | 32615m | 6.5m/s | -42°C | 2% | 8.6hPa | 2.6V | 03:13:28 | 02:01:47 | 00:00:00 | |
| DL1XH-west | 2026-08-31 00:46:41 | 53.24681 | 10.89919 | 346° | 9km/h | 32634m | 5.7m/s | -42°C | 0% | 8.5hPa | 2.6V | 03:13:42 | 02:01:50 | 00:00:00 | |
| BIOWL1-15 | 2026-08-31 00:46:40 | 53.24683 | 10.89916 | 131° | 13km/h | 32616m | 6.5m/s | -42°C | 0% | 8.6hPa | 2.6V | 03:13:42 | 02:01:47 | 00:00:00 | |
| DB0DAN | 2026-08-31 00:46:40 | 53.24680 | 10.89919 | 250° | 0km/h | 32628m | 5.8m/s | -42°C | 0.2% | 8.54hPa | 2.6V | 00:00:00 | 00:00:00 | 00:00:00 | |
| AA1-15 | 2026-08-31 00:46:35 | 53.24689 | 10.89891 | 97° | 26km/h | 32598m | 5m/s | -42°C | 0% | 8.6hPa | 2.6V | 03:13:42 | 02:01:44 | 00:00:00 | |
| DF8AY | 2026-08-31 00:46:31 | 53.24682 | 10.89855 | 29° | 15km/h | 32569m | 5.6m/s | -42°C | 0% | 8.6hPa | 2.5V | 03:13:42 | 02:01:39 | 00:00:00 | |
| S3001 | 2026-08-31 00:46:31 | 53.24682 | 10.89855 | 29° | 13km/h | 32569m | 5.6m/s | -42.0°C | 0.2% | 8.6hPa | 2.6V | 00:00:00 | 00:00:00 | 00:00:00 | |
| DL1XH1-15 | 2026-08-31 00:46:30 | 53.24675 | 10.89849 | 24° | 20km/h | 32558m | 5.8m/s | -42°C | 2% | 8.6hPa | 2.6V | 03:13:38 | 02:01:37 | 00:00:00 | |
| BIOWL1-15 | 2026-08-31 00:46:29 | 53.24657 | 10.89814 | 83° | 18km/h | 32528m | 6.6m/s | -42°C | 0% | 8.7hPa | 2.6V | 03:14:33 | 02:01:32 | 00:00:00 | |
| HSKMA3-T | 2026-08-31 00:46:29 | 53.24675 | 10.89849 | 24° | 20km/h | 32558m | 5.8m/s | -42°C | 0% | 8.6hPa | 2.6V | 03:13:42 | 02:01:37 | 00:00:00 | |
| AA1-15 | 2026-08-31 00:46:24 | 53.24658 | 10.89822 | 67° | 22km/h | 32534m | 5m/s | -42°C | 0% | 8.7hPa | 2.5V | 03:13:42 | 02:01:33 | 00:00:00 | |
| DM0DOS-11 | 2026-08-31 00:46:24 | 53.24661 | 10.89791 | 93° | 15km/h | 32506m | 4.6m/s | -42°C | 2% | 8.7hPa | 2.5V | 03:13:47 | 02:01:28 | 00:00:00 | |
| DF8AY | 2026-08-31 00:46:20 | 53.24661 | 10.89792 | 94° | 15km/h | 32506m | 4.6m/s | -42°C | 0% | 8.7hPa | 2.5V | 03:14:33 | 02:01:28 | 00:00:00 | |
| DL1XH-15 | 2026-08-31 00:46:19 | 53.24646 | 10.89758 | 38° | 35km/h | 32482m | 5.3m/s | -41.9°C | 2% | 8.8hPa | 2.6V | 03:13:51 | 02:01:24 | 00:00:00 | |
| HSKMA3-T | 2026-08-31 00:46:18 | 53.24661 | 10.89785 | 67° | 18km/h | 32500m | 6.1m/s | -42°C | 0% | 8.7hPa | 2.6V | 03:14:33 | 02:01:27 | 00:00:00 | |
| DO2SHX-10 | 2026-08-31 00:46:18 | 53.24660 | 10.89785 | 68° | 26km/h | 32501m | 6.0m/s | -41.9°C | 2.0% | 8.6hPa | 2.6V | 00:00:00 | 02:01:27 | 00:00:00 | |
| DD8BA-10 | 2026-08-31 00:46:17 | 53.24658 | 10.89777 | 55° | 22km/h | 32494m | 6.6m/s | -41.9°C | 2.0% | 8.7hPa | 2.6V | 00:00:00 | 00:00:00 | 00:00:00 | |
| DO2SHX-10 | 2026-08-31 00:46:15 | 53.24646 | 10.89758 | 39° | 31km/h | 32483m | 5.3m/s | -41.9°C | 2.0% | 8.7hPa | 2.6V | 03:13:00 | 02:01:24 | 00:00:00 | |
| DM0DOS-11 | 2026-08-31 00:46:14 | 53.24619 | 10.89734 | 62° | 11km/h | 32449m | 5.9m/s | -41.7°C | 2% | 8.8hPa | 2.6V | 03:13:57 | 02:01:18 | 00:00:00 | |
| AA1-15 | 2026-08-31 00:46:13 | 53.24633 | 10.89744 | 24° | 27km/h | 32471m | 6.2m/s | -41.8°C | 0% | 8.7hPa | 2.5V | 03:14:33 | 02:01:22 | 00:00:00 | |
| DO2SHX-10 | 2026-08-31 00:46:12 | 53.24627 | 10.89740 | 19° | 15km/h | 32465m | 6.0m/s | -41.7°C | 2.0% | 8.7hPa | 2.5V | 00:00:00 | 02:01:21 | 00:00:00 | |
| SONDE2-11 | 2026-08-31 00:46:11 | 53.24620 | 10.89737 | 37° | 9km/h | 32455m | 4.9m/s | -41.7°C | 0.2% | 8.8hPa | 2.5V | 00:00:00 | 00:00:00 | 00:00:00 | |
| DL1XH1-15 | 2026-08-31 00:46:10 | 53.24617 | 10.89729 | 67° | 15km/h | 32443m | 6.3m/s | -41.7°C | 2% | 8.8hPa | 2.5V | 03:13:58 | 02:01:17 | 00:00:00 | |
| DL1XH-15 | 2026-08-31 00:46:10 | 53.24610 | 10.89708 | 47° | 24km/h | 32427m | 5m/s | -41.6°C | 2% | 8.8hPa | 2.6V | 03:14:01 | 02:01:14 | 00:00:00 | |
| DB0DAN | 2026-08-31 00:46:10 | 53.24620 | 10.89737 | 37° | 9km/h | 32454m | 4.9m/s | -41.7°C | 0.2% | 8.76hPa | 2.6V | 00:00:00 | 00:00:00 | 00:00:00 | |
| DF8AY | 2026-08-31 00:46:09 | 53.24619 | 10.89734 | 63° | 11km/h | 32449m | 5.9m/s | -41.7°C | 0% | 8.8hPa | 2.6V | 03:14:33 | 02:01:18 | 00:00:00 | |
| DL1XH-west | 2026-08-31 00:46:09 | 53.24618 | 10.89729 | 67° | 15km/h | 32443m | 6.3m/s | -41.7°C | 0% | 8.8hPa | 2.5V | 03:14:33 | 02:01:17 | 00:00:00 | |
| HSKMA3-T | 2026-08-31 00:46:07 | 53.24616 | 10.89722 | 68° | 18km/h | 32437m | 5.5m/s | -41.7°C | 0% | 8.8hPa | 2.5V | 03:14:33 | 02:01:16 | 00:00:00 | |
| DD8BA-10 | 2026-08-31 00:46:07 | 53.24616 | 10.89722 | 68° | 20km/h | 32437m | 5.4m/s | -41.6°C | 2.0% | 8.7hPa | 2.5V | 00:00:00 | 00:00:00 | 00:00:00 | |
| DL4XJ-10 | 2026-08-31 00:46:06 | 53.24614 | 10.89715 | 59° | 27km/h | 32432m | 5.0m/s | -42.2°C | 0% | 0hPa | 2.6V | 00:00:00 | 00:00:00 | 00:00:00 | |
| DL4BBY-15 | 2026-08-31 00:46:05 | 53.24610 | 10.89708 | 48° | 22km/h | 32427m | 5.0m/s | -42.1°C | 0% | 0hPa | 2.6V | 00:00:00 | 00:00:00 | 00:00:00 | |
| DB0NH | 2026-08-31 00:46:04 | 53.24606 | 10.89701 | 35° | 22km/h | 32422m | 5.5m/s | -41.6°C | 2.0% | 8.8hPa | 2.6V | 03:14:00 | 02:01:13 | 00:00:00 | |
| DM0DOS-11 | 2026-08-31 00:46:03 | 53.24583 | 10.89696 | 15° | 16km/h | 32394m | 4.7m/s | -41.6°C | 2% | 8.8hPa | 2.6V | 03:14:07 | 02:01:08 | 00:00:00 | |
| DL1NUX | 2026-08-31 00:46:03 | 53.24579 | 10.89693 | 39° | 18km/h | 32388m | 5.7m/s | -41.6°C | 2% | 8.8hPa | 2.5V | 03:14:08 | 02:01:07 | 00:00:00 | |
| BIOWL1-15 | 2026-08-31 00:46:03 | 53.24591 | 10.89697 | 353° | 18km/h | 32403m | 5.6m/s | -41.6°C | 0% | 8.8hPa | 2.6V | 03:14:33 | 02:01:10 | 00:00:00 | |
| AA1-15 | 2026-08-31 00:46:02 | 53.24596 | 10.89696 | 2° | 20km/h | 32409m | 6.2m/s | -41.6°C | 0% | 8.8hPa | 2.6V | 03:14:33 | 02:01:11 | 00:00:00 | |
| DF8AY | 2026-08-31 00:45:58 | 53.24579 | 10.89693 | 39° | 18km/h | 32388m | 5.7m/s | -41.6°C | 0% | 8.8hPa | 2.5V | 03:14:33 | 02:01:07 | 00:00:00 | |
| HSKMA3-T | 2026-08-31 00:45:56 | 53.24573 | 10.89676 | 68° | 29km/h | 32375m | 6.6m/s | -41.6°C | 0% | 8.9hPa | 2.6V | 03:14:33 | 02:01:05 | 00:00:00 | |
| BUE01 | 2026-08-31 00:45:55 | 53.24570 | 10.89663 | 70° | 33km/h | 32369m | 5.2m/s | -41.6°C | 0.2% | 8.9hPa | 2.6V | 00:00:00 | 00:00:00 | 00:00:00 | |
| DO2SHX-10 | 2026-08-31 00:45:54 | 53.24567 | 10.89651 | 67° | 24km/h | 32365m | 4.6m/s | -41.5°C | 2.0% | 8.8hPa | 2.6V | 00:00:00 | 02:01:03 | 00:00:00 | |
| DM0DOS-11 | 2026-08-31 00:45:53 | 53.24545 | 10.89641 | 337° | 27km/h | 32336m | 4.5m/s | -41.5°C | 2% | 9hPa | 2.6V | 03:14:17 | 02:00:58 | 00:00:00 | |
| BIOWL1-15 | 2026-08-31 00:45:52 | 53.24551 | 10.89636 | 338° | 26km/h | 32341m | 5m/s | -41.5°C | 0% | 8.9hPa | 2.5V | 03:14:33 | 02:00:59 | 00:00:00 | |
| AA1-15 | 2026-08-31 00:45:51 | 53.24556 | 10.89634 | 356° | 20km/h | 32347m | 6.2m/s | -41.6°C | 0% | 8.9hPa | 2.5V | 03:14:33 | 02:01:00 | 00:00:00 | |
| EDDB2-12 | 2026-08-31 00:45:51 | 53.24551 | 10.89636 | 338° | 26km/h | 32341m | 5.0m/s | -41.5°C | 0.2% | 8.9hPa | 2.5V | 00:00:00 | 00:00:00 | 00:00:00 | |
| DL1XH-15 | 2026-08-31 00:45:50 | 53.24519 | 10.89636 | 41° | 26km/h | 32314m | 5.8m/s | -41.4°C | 2% | 9hPa | 2.5V | 03:14:21 | 02:00:54 | 00:00:00 | |
| DL1XH1-15 | 2026-08-31 00:45:50 | 53.24538 | 10.89644 | 348° | 27km/h | 32331m | 5.2m/s | -41.5°C | 2% | 8.9hPa | 2.6V | 03:14:18 | 02:00:57 | 00:00:00 | |
| DF8AY | 2026-08-31 00:45:48 | 53.24538 | 10.89644 | 349° | 27km/h | 32331m | 5.2m/s | -41.5°C | 0% | 8.9hPa | 2.6V | 03:14:33 | 02:00:57 | 00:00:00 | |
| HSKMA3-T | 2026-08-31 00:45:46 | 53.24519 | 10.89636 | 42° | 26km/h | 32314m | 5.8m/s | -41.4°C | 0% | 9hPa | 2.5V | 03:14:33 | 02:00:54 | 00:00:00 | |
| DC4HF-4 | 2026-08-31 00:45:44 | 53.24515 | 10.89627 | 55° | 26km/h | 32308m | 5.8m/s | -41.4°C | 0.2% | 9.0hPa | 2.5V | 00:00:00 | 00:00:00 | 00:00:00 | |
| DL1XH1-15 | 2026-08-31 00:45:43 | 53.24499 | 10.89594 | 19° | 16km/h | 32274m | 5.8m/s | -41.3°C | 2% | 9hPa | 2.5V | 03:14:28 | 02:00:47 | 00:00:00 | |
| BIOWL1-15 | 2026-08-31 00:45:41 | 53.24502 | 10.89596 | 25° | 13km/h | 32280m | 5.2m/s | -41.3°C | 0% | 9hPa | 2.5V | 03:14:33 | 02:00:48 | 00:00:00 | |
| AA1-15 | 2026-08-31 00:45:41 | 53.24507 | 10.89604 | 59° | 15km/h | 32290m | 6.1m/s | -41.4°C | 0% | 9hPa | 2.6V | 03:14:33 | 02:00:50 | 00:00:00 | |
| DB0DAN | 2026-08-31 00:45:40 | 53.24505 | 10.89599 | 42° | 11km/h | 32285m | 5.3m/s | -41.4°C | 0.2% | 9hPa | 2.6V | 00:00:00 | 00:00:00 | 00:00:00 | |
| DL1XH-west | 2026-08-31 00:45:38 | 53.24489 | 10.89588 | 22° | 26km/h | 32262m | 6.1m/s | -41.2°C | 0% | 9hPa | 2.6V | 03:14:33 | 02:00:45 | 00:00:00 | |
| DF8AY | 2026-08-31 00:45:37 | 53.24495 | 10.89591 | 19° | 20km/h | 32268m | 6.2m/s | -41.3°C | 0% | 9hPa | 2.6V | 03:14:33 | 02:00:46 | 00:00:00 | |
| HSKMA3-T | 2026-08-31 00:45:35 | 53.24476 | 10.89581 | 16° | 29km/h | 32251m | 5.4m/s | -41.2°C | 0% | 9.1hPa | 2.5V | 03:14:33 | 02:00:43 | 00:00:00 | |
| DB0NH | 2026-08-31 00:45:34 | 53.24476 | 10.89580 | 16° | 27km/h | 32251m | 5.3m/s | -41.2°C | 2.0% | 9.0hPa | 2.6V | 00:00:00 | 02:00:43 | 00:00:00 | |
| DM0DOS-11 | 2026-08-31 00:45:33 | 53.24443 | 10.89572 | 30° | 16km/h | 32224m | 4.6m/s | -41.1°C | 1.9% | 9.1hPa | 2.6V | 03:14:37 | 02:00:38 | 00:00:00 | |
| BIOWL1-15 | 2026-08-31 00:45:31 | 53.24440 | 10.89567 | 57° | 18km/h | 32218m | 6.8m/s | -41.1°C | 0% | 9.1hPa | 2.6V | 03:15:24 | 02:00:37 | 00:00:00 | |
| AA1-15 | 2026-08-31 00:45:30 | 53.24447 | 10.89574 | 9° | 22km/h | 32229m | 4.1m/s | -41.1°C | 0% | 9.1hPa | 2.5V | 03:15:24 | 02:00:39 | 00:00:00 | |
| DL1XH-west | 2026-08-31 00:45:27 | 53.24438 | 10.89559 | 80° | 24km/h | 32211m | 8m/s | -41.1°C | 0% | 9.1hPa | 2.6V | 03:15:24 | 02:00:36 | 00:00:00 | |
| DO2SHX-10 | 2026-08-31 00:45:27 | 53.24438 | 10.89559 | 81° | 27km/h | 32211m | 8.0m/s | -41.0°C | 1.9% | 9.0hPa | 2.6V | 03:14:00 | 02:00:36 | 00:00:00 | |
| DB0DAN | 2026-08-31 00:45:25 | 53.24438 | 10.89535 | 90° | 27km/h | 32199m | 4m/s | -41.1°C | 0.2% | 9.11hPa | 2.6V | 00:00:00 | 00:00:00 | 00:00:00 | |
| HSKMA3-T | 2026-08-31 00:45:24 | 53.24435 | 10.89516 | 56° | 18km/h | 32190m | 5.6m/s | -41.1°C | 0% | 9.2hPa | 2.5V | 03:15:24 | 02:00:32 | 00:00:00 | |
| AA1-15 | 2026-08-31 00:45:19 | 53.24413 | 10.89515 | 349° | 31km/h | 32166m | 5.7m/s | -41°C | 0% | 9.2hPa | 2.6V | 03:15:24 | 02:00:28 | 00:00:00 | |
| BIOWL1-15 | 2026-08-31 00:45:18 | 53.24373 | 10.89478 | 23° | 24km/h | 32116m | 5.3m/s | -41°C | 0% | 9.2hPa | 2.6V | 03:15:24 | 02:00:19 | 00:00:00 | |
| DL1XH-15 | 2026-08-31 00:45:18 | 53.24390 | 10.89508 | 50° | 20km/h | 32144m | 5.2m/s | -41°C | 1.9% | 9.2hPa | 2.6V | 03:14:51 | 02:00:24 | 00:00:00 | |
| DL1XH-west | 2026-08-31 00:45:17 | 53.24399 | 10.89516 | 12° | 24km/h | 32154m | 5.2m/s | -41°C | 0% | 9.2hPa | 2.5V | 03:15:24 | 02:00:26 | 00:00:00 | |
| BIOWL9-15 | 2026-08-31 00:45:17 | 53.24394 | 10.89513 | 28° | 20km/h | 32149m | 5.1m/s | -41.0°C | 0.2% | 9.2hPa | 2.6V | 00:00:00 | 00:00:00 | 00:00:00 | |
| DO2SHX-10 | 2026-08-31 00:45:15 | 53.24390 | 10.89508 | 51° | 20km/h | 32144m | 5.1m/s | -41.0°C | 1.9% | 9.2hPa | 2.6V | 03:14:00 | 02:00:24 | 00:00:00 | |
| DL4XJ-10 | 2026-08-31 00:45:14 | 53.24387 | 10.89501 | 62° | 18km/h | 32138m | 5.7m/s | -41.6°C | 0% | 0hPa | 2.6V | 00:00:00 | 00:00:00 | 00:00:00 | |
| DM0DOS-11 | 2026-08-31 00:45:13 | 53.24367 | 10.89474 | 17° | 29km/h | 32110m | 5.2m/s | -41.1°C | 1.9% | 9.2hPa | 2.6V | 03:14:57 | 02:00:18 | 00:00:00 | |
| HSKMA3-T | 2026-08-31 00:45:12 | 53.24382 | 10.89487 | 51° | 18km/h | 32127m | 5.7m/s | -41°C | 0% | 9.2hPa | 2.6V | 03:15:24 | 02:00:21 | 00:00:00 | |
| DL3AQ-11 | 2026-08-31 00:45:12 | 53.24378 | 10.89482 | 32° | 20km/h | 32121m | 5.5m/s | -41.0°C | 0.2% | 9.2hPa | 2.5V | 00:00:00 | 00:00:00 | 00:00:00 | |
| DL1XH-15 | 2026-08-31 00:45:10 | 53.24327 | 10.89447 | 18° | 29km/h | 32082m | 4.6m/s | -41.2°C | 1.9% | 9.3hPa | 2.5V | 03:15:02 | 02:00:13 | 00:00:00 | |
| DB0DAN | 2026-08-31 00:45:10 | 53.24373 | 10.89478 | 23° | 24km/h | 32116m | 5.3m/s | -41°C | 0.2% | 9.21hPa | 2.6V | 00:00:00 | 00:00:00 | 00:00:00 | |
| AA1-15 | 2026-08-31 00:45:09 | 53.24367 | 10.89474 | 18° | 29km/h | 32111m | 5.2m/s | -41.1°C | 0% | 9.2hPa | 2.6V | 03:15:24 | 02:00:18 | 00:00:00 | |
| DL1XH-west | 2026-08-31 00:45:07 | 53.24352 | 10.89464 | 22° | 37km/h | 32098m | 6.5m/s | -41.1°C | 0% | 9.2hPa | 2.6V | 03:15:24 | 02:00:16 | 00:00:00 | |
| DF8AY | 2026-08-31 00:45:06 | 53.24312 | 10.89445 | 337° | 13km/h | 32065m | 5.4m/s | -41°C | 0% | 9.3hPa | 2.6V | 03:15:24 | 02:00:10 | 00:00:00 | |
| DO2SHX-10 | 2026-08-31 00:45:06 | 53.24343 | 10.89458 | 25° | 33km/h | 32092m | 5.6m/s | -41.1°C | 2.0% | 9.2hPa | 2.5V | 00:00:00 | 02:00:15 | 00:00:00 | |
| SMARD9-15 | 2026-08-31 00:45:05 | 53.24328 | 10.89447 | 18° | 29km/h | 32083m | 4.6m/s | -41.2°C | 0.2% | 9.3hPa | 2.5V | 00:00:00 | 00:00:00 | 00:00:00 | |
| DB0NH | 2026-08-31 00:45:04 | 53.24327 | 10.89447 | 19° | 16km/h | 32083m | 4.6m/s | -41.1°C | 1.9% | 9.2hPa | 2.5V | 00:00:00 | 02:00:13 | 00:00:00 | |
| DM0DOS-11 | 2026-08-31 00:45:03 | 53.24309 | 10.89448 | 26° | 0km/h | 32054m | 5.4m/s | -41°C | 1.9% | 9.3hPa | 2.6V | 03:15:07 | 02:00:08 | 00:00:00 | |
| BIOWL1-15 | 2026-08-31 00:45:03 | 53.24321 | 10.89444 | 11° | 24km/h | 32077m | 5.9m/s | -41.2°C | 0% | 9.3hPa | 2.6V | 03:15:24 | 02:00:12 | 00:00:00 | |
| HSKMA3-T | 2026-08-31 00:45:02 | 53.24316 | 10.89444 | 354° | 18km/h | 32071m | 6.5m/s | -41.1°C | 0% | 9.3hPa | 2.6V | 03:15:24 | 02:00:11 | 00:00:00 | |
| DF7PN | 2026-08-31 00:45:00 | 53.24310 | 10.89447 | 326° | 5km/h | 32060m | 5.2m/s | -41.0°C | 0.2% | 9.3hPa | 2.6V | 00:00:00 | 00:00:00 | 00:00:00 | |
| DL1ZP-14 | 2026-08-31 00:44:59 | 53.24310 | 10.89446 | 107° | 5km/h | 32049m | 6.7m/s | -40.9°C | 0.2% | 9.3hPa | 2.6V | 00:00:00 | 00:00:00 | 00:00:00 | |
| DL1XH-15 | 2026-08-31 00:44:58 | 53.24308 | 10.89426 | 58° | 24km/h | 32032m | 4.1m/s | -40.9°C | 1.9% | 9.3hPa | 2.5V | 03:15:11 | 02:00:04 | 00:00:00 | |
| AA1-15 | 2026-08-31 00:44:58 | 53.24310 | 10.89446 | 107° | 7km/h | 32048m | 6.7m/s | -40.9°C | 0% | 9.3hPa | 2.6V | 03:15:24 | 02:00:07 | 00:00:00 | |
| DL1XH-west | 2026-08-31 00:44:56 | 53.24310 | 10.89434 | 81° | 20km/h | 32037m | 4.5m/s | -40.9°C | 0% | 9.3hPa | 2.5V | 03:15:24 | 02:00:05 | 00:00:00 | |
| DF8AY | 2026-08-31 00:44:55 | 53.24308 | 10.89426 | 58° | 24km/h | 32033m | 4.1m/s | -40.9°C | 0% | 9.3hPa | 2.5V | 03:15:24 | 02:00:04 | 00:00:00 | |
| DB0DAN | 2026-08-31 00:44:55 | 53.24308 | 10.89426 | 58° | 22km/h | 32032m | 4.1m/s | -40.9°C | 0.2% | 9.33hPa | 2.5V | 00:00:00 | 00:00:00 | 00:00:00 | |
| DM0DOS-11 | 2026-08-31 00:44:54 | 53.24268 | 10.89407 | 358° | 20km/h | 32000m | 4.7m/s | -41.1°C | 1.9% | 9.4hPa | 2.6V | 03:15:17 | 01:59:58 | 00:00:00 | |
| HSKMA3-T | 2026-08-31 00:44:52 | 53.24282 | 10.89407 | 1° | 35km/h | 32009m | 4.2m/s | -41°C | 0% | 9.4hPa | 2.6V | 03:15:24 | 02:00:00 | 00:00:00 | |
| BIOWL1-15 | 2026-08-31 00:44:52 | 53.24291 | 10.89408 | 9° | 33km/h | 32014m | 6.2m/s | -41°C | 0% | 9.4hPa | 2.6V | 03:15:24 | 02:00:01 | 00:00:00 | |
| AA1-15 | 2026-08-31 00:44:47 | 53.24264 | 10.89404 | 92° | 7km/h | 31988m | 6.5m/s | -41.3°C | 0% | 9.4hPa | 2.6V | 03:15:24 | 01:59:56 | 00:00:00 | |
| DL1XH-west | 2026-08-31 00:44:46 | 53.24265 | 10.89401 | 135° | 13km/h | 31982m | 5.6m/s | -41.3°C | 0% | 9.4hPa | 2.6V | 03:15:24 | 01:59:55 | 00:00:00 | |
| DL1XH-15 | 2026-08-31 00:44:46 | 53.24268 | 10.89397 | 145° | 16km/h | 31977m | 4.7m/s | -41.4°C | 1.9% | 9.4hPa | 2.5V | 03:15:21 | 01:59:54 | 00:00:00 | |
| DF8AY | 2026-08-31 00:44:45 | 53.24268 | 10.89397 | 146° | 16km/h | 31977m | 4.7m/s | -41.4°C | 0% | 9.4hPa | 2.5V | 03:15:24 | 01:59:54 | 00:00:00 | |
| DO2SHX-10 | 2026-08-31 00:44:45 | 53.24268 | 10.89397 | 146° | 13km/h | 31978m | 4.7m/s | -41.4°C | 1.9% | 9.4hPa | 2.6V | 00:00:00 | 01:59:54 | 00:00:00 | |
| DL3OBA | 2026-08-31 00:44:44 | 53.24268 | 10.89397 | 147° | 16km/h | 31978m | 4.7m/s | 0°C | 0% | 9.4hPa | 2.6V | 00:00:00 | 00:00:00 | 00:00:00 | |
| DM0DOS-11 | 2026-08-31 00:44:43 | 53.24266 | 10.89399 | 345° | 18km/h | 31945m | 4.9m/s | -41.8°C | 2% | 9.5hPa | 2.6V | 03:15:27 | 01:59:48 | 00:00:00 | |
| BIOWL1-15 | 2026-08-31 00:44:42 | 53.24274 | 10.89392 | 265° | 2km/h | 31962m | 6m/s | -41.6°C | 0% | 9.4hPa | 2.6V | 03:15:24 | 01:59:51 | 00:00:00 | |
| HSKMA3-T | 2026-08-31 00:44:40 | 53.24270 | 10.89397 | 335° | 16km/h | 31950m | 5.3m/s | -41.7°C | 0% | 9.4hPa | 2.6V | 03:16:15 | 01:59:49 | 00:00:00 | |
| DL1XH-15 | 2026-08-31 00:44:40 | 53.24252 | 10.89391 | 56° | 16km/h | 31921m | 5.4m/s | -41.7°C | 2% | 9.5hPa | 2.5V | 03:15:31 | 01:59:44 | 00:00:00 | |
| DB0DAN | 2026-08-31 00:44:40 | 53.24270 | 10.89397 | 335° | 16km/h | 31950m | 5.3m/s | -41.7°C | 0.2% | 9.45hPa | 2.6V | 00:00:00 | 00:00:00 | 00:00:00 | |
| DO3MHA-11 | 2026-08-31 00:44:40 | 53.24270 | 10.89397 | 336° | 13km/h | 31951m | 5.3m/s | -41.7°C | 2.0% | 9.4hPa | 2.6V | 00:00:00 | 01:59:49 | 00:00:00 | |
| DL1XH1-15 | 2026-08-31 00:44:39 | 53.24261 | 10.89400 | 358° | 18km/h | 31939m | 5.5m/s | -41.8°C | 2% | 9.5hPa | 2.6V | 03:15:28 | 01:59:47 | 00:00:00 | |
| AA1-15 | 2026-08-31 00:44:36 | 53.24254 | 10.89396 | 43° | 15km/h | 31927m | 6.1m/s | -41.7°C | 0% | 9.5hPa | 2.6V | 03:16:15 | 01:59:45 | 00:00:00 | |
| DF8AY | 2026-08-31 00:44:35 | 53.24252 | 10.89391 | 57° | 16km/h | 31921m | 5.4m/s | -41.7°C | 0% | 9.5hPa | 2.5V | 03:16:15 | 01:59:44 | 00:00:00 | |
| BIOWL1-15 | 2026-08-31 00:44:34 | 53.24243 | 10.89375 | 26° | 16km/h | 31905m | 6m/s | -41.7°C | 0% | 9.5hPa | 2.6V | 03:16:15 | 01:59:41 | 00:00:00 | |
| DB0NH | 2026-08-31 00:44:34 | 53.24249 | 10.89384 | 57° | 16km/h | 31917m | 4.6m/s | -41.7°C | 2.0% | 9.4hPa | 2.6V | 00:00:00 | 01:59:43 | 00:00:00 | |
| DM0DOS-11 | 2026-08-31 00:44:33 | 53.24231 | 10.89375 | 335° | 16km/h | 31888m | 5.4m/s | -41.8°C | 1.9% | 9.5hPa | 2.6V | 03:15:37 | 01:59:38 | 00:00:00 | |
| HSKMA3-T | 2026-08-31 00:44:30 | 53.24235 | 10.89373 | 350° | 16km/h | 31894m | 5.2m/s | -41.8°C | 0% | 9.5hPa | 2.5V | 03:16:15 | 01:59:39 | 00:00:00 | |
| DO2SHX-10 | 2026-08-31 00:44:30 | 53.24235 | 10.89373 | 351° | 15km/h | 31895m | 5.2m/s | -41.7°C | 2.0% | 9.5hPa | 2.6V | 00:00:00 | 01:59:39 | 00:00:00 | |
| DL1XH1-15 | 2026-08-31 00:44:29 | 53.24228 | 10.89378 | 322° | 13km/h | 31883m | 6.6m/s | -41.8°C | 1.9% | 9.5hPa | 2.6V | 03:15:38 | 01:59:37 | 00:00:00 | |
| DF7PN | 2026-08-31 00:44:29 | 53.24231 | 10.89375 | 335° | 15km/h | 31889m | 5.4m/s | -41.8°C | 0.2% | 9.5hPa | 2.6V | 00:00:00 | 00:00:00 | 00:00:00 | |
| DL1XH-15 | 2026-08-31 00:44:28 | 53.24223 | 10.89383 | 2° | 9km/h | 31867m | 4.4m/s | -42°C | 2% | 9.6hPa | 2.6V | 03:15:41 | 01:59:34 | 00:00:00 | |
| AA1-15 | 2026-08-31 00:44:25 | 53.24223 | 10.89383 | 2° | 9km/h | 31867m | 4.4m/s | -42°C | 0% | 9.6hPa | 2.6V | 03:16:15 | 01:59:34 | 00:00:00 | |
| DL1XH-west | 2026-08-31 00:44:25 | 53.24220 | 10.89382 | 14° | 13km/h | 31861m | 5.7m/s | -42.1°C | 0% | 9.6hPa | 2.6V | 03:16:15 | 01:59:33 | 00:00:00 | |
| DB0DAN | 2026-08-31 00:44:25 | 53.24223 | 10.89383 | 2° | 9km/h | 31867m | 4.4m/s | -42°C | 0.2% | 9.58hPa | 2.6V | 00:00:00 | 00:00:00 | 00:00:00 | |
| BIOWL1-15 | 2026-08-31 00:44:25 | 53.24206 | 10.89371 | 33° | 24km/h | 31843m | 4.8m/s | -42.2°C | 0% | 9.6hPa | 2.6V | 03:16:15 | 01:59:30 | 00:00:00 | |
| DF8AY | 2026-08-31 00:44:25 | 53.24200 | 10.89343 | 141° | 9km/h | 31816m | 4.5m/s | -42.5°C | 0% | 9.6hPa | 2.6V | 03:16:15 | 01:59:25 | 00:00:00 | |
| HSKMA3-T | 2026-08-31 00:44:20 | 53.24201 | 10.89365 | 43° | 22km/h | 31839m | 4.8m/s | -42.3°C | 0% | 9.6hPa | 2.5V | 03:16:15 | 01:59:29 | 00:00:00 | |
| AA1-15 | 2026-08-31 00:44:15 | 53.24202 | 10.89341 | 160° | 5km/h | 31811m | 5.1m/s | -42.5°C | 0% | 9.7hPa | 2.5V | 03:16:15 | 01:59:24 | 00:00:00 | |
| DL1XH-west | 2026-08-31 00:44:15 | 53.24202 | 10.89341 | 303° | 4km/h | 31805m | 6.6m/s | -42.6°C | 0% | 9.7hPa | 2.6V | 03:16:15 | 01:59:23 | 00:00:00 | |
| DF8AY | 2026-08-31 00:44:14 | 53.24160 | 10.89282 | 63° | 15km/h | 31736m | 4.8m/s | -42.9°C | 0% | 9.8hPa | 2.6V | 03:16:15 | 01:59:11 | 00:00:00 | |
| BIOWL1-15 | 2026-08-31 00:44:13 | 53.24192 | 10.89346 | 357° | 22km/h | 31786m | 5.2m/s | -42.7°C | 0% | 9.7hPa | 2.6V | 03:16:15 | 01:59:20 | 00:00:00 | |
| HSKMA3-T | 2026-08-31 00:44:10 | 53.24186 | 10.89345 | 9° | 24km/h | 31780m | 4.8m/s | -42.7°C | 0% | 9.7hPa | 2.6V | 03:16:15 | 01:59:19 | 00:00:00 | |
| DB0DAN | 2026-08-31 00:44:10 | 53.24186 | 10.89345 | 9° | 22km/h | 31780m | 4.8m/s | -42.7°C | 0.2% | 9.69hPa | 2.6V | 00:00:00 | 00:00:00 | 00:00:00 | |
| DL1XH1-15 | 2026-08-31 00:44:09 | 53.24177 | 10.89337 | 48° | 22km/h | 31768m | 6m/s | -42.8°C | 2.1% | 9.7hPa | 2.6V | 03:15:58 | 01:59:17 | 00:00:00 | |
| DO2SHX-10 | 2026-08-31 00:44:09 | 53.24181 | 10.89342 | 28° | 22km/h | 31775m | 6.0m/s | -42.7°C | 2.1% | 9.6hPa | 2.5V | 00:00:00 | 01:59:18 | 00:00:00 | |
| DL1XH-15 | 2026-08-31 00:44:08 | 53.24168 | 10.89308 | 66° | 27km/h | 31752m | 6.5m/s | -42.9°C | 2.1% | 9.8hPa | 2.5V | 03:16:01 | 01:59:14 | 00:00:00 | |
| AA1-15 | 2026-08-31 00:44:05 | 53.24168 | 10.89308 | 66° | 27km/h | 31752m | 6.5m/s | -42.9°C | 0% | 9.8hPa | 2.5V | 03:16:15 | 01:59:14 | 00:00:00 | |
| DL1XH-west | 2026-08-31 00:44:03 | 53.24162 | 10.89289 | 62° | 22km/h | 31741m | 4.4m/s | -42.9°C | 0% | 9.8hPa | 2.6V | 03:16:15 | 01:59:12 | 00:00:00 | |
| DL3AQ-11 | 2026-08-31 00:44:03 | 53.24160 | 10.89282 | 63° | 13km/h | 31736m | 4.8m/s | -42.9°C | 0.3% | 9.8hPa | 2.6V | 00:00:00 | 00:00:00 | 00:00:00 | |
| NBG1-10 | 2026-08-31 00:44:02 | 53.24160 | 10.89282 | 64° | 15km/h | 31737m | 4.7m/s | -42.8°C | 2.1% | 9.7hPa | 2.6V | 03:16:00 | 01:59:11 | 00:00:00 | |
| DL1XH-15 | 2026-08-31 00:44:00 | 53.24154 | 10.89277 | 26° | 20km/h | 31696m | 6.5m/s | -42.9°C | 2.1% | 9.8hPa | 2.5V | 03:16:11 | 01:59:04 | 00:00:00 | |
| HSKMA3-T | 2026-08-31 00:44:00 | 53.24160 | 10.89277 | 213° | 5km/h | 31717m | 5.7m/s | -42.9°C | 0% | 9.8hPa | 2.6V | 03:16:15 | 01:59:08 | 00:00:00 | |
| DF8AY | 2026-08-31 00:43:55 | 53.24154 | 10.89276 | 26° | 22km/h | 31696m | 6.5m/s | -42.9°C | 0% | 9.8hPa | 2.5V | 03:16:15 | 01:59:04 | 00:00:00 | |
| DB0DAN | 2026-08-31 00:43:55 | 53.24154 | 10.89276 | 26° | 20km/h | 31696m | 6.5m/s | -42.9°C | 0.3% | 9.8hPa | 2.5V | 00:00:00 | 00:00:00 | 00:00:00 | |
| AA1-15 | 2026-08-31 00:43:54 | 53.24149 | 10.89271 | 39° | 27km/h | 31690m | 5.7m/s | -43°C | 0% | 9.8hPa | 2.6V | 03:16:15 | 01:59:03 | 00:00:00 | |
| DL1XH-west | 2026-08-31 00:43:53 | 53.24144 | 10.89262 | 52° | 31km/h | 31684m | 5.5m/s | -43°C | 0% | 9.8hPa | 2.6V | 03:16:15 | 01:59:02 | 00:00:00 | |
| BIOWL1-15 | 2026-08-31 00:43:49 | 53.24140 | 10.89209 | 112° | 18km/h | 31655m | 4.8m/s | -43.1°C | 0% | 9.9hPa | 2.5V | 03:17:06 | 01:58:57 | 00:00:00 | |
| DL1XH-15 | 2026-08-31 00:43:49 | 53.24140 | 10.89198 | 11° | 11km/h | 31637m | 6.5m/s | -43.1°C | 2.1% | 9.9hPa | 2.6V | 03:16:21 | 01:58:54 | 00:00:00 | |
| DF8AY | 2026-08-31 00:43:44 | 53.24137 | 10.89198 | 358° | 15km/h | 31631m | 6m/s | -43.2°C | 0% | 9.9hPa | 2.6V | 03:17:06 | 01:58:53 | 00:00:00 | |
| DM0DOS-11 | 2026-08-31 00:43:43 | 53.24128 | 10.89189 | 112° | 16km/h | 31602m | 5.4m/s | -43.2°C | 2.1% | 9.9hPa | 2.6V | 03:16:27 | 01:58:48 | 00:00:00 | |
| AA1-15 | 2026-08-31 00:43:43 | 53.24133 | 10.89198 | 357° | 15km/h | 31625m | 5m/s | -43.2°C | 0% | 9.9hPa | 2.6V | 03:17:06 | 01:58:52 | 00:00:00 | |
| DL1XH-west | 2026-08-31 00:43:43 | 53.24130 | 10.89198 | 7° | 11km/h | 31620m | 5.3m/s | -43.2°C | 0% | 9.9hPa | 2.6V | 03:17:06 | 01:58:51 | 00:00:00 | |
| DO9LL-15 | 2026-08-31 00:43:42 | 53.24130 | 10.89198 | 8° | 16km/h | 31620m | 5.2m/s | -43.1°C | 2.1% | 9.9hPa | 2.5V | 03:16:00 | 01:58:51 | 00:00:00 | |
| DL1XH-15 | 2026-08-31 00:43:41 | 53.24130 | 10.89153 | 73° | 24km/h | 31578m | 5.3m/s | -43.5°C | 2.2% | 10hPa | 2.5V | 03:16:31 | 01:58:44 | 00:00:00 | |
| BIOWL1-15 | 2026-08-31 00:43:41 | 53.24126 | 10.89138 | 65° | 16km/h | 31568m | 5.4m/s | -43.6°C | 0% | 10hPa | 2.6V | 03:17:06 | 01:58:42 | 00:00:00 | |
| DB0DAN | 2026-08-31 00:43:40 | 53.24128 | 10.89194 | 99° | 9km/h | 31607m | 6m/s | -43.2°C | 0.2% | 9.92hPa | 2.6V | 00:00:00 | 00:00:00 | 00:00:00 | |
| DL1XH1-15 | 2026-08-31 00:43:39 | 53.24130 | 10.89182 | 108° | 20km/h | 31596m | 5.5m/s | -43.2°C | 2.1% | 10hPa | 2.6V | 03:16:28 | 01:58:47 | 00:00:00 | |
| HSKMA3-T | 2026-08-31 00:43:39 | 53.24130 | 10.89182 | 108° | 20km/h | 31596m | 5.5m/s | -43.3°C | 0% | 10hPa | 2.6V | 03:17:06 | 01:58:47 | 00:00:00 | |
| DO2SHX-10 | 2026-08-31 00:43:39 | 53.24129 | 10.89189 | 113° | 18km/h | 31602m | 5.4m/s | -43.2°C | 2.1% | 9.9hPa | 2.6V | 03:16:00 | 01:58:48 | 00:00:00 | |
| GOEST3-10 | 2026-08-31 00:43:38 | 53.24130 | 10.89182 | 109° | 22km/h | 31597m | 5.5m/s | -43.2°C | 2.1% | 9.9hPa | 2.6V | 00:00:00 | 00:00:00 | 00:00:00 | |
| EDDB2-11 | 2026-08-31 00:43:37 | 53.24131 | 10.89173 | 98° | 22km/h | 31591m | 6.5m/s | -43.3°C | 0.2% | 10.0hPa | 2.5V | 00:00:00 | 00:00:00 | 00:00:00 | |
| DL3AQ-11 | 2026-08-31 00:43:36 | 53.24130 | 10.89153 | 73° | 22km/h | 31578m | 5.3m/s | -43.5°C | 0.3% | 10.0hPa | 2.5V | 00:00:00 | 00:00:00 | 00:00:00 | |
| DL4BBY-15 | 2026-08-31 00:43:35 | 53.24130 | 10.89153 | 74° | 15km/h | 31578m | 5.2m/s | -44.0°C | 0% | 0hPa | 2.5V | 00:00:00 | 00:00:00 | 00:00:00 | |
| DB0NH | 2026-08-31 00:43:34 | 53.24128 | 10.89145 | 67° | 15km/h | 31573m | 4.7m/s | -43.5°C | 2.2% | 9.9hPa | 2.5V | 00:00:00 | 01:58:43 | 00:00:00 | |
| DL1XH1-15 | 2026-08-31 00:43:33 | 53.24123 | 10.89130 | 349° | 5km/h | 31538m | 6.5m/s | -43.8°C | 2.2% | 10.1hPa | 2.6V | 03:16:38 | 01:58:37 | 00:00:00 | |
| DO2SHX-10 | 2026-08-31 00:43:33 | 53.24126 | 10.89138 | 66° | 9km/h | 31568m | 5.3m/s | -43.6°C | 2.2% | 9.9hPa | 2.6V | 00:00:00 | 01:58:42 | 00:00:00 | |
| DM0DOS-11 | 2026-08-31 00:43:32 | 53.24125 | 10.89129 | 321° | 2km/h | 31543m | 5.5m/s | -43.7°C | 2.2% | 10hPa | 2.6V | 03:16:37 | 01:58:38 | 00:00:00 | |
| AA1-15 | 2026-08-31 00:43:32 | 53.24125 | 10.89133 | 69° | 9km/h | 31561m | 6.9m/s | -43.6°C | 0% | 10hPa | 2.6V | 03:17:06 | 01:58:41 | 00:00:00 | |
| DL1XH-west | 2026-08-31 00:43:31 | 53.24124 | 10.89130 | 94° | 4km/h | 31555m | 6.2m/s | -43.7°C | 0% | 10hPa | 2.6V | 03:17:06 | 01:58:40 | 00:00:00 | |
| HSKMA3-T | 2026-08-31 00:43:28 | 53.24123 | 10.89130 | 349° | 5km/h | 31538m | 6.6m/s | -43.8°C | 0% | 10.1hPa | 2.6V | 03:17:06 | 01:58:37 | 00:00:00 | |
| DL4XJ-10 | 2026-08-31 00:43:28 | 53.24123 | 10.89130 | 350° | 13km/h | 31538m | 6.5m/s | -44.3°C | 0% | 0hPa | 2.6V | 00:00:00 | 00:00:00 | 00:00:00 | |
| DO2SHX-10 | 2026-08-31 00:43:27 | 53.24121 | 10.89129 | 18° | 16km/h | 31532m | 6.7m/s | -43.8°C | 2.2% | 10.0hPa | 2.6V | 03:16:00 | 01:58:36 | 00:00:00 | |
| SP6BVK | 2026-08-31 00:43:26 | 53.24121 | 10.89129 | 18° | 13km/h | 31532m | 6.7m/s | -43.8°C | 0.3% | 10.0hPa | 2.6V | 03:17:00 | 00:00:00 | 00:00:00 | |
| DB0DAN | 2026-08-31 00:43:25 | 53.24115 | 10.89122 | 46° | 18km/h | 31519m | 5.2m/s | -43.8°C | 0.3% | 10.07hPa | 2.6V | 00:00:00 | 00:00:00 | 00:00:00 | |
| BIOWL1-15 | 2026-08-31 00:43:25 | 53.24115 | 10.89122 | 46° | 18km/h | 31519m | 5.2m/s | -43.8°C | 0% | 10.1hPa | 2.6V | 03:17:06 | 01:58:34 | 00:00:00 | |
| DO2SHX-10 | 2026-08-31 00:43:24 | 53.24112 | 10.89116 | 64° | 22km/h | 31514m | 6.4m/s | -43.8°C | 2.2% | 10.0hPa | 2.6V | 00:00:00 | 01:58:33 | 00:00:00 | |
| DL3AQ-11 | 2026-08-31 00:43:23 | 53.24109 | 10.89099 | 89° | 22km/h | 31500m | 5.6m/s | -43.8°C | 0.3% | 10.1hPa | 2.6V | 00:00:00 | 00:00:00 | 00:00:00 | |
| DM0DOS-11 | 2026-08-31 00:43:22 | 53.24107 | 10.89074 | 62° | 18km/h | 31485m | 6.3m/s | -43.8°C | 2.2% | 10.1hPa | 2.6V | 03:16:47 | 01:58:28 | 00:00:00 | |
| AA1-15 | 2026-08-31 00:43:21 | 53.24109 | 10.89090 | 88° | 20km/h | 31495m | 4.4m/s | -43.8°C | 0% | 10.1hPa | 2.6V | 03:17:06 | 01:58:30 | 00:00:00 | |
| DF8AY | 2026-08-31 00:43:21 | 53.24109 | 10.89081 | 78° | 20km/h | 31491m | 4.9m/s | -43.8°C | 0% | 10.1hPa | 2.5V | 03:17:06 | 01:58:29 | 00:00:00 | |
| DL1XH1-15 | 2026-08-31 00:43:20 | 53.24104 | 10.89068 | 40° | 16km/h | 31479m | 6m/s | -43.8°C | 2.2% | 10.1hPa | 2.6V | 03:16:48 | 01:58:27 | 00:00:00 | |
| HSKMA3-T | 2026-08-31 00:43:18 | 53.24101 | 10.89065 | 18° | 16km/h | 31473m | 5.4m/s | -43.9°C | 0% | 10.2hPa | 2.6V | 03:17:06 | 01:58:26 | 00:00:00 | |
| DO2SHX-10 | 2026-08-31 00:43:18 | 53.24104 | 10.89068 | 41° | 15km/h | 31479m | 6.0m/s | -43.8°C | 2.2% | 10.0hPa | 2.6V | 00:00:00 | 01:58:27 | 00:00:00 | |
| MECKS9 | 2026-08-31 00:43:17 | 53.24104 | 10.89068 | 42° | 16km/h | 31479m | 6.0m/s | -43.8°C | 0.3% | 10.1hPa | 2.6V | 03:17:00 | 00:00:00 | 00:00:00 | |
| DD8BA-10 | 2026-08-31 00:43:16 | 53.24097 | 10.89064 | 358° | 15km/h | 31468m | 5.3m/s | -43.9°C | 2.2% | 10.1hPa | 2.6V | 00:00:00 | 00:00:00 | 00:00:00 | |
| DO2SHX-10 | 2026-08-31 00:43:15 | 53.24094 | 10.89065 | 341° | 7km/h | 31462m | 6.5m/s | -43.9°C | 2.2% | 10.1hPa | 2.6V | 03:16:00 | 01:58:24 | 00:00:00 | |
| DK1YY | 2026-08-31 00:43:14 | 53.24092 | 10.89066 | 314° | 5km/h | 31455m | 6.2m/s | -44.0°C | 0.3% | 10.2hPa | 2.6V | 00:00:00 | 00:00:00 | 00:00:00 | |
| GOEST3-10 | 2026-08-31 00:43:13 | 53.24092 | 10.89068 | 311° | 11km/h | 31450m | 5.3m/s | -44.0°C | 2.2% | 10.1hPa | 2.6V | 00:00:00 | 01:58:22 | 00:00:00 | |
| DM0DOS-11 | 2026-08-31 00:43:12 | 53.24084 | 10.89056 | 44° | 24km/h | 31427m | 6.5m/s | -44.2°C | 2.3% | 10.2hPa | 2.6V | 03:16:57 | 01:58:18 | 00:00:00 | |
| AA1-15 | 2026-08-31 00:43:11 | 53.24088 | 10.89062 | 50° | 16km/h | 31434m | 6.5m/s | -44.2°C | 0% | 10.2hPa | 2.5V | 03:17:06 | 01:58:19 | 00:00:00 | |
| DB0DAN | 2026-08-31 00:43:10 | 53.24088 | 10.89062 | 50° | 15km/h | 31434m | 6.5m/s | -44.2°C | 0.3% | 10.19hPa | 2.5V | 00:00:00 | 00:00:00 | 00:00:00 | |
| DF8AY | 2026-08-31 00:43:09 | 53.24085 | 10.89056 | 44° | 24km/h | 31427m | 6.5m/s | -44.2°C | 0% | 10.2hPa | 2.6V | 03:17:06 | 01:58:18 | 00:00:00 | |
| DL1XH1-15 | 2026-08-31 00:43:09 | 53.24080 | 10.89049 | 42° | 27km/h | 31421m | 5.6m/s | -44.2°C | 2.2% | 10.2hPa | 2.6V | 03:16:58 | 01:58:17 | 00:00:00 | |
| HSKMA3-T | 2026-08-31 00:43:07 | 53.24071 | 10.89034 | 52° | 22km/h | 31411m | 4.7m/s | -44.2°C | 0% | 10.3hPa | 2.6V | 03:17:06 | 01:58:15 | 00:00:00 | |
| DO2SHX-10 | 2026-08-31 00:43:06 | 53.24071 | 10.89034 | 52° | 16km/h | 31411m | 4.7m/s | -44.1°C | 2.3% | 10.2hPa | 2.6V | 00:00:00 | 01:58:15 | 00:00:00 | |
| DL4BBY-15 | 2026-08-31 00:43:05 | 53.24069 | 10.89027 | 67° | 13km/h | 31406m | 6.1m/s | -44.7°C | 0% | 0hPa | 2.6V | 00:00:00 | 00:00:00 | 00:00:00 | |
| DB0NH | 2026-08-31 00:43:04 | 53.24068 | 10.89021 | 100° | 13km/h | 31399m | 7.2m/s | -44.1°C | 2.3% | 10.2hPa | 2.6V | 00:00:00 | 01:58:13 | 00:00:00 | |
| DO2SHX-10 | 2026-08-31 00:43:03 | 53.24069 | 10.89018 | 148° | 9km/h | 31392m | 6.2m/s | -44.1°C | 2.3% | 10.2hPa | 2.6V | 03:17:00 | 01:58:12 | 00:00:00 | |
| DM0DOS-11 | 2026-08-31 00:43:02 | 53.24073 | 10.89018 | 4° | 9km/h | 31369m | 6.3m/s | -44.1°C | 2.3% | 10.3hPa | 2.6V | 03:17:07 | 01:58:08 | 00:00:00 | |
| AA1-15 | 2026-08-31 00:43:00 | 53.24074 | 10.89018 | 332° | 2km/h | 31375m | 6.4m/s | -44.2°C | 0% | 10.3hPa | 2.6V | 03:17:06 | 01:58:09 | 00:00:00 | |
| DO2SHX-10 | 2026-08-31 00:43:00 | 53.24074 | 10.89018 | 332° | 9km/h | 31376m | 6.3m/s | -44.1°C | 2.3% | 10.2hPa | 2.6V | 00:00:00 | 01:58:09 | 00:00:00 | |
| DL1XH1-15 | 2026-08-31 00:42:59 | 53.24070 | 10.89016 | 20° | 18km/h | 31363m | 6m/s | -44.1°C | 2.2% | 10.3hPa | 2.6V | 03:17:08 | 01:58:07 | 00:00:00 | |
| DF8AY | 2026-08-31 00:42:59 | 53.24073 | 10.89018 | 5° | 9km/h | 31369m | 6.3m/s | -44.1°C | 0% | 10.3hPa | 2.6V | 03:18:48 | 01:58:08 | 00:00:00 | |
| HSKMA3-T | 2026-08-31 00:42:57 | 53.24061 | 10.89007 | 46° | 22km/h | 31352m | 6m/s | -44.1°C | 0% | 10.3hPa | 2.6V | 03:17:57 | 01:58:05 | 00:00:00 | |
| DL3AQ-11 | 2026-08-31 00:42:56 | 53.24058 | 10.88999 | 61° | 22km/h | 31346m | 6.9m/s | -44.1°C | 0.3% | 10.3hPa | 2.6V | 00:00:00 | 00:00:00 | 00:00:00 | |
| DB0DAN | 2026-08-31 00:42:55 | 53.24058 | 10.88999 | 61° | 20km/h | 31345m | 6.9m/s | -44.1°C | 0.3% | 10.32hPa | 2.6V | 00:00:00 | 00:00:00 | 00:00:00 | |
| DO2SHX-10 | 2026-08-31 00:42:54 | 53.24056 | 10.88991 | 77° | 20km/h | 31339m | 6.1m/s | -44.0°C | 2.2% | 10.3hPa | 2.6V | 00:00:00 | 01:58:03 | 00:00:00 | |
| GOEST3-10 | 2026-08-31 00:42:53 | 53.24055 | 10.88982 | 86° | 13km/h | 31333m | 5.3m/s | -44.0°C | 2.2% | 10.3hPa | 2.6V | 00:00:00 | 01:58:02 | 00:00:00 | |
| AP2371 | 2026-08-31 00:42:52 | 53.24055 | 10.88982 | 86° | 20km/h | 31333m | 5.4m/s | -44.1°C | 0.3% | 10.3hPa | 2.6V | 00:00:00 | 00:00:00 | 00:00:00 | |
| DM0DOS-11 | 2026-08-31 00:42:52 | 53.24052 | 10.88962 | 18° | 4km/h | 31309m | 5.6m/s | -44°C | 2.2% | 10.4hPa | 2.6V | 03:17:17 | 01:57:58 | 00:00:00 | |
| DO2SHX-10 | 2026-08-31 00:42:51 | 53.24054 | 10.88968 | 78° | 9km/h | 31322m | 6.7m/s | -44.0°C | 2.2% | 10.3hPa | 2.6V | 03:17:00 | 01:58:00 | 00:00:00 | |
| DL1XH1-15 | 2026-08-31 00:42:49 | 53.24052 | 10.88963 | 318° | 4km/h | 31302m | 6.1m/s | -44°C | 2.3% | 10.4hPa | 2.6V | 03:17:18 | 01:57:57 | 00:00:00 | |
| AA1-15 | 2026-08-31 00:42:49 | 53.24052 | 10.88962 | 19° | 4km/h | 31309m | 5.6m/s | -44°C | 0% | 10.4hPa | 2.6V | 03:17:57 | 01:57:58 | 00:00:00 | |
| DL1XH-west | 2026-08-31 00:42:49 | 53.24052 | 10.88963 | 319° | 4km/h | 31302m | 6.1m/s | -44°C | 0% | 10.4hPa | 2.6V | 03:17:57 | 01:57:57 | 00:00:00 | |
| DL1XH-15 | 2026-08-31 00:42:49 | 53.24053 | 10.88966 | 191° | 0km/h | 31285m | 4.3m/s | -44°C | 2.2% | 10.4hPa | 2.5V | 03:17:21 | 01:57:54 | 00:00:00 | |
| DF8AY | 2026-08-31 00:42:47 | 53.24053 | 10.88965 | 219° | 4km/h | 31290m | 5.5m/s | -44°C | 0% | 10.4hPa | 2.6V | 03:18:48 | 01:57:55 | 00:00:00 | |
| HSKMA3-T | 2026-08-31 00:42:45 | 53.24053 | 10.88966 | 191° | 0km/h | 31285m | 4.3m/s | -44°C | 0% | 10.4hPa | 2.5V | 03:17:57 | 01:57:54 | 00:00:00 | |
| DC4HF-4 | 2026-08-31 00:42:44 | 53.24053 | 10.88965 | 31° | 4km/h | 31281m | 4.8m/s | -44.0°C | 0.3% | 10.5hPa | 2.6V | 00:00:00 | 00:00:00 | 00:00:00 | |
| DL3AQ-11 | 2026-08-31 00:42:43 | 53.24048 | 10.88960 | 33° | 18km/h | 31269m | 7.1m/s | -44.0°C | 0.3% | 10.5hPa | 2.6V | 00:00:00 | 00:00:00 | 00:00:00 | |
| DO2SHX-10 | 2026-08-31 00:42:42 | 53.24048 | 10.88960 | 34° | 22km/h | 31269m | 7.0m/s | -44.0°C | 2.2% | 10.4hPa | 2.6V | 00:00:00 | 01:57:51 | 00:00:00 | |
| DB0DAN | 2026-08-31 00:42:40 | 53.24040 | 10.88946 | 50° | 24km/h | 31257m | 4.7m/s | -44°C | 0.3% | 10.49hPa | 2.6V | 00:00:00 | 00:00:00 | 00:00:00 | |
| AA1-15 | 2026-08-31 00:42:39 | 53.24036 | 10.88938 | 62° | 24km/h | 31251m | 5.8m/s | -44°C | 0% | 10.5hPa | 2.6V | 03:17:57 | 01:57:48 | 00:00:00 | |
| DL1XH1-15 | 2026-08-31 00:42:39 | 53.24035 | 10.88930 | 81° | 20km/h | 31245m | 7m/s | -44°C | 2.3% | 10.5hPa | 2.6V | 03:17:28 | 01:57:47 | 00:00:00 | |
| DL1XH-15 | 2026-08-31 00:42:38 | 53.24039 | 10.88910 | 130° | 13km/h | 31228m | 4.5m/s | -44.1°C | 2.2% | 10.5hPa | 2.5V | 03:17:31 | 01:57:44 | 00:00:00 | |
| DL1NUX | 2026-08-31 00:42:38 | 53.24036 | 10.88915 | 123° | 16km/h | 31233m | 5.2m/s | -44.1°C | 2.2% | 10.5hPa | 2.6V | 03:17:30 | 01:57:45 | 00:00:00 | |
| BIOWL1-15 | 2026-08-31 00:42:38 | 53.24034 | 10.88930 | 81° | 20km/h | 31245m | 7m/s | -44°C | 0% | 10.5hPa | 2.6V | 03:17:57 | 01:57:47 | 00:00:00 | |
| DF8AY | 2026-08-31 00:42:35 | 53.24039 | 10.88910 | 130° | 13km/h | 31228m | 4.5m/s | -44.1°C | 0% | 10.5hPa | 2.5V | 03:18:48 | 01:57:44 | 00:00:00 | |
| HSKMA3-T | 2026-08-31 00:42:35 | 53.24040 | 10.88906 | 116° | 7km/h | 31222m | 5.6m/s | -44.1°C | 0% | 10.5hPa | 2.5V | 03:17:57 | 01:57:43 | 00:00:00 | |
| AA1-15 | 2026-08-31 00:42:29 | 53.24023 | 10.88885 | 62° | 22km/h | 31188m | 6.5m/s | -44.1°C | 0% | 10.6hPa | 2.6V | 03:17:57 | 01:57:37 | 00:00:00 | |
| DL1XH-15 | 2026-08-31 00:42:28 | 53.24022 | 10.88856 | 99° | 26km/h | 31170m | 5.1m/s | -44°C | 2.2% | 10.6hPa | 2.5V | 03:17:41 | 01:57:34 | 00:00:00 | |
| DL1NUX | 2026-08-31 00:42:28 | 53.24022 | 10.88867 | 94° | 24km/h | 31175m | 5.7m/s | -44°C | 2.2% | 10.6hPa | 2.5V | 03:17:40 | 01:57:35 | 00:00:00 | |
| BIOWL1-15 | 2026-08-31 00:42:27 | 53.24022 | 10.88876 | 83° | 24km/h | 31181m | 6.6m/s | -44.1°C | 0% | 10.6hPa | 2.6V | 03:17:57 | 01:57:36 | 00:00:00 | |
| DF8AY | 2026-08-31 00:42:25 | 53.24023 | 10.88847 | 95° | 22km/h | 31165m | 5.4m/s | -44°C | 0% | 10.6hPa | 2.6V | 03:18:48 | 01:57:33 | 00:00:00 | |
| HSKMA3-T | 2026-08-31 00:42:23 | 53.24023 | 10.88838 | 82° | 18km/h | 31159m | 6m/s | -44°C | 0% | 10.6hPa | 2.6V | 03:17:57 | 01:57:32 | 00:00:00 | |
| DO3MHA-11 | 2026-08-31 00:42:22 | 53.24022 | 10.88831 | 63° | 13km/h | 31153m | 6.1m/s | -44.0°C | 2.2% | 10.6hPa | 2.6V | 00:00:00 | 01:57:31 | 00:00:00 | |
| DO2SHX-10 | 2026-08-31 00:42:21 | 53.24019 | 10.88825 | 47° | 15km/h | 31148m | 5.5m/s | -44.0°C | 2.2% | 10.6hPa | 2.6V | 00:00:00 | 01:57:30 | 00:00:00 | |
| DF7ER-10 | 2026-08-31 00:42:19 | 53.24016 | 10.88821 | 41° | 15km/h | 31143m | 5.1m/s | -44.1°C | 0.3% | 10.7hPa | 2.6V | 03:17:00 | 00:00:00 | 00:00:00 | |
| DL1NUX | 2026-08-31 00:42:18 | 53.24012 | 10.88806 | 105° | 9km/h | 31118m | 5.2m/s | -44.4°C | 2.3% | 10.7hPa | 2.6V | 03:17:50 | 01:57:25 | 00:00:00 | |
| DL1XH-15 | 2026-08-31 00:42:18 | 53.24013 | 10.88802 | 104° | 9km/h | 31113m | 4.8m/s | -44.4°C | 2.3% | 10.7hPa | 2.6V | 03:17:51 | 01:57:24 | 00:00:00 | |
| AA1-15 | 2026-08-31 00:42:17 | 53.24012 | 10.88810 | 92° | 9km/h | 31124m | 6.1m/s | -44.3°C | 0% | 10.7hPa | 2.6V | 03:17:57 | 01:57:26 | 00:00:00 | |
| DL1XH-west | 2026-08-31 00:42:16 | 53.24012 | 10.88806 | 106° | 9km/h | 31118m | 5.2m/s | -44.4°C | 0% | 10.7hPa | 2.6V | 03:17:57 | 01:57:25 | 00:00:00 | |
| BIOWL1-15 | 2026-08-31 00:42:16 | 53.24013 | 10.88799 | 84° | 7km/h | 31108m | 5.4m/s | -44.4°C | 0% | 10.7hPa | 2.6V | 03:17:57 | 01:57:23 | 00:00:00 | |
| HSKMA3-T | 2026-08-31 00:42:13 | 53.24012 | 10.88795 | 54° | 9km/h | 31102m | 6.2m/s | -44.4°C | 0% | 10.7hPa | 2.6V | 03:17:57 | 01:57:22 | 00:00:00 | |
| DF8AY | 2026-08-31 00:42:13 | 53.24010 | 10.88793 | 27° | 11km/h | 31096m | 5.7m/s | -44.5°C | 0% | 10.7hPa | 2.6V | 03:18:48 | 01:57:21 | 00:00:00 | |
| GOEST3-10 | 2026-08-31 00:42:13 | 53.24012 | 10.88795 | 54° | 11km/h | 31102m | 6.1m/s | -44.4°C | 2.3% | 10.7hPa | 2.6V | 00:00:00 | 01:57:22 | 00:00:00 | |
| DO2SHX-10 | 2026-08-31 00:42:12 | 53.24010 | 10.88793 | 27° | 11km/h | 31096m | 5.6m/s | -44.4°C | 2.3% | 10.7hPa | 2.6V | 00:00:00 | 01:57:21 | 00:00:00 | |
| DO3MHA-11 | 2026-08-31 00:42:10 | 53.24005 | 10.88789 | 24° | 24km/h | 31086m | 4.5m/s | -44.4°C | 2.3% | 10.7hPa | 2.6V | 00:00:00 | 01:57:19 | 00:00:00 | |
| DO2SHX-10 | 2026-08-31 00:42:09 | 53.24003 | 10.88787 | 38° | 7km/h | 31081m | 5.0m/s | -44.5°C | 2.3% | 10.7hPa | 2.6V | 00:00:00 | 01:57:18 | 00:00:00 | |
| DL1NUX | 2026-08-31 00:42:08 | 53.24007 | 10.88779 | 134° | 16km/h | 31063m | 5.2m/s | -44.5°C | 2.3% | 10.8hPa | 2.6V | 03:18:00 | 01:57:15 | 00:00:00 | |
| AA1-15 | 2026-08-31 00:42:06 | 53.24007 | 10.88779 | 134° | 16km/h | 31063m | 5.2m/s | -44.5°C | 0% | 10.8hPa | 2.6V | 03:18:48 | 01:57:15 | 00:00:00 | |
| BIOWL1-15 | 2026-08-31 00:42:04 | 53.24011 | 10.88764 | 95° | 24km/h | 31053m | 4.7m/s | -44.5°C | 0% | 10.8hPa | 2.6V | 03:18:48 | 01:57:13 | 00:00:00 | |
| HSKMA3-T | 2026-08-31 00:42:03 | 53.24010 | 10.88754 | 73° | 29km/h | 31048m | 6.7m/s | -44.5°C | 0% | 10.8hPa | 2.5V | 03:18:48 | 01:57:12 | 00:00:00 | |
| DL1XH1-15 | 2026-08-31 00:42:03 | 53.23980 | 10.88712 | 10° | 20km/h | 31019m | 6.2m/s | -44.5°C | 2.3% | 10.9hPa | 2.6V | 03:18:08 | 01:57:07 | 00:00:00 | |
| DL3AQ-11 | 2026-08-31 00:42:03 | 53.24006 | 10.88742 | 57° | 33km/h | 31041m | 7.4m/s | -44.5°C | 0.3% | 10.8hPa | 2.6V | 00:00:00 | 00:00:00 | 00:00:00 | |
| DF8AY | 2026-08-31 00:42:03 | 53.24006 | 10.88742 | 58° | 35km/h | 31041m | 7.4m/s | -44.5°C | 0% | 10.8hPa | 2.6V | 03:18:48 | 01:57:11 | 00:00:00 | |
| SONDE2-11 | 2026-08-31 00:42:02 | 53.24006 | 10.88742 | 57° | 33km/h | 31041m | 7.4m/s | -44.5°C | 0.3% | 10.8hPa | 2.6V | 00:00:00 | 00:00:00 | 00:00:00 | |
| SONCRA | 2026-08-31 00:41:59 | 53.23986 | 10.88715 | 22° | 29km/h | 31025m | 4.8m/s | -44.6°C | 0.3% | 10.8hPa | 2.6V | 00:00:00 | 00:00:00 | 00:00:00 | |
| DL1XH-15 | 2026-08-31 00:41:58 | 53.23976 | 10.88716 | 218° | 9km/h | 31001m | 5.6m/s | -44.5°C | 2.3% | 10.9hPa | 2.6V | 03:18:11 | 01:57:04 | 00:00:00 | |
| DL1NUX | 2026-08-31 00:41:58 | 53.23975 | 10.88714 | 254° | 5km/h | 31007m | 6m/s | -44.5°C | 2.3% | 10.9hPa | 2.5V | 03:18:10 | 01:57:05 | 00:00:00 | |
| DL1XH-west | 2026-08-31 00:41:56 | 53.23978 | 10.88718 | 191° | 9km/h | 30995m | 6.2m/s | -44.5°C | 0% | 10.9hPa | 2.6V | 03:18:48 | 01:57:03 | 00:00:00 | |
| AA1-15 | 2026-08-31 00:41:55 | 53.23976 | 10.88716 | 219° | 9km/h | 31001m | 5.6m/s | -44.5°C | 0% | 10.9hPa | 2.6V | 03:18:48 | 01:57:04 | 00:00:00 | |
| BIOWL1-15 | 2026-08-31 00:41:53 | 53.23980 | 10.88717 | 148° | 7km/h | 30988m | 6.8m/s | -44.5°C | 0% | 10.9hPa | 2.6V | 03:18:48 | 01:57:02 | 00:00:00 | |
| HSKMA3-T | 2026-08-31 00:41:53 | 53.23981 | 10.88715 | 106° | 9km/h | 30981m | 6.5m/s | -44.5°C | 0% | 10.9hPa | 2.6V | 03:18:48 | 01:57:01 | 00:00:00 | |
| DF8AY | 2026-08-31 00:41:51 | 53.23979 | 10.88695 | 75° | 20km/h | 30962m | 6m/s | -44.5°C | 0% | 10.9hPa | 2.6V | 03:18:48 | 01:56:58 | 00:00:00 | |
| DO2SHX-10 | 2026-08-31 00:41:51 | 53.23981 | 10.88710 | 84° | 18km/h | 30975m | 6.1m/s | -44.4°C | 2.2% | 10.9hPa | 2.6V | 03:18:00 | 01:57:00 | 00:00:00 | |
| DL3OBA | 2026-08-31 00:41:50 | 53.23981 | 10.88710 | 84° | 15km/h | 30975m | 6.1m/s | 0°C | 0% | 0hPa | 2.6V | 00:00:00 | 00:00:00 | 00:00:00 | |
| DL1XH1-15 | 2026-08-31 00:41:49 | 53.23978 | 10.88687 | 76° | 18km/h | 30956m | 6.3m/s | -44.6°C | 2.3% | 10.9hPa | 2.6V | 03:18:18 | 01:56:57 | 00:00:00 | |
| MECKS9 | 2026-08-31 00:41:49 | 53.23979 | 10.88695 | 75° | 20km/h | 30963m | 6.0m/s | -44.5°C | 0.3% | 11.0hPa | 2.5V | 00:00:00 | 00:00:00 | 00:00:00 | |
| DL1XH-15 | 2026-08-31 00:41:48 | 53.23977 | 10.88673 | 121° | 4km/h | 30938m | 6m/s | -44.6°C | 2.3% | 11hPa | 2.5V | 03:18:21 | 01:56:54 | 00:00:00 | |
| AA1-15 | 2026-08-31 00:41:45 | 53.23977 | 10.88673 | 122° | 4km/h | 30938m | 6m/s | -44.6°C | 0% | 11hPa | 2.5V | 03:18:48 | 01:56:54 | 00:00:00 | |
| DL1XH-west | 2026-08-31 00:41:44 | 53.23978 | 10.88672 | 169° | 2km/h | 30932m | 5.6m/s | -44.7°C | 0% | 11hPa | 2.6V | 03:18:48 | 01:56:53 | 00:00:00 | |
| DD8BA-10 | 2026-08-31 00:41:44 | 53.23978 | 10.88672 | 170° | 7km/h | 30933m | 5.6m/s | -44.6°C | 2.3% | 10.9hPa | 2.6V | 03:18:00 | 00:00:00 | 00:00:00 | |
| DL1XH1-15 | 2026-08-31 00:41:43 | 53.23975 | 10.88671 | 178° | 4km/h | 30898m | 5.7m/s | -44.9°C | 2.3% | 11hPa | 2.6V | 03:18:28 | 01:56:47 | 00:00:00 | |
| BIOWL1-15 | 2026-08-31 00:41:43 | 53.23978 | 10.88672 | 239° | 2km/h | 30927m | 5.6m/s | -44.8°C | 0% | 11hPa | 2.6V | 03:18:48 | 01:56:52 | 00:00:00 | |
| HSKMA3-T | 2026-08-31 00:41:42 | 53.23977 | 10.88673 | 11° | 5km/h | 30914m | 6m/s | -44.8°C | 0% | 11hPa | 2.6V | 03:18:48 | 01:56:50 | 00:00:00 | |
| DB0DAN | 2026-08-31 00:41:40 | 53.23975 | 10.88672 | 22° | 5km/h | 30908m | 5.3m/s | -44.8°C | 0.3% | 11.05hPa | 2.6V | 00:00:00 | 00:00:00 | 00:00:00 | |
| DO2SHX-10 | 2026-08-31 00:41:39 | 53.23975 | 10.88671 | 44° | 5km/h | 30904m | 4.6m/s | -44.8°C | 2.3% | 11.0hPa | 2.6V | 03:18:00 | 01:56:48 | 00:00:00 | |
| DL1XH-15 | 2026-08-31 00:41:38 | 53.23985 | 10.88674 | 192° | 22km/h | 30879m | 5.5m/s | -45°C | 2.3% | 11.1hPa | 2.6V | 03:18:31 | 01:56:44 | 00:00:00 | |
| DF8AY | 2026-08-31 00:41:35 | 53.23985 | 10.88674 | 193° | 22km/h | 30879m | 5.5m/s | -45°C | 0% | 11.1hPa | 2.6V | 03:18:48 | 01:56:44 | 00:00:00 | |
| AA1-15 | 2026-08-31 00:41:34 | 53.23990 | 10.88676 | 195° | 18km/h | 30874m | 4.6m/s | -45°C | 0% | 11.1hPa | 2.6V | 03:18:48 | 01:56:43 | 00:00:00 | |
| DL1XH-west | 2026-08-31 00:41:34 | 53.23994 | 10.88678 | 191° | 13km/h | 30869m | 5.6m/s | -45°C | 0% | 11.1hPa | 2.6V | 03:18:48 | 01:56:42 | 00:00:00 | |
| HSKMA3-T | 2026-08-31 00:41:31 | 53.23998 | 10.88677 | 81° | 4km/h | 30856m | 6.4m/s | -45.1°C | 0% | 11.1hPa | 2.6V | 03:18:48 | 01:56:40 | 00:00:00 | |
| SONDE2-11 | 2026-08-31 00:41:31 | 53.23998 | 10.88677 | 81° | 4km/h | 30856m | 6.4m/s | -45.1°C | 0.3% | 11.1hPa | 2.6V | 00:00:00 | 00:00:00 | 00:00:00 | |
| DL1XH1-15 | 2026-08-31 00:41:30 | 53.23997 | 10.88669 | 103° | 5km/h | 30840m | 6.2m/s | -45.1°C | 2.3% | 11.2hPa | 2.6V | 03:18:38 | 01:56:37 | 00:00:00 | |
| BIOWL1-15 | 2026-08-31 00:41:25 | 53.24013 | 10.88664 | 81° | 4km/h | 30798m | 5.6m/s | -45.1°C | 0% | 11.2hPa | 2.6V | 03:18:48 | 01:56:30 | 00:00:00 | |
| DF8AY | 2026-08-31 00:41:25 | 53.24004 | 10.88665 | 181° | 15km/h | 30821m | 5.2m/s | -45.1°C | 0% | 11.2hPa | 2.6V | 03:18:48 | 01:56:34 | 00:00:00 | |
| DB0DAN | 2026-08-31 00:41:25 | 53.24004 | 10.88665 | 181° | 15km/h | 30822m | 5.2m/s | -45.1°C | 0.3% | 11.17hPa | 2.6V | 00:00:00 | 00:00:00 | 00:00:00 | |
| DL1XH-west | 2026-08-31 00:41:23 | 53.24011 | 10.88666 | 181° | 11km/h | 30810m | 6.4m/s | -45.1°C | 0% | 11.2hPa | 2.6V | 03:18:48 | 01:56:32 | 00:00:00 | |
| DF7PN | 2026-08-31 00:41:23 | 53.24013 | 10.88666 | 158° | 5km/h | 30804m | 6.3m/s | -45.1°C | 0.3% | 11.2hPa | 2.6V | 00:00:00 | 00:00:00 | 00:00:00 | |
| DM0DOS-11 | 2026-08-31 00:41:22 | 53.24013 | 10.88660 | 69° | 5km/h | 30788m | 4.6m/s | -45.2°C | 2.3% | 11.2hPa | 2.6V | 03:18:47 | 01:56:28 | 00:00:00 | |
| HSKMA3-T | 2026-08-31 00:41:21 | 53.24013 | 10.88662 | 60° | 5km/h | 30792m | 4.7m/s | -45.1°C | 0% | 11.2hPa | 2.6V | 03:18:48 | 01:56:29 | 00:00:00 | |
| DO2SHX-10 | 2026-08-31 00:41:21 | 53.24013 | 10.88664 | 81° | 5km/h | 30798m | 5.6m/s | -45.1°C | 2.3% | 11.2hPa | 2.5V | 00:00:00 | 01:56:30 | 00:00:00 | |
| S3001 | 2026-08-31 00:41:20 | 53.24013 | 10.88662 | 60° | 5km/h | 30793m | 4.7m/s | -45.1°C | 0.3% | 11.2hPa | 2.5V | 00:00:00 | 00:00:00 | 00:00:00 | |
| DL1XH-15 | 2026-08-31 00:41:18 | 53.24017 | 10.88650 | 144° | 7km/h | 30764m | 5m/s | -45.3°C | 2.4% | 11.3hPa | 2.5V | 03:18:51 | 01:56:24 | 00:00:00 | |
| DF8AY | 2026-08-31 00:41:15 | 53.24017 | 10.88650 | 145° | 7km/h | 30764m | 5m/s | -45.3°C | 0% | 11.3hPa | 2.5V | 03:19:39 | 01:56:24 | 00:00:00 | |
| DO2SHX-10 | 2026-08-31 00:41:15 | 53.24017 | 10.88650 | 145° | 7km/h | 30765m | 5.0m/s | -45.3°C | 2.4% | 11.2hPa | 2.5V | 03:18:00 | 01:56:24 | 00:00:00 | |
| DM0DOS-11 | 2026-08-31 00:41:14 | 53.24013 | 10.88628 | 88° | 15km/h | 30729m | 7m/s | -45.4°C | 2.3% | 11.3hPa | 2.5V | 03:18:57 | 01:56:18 | 00:00:00 | |
| AA1-15 | 2026-08-31 00:41:13 | 53.24018 | 10.88646 | 66° | 7km/h | 30753m | 6.9m/s | -45.3°C | 0% | 11.3hPa | 2.6V | 03:19:39 | 01:56:22 | 00:00:00 | |
| DL1XH1-15 | 2026-08-31 00:41:13 | 53.24014 | 10.88621 | 103° | 18km/h | 30723m | 6.5m/s | -45.5°C | 2.4% | 11.3hPa | 2.6V | 03:18:58 | 01:56:17 | 00:00:00 | |
| DL1XH-west | 2026-08-31 00:41:13 | 53.24015 | 10.88638 | 53° | 13km/h | 30741m | 4.9m/s | -45.3°C | 0% | 11.3hPa | 2.6V | 03:19:39 | 01:56:20 | 00:00:00 | |
| DO2SHX-10 | 2026-08-31 00:41:13 | 53.24017 | 10.88642 | 50° | 13km/h | 30747m | 6.0m/s | -45.3°C | 2.3% | 11.3hPa | 2.6V | 00:00:00 | 01:56:21 | 00:00:00 | |
| DL2RXE-15 | 2026-08-31 00:41:12 | 53.24017 | 10.88642 | 51° | 11km/h | 30747m | 6.1m/s | -45.3°C | 0.3% | 11.3hPa | 2.6V | 00:00:00 | 00:00:00 | 00:00:00 | |
| DB0DAN | 2026-08-31 00:41:10 | 53.24014 | 10.88634 | 71° | 13km/h | 30736m | 5.5m/s | -45.4°C | 0.3% | 11.33hPa | 2.6V | 00:00:00 | 00:00:00 | 00:00:00 | |
| HSKMA3-T | 2026-08-31 00:41:09 | 53.24013 | 10.88628 | 89° | 15km/h | 30729m | 7m/s | -45.4°C | 0% | 11.3hPa | 2.5V | 03:19:39 | 01:56:18 | 00:00:00 | |
| DF8AY | 2026-08-31 00:41:05 | 53.24016 | 10.88595 | 70° | 13km/h | 30699m | 6m/s | -45.5°C | 0% | 11.4hPa | 2.5V | 03:19:39 | 01:56:13 | 00:00:00 | |
| DL4BBY-15 | 2026-08-31 00:41:05 | 53.24016 | 10.88600 | 92° | 13km/h | 30706m | 6.8m/s | -46.1°C | 0% | 0hPa | 2.5V | 00:00:00 | 00:00:00 | 00:00:00 | |
| DD8BA-10 | 2026-08-31 00:41:04 | 53.24016 | 10.88595 | 70° | 11km/h | 30699m | 6.0m/s | -45.5°C | 2.4% | 11.3hPa | 2.5V | 03:19:00 | 00:00:00 | 00:00:00 | |
| DL1XH1-15 | 2026-08-31 00:41:03 | 53.24016 | 10.88578 | 100° | 7km/h | 30664m | 5.2m/s | -45.5°C | 2.4% | 11.4hPa | 2.5V | 03:19:08 | 01:56:07 | 00:00:00 | |
| DM0DOS-11 | 2026-08-31 00:41:03 | 53.24015 | 10.88580 | 125° | 7km/h | 30669m | 5.4m/s | -45.5°C | 2.4% | 11.4hPa | 2.6V | 03:19:07 | 01:56:08 | 00:00:00 | |
| AA1-15 | 2026-08-31 00:41:02 | 53.24014 | 10.88587 | 67° | 7km/h | 30688m | 5.6m/s | -45.6°C | 0% | 11.4hPa | 2.6V | 03:19:39 | 01:56:11 | 00:00:00 | |
| DL1XH-west | 2026-08-31 00:41:02 | 53.24014 | 10.88582 | 126° | 5km/h | 30675m | 6.4m/s | -45.5°C | 0% | 11.4hPa | 2.6V | 03:19:39 | 01:56:09 | 00:00:00 | |
| HSKMA3-T | 2026-08-31 00:40:59 | 53.24016 | 10.88578 | 101° | 7km/h | 30664m | 5.2m/s | -45.5°C | 0% | 11.4hPa | 2.5V | 03:19:39 | 01:56:07 | 00:00:00 | |
| DL1XH-15 | 2026-08-31 00:40:58 | 53.24011 | 10.88564 | 51° | 18km/h | 30645m | 5.8m/s | -45.4°C | 2.4% | 11.5hPa | 2.6V | 03:19:11 | 01:56:04 | 00:00:00 | |
| SONCRA | 2026-08-31 00:40:57 | 53.24015 | 10.88574 | 63° | 11km/h | 30658m | 6.9m/s | -45.5°C | 0.4% | 11.5hPa | 2.6V | 00:00:00 | 00:00:00 | 00:00:00 | |
| DC4HF-4 | 2026-08-31 00:40:56 | 53.24011 | 10.88564 | 51° | 18km/h | 30645m | 5.8m/s | -45.4°C | 0.3% | 11.5hPa | 2.6V | 00:00:00 | 00:00:00 | 00:00:00 | |
| DB0DAN | 2026-08-31 00:40:55 | 53.24011 | 10.88564 | 51° | 18km/h | 30645m | 5.8m/s | -45.4°C | 0.3% | 11.52hPa | 2.6V | 00:00:00 | 00:00:00 | 00:00:00 | |
| DF8AY | 2026-08-31 00:40:53 | 53.24008 | 10.88526 | 41° | 13km/h | 30598m | 6.3m/s | -45.2°C | 0% | 11.6hPa | 2.6V | 03:19:39 | 01:55:56 | 00:00:00 | |
| DL1XH1-15 | 2026-08-31 00:40:53 | 53.24010 | 10.88529 | 70° | 9km/h | 30604m | 6.4m/s | -45.2°C | 2.4% | 11.5hPa | 2.6V | 03:19:18 | 01:55:57 | 00:00:00 | |
| AA1-15 | 2026-08-31 00:40:52 | 53.24007 | 10.88540 | 115° | 11km/h | 30621m | 5.9m/s | -45.3°C | 0% | 11.5hPa | 2.6V | 03:19:39 | 01:56:00 | 00:00:00 | |
| DL1ZP-14 | 2026-08-31 00:40:51 | 53.24008 | 10.88536 | 123° | 9km/h | 30616m | 4.8m/s | -45.3°C | 0.3% | 11.5hPa | 2.6V | 00:00:00 | 00:00:00 | 00:00:00 | |
| DM0DOS-11 | 2026-08-31 00:40:50 | 53.24009 | 10.88532 | 116° | 7km/h | 30610m | 5.4m/s | -45.2°C | 2.4% | 11.5hPa | 2.6V | 03:19:17 | 01:55:58 | 00:00:00 | |
| DL1XH-west | 2026-08-31 00:40:49 | 53.24009 | 10.88532 | 116° | 7km/h | 30610m | 5.4m/s | -45.2°C | 0% | 11.6hPa | 2.6V | 03:19:39 | 01:55:58 | 00:00:00 | |
| HSKMA3-T | 2026-08-31 00:40:48 | 53.24010 | 10.88529 | 70° | 9km/h | 30604m | 6.4m/s | -45.2°C | 0% | 11.5hPa | 2.6V | 03:19:39 | 01:55:57 | 00:00:00 | |
| BIOWL1-15 | 2026-08-31 00:40:48 | 53.24006 | 10.88522 | 35° | 15km/h | 30592m | 5.1m/s | -45.2°C | 0% | 11.6hPa | 2.7V | 03:19:39 | 01:55:55 | 00:00:00 | |
| GOEST3-10 | 2026-08-31 00:40:48 | 53.24010 | 10.88529 | 71° | 13km/h | 30605m | 6.4m/s | -45.2°C | 2.4% | 11.5hPa | 2.6V | 03:19:00 | 00:00:00 | 00:00:00 | |
| DO2SHX-10 | 2026-08-31 00:40:45 | 53.24003 | 10.88519 | 38° | 11km/h | 30588m | 4.8m/s | -45.1°C | 2.4% | 11.5hPa | 2.6V | 00:00:00 | 01:55:54 | 00:00:00 | |
| DM0DOS-11 | 2026-08-31 00:40:44 | 53.24000 | 10.88493 | 82° | 13km/h | 30550m | 6.5m/s | -45.1°C | 2.4% | 11.7hPa | 2.6V | 03:19:27 | 01:55:48 | 00:00:00 | |
| DD8BA-10 | 2026-08-31 00:40:44 | 53.24001 | 10.88515 | 46° | 13km/h | 30582m | 6.2m/s | -45.1°C | 2.4% | 11.6hPa | 2.6V | 00:00:00 | 00:00:00 | 00:00:00 | |
| DL1XH1-15 | 2026-08-31 00:40:43 | 53.23999 | 10.88488 | 59° | 15km/h | 30544m | 6.3m/s | -45°C | 2.4% | 11.7hPa | 2.6V | 03:19:28 | 01:55:47 | 00:00:00 | |
| AA1-15 | 2026-08-31 00:40:41 | 53.23999 | 10.88498 | 102° | 13km/h | 30557m | 5.6m/s | -45.1°C | 0% | 11.6hPa | 2.6V | 03:19:39 | 01:55:49 | 00:00:00 | |
| DB0DAN | 2026-08-31 00:40:40 | 53.23999 | 10.88498 | 102° | 13km/h | 30557m | 5.6m/s | -45.1°C | 0.3% | 11.63hPa | 2.6V | 00:00:00 | 00:00:00 | 00:00:00 | |
| DL1XH-west | 2026-08-31 00:40:38 | 53.23998 | 10.88488 | 60° | 15km/h | 30544m | 6.3m/s | -45°C | 0% | 11.7hPa | 2.6V | 03:19:39 | 01:55:47 | 00:00:00 | |
| BIOWL1-15 | 2026-08-31 00:40:36 | 53.23993 | 10.88478 | 39° | 16km/h | 30532m | 4.2m/s | -45°C | 0% | 11.7hPa | 2.6V | 03:19:39 | 01:55:45 | 00:00:00 | |
| AA1-15 | 2026-08-31 00:40:30 | 53.23988 | 10.88458 | 52° | 9km/h | 30491m | 6.8m/s | -44.8°C | 0% | 11.7hPa | 2.6V | 03:19:39 | 01:55:38 | 00:00:00 | |
| HSKMA3-T | 2026-08-31 00:40:28 | 53.23986 | 10.88455 | 38° | 13km/h | 30485m | 6.4m/s | -44.8°C | 0% | 11.7hPa | 2.6V | 03:19:39 | 01:55:37 | 00:00:00 | |
| DL1XH-15 | 2026-08-31 00:40:28 | 53.23979 | 10.88443 | 60° | 11km/h | 30465m | 7m/s | -44.8°C | 2.3% | 11.8hPa | 2.6V | 03:19:41 | 01:55:34 | 00:00:00 | |
| DL1XH-west | 2026-08-31 00:40:28 | 53.23983 | 10.88451 | 41° | 15km/h | 30478m | 5.6m/s | -44.8°C | 0% | 11.8hPa | 2.5V | 03:19:39 | 01:55:36 | 00:00:00 | |
| BIOWL1-15 | 2026-08-31 00:40:26 | 53.23968 | 10.88430 | 8° | 13km/h | 30428m | 5.3m/s | -44.8°C | 0% | 11.8hPa | 2.6V | 03:20:30 | 01:55:28 | 00:00:00 | |
| DB0DAN | 2026-08-31 00:40:25 | 53.23979 | 10.88443 | 61° | 11km/h | 30465m | 7m/s | -44.8°C | 0.3% | 11.77hPa | 2.6V | 00:00:00 | 00:00:00 | 00:00:00 | |
| DM0DOS-11 | 2026-08-31 00:40:24 | 53.23965 | 10.88429 | 15° | 7km/h | 30423m | 6.3m/s | -44.8°C | 2.4% | 11.8hPa | 2.6V | 03:19:48 | 01:55:27 | 00:00:00 | |
| DD8BA-10 | 2026-08-31 00:40:24 | 53.23977 | 10.88439 | 72° | 7km/h | 30459m | 5.8m/s | -44.7°C | 2.4% | 11.7hPa | 2.6V | 03:19:00 | 00:00:00 | 00:00:00 | |
| DL1XH1-15 | 2026-08-31 00:40:23 | 53.23965 | 10.88429 | 15° | 7km/h | 30423m | 6.3m/s | -44.8°C | 2.4% | 11.8hPa | 2.6V | 03:19:48 | 01:55:27 | 00:00:00 | |
| HSKMA3-T | 2026-08-31 00:40:19 | 53.23965 | 10.88429 | 15° | 7km/h | 30423m | 6.3m/s | -44.8°C | 0% | 11.8hPa | 2.6V | 03:20:30 | 01:55:27 | 00:00:00 | |
| DL1NUX | 2026-08-31 00:40:18 | 53.23964 | 10.88426 | 25° | 5km/h | 30392m | 7m/s | -44.7°C | 2.3% | 11.9hPa | 2.6V | 03:19:53 | 01:55:22 | 00:00:00 | |
| BIOWL1-15 | 2026-08-31 00:40:18 | 53.23962 | 10.88425 | 14° | 11km/h | 30386m | 5.8m/s | -44.7°C | 0% | 11.9hPa | 2.6V | 03:20:30 | 01:55:21 | 00:00:00 | |
| DF8AY | 2026-08-31 00:40:17 | 53.23964 | 10.88426 | 25° | 5km/h | 30392m | 7.1m/s | -44.7°C | 0% | 11.9hPa | 2.6V | 03:20:30 | 01:55:22 | 00:00:00 | |
| DL1XH-west | 2026-08-31 00:40:17 | 53.23964 | 10.88429 | 31° | 4km/h | 30416m | 7.5m/s | -44.8°C | 0% | 11.9hPa | 2.5V | 03:20:30 | 01:55:26 | 00:00:00 | |
| DL3AQ-11 | 2026-08-31 00:40:16 | 53.23964 | 10.88427 | 136° | 2km/h | 30404m | 5.6m/s | -44.8°C | 0.3% | 11.9hPa | 2.6V | 00:00:00 | 00:00:00 | 00:00:00 | |
| DO2SHX-10 | 2026-08-31 00:40:15 | 53.23964 | 10.88427 | 137° | 4km/h | 30404m | 5.6m/s | -44.7°C | 2.4% | 11.9hPa | 2.6V | 03:19:00 | 01:55:24 | 00:00:00 | |
| DD8BA-10 | 2026-08-31 00:40:14 | 53.23965 | 10.88426 | 92° | 7km/h | 30398m | 6.2m/s | -44.7°C | 2.3% | 11.9hPa | 2.6V | 00:00:00 | 00:00:00 | 00:00:00 | |
| GOEST3-10 | 2026-08-31 00:40:13 | 53.23964 | 10.88425 | 26° | 9km/h | 30392m | 7.0m/s | -44.7°C | 2.3% | 11.9hPa | 2.6V | 00:00:00 | 01:55:22 | 00:00:00 | |
| DM0DOS-11 | 2026-08-31 00:40:12 | 53.23955 | 10.88418 | 49° | 9km/h | 30368m | 6.5m/s | -44.7°C | 2.3% | 11.9hPa | 2.6V | 03:19:57 | 01:55:18 | 00:00:00 | |
| DL1XH1-15 | 2026-08-31 00:40:12 | 53.23954 | 10.88415 | 80° | 7km/h | 30361m | 6.7m/s | -44.6°C | 2.3% | 12hPa | 2.6V | 03:19:58 | 01:55:17 | 00:00:00 | |
| DO2SHX-10 | 2026-08-31 00:40:12 | 53.23962 | 10.88425 | 14° | 11km/h | 30386m | 5.7m/s | -44.6°C | 2.4% | 11.9hPa | 2.6V | 00:00:00 | 01:55:21 | 00:00:00 | |
| DB0DAN | 2026-08-31 00:40:10 | 53.23957 | 10.88421 | 32° | 11km/h | 30374m | 5.4m/s | -44.7°C | 0.3% | 11.94hPa | 2.6V | 00:00:00 | 00:00:00 | 00:00:00 | |
| DO2SHX-10 | 2026-08-31 00:40:09 | 53.23955 | 10.88418 | 50° | 7km/h | 30368m | 6.4m/s | -44.6°C | 2.3% | 11.9hPa | 2.6V | 00:00:00 | 01:55:18 | 00:00:00 | |
| DL1NUX | 2026-08-31 00:40:08 | 53.23952 | 10.88405 | 356° | 7km/h | 30330m | 5.8m/s | -44.6°C | 2.4% | 12hPa | 2.6V | 03:20:03 | 01:55:12 | 00:00:00 | |
| DL1XH-15 | 2026-08-31 00:40:08 | 53.23954 | 10.88407 | 62° | 5km/h | 30343m | 6.8m/s | -44.6°C | 2.3% | 12hPa | 2.6V | 03:20:01 | 01:55:14 | 00:00:00 | |
| DF8AY | 2026-08-31 00:40:07 | 53.23954 | 10.88412 | 103° | 7km/h | 30355m | 6.1m/s | -44.6°C | 0% | 12hPa | 2.6V | 03:20:30 | 01:55:16 | 00:00:00 | |
| DL1XH-west | 2026-08-31 00:40:06 | 53.23955 | 10.88409 | 96° | 5km/h | 30349m | 5.6m/s | -44.6°C | 0% | 12hPa | 2.6V | 03:20:30 | 01:55:15 | 00:00:00 | |
| DL2RXE-15 | 2026-08-31 00:40:06 | 53.23955 | 10.88410 | 97° | 5km/h | 30350m | 5.6m/s | -44.6°C | 0.3% | 12.0hPa | 2.6V | 00:00:00 | 00:00:00 | 00:00:00 | |
| DL4BBY-15 | 2026-08-31 00:40:05 | 53.23954 | 10.88407 | 63° | 9km/h | 30343m | 6.7m/s | -45.1°C | 0% | 0hPa | 2.6V | 00:00:00 | 00:00:00 | 00:00:00 | |
| DB0NH | 2026-08-31 00:40:04 | 53.23953 | 10.88406 | 28° | 9km/h | 30337m | 6.2m/s | -44.6°C | 2.3% | 12.0hPa | 2.6V | 03:20:00 | 01:55:13 | 00:00:00 | |
| DL1XH1-15 | 2026-08-31 00:40:03 | 53.23954 | 10.88411 | 189° | 7km/h | 30301m | 5m/s | -44.6°C | 2.4% | 12.1hPa | 2.6V | 03:20:08 | 01:55:07 | 00:00:00 | |
| DL3AQ-11 | 2026-08-31 00:40:03 | 53.23951 | 10.88406 | 330° | 5km/h | 30325m | 5.2m/s | -44.6°C | 0.3% | 12.0hPa | 2.6V | 00:00:00 | 00:00:00 | 00:00:00 | |
| DM0DOS-11 | 2026-08-31 00:40:02 | 53.23952 | 10.88410 | 199° | 7km/h | 30307m | 5.6m/s | -44.6°C | 2.3% | 12.1hPa | 2.6V | 03:20:07 | 01:55:08 | 00:00:00 | |
| BIOWL1-15 | 2026-08-31 00:40:01 | 53.23952 | 10.88410 | 200° | 7km/h | 30307m | 5.6m/s | -44.6°C | 0% | 12.1hPa | 2.6V | 03:20:30 | 01:55:08 | 00:00:00 | |
| DO2SHX-10 | 2026-08-31 00:40:00 | 53.23950 | 10.88409 | 224° | 7km/h | 30314m | 6.8m/s | -44.6°C | 2.4% | 12.0hPa | 2.6V | 00:00:00 | 01:55:09 | 00:00:00 | |
| DL1XH-15 | 2026-08-31 00:39:58 | 53.23952 | 10.88409 | 14° | 13km/h | 30283m | 6.9m/s | -44.5°C | 2.4% | 12.1hPa | 2.6V | 03:20:11 | 01:55:04 | 00:00:00 | |
| HSKMA3-T | 2026-08-31 00:39:56 | 53.23955 | 10.88410 | 25° | 5km/h | 30290m | 6.9m/s | -44.6°C | 0% | 12.1hPa | 2.6V | 03:20:30 | 01:55:05 | 00:00:00 | |
| DL1XH-west | 2026-08-31 00:39:55 | 53.23952 | 10.88409 | 14° | 13km/h | 30283m | 6.9m/s | -44.5°C | 0% | 12.1hPa | 2.6V | 03:20:30 | 01:55:04 | 00:00:00 | |
| DB0DAN | 2026-08-31 00:39:55 | 53.23952 | 10.88409 | 14° | 13km/h | 30283m | 6.9m/s | -44.5°C | 0.3% | 12.12hPa | 2.6V | 00:00:00 | 00:00:00 | 00:00:00 | |
| DO2SHX-10 | 2026-08-31 00:39:54 | 53.23949 | 10.88407 | 18° | 20km/h | 30277m | 6.1m/s | -44.4°C | 2.4% | 12.1hPa | 2.6V | 00:00:00 | 01:55:03 | 00:00:00 | |
| DM0DOS-11 | 2026-08-31 00:39:52 | 53.23934 | 10.88387 | 72° | 9km/h | 30247m | 5.2m/s | -44.4°C | 2.4% | 12.2hPa | 2.6V | 03:20:17 | 01:54:58 | 00:00:00 | |
| BIOWL1-15 | 2026-08-31 00:39:51 | 53.23935 | 10.88391 | 64° | 11km/h | 30253m | 5.7m/s | -44.4°C | 0% | 12.2hPa | 2.6V | 03:20:30 | 01:54:59 | 00:00:00 | |
| DL1XH1-15 | 2026-08-31 00:39:51 | 53.23933 | 10.88384 | 55° | 7km/h | 30241m | 5.7m/s | -44.3°C | 2.4% | 12.2hPa | 2.6V | 03:20:18 | 01:54:57 | 00:00:00 | |
| DF7PN | 2026-08-31 00:39:50 | 53.23934 | 10.88387 | 72° | 7km/h | 30247m | 5.3m/s | -44.4°C | 0.3% | 12.2hPa | 2.6V | 00:00:00 | 00:00:00 | 00:00:00 | |
| DL1NUX | 2026-08-31 00:39:49 | 53.23920 | 10.88385 | 336° | 11km/h | 30211m | 5.9m/s | -44.1°C | 2.3% | 12.2hPa | 2.6V | 03:20:23 | 01:54:52 | 00:00:00 | |
| DL1XH-15 | 2026-08-31 00:39:49 | 53.23927 | 10.88382 | 349° | 13km/h | 30223m | 5.2m/s | -44.2°C | 2.3% | 12.2hPa | 2.6V | 03:20:21 | 01:54:54 | 00:00:00 | |
| AA1-15 | 2026-08-31 00:39:46 | 53.23930 | 10.88382 | 359° | 11km/h | 30229m | 6.4m/s | -44.2°C | 0% | 12.2hPa | 2.5V | 03:21:21 | 01:54:55 | 00:00:00 | |
| DL1XH-west | 2026-08-31 00:39:45 | 53.23927 | 10.88382 | 350° | 13km/h | 30223m | 5.2m/s | -44.2°C | 0% | 12.2hPa | 2.6V | 03:20:30 | 01:54:54 | 00:00:00 | |
| BIOWL1-15 | 2026-08-31 00:39:40 | 53.23911 | 10.88389 | 13° | 13km/h | 30174m | 6m/s | -43.8°C | 0% | 12.3hPa | 2.6V | 03:20:30 | 01:54:46 | 00:00:00 | |
| DB0DAN | 2026-08-31 00:39:40 | 53.23917 | 10.88389 | 311° | 4km/h | 30193m | 5.8m/s | -44°C | 0.3% | 12.27hPa | 2.6V | 00:00:00 | 00:00:00 | 00:00:00 | |
| DO2SHX-10 | 2026-08-31 00:39:39 | 53.23916 | 10.88390 | 346° | 9km/h | 30187m | 6.3m/s | -43.9°C | 2.3% | 12.2hPa | 2.5V | 03:20:00 | 01:54:48 | 00:00:00 | |
| DL1XH-15 | 2026-08-31 00:39:38 | 53.23906 | 10.88386 | 20° | 9km/h | 30163m | 5.3m/s | -43.7°C | 2.2% | 12.3hPa | 2.5V | 03:20:31 | 01:54:44 | 00:00:00 | |
| DL1NUX | 2026-08-31 00:39:38 | 53.23903 | 10.88383 | 87° | 4km/h | 30150m | 6.6m/s | -43.6°C | 2.2% | 12.3hPa | 2.6V | 03:20:33 | 01:54:42 | 00:00:00 | |
| AA1-15 | 2026-08-31 00:39:36 | 53.23905 | 10.88386 | 20° | 9km/h | 30163m | 5.3m/s | -43.7°C | 0% | 12.3hPa | 2.5V | 03:21:21 | 01:54:44 | 00:00:00 | |
| DL1XH-west | 2026-08-31 00:39:34 | 53.23904 | 10.88385 | 47° | 5km/h | 30157m | 6.7m/s | -43.7°C | 0% | 12.3hPa | 2.6V | 03:21:21 | 01:54:43 | 00:00:00 | |
| DB0NH | 2026-08-31 00:39:34 | 53.23904 | 10.88384 | 47° | 7km/h | 30157m | 6.7m/s | -43.6°C | 2.2% | 12.3hPa | 2.6V | 00:00:00 | 01:54:43 | 00:00:00 | |
| DO2SHX-10 | 2026-08-31 00:39:33 | 53.23903 | 10.88383 | 88° | 2km/h | 30151m | 6.5m/s | -43.6°C | 2.2% | 12.3hPa | 2.6V | 00:00:00 | 01:54:42 | 00:00:00 | |
| DL1XH1-15 | 2026-08-31 00:39:31 | 53.23898 | 10.88384 | 341° | 15km/h | 30120m | 5.8m/s | -43.5°C | 2.2% | 12.4hPa | 2.6V | 03:20:38 | 01:54:37 | 00:00:00 | |
| DF7ER-10 | 2026-08-31 00:39:31 | 53.23904 | 10.88381 | 0° | 0km/h | 30139m | 5.0m/s | -43.6°C | 0.3% | 12.4hPa | 2.6V | 03:21:00 | 00:00:00 | 00:00:00 | |
| DO2SHX-10 | 2026-08-31 00:39:30 | 53.23903 | 10.88382 | 346° | 11km/h | 30133m | 6.5m/s | -43.5°C | 2.2% | 12.3hPa | 2.6V | 00:00:00 | 01:54:39 | 00:00:00 | |
| EDDB2-11 | 2026-08-31 00:39:29 | 53.23898 | 10.88384 | 341° | 13km/h | 30120m | 5.8m/s | -43.5°C | 0.3% | 12.4hPa | 2.6V | 00:00:00 | 00:00:00 | 00:00:00 | |
| DL1XH-15 | 2026-08-31 00:39:28 | 53.23891 | 10.88389 | 327° | 4km/h | 30102m | 6.8m/s | -43.6°C | 2.2% | 12.4hPa | 2.6V | 03:20:41 | 01:54:34 | 00:00:00 | |
| BIOWL1-15 | 2026-08-31 00:39:26 | 53.23893 | 10.88388 | 333° | 9km/h | 30108m | 6.2m/s | -43.6°C | 0% | 12.4hPa | 2.6V | 03:21:21 | 01:54:35 | 00:00:00 | |
| DL1NUX | 2026-08-31 00:39:26 | 53.23890 | 10.88390 | 5° | 2km/h | 30090m | 5.3m/s | -43.7°C | 2.2% | 12.5hPa | 2.6V | 03:20:43 | 01:54:32 | 00:00:00 | |
| DB0DAN | 2026-08-31 00:39:25 | 53.23891 | 10.88389 | 328° | 4km/h | 30102m | 6.8m/s | -43.6°C | 0.3% | 12.44hPa | 2.6V | 00:00:00 | 00:00:00 | 00:00:00 | |
| DF8AY | 2026-08-31 00:39:24 | 53.23891 | 10.88390 | 333° | 2km/h | 30096m | 5.4m/s | -43.7°C | 0% | 12.4hPa | 2.5V | 03:21:21 | 01:54:33 | 00:00:00 | |
| HSKMA3-T | 2026-08-31 00:39:24 | 53.23889 | 10.88389 | 32° | 5km/h | 30084m | 6.8m/s | -43.7°C | 0% | 12.5hPa | 2.6V | 03:21:21 | 01:54:31 | 00:00:00 | |
| DL1XH-west | 2026-08-31 00:39:24 | 53.23890 | 10.88390 | 5° | 2km/h | 30090m | 5.3m/s | -43.7°C | 0% | 12.5hPa | 2.6V | 03:21:21 | 01:54:32 | 00:00:00 | |
| DL2RXE-15 | 2026-08-31 00:39:24 | 53.23891 | 10.88390 | 0° | 0km/h | 30096m | 5.4m/s | -43.7°C | 0.3% | 12.5hPa | 2.6V | 03:21:00 | 00:00:00 | 00:00:00 | |
| TFSTFS | 2026-08-31 00:39:23 | 53.23890 | 10.88390 | 6° | 2km/h | 30090m | 5.3m/s | -43.7°C | 0.3% | 12.5hPa | 2.6V | 00:00:00 | 00:00:00 | 00:00:00 | |
| DM0DOS-11 | 2026-08-31 00:39:21 | 53.23886 | 10.88384 | 59° | 5km/h | 30066m | 4.8m/s | -43.8°C | 2.2% | 12.5hPa | 2.6V | 03:20:47 | 01:54:28 | 00:00:00 | |
| DF7PN | 2026-08-31 00:39:19 | 53.23886 | 10.88381 | 103° | 5km/h | 30061m | 6.8m/s | -43.8°C | 0.3% | 12.5hPa | 2.6V | 00:00:00 | 00:00:00 | 00:00:00 | |
| DL1XH-15 | 2026-08-31 00:39:18 | 53.23888 | 10.88377 | 143° | 4km/h | 30041m | 5.8m/s | -43.8°C | 2.2% | 12.6hPa | 2.6V | 03:20:51 | 01:54:24 | 00:00:00 | |
| DL1NUX | 2026-08-31 00:39:18 | 53.23887 | 10.88376 | 354° | 7km/h | 30028m | 6.7m/s | -43.8°C | 2.2% | 12.6hPa | 2.6V | 03:20:53 | 01:54:22 | 00:00:00 | |
| BIOWL1-15 | 2026-08-31 00:39:15 | 53.23888 | 10.88377 | 143° | 4km/h | 30041m | 5.8m/s | -43.8°C | 0% | 12.6hPa | 2.6V | 03:21:21 | 01:54:24 | 00:00:00 | |
| DO2SHX-10 | 2026-08-31 00:39:15 | 53.23888 | 10.88377 | 144° | 5km/h | 30042m | 5.8m/s | -43.8°C | 2.2% | 12.5hPa | 2.5V | 03:20:00 | 01:54:24 | 00:00:00 | |
| DO3MHA-11 | 2026-08-31 00:39:14 | 53.23888 | 10.88376 | 360° | 9km/h | 30036m | 6.3m/s | -43.8°C | 2.2% | 12.5hPa | 2.5V | 03:20:00 | 01:54:23 | 00:00:00 | |
| GOEST3-10 | 2026-08-31 00:39:13 | 53.23887 | 10.88376 | 355° | 7km/h | 30029m | 6.6m/s | -43.8°C | 2.2% | 12.5hPa | 2.6V | 00:00:00 | 01:54:22 | 00:00:00 | |
| DL1XH-west | 2026-08-31 00:39:13 | 53.23887 | 10.88376 | 355° | 9km/h | 30028m | 6.7m/s | -43.8°C | 0% | 12.6hPa | 2.6V | 03:21:21 | 01:54:22 | 00:00:00 | |
| DO2SHX-10 | 2026-08-31 00:39:12 | 53.23884 | 10.88377 | 356° | 9km/h | 30022m | 5.3m/s | -43.8°C | 2.2% | 12.5hPa | 2.6V | 00:00:00 | 01:54:21 | 00:00:00 | |
| DM0DOS-11 | 2026-08-31 00:39:11 | 53.23880 | 10.88376 | 124° | 4km/h | 30005m | 6.7m/s | -43.9°C | 2.2% | 12.6hPa | 2.6V | 03:20:57 | 01:54:18 | 00:00:00 | |
| DB0DAN | 2026-08-31 00:39:10 | 53.23880 | 10.88377 | 16° | 4km/h | 30012m | 5.8m/s | -43.9°C | 0.3% | 12.6hPa | 2.7V | 00:00:00 | 00:00:00 | 00:00:00 | |
| DL1XH-15 | 2026-08-31 00:39:09 | 53.23889 | 10.88367 | 143° | 11km/h | 29982m | 6.4m/s | -44°C | 2.2% | 12.7hPa | 2.6V | 03:21:01 | 01:54:14 | 00:00:00 | |
| DO2SHX-10 | 2026-08-31 00:39:09 | 53.23880 | 10.88376 | 125° | 9km/h | 30006m | 6.7m/s | -43.8°C | 2.2% | 12.6hPa | 2.6V | 00:00:00 | 01:54:18 | 00:00:00 | |
| DC4HF-4 | 2026-08-31 00:39:08 | 53.23883 | 10.88372 | 153° | 13km/h | 29994m | 5.1m/s | -43.9°C | 0.3% | 12.7hPa | 2.6V | 00:00:00 | 00:00:00 | 00:00:00 | |
| EDDB2-12 | 2026-08-31 00:39:07 | 53.23883 | 10.88372 | 153° | 13km/h | 29994m | 5.1m/s | -43.9°C | 0.3% | 12.7hPa | 2.6V | 00:00:00 | 00:00:00 | 00:00:00 | |
| DL1NUX | 2026-08-31 00:39:06 | 53.23891 | 10.88363 | 100° | 4km/h | 29969m | 5.5m/s | -44.1°C | 2.2% | 12.7hPa | 2.6V | 03:21:03 | 01:54:12 | 00:00:00 | |
| HSKMA3-T | 2026-08-31 00:39:02 | 53.23891 | 10.88361 | 104° | 4km/h | 29964m | 5.3m/s | -44.1°C | 0% | 0hPa | 2.6V | 03:21:21 | 01:54:11 | 00:00:00 | |
| DM0DOS-11 | 2026-08-31 00:39:01 | 53.23895 | 10.88355 | 145° | 9km/h | 29946m | 5.5m/s | -44.2°C | 2.2% | 12.7hPa | 2.6V | 03:21:07 | 01:54:08 | 00:00:00 | |
| DO2SHX-10 | 2026-08-31 00:39:00 | 53.23893 | 10.88357 | 142° | 9km/h | 29952m | 6.4m/s | -44.1°C | 2.2% | 12.7hPa | 2.6V | 00:00:00 | 01:54:09 | 00:00:00 | |
| DL1NUX | 2026-08-31 00:38:58 | 53.23894 | 10.88332 | 83° | 15km/h | 29911m | 5.2m/s | -44.6°C | 2.3% | 12.8hPa | 2.6V | 03:21:13 | 01:54:02 | 00:00:00 | |
| EDDB2-11 | 2026-08-31 00:38:58 | 53.23898 | 10.88349 | 111° | 7km/h | 29935m | 5.8m/s | -44.4°C | 0.3% | 12.8hPa | 2.6V | 00:00:00 | 00:00:00 | 00:00:00 | |
| SONDE2-11 | 2026-08-31 00:38:56 | 53.23897 | 10.88342 | 58° | 11km/h | 29923m | 6.1m/s | -44.6°C | 0.3% | 12.8hPa | 2.6V | 00:00:00 | 00:00:00 | 00:00:00 | |
| DB0DAN | 2026-08-31 00:38:55 | 53.23897 | 10.88342 | 59° | 11km/h | 29922m | 6.1m/s | -44.6°C | 0.3% | 12.77hPa | 2.6V | 00:00:00 | 00:00:00 | 00:00:00 | |
| DM0DOS-11 | 2026-08-31 00:38:54 | 53.23901 | 10.88309 | 136° | 15km/h | 29887m | 5.3m/s | -44.8°C | 2.3% | 12.8hPa | 2.5V | 03:21:17 | 01:53:58 | 00:00:00 | |
| AA1-15 | 2026-08-31 00:38:52 | 53.23894 | 10.88326 | 95° | 15km/h | 29905m | 7.1m/s | -44.7°C | 0% | 12.8hPa | 2.6V | 03:21:21 | 01:54:01 | 00:00:00 | |
| HSKMA3-T | 2026-08-31 00:38:51 | 53.23895 | 10.88320 | 119° | 16km/h | 29898m | 6.5m/s | 0°C | 0% | 0hPa | 2.6V | 03:21:21 | 01:54:00 | 00:00:00 | |
| DO2SHX-10 | 2026-08-31 00:38:51 | 53.23895 | 10.88320 | 119° | 16km/h | 29899m | 6.5m/s | -44.7°C | 2.3% | 12.8hPa | 2.6V | 03:21:00 | 01:54:00 | 00:00:00 | |
| MECKS9 | 2026-08-31 00:38:50 | 53.23895 | 10.88320 | 120° | 16km/h | 29899m | 6.5m/s | -44.7°C | 0.3% | 12.8hPa | 2.6V | 03:21:00 | 00:00:00 | 00:00:00 | |
| DF7ER-10 | 2026-08-31 00:38:48 | 53.23903 | 10.88305 | 133° | 11km/h | 29881m | 6.6m/s | -44.8°C | 0.4% | 12.9hPa | 2.6V | 03:21:00 | 00:00:00 | 00:00:00 | |
| DL1NUX | 2026-08-31 00:38:47 | 53.23907 | 10.88299 | 157° | 11km/h | 29850m | 6m/s | -44.9°C | 2.3% | 12.9hPa | 2.6V | 03:21:23 | 01:53:52 | 00:00:00 | |
| DO2SHX-10 | 2026-08-31 00:38:45 | 53.23904 | 10.88301 | 136° | 5km/h | 29862m | 5.2m/s | -44.8°C | 2.3% | 12.8hPa | 2.5V | 00:00:00 | 01:53:54 | 00:00:00 | |
| SMARD9-10 | 2026-08-31 00:38:44 | 53.23904 | 10.88301 | 0° | 0km/h | 29862m | 5.3m/s | -44.9°C | 0.3% | 12.9hPa | 2.5V | 03:21:00 | 00:00:00 | 00:00:00 | |
| DL1XH1-15 | 2026-08-31 00:38:43 | 53.23916 | 10.88275 | 90° | 18km/h | 29821m | 6.1m/s | -45.2°C | 2.4% | 13hPa | 2.5V | 03:21:28 | 01:53:47 | 00:00:00 | |
| DL1XH-west | 2026-08-31 00:38:42 | 53.23909 | 10.88297 | 146° | 13km/h | 29844m | 5m/s | -45°C | 0% | 12.9hPa | 2.6V | 03:22:12 | 01:53:51 | 00:00:00 | |
| AA1-15 | 2026-08-31 00:38:41 | 53.23912 | 10.88293 | 134° | 15km/h | 29839m | 4.5m/s | -45°C | 0% | 12.9hPa | 2.6V | 03:22:12 | 01:53:50 | 00:00:00 | |
| DM0DOS-11 | 2026-08-31 00:38:41 | 53.23915 | 10.88282 | 99° | 16km/h | 29828m | 6.8m/s | -45.1°C | 2.4% | 13hPa | 2.5V | 03:21:27 | 01:53:48 | 00:00:00 | |
| DF8AY | 2026-08-31 00:38:41 | 53.23916 | 10.88282 | 100° | 16km/h | 29828m | 6.8m/s | -45.1°C | 0% | 13hPa | 2.5V | 03:23:03 | 01:53:48 | 00:00:00 | |
| HSKMA3-T | 2026-08-31 00:38:40 | 53.23914 | 10.88288 | 119° | 15km/h | 29834m | 6.5m/s | 0°C | 0% | 0hPa | 2.6V | 18:12:15 | 01:53:49 | 00:00:00 | |
| DB0DAN | 2026-08-31 00:38:40 | 53.23914 | 10.88288 | 119° | 15km/h | 29834m | 6.5m/s | -45.1°C | 0.3% | 12.96hPa | 2.6V | 00:00:00 | 00:00:00 | 00:00:00 | |
| DO2SHX-10 | 2026-08-31 00:38:39 | 53.23916 | 10.88282 | 100° | 18km/h | 29828m | 6.8m/s | -45.1°C | 2.4% | 12.9hPa | 2.6V | 03:21:00 | 01:53:48 | 00:00:00 | |
| DL1NUX | 2026-08-31 00:38:38 | 53.23923 | 10.88238 | 121° | 16km/h | 29792m | 4.4m/s | -45.2°C | 2.3% | 13hPa | 2.6V | 03:21:33 | 01:53:42 | 00:00:00 | |
| DL1XH-west | 2026-08-31 00:38:32 | 53.23925 | 10.88233 | 113° | 13km/h | 29787m | 6.2m/s | -45.2°C | 0% | 13.1hPa | 2.6V | 03:22:12 | 01:53:41 | 00:00:00 | |
| DL3AQ-11 | 2026-08-31 00:38:32 | 53.23925 | 10.88229 | 82° | 9km/h | 29780m | 7.1m/s | -45.2°C | 0.3% | 13.1hPa | 2.6V | 00:00:00 | 00:00:00 | 00:00:00 | |
| DL1XH1-15 | 2026-08-31 00:38:31 | 53.23923 | 10.88219 | 79° | 9km/h | 29762m | 6.4m/s | -45.1°C | 2.4% | 13.1hPa | 2.6V | 03:21:38 | 01:53:37 | 00:00:00 | |
| DF8AY | 2026-08-31 00:38:31 | 53.23928 | 10.88157 | 103° | 20km/h | 29715m | 6.6m/s | -45.4°C | 0% | 13.1hPa | 2.6V | 03:23:03 | 01:53:29 | 00:00:00 | |
| AA1-15 | 2026-08-31 00:38:30 | 53.23925 | 10.88225 | 62° | 7km/h | 29773m | 5.9m/s | -45.2°C | 0% | 13.1hPa | 2.6V | 03:22:12 | 01:53:39 | 00:00:00 | |
| BIOWL1-15 | 2026-08-31 00:38:30 | 53.23923 | 10.88219 | 79° | 9km/h | 29762m | 6.4m/s | -45.2°C | 0% | 13.1hPa | 2.6V | 03:22:12 | 01:53:37 | 00:00:00 | |
| HSKMA3-T | 2026-08-31 00:38:29 | 53.23924 | 10.88222 | 60° | 7km/h | 29768m | 5m/s | 0°C | 0% | 0hPa | 2.6V | 18:12:15 | 01:53:38 | 00:00:00 | |
| GOEST3-10 | 2026-08-31 00:38:28 | 53.23923 | 10.88219 | 80° | 16km/h | 29763m | 6.4m/s | -45.1°C | 2.4% | 13.0hPa | 2.5V | 03:21:00 | 00:00:00 | 00:00:00 | |
| EDDB2-11 | 2026-08-31 00:38:27 | 53.23924 | 10.88209 | 109° | 16km/h | 29750m | 5.7m/s | -45.2°C | 0.3% | 13.1hPa | 2.5V | 00:00:00 | 00:00:00 | 00:00:00 | |
| DL1NUX | 2026-08-31 00:38:26 | 53.23927 | 10.88184 | 90° | 22km/h | 29732m | 6.6m/s | -45.3°C | 2.4% | 13.2hPa | 2.5V | 03:21:43 | 01:53:32 | 00:00:00 | |
| DB0DAN | 2026-08-31 00:38:25 | 53.23926 | 10.88202 | 107° | 20km/h | 29745m | 5.5m/s | -45.2°C | 0.3% | 13.13hPa | 2.6V | 00:00:00 | 00:00:00 | 00:00:00 | |
| SONDE2-11 | 2026-08-31 00:38:25 | 53.23927 | 10.88193 | 96° | 20km/h | 29739m | 6.8m/s | -45.2°C | 0.3% | 13.2hPa | 2.6V | 00:00:00 | 00:00:00 | 00:00:00 | |
| DO2SHX-10 | 2026-08-31 00:38:24 | 53.23927 | 10.88193 | 97° | 22km/h | 29739m | 6.8m/s | -45.2°C | 2.4% | 13.1hPa | 2.6V | 00:00:00 | 01:53:33 | 00:00:00 | |
| DL1XH1-15 | 2026-08-31 00:38:23 | 53.23932 | 10.88142 | 118° | 16km/h | 29703m | 5m/s | -45.4°C | 2.4% | 13.2hPa | 2.6V | 03:21:48 | 01:53:27 | 00:00:00 | |
| DL1XH-west | 2026-08-31 00:38:22 | 53.23927 | 10.88165 | 95° | 22km/h | 29721m | 5.4m/s | -45.4°C | 0% | 13.2hPa | 2.5V | 03:22:12 | 01:53:30 | 00:00:00 | |
| DM0DOS-11 | 2026-08-31 00:38:21 | 53.23930 | 10.88149 | 114° | 18km/h | 29708m | 6m/s | -45.4°C | 2.4% | 13.2hPa | 2.6V | 03:21:47 | 01:53:28 | 00:00:00 | |
| DF8AY | 2026-08-31 00:38:21 | 53.23931 | 10.88122 | 58° | 18km/h | 29680m | 5.4m/s | -45.5°C | 0% | 13.3hPa | 2.6V | 03:23:03 | 01:53:23 | 00:00:00 | |
| AA1-15 | 2026-08-31 00:38:20 | 53.23930 | 10.88149 | 115° | 20km/h | 29708m | 6m/s | -45.4°C | 0% | 13.2hPa | 2.6V | 03:22:12 | 01:53:28 | 00:00:00 | |
| BIOWL1-15 | 2026-08-31 00:38:20 | 53.23929 | 10.88115 | 69° | 22km/h | 29674m | 5.4m/s | -45.5°C | 0% | 13.2hPa | 2.6V | 03:22:12 | 01:53:22 | 00:00:00 | |
| DL1NUX | 2026-08-31 00:38:18 | 53.23929 | 10.88115 | 68° | 22km/h | 29674m | 5.4m/s | -45.5°C | 2.4% | 13.2hPa | 2.6V | 03:21:53 | 01:53:22 | 00:00:00 | |
| DO2SHX-10 | 2026-08-31 00:38:18 | 53.23932 | 10.88142 | 119° | 13km/h | 29703m | 4.9m/s | -45.4°C | 2.4% | 13.2hPa | 2.6V | 00:00:00 | 01:53:27 | 00:00:00 | |
| DL3AQ-11 | 2026-08-31 00:38:16 | 53.23933 | 10.88127 | 59° | 13km/h | 29686m | 6.6m/s | -45.5°C | 0.3% | 13.2hPa | 2.6V | 00:00:00 | 00:00:00 | 00:00:00 | |
| DO2SHX-10 | 2026-08-31 00:38:15 | 53.23933 | 10.88127 | 60° | 16km/h | 29686m | 6.5m/s | -45.4°C | 2.4% | 13.2hPa | 2.6V | 03:21:00 | 01:53:24 | 00:00:00 | |
| S3001 | 2026-08-31 00:38:14 | 53.23929 | 10.88115 | 68° | 20km/h | 29675m | 5.4m/s | -45.5°C | 0.3% | 13.2hPa | 2.6V | 00:00:00 | 00:00:00 | 00:00:00 | |
| DM0DOS-11 | 2026-08-31 00:38:13 | 53.23927 | 10.88066 | 90° | 37km/h | 29652m | 5.3m/s | -45.5°C | 2.4% | 13.3hPa | 2.6V | 03:21:57 | 01:53:18 | 00:00:00 | |
| DL1XH-west | 2026-08-31 00:38:11 | 53.23927 | 10.88094 | 88° | 29km/h | 29662m | 6m/s | -45.5°C | 0% | 13.3hPa | 2.6V | 03:22:12 | 01:53:20 | 00:00:00 | |
| DL1XH1-15 | 2026-08-31 00:38:11 | 53.23926 | 10.88051 | 84° | 37km/h | 29646m | 7m/s | -45.5°C | 2.4% | 13.3hPa | 2.6V | 03:21:58 | 01:53:17 | 00:00:00 | |
| DF8AY | 2026-08-31 00:38:10 | 53.23927 | 10.88081 | 92° | 35km/h | 29656m | 4.9m/s | -45.5°C | 0% | 13.3hPa | 2.6V | 03:23:03 | 01:53:19 | 00:00:00 | |
| DB0DAN | 2026-08-31 00:38:10 | 53.23927 | 10.88081 | 92° | 33km/h | 29656m | 4.9m/s | -45.5°C | 0.3% | 13.3hPa | 2.6V | 00:00:00 | 00:00:00 | 00:00:00 | |
| AA1-15 | 2026-08-31 00:38:10 | 53.23927 | 10.88066 | 90° | 37km/h | 29652m | 5.3m/s | -45.5°C | 0% | 13.3hPa | 2.6V | 03:22:12 | 01:53:18 | 00:00:00 | |
| BIOWL1-15 | 2026-08-31 00:38:08 | 53.23926 | 10.88051 | 85° | 37km/h | 29646m | 7m/s | -45.5°C | 0% | 13.3hPa | 2.6V | 03:22:12 | 01:53:17 | 00:00:00 | |
| DK7RCA | 2026-08-31 00:38:08 | 53.23926 | 10.88051 | 86° | 37km/h | 29646m | 7.0m/s | -45.5°C | 0.4% | 13.3hPa | 2.6V | 03:22:00 | 00:00:00 | 00:00:00 | |
| DO2LYB-13 | 2026-08-31 00:38:07 | 53.23925 | 10.88036 | 79° | 33km/h | 29639m | 6.4m/s | -45.6°C | 0.4% | 13.3hPa | 2.6V | 00:00:00 | 00:00:00 | 00:00:00 | |
| DL1NUX | 2026-08-31 00:38:06 | 53.23920 | 10.87995 | 83° | 16km/h | 29615m | 5.8m/s | -45.6°C | 2.4% | 13.4hPa | 2.6V | 03:22:03 | 01:53:12 | 00:00:00 | |
| HTAHTA | 2026-08-31 00:38:06 | 53.23921 | 10.88012 | 75° | 24km/h | 29628m | 5.4m/s | -45.6°C | 0.4% | 13.3hPa | 2.6V | 00:00:00 | 00:00:00 | 00:00:00 | |
| DL4BBY-15 | 2026-08-31 00:38:05 | 53.23921 | 10.88012 | 76° | 24km/h | 29629m | 5.4m/s | -46.1°C | 0% | 0hPa | 2.6V | 00:00:00 | 00:00:00 | 00:00:00 | |
| DK1YY | 2026-08-31 00:38:04 | 53.23884 | 10.87871 | 25° | 16km/h | 29534m | 5.5m/s | -45.8°C | 0.4% | 13.6hPa | 2.6V | 00:00:00 | 00:00:00 | 00:00:00 | |
| DL1XH1-15 | 2026-08-31 00:38:03 | 53.23907 | 10.87960 | 53° | 29km/h | 29587m | 5m/s | -45.7°C | 2.5% | 13.4hPa | 2.6V | 03:22:08 | 01:53:07 | 00:00:00 | |
| DL1XH-west | 2026-08-31 00:38:01 | 53.23915 | 10.87976 | 49° | 20km/h | 29599m | 6.5m/s | -45.6°C | 0% | 13.4hPa | 2.6V | 03:22:12 | 01:53:09 | 00:00:00 | |
| DO3MHA-11 | 2026-08-31 00:38:01 | 53.23917 | 10.87982 | 62° | 27km/h | 29605m | 5.8m/s | -45.6°C | 2.4% | 13.3hPa | 2.5V | 00:00:00 | 01:53:10 | 00:00:00 | |
| DL1XH-15 | 2026-08-31 00:38:00 | 53.23898 | 10.87924 | 82° | 33km/h | 29568m | 6m/s | -45.8°C | 2.5% | 13.5hPa | 2.5V | 03:22:11 | 01:53:04 | 00:00:00 | |
| DF8AY | 2026-08-31 00:37:59 | 53.23911 | 10.87969 | 47° | 26km/h | 29592m | 5.7m/s | -45.6°C | 0% | 13.4hPa | 2.6V | 03:23:03 | 01:53:08 | 00:00:00 | |
| BIOWL1-15 | 2026-08-31 00:37:58 | 53.23907 | 10.87960 | 54° | 29km/h | 29587m | 5m/s | -45.7°C | 0% | 13.4hPa | 2.6V | 03:22:12 | 01:53:07 | 00:00:00 | |
| DC4HF-4 | 2026-08-31 00:37:56 | 53.23898 | 10.87924 | 82° | 31km/h | 29568m | 6.1m/s | -45.8°C | 0.4% | 13.5hPa | 2.5V | 00:00:00 | 00:00:00 | 00:00:00 | |
| DB0DAN | 2026-08-31 00:37:55 | 53.23898 | 10.87924 | 83° | 31km/h | 29568m | 6.1m/s | -45.8°C | 0.4% | 13.46hPa | 2.5V | 00:00:00 | 00:00:00 | 00:00:00 | |
| SONDE2-11 | 2026-08-31 00:37:54 | 53.23897 | 10.87899 | 79° | 27km/h | 29558m | 5.4m/s | -45.8°C | 0.4% | 13.5hPa | 2.5V | 00:00:00 | 00:00:00 | 00:00:00 | |
| DD8BA-10 | 2026-08-31 00:37:53 | 53.23897 | 10.87899 | 80° | 20km/h | 29558m | 5.4m/s | -45.8°C | 2.5% | 13.4hPa | 2.5V | 00:00:00 | 00:00:00 | 00:00:00 | |
| DM0DOS-11 | 2026-08-31 00:37:52 | 53.23884 | 10.87871 | 25° | 16km/h | 29534m | 5.5m/s | -45.8°C | 2.5% | 13.6hPa | 2.5V | 03:22:17 | 01:52:58 | 00:00:00 | |
| DL1XH1-15 | 2026-08-31 00:37:51 | 53.23881 | 10.87868 | 23° | 15km/h | 29527m | 6.4m/s | -45.8°C | 2.5% | 13.6hPa | 2.5V | 03:22:18 | 01:52:57 | 00:00:00 | |
| DL1XH-west | 2026-08-31 00:37:49 | 53.23884 | 10.87871 | 25° | 16km/h | 29534m | 5.5m/s | -45.8°C | 0% | 13.6hPa | 2.5V | 03:23:03 | 01:52:58 | 00:00:00 | |
| DL1XH-15 | 2026-08-31 00:37:49 | 53.23872 | 10.87855 | 51° | 22km/h | 29511m | 4.7m/s | -45.6°C | 2.5% | 13.6hPa | 2.6V | 03:22:21 | 01:52:54 | 00:00:00 | |
| DF8AY | 2026-08-31 00:37:48 | 53.23881 | 10.87868 | 23° | 15km/h | 29527m | 6.4m/s | -45.8°C | 0% | 13.6hPa | 2.5V | 03:23:03 | 01:52:57 | 00:00:00 | |
| BIOWL1-15 | 2026-08-31 00:37:48 | 53.23863 | 10.87837 | 53° | 35km/h | 29499m | 6.6m/s | -45.6°C | 0% | 13.7hPa | 2.6V | 03:23:03 | 01:52:52 | 00:00:00 | |
| TFSTFS | 2026-08-31 00:37:47 | 53.23881 | 10.87868 | 24° | 15km/h | 29528m | 6.4m/s | -45.8°C | 0.4% | 13.6hPa | 2.6V | 03:23:00 | 00:00:00 | 00:00:00 | |
| DK7RCA | 2026-08-31 00:37:46 | 53.23875 | 10.87861 | 48° | 15km/h | 29517m | 4.7m/s | -45.7°C | 0.4% | 13.6hPa | 2.6V | 03:23:00 | 00:00:00 | 00:00:00 | |
| DO2SHX-10 | 2026-08-31 00:37:45 | 53.23872 | 10.87855 | 52° | 27km/h | 29512m | 4.7m/s | -45.6°C | 2.5% | 13.5hPa | 2.6V | 00:00:00 | 01:52:54 | 00:00:00 | |
| DL1ZP-14 | 2026-08-31 00:37:44 | 53.23863 | 10.87837 | 53° | 35km/h | 29499m | 6.6m/s | -45.6°C | 0.3% | 13.7hPa | 2.6V | 00:00:00 | 00:00:00 | 00:00:00 | |
| DL1XH1-15 | 2026-08-31 00:37:43 | 53.23841 | 10.87769 | 73° | 24km/h | 29471m | 5.5m/s | -45.4°C | 2.5% | 13.7hPa | 2.6V | 03:22:28 | 01:52:47 | 00:00:00 | |
| S3001 | 2026-08-31 00:37:43 | 53.23858 | 10.87824 | 55° | 40km/h | 29493m | 5.6m/s | -45.6°C | 0.3% | 13.6hPa | 2.6V | 00:00:00 | 00:00:00 | 00:00:00 | |
| DM0DOS-11 | 2026-08-31 00:37:42 | 53.23844 | 10.87780 | 70° | 33km/h | 29476m | 6.2m/s | -45.5°C | 2.5% | 13.6hPa | 2.6V | 03:22:27 | 01:52:48 | 00:00:00 | |
| DB0DAN | 2026-08-31 00:37:40 | 53.23847 | 10.87794 | 65° | 37km/h | 29483m | 6m/s | -45.5°C | 0.4% | 13.63hPa | 2.6V | 00:00:00 | 00:00:00 | 00:00:00 | |
| DL1XH-15 | 2026-08-31 00:37:39 | 53.23834 | 10.87751 | 27° | 18km/h | 29453m | 6.7m/s | -45.3°C | 2.5% | 13.7hPa | 2.6V | 03:22:31 | 01:52:44 | 00:00:00 | |
| BIOWL1-15 | 2026-08-31 00:37:39 | 53.23829 | 10.87748 | 18° | 22km/h | 29447m | 5.6m/s | -45.3°C | 0% | 13.7hPa | 2.6V | 03:23:03 | 01:52:43 | 00:00:00 | |
| DL4XJ-10 | 2026-08-31 00:37:39 | 53.23844 | 10.87780 | 71° | 20km/h | 29477m | 6.2m/s | -46.0°C | 0% | 0hPa | 2.6V | 00:00:00 | 00:00:00 | 00:00:00 | |
| DL1NUX | 2026-08-31 00:37:38 | 53.23824 | 10.87745 | 19° | 24km/h | 29442m | 4.3m/s | -45.2°C | 2.4% | 13.7hPa | 2.6V | 03:22:33 | 01:52:42 | 00:00:00 | |
| DL1XH-west | 2026-08-31 00:37:38 | 53.23842 | 10.87769 | 73° | 24km/h | 29471m | 5.5m/s | -45.4°C | 0% | 13.7hPa | 2.6V | 03:23:03 | 01:52:47 | 00:00:00 | |
| DF8AY | 2026-08-31 00:37:37 | 53.23840 | 10.87761 | 67° | 18km/h | 29465m | 5.1m/s | -45.4°C | 0% | 13.7hPa | 2.6V | 03:23:03 | 01:52:46 | 00:00:00 | |
| DO2SHX-10 | 2026-08-31 00:37:36 | 53.23838 | 10.87755 | 49° | 18km/h | 29460m | 5.9m/s | -45.3°C | 2.4% | 13.6hPa | 2.6V | 00:00:00 | 01:52:45 | 00:00:00 | |
| HTAHTA | 2026-08-31 00:37:35 | 53.23829 | 10.87748 | 18° | 22km/h | 29447m | 5.6m/s | -45.3°C | 0.3% | 13.7hPa | 2.6V | 00:00:00 | 00:00:00 | 00:00:00 | |
| DB0NH | 2026-08-31 00:37:34 | 53.23829 | 10.87748 | 19° | 18km/h | 29447m | 5.6m/s | -45.2°C | 2.4% | 13.7hPa | 2.6V | 00:00:00 | 01:52:43 | 00:00:00 | |
| DK1YY | 2026-08-31 00:37:33 | 53.23813 | 10.87735 | 42° | 20km/h | 29432m | 6.1m/s | -45.1°C | 0.3% | 13.7hPa | 2.6V | 00:00:00 | 00:00:00 | 00:00:00 | |
| DL1XH1-15 | 2026-08-31 00:37:31 | 53.23807 | 10.87711 | 75° | 24km/h | 29414m | 4.8m/s | -45°C | 2.4% | 13.8hPa | 2.6V | 03:22:38 | 01:52:37 | 00:00:00 | |
| DO3MHA-11 | 2026-08-31 00:37:31 | 53.23813 | 10.87735 | 43° | 20km/h | 29432m | 6.0m/s | -45.1°C | 2.4% | 13.7hPa | 2.6V | 03:22:00 | 01:52:40 | 00:00:00 | |
| DO2SHX-10 | 2026-08-31 00:37:30 | 53.23810 | 10.87729 | 62° | 22km/h | 29426m | 6.4m/s | -45.0°C | 2.4% | 13.7hPa | 2.6V | 00:00:00 | 01:52:39 | 00:00:00 | |
| DL1XH-15 | 2026-08-31 00:37:29 | 53.23798 | 10.87686 | 42° | 22km/h | 29397m | 5.4m/s | -44.9°C | 2.3% | 13.8hPa | 2.7V | 03:22:41 | 01:52:34 | 00:00:00 | |
| DF8AY | 2026-08-31 00:37:27 | 53.23805 | 10.87702 | 68° | 22km/h | 29409m | 5.3m/s | -45°C | 0% | 13.8hPa | 2.6V | 03:23:03 | 01:52:36 | 00:00:00 | |
| DO2SHX-10 | 2026-08-31 00:37:27 | 53.23805 | 10.87702 | 68° | 22km/h | 29410m | 5.2m/s | -44.9°C | 2.4% | 13.8hPa | 2.6V | 03:22:00 | 01:52:36 | 00:00:00 | |
| DL1NUX | 2026-08-31 00:37:26 | 53.23789 | 10.87677 | 26° | 20km/h | 29388m | 5.2m/s | -44.9°C | 2.3% | 13.9hPa | 2.6V | 03:22:43 | 01:52:32 | 00:00:00 | |
| Es werden nur die letzten 3500 von 8257 Frames angezeigt. GPX/KML und Diagramme bleiben verfügbar. | |||||||||||||||